<?xml version="1.0" encoding="UTF-8"?>
<gpx version="1.1" creator="https://www.youtrack.es" xsi:schemaLocation="http://www.topografix.com/GPX/1/1 http://www.topografix.com/GPX/1/1/gpx.xsd http://www.garmin.com/xmlschemas/GpxExtensions/v3 http://www.garmin.com/xmlschemas/GpxExtensionsv3.xsd http://www.garmin.com/xmlschemas/TrackPointExtension/v1 http://www.garmin.com/xmlschemas/TrackPointExtensionv1.xsd" xmlns:gpxtpx="http://www.garmin.com/xmlschemas/TrackPointExtension/v1" xmlns:gpxx="http://www.garmin.com/xmlschemas/GpxExtensions/v3" xmlns:xsi="http://www.w3.org/2001/XMLSchema-instance">
  <metadata>
    <link href="https://www.youtrack.es">
      <text>YouTrack.es</text>
    </link>
    <time>2026-05-08T09:02:34Z</time>
  </metadata>
  <trk>
    <src>https://www.youtrack.es</src>
    <link href="https://www.youtrack.es/ruta/9601-2019-1-21-13-05-03">
      <text>YouTrack.es</text>
    </link>
    <trkseg>
      <trkpt lat="42.77104666" lon="-1.63256064">
        <ele>495.47705</ele>
        <time>2019-11-21T13:05:04Z</time>
      </trkpt>
      <trkpt lat="42.77128971" lon="-1.63258586">
        <ele>497.56348</ele>
        <time>2019-11-21T13:05:08Z</time>
      </trkpt>
      <trkpt lat="42.77146233" lon="-1.63258577">
        <ele>497.02527</ele>
        <time>2019-11-21T13:05:11Z</time>
      </trkpt>
      <trkpt lat="42.77176873" lon="-1.63261232">
        <ele>497.4901</ele>
        <time>2019-11-21T13:05:13Z</time>
      </trkpt>
      <trkpt lat="42.77196062" lon="-1.63263093">
        <ele>498.46942</ele>
        <time>2019-11-21T13:05:15Z</time>
      </trkpt>
      <trkpt lat="42.77210562" lon="-1.63263981">
        <ele>499.3036</ele>
        <time>2019-11-21T13:05:17Z</time>
      </trkpt>
      <trkpt lat="42.77224256" lon="-1.63274319">
        <ele>499.3897</ele>
        <time>2019-11-21T13:05:25Z</time>
      </trkpt>
      <trkpt lat="42.77223826" lon="-1.63297012">
        <ele>500.60803</ele>
        <time>2019-11-21T13:05:28Z</time>
      </trkpt>
      <trkpt lat="42.77223269" lon="-1.63315445">
        <ele>500.81055</ele>
        <time>2019-11-21T13:05:30Z</time>
      </trkpt>
      <trkpt lat="42.77225674" lon="-1.63335493">
        <ele>501.59998</ele>
        <time>2019-11-21T13:05:42Z</time>
      </trkpt>
      <trkpt lat="42.77244326" lon="-1.63339909">
        <ele>502.3922</ele>
        <time>2019-11-21T13:05:47Z</time>
      </trkpt>
      <trkpt lat="42.7727201" lon="-1.63342249">
        <ele>503.48718</ele>
        <time>2019-11-21T13:05:49Z</time>
      </trkpt>
      <trkpt lat="42.7729213" lon="-1.63344254">
        <ele>504.34296</ele>
        <time>2019-11-21T13:05:51Z</time>
      </trkpt>
      <trkpt lat="42.77313392" lon="-1.63346235">
        <ele>505.65894</ele>
        <time>2019-11-21T13:05:53Z</time>
      </trkpt>
      <trkpt lat="42.77334646" lon="-1.63347999">
        <ele>508.247</ele>
        <time>2019-11-21T13:05:55Z</time>
      </trkpt>
      <trkpt lat="42.77355038" lon="-1.63350001">
        <ele>510.2953</ele>
        <time>2019-11-21T13:05:57Z</time>
      </trkpt>
      <trkpt lat="42.773739" lon="-1.63351657">
        <ele>512.6632</ele>
        <time>2019-11-21T13:05:59Z</time>
      </trkpt>
      <trkpt lat="42.77390907" lon="-1.63353016">
        <ele>513.6815</ele>
        <time>2019-11-21T13:06:01Z</time>
      </trkpt>
      <trkpt lat="42.77409229" lon="-1.63353655">
        <ele>513.5601</ele>
        <time>2019-11-21T13:06:04Z</time>
      </trkpt>
      <trkpt lat="42.77424618" lon="-1.63354016">
        <ele>512.9602</ele>
        <time>2019-11-21T13:06:14Z</time>
      </trkpt>
      <trkpt lat="42.77438673" lon="-1.63357612">
        <ele>513.42474</ele>
        <time>2019-11-21T13:06:22Z</time>
      </trkpt>
      <trkpt lat="42.77445663" lon="-1.63373709">
        <ele>513.97314</ele>
        <time>2019-11-21T13:06:24Z</time>
      </trkpt>
      <trkpt lat="42.77446004" lon="-1.63392502">
        <ele>513.09033</ele>
        <time>2019-11-21T13:06:27Z</time>
      </trkpt>
      <trkpt lat="42.77442892" lon="-1.63413938">
        <ele>511.67322</ele>
        <time>2019-11-21T13:06:31Z</time>
      </trkpt>
      <trkpt lat="42.77432043" lon="-1.63426391">
        <ele>509.6714</ele>
        <time>2019-11-21T13:06:37Z</time>
      </trkpt>
      <trkpt lat="42.77414079" lon="-1.6343201">
        <ele>509.16296</ele>
        <time>2019-11-21T13:23:15Z</time>
      </trkpt>
      <trkpt lat="42.77400645" lon="-1.63428578">
        <ele>508.66156</ele>
        <time>2019-11-21T13:23:37Z</time>
      </trkpt>
      <trkpt lat="42.77403828" lon="-1.63400713">
        <ele>510.14417</ele>
        <time>2019-11-21T13:23:41Z</time>
      </trkpt>
      <trkpt lat="42.77405073" lon="-1.6337796">
        <ele>511.55884</ele>
        <time>2019-11-21T13:23:44Z</time>
      </trkpt>
      <trkpt lat="42.77405612" lon="-1.63358877">
        <ele>512.01807</ele>
        <time>2019-11-21T13:23:48Z</time>
      </trkpt>
      <trkpt lat="42.77418488" lon="-1.63348656">
        <ele>513.56494</ele>
        <time>2019-11-21T13:24:01Z</time>
      </trkpt>
      <trkpt lat="42.77434011" lon="-1.63353392">
        <ele>511.70953</ele>
        <time>2019-11-21T13:24:04Z</time>
      </trkpt>
      <trkpt lat="42.77451141" lon="-1.6335537">
        <ele>511.63013</ele>
        <time>2019-11-21T13:24:07Z</time>
      </trkpt>
      <trkpt lat="42.77467763" lon="-1.63358775">
        <ele>510.1692</ele>
        <time>2019-11-21T13:24:10Z</time>
      </trkpt>
      <trkpt lat="42.7748187" lon="-1.63347166">
        <ele>507.95874</ele>
        <time>2019-11-21T13:24:14Z</time>
      </trkpt>
      <trkpt lat="42.77491146" lon="-1.6333331">
        <ele>506.44165</ele>
        <time>2019-11-21T13:24:21Z</time>
      </trkpt>
      <trkpt lat="42.77499226" lon="-1.63312187">
        <ele>506.9759</ele>
        <time>2019-11-21T13:24:25Z</time>
      </trkpt>
      <trkpt lat="42.77506724" lon="-1.63290038">
        <ele>506.85034</ele>
        <time>2019-11-21T13:24:27Z</time>
      </trkpt>
      <trkpt lat="42.77513376" lon="-1.63265633">
        <ele>508.39532</ele>
        <time>2019-11-21T13:24:28Z</time>
      </trkpt>
      <trkpt lat="42.77520307" lon="-1.63238351">
        <ele>508.81995</ele>
        <time>2019-11-21T13:24:30Z</time>
      </trkpt>
      <trkpt lat="42.77527937" lon="-1.63211422">
        <ele>509.6656</ele>
        <time>2019-11-21T13:24:32Z</time>
      </trkpt>
      <trkpt lat="42.77534939" lon="-1.63183877">
        <ele>509.68823</ele>
        <time>2019-11-21T13:24:34Z</time>
      </trkpt>
      <trkpt lat="42.77542413" lon="-1.63156084">
        <ele>509.7157</ele>
        <time>2019-11-21T13:24:36Z</time>
      </trkpt>
      <trkpt lat="42.775504" lon="-1.63127695">
        <ele>510.48853</ele>
        <time>2019-11-21T13:24:38Z</time>
      </trkpt>
      <trkpt lat="42.77558168" lon="-1.63098085">
        <ele>510.54468</ele>
        <time>2019-11-21T13:24:40Z</time>
      </trkpt>
      <trkpt lat="42.77563316" lon="-1.63068866">
        <ele>510.9901</ele>
        <time>2019-11-21T13:24:42Z</time>
      </trkpt>
      <trkpt lat="42.7756669" lon="-1.63037016">
        <ele>509.19873</ele>
        <time>2019-11-21T13:24:45Z</time>
      </trkpt>
      <trkpt lat="42.77559519" lon="-1.63015613">
        <ele>507.96716</ele>
        <time>2019-11-21T13:24:48Z</time>
      </trkpt>
      <trkpt lat="42.77554872" lon="-1.62988595">
        <ele>505.78583</ele>
        <time>2019-11-21T13:24:51Z</time>
      </trkpt>
      <trkpt lat="42.77558086" lon="-1.62967724">
        <ele>505.00903</ele>
        <time>2019-11-21T13:24:53Z</time>
      </trkpt>
      <trkpt lat="42.77570592" lon="-1.6295046">
        <ele>504.27234</ele>
        <time>2019-11-21T13:24:55Z</time>
      </trkpt>
      <trkpt lat="42.77587979" lon="-1.6294591">
        <ele>503.5381</ele>
        <time>2019-11-21T13:24:57Z</time>
      </trkpt>
      <trkpt lat="42.7761213" lon="-1.62958327">
        <ele>503.84778</ele>
        <time>2019-11-21T13:25:00Z</time>
      </trkpt>
      <trkpt lat="42.77621568" lon="-1.62978435">
        <ele>503.90393</ele>
        <time>2019-11-21T13:25:02Z</time>
      </trkpt>
      <trkpt lat="42.77629608" lon="-1.62999601">
        <ele>504.97632</ele>
        <time>2019-11-21T13:25:04Z</time>
      </trkpt>
      <trkpt lat="42.77637452" lon="-1.63021782">
        <ele>505.58105</ele>
        <time>2019-11-21T13:25:06Z</time>
      </trkpt>
      <trkpt lat="42.77645838" lon="-1.63047538">
        <ele>506.72363</ele>
        <time>2019-11-21T13:25:08Z</time>
      </trkpt>
      <trkpt lat="42.77656947" lon="-1.63074165">
        <ele>506.33264</ele>
        <time>2019-11-21T13:25:10Z</time>
      </trkpt>
      <trkpt lat="42.77669326" lon="-1.6310103">
        <ele>506.96912</ele>
        <time>2019-11-21T13:25:12Z</time>
      </trkpt>
      <trkpt lat="42.77683484" lon="-1.6312766">
        <ele>507.18787</ele>
        <time>2019-11-21T13:25:14Z</time>
      </trkpt>
      <trkpt lat="42.77704067" lon="-1.6314824">
        <ele>507.7975</ele>
        <time>2019-11-21T13:25:16Z</time>
      </trkpt>
      <trkpt lat="42.77715786" lon="-1.63157722">
        <ele>509.06842</ele>
        <time>2019-11-21T13:25:17Z</time>
      </trkpt>
      <trkpt lat="42.77738779" lon="-1.6317196">
        <ele>507.91827</ele>
        <time>2019-11-21T13:25:19Z</time>
      </trkpt>
      <trkpt lat="42.77753249" lon="-1.63176194">
        <ele>507.8755</ele>
        <time>2019-11-21T13:25:20Z</time>
      </trkpt>
      <trkpt lat="42.77768138" lon="-1.63181542">
        <ele>507.8623</ele>
        <time>2019-11-21T13:25:21Z</time>
      </trkpt>
      <trkpt lat="42.77781998" lon="-1.63184738">
        <ele>508.07874</ele>
        <time>2019-11-21T13:25:22Z</time>
      </trkpt>
      <trkpt lat="42.7779728" lon="-1.63187802">
        <ele>508.24304</ele>
        <time>2019-11-21T13:25:23Z</time>
      </trkpt>
      <trkpt lat="42.77811665" lon="-1.63191805">
        <ele>509.44775</ele>
        <time>2019-11-21T13:25:24Z</time>
      </trkpt>
      <trkpt lat="42.77826223" lon="-1.63196102">
        <ele>509.63257</ele>
        <time>2019-11-21T13:25:25Z</time>
      </trkpt>
      <trkpt lat="42.77841608" lon="-1.63201279">
        <ele>509.41284</ele>
        <time>2019-11-21T13:25:26Z</time>
      </trkpt>
      <trkpt lat="42.77857405" lon="-1.63208214">
        <ele>508.22528</ele>
        <time>2019-11-21T13:25:27Z</time>
      </trkpt>
      <trkpt lat="42.77872167" lon="-1.63217286">
        <ele>508.39</ele>
        <time>2019-11-21T13:25:28Z</time>
      </trkpt>
      <trkpt lat="42.77886647" lon="-1.6322746">
        <ele>507.14136</ele>
        <time>2019-11-21T13:25:29Z</time>
      </trkpt>
      <trkpt lat="42.77900309" lon="-1.63240628">
        <ele>507.08984</ele>
        <time>2019-11-21T13:25:30Z</time>
      </trkpt>
      <trkpt lat="42.77913955" lon="-1.63255099">
        <ele>506.99945</ele>
        <time>2019-11-21T13:25:31Z</time>
      </trkpt>
      <trkpt lat="42.7792658" lon="-1.63271097">
        <ele>506.59326</ele>
        <time>2019-11-21T13:25:33Z</time>
      </trkpt>
      <trkpt lat="42.77938768" lon="-1.63286584">
        <ele>506.2492</ele>
        <time>2019-11-21T13:25:34Z</time>
      </trkpt>
      <trkpt lat="42.77951841" lon="-1.63301981">
        <ele>505.05127</ele>
        <time>2019-11-21T13:25:35Z</time>
      </trkpt>
      <trkpt lat="42.77978279" lon="-1.6333267">
        <ele>502.4231</ele>
        <time>2019-11-21T13:25:36Z</time>
      </trkpt>
      <trkpt lat="42.77992796" lon="-1.63345468">
        <ele>502.9729</ele>
        <time>2019-11-21T13:25:37Z</time>
      </trkpt>
      <trkpt lat="42.78008814" lon="-1.63357913">
        <ele>502.33984</ele>
        <time>2019-11-21T13:25:38Z</time>
      </trkpt>
      <trkpt lat="42.78024742" lon="-1.63367198">
        <ele>502.43365</ele>
        <time>2019-11-21T13:25:39Z</time>
      </trkpt>
      <trkpt lat="42.78042282" lon="-1.6337597">
        <ele>501.2625</ele>
        <time>2019-11-21T13:25:40Z</time>
      </trkpt>
      <trkpt lat="42.78058805" lon="-1.6338412">
        <ele>500.74255</ele>
        <time>2019-11-21T13:25:41Z</time>
      </trkpt>
      <trkpt lat="42.78074453" lon="-1.63391326">
        <ele>499.23218</ele>
        <time>2019-11-21T13:25:42Z</time>
      </trkpt>
      <trkpt lat="42.78091052" lon="-1.63399448">
        <ele>498.8109</ele>
        <time>2019-11-21T13:25:43Z</time>
      </trkpt>
      <trkpt lat="42.78107057" lon="-1.63408844">
        <ele>498.56946</ele>
        <time>2019-11-21T13:25:44Z</time>
      </trkpt>
      <trkpt lat="42.78124359" lon="-1.63419339">
        <ele>498.08423</ele>
        <time>2019-11-21T13:25:45Z</time>
      </trkpt>
      <trkpt lat="42.7814125" lon="-1.63432688">
        <ele>498.19226</ele>
        <time>2019-11-21T13:25:46Z</time>
      </trkpt>
      <trkpt lat="42.78158719" lon="-1.63446238">
        <ele>497.714</ele>
        <time>2019-11-21T13:25:47Z</time>
      </trkpt>
      <trkpt lat="42.78175981" lon="-1.63459123">
        <ele>497.76398</ele>
        <time>2019-11-21T13:25:48Z</time>
      </trkpt>
      <trkpt lat="42.78194249" lon="-1.63473775">
        <ele>498.05695</ele>
        <time>2019-11-21T13:25:49Z</time>
      </trkpt>
      <trkpt lat="42.78212543" lon="-1.63489288">
        <ele>498.06116</ele>
        <time>2019-11-21T13:25:50Z</time>
      </trkpt>
      <trkpt lat="42.78230758" lon="-1.63505806">
        <ele>497.40503</ele>
        <time>2019-11-21T13:25:51Z</time>
      </trkpt>
      <trkpt lat="42.78247652" lon="-1.63524133">
        <ele>495.8302</ele>
        <time>2019-11-21T13:25:52Z</time>
      </trkpt>
      <trkpt lat="42.78264016" lon="-1.63542655">
        <ele>494.95825</ele>
        <time>2019-11-21T13:25:53Z</time>
      </trkpt>
      <trkpt lat="42.78280972" lon="-1.63562554">
        <ele>496.0846</ele>
        <time>2019-11-21T13:25:54Z</time>
      </trkpt>
      <trkpt lat="42.78297326" lon="-1.63582186">
        <ele>495.68457</ele>
        <time>2019-11-21T13:25:55Z</time>
      </trkpt>
      <trkpt lat="42.78312635" lon="-1.63603951">
        <ele>494.90454</ele>
        <time>2019-11-21T13:25:56Z</time>
      </trkpt>
      <trkpt lat="42.78327771" lon="-1.6362732">
        <ele>494.22784</ele>
        <time>2019-11-21T13:25:57Z</time>
      </trkpt>
      <trkpt lat="42.78342286" lon="-1.63650943">
        <ele>493.03833</ele>
        <time>2019-11-21T13:25:58Z</time>
      </trkpt>
      <trkpt lat="42.78357003" lon="-1.63675127">
        <ele>492.4547</ele>
        <time>2019-11-21T13:25:59Z</time>
      </trkpt>
      <trkpt lat="42.78370431" lon="-1.6370065">
        <ele>492.24408</ele>
        <time>2019-11-21T13:26:00Z</time>
      </trkpt>
      <trkpt lat="42.78382694" lon="-1.63726922">
        <ele>491.51654</ele>
        <time>2019-11-21T13:26:01Z</time>
      </trkpt>
      <trkpt lat="42.7839389" lon="-1.63755097">
        <ele>489.97046</ele>
        <time>2019-11-21T13:26:02Z</time>
      </trkpt>
      <trkpt lat="42.78404969" lon="-1.63783588">
        <ele>489.11206</ele>
        <time>2019-11-21T13:26:04Z</time>
      </trkpt>
      <trkpt lat="42.7841588" lon="-1.63812389">
        <ele>487.91748</ele>
        <time>2019-11-21T13:26:05Z</time>
      </trkpt>
      <trkpt lat="42.7843545" lon="-1.63869217">
        <ele>484.2284</ele>
        <time>2019-11-21T13:26:06Z</time>
      </trkpt>
      <trkpt lat="42.78443779" lon="-1.63899355">
        <ele>484.6931</ele>
        <time>2019-11-21T13:26:07Z</time>
      </trkpt>
      <trkpt lat="42.78450016" lon="-1.63930106">
        <ele>484.781</ele>
        <time>2019-11-21T13:26:08Z</time>
      </trkpt>
      <trkpt lat="42.78456148" lon="-1.63960898">
        <ele>484.57617</ele>
        <time>2019-11-21T13:26:09Z</time>
      </trkpt>
      <trkpt lat="42.7846022" lon="-1.63991349">
        <ele>483.73553</ele>
        <time>2019-11-21T13:26:10Z</time>
      </trkpt>
      <trkpt lat="42.78465535" lon="-1.64022373">
        <ele>483.56207</ele>
        <time>2019-11-21T13:26:11Z</time>
      </trkpt>
      <trkpt lat="42.78468625" lon="-1.64051132">
        <ele>482.51746</ele>
        <time>2019-11-21T13:26:12Z</time>
      </trkpt>
      <trkpt lat="42.78470791" lon="-1.64080539">
        <ele>482.3899</ele>
        <time>2019-11-21T13:26:13Z</time>
      </trkpt>
      <trkpt lat="42.78471296" lon="-1.64110477">
        <ele>482.73077</ele>
        <time>2019-11-21T13:26:14Z</time>
      </trkpt>
      <trkpt lat="42.78471578" lon="-1.64141453">
        <ele>482.6319</ele>
        <time>2019-11-21T13:26:15Z</time>
      </trkpt>
      <trkpt lat="42.78470503" lon="-1.64172371">
        <ele>481.41614</ele>
        <time>2019-11-21T13:26:16Z</time>
      </trkpt>
      <trkpt lat="42.7846825" lon="-1.64204904">
        <ele>480.10437</ele>
        <time>2019-11-21T13:26:17Z</time>
      </trkpt>
      <trkpt lat="42.78465568" lon="-1.64237259">
        <ele>481.05774</ele>
        <time>2019-11-21T13:26:18Z</time>
      </trkpt>
      <trkpt lat="42.78462666" lon="-1.64270996">
        <ele>481.97534</ele>
        <time>2019-11-21T13:26:19Z</time>
      </trkpt>
      <trkpt lat="42.78458412" lon="-1.64303708">
        <ele>481.47046</ele>
        <time>2019-11-21T13:26:20Z</time>
      </trkpt>
      <trkpt lat="42.78455918" lon="-1.6433914">
        <ele>480.7505</ele>
        <time>2019-11-21T13:26:21Z</time>
      </trkpt>
      <trkpt lat="42.7845357" lon="-1.64374761">
        <ele>480.51453</ele>
        <time>2019-11-21T13:26:22Z</time>
      </trkpt>
      <trkpt lat="42.78450174" lon="-1.6440904">
        <ele>480.6103</ele>
        <time>2019-11-21T13:26:23Z</time>
      </trkpt>
      <trkpt lat="42.78446927" lon="-1.64443134">
        <ele>480.00464</ele>
        <time>2019-11-21T13:26:24Z</time>
      </trkpt>
      <trkpt lat="42.78444388" lon="-1.64478364">
        <ele>480.16113</ele>
        <time>2019-11-21T13:26:25Z</time>
      </trkpt>
      <trkpt lat="42.78442447" lon="-1.64514156">
        <ele>480.89374</ele>
        <time>2019-11-21T13:26:26Z</time>
      </trkpt>
      <trkpt lat="42.78440811" lon="-1.64549262">
        <ele>481.43958</ele>
        <time>2019-11-21T13:26:27Z</time>
      </trkpt>
      <trkpt lat="42.7843984" lon="-1.64584343">
        <ele>481.95782</ele>
        <time>2019-11-21T13:26:28Z</time>
      </trkpt>
      <trkpt lat="42.78439828" lon="-1.6462084">
        <ele>482.85303</ele>
        <time>2019-11-21T13:26:29Z</time>
      </trkpt>
      <trkpt lat="42.78440558" lon="-1.64659106">
        <ele>482.48773</ele>
        <time>2019-11-21T13:26:30Z</time>
      </trkpt>
      <trkpt lat="42.78440991" lon="-1.64696956">
        <ele>483.50415</ele>
        <time>2019-11-21T13:26:31Z</time>
      </trkpt>
      <trkpt lat="42.78442705" lon="-1.64731904">
        <ele>482.41846</ele>
        <time>2019-11-21T13:26:32Z</time>
      </trkpt>
      <trkpt lat="42.78444652" lon="-1.64768677">
        <ele>481.95325</ele>
        <time>2019-11-21T13:26:33Z</time>
      </trkpt>
      <trkpt lat="42.78447668" lon="-1.64804787">
        <ele>480.80847</ele>
        <time>2019-11-21T13:26:35Z</time>
      </trkpt>
      <trkpt lat="42.78451161" lon="-1.64840703">
        <ele>481.06024</ele>
        <time>2019-11-21T13:26:36Z</time>
      </trkpt>
      <trkpt lat="42.7846048" lon="-1.64913257">
        <ele>482.4408</ele>
        <time>2019-11-21T13:26:37Z</time>
      </trkpt>
      <trkpt lat="42.78466009" lon="-1.64948597">
        <ele>481.98633</ele>
        <time>2019-11-21T13:26:38Z</time>
      </trkpt>
      <trkpt lat="42.78471887" lon="-1.64982769">
        <ele>481.38367</ele>
        <time>2019-11-21T13:26:39Z</time>
      </trkpt>
      <trkpt lat="42.78478667" lon="-1.65019192">
        <ele>481.82538</ele>
        <time>2019-11-21T13:26:40Z</time>
      </trkpt>
      <trkpt lat="42.78485898" lon="-1.65054617">
        <ele>482.09808</ele>
        <time>2019-11-21T13:26:41Z</time>
      </trkpt>
      <trkpt lat="42.78493678" lon="-1.65091211">
        <ele>482.12524</ele>
        <time>2019-11-21T13:26:42Z</time>
      </trkpt>
      <trkpt lat="42.78501758" lon="-1.65126701">
        <ele>482.6438</ele>
        <time>2019-11-21T13:26:43Z</time>
      </trkpt>
      <trkpt lat="42.78511416" lon="-1.65161557">
        <ele>480.417</ele>
        <time>2019-11-21T13:26:44Z</time>
      </trkpt>
      <trkpt lat="42.785215" lon="-1.65199357">
        <ele>482.81616</ele>
        <time>2019-11-21T13:26:45Z</time>
      </trkpt>
      <trkpt lat="42.78530801" lon="-1.65236779">
        <ele>483.06348</ele>
        <time>2019-11-21T13:26:46Z</time>
      </trkpt>
      <trkpt lat="42.78540659" lon="-1.65272595">
        <ele>483.38507</ele>
        <time>2019-11-21T13:26:47Z</time>
      </trkpt>
      <trkpt lat="42.78551001" lon="-1.65308578">
        <ele>485.04236</ele>
        <time>2019-11-21T13:26:48Z</time>
      </trkpt>
      <trkpt lat="42.78561814" lon="-1.65344866">
        <ele>485.38562</ele>
        <time>2019-11-21T13:26:49Z</time>
      </trkpt>
      <trkpt lat="42.78572333" lon="-1.65380708">
        <ele>485.12</ele>
        <time>2019-11-21T13:26:50Z</time>
      </trkpt>
      <trkpt lat="42.78583253" lon="-1.65415982">
        <ele>485.37872</ele>
        <time>2019-11-21T13:26:51Z</time>
      </trkpt>
      <trkpt lat="42.78594413" lon="-1.65449229">
        <ele>484.74146</ele>
        <time>2019-11-21T13:26:52Z</time>
      </trkpt>
      <trkpt lat="42.78605046" lon="-1.65484367">
        <ele>485.30103</ele>
        <time>2019-11-21T13:26:53Z</time>
      </trkpt>
      <trkpt lat="42.7861747" lon="-1.65519189">
        <ele>485.05017</ele>
        <time>2019-11-21T13:26:54Z</time>
      </trkpt>
      <trkpt lat="42.78629874" lon="-1.65554248">
        <ele>485.29797</ele>
        <time>2019-11-21T13:26:55Z</time>
      </trkpt>
      <trkpt lat="42.78643058" lon="-1.65589359">
        <ele>483.89197</ele>
        <time>2019-11-21T13:26:56Z</time>
      </trkpt>
      <trkpt lat="42.78655088" lon="-1.65624443">
        <ele>483.46997</ele>
        <time>2019-11-21T13:26:57Z</time>
      </trkpt>
      <trkpt lat="42.78667461" lon="-1.65658796">
        <ele>482.73584</ele>
        <time>2019-11-21T13:26:58Z</time>
      </trkpt>
      <trkpt lat="42.78678275" lon="-1.65693161">
        <ele>481.06995</ele>
        <time>2019-11-21T13:26:59Z</time>
      </trkpt>
      <trkpt lat="42.78691674" lon="-1.6572714">
        <ele>480.90564</ele>
        <time>2019-11-21T13:27:00Z</time>
      </trkpt>
      <trkpt lat="42.78705474" lon="-1.65763074">
        <ele>480.93628</ele>
        <time>2019-11-21T13:27:01Z</time>
      </trkpt>
      <trkpt lat="42.78718793" lon="-1.65798366">
        <ele>479.45276</ele>
        <time>2019-11-21T13:27:02Z</time>
      </trkpt>
      <trkpt lat="42.78733212" lon="-1.65833471">
        <ele>478.7367</ele>
        <time>2019-11-21T13:27:03Z</time>
      </trkpt>
      <trkpt lat="42.78747046" lon="-1.65868305">
        <ele>477.63733</ele>
        <time>2019-11-21T13:27:04Z</time>
      </trkpt>
      <trkpt lat="42.78761481" lon="-1.65902327">
        <ele>476.4369</ele>
        <time>2019-11-21T13:27:06Z</time>
      </trkpt>
      <trkpt lat="42.78776406" lon="-1.65937426">
        <ele>476.1172</ele>
        <time>2019-11-21T13:27:07Z</time>
      </trkpt>
      <trkpt lat="42.78807235" lon="-1.66007375">
        <ele>474.6892</ele>
        <time>2019-11-21T13:27:08Z</time>
      </trkpt>
      <trkpt lat="42.78822988" lon="-1.66041724">
        <ele>474.2343</ele>
        <time>2019-11-21T13:27:09Z</time>
      </trkpt>
      <trkpt lat="42.78839175" lon="-1.66077336">
        <ele>474.23877</ele>
        <time>2019-11-21T13:27:10Z</time>
      </trkpt>
      <trkpt lat="42.78855973" lon="-1.66112">
        <ele>474.42346</ele>
        <time>2019-11-21T13:27:11Z</time>
      </trkpt>
      <trkpt lat="42.78871431" lon="-1.66147827">
        <ele>473.56677</ele>
        <time>2019-11-21T13:27:12Z</time>
      </trkpt>
      <trkpt lat="42.78887038" lon="-1.66183009">
        <ele>473.7218</ele>
        <time>2019-11-21T13:27:13Z</time>
      </trkpt>
      <trkpt lat="42.78902247" lon="-1.66219194">
        <ele>473.3694</ele>
        <time>2019-11-21T13:27:14Z</time>
      </trkpt>
      <trkpt lat="42.78917357" lon="-1.6625413">
        <ele>472.34186</ele>
        <time>2019-11-21T13:27:15Z</time>
      </trkpt>
      <trkpt lat="42.78931761" lon="-1.6629011">
        <ele>471.232</ele>
        <time>2019-11-21T13:27:16Z</time>
      </trkpt>
      <trkpt lat="42.78944962" lon="-1.66325071">
        <ele>470.64844</ele>
        <time>2019-11-21T13:27:17Z</time>
      </trkpt>
      <trkpt lat="42.78958898" lon="-1.6636133">
        <ele>470.17798</ele>
        <time>2019-11-21T13:27:18Z</time>
      </trkpt>
      <trkpt lat="42.78973615" lon="-1.66397934">
        <ele>469.95453</ele>
        <time>2019-11-21T13:27:19Z</time>
      </trkpt>
      <trkpt lat="42.78986342" lon="-1.66434512">
        <ele>469.45007</ele>
        <time>2019-11-21T13:27:20Z</time>
      </trkpt>
      <trkpt lat="42.79000094" lon="-1.66471673">
        <ele>469.20984</ele>
        <time>2019-11-21T13:27:21Z</time>
      </trkpt>
      <trkpt lat="42.79013497" lon="-1.66508829">
        <ele>469.38354</ele>
        <time>2019-11-21T13:27:22Z</time>
      </trkpt>
      <trkpt lat="42.79027079" lon="-1.6654613">
        <ele>469.38</ele>
        <time>2019-11-21T13:27:23Z</time>
      </trkpt>
      <trkpt lat="42.79040268" lon="-1.66582572">
        <ele>468.4629</ele>
        <time>2019-11-21T13:27:24Z</time>
      </trkpt>
      <trkpt lat="42.79052862" lon="-1.6662118">
        <ele>468.96643</ele>
        <time>2019-11-21T13:27:25Z</time>
      </trkpt>
      <trkpt lat="42.7906554" lon="-1.66656781">
        <ele>468.64752</ele>
        <time>2019-11-21T13:27:26Z</time>
      </trkpt>
      <trkpt lat="42.79076069" lon="-1.66693642">
        <ele>467.8067</ele>
        <time>2019-11-21T13:27:27Z</time>
      </trkpt>
      <trkpt lat="42.79085289" lon="-1.66732024">
        <ele>467.68018</ele>
        <time>2019-11-21T13:27:28Z</time>
      </trkpt>
      <trkpt lat="42.79093698" lon="-1.66769913">
        <ele>467.78394</ele>
        <time>2019-11-21T13:27:29Z</time>
      </trkpt>
      <trkpt lat="42.7910179" lon="-1.66805955">
        <ele>468.2035</ele>
        <time>2019-11-21T13:27:30Z</time>
      </trkpt>
      <trkpt lat="42.79106775" lon="-1.66840579">
        <ele>467.11865</ele>
        <time>2019-11-21T13:27:31Z</time>
      </trkpt>
      <trkpt lat="42.7911191" lon="-1.66877192">
        <ele>467.28894</ele>
        <time>2019-11-21T13:27:32Z</time>
      </trkpt>
      <trkpt lat="42.79115165" lon="-1.66912955">
        <ele>468.63306</ele>
        <time>2019-11-21T13:27:33Z</time>
      </trkpt>
      <trkpt lat="42.79117471" lon="-1.66949382">
        <ele>468.72986</ele>
        <time>2019-11-21T13:27:34Z</time>
      </trkpt>
      <trkpt lat="42.79119016" lon="-1.66987781">
        <ele>469.32886</ele>
        <time>2019-11-21T13:27:35Z</time>
      </trkpt>
      <trkpt lat="42.79119824" lon="-1.67025777">
        <ele>469.22778</ele>
        <time>2019-11-21T13:27:36Z</time>
      </trkpt>
      <trkpt lat="42.7911774" lon="-1.67062151">
        <ele>468.1795</ele>
        <time>2019-11-21T13:27:38Z</time>
      </trkpt>
      <trkpt lat="42.79115511" lon="-1.67099857">
        <ele>467.6991</ele>
        <time>2019-11-21T13:27:39Z</time>
      </trkpt>
      <trkpt lat="42.79110949" lon="-1.67176385">
        <ele>468.28247</ele>
        <time>2019-11-21T13:27:40Z</time>
      </trkpt>
      <trkpt lat="42.79108134" lon="-1.67212264">
        <ele>468.2658</ele>
        <time>2019-11-21T13:27:41Z</time>
      </trkpt>
      <trkpt lat="42.79105014" lon="-1.67250228">
        <ele>469.08484</ele>
        <time>2019-11-21T13:27:42Z</time>
      </trkpt>
      <trkpt lat="42.79103088" lon="-1.6728952">
        <ele>469.2005</ele>
        <time>2019-11-21T13:27:43Z</time>
      </trkpt>
      <trkpt lat="42.79102541" lon="-1.67327531">
        <ele>470.4276</ele>
        <time>2019-11-21T13:27:44Z</time>
      </trkpt>
      <trkpt lat="42.79103385" lon="-1.67366433">
        <ele>469.77087</ele>
        <time>2019-11-21T13:27:45Z</time>
      </trkpt>
      <trkpt lat="42.79104994" lon="-1.67402397">
        <ele>466.21912</ele>
        <time>2019-11-21T13:27:46Z</time>
      </trkpt>
      <trkpt lat="42.79109342" lon="-1.67441038">
        <ele>466.19666</ele>
        <time>2019-11-21T13:27:47Z</time>
      </trkpt>
      <trkpt lat="42.79113843" lon="-1.67477017">
        <ele>466.9806</ele>
        <time>2019-11-21T13:27:48Z</time>
      </trkpt>
      <trkpt lat="42.79120543" lon="-1.67515627">
        <ele>468.393</ele>
        <time>2019-11-21T13:27:49Z</time>
      </trkpt>
      <trkpt lat="42.79127287" lon="-1.67554971">
        <ele>469.01233</ele>
        <time>2019-11-21T13:27:50Z</time>
      </trkpt>
      <trkpt lat="42.79136121" lon="-1.67592111">
        <ele>470.70746</ele>
        <time>2019-11-21T13:27:51Z</time>
      </trkpt>
      <trkpt lat="42.7914536" lon="-1.67626705">
        <ele>470.3396</ele>
        <time>2019-11-21T13:27:52Z</time>
      </trkpt>
      <trkpt lat="42.79157176" lon="-1.67661937">
        <ele>471.42523</ele>
        <time>2019-11-21T13:27:53Z</time>
      </trkpt>
      <trkpt lat="42.79168755" lon="-1.67696948">
        <ele>472.00818</ele>
        <time>2019-11-21T13:27:54Z</time>
      </trkpt>
      <trkpt lat="42.79182179" lon="-1.67732352">
        <ele>472.50067</ele>
        <time>2019-11-21T13:27:55Z</time>
      </trkpt>
      <trkpt lat="42.79196243" lon="-1.67766767">
        <ele>471.85095</ele>
        <time>2019-11-21T13:27:56Z</time>
      </trkpt>
      <trkpt lat="42.7920829" lon="-1.67801628">
        <ele>470.17804</ele>
        <time>2019-11-21T13:27:57Z</time>
      </trkpt>
      <trkpt lat="42.79221095" lon="-1.67837103">
        <ele>469.739</ele>
        <time>2019-11-21T13:27:58Z</time>
      </trkpt>
      <trkpt lat="42.79232601" lon="-1.67874304">
        <ele>470.46985</ele>
        <time>2019-11-21T13:27:59Z</time>
      </trkpt>
      <trkpt lat="42.79243683" lon="-1.67912498">
        <ele>469.8089</ele>
        <time>2019-11-21T13:28:00Z</time>
      </trkpt>
      <trkpt lat="42.79254228" lon="-1.67951308">
        <ele>468.82178</ele>
        <time>2019-11-21T13:28:01Z</time>
      </trkpt>
      <trkpt lat="42.792634" lon="-1.67990377">
        <ele>469.4229</ele>
        <time>2019-11-21T13:28:02Z</time>
      </trkpt>
      <trkpt lat="42.79271721" lon="-1.68030222">
        <ele>468.55774</ele>
        <time>2019-11-21T13:28:03Z</time>
      </trkpt>
      <trkpt lat="42.79278049" lon="-1.68069513">
        <ele>467.84094</ele>
        <time>2019-11-21T13:28:04Z</time>
      </trkpt>
      <trkpt lat="42.79284518" lon="-1.68110248">
        <ele>465.92236</ele>
        <time>2019-11-21T13:28:05Z</time>
      </trkpt>
      <trkpt lat="42.79291423" lon="-1.68149605">
        <ele>466.19617</ele>
        <time>2019-11-21T13:28:06Z</time>
      </trkpt>
      <trkpt lat="42.79299254" lon="-1.68190188">
        <ele>464.79602</ele>
        <time>2019-11-21T13:28:07Z</time>
      </trkpt>
      <trkpt lat="42.79307968" lon="-1.68229158">
        <ele>464.52405</ele>
        <time>2019-11-21T13:28:08Z</time>
      </trkpt>
      <trkpt lat="42.79315901" lon="-1.68268056">
        <ele>463.26617</ele>
        <time>2019-11-21T13:28:09Z</time>
      </trkpt>
      <trkpt lat="42.79325148" lon="-1.68309048">
        <ele>464.28204</ele>
        <time>2019-11-21T13:28:10Z</time>
      </trkpt>
      <trkpt lat="42.79336167" lon="-1.68348898">
        <ele>474.9364</ele>
        <time>2019-11-21T13:28:11Z</time>
      </trkpt>
      <trkpt lat="42.79348055" lon="-1.68388215">
        <ele>473.44147</ele>
        <time>2019-11-21T13:28:12Z</time>
      </trkpt>
      <trkpt lat="42.79359987" lon="-1.68424977">
        <ele>471.67627</ele>
        <time>2019-11-21T13:28:14Z</time>
      </trkpt>
      <trkpt lat="42.79372013" lon="-1.68465701">
        <ele>469.48364</ele>
        <time>2019-11-21T13:28:15Z</time>
      </trkpt>
      <trkpt lat="42.7938559" lon="-1.68502624">
        <ele>466.864</ele>
        <time>2019-11-21T13:28:16Z</time>
      </trkpt>
      <trkpt lat="42.79410542" lon="-1.68577146">
        <ele>466.65283</ele>
        <time>2019-11-21T13:28:17Z</time>
      </trkpt>
      <trkpt lat="42.79422965" lon="-1.68614037">
        <ele>463.42444</ele>
        <time>2019-11-21T13:28:18Z</time>
      </trkpt>
      <trkpt lat="42.79434811" lon="-1.68652189">
        <ele>462.2854</ele>
        <time>2019-11-21T13:28:19Z</time>
      </trkpt>
      <trkpt lat="42.79445038" lon="-1.68690466">
        <ele>461.53162</ele>
        <time>2019-11-21T13:28:20Z</time>
      </trkpt>
      <trkpt lat="42.79454812" lon="-1.6872915">
        <ele>461.31384</ele>
        <time>2019-11-21T13:28:21Z</time>
      </trkpt>
      <trkpt lat="42.79463926" lon="-1.68767614">
        <ele>460.0177</ele>
        <time>2019-11-21T13:28:22Z</time>
      </trkpt>
      <trkpt lat="42.79471039" lon="-1.68806753">
        <ele>459.52368</ele>
        <time>2019-11-21T13:28:23Z</time>
      </trkpt>
      <trkpt lat="42.79477443" lon="-1.68847101">
        <ele>458.6455</ele>
        <time>2019-11-21T13:28:24Z</time>
      </trkpt>
      <trkpt lat="42.79482814" lon="-1.68887647">
        <ele>458.5412</ele>
        <time>2019-11-21T13:28:25Z</time>
      </trkpt>
      <trkpt lat="42.79488937" lon="-1.68927542">
        <ele>458.47504</ele>
        <time>2019-11-21T13:28:26Z</time>
      </trkpt>
      <trkpt lat="42.79491768" lon="-1.68966827">
        <ele>456.61157</ele>
        <time>2019-11-21T13:28:27Z</time>
      </trkpt>
      <trkpt lat="42.79497081" lon="-1.69007349">
        <ele>457.02454</ele>
        <time>2019-11-21T13:28:28Z</time>
      </trkpt>
      <trkpt lat="42.7950204" lon="-1.6904799">
        <ele>457.16272</ele>
        <time>2019-11-21T13:28:29Z</time>
      </trkpt>
      <trkpt lat="42.79507929" lon="-1.6908834">
        <ele>457.60046</ele>
        <time>2019-11-21T13:28:30Z</time>
      </trkpt>
      <trkpt lat="42.79513936" lon="-1.69126889">
        <ele>457.0327</ele>
        <time>2019-11-21T13:28:31Z</time>
      </trkpt>
      <trkpt lat="42.79520019" lon="-1.69167827">
        <ele>456.52576</ele>
        <time>2019-11-21T13:28:32Z</time>
      </trkpt>
      <trkpt lat="42.79526991" lon="-1.69207325">
        <ele>455.04736</ele>
        <time>2019-11-21T13:28:33Z</time>
      </trkpt>
      <trkpt lat="42.79534421" lon="-1.69245992">
        <ele>453.33752</ele>
        <time>2019-11-21T13:28:34Z</time>
      </trkpt>
      <trkpt lat="42.79543386" lon="-1.69284881">
        <ele>452.8493</ele>
        <time>2019-11-21T13:28:35Z</time>
      </trkpt>
      <trkpt lat="42.79553099" lon="-1.69322247">
        <ele>452.22363</ele>
        <time>2019-11-21T13:28:36Z</time>
      </trkpt>
      <trkpt lat="42.79562184" lon="-1.69361943">
        <ele>452.7085</ele>
        <time>2019-11-21T13:28:37Z</time>
      </trkpt>
      <trkpt lat="42.79573228" lon="-1.69399491">
        <ele>451.48694</ele>
        <time>2019-11-21T13:28:38Z</time>
      </trkpt>
      <trkpt lat="42.79584108" lon="-1.69437329">
        <ele>450.63098</ele>
        <time>2019-11-21T13:28:39Z</time>
      </trkpt>
      <trkpt lat="42.79596264" lon="-1.69474908">
        <ele>451.70728</ele>
        <time>2019-11-21T13:28:40Z</time>
      </trkpt>
      <trkpt lat="42.79608816" lon="-1.69511513">
        <ele>451.90088</ele>
        <time>2019-11-21T13:28:41Z</time>
      </trkpt>
      <trkpt lat="42.79621749" lon="-1.69549246">
        <ele>453.2179</ele>
        <time>2019-11-21T13:28:42Z</time>
      </trkpt>
      <trkpt lat="42.79635485" lon="-1.69585535">
        <ele>452.7713</ele>
        <time>2019-11-21T13:28:43Z</time>
      </trkpt>
      <trkpt lat="42.79650521" lon="-1.69622055">
        <ele>452.67413</ele>
        <time>2019-11-21T13:28:44Z</time>
      </trkpt>
      <trkpt lat="42.79666593" lon="-1.69657302">
        <ele>453.4724</ele>
        <time>2019-11-21T13:28:45Z</time>
      </trkpt>
      <trkpt lat="42.79682146" lon="-1.69692416">
        <ele>454.41364</ele>
        <time>2019-11-21T13:28:46Z</time>
      </trkpt>
      <trkpt lat="42.79697094" lon="-1.69727966">
        <ele>455.06976</ele>
        <time>2019-11-21T13:28:47Z</time>
      </trkpt>
      <trkpt lat="42.79711005" lon="-1.69761339">
        <ele>453.45105</ele>
        <time>2019-11-21T13:28:49Z</time>
      </trkpt>
      <trkpt lat="42.79726218" lon="-1.69796402">
        <ele>453.96027</ele>
        <time>2019-11-21T13:28:50Z</time>
      </trkpt>
      <trkpt lat="42.79741573" lon="-1.69833314">
        <ele>453.04218</ele>
        <time>2019-11-21T13:28:51Z</time>
      </trkpt>
      <trkpt lat="42.79768101" lon="-1.69902451">
        <ele>452.3877</ele>
        <time>2019-11-21T13:28:52Z</time>
      </trkpt>
      <trkpt lat="42.79783478" lon="-1.6993889">
        <ele>451.0006</ele>
        <time>2019-11-21T13:28:53Z</time>
      </trkpt>
      <trkpt lat="42.7979791" lon="-1.69975293">
        <ele>450.94824</ele>
        <time>2019-11-21T13:28:54Z</time>
      </trkpt>
      <trkpt lat="42.79812366" lon="-1.70011262">
        <ele>449.91638</ele>
        <time>2019-11-21T13:28:55Z</time>
      </trkpt>
      <trkpt lat="42.79826414" lon="-1.70050637">
        <ele>448.81238</ele>
        <time>2019-11-21T13:28:56Z</time>
      </trkpt>
      <trkpt lat="42.79840511" lon="-1.70087016">
        <ele>446.6847</ele>
        <time>2019-11-21T13:28:57Z</time>
      </trkpt>
      <trkpt lat="42.79855728" lon="-1.7012369">
        <ele>447.34802</ele>
        <time>2019-11-21T13:28:58Z</time>
      </trkpt>
      <trkpt lat="42.79873176" lon="-1.70158841">
        <ele>444.65247</ele>
        <time>2019-11-21T13:28:59Z</time>
      </trkpt>
      <trkpt lat="42.7988453" lon="-1.70194716">
        <ele>443.46472</ele>
        <time>2019-11-21T13:29:00Z</time>
      </trkpt>
      <trkpt lat="42.79896632" lon="-1.70232166">
        <ele>442.85382</ele>
        <time>2019-11-21T13:29:01Z</time>
      </trkpt>
      <trkpt lat="42.79911472" lon="-1.70267606">
        <ele>440.6438</ele>
        <time>2019-11-21T13:29:02Z</time>
      </trkpt>
      <trkpt lat="42.79924422" lon="-1.703047">
        <ele>440.33746</ele>
        <time>2019-11-21T13:29:03Z</time>
      </trkpt>
      <trkpt lat="42.79935513" lon="-1.70340963">
        <ele>440.0658</ele>
        <time>2019-11-21T13:29:04Z</time>
      </trkpt>
      <trkpt lat="42.79949315" lon="-1.70376778">
        <ele>441.39612</ele>
        <time>2019-11-21T13:29:05Z</time>
      </trkpt>
      <trkpt lat="42.79962737" lon="-1.704125">
        <ele>441.30664</ele>
        <time>2019-11-21T13:29:06Z</time>
      </trkpt>
      <trkpt lat="42.79976215" lon="-1.70450639">
        <ele>440.80194</ele>
        <time>2019-11-21T13:29:07Z</time>
      </trkpt>
      <trkpt lat="42.79988591" lon="-1.70487825">
        <ele>438.74646</ele>
        <time>2019-11-21T13:29:08Z</time>
      </trkpt>
      <trkpt lat="42.80002538" lon="-1.70523551">
        <ele>439.1847</ele>
        <time>2019-11-21T13:29:09Z</time>
      </trkpt>
      <trkpt lat="42.80015873" lon="-1.70559992">
        <ele>439.59595</ele>
        <time>2019-11-21T13:29:10Z</time>
      </trkpt>
      <trkpt lat="42.80028405" lon="-1.70596214">
        <ele>440.27686</ele>
        <time>2019-11-21T13:29:11Z</time>
      </trkpt>
      <trkpt lat="42.80042363" lon="-1.70633914">
        <ele>441.21924</ele>
        <time>2019-11-21T13:29:12Z</time>
      </trkpt>
      <trkpt lat="42.80056496" lon="-1.70672287">
        <ele>442.8468</ele>
        <time>2019-11-21T13:29:13Z</time>
      </trkpt>
      <trkpt lat="42.80070315" lon="-1.70710312">
        <ele>443.22437</ele>
        <time>2019-11-21T13:29:14Z</time>
      </trkpt>
      <trkpt lat="42.80084061" lon="-1.70747231">
        <ele>442.32898</ele>
        <time>2019-11-21T13:29:15Z</time>
      </trkpt>
      <trkpt lat="42.80098121" lon="-1.70784406">
        <ele>442.76526</ele>
        <time>2019-11-21T13:29:16Z</time>
      </trkpt>
      <trkpt lat="42.8011269" lon="-1.70821526">
        <ele>442.18475</ele>
        <time>2019-11-21T13:29:17Z</time>
      </trkpt>
      <trkpt lat="42.80127827" lon="-1.70858991">
        <ele>442.22302</ele>
        <time>2019-11-21T13:29:18Z</time>
      </trkpt>
      <trkpt lat="42.80143265" lon="-1.70895483">
        <ele>443.48767</ele>
        <time>2019-11-21T13:29:19Z</time>
      </trkpt>
      <trkpt lat="42.80158231" lon="-1.70931582">
        <ele>443.06653</ele>
        <time>2019-11-21T13:29:20Z</time>
      </trkpt>
      <trkpt lat="42.80174758" lon="-1.7096616">
        <ele>443.82324</ele>
        <time>2019-11-21T13:29:22Z</time>
      </trkpt>
      <trkpt lat="42.80190354" lon="-1.71001425">
        <ele>443.06494</ele>
        <time>2019-11-21T13:29:23Z</time>
      </trkpt>
      <trkpt lat="42.80225332" lon="-1.7107177">
        <ele>444.32056</ele>
        <time>2019-11-21T13:29:24Z</time>
      </trkpt>
      <trkpt lat="42.80242784" lon="-1.71101303">
        <ele>443.54547</ele>
        <time>2019-11-21T13:29:25Z</time>
      </trkpt>
      <trkpt lat="42.80264568" lon="-1.71130895">
        <ele>440.7815</ele>
        <time>2019-11-21T13:29:26Z</time>
      </trkpt>
      <trkpt lat="42.80286247" lon="-1.71161553">
        <ele>440.8225</ele>
        <time>2019-11-21T13:29:27Z</time>
      </trkpt>
      <trkpt lat="42.80308084" lon="-1.71190751">
        <ele>440.9635</ele>
        <time>2019-11-21T13:29:28Z</time>
      </trkpt>
      <trkpt lat="42.80333235" lon="-1.71217034">
        <ele>442.50537</ele>
        <time>2019-11-21T13:29:29Z</time>
      </trkpt>
      <trkpt lat="42.80357513" lon="-1.71241812">
        <ele>441.9319</ele>
        <time>2019-11-21T13:29:30Z</time>
      </trkpt>
      <trkpt lat="42.80383873" lon="-1.71264901">
        <ele>442.3473</ele>
        <time>2019-11-21T13:29:31Z</time>
      </trkpt>
      <trkpt lat="42.80409103" lon="-1.71285273">
        <ele>442.0387</ele>
        <time>2019-11-21T13:29:32Z</time>
      </trkpt>
      <trkpt lat="42.80435226" lon="-1.71303765">
        <ele>441.5946</ele>
        <time>2019-11-21T13:29:33Z</time>
      </trkpt>
      <trkpt lat="42.80460221" lon="-1.71320839">
        <ele>440.66614</ele>
        <time>2019-11-21T13:29:34Z</time>
      </trkpt>
      <trkpt lat="42.80487075" lon="-1.71335954">
        <ele>440.3982</ele>
        <time>2019-11-21T13:29:35Z</time>
      </trkpt>
      <trkpt lat="42.80516058" lon="-1.71349368">
        <ele>441.74414</ele>
        <time>2019-11-21T13:29:36Z</time>
      </trkpt>
      <trkpt lat="42.80545657" lon="-1.71361551">
        <ele>441.0315</ele>
        <time>2019-11-21T13:29:37Z</time>
      </trkpt>
      <trkpt lat="42.80574845" lon="-1.71370969">
        <ele>441.87195</ele>
        <time>2019-11-21T13:29:38Z</time>
      </trkpt>
      <trkpt lat="42.80604508" lon="-1.713798">
        <ele>441.76794</ele>
        <time>2019-11-21T13:29:39Z</time>
      </trkpt>
      <trkpt lat="42.8063376" lon="-1.7138535">
        <ele>442.12274</ele>
        <time>2019-11-21T13:29:40Z</time>
      </trkpt>
      <trkpt lat="42.80663049" lon="-1.71388769">
        <ele>442.34332</ele>
        <time>2019-11-21T13:29:41Z</time>
      </trkpt>
      <trkpt lat="42.80691761" lon="-1.71388164">
        <ele>441.27112</ele>
        <time>2019-11-21T13:29:42Z</time>
      </trkpt>
      <trkpt lat="42.80721198" lon="-1.71386044">
        <ele>441.37793</ele>
        <time>2019-11-21T13:29:43Z</time>
      </trkpt>
      <trkpt lat="42.80750628" lon="-1.71383027">
        <ele>441.20288</ele>
        <time>2019-11-21T13:29:44Z</time>
      </trkpt>
      <trkpt lat="42.80780063" lon="-1.71378774">
        <ele>441.70837</ele>
        <time>2019-11-21T13:29:45Z</time>
      </trkpt>
      <trkpt lat="42.80810787" lon="-1.71372385">
        <ele>442.74335</ele>
        <time>2019-11-21T13:29:46Z</time>
      </trkpt>
      <trkpt lat="42.80840422" lon="-1.7136688">
        <ele>442.84875</ele>
        <time>2019-11-21T13:29:47Z</time>
      </trkpt>
      <trkpt lat="42.80869972" lon="-1.7136091">
        <ele>442.97943</ele>
        <time>2019-11-21T13:29:48Z</time>
      </trkpt>
      <trkpt lat="42.80901009" lon="-1.71355075">
        <ele>442.27283</ele>
        <time>2019-11-21T13:29:49Z</time>
      </trkpt>
      <trkpt lat="42.80931186" lon="-1.71351435">
        <ele>443.01758</ele>
        <time>2019-11-21T13:29:50Z</time>
      </trkpt>
      <trkpt lat="42.809619" lon="-1.71349677">
        <ele>443.71985</ele>
        <time>2019-11-21T13:29:51Z</time>
      </trkpt>
      <trkpt lat="42.80992893" lon="-1.71348841">
        <ele>443.52014</ele>
        <time>2019-11-21T13:29:52Z</time>
      </trkpt>
      <trkpt lat="42.81023695" lon="-1.71349629">
        <ele>445.1833</ele>
        <time>2019-11-21T13:29:53Z</time>
      </trkpt>
      <trkpt lat="42.8105312" lon="-1.71351417">
        <ele>445.11926</ele>
        <time>2019-11-21T13:29:54Z</time>
      </trkpt>
      <trkpt lat="42.81083596" lon="-1.71353883">
        <ele>444.9558</ele>
        <time>2019-11-21T13:29:57Z</time>
      </trkpt>
      <trkpt lat="42.81143261" lon="-1.71364846">
        <ele>450.8982</ele>
        <time>2019-11-21T13:29:58Z</time>
      </trkpt>
      <trkpt lat="42.81173211" lon="-1.71372134">
        <ele>449.85706</ele>
        <time>2019-11-21T13:29:59Z</time>
      </trkpt>
      <trkpt lat="42.81203228" lon="-1.71380221">
        <ele>449.13892</ele>
        <time>2019-11-21T13:30:00Z</time>
      </trkpt>
      <trkpt lat="42.81232789" lon="-1.71389857">
        <ele>448.0852</ele>
        <time>2019-11-21T13:30:01Z</time>
      </trkpt>
      <trkpt lat="42.81263432" lon="-1.71398664">
        <ele>446.98938</ele>
        <time>2019-11-21T13:30:02Z</time>
      </trkpt>
      <trkpt lat="42.81292753" lon="-1.71408355">
        <ele>446.55286</ele>
        <time>2019-11-21T13:30:03Z</time>
      </trkpt>
      <trkpt lat="42.81320152" lon="-1.71420558">
        <ele>445.753</ele>
        <time>2019-11-21T13:30:04Z</time>
      </trkpt>
      <trkpt lat="42.81350376" lon="-1.71430307">
        <ele>445.39832</ele>
        <time>2019-11-21T13:30:05Z</time>
      </trkpt>
      <trkpt lat="42.81379341" lon="-1.71442647">
        <ele>445.72998</ele>
        <time>2019-11-21T13:30:06Z</time>
      </trkpt>
      <trkpt lat="42.81408528" lon="-1.71453063">
        <ele>446.10333</ele>
        <time>2019-11-21T13:30:07Z</time>
      </trkpt>
      <trkpt lat="42.81438347" lon="-1.71464338">
        <ele>445.77972</ele>
        <time>2019-11-21T13:30:08Z</time>
      </trkpt>
      <trkpt lat="42.81465534" lon="-1.71477635">
        <ele>444.61902</ele>
        <time>2019-11-21T13:30:09Z</time>
      </trkpt>
      <trkpt lat="42.81491639" lon="-1.71493494">
        <ele>443.30548</ele>
        <time>2019-11-21T13:30:10Z</time>
      </trkpt>
      <trkpt lat="42.81521161" lon="-1.71505592">
        <ele>443.37164</ele>
        <time>2019-11-21T13:30:11Z</time>
      </trkpt>
      <trkpt lat="42.81550273" lon="-1.71516669">
        <ele>443.0855</ele>
        <time>2019-11-21T13:30:12Z</time>
      </trkpt>
      <trkpt lat="42.8157899" lon="-1.71526513">
        <ele>442.68787</ele>
        <time>2019-11-21T13:30:13Z</time>
      </trkpt>
      <trkpt lat="42.81608524" lon="-1.71535627">
        <ele>442.46838</ele>
        <time>2019-11-21T13:30:14Z</time>
      </trkpt>
      <trkpt lat="42.8163761" lon="-1.71542283">
        <ele>442.08514</ele>
        <time>2019-11-21T13:30:15Z</time>
      </trkpt>
      <trkpt lat="42.81667438" lon="-1.71547886">
        <ele>442.17072</ele>
        <time>2019-11-21T13:30:16Z</time>
      </trkpt>
      <trkpt lat="42.81698297" lon="-1.71551117">
        <ele>442.28094</ele>
        <time>2019-11-21T13:30:17Z</time>
      </trkpt>
      <trkpt lat="42.81729268" lon="-1.71552831">
        <ele>444.11707</ele>
        <time>2019-11-21T13:30:18Z</time>
      </trkpt>
      <trkpt lat="42.81760524" lon="-1.71552415">
        <ele>446.12524</ele>
        <time>2019-11-21T13:30:19Z</time>
      </trkpt>
      <trkpt lat="42.81790543" lon="-1.71551064">
        <ele>445.2766</ele>
        <time>2019-11-21T13:30:20Z</time>
      </trkpt>
      <trkpt lat="42.81821056" lon="-1.71545943">
        <ele>446.36865</ele>
        <time>2019-11-21T13:30:21Z</time>
      </trkpt>
      <trkpt lat="42.81849248" lon="-1.71539964">
        <ele>445.1491</ele>
        <time>2019-11-21T13:30:22Z</time>
      </trkpt>
      <trkpt lat="42.81877185" lon="-1.71532162">
        <ele>444.38904</ele>
        <time>2019-11-21T13:30:23Z</time>
      </trkpt>
      <trkpt lat="42.81907317" lon="-1.71520194">
        <ele>445.48975</ele>
        <time>2019-11-21T13:30:24Z</time>
      </trkpt>
      <trkpt lat="42.81937685" lon="-1.71506792">
        <ele>443.5675</ele>
        <time>2019-11-21T13:30:25Z</time>
      </trkpt>
      <trkpt lat="42.81966571" lon="-1.71493592">
        <ele>442.8938</ele>
        <time>2019-11-21T13:30:26Z</time>
      </trkpt>
      <trkpt lat="42.81994213" lon="-1.71477415">
        <ele>443.10913</ele>
        <time>2019-11-21T13:30:27Z</time>
      </trkpt>
      <trkpt lat="42.82020623" lon="-1.71460242">
        <ele>443.18365</ele>
        <time>2019-11-21T13:30:29Z</time>
      </trkpt>
      <trkpt lat="42.82073076" lon="-1.71419509">
        <ele>442.565</ele>
        <time>2019-11-21T13:30:30Z</time>
      </trkpt>
      <trkpt lat="42.82099944" lon="-1.7139631">
        <ele>442.0434</ele>
        <time>2019-11-21T13:30:31Z</time>
      </trkpt>
      <trkpt lat="42.82125541" lon="-1.7137312">
        <ele>440.33228</ele>
        <time>2019-11-21T13:30:32Z</time>
      </trkpt>
      <trkpt lat="42.8215008" lon="-1.71350193">
        <ele>440.3827</ele>
        <time>2019-11-21T13:30:33Z</time>
      </trkpt>
      <trkpt lat="42.82175218" lon="-1.71326646">
        <ele>440.8871</ele>
        <time>2019-11-21T13:30:34Z</time>
      </trkpt>
      <trkpt lat="42.82201256" lon="-1.71304579">
        <ele>439.2572</ele>
        <time>2019-11-21T13:30:35Z</time>
      </trkpt>
      <trkpt lat="42.82227228" lon="-1.7128398">
        <ele>439.17188</ele>
        <time>2019-11-21T13:30:36Z</time>
      </trkpt>
      <trkpt lat="42.822536" lon="-1.71263419">
        <ele>438.22534</ele>
        <time>2019-11-21T13:30:37Z</time>
      </trkpt>
      <trkpt lat="42.8228091" lon="-1.71245538">
        <ele>436.3175</ele>
        <time>2019-11-21T13:30:38Z</time>
      </trkpt>
      <trkpt lat="42.82308533" lon="-1.71229559">
        <ele>436.03784</ele>
        <time>2019-11-21T13:30:39Z</time>
      </trkpt>
      <trkpt lat="42.82337212" lon="-1.71216023">
        <ele>435.2174</ele>
        <time>2019-11-21T13:30:40Z</time>
      </trkpt>
      <trkpt lat="42.82364701" lon="-1.7120353">
        <ele>434.28998</ele>
        <time>2019-11-21T13:30:41Z</time>
      </trkpt>
      <trkpt lat="42.82394132" lon="-1.71193073">
        <ele>434.16858</ele>
        <time>2019-11-21T13:30:42Z</time>
      </trkpt>
      <trkpt lat="42.82422533" lon="-1.71184636">
        <ele>434.92273</ele>
        <time>2019-11-21T13:30:43Z</time>
      </trkpt>
      <trkpt lat="42.82450467" lon="-1.71180317">
        <ele>437.01416</ele>
        <time>2019-11-21T13:30:44Z</time>
      </trkpt>
      <trkpt lat="42.82477933" lon="-1.7117758">
        <ele>437.91943</ele>
        <time>2019-11-21T13:30:45Z</time>
      </trkpt>
      <trkpt lat="42.82504547" lon="-1.71175842">
        <ele>438.4525</ele>
        <time>2019-11-21T13:30:46Z</time>
      </trkpt>
      <trkpt lat="42.82531876" lon="-1.71176626">
        <ele>440.28265</ele>
        <time>2019-11-21T13:30:47Z</time>
      </trkpt>
      <trkpt lat="42.82559597" lon="-1.71176255">
        <ele>440.66467</ele>
        <time>2019-11-21T13:30:48Z</time>
      </trkpt>
      <trkpt lat="42.82587152" lon="-1.71176125">
        <ele>442.50195</ele>
        <time>2019-11-21T13:30:49Z</time>
      </trkpt>
      <trkpt lat="42.82614553" lon="-1.71177258">
        <ele>443.37488</ele>
        <time>2019-11-21T13:30:50Z</time>
      </trkpt>
      <trkpt lat="42.82642501" lon="-1.71176998">
        <ele>442.73883</ele>
        <time>2019-11-21T13:30:51Z</time>
      </trkpt>
      <trkpt lat="42.82671337" lon="-1.71174676">
        <ele>443.26465</ele>
        <time>2019-11-21T13:30:52Z</time>
      </trkpt>
      <trkpt lat="42.82699652" lon="-1.71170814">
        <ele>443.70776</ele>
        <time>2019-11-21T13:30:53Z</time>
      </trkpt>
      <trkpt lat="42.82729082" lon="-1.71165517">
        <ele>444.8794</ele>
        <time>2019-11-21T13:30:54Z</time>
      </trkpt>
      <trkpt lat="42.82758737" lon="-1.71155394">
        <ele>443.87946</ele>
        <time>2019-11-21T13:30:55Z</time>
      </trkpt>
      <trkpt lat="42.82787153" lon="-1.71147018">
        <ele>444.15344</ele>
        <time>2019-11-21T13:30:56Z</time>
      </trkpt>
      <trkpt lat="42.82817522" lon="-1.71132156">
        <ele>444.80115</ele>
        <time>2019-11-21T13:30:57Z</time>
      </trkpt>
      <trkpt lat="42.82846084" lon="-1.71117461">
        <ele>445.21533</ele>
        <time>2019-11-21T13:30:58Z</time>
      </trkpt>
      <trkpt lat="42.8287318" lon="-1.71102071">
        <ele>446.88525</ele>
        <time>2019-11-21T13:30:59Z</time>
      </trkpt>
      <trkpt lat="42.8290039" lon="-1.71083854">
        <ele>448.136</ele>
        <time>2019-11-21T13:31:00Z</time>
      </trkpt>
      <trkpt lat="42.82926952" lon="-1.71061526">
        <ele>445.7619</ele>
        <time>2019-11-21T13:31:02Z</time>
      </trkpt>
      <trkpt lat="42.8295207" lon="-1.71039685">
        <ele>445.33087</ele>
        <time>2019-11-21T13:31:03Z</time>
      </trkpt>
      <trkpt lat="42.83000062" lon="-1.70990559">
        <ele>443.81787</ele>
        <time>2019-11-21T13:31:04Z</time>
      </trkpt>
      <trkpt lat="42.83022443" lon="-1.70964198">
        <ele>443.22858</ele>
        <time>2019-11-21T13:31:05Z</time>
      </trkpt>
      <trkpt lat="42.8304423" lon="-1.70936505">
        <ele>444.09686</ele>
        <time>2019-11-21T13:31:06Z</time>
      </trkpt>
      <trkpt lat="42.83064913" lon="-1.70904485">
        <ele>443.0722</ele>
        <time>2019-11-21T13:31:07Z</time>
      </trkpt>
      <trkpt lat="42.83084967" lon="-1.70875417">
        <ele>441.86682</ele>
        <time>2019-11-21T13:31:08Z</time>
      </trkpt>
      <trkpt lat="42.83103291" lon="-1.70843282">
        <ele>441.76013</ele>
        <time>2019-11-21T13:31:09Z</time>
      </trkpt>
      <trkpt lat="42.83117986" lon="-1.70811254">
        <ele>440.2542</ele>
        <time>2019-11-21T13:31:10Z</time>
      </trkpt>
      <trkpt lat="42.83132908" lon="-1.70775383">
        <ele>439.28137</ele>
        <time>2019-11-21T13:31:11Z</time>
      </trkpt>
      <trkpt lat="42.83146256" lon="-1.70740055">
        <ele>439.2234</ele>
        <time>2019-11-21T13:31:12Z</time>
      </trkpt>
      <trkpt lat="42.83158248" lon="-1.70704377">
        <ele>440.24268</ele>
        <time>2019-11-21T13:31:13Z</time>
      </trkpt>
      <trkpt lat="42.83168042" lon="-1.70670279">
        <ele>440.94672</ele>
        <time>2019-11-21T13:31:14Z</time>
      </trkpt>
      <trkpt lat="42.83179651" lon="-1.70627215">
        <ele>441.3719</ele>
        <time>2019-11-21T13:31:15Z</time>
      </trkpt>
      <trkpt lat="42.83188218" lon="-1.70580411">
        <ele>440.45972</ele>
        <time>2019-11-21T13:31:16Z</time>
      </trkpt>
      <trkpt lat="42.83192372" lon="-1.70541069">
        <ele>440.40424</ele>
        <time>2019-11-21T13:31:17Z</time>
      </trkpt>
      <trkpt lat="42.83197615" lon="-1.70505505">
        <ele>440.9248</ele>
        <time>2019-11-21T13:31:18Z</time>
      </trkpt>
      <trkpt lat="42.83201118" lon="-1.70465159">
        <ele>442.3092</ele>
        <time>2019-11-21T13:31:19Z</time>
      </trkpt>
      <trkpt lat="42.83204552" lon="-1.70424325">
        <ele>443.69165</ele>
        <time>2019-11-21T13:31:20Z</time>
      </trkpt>
      <trkpt lat="42.83206663" lon="-1.70382994">
        <ele>444.66138</ele>
        <time>2019-11-21T13:31:21Z</time>
      </trkpt>
      <trkpt lat="42.83206721" lon="-1.70345991">
        <ele>446.3548</ele>
        <time>2019-11-21T13:31:22Z</time>
      </trkpt>
      <trkpt lat="42.83207356" lon="-1.70305973">
        <ele>445.13635</ele>
        <time>2019-11-21T13:31:23Z</time>
      </trkpt>
      <trkpt lat="42.83207795" lon="-1.70266867">
        <ele>445.90088</ele>
        <time>2019-11-21T13:31:24Z</time>
      </trkpt>
      <trkpt lat="42.83208733" lon="-1.70222641">
        <ele>445.50763</ele>
        <time>2019-11-21T13:31:25Z</time>
      </trkpt>
      <trkpt lat="42.83209778" lon="-1.70182489">
        <ele>446.4652</ele>
        <time>2019-11-21T13:31:26Z</time>
      </trkpt>
      <trkpt lat="42.8321096" lon="-1.70139661">
        <ele>446.755</ele>
        <time>2019-11-21T13:31:27Z</time>
      </trkpt>
      <trkpt lat="42.83213353" lon="-1.70101682">
        <ele>444.9781</ele>
        <time>2019-11-21T13:31:28Z</time>
      </trkpt>
      <trkpt lat="42.83216154" lon="-1.7005799">
        <ele>445.38373</ele>
        <time>2019-11-21T13:31:29Z</time>
      </trkpt>
      <trkpt lat="42.83221038" lon="-1.7001453">
        <ele>446.7058</ele>
        <time>2019-11-21T13:31:30Z</time>
      </trkpt>
      <trkpt lat="42.83225199" lon="-1.69974861">
        <ele>448.8363</ele>
        <time>2019-11-21T13:31:31Z</time>
      </trkpt>
      <trkpt lat="42.83230142" lon="-1.69933973">
        <ele>449.63354</ele>
        <time>2019-11-21T13:31:32Z</time>
      </trkpt>
      <trkpt lat="42.83236095" lon="-1.69894882">
        <ele>451.5005</ele>
        <time>2019-11-21T13:31:34Z</time>
      </trkpt>
      <trkpt lat="42.83241446" lon="-1.69854263">
        <ele>452.3092</ele>
        <time>2019-11-21T13:31:35Z</time>
      </trkpt>
      <trkpt lat="42.83257103" lon="-1.69775482">
        <ele>455.54248</ele>
        <time>2019-11-21T13:31:36Z</time>
      </trkpt>
      <trkpt lat="42.83266512" lon="-1.69733582">
        <ele>456.24</ele>
        <time>2019-11-21T13:31:37Z</time>
      </trkpt>
      <trkpt lat="42.83275738" lon="-1.69695843">
        <ele>456.60773</ele>
        <time>2019-11-21T13:31:38Z</time>
      </trkpt>
      <trkpt lat="42.83287723" lon="-1.69658638">
        <ele>455.84314</ele>
        <time>2019-11-21T13:31:39Z</time>
      </trkpt>
      <trkpt lat="42.83300351" lon="-1.69622533">
        <ele>455.0487</ele>
        <time>2019-11-21T13:31:40Z</time>
      </trkpt>
      <trkpt lat="42.83313972" lon="-1.69583063">
        <ele>456.00226</ele>
        <time>2019-11-21T13:31:41Z</time>
      </trkpt>
      <trkpt lat="42.83326399" lon="-1.69551668">
        <ele>470.79956</ele>
        <time>2019-11-21T13:31:42Z</time>
      </trkpt>
      <trkpt lat="42.83342715" lon="-1.69518187">
        <ele>468.28192</ele>
        <time>2019-11-21T13:31:43Z</time>
      </trkpt>
      <trkpt lat="42.83359063" lon="-1.69481306">
        <ele>465.61646</ele>
        <time>2019-11-21T13:31:44Z</time>
      </trkpt>
      <trkpt lat="42.83374089" lon="-1.69447385">
        <ele>465.14612</ele>
        <time>2019-11-21T13:31:45Z</time>
      </trkpt>
      <trkpt lat="42.83391208" lon="-1.69412861">
        <ele>463.80457</ele>
        <time>2019-11-21T13:31:46Z</time>
      </trkpt>
      <trkpt lat="42.83409592" lon="-1.69378409">
        <ele>461.50598</ele>
        <time>2019-11-21T13:31:47Z</time>
      </trkpt>
      <trkpt lat="42.83428059" lon="-1.69347163">
        <ele>459.5343</ele>
        <time>2019-11-21T13:31:48Z</time>
      </trkpt>
      <trkpt lat="42.83447501" lon="-1.69315046">
        <ele>458.3938</ele>
        <time>2019-11-21T13:31:49Z</time>
      </trkpt>
      <trkpt lat="42.8346697" lon="-1.69282746">
        <ele>459.43372</ele>
        <time>2019-11-21T13:31:50Z</time>
      </trkpt>
      <trkpt lat="42.83486158" lon="-1.69252217">
        <ele>460.62653</ele>
        <time>2019-11-21T13:31:51Z</time>
      </trkpt>
      <trkpt lat="42.83507044" lon="-1.6922386">
        <ele>459.9701</ele>
        <time>2019-11-21T13:31:52Z</time>
      </trkpt>
      <trkpt lat="42.83528316" lon="-1.69194616">
        <ele>460.16187</ele>
        <time>2019-11-21T13:31:53Z</time>
      </trkpt>
      <trkpt lat="42.83549707" lon="-1.69165716">
        <ele>460.37878</ele>
        <time>2019-11-21T13:31:54Z</time>
      </trkpt>
      <trkpt lat="42.8357238" lon="-1.69138019">
        <ele>465.86426</ele>
        <time>2019-11-21T13:31:55Z</time>
      </trkpt>
      <trkpt lat="42.83596445" lon="-1.69112249">
        <ele>465.31818</ele>
        <time>2019-11-21T13:31:56Z</time>
      </trkpt>
      <trkpt lat="42.83621004" lon="-1.69087418">
        <ele>464.58398</ele>
        <time>2019-11-21T13:31:57Z</time>
      </trkpt>
      <trkpt lat="42.83645929" lon="-1.69064669">
        <ele>465.0031</ele>
        <time>2019-11-21T13:31:58Z</time>
      </trkpt>
      <trkpt lat="42.83672474" lon="-1.69044155">
        <ele>464.53784</ele>
        <time>2019-11-21T13:31:59Z</time>
      </trkpt>
      <trkpt lat="42.83699761" lon="-1.69025929">
        <ele>463.87842</ele>
        <time>2019-11-21T13:32:00Z</time>
      </trkpt>
      <trkpt lat="42.83727617" lon="-1.69009519">
        <ele>462.7411</ele>
        <time>2019-11-21T13:32:01Z</time>
      </trkpt>
      <trkpt lat="42.83756597" lon="-1.68993779">
        <ele>463.47095</ele>
        <time>2019-11-21T13:32:02Z</time>
      </trkpt>
      <trkpt lat="42.83785758" lon="-1.68981218">
        <ele>463.60388</ele>
        <time>2019-11-21T13:32:03Z</time>
      </trkpt>
      <trkpt lat="42.83814913" lon="-1.68968667">
        <ele>463.05713</ele>
        <time>2019-11-21T13:32:05Z</time>
      </trkpt>
      <trkpt lat="42.83874492" lon="-1.68953809">
        <ele>463.5</ele>
        <time>2019-11-21T13:32:06Z</time>
      </trkpt>
      <trkpt lat="42.83905093" lon="-1.68948048">
        <ele>464.88147</ele>
        <time>2019-11-21T13:32:07Z</time>
      </trkpt>
      <trkpt lat="42.83935241" lon="-1.68945529">
        <ele>465.19336</ele>
        <time>2019-11-21T13:32:08Z</time>
      </trkpt>
      <trkpt lat="42.83967155" lon="-1.68943283">
        <ele>465.6278</ele>
        <time>2019-11-21T13:32:09Z</time>
      </trkpt>
      <trkpt lat="42.83997416" lon="-1.68947393">
        <ele>464.85168</ele>
        <time>2019-11-21T13:32:10Z</time>
      </trkpt>
      <trkpt lat="42.84026732" lon="-1.6895322">
        <ele>463.5702</ele>
        <time>2019-11-21T13:32:11Z</time>
      </trkpt>
      <trkpt lat="42.84058786" lon="-1.68956656">
        <ele>463.5434</ele>
        <time>2019-11-21T13:32:12Z</time>
      </trkpt>
      <trkpt lat="42.84088781" lon="-1.68962427">
        <ele>463.39807</ele>
        <time>2019-11-21T13:32:13Z</time>
      </trkpt>
      <trkpt lat="42.84121591" lon="-1.68967453">
        <ele>462.5963</ele>
        <time>2019-11-21T13:32:14Z</time>
      </trkpt>
      <trkpt lat="42.84152994" lon="-1.68975272">
        <ele>462.58862</ele>
        <time>2019-11-21T13:32:15Z</time>
      </trkpt>
      <trkpt lat="42.84178717" lon="-1.68988107">
        <ele>460.9005</ele>
        <time>2019-11-21T13:32:16Z</time>
      </trkpt>
      <trkpt lat="42.84202563" lon="-1.69008616">
        <ele>461.3423</ele>
        <time>2019-11-21T13:32:17Z</time>
      </trkpt>
      <trkpt lat="42.84230898" lon="-1.69027429">
        <ele>461.12518</ele>
        <time>2019-11-21T13:32:18Z</time>
      </trkpt>
      <trkpt lat="42.84256007" lon="-1.69048095">
        <ele>460.93555</ele>
        <time>2019-11-21T13:32:19Z</time>
      </trkpt>
      <trkpt lat="42.84280397" lon="-1.69071327">
        <ele>461.88385</ele>
        <time>2019-11-21T13:32:20Z</time>
      </trkpt>
      <trkpt lat="42.84304467" lon="-1.69095683">
        <ele>461.6648</ele>
        <time>2019-11-21T13:32:21Z</time>
      </trkpt>
      <trkpt lat="42.84324747" lon="-1.69119779">
        <ele>459.77264</ele>
        <time>2019-11-21T13:32:22Z</time>
      </trkpt>
      <trkpt lat="42.84346199" lon="-1.69150032">
        <ele>459.675</ele>
        <time>2019-11-21T13:32:23Z</time>
      </trkpt>
      <trkpt lat="42.84367131" lon="-1.69179995">
        <ele>458.81445</ele>
        <time>2019-11-21T13:32:24Z</time>
      </trkpt>
      <trkpt lat="42.8438875" lon="-1.69210774">
        <ele>458.8014</ele>
        <time>2019-11-21T13:32:25Z</time>
      </trkpt>
      <trkpt lat="42.84411044" lon="-1.69243802">
        <ele>458.25836</ele>
        <time>2019-11-21T13:32:26Z</time>
      </trkpt>
      <trkpt lat="42.84430941" lon="-1.69278085">
        <ele>458.10376</ele>
        <time>2019-11-21T13:32:27Z</time>
      </trkpt>
      <trkpt lat="42.8444861" lon="-1.6931034">
        <ele>458.41016</ele>
        <time>2019-11-21T13:32:28Z</time>
      </trkpt>
      <trkpt lat="42.84459542" lon="-1.69346449">
        <ele>458.5913</ele>
        <time>2019-11-21T13:32:29Z</time>
      </trkpt>
      <trkpt lat="42.84471735" lon="-1.69383257">
        <ele>465.19012</ele>
        <time>2019-11-21T13:32:30Z</time>
      </trkpt>
      <trkpt lat="42.84486234" lon="-1.69420543">
        <ele>464.7306</ele>
        <time>2019-11-21T13:32:31Z</time>
      </trkpt>
      <trkpt lat="42.84500583" lon="-1.69457431">
        <ele>463.0464</ele>
        <time>2019-11-21T13:32:32Z</time>
      </trkpt>
      <trkpt lat="42.84515744" lon="-1.69493557">
        <ele>462.4348</ele>
        <time>2019-11-21T13:32:33Z</time>
      </trkpt>
      <trkpt lat="42.84530437" lon="-1.69530565">
        <ele>462.3329</ele>
        <time>2019-11-21T13:32:34Z</time>
      </trkpt>
      <trkpt lat="42.84545772" lon="-1.69567492">
        <ele>462.20636</ele>
        <time>2019-11-21T13:32:35Z</time>
      </trkpt>
      <trkpt lat="42.84561244" lon="-1.69603684">
        <ele>462.20215</ele>
        <time>2019-11-21T13:32:37Z</time>
      </trkpt>
      <trkpt lat="42.84577972" lon="-1.69638548">
        <ele>461.7049</ele>
        <time>2019-11-21T13:32:38Z</time>
      </trkpt>
      <trkpt lat="42.84592629" lon="-1.69672228">
        <ele>459.84998</ele>
        <time>2019-11-21T13:32:39Z</time>
      </trkpt>
      <trkpt lat="42.84627151" lon="-1.69739502">
        <ele>459.0913</ele>
        <time>2019-11-21T13:32:40Z</time>
      </trkpt>
      <trkpt lat="42.84646144" lon="-1.69773303">
        <ele>459.55566</ele>
        <time>2019-11-21T13:32:41Z</time>
      </trkpt>
      <trkpt lat="42.84663406" lon="-1.69805589">
        <ele>477.84375</ele>
        <time>2019-11-21T13:32:42Z</time>
      </trkpt>
      <trkpt lat="42.84681645" lon="-1.69838577">
        <ele>472.77295</ele>
        <time>2019-11-21T13:32:43Z</time>
      </trkpt>
      <trkpt lat="42.84699572" lon="-1.69871801">
        <ele>469.06897</ele>
        <time>2019-11-21T13:32:44Z</time>
      </trkpt>
      <trkpt lat="42.84717876" lon="-1.69904861">
        <ele>466.91022</ele>
        <time>2019-11-21T13:32:45Z</time>
      </trkpt>
      <trkpt lat="42.8473419" lon="-1.69937394">
        <ele>465.24036</ele>
        <time>2019-11-21T13:32:46Z</time>
      </trkpt>
      <trkpt lat="42.8474934" lon="-1.69971203">
        <ele>465.09833</ele>
        <time>2019-11-21T13:32:47Z</time>
      </trkpt>
      <trkpt lat="42.84762053" lon="-1.70006909">
        <ele>462.03918</ele>
        <time>2019-11-21T13:32:48Z</time>
      </trkpt>
      <trkpt lat="42.84777" lon="-1.70042723">
        <ele>462.05054</ele>
        <time>2019-11-21T13:32:49Z</time>
      </trkpt>
      <trkpt lat="42.84790893" lon="-1.70079175">
        <ele>461.10437</ele>
        <time>2019-11-21T13:32:50Z</time>
      </trkpt>
      <trkpt lat="42.84805748" lon="-1.70116467">
        <ele>463.09296</ele>
        <time>2019-11-21T13:32:51Z</time>
      </trkpt>
      <trkpt lat="42.84820709" lon="-1.70154308">
        <ele>463.26764</ele>
        <time>2019-11-21T13:32:52Z</time>
      </trkpt>
      <trkpt lat="42.84833511" lon="-1.701922">
        <ele>464.4057</ele>
        <time>2019-11-21T13:32:53Z</time>
      </trkpt>
      <trkpt lat="42.84844234" lon="-1.70230253">
        <ele>464.60272</ele>
        <time>2019-11-21T13:32:54Z</time>
      </trkpt>
      <trkpt lat="42.84854089" lon="-1.7026879">
        <ele>464.28027</ele>
        <time>2019-11-21T13:32:55Z</time>
      </trkpt>
      <trkpt lat="42.84865347" lon="-1.70307033">
        <ele>464.50195</ele>
        <time>2019-11-21T13:32:56Z</time>
      </trkpt>
      <trkpt lat="42.84877241" lon="-1.70345059">
        <ele>463.8723</ele>
        <time>2019-11-21T13:32:57Z</time>
      </trkpt>
      <trkpt lat="42.84887819" lon="-1.7038501">
        <ele>464.08893</ele>
        <time>2019-11-21T13:32:58Z</time>
      </trkpt>
      <trkpt lat="42.84899303" lon="-1.70423415">
        <ele>466.20428</ele>
        <time>2019-11-21T13:32:59Z</time>
      </trkpt>
      <trkpt lat="42.84910421" lon="-1.70462885">
        <ele>466.7235</ele>
        <time>2019-11-21T13:33:00Z</time>
      </trkpt>
      <trkpt lat="42.84921803" lon="-1.70498806">
        <ele>464.4325</ele>
        <time>2019-11-21T13:33:01Z</time>
      </trkpt>
      <trkpt lat="42.84934622" lon="-1.70536423">
        <ele>464.41785</ele>
        <time>2019-11-21T13:33:02Z</time>
      </trkpt>
      <trkpt lat="42.8494448" lon="-1.70573721">
        <ele>463.16156</ele>
        <time>2019-11-21T13:33:03Z</time>
      </trkpt>
      <trkpt lat="42.8495697" lon="-1.70610845">
        <ele>461.5166</ele>
        <time>2019-11-21T13:33:04Z</time>
      </trkpt>
      <trkpt lat="42.84970968" lon="-1.70647524">
        <ele>462.46033</ele>
        <time>2019-11-21T13:33:05Z</time>
      </trkpt>
      <trkpt lat="42.84985317" lon="-1.70683031">
        <ele>462.51843</ele>
        <time>2019-11-21T13:33:06Z</time>
      </trkpt>
      <trkpt lat="42.85001029" lon="-1.70718841">
        <ele>464.16357</ele>
        <time>2019-11-21T13:33:07Z</time>
      </trkpt>
      <trkpt lat="42.85017441" lon="-1.70753843">
        <ele>464.32715</ele>
        <time>2019-11-21T13:33:09Z</time>
      </trkpt>
      <trkpt lat="42.8503377" lon="-1.70788482">
        <ele>464.8957</ele>
        <time>2019-11-21T13:33:10Z</time>
      </trkpt>
      <trkpt lat="42.85067563" lon="-1.7085264">
        <ele>463.00403</ele>
        <time>2019-11-21T13:33:11Z</time>
      </trkpt>
      <trkpt lat="42.85084588" lon="-1.70885061">
        <ele>463.7196</ele>
        <time>2019-11-21T13:33:12Z</time>
      </trkpt>
      <trkpt lat="42.85107027" lon="-1.70913196">
        <ele>462.5683</ele>
        <time>2019-11-21T13:33:13Z</time>
      </trkpt>
      <trkpt lat="42.85125609" lon="-1.70944189">
        <ele>462.51514</ele>
        <time>2019-11-21T13:33:14Z</time>
      </trkpt>
      <trkpt lat="42.85145259" lon="-1.70974654">
        <ele>463.6026</ele>
        <time>2019-11-21T13:33:15Z</time>
      </trkpt>
      <trkpt lat="42.8516314" lon="-1.71003651">
        <ele>463.54407</ele>
        <time>2019-11-21T13:33:16Z</time>
      </trkpt>
      <trkpt lat="42.85190101" lon="-1.7103398">
        <ele>463.63342</ele>
        <time>2019-11-21T13:33:17Z</time>
      </trkpt>
      <trkpt lat="42.85210811" lon="-1.71064669">
        <ele>464.36652</ele>
        <time>2019-11-21T13:33:18Z</time>
      </trkpt>
      <trkpt lat="42.85229974" lon="-1.71096397">
        <ele>465.1759</ele>
        <time>2019-11-21T13:33:19Z</time>
      </trkpt>
      <trkpt lat="42.85246277" lon="-1.71129063">
        <ele>464.74677</ele>
        <time>2019-11-21T13:33:20Z</time>
      </trkpt>
      <trkpt lat="42.85264157" lon="-1.71163698">
        <ele>465.73608</ele>
        <time>2019-11-21T13:33:21Z</time>
      </trkpt>
      <trkpt lat="42.85280182" lon="-1.71197852">
        <ele>466.12585</ele>
        <time>2019-11-21T13:33:23Z</time>
      </trkpt>
      <trkpt lat="42.85309016" lon="-1.71269087">
        <ele>463.0724</ele>
        <time>2019-11-21T13:33:24Z</time>
      </trkpt>
      <trkpt lat="42.85323107" lon="-1.71307074">
        <ele>463.0067</ele>
        <time>2019-11-21T13:33:29Z</time>
      </trkpt>
      <trkpt lat="42.85377868" lon="-1.7150145">
        <ele>467.53662</ele>
        <time>2019-11-21T13:33:30Z</time>
      </trkpt>
      <trkpt lat="42.8538653" lon="-1.71542479">
        <ele>467.60614</ele>
        <time>2019-11-21T13:33:31Z</time>
      </trkpt>
      <trkpt lat="42.85391983" lon="-1.71580383">
        <ele>466.24097</ele>
        <time>2019-11-21T13:33:32Z</time>
      </trkpt>
      <trkpt lat="42.85397126" lon="-1.71620675">
        <ele>465.43518</ele>
        <time>2019-11-21T13:33:33Z</time>
      </trkpt>
      <trkpt lat="42.85401648" lon="-1.71662133">
        <ele>465.95496</ele>
        <time>2019-11-21T13:33:34Z</time>
      </trkpt>
      <trkpt lat="42.85407036" lon="-1.71702926">
        <ele>465.90784</ele>
        <time>2019-11-21T13:33:35Z</time>
      </trkpt>
      <trkpt lat="42.85410709" lon="-1.71743709">
        <ele>465.67566</ele>
        <time>2019-11-21T13:33:36Z</time>
      </trkpt>
      <trkpt lat="42.85413333" lon="-1.71785152">
        <ele>466.17444</ele>
        <time>2019-11-21T13:33:37Z</time>
      </trkpt>
      <trkpt lat="42.85418779" lon="-1.71826407">
        <ele>466.90857</ele>
        <time>2019-11-21T13:33:38Z</time>
      </trkpt>
      <trkpt lat="42.85425384" lon="-1.71866832">
        <ele>466.54413</ele>
        <time>2019-11-21T13:33:39Z</time>
      </trkpt>
      <trkpt lat="42.85431448" lon="-1.71907453">
        <ele>465.7135</ele>
        <time>2019-11-21T13:33:40Z</time>
      </trkpt>
      <trkpt lat="42.85436889" lon="-1.71948281">
        <ele>463.72034</ele>
        <time>2019-11-21T13:33:41Z</time>
      </trkpt>
      <trkpt lat="42.85445993" lon="-1.71988614">
        <ele>466.62</ele>
        <time>2019-11-21T13:33:42Z</time>
      </trkpt>
      <trkpt lat="42.85455014" lon="-1.72027569">
        <ele>466.0957</ele>
        <time>2019-11-21T13:33:43Z</time>
      </trkpt>
      <trkpt lat="42.85464748" lon="-1.72068348">
        <ele>467.8014</ele>
        <time>2019-11-21T13:33:44Z</time>
      </trkpt>
      <trkpt lat="42.85473857" lon="-1.72108463">
        <ele>467.89893</ele>
        <time>2019-11-21T13:33:45Z</time>
      </trkpt>
      <trkpt lat="42.85481881" lon="-1.72148507">
        <ele>466.8869</ele>
        <time>2019-11-21T13:33:47Z</time>
      </trkpt>
      <trkpt lat="42.85486381" lon="-1.72190226">
        <ele>465.76477</ele>
        <time>2019-11-21T13:33:48Z</time>
      </trkpt>
      <trkpt lat="42.85497515" lon="-1.72269782">
        <ele>463.86743</ele>
        <time>2019-11-21T13:33:49Z</time>
      </trkpt>
      <trkpt lat="42.85500933" lon="-1.72310733">
        <ele>464.00854</ele>
        <time>2019-11-21T13:33:50Z</time>
      </trkpt>
      <trkpt lat="42.85503185" lon="-1.72351082">
        <ele>465.05933</ele>
        <time>2019-11-21T13:33:51Z</time>
      </trkpt>
      <trkpt lat="42.85506124" lon="-1.72391363">
        <ele>465.4474</ele>
        <time>2019-11-21T13:33:52Z</time>
      </trkpt>
      <trkpt lat="42.85507976" lon="-1.72432252">
        <ele>466.59265</ele>
        <time>2019-11-21T13:33:53Z</time>
      </trkpt>
      <trkpt lat="42.85508786" lon="-1.72471609">
        <ele>464.37616</ele>
        <time>2019-11-21T13:33:54Z</time>
      </trkpt>
      <trkpt lat="42.85509976" lon="-1.72513545">
        <ele>465.52563</ele>
        <time>2019-11-21T13:33:55Z</time>
      </trkpt>
      <trkpt lat="42.85512807" lon="-1.72552966">
        <ele>464.58752</ele>
        <time>2019-11-21T13:33:56Z</time>
      </trkpt>
      <trkpt lat="42.85515277" lon="-1.72593376">
        <ele>465.05945</ele>
        <time>2019-11-21T13:33:57Z</time>
      </trkpt>
      <trkpt lat="42.85519358" lon="-1.72633794">
        <ele>466.63</ele>
        <time>2019-11-21T13:33:58Z</time>
      </trkpt>
      <trkpt lat="42.85525134" lon="-1.72674117">
        <ele>467.7237</ele>
        <time>2019-11-21T13:33:59Z</time>
      </trkpt>
      <trkpt lat="42.85530967" lon="-1.72713384">
        <ele>467.8546</ele>
        <time>2019-11-21T13:34:00Z</time>
      </trkpt>
      <trkpt lat="42.85537431" lon="-1.72750125">
        <ele>465.36426</ele>
        <time>2019-11-21T13:34:01Z</time>
      </trkpt>
      <trkpt lat="42.85544907" lon="-1.72788873">
        <ele>466.28528</ele>
        <time>2019-11-21T13:34:02Z</time>
      </trkpt>
      <trkpt lat="42.85554137" lon="-1.7282896">
        <ele>467.4463</ele>
        <time>2019-11-21T13:34:03Z</time>
      </trkpt>
      <trkpt lat="42.85562174" lon="-1.72869261">
        <ele>468.25623</ele>
        <time>2019-11-21T13:34:04Z</time>
      </trkpt>
      <trkpt lat="42.85568243" lon="-1.72908173">
        <ele>465.50378</ele>
        <time>2019-11-21T13:34:05Z</time>
      </trkpt>
      <trkpt lat="42.85575347" lon="-1.72948636">
        <ele>465.8139</ele>
        <time>2019-11-21T13:34:06Z</time>
      </trkpt>
      <trkpt lat="42.85583138" lon="-1.72988178">
        <ele>466.76135</ele>
        <time>2019-11-21T13:34:07Z</time>
      </trkpt>
      <trkpt lat="42.8559081" lon="-1.73027543">
        <ele>466.71777</ele>
        <time>2019-11-21T13:34:08Z</time>
      </trkpt>
      <trkpt lat="42.85597475" lon="-1.7306602">
        <ele>466.7826</ele>
        <time>2019-11-21T13:34:09Z</time>
      </trkpt>
      <trkpt lat="42.85603474" lon="-1.73106077">
        <ele>467.87292</ele>
        <time>2019-11-21T13:34:10Z</time>
      </trkpt>
      <trkpt lat="42.85611096" lon="-1.73146862">
        <ele>469.00708</ele>
        <time>2019-11-21T13:34:11Z</time>
      </trkpt>
      <trkpt lat="42.8561379" lon="-1.73187961">
        <ele>469.54236</ele>
        <time>2019-11-21T13:34:12Z</time>
      </trkpt>
      <trkpt lat="42.85618064" lon="-1.73228467">
        <ele>472.59625</ele>
        <time>2019-11-21T13:34:13Z</time>
      </trkpt>
      <trkpt lat="42.85621916" lon="-1.73269266">
        <ele>473.6958</ele>
        <time>2019-11-21T13:34:14Z</time>
      </trkpt>
      <trkpt lat="42.85623696" lon="-1.73311011">
        <ele>474.2754</ele>
        <time>2019-11-21T13:34:15Z</time>
      </trkpt>
      <trkpt lat="42.85625577" lon="-1.73352871">
        <ele>474.27014</ele>
        <time>2019-11-21T13:34:16Z</time>
      </trkpt>
      <trkpt lat="42.85627857" lon="-1.73392513">
        <ele>473.86084</ele>
        <time>2019-11-21T13:34:17Z</time>
      </trkpt>
      <trkpt lat="42.85630753" lon="-1.73432323">
        <ele>474.0641</ele>
        <time>2019-11-21T13:34:18Z</time>
      </trkpt>
      <trkpt lat="42.85634001" lon="-1.73474018">
        <ele>475.08667</ele>
        <time>2019-11-21T13:34:20Z</time>
      </trkpt>
      <trkpt lat="42.85638274" lon="-1.73513682">
        <ele>474.90515</ele>
        <time>2019-11-21T13:34:21Z</time>
      </trkpt>
      <trkpt lat="42.85649489" lon="-1.73595878">
        <ele>478.20996</ele>
        <time>2019-11-21T13:34:22Z</time>
      </trkpt>
      <trkpt lat="42.85658232" lon="-1.73635626">
        <ele>480.97192</ele>
        <time>2019-11-21T13:34:23Z</time>
      </trkpt>
      <trkpt lat="42.8566752" lon="-1.73673673">
        <ele>481.7478</ele>
        <time>2019-11-21T13:34:24Z</time>
      </trkpt>
      <trkpt lat="42.85677204" lon="-1.73712651">
        <ele>482.77582</ele>
        <time>2019-11-21T13:34:25Z</time>
      </trkpt>
      <trkpt lat="42.85687281" lon="-1.7375171">
        <ele>482.68018</ele>
        <time>2019-11-21T13:34:26Z</time>
      </trkpt>
      <trkpt lat="42.85698999" lon="-1.73789936">
        <ele>485.69067</ele>
        <time>2019-11-21T13:34:27Z</time>
      </trkpt>
      <trkpt lat="42.85711007" lon="-1.73828482">
        <ele>487.1433</ele>
        <time>2019-11-21T13:34:28Z</time>
      </trkpt>
      <trkpt lat="42.85724274" lon="-1.73865784">
        <ele>489.52063</ele>
        <time>2019-11-21T13:34:29Z</time>
      </trkpt>
      <trkpt lat="42.85738162" lon="-1.73902788">
        <ele>490.03198</ele>
        <time>2019-11-21T13:34:30Z</time>
      </trkpt>
      <trkpt lat="42.85753166" lon="-1.73938317">
        <ele>490.11078</ele>
        <time>2019-11-21T13:34:31Z</time>
      </trkpt>
      <trkpt lat="42.8576864" lon="-1.73973971">
        <ele>489.22485</ele>
        <time>2019-11-21T13:34:32Z</time>
      </trkpt>
      <trkpt lat="42.85785027" lon="-1.74008533">
        <ele>490.37463</ele>
        <time>2019-11-21T13:34:33Z</time>
      </trkpt>
      <trkpt lat="42.85799194" lon="-1.74040699">
        <ele>488.52405</ele>
        <time>2019-11-21T13:34:34Z</time>
      </trkpt>
      <trkpt lat="42.85819242" lon="-1.74073428">
        <ele>489.21478</ele>
        <time>2019-11-21T13:34:35Z</time>
      </trkpt>
      <trkpt lat="42.85837699" lon="-1.74104989">
        <ele>489.37842</ele>
        <time>2019-11-21T13:34:36Z</time>
      </trkpt>
      <trkpt lat="42.85857884" lon="-1.74136582">
        <ele>489.74475</ele>
        <time>2019-11-21T13:34:37Z</time>
      </trkpt>
      <trkpt lat="42.85877618" lon="-1.74167084">
        <ele>489.56653</ele>
        <time>2019-11-21T13:34:38Z</time>
      </trkpt>
      <trkpt lat="42.85897627" lon="-1.74197284">
        <ele>490.28076</ele>
        <time>2019-11-21T13:34:39Z</time>
      </trkpt>
      <trkpt lat="42.85917937" lon="-1.74226686">
        <ele>490.6787</ele>
        <time>2019-11-21T13:34:40Z</time>
      </trkpt>
      <trkpt lat="42.85939959" lon="-1.74255181">
        <ele>491.0619</ele>
        <time>2019-11-21T13:34:41Z</time>
      </trkpt>
      <trkpt lat="42.85961903" lon="-1.7428346">
        <ele>491.8158</ele>
        <time>2019-11-21T13:34:42Z</time>
      </trkpt>
      <trkpt lat="42.85983954" lon="-1.74310764">
        <ele>492.82355</ele>
        <time>2019-11-21T13:34:43Z</time>
      </trkpt>
      <trkpt lat="42.8600604" lon="-1.74339231">
        <ele>494.87085</ele>
        <time>2019-11-21T13:34:44Z</time>
      </trkpt>
      <trkpt lat="42.86028898" lon="-1.74365315">
        <ele>495.2243</ele>
        <time>2019-11-21T13:34:45Z</time>
      </trkpt>
      <trkpt lat="42.86053003" lon="-1.74390632">
        <ele>495.61304</ele>
        <time>2019-11-21T13:34:46Z</time>
      </trkpt>
      <trkpt lat="42.8607666" lon="-1.74417339">
        <ele>496.38165</ele>
        <time>2019-11-21T13:34:48Z</time>
      </trkpt>
      <trkpt lat="42.86125645" lon="-1.74465929">
        <ele>497.67798</ele>
        <time>2019-11-21T13:34:49Z</time>
      </trkpt>
      <trkpt lat="42.86150577" lon="-1.74488611">
        <ele>498.32922</ele>
        <time>2019-11-21T13:34:50Z</time>
      </trkpt>
      <trkpt lat="42.86176186" lon="-1.74509401">
        <ele>498.09033</ele>
        <time>2019-11-21T13:34:51Z</time>
      </trkpt>
      <trkpt lat="42.86203449" lon="-1.74529073">
        <ele>498.4496</ele>
        <time>2019-11-21T13:34:52Z</time>
      </trkpt>
      <trkpt lat="42.86229788" lon="-1.74548863">
        <ele>498.83472</ele>
        <time>2019-11-21T13:34:53Z</time>
      </trkpt>
      <trkpt lat="42.86255385" lon="-1.74568585">
        <ele>497.75305</ele>
        <time>2019-11-21T13:34:54Z</time>
      </trkpt>
      <trkpt lat="42.86282858" lon="-1.74587406">
        <ele>497.8778</ele>
        <time>2019-11-21T13:34:55Z</time>
      </trkpt>
      <trkpt lat="42.86310189" lon="-1.74605623">
        <ele>498.96777</ele>
        <time>2019-11-21T13:34:56Z</time>
      </trkpt>
      <trkpt lat="42.86337375" lon="-1.74622292">
        <ele>498.7981</ele>
        <time>2019-11-21T13:34:57Z</time>
      </trkpt>
      <trkpt lat="42.86364364" lon="-1.74637209">
        <ele>497.0882</ele>
        <time>2019-11-21T13:34:58Z</time>
      </trkpt>
      <trkpt lat="42.86392089" lon="-1.74652334">
        <ele>498.05402</ele>
        <time>2019-11-21T13:34:59Z</time>
      </trkpt>
      <trkpt lat="42.86417174" lon="-1.74664973">
        <ele>496.90955</ele>
        <time>2019-11-21T13:35:00Z</time>
      </trkpt>
      <trkpt lat="42.8644253" lon="-1.7467699">
        <ele>495.85004</ele>
        <time>2019-11-21T13:35:01Z</time>
      </trkpt>
      <trkpt lat="42.86467659" lon="-1.74688828">
        <ele>497.17444</ele>
        <time>2019-11-21T13:35:02Z</time>
      </trkpt>
      <trkpt lat="42.86491258" lon="-1.74698909">
        <ele>496.9369</ele>
        <time>2019-11-21T13:35:03Z</time>
      </trkpt>
      <trkpt lat="42.8651454" lon="-1.74707732">
        <ele>497.21252</ele>
        <time>2019-11-21T13:35:04Z</time>
      </trkpt>
      <trkpt lat="42.86536733" lon="-1.7471593">
        <ele>496.90417</ele>
        <time>2019-11-21T13:35:05Z</time>
      </trkpt>
      <trkpt lat="42.86559759" lon="-1.74724634">
        <ele>495.8294</ele>
        <time>2019-11-21T13:35:06Z</time>
      </trkpt>
      <trkpt lat="42.86581458" lon="-1.74731128">
        <ele>494.65723</ele>
        <time>2019-11-21T13:35:07Z</time>
      </trkpt>
      <trkpt lat="42.866023" lon="-1.74739409">
        <ele>494.2658</ele>
        <time>2019-11-21T13:35:08Z</time>
      </trkpt>
      <trkpt lat="42.86621429" lon="-1.74748153">
        <ele>492.72607</ele>
        <time>2019-11-21T13:35:09Z</time>
      </trkpt>
      <trkpt lat="42.86637585" lon="-1.74757958">
        <ele>490.39362</ele>
        <time>2019-11-21T13:35:10Z</time>
      </trkpt>
      <trkpt lat="42.86655846" lon="-1.74765671">
        <ele>489.69073</ele>
        <time>2019-11-21T13:35:11Z</time>
      </trkpt>
      <trkpt lat="42.86672309" lon="-1.74774573">
        <ele>489.1172</ele>
        <time>2019-11-21T13:35:12Z</time>
      </trkpt>
      <trkpt lat="42.86688323" lon="-1.74783209">
        <ele>490.18512</ele>
        <time>2019-11-21T13:35:13Z</time>
      </trkpt>
      <trkpt lat="42.86703902" lon="-1.74791291">
        <ele>493.0171</ele>
        <time>2019-11-21T13:35:14Z</time>
      </trkpt>
      <trkpt lat="42.86728628" lon="-1.74802926">
        <ele>491.79565</ele>
        <time>2019-11-21T13:35:16Z</time>
      </trkpt>
      <trkpt lat="42.86747317" lon="-1.74811337">
        <ele>493.2356</ele>
        <time>2019-11-21T13:35:18Z</time>
      </trkpt>
      <trkpt lat="42.86761295" lon="-1.74817342">
        <ele>494.23773</ele>
        <time>2019-11-21T13:35:20Z</time>
      </trkpt>
      <trkpt lat="42.86775243" lon="-1.74822529">
        <ele>496.4535</ele>
        <time>2019-11-21T13:35:30Z</time>
      </trkpt>
      <trkpt lat="42.86789085" lon="-1.7483094">
        <ele>498.86426</ele>
        <time>2019-11-21T13:35:39Z</time>
      </trkpt>
      <trkpt lat="42.86804139" lon="-1.74833546">
        <ele>495.7849</ele>
        <time>2019-11-21T13:35:41Z</time>
      </trkpt>
      <trkpt lat="42.86822024" lon="-1.74839124">
        <ele>494.63867</ele>
        <time>2019-11-21T13:35:43Z</time>
      </trkpt>
      <trkpt lat="42.8684662" lon="-1.7484856">
        <ele>494.99622</ele>
        <time>2019-11-21T13:35:45Z</time>
      </trkpt>
      <trkpt lat="42.86861185" lon="-1.74854649">
        <ele>497.34906</ele>
        <time>2019-11-21T13:35:46Z</time>
      </trkpt>
      <trkpt lat="42.86874193" lon="-1.74860793">
        <ele>496.1161</ele>
        <time>2019-11-21T13:35:47Z</time>
      </trkpt>
      <trkpt lat="42.86889771" lon="-1.74867771">
        <ele>496.33337</ele>
        <time>2019-11-21T13:35:48Z</time>
      </trkpt>
      <trkpt lat="42.86906783" lon="-1.74875001">
        <ele>495.7256</ele>
        <time>2019-11-21T13:35:50Z</time>
      </trkpt>
      <trkpt lat="42.86922682" lon="-1.74883284">
        <ele>496.0503</ele>
        <time>2019-11-21T13:35:51Z</time>
      </trkpt>
      <trkpt lat="42.86956515" lon="-1.74902717">
        <ele>493.27338</ele>
        <time>2019-11-21T13:35:52Z</time>
      </trkpt>
      <trkpt lat="42.86974589" lon="-1.74915657">
        <ele>494.8783</ele>
        <time>2019-11-21T13:35:53Z</time>
      </trkpt>
      <trkpt lat="42.86993468" lon="-1.74927524">
        <ele>494.2475</ele>
        <time>2019-11-21T13:35:54Z</time>
      </trkpt>
      <trkpt lat="42.87012468" lon="-1.74941545">
        <ele>493.90674</ele>
        <time>2019-11-21T13:35:55Z</time>
      </trkpt>
      <trkpt lat="42.87031783" lon="-1.74956389">
        <ele>493.61926</ele>
        <time>2019-11-21T13:35:56Z</time>
      </trkpt>
      <trkpt lat="42.87050243" lon="-1.74970189">
        <ele>493.63104</ele>
        <time>2019-11-21T13:35:57Z</time>
      </trkpt>
      <trkpt lat="42.87069018" lon="-1.74985869">
        <ele>494.35858</ele>
        <time>2019-11-21T13:35:58Z</time>
      </trkpt>
      <trkpt lat="42.87087434" lon="-1.75002096">
        <ele>494.41412</ele>
        <time>2019-11-21T13:35:59Z</time>
      </trkpt>
      <trkpt lat="42.87104362" lon="-1.75019804">
        <ele>495.38965</ele>
        <time>2019-11-21T13:36:00Z</time>
      </trkpt>
      <trkpt lat="42.87122615" lon="-1.75037896">
        <ele>496.59033</ele>
        <time>2019-11-21T13:36:01Z</time>
      </trkpt>
      <trkpt lat="42.87139555" lon="-1.75055417">
        <ele>496.46436</ele>
        <time>2019-11-21T13:36:02Z</time>
      </trkpt>
      <trkpt lat="42.87156493" lon="-1.75074019">
        <ele>497.96204</ele>
        <time>2019-11-21T13:36:03Z</time>
      </trkpt>
      <trkpt lat="42.87172115" lon="-1.75092311">
        <ele>497.2356</ele>
        <time>2019-11-21T13:36:04Z</time>
      </trkpt>
      <trkpt lat="42.8718648" lon="-1.75110976">
        <ele>496.52246</ele>
        <time>2019-11-21T13:36:05Z</time>
      </trkpt>
      <trkpt lat="42.87203965" lon="-1.75130778">
        <ele>498.3108</ele>
        <time>2019-11-21T13:36:06Z</time>
      </trkpt>
      <trkpt lat="42.87220081" lon="-1.75150485">
        <ele>498.77966</ele>
        <time>2019-11-21T13:36:07Z</time>
      </trkpt>
      <trkpt lat="42.87236644" lon="-1.75171642">
        <ele>500.0537</ele>
        <time>2019-11-21T13:36:08Z</time>
      </trkpt>
      <trkpt lat="42.87252716" lon="-1.75192923">
        <ele>500.5736</ele>
        <time>2019-11-21T13:36:09Z</time>
      </trkpt>
      <trkpt lat="42.8726866" lon="-1.75215673">
        <ele>501.71057</ele>
        <time>2019-11-21T13:36:10Z</time>
      </trkpt>
      <trkpt lat="42.87285432" lon="-1.75238144">
        <ele>502.47144</ele>
        <time>2019-11-21T13:36:11Z</time>
      </trkpt>
      <trkpt lat="42.87302845" lon="-1.75260873">
        <ele>503.3034</ele>
        <time>2019-11-21T13:36:12Z</time>
      </trkpt>
      <trkpt lat="42.87321123" lon="-1.75286457">
        <ele>504.8413</ele>
        <time>2019-11-21T13:36:13Z</time>
      </trkpt>
      <trkpt lat="42.87337666" lon="-1.75310498">
        <ele>504.60876</ele>
        <time>2019-11-21T13:36:14Z</time>
      </trkpt>
      <trkpt lat="42.87353743" lon="-1.75336714">
        <ele>505.26337</ele>
        <time>2019-11-21T13:36:15Z</time>
      </trkpt>
      <trkpt lat="42.87369352" lon="-1.75363602">
        <ele>505.94922</ele>
        <time>2019-11-21T13:36:16Z</time>
      </trkpt>
      <trkpt lat="42.87385888" lon="-1.75390458">
        <ele>507.755</ele>
        <time>2019-11-21T13:36:17Z</time>
      </trkpt>
      <trkpt lat="42.87399995" lon="-1.75417204">
        <ele>509.00366</ele>
        <time>2019-11-21T13:36:18Z</time>
      </trkpt>
      <trkpt lat="42.87415605" lon="-1.75444036">
        <ele>510.3703</ele>
        <time>2019-11-21T13:36:20Z</time>
      </trkpt>
      <trkpt lat="42.87429602" lon="-1.75470606">
        <ele>512.0659</ele>
        <time>2019-11-21T13:36:21Z</time>
      </trkpt>
      <trkpt lat="42.87459504" lon="-1.75525585">
        <ele>516.5039</ele>
        <time>2019-11-21T13:36:22Z</time>
      </trkpt>
      <trkpt lat="42.87475333" lon="-1.75552518">
        <ele>519.46454</ele>
        <time>2019-11-21T13:36:23Z</time>
      </trkpt>
      <trkpt lat="42.87490886" lon="-1.75579642">
        <ele>520.3313</ele>
        <time>2019-11-21T13:36:24Z</time>
      </trkpt>
      <trkpt lat="42.8750809" lon="-1.75607222">
        <ele>522.1671</ele>
        <time>2019-11-21T13:36:25Z</time>
      </trkpt>
      <trkpt lat="42.87524859" lon="-1.75633029">
        <ele>524.0216</ele>
        <time>2019-11-21T13:36:26Z</time>
      </trkpt>
      <trkpt lat="42.87541278" lon="-1.75659249">
        <ele>523.97784</ele>
        <time>2019-11-21T13:36:27Z</time>
      </trkpt>
      <trkpt lat="42.87559906" lon="-1.75683243">
        <ele>523.2756</ele>
        <time>2019-11-21T13:36:28Z</time>
      </trkpt>
      <trkpt lat="42.87580132" lon="-1.75708164">
        <ele>524.85803</ele>
        <time>2019-11-21T13:36:29Z</time>
      </trkpt>
      <trkpt lat="42.87598589" lon="-1.75730687">
        <ele>524.4082</ele>
        <time>2019-11-21T13:36:30Z</time>
      </trkpt>
      <trkpt lat="42.87620429" lon="-1.75753124">
        <ele>534.8606</ele>
        <time>2019-11-21T13:36:31Z</time>
      </trkpt>
      <trkpt lat="42.87640914" lon="-1.75773293">
        <ele>532.68225</ele>
        <time>2019-11-21T13:36:32Z</time>
      </trkpt>
      <trkpt lat="42.87662669" lon="-1.75792354">
        <ele>530.8159</ele>
        <time>2019-11-21T13:36:33Z</time>
      </trkpt>
      <trkpt lat="42.87685246" lon="-1.75810408">
        <ele>529.53955</ele>
        <time>2019-11-21T13:36:34Z</time>
      </trkpt>
      <trkpt lat="42.87707617" lon="-1.75827903">
        <ele>529.656</ele>
        <time>2019-11-21T13:36:35Z</time>
      </trkpt>
      <trkpt lat="42.87730456" lon="-1.75844263">
        <ele>527.91626</ele>
        <time>2019-11-21T13:36:36Z</time>
      </trkpt>
      <trkpt lat="42.87753488" lon="-1.75860145">
        <ele>527.27905</ele>
        <time>2019-11-21T13:36:37Z</time>
      </trkpt>
      <trkpt lat="42.8777617" lon="-1.75876157">
        <ele>527.6709</ele>
        <time>2019-11-21T13:36:38Z</time>
      </trkpt>
      <trkpt lat="42.87799803" lon="-1.75892639">
        <ele>528.1846</ele>
        <time>2019-11-21T13:36:39Z</time>
      </trkpt>
      <trkpt lat="42.87821122" lon="-1.75910086">
        <ele>527.38855</ele>
        <time>2019-11-21T13:36:40Z</time>
      </trkpt>
      <trkpt lat="42.87843888" lon="-1.75929245">
        <ele>527.1658</ele>
        <time>2019-11-21T13:36:41Z</time>
      </trkpt>
      <trkpt lat="42.87867102" lon="-1.75948725">
        <ele>526.5448</ele>
        <time>2019-11-21T13:36:42Z</time>
      </trkpt>
      <trkpt lat="42.878888" lon="-1.75969541">
        <ele>526.1676</ele>
        <time>2019-11-21T13:36:43Z</time>
      </trkpt>
      <trkpt lat="42.87909271" lon="-1.7599177">
        <ele>525.56714</ele>
        <time>2019-11-21T13:36:44Z</time>
      </trkpt>
      <trkpt lat="42.87929719" lon="-1.76015605">
        <ele>525.1499</ele>
        <time>2019-11-21T13:36:45Z</time>
      </trkpt>
      <trkpt lat="42.87950971" lon="-1.76038943">
        <ele>523.4834</ele>
        <time>2019-11-21T13:36:46Z</time>
      </trkpt>
      <trkpt lat="42.87970752" lon="-1.76065409">
        <ele>523.6958</ele>
        <time>2019-11-21T13:36:47Z</time>
      </trkpt>
      <trkpt lat="42.87990792" lon="-1.76092336">
        <ele>524.2234</ele>
        <time>2019-11-21T13:36:48Z</time>
      </trkpt>
      <trkpt lat="42.88009339" lon="-1.76119888">
        <ele>524.8779</ele>
        <time>2019-11-21T13:36:50Z</time>
      </trkpt>
      <trkpt lat="42.88026939" lon="-1.76147635">
        <ele>525.4446</ele>
        <time>2019-11-21T13:36:51Z</time>
      </trkpt>
      <trkpt lat="42.88061792" lon="-1.76206585">
        <ele>525.2024</ele>
        <time>2019-11-21T13:36:52Z</time>
      </trkpt>
      <trkpt lat="42.88078635" lon="-1.76236042">
        <ele>526.07385</ele>
        <time>2019-11-21T13:36:53Z</time>
      </trkpt>
      <trkpt lat="42.88095599" lon="-1.76266246">
        <ele>526.80835</ele>
        <time>2019-11-21T13:36:54Z</time>
      </trkpt>
      <trkpt lat="42.88112486" lon="-1.76295517">
        <ele>528.13135</ele>
        <time>2019-11-21T13:36:55Z</time>
      </trkpt>
      <trkpt lat="42.88130946" lon="-1.7632261">
        <ele>528.67004</ele>
        <time>2019-11-21T13:36:56Z</time>
      </trkpt>
      <trkpt lat="42.88149971" lon="-1.76349664">
        <ele>527.1516</ele>
        <time>2019-11-21T13:36:57Z</time>
      </trkpt>
      <trkpt lat="42.88168754" lon="-1.76375845">
        <ele>528.406</ele>
        <time>2019-11-21T13:36:58Z</time>
      </trkpt>
      <trkpt lat="42.88188679" lon="-1.76400017">
        <ele>528.95215</ele>
        <time>2019-11-21T13:36:59Z</time>
      </trkpt>
      <trkpt lat="42.88208943" lon="-1.76425657">
        <ele>530.86206</ele>
        <time>2019-11-21T13:37:00Z</time>
      </trkpt>
      <trkpt lat="42.88230052" lon="-1.76450393">
        <ele>531.021</ele>
        <time>2019-11-21T13:37:01Z</time>
      </trkpt>
      <trkpt lat="42.88251825" lon="-1.7647338">
        <ele>530.2792</ele>
        <time>2019-11-21T13:37:02Z</time>
      </trkpt>
      <trkpt lat="42.88275108" lon="-1.76495454">
        <ele>530.65405</ele>
        <time>2019-11-21T13:37:03Z</time>
      </trkpt>
      <trkpt lat="42.88298024" lon="-1.76516832">
        <ele>532.1267</ele>
        <time>2019-11-21T13:37:04Z</time>
      </trkpt>
      <trkpt lat="42.88321892" lon="-1.76536797">
        <ele>533.0327</ele>
        <time>2019-11-21T13:37:05Z</time>
      </trkpt>
      <trkpt lat="42.88346537" lon="-1.76555089">
        <ele>534.72095</ele>
        <time>2019-11-21T13:37:06Z</time>
      </trkpt>
      <trkpt lat="42.88371301" lon="-1.76571715">
        <ele>534.90894</ele>
        <time>2019-11-21T13:37:07Z</time>
      </trkpt>
      <trkpt lat="42.88397407" lon="-1.76588018">
        <ele>536.73486</ele>
        <time>2019-11-21T13:37:08Z</time>
      </trkpt>
      <trkpt lat="42.88423758" lon="-1.7660277">
        <ele>537.1714</ele>
        <time>2019-11-21T13:37:09Z</time>
      </trkpt>
      <trkpt lat="42.8844928" lon="-1.76615804">
        <ele>538.0415</ele>
        <time>2019-11-21T13:37:10Z</time>
      </trkpt>
      <trkpt lat="42.88476284" lon="-1.76628699">
        <ele>538.7002</ele>
        <time>2019-11-21T13:37:11Z</time>
      </trkpt>
      <trkpt lat="42.88504099" lon="-1.76640714">
        <ele>538.7385</ele>
        <time>2019-11-21T13:37:12Z</time>
      </trkpt>
      <trkpt lat="42.88531451" lon="-1.76652884">
        <ele>540.3237</ele>
        <time>2019-11-21T13:37:13Z</time>
      </trkpt>
      <trkpt lat="42.88558476" lon="-1.76664936">
        <ele>541.4861</ele>
        <time>2019-11-21T13:37:14Z</time>
      </trkpt>
      <trkpt lat="42.8858507" lon="-1.76677447">
        <ele>542.2406</ele>
        <time>2019-11-21T13:37:15Z</time>
      </trkpt>
      <trkpt lat="42.88611329" lon="-1.76691463">
        <ele>543.1456</ele>
        <time>2019-11-21T13:37:16Z</time>
      </trkpt>
      <trkpt lat="42.88638579" lon="-1.7670787">
        <ele>544.6194</ele>
        <time>2019-11-21T13:37:17Z</time>
      </trkpt>
      <trkpt lat="42.88665041" lon="-1.76725874">
        <ele>546.6467</ele>
        <time>2019-11-21T13:37:18Z</time>
      </trkpt>
      <trkpt lat="42.8869147" lon="-1.7674537">
        <ele>548.7616</ele>
        <time>2019-11-21T13:37:19Z</time>
      </trkpt>
      <trkpt lat="42.88717446" lon="-1.76765492">
        <ele>549.9387</ele>
        <time>2019-11-21T13:37:20Z</time>
      </trkpt>
      <trkpt lat="42.8874324" lon="-1.76787927">
        <ele>551.80347</ele>
        <time>2019-11-21T13:37:22Z</time>
      </trkpt>
      <trkpt lat="42.88768462" lon="-1.76812308">
        <ele>553.0984</ele>
        <time>2019-11-21T13:37:23Z</time>
      </trkpt>
      <trkpt lat="42.8879239" lon="-1.76838057">
        <ele>554.4153</ele>
        <time>2019-11-21T13:37:24Z</time>
      </trkpt>
      <trkpt lat="42.88837387" lon="-1.76891796">
        <ele>555.822</ele>
        <time>2019-11-21T13:37:25Z</time>
      </trkpt>
      <trkpt lat="42.88858759" lon="-1.76920255">
        <ele>556.3413</ele>
        <time>2019-11-21T13:37:26Z</time>
      </trkpt>
      <trkpt lat="42.88879717" lon="-1.76949884">
        <ele>556.6461</ele>
        <time>2019-11-21T13:37:27Z</time>
      </trkpt>
      <trkpt lat="42.88900041" lon="-1.76980672">
        <ele>558.228</ele>
        <time>2019-11-21T13:37:28Z</time>
      </trkpt>
      <trkpt lat="42.88919384" lon="-1.77012577">
        <ele>559.2678</ele>
        <time>2019-11-21T13:37:29Z</time>
      </trkpt>
      <trkpt lat="42.88938549" lon="-1.77045039">
        <ele>559.81714</ele>
        <time>2019-11-21T13:37:30Z</time>
      </trkpt>
      <trkpt lat="42.8895681" lon="-1.77079065">
        <ele>561.2483</ele>
        <time>2019-11-21T13:37:31Z</time>
      </trkpt>
      <trkpt lat="42.88974518" lon="-1.77113421">
        <ele>561.18176</ele>
        <time>2019-11-21T13:37:32Z</time>
      </trkpt>
      <trkpt lat="42.88991055" lon="-1.7714773">
        <ele>561.9783</ele>
        <time>2019-11-21T13:37:33Z</time>
      </trkpt>
      <trkpt lat="42.89006443" lon="-1.77183368">
        <ele>562.83496</ele>
        <time>2019-11-21T13:37:34Z</time>
      </trkpt>
      <trkpt lat="42.89020334" lon="-1.77219094">
        <ele>563.3779</ele>
        <time>2019-11-21T13:37:35Z</time>
      </trkpt>
      <trkpt lat="42.89033682" lon="-1.77256194">
        <ele>563.73535</ele>
        <time>2019-11-21T13:37:36Z</time>
      </trkpt>
      <trkpt lat="42.89046518" lon="-1.77294637">
        <ele>564.4364</ele>
        <time>2019-11-21T13:37:37Z</time>
      </trkpt>
      <trkpt lat="42.89057781" lon="-1.77332487">
        <ele>564.802</ele>
        <time>2019-11-21T13:37:38Z</time>
      </trkpt>
      <trkpt lat="42.89068672" lon="-1.77371012">
        <ele>566.42505</ele>
        <time>2019-11-21T13:37:39Z</time>
      </trkpt>
      <trkpt lat="42.89078434" lon="-1.77410689">
        <ele>566.1896</ele>
        <time>2019-11-21T13:37:40Z</time>
      </trkpt>
      <trkpt lat="42.89086839" lon="-1.77450173">
        <ele>566.64307</ele>
        <time>2019-11-21T13:37:41Z</time>
      </trkpt>
      <trkpt lat="42.89095237" lon="-1.77490106">
        <ele>566.2705</ele>
        <time>2019-11-21T13:37:42Z</time>
      </trkpt>
      <trkpt lat="42.89102759" lon="-1.77531205">
        <ele>561.64746</ele>
        <time>2019-11-21T13:37:43Z</time>
      </trkpt>
      <trkpt lat="42.89108694" lon="-1.77572107">
        <ele>564.00464</ele>
        <time>2019-11-21T13:37:44Z</time>
      </trkpt>
      <trkpt lat="42.89114349" lon="-1.77613225">
        <ele>564.96216</ele>
        <time>2019-11-21T13:37:45Z</time>
      </trkpt>
      <trkpt lat="42.8911985" lon="-1.77653107">
        <ele>564.34485</ele>
        <time>2019-11-21T13:37:46Z</time>
      </trkpt>
      <trkpt lat="42.89124239" lon="-1.77693363">
        <ele>563.5552</ele>
        <time>2019-11-21T13:37:47Z</time>
      </trkpt>
      <trkpt lat="42.89128197" lon="-1.77735005">
        <ele>563.468</ele>
        <time>2019-11-21T13:37:48Z</time>
      </trkpt>
      <trkpt lat="42.89131757" lon="-1.77776268">
        <ele>562.78516</ele>
        <time>2019-11-21T13:37:49Z</time>
      </trkpt>
      <trkpt lat="42.89135883" lon="-1.77817965">
        <ele>561.8258</ele>
        <time>2019-11-21T13:37:50Z</time>
      </trkpt>
      <trkpt lat="42.89140789" lon="-1.77858671">
        <ele>561.38696</ele>
        <time>2019-11-21T13:37:52Z</time>
      </trkpt>
      <trkpt lat="42.89147017" lon="-1.77899188">
        <ele>561.08594</ele>
        <time>2019-11-21T13:37:53Z</time>
      </trkpt>
      <trkpt lat="42.89162997" lon="-1.7797794">
        <ele>559.8406</ele>
        <time>2019-11-21T13:37:54Z</time>
      </trkpt>
      <trkpt lat="42.89172898" lon="-1.78016659">
        <ele>558.99194</ele>
        <time>2019-11-21T13:37:55Z</time>
      </trkpt>
      <trkpt lat="42.89183615" lon="-1.78055298">
        <ele>558.7461</ele>
        <time>2019-11-21T13:37:56Z</time>
      </trkpt>
      <trkpt lat="42.89195695" lon="-1.78093588">
        <ele>558.7854</ele>
        <time>2019-11-21T13:37:57Z</time>
      </trkpt>
      <trkpt lat="42.89208864" lon="-1.7813091">
        <ele>557.84875</ele>
        <time>2019-11-21T13:37:58Z</time>
      </trkpt>
      <trkpt lat="42.89222695" lon="-1.78166691">
        <ele>557.2251</ele>
        <time>2019-11-21T13:37:59Z</time>
      </trkpt>
      <trkpt lat="42.89237065" lon="-1.78203361">
        <ele>557.6913</ele>
        <time>2019-11-21T13:38:00Z</time>
      </trkpt>
      <trkpt lat="42.89251924" lon="-1.78239966">
        <ele>558.7401</ele>
        <time>2019-11-21T13:38:01Z</time>
      </trkpt>
      <trkpt lat="42.89266671" lon="-1.78275779">
        <ele>558.06323</ele>
        <time>2019-11-21T13:38:02Z</time>
      </trkpt>
      <trkpt lat="42.89282482" lon="-1.78310801">
        <ele>558.6129</ele>
        <time>2019-11-21T13:38:03Z</time>
      </trkpt>
      <trkpt lat="42.89298198" lon="-1.78343719">
        <ele>558.5371</ele>
        <time>2019-11-21T13:38:04Z</time>
      </trkpt>
      <trkpt lat="42.89314232" lon="-1.7837562">
        <ele>557.75244</ele>
        <time>2019-11-21T13:38:05Z</time>
      </trkpt>
      <trkpt lat="42.89329423" lon="-1.78406172">
        <ele>554.845</ele>
        <time>2019-11-21T13:38:06Z</time>
      </trkpt>
      <trkpt lat="42.89346363" lon="-1.78437636">
        <ele>555.0477</ele>
        <time>2019-11-21T13:38:07Z</time>
      </trkpt>
      <trkpt lat="42.89363182" lon="-1.78467372">
        <ele>554.322</ele>
        <time>2019-11-21T13:38:08Z</time>
      </trkpt>
      <trkpt lat="42.89380911" lon="-1.7849732">
        <ele>554.0353</ele>
        <time>2019-11-21T13:38:09Z</time>
      </trkpt>
      <trkpt lat="42.8939925" lon="-1.7852604">
        <ele>554.0134</ele>
        <time>2019-11-21T13:38:10Z</time>
      </trkpt>
      <trkpt lat="42.89417532" lon="-1.78554363">
        <ele>553.6245</ele>
        <time>2019-11-21T13:38:11Z</time>
      </trkpt>
      <trkpt lat="42.89436712" lon="-1.78581872">
        <ele>553.8108</ele>
        <time>2019-11-21T13:38:12Z</time>
      </trkpt>
      <trkpt lat="42.89456954" lon="-1.78609324">
        <ele>553.01953</ele>
        <time>2019-11-21T13:38:13Z</time>
      </trkpt>
      <trkpt lat="42.89477155" lon="-1.78636581">
        <ele>552.1748</ele>
        <time>2019-11-21T13:38:14Z</time>
      </trkpt>
      <trkpt lat="42.89499878" lon="-1.78663266">
        <ele>550.70996</ele>
        <time>2019-11-21T13:38:15Z</time>
      </trkpt>
      <trkpt lat="42.89523559" lon="-1.78688778">
        <ele>550.229</ele>
        <time>2019-11-21T13:38:16Z</time>
      </trkpt>
      <trkpt lat="42.89546633" lon="-1.78710933">
        <ele>548.5493</ele>
        <time>2019-11-21T13:38:17Z</time>
      </trkpt>
      <trkpt lat="42.89570964" lon="-1.78733311">
        <ele>545.82056</ele>
        <time>2019-11-21T13:38:18Z</time>
      </trkpt>
      <trkpt lat="42.89596622" lon="-1.78756069">
        <ele>543.38477</ele>
        <time>2019-11-21T13:38:19Z</time>
      </trkpt>
      <trkpt lat="42.89621995" lon="-1.78779621">
        <ele>542.5355</ele>
        <time>2019-11-21T13:38:20Z</time>
      </trkpt>
      <trkpt lat="42.89647143" lon="-1.78803919">
        <ele>542.20496</ele>
        <time>2019-11-21T13:38:21Z</time>
      </trkpt>
      <trkpt lat="42.89672106" lon="-1.78828557">
        <ele>542.2473</ele>
        <time>2019-11-21T13:38:23Z</time>
      </trkpt>
      <trkpt lat="42.89696306" lon="-1.78854144">
        <ele>541.9177</ele>
        <time>2019-11-21T13:38:24Z</time>
      </trkpt>
      <trkpt lat="42.89743536" lon="-1.78908846">
        <ele>541.5</ele>
        <time>2019-11-21T13:38:25Z</time>
      </trkpt>
      <trkpt lat="42.89765404" lon="-1.78938265">
        <ele>541.27905</ele>
        <time>2019-11-21T13:38:26Z</time>
      </trkpt>
      <trkpt lat="42.8978615" lon="-1.78969238">
        <ele>541.59546</ele>
        <time>2019-11-21T13:38:27Z</time>
      </trkpt>
      <trkpt lat="42.89805534" lon="-1.78998603">
        <ele>540.959</ele>
        <time>2019-11-21T13:38:28Z</time>
      </trkpt>
      <trkpt lat="42.89824127" lon="-1.79029883">
        <ele>541.34644</ele>
        <time>2019-11-21T13:38:29Z</time>
      </trkpt>
      <trkpt lat="42.89842144" lon="-1.79062645">
        <ele>540.7638</ele>
        <time>2019-11-21T13:38:30Z</time>
      </trkpt>
      <trkpt lat="42.89856055" lon="-1.79094704">
        <ele>536.4121</ele>
        <time>2019-11-21T13:38:31Z</time>
      </trkpt>
      <trkpt lat="42.89870066" lon="-1.7912991">
        <ele>534.1417</ele>
        <time>2019-11-21T13:38:32Z</time>
      </trkpt>
      <trkpt lat="42.8988413" lon="-1.79167207">
        <ele>533.595</ele>
        <time>2019-11-21T13:38:33Z</time>
      </trkpt>
      <trkpt lat="42.89896714" lon="-1.79204573">
        <ele>533.32837</ele>
        <time>2019-11-21T13:38:34Z</time>
      </trkpt>
      <trkpt lat="42.89908129" lon="-1.79242459">
        <ele>532.93506</ele>
        <time>2019-11-21T13:38:35Z</time>
      </trkpt>
      <trkpt lat="42.89918401" lon="-1.79280899">
        <ele>532.5303</ele>
        <time>2019-11-21T13:38:36Z</time>
      </trkpt>
      <trkpt lat="42.89928254" lon="-1.79321983">
        <ele>532.5414</ele>
        <time>2019-11-21T13:38:37Z</time>
      </trkpt>
      <trkpt lat="42.89937708" lon="-1.79362268">
        <ele>532.9707</ele>
        <time>2019-11-21T13:38:38Z</time>
      </trkpt>
      <trkpt lat="42.89945511" lon="-1.79401798">
        <ele>530.407</ele>
        <time>2019-11-21T13:38:39Z</time>
      </trkpt>
      <trkpt lat="42.89951825" lon="-1.79441561">
        <ele>528.5559</ele>
        <time>2019-11-21T13:38:40Z</time>
      </trkpt>
      <trkpt lat="42.89954923" lon="-1.79482333">
        <ele>524.7373</ele>
        <time>2019-11-21T13:38:41Z</time>
      </trkpt>
      <trkpt lat="42.89957514" lon="-1.79523984">
        <ele>523.5056</ele>
        <time>2019-11-21T13:38:42Z</time>
      </trkpt>
      <trkpt lat="42.89959193" lon="-1.79563824">
        <ele>521.1804</ele>
        <time>2019-11-21T13:38:43Z</time>
      </trkpt>
      <trkpt lat="42.89960112" lon="-1.79603339">
        <ele>518.6734</ele>
        <time>2019-11-21T13:38:44Z</time>
      </trkpt>
      <trkpt lat="42.89959702" lon="-1.7964545">
        <ele>519.8799</ele>
        <time>2019-11-21T13:38:45Z</time>
      </trkpt>
      <trkpt lat="42.89956957" lon="-1.79685464">
        <ele>516.7952</ele>
        <time>2019-11-21T13:38:46Z</time>
      </trkpt>
      <trkpt lat="42.89953432" lon="-1.79726401">
        <ele>515.8456</ele>
        <time>2019-11-21T13:38:47Z</time>
      </trkpt>
      <trkpt lat="42.89948811" lon="-1.79766824">
        <ele>515.8434</ele>
        <time>2019-11-21T13:38:48Z</time>
      </trkpt>
      <trkpt lat="42.89943624" lon="-1.79806634">
        <ele>514.1493</ele>
        <time>2019-11-21T13:38:49Z</time>
      </trkpt>
      <trkpt lat="42.89936483" lon="-1.79846197">
        <ele>514.63885</ele>
        <time>2019-11-21T13:38:50Z</time>
      </trkpt>
      <trkpt lat="42.89927543" lon="-1.79884886">
        <ele>513.18353</ele>
        <time>2019-11-21T13:38:52Z</time>
      </trkpt>
      <trkpt lat="42.89917283" lon="-1.79923197">
        <ele>512.715</ele>
        <time>2019-11-21T13:38:53Z</time>
      </trkpt>
      <trkpt lat="42.89896254" lon="-1.79999736">
        <ele>513.27606</ele>
        <time>2019-11-21T13:38:54Z</time>
      </trkpt>
      <trkpt lat="42.89886241" lon="-1.8003895">
        <ele>513.05023</ele>
        <time>2019-11-21T13:38:55Z</time>
      </trkpt>
      <trkpt lat="42.89876942" lon="-1.80078158">
        <ele>512.54596</ele>
        <time>2019-11-21T13:38:56Z</time>
      </trkpt>
      <trkpt lat="42.89868662" lon="-1.80116243">
        <ele>512.37476</ele>
        <time>2019-11-21T13:38:57Z</time>
      </trkpt>
      <trkpt lat="42.89861963" lon="-1.80153332">
        <ele>510.75183</ele>
        <time>2019-11-21T13:38:58Z</time>
      </trkpt>
      <trkpt lat="42.89855859" lon="-1.80192529">
        <ele>509.92377</ele>
        <time>2019-11-21T13:38:59Z</time>
      </trkpt>
      <trkpt lat="42.89851667" lon="-1.80230007">
        <ele>509.4225</ele>
        <time>2019-11-21T13:39:00Z</time>
      </trkpt>
      <trkpt lat="42.89848601" lon="-1.80270442">
        <ele>509.2489</ele>
        <time>2019-11-21T13:39:01Z</time>
      </trkpt>
      <trkpt lat="42.89847321" lon="-1.8030935">
        <ele>508.60828</ele>
        <time>2019-11-21T13:39:02Z</time>
      </trkpt>
      <trkpt lat="42.8984592" lon="-1.80351302">
        <ele>508.60986</ele>
        <time>2019-11-21T13:39:03Z</time>
      </trkpt>
      <trkpt lat="42.89846302" lon="-1.80393257">
        <ele>507.45734</ele>
        <time>2019-11-21T13:39:04Z</time>
      </trkpt>
      <trkpt lat="42.89847023" lon="-1.80433197">
        <ele>506.52954</ele>
        <time>2019-11-21T13:39:05Z</time>
      </trkpt>
      <trkpt lat="42.89849829" lon="-1.80473888">
        <ele>506.73694</ele>
        <time>2019-11-21T13:39:06Z</time>
      </trkpt>
      <trkpt lat="42.89853256" lon="-1.8051551">
        <ele>507.65198</ele>
        <time>2019-11-21T13:39:07Z</time>
      </trkpt>
      <trkpt lat="42.89858239" lon="-1.80556304">
        <ele>507.32782</ele>
        <time>2019-11-21T13:39:08Z</time>
      </trkpt>
      <trkpt lat="42.89863838" lon="-1.80596619">
        <ele>507.5598</ele>
        <time>2019-11-21T13:39:09Z</time>
      </trkpt>
      <trkpt lat="42.89870396" lon="-1.8063697">
        <ele>507.6947</ele>
        <time>2019-11-21T13:39:10Z</time>
      </trkpt>
      <trkpt lat="42.8987796" lon="-1.80677029">
        <ele>509.31012</ele>
        <time>2019-11-21T13:39:11Z</time>
      </trkpt>
      <trkpt lat="42.89886664" lon="-1.80716149">
        <ele>510.44788</ele>
        <time>2019-11-21T13:39:12Z</time>
      </trkpt>
      <trkpt lat="42.89896754" lon="-1.80754743">
        <ele>510.479</ele>
        <time>2019-11-21T13:39:13Z</time>
      </trkpt>
      <trkpt lat="42.89907788" lon="-1.80793519">
        <ele>512.6042</ele>
        <time>2019-11-21T13:39:14Z</time>
      </trkpt>
      <trkpt lat="42.89919082" lon="-1.80833114">
        <ele>516.14417</ele>
        <time>2019-11-21T13:39:15Z</time>
      </trkpt>
      <trkpt lat="42.89932021" lon="-1.80869709">
        <ele>517.86615</ele>
        <time>2019-11-21T13:39:16Z</time>
      </trkpt>
      <trkpt lat="42.89947374" lon="-1.80904836">
        <ele>517.14575</ele>
        <time>2019-11-21T13:39:17Z</time>
      </trkpt>
      <trkpt lat="42.89962241" lon="-1.80940503">
        <ele>518.47864</ele>
        <time>2019-11-21T13:39:18Z</time>
      </trkpt>
      <trkpt lat="42.8997805" lon="-1.80972462">
        <ele>518.7134</ele>
        <time>2019-11-21T13:39:19Z</time>
      </trkpt>
      <trkpt lat="42.89998103" lon="-1.81007601">
        <ele>519.065</ele>
        <time>2019-11-21T13:39:20Z</time>
      </trkpt>
      <trkpt lat="42.90017473" lon="-1.81041905">
        <ele>520.02814</ele>
        <time>2019-11-21T13:39:22Z</time>
      </trkpt>
      <trkpt lat="42.90037878" lon="-1.8107469">
        <ele>521.3822</ele>
        <time>2019-11-21T13:39:23Z</time>
      </trkpt>
      <trkpt lat="42.90075793" lon="-1.81140997">
        <ele>523.1759</ele>
        <time>2019-11-21T13:39:24Z</time>
      </trkpt>
      <trkpt lat="42.90093724" lon="-1.81174708">
        <ele>523.92004</ele>
        <time>2019-11-21T13:39:25Z</time>
      </trkpt>
      <trkpt lat="42.90110025" lon="-1.81207745">
        <ele>524.87256</ele>
        <time>2019-11-21T13:39:26Z</time>
      </trkpt>
      <trkpt lat="42.90126801" lon="-1.81241331">
        <ele>525.8755</ele>
        <time>2019-11-21T13:39:27Z</time>
      </trkpt>
      <trkpt lat="42.90142816" lon="-1.81274985">
        <ele>526.5923</ele>
        <time>2019-11-21T13:39:28Z</time>
      </trkpt>
      <trkpt lat="42.90159704" lon="-1.81310736">
        <ele>528.1328</ele>
        <time>2019-11-21T13:39:29Z</time>
      </trkpt>
      <trkpt lat="42.90174325" lon="-1.81345923">
        <ele>528.0127</ele>
        <time>2019-11-21T13:39:30Z</time>
      </trkpt>
      <trkpt lat="42.90190441" lon="-1.81381601">
        <ele>529.119</ele>
        <time>2019-11-21T13:39:31Z</time>
      </trkpt>
      <trkpt lat="42.90205528" lon="-1.81417754">
        <ele>529.43713</ele>
        <time>2019-11-21T13:39:32Z</time>
      </trkpt>
      <trkpt lat="42.9022085" lon="-1.8145449">
        <ele>529.9807</ele>
        <time>2019-11-21T13:39:33Z</time>
      </trkpt>
      <trkpt lat="42.90235538" lon="-1.81491214">
        <ele>531.8911</ele>
        <time>2019-11-21T13:39:34Z</time>
      </trkpt>
      <trkpt lat="42.90249191" lon="-1.81528921">
        <ele>532.4077</ele>
        <time>2019-11-21T13:39:35Z</time>
      </trkpt>
      <trkpt lat="42.90260631" lon="-1.81564881">
        <ele>529.8303</ele>
        <time>2019-11-21T13:39:36Z</time>
      </trkpt>
      <trkpt lat="42.90274392" lon="-1.81605352">
        <ele>530.65454</ele>
        <time>2019-11-21T13:39:37Z</time>
      </trkpt>
      <trkpt lat="42.90287587" lon="-1.81647244">
        <ele>531.13025</ele>
        <time>2019-11-21T13:39:38Z</time>
      </trkpt>
      <trkpt lat="42.90300447" lon="-1.81690049">
        <ele>532.01685</ele>
        <time>2019-11-21T13:39:39Z</time>
      </trkpt>
      <trkpt lat="42.90312969" lon="-1.81733231">
        <ele>532.6196</ele>
        <time>2019-11-21T13:39:40Z</time>
      </trkpt>
      <trkpt lat="42.90323466" lon="-1.81774617">
        <ele>531.44556</ele>
        <time>2019-11-21T13:39:41Z</time>
      </trkpt>
      <trkpt lat="42.90334479" lon="-1.81818015">
        <ele>531.4077</ele>
        <time>2019-11-21T13:39:42Z</time>
      </trkpt>
      <trkpt lat="42.9034492" lon="-1.81860866">
        <ele>530.3804</ele>
        <time>2019-11-21T13:39:43Z</time>
      </trkpt>
      <trkpt lat="42.90355043" lon="-1.81903279">
        <ele>530.01904</ele>
        <time>2019-11-21T13:39:44Z</time>
      </trkpt>
      <trkpt lat="42.90364756" lon="-1.81946871">
        <ele>529.5139</ele>
        <time>2019-11-21T13:39:45Z</time>
      </trkpt>
      <trkpt lat="42.90373918" lon="-1.81990426">
        <ele>529.0442</ele>
        <time>2019-11-21T13:39:46Z</time>
      </trkpt>
      <trkpt lat="42.90382842" lon="-1.82033608">
        <ele>528.494</ele>
        <time>2019-11-21T13:39:47Z</time>
      </trkpt>
      <trkpt lat="42.90391607" lon="-1.82076786">
        <ele>528.0112</ele>
        <time>2019-11-21T13:39:48Z</time>
      </trkpt>
      <trkpt lat="42.90400622" lon="-1.82119655">
        <ele>526.7506</ele>
        <time>2019-11-21T13:39:49Z</time>
      </trkpt>
      <trkpt lat="42.90410031" lon="-1.82161797">
        <ele>525.38135</ele>
        <time>2019-11-21T13:39:50Z</time>
      </trkpt>
      <trkpt lat="42.90420297" lon="-1.82204388">
        <ele>523.6869</ele>
        <time>2019-11-21T13:39:52Z</time>
      </trkpt>
      <trkpt lat="42.90442958" lon="-1.82286372">
        <ele>520.6911</ele>
        <time>2019-11-21T13:39:53Z</time>
      </trkpt>
      <trkpt lat="42.90455993" lon="-1.823263">
        <ele>520.25696</ele>
        <time>2019-11-21T13:39:54Z</time>
      </trkpt>
      <trkpt lat="42.90470127" lon="-1.82365312">
        <ele>519.69086</ele>
        <time>2019-11-21T13:39:55Z</time>
      </trkpt>
      <trkpt lat="42.9048509" lon="-1.82402676">
        <ele>518.6939</ele>
        <time>2019-11-21T13:39:56Z</time>
      </trkpt>
      <trkpt lat="42.9050048" lon="-1.82439257">
        <ele>517.8722</ele>
        <time>2019-11-21T13:39:57Z</time>
      </trkpt>
      <trkpt lat="42.90516951" lon="-1.82474271">
        <ele>516.8771</ele>
        <time>2019-11-21T13:39:58Z</time>
      </trkpt>
      <trkpt lat="42.90535278" lon="-1.82508731">
        <ele>517.1048</ele>
        <time>2019-11-21T13:39:59Z</time>
      </trkpt>
      <trkpt lat="42.90553982" lon="-1.82542259">
        <ele>518.4947</ele>
        <time>2019-11-21T13:40:00Z</time>
      </trkpt>
      <trkpt lat="42.90574455" lon="-1.82575214">
        <ele>516.6999</ele>
        <time>2019-11-21T13:40:01Z</time>
      </trkpt>
      <trkpt lat="42.90595581" lon="-1.82606937">
        <ele>515.36865</ele>
        <time>2019-11-21T13:40:02Z</time>
      </trkpt>
      <trkpt lat="42.90618738" lon="-1.82637522">
        <ele>514.412</ele>
        <time>2019-11-21T13:40:03Z</time>
      </trkpt>
      <trkpt lat="42.90642446" lon="-1.82667654">
        <ele>513.7106</ele>
        <time>2019-11-21T13:40:04Z</time>
      </trkpt>
      <trkpt lat="42.90667087" lon="-1.82696471">
        <ele>511.97864</ele>
        <time>2019-11-21T13:40:05Z</time>
      </trkpt>
      <trkpt lat="42.9069189" lon="-1.82723436">
        <ele>511.08545</ele>
        <time>2019-11-21T13:40:06Z</time>
      </trkpt>
      <trkpt lat="42.90716875" lon="-1.82749134">
        <ele>510.35474</ele>
        <time>2019-11-21T13:40:07Z</time>
      </trkpt>
      <trkpt lat="42.90743106" lon="-1.82772792">
        <ele>509.45374</ele>
        <time>2019-11-21T13:40:08Z</time>
      </trkpt>
      <trkpt lat="42.90769257" lon="-1.82795545">
        <ele>508.34058</ele>
        <time>2019-11-21T13:40:09Z</time>
      </trkpt>
      <trkpt lat="42.90795019" lon="-1.82818385">
        <ele>508.15826</ele>
        <time>2019-11-21T13:40:10Z</time>
      </trkpt>
      <trkpt lat="42.90821551" lon="-1.82841659">
        <ele>507.98108</ele>
        <time>2019-11-21T13:40:11Z</time>
      </trkpt>
      <trkpt lat="42.90847281" lon="-1.82864728">
        <ele>506.5985</ele>
        <time>2019-11-21T13:40:12Z</time>
      </trkpt>
      <trkpt lat="42.90871043" lon="-1.82888514">
        <ele>504.60535</ele>
        <time>2019-11-21T13:40:13Z</time>
      </trkpt>
      <trkpt lat="42.90894836" lon="-1.82914613">
        <ele>504.18066</ele>
        <time>2019-11-21T13:40:14Z</time>
      </trkpt>
      <trkpt lat="42.90916976" lon="-1.82941473">
        <ele>502.80652</ele>
        <time>2019-11-21T13:40:15Z</time>
      </trkpt>
      <trkpt lat="42.90938987" lon="-1.82969754">
        <ele>502.85828</ele>
        <time>2019-11-21T13:40:16Z</time>
      </trkpt>
      <trkpt lat="42.90960168" lon="-1.82999306">
        <ele>501.818</ele>
        <time>2019-11-21T13:40:17Z</time>
      </trkpt>
      <trkpt lat="42.90981381" lon="-1.8303066">
        <ele>500.71527</ele>
        <time>2019-11-21T13:40:18Z</time>
      </trkpt>
      <trkpt lat="42.91001354" lon="-1.83062333">
        <ele>500.32153</ele>
        <time>2019-11-21T13:40:19Z</time>
      </trkpt>
      <trkpt lat="42.91020213" lon="-1.8309537">
        <ele>500.00116</ele>
        <time>2019-11-21T13:40:20Z</time>
      </trkpt>
      <trkpt lat="42.91037271" lon="-1.83128203">
        <ele>505.47272</ele>
        <time>2019-11-21T13:40:21Z</time>
      </trkpt>
      <trkpt lat="42.9105411" lon="-1.83162278">
        <ele>503.36578</ele>
        <time>2019-11-21T13:40:23Z</time>
      </trkpt>
      <trkpt lat="42.91070595" lon="-1.83198843">
        <ele>502.70178</ele>
        <time>2019-11-21T13:40:24Z</time>
      </trkpt>
      <trkpt lat="42.91100017" lon="-1.8326704">
        <ele>500.04724</ele>
        <time>2019-11-21T13:40:25Z</time>
      </trkpt>
      <trkpt lat="42.91112905" lon="-1.83300666">
        <ele>496.9342</ele>
        <time>2019-11-21T13:40:26Z</time>
      </trkpt>
      <trkpt lat="42.91127276" lon="-1.83334016">
        <ele>495.07727</ele>
        <time>2019-11-21T13:40:27Z</time>
      </trkpt>
      <trkpt lat="42.91140591" lon="-1.83365735">
        <ele>493.43732</ele>
        <time>2019-11-21T13:40:28Z</time>
      </trkpt>
      <trkpt lat="42.91154143" lon="-1.83396952">
        <ele>491.25336</ele>
        <time>2019-11-21T13:40:29Z</time>
      </trkpt>
      <trkpt lat="42.91169085" lon="-1.83426477">
        <ele>490.5575</ele>
        <time>2019-11-21T13:40:30Z</time>
      </trkpt>
      <trkpt lat="42.91183953" lon="-1.83455285">
        <ele>490.22095</ele>
        <time>2019-11-21T13:40:31Z</time>
      </trkpt>
      <trkpt lat="42.91199848" lon="-1.83482808">
        <ele>489.81543</ele>
        <time>2019-11-21T13:40:32Z</time>
      </trkpt>
      <trkpt lat="42.91215438" lon="-1.83509185">
        <ele>489.10474</ele>
        <time>2019-11-21T13:40:33Z</time>
      </trkpt>
      <trkpt lat="42.91232318" lon="-1.83534306">
        <ele>489.09277</ele>
        <time>2019-11-21T13:40:34Z</time>
      </trkpt>
      <trkpt lat="42.9124921" lon="-1.83558383">
        <ele>488.1834</ele>
        <time>2019-11-21T13:40:35Z</time>
      </trkpt>
      <trkpt lat="42.91266298" lon="-1.83580155">
        <ele>487.56183</ele>
        <time>2019-11-21T13:40:36Z</time>
      </trkpt>
      <trkpt lat="42.91284765" lon="-1.83600003">
        <ele>486.89</ele>
        <time>2019-11-21T13:40:37Z</time>
      </trkpt>
      <trkpt lat="42.91304624" lon="-1.83617436">
        <ele>487.10352</ele>
        <time>2019-11-21T13:40:38Z</time>
      </trkpt>
      <trkpt lat="42.91326415" lon="-1.83632231">
        <ele>487.50507</ele>
        <time>2019-11-21T13:40:39Z</time>
      </trkpt>
      <trkpt lat="42.91347829" lon="-1.83644686">
        <ele>487.65845</ele>
        <time>2019-11-21T13:40:40Z</time>
      </trkpt>
      <trkpt lat="42.91370303" lon="-1.83654519">
        <ele>487.23395</ele>
        <time>2019-11-21T13:40:41Z</time>
      </trkpt>
      <trkpt lat="42.91394308" lon="-1.83661312">
        <ele>487.56873</ele>
        <time>2019-11-21T13:40:42Z</time>
      </trkpt>
      <trkpt lat="42.9141881" lon="-1.83666053">
        <ele>488.3374</ele>
        <time>2019-11-21T13:40:43Z</time>
      </trkpt>
      <trkpt lat="42.91444123" lon="-1.83670038">
        <ele>488.94873</ele>
        <time>2019-11-21T13:40:44Z</time>
      </trkpt>
      <trkpt lat="42.9147041" lon="-1.83671251">
        <ele>489.40814</ele>
        <time>2019-11-21T13:40:45Z</time>
      </trkpt>
      <trkpt lat="42.91495599" lon="-1.83674355">
        <ele>489.9881</ele>
        <time>2019-11-21T13:40:46Z</time>
      </trkpt>
      <trkpt lat="42.91520707" lon="-1.83679278">
        <ele>489.13135</ele>
        <time>2019-11-21T13:40:47Z</time>
      </trkpt>
      <trkpt lat="42.91544364" lon="-1.83685808">
        <ele>488.8817</ele>
        <time>2019-11-21T13:40:48Z</time>
      </trkpt>
      <trkpt lat="42.91567026" lon="-1.83694512">
        <ele>488.94775</ele>
        <time>2019-11-21T13:40:49Z</time>
      </trkpt>
      <trkpt lat="42.91589875" lon="-1.8370603">
        <ele>488.23218</ele>
        <time>2019-11-21T13:40:50Z</time>
      </trkpt>
      <trkpt lat="42.91611052" lon="-1.83720817">
        <ele>488.48578</ele>
        <time>2019-11-21T13:40:51Z</time>
      </trkpt>
      <trkpt lat="42.91631394" lon="-1.83739955">
        <ele>489.40887</ele>
        <time>2019-11-21T13:40:52Z</time>
      </trkpt>
      <trkpt lat="42.91650593" lon="-1.83759459">
        <ele>489.95618</ele>
        <time>2019-11-21T13:40:53Z</time>
      </trkpt>
      <trkpt lat="42.91668245" lon="-1.83782476">
        <ele>490.4104</ele>
        <time>2019-11-21T13:40:55Z</time>
      </trkpt>
      <trkpt lat="42.91697599" lon="-1.8383627">
        <ele>490.77185</ele>
        <time>2019-11-21T13:40:56Z</time>
      </trkpt>
      <trkpt lat="42.91708103" lon="-1.83866244">
        <ele>491.21417</ele>
        <time>2019-11-21T13:40:57Z</time>
      </trkpt>
      <trkpt lat="42.91717014" lon="-1.83900034">
        <ele>491.2511</ele>
        <time>2019-11-21T13:40:58Z</time>
      </trkpt>
      <trkpt lat="42.91723582" lon="-1.83931261">
        <ele>492.27924</ele>
        <time>2019-11-21T13:40:59Z</time>
      </trkpt>
      <trkpt lat="42.91725253" lon="-1.83964806">
        <ele>492.95667</ele>
        <time>2019-11-21T13:41:00Z</time>
      </trkpt>
      <trkpt lat="42.91726609" lon="-1.83999072">
        <ele>493.9414</ele>
        <time>2019-11-21T13:41:01Z</time>
      </trkpt>
      <trkpt lat="42.91725406" lon="-1.84032322">
        <ele>493.9298</ele>
        <time>2019-11-21T13:41:02Z</time>
      </trkpt>
      <trkpt lat="42.91724001" lon="-1.84066233">
        <ele>494.8982</ele>
        <time>2019-11-21T13:41:03Z</time>
      </trkpt>
      <trkpt lat="42.91722888" lon="-1.84100409">
        <ele>496.02124</ele>
        <time>2019-11-21T13:41:04Z</time>
      </trkpt>
      <trkpt lat="42.91721241" lon="-1.84135335">
        <ele>496.5863</ele>
        <time>2019-11-21T13:41:05Z</time>
      </trkpt>
      <trkpt lat="42.91719015" lon="-1.84170519">
        <ele>496.6089</ele>
        <time>2019-11-21T13:41:06Z</time>
      </trkpt>
      <trkpt lat="42.91717115" lon="-1.84205944">
        <ele>496.82764</ele>
        <time>2019-11-21T13:41:07Z</time>
      </trkpt>
      <trkpt lat="42.91715284" lon="-1.84240981">
        <ele>496.94617</ele>
        <time>2019-11-21T13:41:08Z</time>
      </trkpt>
      <trkpt lat="42.91713167" lon="-1.84276296">
        <ele>496.96497</ele>
        <time>2019-11-21T13:41:09Z</time>
      </trkpt>
      <trkpt lat="42.91710496" lon="-1.84311915">
        <ele>497.1895</ele>
        <time>2019-11-21T13:41:10Z</time>
      </trkpt>
      <trkpt lat="42.91707179" lon="-1.8434824">
        <ele>496.69263</ele>
        <time>2019-11-21T13:41:11Z</time>
      </trkpt>
      <trkpt lat="42.91703854" lon="-1.84384462">
        <ele>496.49017</ele>
        <time>2019-11-21T13:41:12Z</time>
      </trkpt>
      <trkpt lat="42.91700233" lon="-1.84421711">
        <ele>495.9447</ele>
        <time>2019-11-21T13:41:13Z</time>
      </trkpt>
      <trkpt lat="42.9169576" lon="-1.84459309">
        <ele>495.58203</ele>
        <time>2019-11-21T13:41:14Z</time>
      </trkpt>
      <trkpt lat="42.91690522" lon="-1.84497677">
        <ele>494.71802</ele>
        <time>2019-11-21T13:41:15Z</time>
      </trkpt>
      <trkpt lat="42.91684096" lon="-1.84537146">
        <ele>494.43884</ele>
        <time>2019-11-21T13:41:16Z</time>
      </trkpt>
      <trkpt lat="42.91677152" lon="-1.84576168">
        <ele>493.9513</ele>
        <time>2019-11-21T13:41:17Z</time>
      </trkpt>
      <trkpt lat="42.91668475" lon="-1.84616303">
        <ele>493.34668</ele>
        <time>2019-11-21T13:41:18Z</time>
      </trkpt>
      <trkpt lat="42.91658519" lon="-1.84655197">
        <ele>492.3302</ele>
        <time>2019-11-21T13:41:19Z</time>
      </trkpt>
      <trkpt lat="42.91647404" lon="-1.84694054">
        <ele>491.51</ele>
        <time>2019-11-21T13:41:20Z</time>
      </trkpt>
      <trkpt lat="42.91636021" lon="-1.84732279">
        <ele>490.36957</ele>
        <time>2019-11-21T13:41:21Z</time>
      </trkpt>
      <trkpt lat="42.9162319" lon="-1.84769002">
        <ele>489.5633</ele>
        <time>2019-11-21T13:41:22Z</time>
      </trkpt>
      <trkpt lat="42.91609384" lon="-1.84805033">
        <ele>489.50012</ele>
        <time>2019-11-21T13:41:24Z</time>
      </trkpt>
      <trkpt lat="42.91595352" lon="-1.8484001">
        <ele>488.87738</ele>
        <time>2019-11-21T13:41:25Z</time>
      </trkpt>
      <trkpt lat="42.91563069" lon="-1.84908536">
        <ele>489.17938</ele>
        <time>2019-11-21T13:41:26Z</time>
      </trkpt>
      <trkpt lat="42.91545573" lon="-1.8494111">
        <ele>490.12988</ele>
        <time>2019-11-21T13:41:27Z</time>
      </trkpt>
      <trkpt lat="42.91526946" lon="-1.84972597">
        <ele>490.62152</ele>
        <time>2019-11-21T13:41:28Z</time>
      </trkpt>
      <trkpt lat="42.91507117" lon="-1.85004665">
        <ele>491.70203</ele>
        <time>2019-11-21T13:41:29Z</time>
      </trkpt>
      <trkpt lat="42.91487861" lon="-1.85033917">
        <ele>492.43896</ele>
        <time>2019-11-21T13:41:30Z</time>
      </trkpt>
      <trkpt lat="42.91466683" lon="-1.85063324">
        <ele>493.1715</ele>
        <time>2019-11-21T13:41:31Z</time>
      </trkpt>
      <trkpt lat="42.91444986" lon="-1.85092363">
        <ele>495.17725</ele>
        <time>2019-11-21T13:41:32Z</time>
      </trkpt>
      <trkpt lat="42.91422679" lon="-1.85120513">
        <ele>495.78687</ele>
        <time>2019-11-21T13:41:33Z</time>
      </trkpt>
      <trkpt lat="42.9140096" lon="-1.85147676">
        <ele>495.45288</ele>
        <time>2019-11-21T13:41:34Z</time>
      </trkpt>
      <trkpt lat="42.91378895" lon="-1.85174259">
        <ele>494.6046</ele>
        <time>2019-11-21T13:41:35Z</time>
      </trkpt>
      <trkpt lat="42.91356737" lon="-1.85203388">
        <ele>494.36646</ele>
        <time>2019-11-21T13:41:36Z</time>
      </trkpt>
      <trkpt lat="42.91336567" lon="-1.85233577">
        <ele>494.76172</ele>
        <time>2019-11-21T13:41:37Z</time>
      </trkpt>
      <trkpt lat="42.91316907" lon="-1.85264302">
        <ele>494.78503</ele>
        <time>2019-11-21T13:41:38Z</time>
      </trkpt>
      <trkpt lat="42.91298744" lon="-1.85296669">
        <ele>495.27527</ele>
        <time>2019-11-21T13:41:39Z</time>
      </trkpt>
      <trkpt lat="42.91281333" lon="-1.85330665">
        <ele>495.8507</ele>
        <time>2019-11-21T13:41:40Z</time>
      </trkpt>
      <trkpt lat="42.91264975" lon="-1.8536387">
        <ele>495.90112</ele>
        <time>2019-11-21T13:41:41Z</time>
      </trkpt>
      <trkpt lat="42.91250393" lon="-1.85397723">
        <ele>495.76892</ele>
        <time>2019-11-21T13:41:42Z</time>
      </trkpt>
      <trkpt lat="42.91237106" lon="-1.85431687">
        <ele>495.60876</ele>
        <time>2019-11-21T13:41:43Z</time>
      </trkpt>
      <trkpt lat="42.91225312" lon="-1.8546616">
        <ele>496.0337</ele>
        <time>2019-11-21T13:41:44Z</time>
      </trkpt>
      <trkpt lat="42.91214135" lon="-1.85501302">
        <ele>496.88458</ele>
        <time>2019-11-21T13:41:45Z</time>
      </trkpt>
      <trkpt lat="42.91203981" lon="-1.85538164">
        <ele>498.20142</ele>
        <time>2019-11-21T13:41:46Z</time>
      </trkpt>
      <trkpt lat="42.911951" lon="-1.85575256">
        <ele>499.3974</ele>
        <time>2019-11-21T13:41:47Z</time>
      </trkpt>
      <trkpt lat="42.91186815" lon="-1.85612702">
        <ele>499.24744</ele>
        <time>2019-11-21T13:41:48Z</time>
      </trkpt>
      <trkpt lat="42.91180748" lon="-1.85651856">
        <ele>499.93768</ele>
        <time>2019-11-21T13:41:49Z</time>
      </trkpt>
      <trkpt lat="42.91174688" lon="-1.85692483">
        <ele>500.9875</ele>
        <time>2019-11-21T13:41:50Z</time>
      </trkpt>
      <trkpt lat="42.91169222" lon="-1.85734429">
        <ele>501.11108</ele>
        <time>2019-11-21T13:41:51Z</time>
      </trkpt>
      <trkpt lat="42.91166048" lon="-1.85773678">
        <ele>502.71936</ele>
        <time>2019-11-21T13:41:52Z</time>
      </trkpt>
      <trkpt lat="42.91163089" lon="-1.85816026">
        <ele>503.5943</ele>
        <time>2019-11-21T13:41:53Z</time>
      </trkpt>
      <trkpt lat="42.91160781" lon="-1.85857125">
        <ele>504.77777</ele>
        <time>2019-11-21T13:41:54Z</time>
      </trkpt>
      <trkpt lat="42.91159585" lon="-1.85896869">
        <ele>505.55298</ele>
        <time>2019-11-21T13:41:56Z</time>
      </trkpt>
      <trkpt lat="42.91159856" lon="-1.85937385">
        <ele>505.1162</ele>
        <time>2019-11-21T13:41:57Z</time>
      </trkpt>
      <trkpt lat="42.91161071" lon="-1.86021509">
        <ele>506.82404</ele>
        <time>2019-11-21T13:41:58Z</time>
      </trkpt>
      <trkpt lat="42.91162708" lon="-1.86063484">
        <ele>507.3239</ele>
        <time>2019-11-21T13:41:59Z</time>
      </trkpt>
      <trkpt lat="42.91165487" lon="-1.86105271">
        <ele>508.7777</ele>
        <time>2019-11-21T13:42:00Z</time>
      </trkpt>
      <trkpt lat="42.91168557" lon="-1.86147123">
        <ele>510.1311</ele>
        <time>2019-11-21T13:42:01Z</time>
      </trkpt>
      <trkpt lat="42.91171969" lon="-1.86188114">
        <ele>510.56018</ele>
        <time>2019-11-21T13:42:02Z</time>
      </trkpt>
      <trkpt lat="42.91175772" lon="-1.86230139">
        <ele>511.19635</ele>
        <time>2019-11-21T13:42:03Z</time>
      </trkpt>
      <trkpt lat="42.91179796" lon="-1.862723">
        <ele>512.077</ele>
        <time>2019-11-21T13:42:04Z</time>
      </trkpt>
      <trkpt lat="42.91184022" lon="-1.86313567">
        <ele>511.70715</ele>
        <time>2019-11-21T13:42:05Z</time>
      </trkpt>
      <trkpt lat="42.91187986" lon="-1.86355237">
        <ele>511.64148</ele>
        <time>2019-11-21T13:42:06Z</time>
      </trkpt>
      <trkpt lat="42.91191992" lon="-1.86397373">
        <ele>510.93616</ele>
        <time>2019-11-21T13:42:07Z</time>
      </trkpt>
      <trkpt lat="42.91196696" lon="-1.86439394">
        <ele>511.4513</ele>
        <time>2019-11-21T13:42:08Z</time>
      </trkpt>
      <trkpt lat="42.91201453" lon="-1.86480474">
        <ele>511.40015</ele>
        <time>2019-11-21T13:42:09Z</time>
      </trkpt>
      <trkpt lat="42.91205296" lon="-1.86520633">
        <ele>509.96887</ele>
        <time>2019-11-21T13:42:10Z</time>
      </trkpt>
      <trkpt lat="42.9120939" lon="-1.86561608">
        <ele>509.9098</ele>
        <time>2019-11-21T13:42:11Z</time>
      </trkpt>
      <trkpt lat="42.91213631" lon="-1.86603039">
        <ele>509.69153</ele>
        <time>2019-11-21T13:42:12Z</time>
      </trkpt>
      <trkpt lat="42.91218014" lon="-1.86644515">
        <ele>509.29932</ele>
        <time>2019-11-21T13:42:13Z</time>
      </trkpt>
      <trkpt lat="42.91222197" lon="-1.86686397">
        <ele>507.73083</ele>
        <time>2019-11-21T13:42:14Z</time>
      </trkpt>
      <trkpt lat="42.91226652" lon="-1.86727037">
        <ele>506.5498</ele>
        <time>2019-11-21T13:42:15Z</time>
      </trkpt>
      <trkpt lat="42.9123115" lon="-1.86768542">
        <ele>507.08588</ele>
        <time>2019-11-21T13:42:16Z</time>
      </trkpt>
      <trkpt lat="42.91235089" lon="-1.86809693">
        <ele>507.01038</ele>
        <time>2019-11-21T13:42:17Z</time>
      </trkpt>
      <trkpt lat="42.91239385" lon="-1.86850616">
        <ele>507.32727</ele>
        <time>2019-11-21T13:42:18Z</time>
      </trkpt>
      <trkpt lat="42.91243943" lon="-1.86890853">
        <ele>506.84308</ele>
        <time>2019-11-21T13:42:19Z</time>
      </trkpt>
      <trkpt lat="42.91248638" lon="-1.86930821">
        <ele>506.97192</ele>
        <time>2019-11-21T13:42:20Z</time>
      </trkpt>
      <trkpt lat="42.91253283" lon="-1.86971525">
        <ele>507.9629</ele>
        <time>2019-11-21T13:42:21Z</time>
      </trkpt>
      <trkpt lat="42.91258054" lon="-1.87012633">
        <ele>509.17096</ele>
        <time>2019-11-21T13:42:22Z</time>
      </trkpt>
      <trkpt lat="42.91262329" lon="-1.87053418">
        <ele>508.78308</ele>
        <time>2019-11-21T13:42:23Z</time>
      </trkpt>
      <trkpt lat="42.91267181" lon="-1.87093849">
        <ele>509.1275</ele>
        <time>2019-11-21T13:42:24Z</time>
      </trkpt>
      <trkpt lat="42.91272161" lon="-1.87134305">
        <ele>509.72827</ele>
        <time>2019-11-21T13:42:26Z</time>
      </trkpt>
      <trkpt lat="42.91276937" lon="-1.87175338">
        <ele>509.81836</ele>
        <time>2019-11-21T13:42:27Z</time>
      </trkpt>
      <trkpt lat="42.91281456" lon="-1.8721649">
        <ele>509.21985</ele>
        <time>2019-11-21T13:42:28Z</time>
      </trkpt>
      <trkpt lat="42.91290658" lon="-1.87298345">
        <ele>509.3275</ele>
        <time>2019-11-21T13:42:29Z</time>
      </trkpt>
      <trkpt lat="42.91295334" lon="-1.87339769">
        <ele>509.2998</ele>
        <time>2019-11-21T13:42:30Z</time>
      </trkpt>
      <trkpt lat="42.91300097" lon="-1.87380403">
        <ele>508.4242</ele>
        <time>2019-11-21T13:42:31Z</time>
      </trkpt>
      <trkpt lat="42.91304949" lon="-1.8742163">
        <ele>507.68115</ele>
        <time>2019-11-21T13:42:32Z</time>
      </trkpt>
      <trkpt lat="42.91309241" lon="-1.87462228">
        <ele>506.29138</ele>
        <time>2019-11-21T13:42:33Z</time>
      </trkpt>
      <trkpt lat="42.91313461" lon="-1.87502743">
        <ele>505.39636</ele>
        <time>2019-11-21T13:42:34Z</time>
      </trkpt>
      <trkpt lat="42.91318212" lon="-1.8754365">
        <ele>504.99976</ele>
        <time>2019-11-21T13:42:35Z</time>
      </trkpt>
      <trkpt lat="42.91322484" lon="-1.87584206">
        <ele>504.19684</ele>
        <time>2019-11-21T13:42:36Z</time>
      </trkpt>
      <trkpt lat="42.91326962" lon="-1.87624734">
        <ele>503.4095</ele>
        <time>2019-11-21T13:42:37Z</time>
      </trkpt>
      <trkpt lat="42.91331485" lon="-1.87665767">
        <ele>502.2907</ele>
        <time>2019-11-21T13:42:38Z</time>
      </trkpt>
      <trkpt lat="42.91336006" lon="-1.87707594">
        <ele>501.35388</ele>
        <time>2019-11-21T13:42:39Z</time>
      </trkpt>
      <trkpt lat="42.91340199" lon="-1.87748264">
        <ele>500.12183</ele>
        <time>2019-11-21T13:42:40Z</time>
      </trkpt>
      <trkpt lat="42.91344723" lon="-1.87788325">
        <ele>499.49634</ele>
        <time>2019-11-21T13:42:41Z</time>
      </trkpt>
      <trkpt lat="42.9134904" lon="-1.87829128">
        <ele>498.6847</ele>
        <time>2019-11-21T13:42:42Z</time>
      </trkpt>
      <trkpt lat="42.91353368" lon="-1.87870282">
        <ele>498.20367</ele>
        <time>2019-11-21T13:42:43Z</time>
      </trkpt>
      <trkpt lat="42.91358091" lon="-1.87910273">
        <ele>497.59644</ele>
        <time>2019-11-21T13:42:44Z</time>
      </trkpt>
      <trkpt lat="42.91362343" lon="-1.87951059">
        <ele>497.5304</ele>
        <time>2019-11-21T13:42:45Z</time>
      </trkpt>
      <trkpt lat="42.9136664" lon="-1.8799214">
        <ele>496.9226</ele>
        <time>2019-11-21T13:42:46Z</time>
      </trkpt>
      <trkpt lat="42.91370794" lon="-1.88032888">
        <ele>496.5498</ele>
        <time>2019-11-21T13:42:47Z</time>
      </trkpt>
      <trkpt lat="42.91375451" lon="-1.88073407">
        <ele>495.2163</ele>
        <time>2019-11-21T13:42:48Z</time>
      </trkpt>
      <trkpt lat="42.91379566" lon="-1.88114028">
        <ele>494.52618</ele>
        <time>2019-11-21T13:42:49Z</time>
      </trkpt>
      <trkpt lat="42.9138386" lon="-1.88155027">
        <ele>494.0479</ele>
        <time>2019-11-21T13:42:50Z</time>
      </trkpt>
      <trkpt lat="42.91388003" lon="-1.88195585">
        <ele>493.55212</ele>
        <time>2019-11-21T13:42:51Z</time>
      </trkpt>
      <trkpt lat="42.91392738" lon="-1.88236504">
        <ele>493.0362</ele>
        <time>2019-11-21T13:42:52Z</time>
      </trkpt>
      <trkpt lat="42.91397724" lon="-1.88277327">
        <ele>494.0221</ele>
        <time>2019-11-21T13:42:54Z</time>
      </trkpt>
      <trkpt lat="42.91402096" lon="-1.88317828">
        <ele>494.68335</ele>
        <time>2019-11-21T13:42:55Z</time>
      </trkpt>
      <trkpt lat="42.91410894" lon="-1.88398034">
        <ele>495.2019</ele>
        <time>2019-11-21T13:42:56Z</time>
      </trkpt>
      <trkpt lat="42.91415257" lon="-1.88438618">
        <ele>495.9041</ele>
        <time>2019-11-21T13:42:57Z</time>
      </trkpt>
      <trkpt lat="42.91419118" lon="-1.88478094">
        <ele>496.06323</ele>
        <time>2019-11-21T13:42:58Z</time>
      </trkpt>
      <trkpt lat="42.9142296" lon="-1.88517858">
        <ele>496.0879</ele>
        <time>2019-11-21T13:42:59Z</time>
      </trkpt>
      <trkpt lat="42.91426333" lon="-1.88558282">
        <ele>495.57837</ele>
        <time>2019-11-21T13:43:00Z</time>
      </trkpt>
      <trkpt lat="42.91428108" lon="-1.88600287">
        <ele>494.39587</ele>
        <time>2019-11-21T13:43:01Z</time>
      </trkpt>
      <trkpt lat="42.91428998" lon="-1.88641195">
        <ele>494.59668</ele>
        <time>2019-11-21T13:43:02Z</time>
      </trkpt>
      <trkpt lat="42.91429054" lon="-1.88683047">
        <ele>494.1958</ele>
        <time>2019-11-21T13:43:03Z</time>
      </trkpt>
      <trkpt lat="42.9142791" lon="-1.88724762">
        <ele>494.28717</ele>
        <time>2019-11-21T13:43:04Z</time>
      </trkpt>
      <trkpt lat="42.91424731" lon="-1.8876493">
        <ele>493.54193</ele>
        <time>2019-11-21T13:43:05Z</time>
      </trkpt>
      <trkpt lat="42.91420294" lon="-1.88806396">
        <ele>493.16248</ele>
        <time>2019-11-21T13:43:06Z</time>
      </trkpt>
      <trkpt lat="42.91414874" lon="-1.88847365">
        <ele>493.15924</ele>
        <time>2019-11-21T13:43:07Z</time>
      </trkpt>
      <trkpt lat="42.91408735" lon="-1.88887815">
        <ele>492.57715</ele>
        <time>2019-11-21T13:43:08Z</time>
      </trkpt>
      <trkpt lat="42.91402021" lon="-1.88928382">
        <ele>492.6189</ele>
        <time>2019-11-21T13:43:09Z</time>
      </trkpt>
      <trkpt lat="42.9139531" lon="-1.88968503">
        <ele>491.89685</ele>
        <time>2019-11-21T13:43:10Z</time>
      </trkpt>
      <trkpt lat="42.91388625" lon="-1.89008223">
        <ele>491.21533</ele>
        <time>2019-11-21T13:43:11Z</time>
      </trkpt>
      <trkpt lat="42.91382501" lon="-1.89048592">
        <ele>490.73566</ele>
        <time>2019-11-21T13:43:12Z</time>
      </trkpt>
      <trkpt lat="42.91377024" lon="-1.89089213">
        <ele>491.31488</ele>
        <time>2019-11-21T13:43:13Z</time>
      </trkpt>
      <trkpt lat="42.91373053" lon="-1.89128355">
        <ele>490.1037</ele>
        <time>2019-11-21T13:43:14Z</time>
      </trkpt>
      <trkpt lat="42.91370862" lon="-1.89169507">
        <ele>489.8761</ele>
        <time>2019-11-21T13:43:15Z</time>
      </trkpt>
      <trkpt lat="42.91370529" lon="-1.89208883">
        <ele>489.7379</ele>
        <time>2019-11-21T13:43:16Z</time>
      </trkpt>
      <trkpt lat="42.91370751" lon="-1.89250588">
        <ele>490.0962</ele>
        <time>2019-11-21T13:43:17Z</time>
      </trkpt>
      <trkpt lat="42.91371957" lon="-1.89292296">
        <ele>489.5078</ele>
        <time>2019-11-21T13:43:18Z</time>
      </trkpt>
      <trkpt lat="42.91375077" lon="-1.89332796">
        <ele>489.7807</ele>
        <time>2019-11-21T13:43:19Z</time>
      </trkpt>
      <trkpt lat="42.91378338" lon="-1.89373787">
        <ele>490.0188</ele>
        <time>2019-11-21T13:43:20Z</time>
      </trkpt>
      <trkpt lat="42.91383279" lon="-1.89414594">
        <ele>491.20825</ele>
        <time>2019-11-21T13:43:22Z</time>
      </trkpt>
      <trkpt lat="42.91389956" lon="-1.89454716">
        <ele>492.4381</ele>
        <time>2019-11-21T13:43:23Z</time>
      </trkpt>
      <trkpt lat="42.91405402" lon="-1.89534561">
        <ele>493.31567</ele>
        <time>2019-11-21T13:43:24Z</time>
      </trkpt>
      <trkpt lat="42.9141486" lon="-1.89573608">
        <ele>493.57678</ele>
        <time>2019-11-21T13:43:25Z</time>
      </trkpt>
      <trkpt lat="42.91424743" lon="-1.89613138">
        <ele>494.5105</ele>
        <time>2019-11-21T13:43:26Z</time>
      </trkpt>
      <trkpt lat="42.91435077" lon="-1.89652378">
        <ele>494.56885</ele>
        <time>2019-11-21T13:43:27Z</time>
      </trkpt>
      <trkpt lat="42.91444653" lon="-1.89691423">
        <ele>495.20898</ele>
        <time>2019-11-21T13:43:28Z</time>
      </trkpt>
      <trkpt lat="42.91453162" lon="-1.89730977">
        <ele>496.3506</ele>
        <time>2019-11-21T13:43:30Z</time>
      </trkpt>
      <trkpt lat="42.91467511" lon="-1.89811602">
        <ele>497.49603</ele>
        <time>2019-11-21T13:43:31Z</time>
      </trkpt>
      <trkpt lat="42.91472446" lon="-1.8985194">
        <ele>498.5437</ele>
        <time>2019-11-21T13:43:32Z</time>
      </trkpt>
      <trkpt lat="42.91476735" lon="-1.89894562">
        <ele>499.0901</ele>
        <time>2019-11-21T13:43:33Z</time>
      </trkpt>
      <trkpt lat="42.91480405" lon="-1.89935364">
        <ele>499.12793</ele>
        <time>2019-11-21T13:43:34Z</time>
      </trkpt>
      <trkpt lat="42.91483811" lon="-1.89975769">
        <ele>499.63043</ele>
        <time>2019-11-21T13:43:35Z</time>
      </trkpt>
      <trkpt lat="42.91486312" lon="-1.90016382">
        <ele>498.45276</ele>
        <time>2019-11-21T13:43:36Z</time>
      </trkpt>
      <trkpt lat="42.91488942" lon="-1.900565">
        <ele>498.43854</ele>
        <time>2019-11-21T13:43:37Z</time>
      </trkpt>
      <trkpt lat="42.91491416" lon="-1.90097621">
        <ele>498.9237</ele>
        <time>2019-11-21T13:43:38Z</time>
      </trkpt>
      <trkpt lat="42.91493921" lon="-1.90138976">
        <ele>499.66223</ele>
        <time>2019-11-21T13:43:39Z</time>
      </trkpt>
      <trkpt lat="42.91496146" lon="-1.90179881">
        <ele>499.5536</ele>
        <time>2019-11-21T13:43:40Z</time>
      </trkpt>
      <trkpt lat="42.91498985" lon="-1.90220196">
        <ele>501.22766</ele>
        <time>2019-11-21T13:43:41Z</time>
      </trkpt>
      <trkpt lat="42.91501675" lon="-1.90260424">
        <ele>502.5703</ele>
        <time>2019-11-21T13:43:42Z</time>
      </trkpt>
      <trkpt lat="42.91503465" lon="-1.90303149">
        <ele>503.6078</ele>
        <time>2019-11-21T13:43:43Z</time>
      </trkpt>
      <trkpt lat="42.91506404" lon="-1.90344182">
        <ele>505.458</ele>
        <time>2019-11-21T13:43:44Z</time>
      </trkpt>
      <trkpt lat="42.91509301" lon="-1.90383827">
        <ele>507.0252</ele>
        <time>2019-11-21T13:43:45Z</time>
      </trkpt>
      <trkpt lat="42.91512049" lon="-1.90424904">
        <ele>507.89246</ele>
        <time>2019-11-21T13:43:46Z</time>
      </trkpt>
      <trkpt lat="42.91514832" lon="-1.90465338">
        <ele>508.82996</ele>
        <time>2019-11-21T13:43:47Z</time>
      </trkpt>
      <trkpt lat="42.91518133" lon="-1.9050312">
        <ele>508.5686</ele>
        <time>2019-11-21T13:43:48Z</time>
      </trkpt>
      <trkpt lat="42.9152049" lon="-1.90546828">
        <ele>508.70288</ele>
        <time>2019-11-21T13:43:49Z</time>
      </trkpt>
      <trkpt lat="42.91523156" lon="-1.90588569">
        <ele>508.92517</ele>
        <time>2019-11-21T13:43:50Z</time>
      </trkpt>
      <trkpt lat="42.91526424" lon="-1.90627009">
        <ele>508.5752</ele>
        <time>2019-11-21T13:43:51Z</time>
      </trkpt>
      <trkpt lat="42.91528271" lon="-1.9066768">
        <ele>508.0603</ele>
        <time>2019-11-21T13:43:53Z</time>
      </trkpt>
      <trkpt lat="42.91530577" lon="-1.9071009">
        <ele>507.39465</ele>
        <time>2019-11-21T13:43:54Z</time>
      </trkpt>
      <trkpt lat="42.91534668" lon="-1.9079379">
        <ele>508.87628</ele>
        <time>2019-11-21T13:43:55Z</time>
      </trkpt>
      <trkpt lat="42.91536577" lon="-1.9083603">
        <ele>508.26172</ele>
        <time>2019-11-21T13:43:56Z</time>
      </trkpt>
      <trkpt lat="42.91538631" lon="-1.90877738">
        <ele>508.95325</ele>
        <time>2019-11-21T13:43:57Z</time>
      </trkpt>
      <trkpt lat="42.91540651" lon="-1.9091916">
        <ele>510.34534</ele>
        <time>2019-11-21T13:43:58Z</time>
      </trkpt>
      <trkpt lat="42.91542025" lon="-1.90959649">
        <ele>510.328</ele>
        <time>2019-11-21T13:43:59Z</time>
      </trkpt>
      <trkpt lat="42.9154407" lon="-1.90999955">
        <ele>509.81805</ele>
        <time>2019-11-21T13:44:00Z</time>
      </trkpt>
      <trkpt lat="42.91545502" lon="-1.91041229">
        <ele>510.675</ele>
        <time>2019-11-21T13:44:01Z</time>
      </trkpt>
      <trkpt lat="42.91548437" lon="-1.91079621">
        <ele>511.31482</ele>
        <time>2019-11-21T13:44:02Z</time>
      </trkpt>
      <trkpt lat="42.91551067" lon="-1.9111947">
        <ele>510.5628</ele>
        <time>2019-11-21T13:44:03Z</time>
      </trkpt>
      <trkpt lat="42.91553739" lon="-1.91161107">
        <ele>511.90558</ele>
        <time>2019-11-21T13:44:04Z</time>
      </trkpt>
      <trkpt lat="42.91555594" lon="-1.9120082">
        <ele>509.91162</ele>
        <time>2019-11-21T13:44:05Z</time>
      </trkpt>
      <trkpt lat="42.91558301" lon="-1.91240312">
        <ele>509.32288</ele>
        <time>2019-11-21T13:44:06Z</time>
      </trkpt>
      <trkpt lat="42.9156105" lon="-1.91280385">
        <ele>510.71863</ele>
        <time>2019-11-21T13:44:07Z</time>
      </trkpt>
      <trkpt lat="42.9156427" lon="-1.91322123">
        <ele>512.67474</ele>
        <time>2019-11-21T13:44:08Z</time>
      </trkpt>
      <trkpt lat="42.91566662" lon="-1.91364248">
        <ele>513.29645</ele>
        <time>2019-11-21T13:44:09Z</time>
      </trkpt>
      <trkpt lat="42.91569215" lon="-1.91406552">
        <ele>512.627</ele>
        <time>2019-11-21T13:44:10Z</time>
      </trkpt>
      <trkpt lat="42.91571405" lon="-1.91449">
        <ele>513.2393</ele>
        <time>2019-11-21T13:44:11Z</time>
      </trkpt>
      <trkpt lat="42.9157363" lon="-1.91489721">
        <ele>511.86328</ele>
        <time>2019-11-21T13:44:12Z</time>
      </trkpt>
      <trkpt lat="42.9157497" lon="-1.91528302">
        <ele>509.66943</ele>
        <time>2019-11-21T13:44:13Z</time>
      </trkpt>
      <trkpt lat="42.91574274" lon="-1.9157107">
        <ele>509.91345</ele>
        <time>2019-11-21T13:44:14Z</time>
      </trkpt>
      <trkpt lat="42.91572959" lon="-1.91614016">
        <ele>510.76843</ele>
        <time>2019-11-21T13:44:15Z</time>
      </trkpt>
      <trkpt lat="42.9157094" lon="-1.91655428">
        <ele>510.64062</ele>
        <time>2019-11-21T13:44:16Z</time>
      </trkpt>
      <trkpt lat="42.91567382" lon="-1.91696295">
        <ele>509.83252</ele>
        <time>2019-11-21T13:44:17Z</time>
      </trkpt>
      <trkpt lat="42.91562786" lon="-1.91736599">
        <ele>509.2921</ele>
        <time>2019-11-21T13:44:18Z</time>
      </trkpt>
      <trkpt lat="42.91556668" lon="-1.91776668">
        <ele>508.3932</ele>
        <time>2019-11-21T13:44:19Z</time>
      </trkpt>
      <trkpt lat="42.91549947" lon="-1.91817266">
        <ele>508.5382</ele>
        <time>2019-11-21T13:44:20Z</time>
      </trkpt>
      <trkpt lat="42.91543394" lon="-1.91856876">
        <ele>507.3286</ele>
        <time>2019-11-21T13:44:22Z</time>
      </trkpt>
      <trkpt lat="42.91532349" lon="-1.91939911">
        <ele>506.95984</ele>
        <time>2019-11-21T13:44:23Z</time>
      </trkpt>
      <trkpt lat="42.91528579" lon="-1.91982895">
        <ele>507.91602</ele>
        <time>2019-11-21T13:44:24Z</time>
      </trkpt>
      <trkpt lat="42.91526863" lon="-1.92024314">
        <ele>507.24683</ele>
        <time>2019-11-21T13:44:25Z</time>
      </trkpt>
      <trkpt lat="42.91525386" lon="-1.92066359">
        <ele>506.52374</ele>
        <time>2019-11-21T13:44:26Z</time>
      </trkpt>
      <trkpt lat="42.91525711" lon="-1.92107215">
        <ele>508.10095</ele>
        <time>2019-11-21T13:44:27Z</time>
      </trkpt>
      <trkpt lat="42.91527442" lon="-1.92148797">
        <ele>510.58057</ele>
        <time>2019-11-21T13:44:28Z</time>
      </trkpt>
      <trkpt lat="42.91530611" lon="-1.92190113">
        <ele>509.46777</ele>
        <time>2019-11-21T13:44:29Z</time>
      </trkpt>
      <trkpt lat="42.91535488" lon="-1.92230245">
        <ele>510.35583</ele>
        <time>2019-11-21T13:44:30Z</time>
      </trkpt>
      <trkpt lat="42.91540812" lon="-1.9227022">
        <ele>510.42993</ele>
        <time>2019-11-21T13:44:31Z</time>
      </trkpt>
      <trkpt lat="42.91546595" lon="-1.92309414">
        <ele>510.0033</ele>
        <time>2019-11-21T13:44:32Z</time>
      </trkpt>
      <trkpt lat="42.91554766" lon="-1.92349987">
        <ele>511.65698</ele>
        <time>2019-11-21T13:44:33Z</time>
      </trkpt>
      <trkpt lat="42.91564152" lon="-1.92389106">
        <ele>511.33655</ele>
        <time>2019-11-21T13:44:34Z</time>
      </trkpt>
      <trkpt lat="42.91574715" lon="-1.92426889">
        <ele>511.47223</ele>
        <time>2019-11-21T13:44:35Z</time>
      </trkpt>
      <trkpt lat="42.91585513" lon="-1.92464763">
        <ele>512.09814</ele>
        <time>2019-11-21T13:44:36Z</time>
      </trkpt>
      <trkpt lat="42.91596573" lon="-1.92503178">
        <ele>512.3444</ele>
        <time>2019-11-21T13:44:37Z</time>
      </trkpt>
      <trkpt lat="42.91607078" lon="-1.9254195">
        <ele>513.85016</ele>
        <time>2019-11-21T13:44:38Z</time>
      </trkpt>
      <trkpt lat="42.91617134" lon="-1.92581121">
        <ele>514.8339</ele>
        <time>2019-11-21T13:44:39Z</time>
      </trkpt>
      <trkpt lat="42.91625869" lon="-1.92620777">
        <ele>516.0426</ele>
        <time>2019-11-21T13:44:40Z</time>
      </trkpt>
      <trkpt lat="42.91633971" lon="-1.92661244">
        <ele>517.16113</ele>
        <time>2019-11-21T13:44:41Z</time>
      </trkpt>
      <trkpt lat="42.91641071" lon="-1.92701498">
        <ele>518.8875</ele>
        <time>2019-11-21T13:44:42Z</time>
      </trkpt>
      <trkpt lat="42.91646559" lon="-1.92741877">
        <ele>519.4796</ele>
        <time>2019-11-21T13:44:43Z</time>
      </trkpt>
      <trkpt lat="42.9165141" lon="-1.92783007">
        <ele>519.96387</ele>
        <time>2019-11-21T13:44:44Z</time>
      </trkpt>
      <trkpt lat="42.91654606" lon="-1.92823838">
        <ele>519.9064</ele>
        <time>2019-11-21T13:44:45Z</time>
      </trkpt>
      <trkpt lat="42.91656932" lon="-1.92864913">
        <ele>518.8889</ele>
        <time>2019-11-21T13:44:46Z</time>
      </trkpt>
      <trkpt lat="42.91659226" lon="-1.92906471">
        <ele>518.57275</ele>
        <time>2019-11-21T13:44:47Z</time>
      </trkpt>
      <trkpt lat="42.9166143" lon="-1.92947445">
        <ele>517.80804</ele>
        <time>2019-11-21T13:44:48Z</time>
      </trkpt>
      <trkpt lat="42.91663479" lon="-1.92989007">
        <ele>516.7811</ele>
        <time>2019-11-21T13:44:49Z</time>
      </trkpt>
      <trkpt lat="42.91665567" lon="-1.93030203">
        <ele>515.36914</ele>
        <time>2019-11-21T13:44:51Z</time>
      </trkpt>
      <trkpt lat="42.91671468" lon="-1.9311361">
        <ele>515.67255</ele>
        <time>2019-11-21T13:44:52Z</time>
      </trkpt>
      <trkpt lat="42.91674314" lon="-1.93155637">
        <ele>515.2893</ele>
        <time>2019-11-21T13:44:53Z</time>
      </trkpt>
      <trkpt lat="42.91677061" lon="-1.93196581">
        <ele>514.8171</ele>
        <time>2019-11-21T13:44:54Z</time>
      </trkpt>
      <trkpt lat="42.91680109" lon="-1.93238477">
        <ele>515.312</ele>
        <time>2019-11-21T13:44:55Z</time>
      </trkpt>
      <trkpt lat="42.91682349" lon="-1.93278916">
        <ele>514.9243</ele>
        <time>2019-11-21T13:44:56Z</time>
      </trkpt>
      <trkpt lat="42.91685027" lon="-1.93320514">
        <ele>514.6619</ele>
        <time>2019-11-21T13:44:57Z</time>
      </trkpt>
      <trkpt lat="42.9168719" lon="-1.93361013">
        <ele>514.7469</ele>
        <time>2019-11-21T13:44:58Z</time>
      </trkpt>
      <trkpt lat="42.91690193" lon="-1.93402084">
        <ele>515.2727</ele>
        <time>2019-11-21T13:44:59Z</time>
      </trkpt>
      <trkpt lat="42.91692738" lon="-1.93442401">
        <ele>516.13446</ele>
        <time>2019-11-21T13:45:00Z</time>
      </trkpt>
      <trkpt lat="42.9169456" lon="-1.93481261">
        <ele>515.33136</ele>
        <time>2019-11-21T13:45:01Z</time>
      </trkpt>
      <trkpt lat="42.91696822" lon="-1.93522602">
        <ele>516.4835</ele>
        <time>2019-11-21T13:45:02Z</time>
      </trkpt>
      <trkpt lat="42.916983" lon="-1.93563971">
        <ele>518.2128</ele>
        <time>2019-11-21T13:45:03Z</time>
      </trkpt>
      <trkpt lat="42.91697823" lon="-1.93604875">
        <ele>518.59796</ele>
        <time>2019-11-21T13:45:04Z</time>
      </trkpt>
      <trkpt lat="42.91696671" lon="-1.93645483">
        <ele>519.43</ele>
        <time>2019-11-21T13:45:05Z</time>
      </trkpt>
      <trkpt lat="42.91693973" lon="-1.93685656">
        <ele>518.9082</ele>
        <time>2019-11-21T13:45:06Z</time>
      </trkpt>
      <trkpt lat="42.91690559" lon="-1.93726003">
        <ele>518.92883</ele>
        <time>2019-11-21T13:45:07Z</time>
      </trkpt>
      <trkpt lat="42.91686279" lon="-1.93767489">
        <ele>519.8895</ele>
        <time>2019-11-21T13:45:08Z</time>
      </trkpt>
      <trkpt lat="42.91680789" lon="-1.93803242">
        <ele>519.42395</ele>
        <time>2019-11-21T13:45:09Z</time>
      </trkpt>
      <trkpt lat="42.91674348" lon="-1.93845284">
        <ele>519.1563</ele>
        <time>2019-11-21T13:45:10Z</time>
      </trkpt>
      <trkpt lat="42.91668138" lon="-1.93878496">
        <ele>516.8401</ele>
        <time>2019-11-21T13:45:11Z</time>
      </trkpt>
      <trkpt lat="42.91660505" lon="-1.93922828">
        <ele>516.3459</ele>
        <time>2019-11-21T13:45:12Z</time>
      </trkpt>
      <trkpt lat="42.91653715" lon="-1.9396305">
        <ele>516.73663</ele>
        <time>2019-11-21T13:45:13Z</time>
      </trkpt>
      <trkpt lat="42.91647874" lon="-1.94005813">
        <ele>517.29016</ele>
        <time>2019-11-21T13:45:14Z</time>
      </trkpt>
      <trkpt lat="42.91642964" lon="-1.94044379">
        <ele>516.99365</ele>
        <time>2019-11-21T13:45:15Z</time>
      </trkpt>
      <trkpt lat="42.91640246" lon="-1.94079463">
        <ele>516.3467</ele>
        <time>2019-11-21T13:45:16Z</time>
      </trkpt>
      <trkpt lat="42.91636865" lon="-1.94123321">
        <ele>515.64795</ele>
        <time>2019-11-21T13:45:17Z</time>
      </trkpt>
      <trkpt lat="42.91634616" lon="-1.94165491">
        <ele>515.6614</ele>
        <time>2019-11-21T13:45:18Z</time>
      </trkpt>
      <trkpt lat="42.91634027" lon="-1.94205621">
        <ele>514.03625</ele>
        <time>2019-11-21T13:45:19Z</time>
      </trkpt>
      <trkpt lat="42.91635236" lon="-1.94246777">
        <ele>513.8381</ele>
        <time>2019-11-21T13:45:21Z</time>
      </trkpt>
      <trkpt lat="42.91637448" lon="-1.94289284">
        <ele>513.85394</ele>
        <time>2019-11-21T13:45:22Z</time>
      </trkpt>
      <trkpt lat="42.91645183" lon="-1.94372767">
        <ele>514.0672</ele>
        <time>2019-11-21T13:45:23Z</time>
      </trkpt>
      <trkpt lat="42.91651231" lon="-1.9441344">
        <ele>513.8913</ele>
        <time>2019-11-21T13:45:24Z</time>
      </trkpt>
      <trkpt lat="42.91658311" lon="-1.94453385">
        <ele>513.6732</ele>
        <time>2019-11-21T13:45:25Z</time>
      </trkpt>
      <trkpt lat="42.91666851" lon="-1.94494212">
        <ele>514.3461</ele>
        <time>2019-11-21T13:45:26Z</time>
      </trkpt>
      <trkpt lat="42.91676418" lon="-1.94532971">
        <ele>518.59344</ele>
        <time>2019-11-21T13:45:27Z</time>
      </trkpt>
      <trkpt lat="42.91687162" lon="-1.94572228">
        <ele>516.4353</ele>
        <time>2019-11-21T13:45:28Z</time>
      </trkpt>
      <trkpt lat="42.91698673" lon="-1.94611008">
        <ele>515.5219</ele>
        <time>2019-11-21T13:45:29Z</time>
      </trkpt>
      <trkpt lat="42.91710441" lon="-1.94649917">
        <ele>515.34064</ele>
        <time>2019-11-21T13:45:30Z</time>
      </trkpt>
      <trkpt lat="42.91722047" lon="-1.946887">
        <ele>516.0653</ele>
        <time>2019-11-21T13:45:31Z</time>
      </trkpt>
      <trkpt lat="42.91731817" lon="-1.94727211">
        <ele>515.381</ele>
        <time>2019-11-21T13:45:32Z</time>
      </trkpt>
      <trkpt lat="42.91741782" lon="-1.94767331">
        <ele>515.704</ele>
        <time>2019-11-21T13:45:33Z</time>
      </trkpt>
      <trkpt lat="42.91750521" lon="-1.94807014">
        <ele>516.4667</ele>
        <time>2019-11-21T13:45:34Z</time>
      </trkpt>
      <trkpt lat="42.91757299" lon="-1.94846744">
        <ele>515.7611</ele>
        <time>2019-11-21T13:45:35Z</time>
      </trkpt>
      <trkpt lat="42.91763992" lon="-1.94887097">
        <ele>515.1218</ele>
        <time>2019-11-21T13:45:36Z</time>
      </trkpt>
      <trkpt lat="42.91768871" lon="-1.94927694">
        <ele>515.29004</ele>
        <time>2019-11-21T13:45:37Z</time>
      </trkpt>
      <trkpt lat="42.91772475" lon="-1.94968589">
        <ele>514.63654</ele>
        <time>2019-11-21T13:45:38Z</time>
      </trkpt>
      <trkpt lat="42.91775588" lon="-1.95009788">
        <ele>513.9575</ele>
        <time>2019-11-21T13:45:39Z</time>
      </trkpt>
      <trkpt lat="42.91778541" lon="-1.95050919">
        <ele>514.26636</ele>
        <time>2019-11-21T13:45:40Z</time>
      </trkpt>
      <trkpt lat="42.91780521" lon="-1.95091884">
        <ele>514.9447</ele>
        <time>2019-11-21T13:45:41Z</time>
      </trkpt>
      <trkpt lat="42.91781387" lon="-1.95132059">
        <ele>515.0903</ele>
        <time>2019-11-21T13:45:42Z</time>
      </trkpt>
      <trkpt lat="42.91782131" lon="-1.95172284">
        <ele>515.2623</ele>
        <time>2019-11-21T13:45:43Z</time>
      </trkpt>
      <trkpt lat="42.91783102" lon="-1.95211437">
        <ele>515.9516</ele>
        <time>2019-11-21T13:45:44Z</time>
      </trkpt>
      <trkpt lat="42.91784585" lon="-1.95252107">
        <ele>517.98663</ele>
        <time>2019-11-21T13:45:45Z</time>
      </trkpt>
      <trkpt lat="42.91785669" lon="-1.95291773">
        <ele>518.9653</ele>
        <time>2019-11-21T13:45:46Z</time>
      </trkpt>
      <trkpt lat="42.9178733" lon="-1.95332134">
        <ele>520.8239</ele>
        <time>2019-11-21T13:45:47Z</time>
      </trkpt>
      <trkpt lat="42.91788747" lon="-1.95372393">
        <ele>521.9553</ele>
        <time>2019-11-21T13:45:48Z</time>
      </trkpt>
      <trkpt lat="42.91790259" lon="-1.95414052">
        <ele>523.4336</ele>
        <time>2019-11-21T13:45:49Z</time>
      </trkpt>
      <trkpt lat="42.91791165" lon="-1.95454757">
        <ele>523.6103</ele>
        <time>2019-11-21T13:45:50Z</time>
      </trkpt>
      <trkpt lat="42.91792301" lon="-1.95495682">
        <ele>524.44214</ele>
        <time>2019-11-21T13:45:52Z</time>
      </trkpt>
      <trkpt lat="42.91794012" lon="-1.95536164">
        <ele>524.59753</ele>
        <time>2019-11-21T13:45:53Z</time>
      </trkpt>
      <trkpt lat="42.91798118" lon="-1.95618637">
        <ele>523.9418</ele>
        <time>2019-11-21T13:45:54Z</time>
      </trkpt>
      <trkpt lat="42.91802109" lon="-1.95659892">
        <ele>525.8867</ele>
        <time>2019-11-21T13:45:55Z</time>
      </trkpt>
      <trkpt lat="42.91806884" lon="-1.95701508">
        <ele>526.32983</ele>
        <time>2019-11-21T13:45:56Z</time>
      </trkpt>
      <trkpt lat="42.91812002" lon="-1.95742683">
        <ele>526.37646</ele>
        <time>2019-11-21T13:45:57Z</time>
      </trkpt>
      <trkpt lat="42.91817557" lon="-1.95783943">
        <ele>525.9867</ele>
        <time>2019-11-21T13:45:58Z</time>
      </trkpt>
      <trkpt lat="42.91823009" lon="-1.95824941">
        <ele>526.40576</ele>
        <time>2019-11-21T13:45:59Z</time>
      </trkpt>
      <trkpt lat="42.91828003" lon="-1.95865892">
        <ele>525.91895</ele>
        <time>2019-11-21T13:46:00Z</time>
      </trkpt>
      <trkpt lat="42.91839118" lon="-1.95946754">
        <ele>524.54834</ele>
        <time>2019-11-21T13:46:02Z</time>
      </trkpt>
      <trkpt lat="42.9184476" lon="-1.9598657">
        <ele>524.4276</ele>
        <time>2019-11-21T13:46:03Z</time>
      </trkpt>
      <trkpt lat="42.91849607" lon="-1.96027228">
        <ele>524.6997</ele>
        <time>2019-11-21T13:46:04Z</time>
      </trkpt>
      <trkpt lat="42.91853358" lon="-1.96068108">
        <ele>524.047</ele>
        <time>2019-11-21T13:46:05Z</time>
      </trkpt>
      <trkpt lat="42.91856216" lon="-1.96109346">
        <ele>524.55786</ele>
        <time>2019-11-21T13:46:06Z</time>
      </trkpt>
      <trkpt lat="42.91858564" lon="-1.96150423">
        <ele>523.6076</ele>
        <time>2019-11-21T13:46:07Z</time>
      </trkpt>
      <trkpt lat="42.91860424" lon="-1.96191777">
        <ele>521.32355</ele>
        <time>2019-11-21T13:46:08Z</time>
      </trkpt>
      <trkpt lat="42.91862056" lon="-1.96233861">
        <ele>521.1879</ele>
        <time>2019-11-21T13:46:09Z</time>
      </trkpt>
      <trkpt lat="42.91864428" lon="-1.96276271">
        <ele>520.7463</ele>
        <time>2019-11-21T13:46:10Z</time>
      </trkpt>
      <trkpt lat="42.91866286" lon="-1.96317309">
        <ele>520.0124</ele>
        <time>2019-11-21T13:46:11Z</time>
      </trkpt>
      <trkpt lat="42.91868442" lon="-1.96358398">
        <ele>518.654</ele>
        <time>2019-11-21T13:46:12Z</time>
      </trkpt>
      <trkpt lat="42.91870558" lon="-1.96400509">
        <ele>518.3454</ele>
        <time>2019-11-21T13:46:13Z</time>
      </trkpt>
      <trkpt lat="42.9187157" lon="-1.9644351">
        <ele>517.4667</ele>
        <time>2019-11-21T13:46:14Z</time>
      </trkpt>
      <trkpt lat="42.91873532" lon="-1.96484633">
        <ele>516.52246</ele>
        <time>2019-11-21T13:46:15Z</time>
      </trkpt>
      <trkpt lat="42.91875601" lon="-1.96526036">
        <ele>515.5812</ele>
        <time>2019-11-21T13:46:16Z</time>
      </trkpt>
      <trkpt lat="42.91877835" lon="-1.96566777">
        <ele>514.7882</ele>
        <time>2019-11-21T13:46:17Z</time>
      </trkpt>
      <trkpt lat="42.91879982" lon="-1.96606822">
        <ele>513.80927</ele>
        <time>2019-11-21T13:46:18Z</time>
      </trkpt>
      <trkpt lat="42.91881467" lon="-1.96647075">
        <ele>512.49524</ele>
        <time>2019-11-21T13:46:19Z</time>
      </trkpt>
      <trkpt lat="42.91883563" lon="-1.966885">
        <ele>512.38196</ele>
        <time>2019-11-21T13:46:20Z</time>
      </trkpt>
      <trkpt lat="42.91886004" lon="-1.9672808">
        <ele>512.206</ele>
        <time>2019-11-21T13:46:22Z</time>
      </trkpt>
      <trkpt lat="42.91893956" lon="-1.96808854">
        <ele>512.968</ele>
        <time>2019-11-21T13:46:23Z</time>
      </trkpt>
      <trkpt lat="42.91899629" lon="-1.96849198">
        <ele>514.52814</ele>
        <time>2019-11-21T13:46:24Z</time>
      </trkpt>
      <trkpt lat="42.9190544" lon="-1.96889322">
        <ele>515.3375</ele>
        <time>2019-11-21T13:46:25Z</time>
      </trkpt>
      <trkpt lat="42.91912421" lon="-1.96928875">
        <ele>516.189</ele>
        <time>2019-11-21T13:46:26Z</time>
      </trkpt>
      <trkpt lat="42.91919707" lon="-1.96968895">
        <ele>515.1973</ele>
        <time>2019-11-21T13:46:27Z</time>
      </trkpt>
      <trkpt lat="42.91927661" lon="-1.9700853">
        <ele>515.0215</ele>
        <time>2019-11-21T13:46:28Z</time>
      </trkpt>
      <trkpt lat="42.91935572" lon="-1.97047646">
        <ele>514.70386</ele>
        <time>2019-11-21T13:46:29Z</time>
      </trkpt>
      <trkpt lat="42.91945649" lon="-1.97087116">
        <ele>513.97314</ele>
        <time>2019-11-21T13:46:30Z</time>
      </trkpt>
      <trkpt lat="42.9195613" lon="-1.97123863">
        <ele>513.57715</ele>
        <time>2019-11-21T13:46:31Z</time>
      </trkpt>
      <trkpt lat="42.91964367" lon="-1.9716381">
        <ele>513.8603</ele>
        <time>2019-11-21T13:46:32Z</time>
      </trkpt>
      <trkpt lat="42.91971843" lon="-1.97204673">
        <ele>514.1151</ele>
        <time>2019-11-21T13:46:33Z</time>
      </trkpt>
      <trkpt lat="42.91978978" lon="-1.97245171">
        <ele>514.3182</ele>
        <time>2019-11-21T13:46:34Z</time>
      </trkpt>
      <trkpt lat="42.9198716" lon="-1.9728516">
        <ele>514.95306</ele>
        <time>2019-11-21T13:46:35Z</time>
      </trkpt>
      <trkpt lat="42.91995528" lon="-1.97324668">
        <ele>514.6992</ele>
        <time>2019-11-21T13:46:36Z</time>
      </trkpt>
      <trkpt lat="42.92003926" lon="-1.97363885">
        <ele>513.9622</ele>
        <time>2019-11-21T13:46:37Z</time>
      </trkpt>
      <trkpt lat="42.9201255" lon="-1.97402447">
        <ele>512.8784</ele>
        <time>2019-11-21T13:46:38Z</time>
      </trkpt>
      <trkpt lat="42.9202028" lon="-1.97442734">
        <ele>513.0884</ele>
        <time>2019-11-21T13:46:39Z</time>
      </trkpt>
      <trkpt lat="42.92028574" lon="-1.97482474">
        <ele>512.7118</ele>
        <time>2019-11-21T13:46:40Z</time>
      </trkpt>
      <trkpt lat="42.92036855" lon="-1.97521515">
        <ele>512.2899</ele>
        <time>2019-11-21T13:46:41Z</time>
      </trkpt>
      <trkpt lat="42.92044603" lon="-1.97560925">
        <ele>511.83032</ele>
        <time>2019-11-21T13:46:42Z</time>
      </trkpt>
      <trkpt lat="42.92052592" lon="-1.97601072">
        <ele>512.4323</ele>
        <time>2019-11-21T13:46:43Z</time>
      </trkpt>
      <trkpt lat="42.92060341" lon="-1.97641504">
        <ele>513.1964</ele>
        <time>2019-11-21T13:46:44Z</time>
      </trkpt>
      <trkpt lat="42.92068808" lon="-1.97680908">
        <ele>514.11896</ele>
        <time>2019-11-21T13:46:45Z</time>
      </trkpt>
      <trkpt lat="42.92076677" lon="-1.9772089">
        <ele>514.40283</ele>
        <time>2019-11-21T13:46:46Z</time>
      </trkpt>
      <trkpt lat="42.92084884" lon="-1.97760575">
        <ele>514.2102</ele>
        <time>2019-11-21T13:46:47Z</time>
      </trkpt>
      <trkpt lat="42.92092908" lon="-1.9780044">
        <ele>514.10736</ele>
        <time>2019-11-21T13:46:49Z</time>
      </trkpt>
      <trkpt lat="42.92109676" lon="-1.97880368">
        <ele>514.1381</ele>
        <time>2019-11-21T13:46:50Z</time>
      </trkpt>
      <trkpt lat="42.92118152" lon="-1.97920763">
        <ele>514.91394</ele>
        <time>2019-11-21T13:46:51Z</time>
      </trkpt>
      <trkpt lat="42.92125876" lon="-1.97960554">
        <ele>514.2224</ele>
        <time>2019-11-21T13:46:52Z</time>
      </trkpt>
      <trkpt lat="42.92135207" lon="-1.97998549">
        <ele>513.5664</ele>
        <time>2019-11-21T13:46:53Z</time>
      </trkpt>
      <trkpt lat="42.92143245" lon="-1.98037205">
        <ele>513.4633</ele>
        <time>2019-11-21T13:46:54Z</time>
      </trkpt>
      <trkpt lat="42.92150046" lon="-1.98076557">
        <ele>513.3075</ele>
        <time>2019-11-21T13:46:55Z</time>
      </trkpt>
      <trkpt lat="42.92155149" lon="-1.98118224">
        <ele>514.6671</ele>
        <time>2019-11-21T13:46:56Z</time>
      </trkpt>
      <trkpt lat="42.92159422" lon="-1.98159527">
        <ele>515.21875</ele>
        <time>2019-11-21T13:46:57Z</time>
      </trkpt>
      <trkpt lat="42.92162314" lon="-1.98200397">
        <ele>514.91516</ele>
        <time>2019-11-21T13:46:58Z</time>
      </trkpt>
      <trkpt lat="42.92164887" lon="-1.98239916">
        <ele>513.3078</ele>
        <time>2019-11-21T13:46:59Z</time>
      </trkpt>
      <trkpt lat="42.92166833" lon="-1.98281692">
        <ele>513.14667</ele>
        <time>2019-11-21T13:47:00Z</time>
      </trkpt>
      <trkpt lat="42.92168074" lon="-1.98323049">
        <ele>512.1255</ele>
        <time>2019-11-21T13:47:01Z</time>
      </trkpt>
      <trkpt lat="42.92170083" lon="-1.98364584">
        <ele>511.66614</ele>
        <time>2019-11-21T13:47:02Z</time>
      </trkpt>
      <trkpt lat="42.9217081" lon="-1.98405916">
        <ele>510.21057</ele>
        <time>2019-11-21T13:47:03Z</time>
      </trkpt>
      <trkpt lat="42.92172176" lon="-1.98447664">
        <ele>509.75098</ele>
        <time>2019-11-21T13:47:04Z</time>
      </trkpt>
      <trkpt lat="42.92173407" lon="-1.98489336">
        <ele>508.95862</ele>
        <time>2019-11-21T13:47:05Z</time>
      </trkpt>
      <trkpt lat="42.92174332" lon="-1.98531162">
        <ele>508.91315</ele>
        <time>2019-11-21T13:47:06Z</time>
      </trkpt>
      <trkpt lat="42.9217659" lon="-1.98572744">
        <ele>508.46362</ele>
        <time>2019-11-21T13:47:07Z</time>
      </trkpt>
      <trkpt lat="42.92178412" lon="-1.98613357">
        <ele>507.80444</ele>
        <time>2019-11-21T13:47:08Z</time>
      </trkpt>
      <trkpt lat="42.92181016" lon="-1.98653352">
        <ele>506.76508</ele>
        <time>2019-11-21T13:47:09Z</time>
      </trkpt>
      <trkpt lat="42.92184554" lon="-1.98693493">
        <ele>506.72827</ele>
        <time>2019-11-21T13:47:10Z</time>
      </trkpt>
      <trkpt lat="42.92189273" lon="-1.98734207">
        <ele>508.25305</ele>
        <time>2019-11-21T13:47:11Z</time>
      </trkpt>
      <trkpt lat="42.92193783" lon="-1.98774873">
        <ele>508.9851</ele>
        <time>2019-11-21T13:47:12Z</time>
      </trkpt>
      <trkpt lat="42.92198643" lon="-1.98815874">
        <ele>510.333</ele>
        <time>2019-11-21T13:47:13Z</time>
      </trkpt>
      <trkpt lat="42.92203941" lon="-1.98856635">
        <ele>510.92273</ele>
        <time>2019-11-21T13:47:14Z</time>
      </trkpt>
      <trkpt lat="42.92208352" lon="-1.98897275">
        <ele>510.3142</ele>
        <time>2019-11-21T13:47:15Z</time>
      </trkpt>
      <trkpt lat="42.92214461" lon="-1.98938437">
        <ele>511.56873</ele>
        <time>2019-11-21T13:47:16Z</time>
      </trkpt>
      <trkpt lat="42.9221917" lon="-1.98978535">
        <ele>510.79297</ele>
        <time>2019-11-21T13:47:17Z</time>
      </trkpt>
      <trkpt lat="42.92225292" lon="-1.99019326">
        <ele>510.60706</ele>
        <time>2019-11-21T13:47:18Z</time>
      </trkpt>
      <trkpt lat="42.92230953" lon="-1.99060374">
        <ele>511.29034</ele>
        <time>2019-11-21T13:47:20Z</time>
      </trkpt>
      <trkpt lat="42.92242528" lon="-1.99141526">
        <ele>510.49713</ele>
        <time>2019-11-21T13:47:21Z</time>
      </trkpt>
      <trkpt lat="42.92247721" lon="-1.99181791">
        <ele>509.5094</ele>
        <time>2019-11-21T13:47:22Z</time>
      </trkpt>
      <trkpt lat="42.9225269" lon="-1.99222238">
        <ele>508.89105</ele>
        <time>2019-11-21T13:47:23Z</time>
      </trkpt>
      <trkpt lat="42.92258322" lon="-1.9926338">
        <ele>509.12317</ele>
        <time>2019-11-21T13:47:24Z</time>
      </trkpt>
      <trkpt lat="42.92263936" lon="-1.99303141">
        <ele>508.90332</ele>
        <time>2019-11-21T13:47:25Z</time>
      </trkpt>
      <trkpt lat="42.92270042" lon="-1.99343676">
        <ele>508.55884</ele>
        <time>2019-11-21T13:47:26Z</time>
      </trkpt>
      <trkpt lat="42.92276395" lon="-1.99383602">
        <ele>508.45355</ele>
        <time>2019-11-21T13:47:27Z</time>
      </trkpt>
      <trkpt lat="42.9228194" lon="-1.99423382">
        <ele>508.0578</ele>
        <time>2019-11-21T13:47:28Z</time>
      </trkpt>
      <trkpt lat="42.92287508" lon="-1.99464147">
        <ele>508.2464</ele>
        <time>2019-11-21T13:47:29Z</time>
      </trkpt>
      <trkpt lat="42.92292516" lon="-1.99505084">
        <ele>508.09338</ele>
        <time>2019-11-21T13:47:30Z</time>
      </trkpt>
      <trkpt lat="42.92298272" lon="-1.9954633">
        <ele>509.06958</ele>
        <time>2019-11-21T13:47:31Z</time>
      </trkpt>
      <trkpt lat="42.9230352" lon="-1.9958655">
        <ele>508.83472</ele>
        <time>2019-11-21T13:47:32Z</time>
      </trkpt>
      <trkpt lat="42.92308829" lon="-1.99626988">
        <ele>509.00446</ele>
        <time>2019-11-21T13:47:33Z</time>
      </trkpt>
      <trkpt lat="42.92314676" lon="-1.99667528">
        <ele>508.72125</ele>
        <time>2019-11-21T13:47:34Z</time>
      </trkpt>
      <trkpt lat="42.92318688" lon="-1.99706795">
        <ele>506.7827</ele>
        <time>2019-11-21T13:47:35Z</time>
      </trkpt>
      <trkpt lat="42.92324794" lon="-1.99747366">
        <ele>506.79486</ele>
        <time>2019-11-21T13:47:36Z</time>
      </trkpt>
      <trkpt lat="42.92329461" lon="-1.99788509">
        <ele>507.30603</ele>
        <time>2019-11-21T13:47:37Z</time>
      </trkpt>
      <trkpt lat="42.9233399" lon="-1.99829226">
        <ele>508.5481</ele>
        <time>2019-11-21T13:47:38Z</time>
      </trkpt>
      <trkpt lat="42.92335934" lon="-1.99869974">
        <ele>508.66473</ele>
        <time>2019-11-21T13:47:39Z</time>
      </trkpt>
      <trkpt lat="42.92337552" lon="-1.99911088">
        <ele>509.0686</ele>
        <time>2019-11-21T13:47:40Z</time>
      </trkpt>
      <trkpt lat="42.92337554" lon="-1.99952867">
        <ele>509.94983</ele>
        <time>2019-11-21T13:47:41Z</time>
      </trkpt>
      <trkpt lat="42.92336566" lon="-1.99993088">
        <ele>510.0304</ele>
        <time>2019-11-21T13:47:42Z</time>
      </trkpt>
      <trkpt lat="42.92333372" lon="-2.0003352">
        <ele>510.55737</ele>
        <time>2019-11-21T13:47:43Z</time>
      </trkpt>
      <trkpt lat="42.92329341" lon="-2.00075628">
        <ele>510.19373</ele>
        <time>2019-11-21T13:47:44Z</time>
      </trkpt>
      <trkpt lat="42.92324417" lon="-2.00116694">
        <ele>509.8902</ele>
        <time>2019-11-21T13:47:45Z</time>
      </trkpt>
      <trkpt lat="42.92319126" lon="-2.00156058">
        <ele>509.51746</ele>
        <time>2019-11-21T13:47:46Z</time>
      </trkpt>
      <trkpt lat="42.92312639" lon="-2.00196194">
        <ele>509.65753</ele>
        <time>2019-11-21T13:47:47Z</time>
      </trkpt>
      <trkpt lat="42.92305899" lon="-2.0023602">
        <ele>509.18884</ele>
        <time>2019-11-21T13:47:48Z</time>
      </trkpt>
      <trkpt lat="42.92298712" lon="-2.00275471">
        <ele>507.63678</ele>
        <time>2019-11-21T13:47:50Z</time>
      </trkpt>
      <trkpt lat="42.92285733" lon="-2.00356211">
        <ele>506.63568</ele>
        <time>2019-11-21T13:47:51Z</time>
      </trkpt>
      <trkpt lat="42.92278835" lon="-2.00397518">
        <ele>506.9552</ele>
        <time>2019-11-21T13:47:52Z</time>
      </trkpt>
      <trkpt lat="42.92272772" lon="-2.00437805">
        <ele>506.79858</ele>
        <time>2019-11-21T13:47:53Z</time>
      </trkpt>
      <trkpt lat="42.92267008" lon="-2.00478253">
        <ele>506.42133</ele>
        <time>2019-11-21T13:47:54Z</time>
      </trkpt>
      <trkpt lat="42.9226221" lon="-2.00519099">
        <ele>506.2567</ele>
        <time>2019-11-21T13:47:55Z</time>
      </trkpt>
      <trkpt lat="42.92257728" lon="-2.00560069">
        <ele>508.11792</ele>
        <time>2019-11-21T13:47:56Z</time>
      </trkpt>
      <trkpt lat="42.92253701" lon="-2.00600856">
        <ele>508.00928</ele>
        <time>2019-11-21T13:47:57Z</time>
      </trkpt>
      <trkpt lat="42.92251078" lon="-2.00641389">
        <ele>507.08203</ele>
        <time>2019-11-21T13:47:58Z</time>
      </trkpt>
      <trkpt lat="42.92250447" lon="-2.00682353">
        <ele>507.0454</ele>
        <time>2019-11-21T13:47:59Z</time>
      </trkpt>
      <trkpt lat="42.92249465" lon="-2.00723631">
        <ele>507.02136</ele>
        <time>2019-11-21T13:48:00Z</time>
      </trkpt>
      <trkpt lat="42.92249088" lon="-2.00764712">
        <ele>508.18848</ele>
        <time>2019-11-21T13:48:01Z</time>
      </trkpt>
      <trkpt lat="42.92249089" lon="-2.00806473">
        <ele>508.8659</ele>
        <time>2019-11-21T13:48:02Z</time>
      </trkpt>
      <trkpt lat="42.92248843" lon="-2.00848054">
        <ele>509.25</ele>
        <time>2019-11-21T13:48:03Z</time>
      </trkpt>
      <trkpt lat="42.92248984" lon="-2.00889637">
        <ele>510.3341</ele>
        <time>2019-11-21T13:48:04Z</time>
      </trkpt>
      <trkpt lat="42.92249216" lon="-2.00931399">
        <ele>510.9989</ele>
        <time>2019-11-21T13:48:05Z</time>
      </trkpt>
      <trkpt lat="42.92248194" lon="-2.00973178">
        <ele>511.7979</ele>
        <time>2019-11-21T13:48:06Z</time>
      </trkpt>
      <trkpt lat="42.92246383" lon="-2.01014702">
        <ele>512.5149</ele>
        <time>2019-11-21T13:48:07Z</time>
      </trkpt>
      <trkpt lat="42.92243881" lon="-2.01055929">
        <ele>513.12555</ele>
        <time>2019-11-21T13:48:08Z</time>
      </trkpt>
      <trkpt lat="42.92240271" lon="-2.01097169">
        <ele>513.4087</ele>
        <time>2019-11-21T13:48:09Z</time>
      </trkpt>
      <trkpt lat="42.92235127" lon="-2.011379">
        <ele>513.5388</ele>
        <time>2019-11-21T13:48:10Z</time>
      </trkpt>
      <trkpt lat="42.92229696" lon="-2.01178455">
        <ele>513.53064</ele>
        <time>2019-11-21T13:48:11Z</time>
      </trkpt>
      <trkpt lat="42.92221876" lon="-2.01217734">
        <ele>514.2825</ele>
        <time>2019-11-21T13:48:12Z</time>
      </trkpt>
      <trkpt lat="42.92212825" lon="-2.01256589">
        <ele>513.6241</ele>
        <time>2019-11-21T13:48:13Z</time>
      </trkpt>
      <trkpt lat="42.92203129" lon="-2.01295287">
        <ele>514.66364</ele>
        <time>2019-11-21T13:48:14Z</time>
      </trkpt>
      <trkpt lat="42.92192197" lon="-2.01333382">
        <ele>515.0383</ele>
        <time>2019-11-21T13:48:15Z</time>
      </trkpt>
      <trkpt lat="42.92180952" lon="-2.01371436">
        <ele>516.498</ele>
        <time>2019-11-21T13:48:16Z</time>
      </trkpt>
      <trkpt lat="42.92169059" lon="-2.01407717">
        <ele>516.4157</ele>
        <time>2019-11-21T13:48:17Z</time>
      </trkpt>
      <trkpt lat="42.92154038" lon="-2.01443185">
        <ele>515.8834</ele>
        <time>2019-11-21T13:48:18Z</time>
      </trkpt>
      <trkpt lat="42.92139255" lon="-2.01479466">
        <ele>516.2878</ele>
        <time>2019-11-21T13:48:20Z</time>
      </trkpt>
      <trkpt lat="42.92107034" lon="-2.01548976">
        <ele>517.1093</ele>
        <time>2019-11-21T13:48:21Z</time>
      </trkpt>
      <trkpt lat="42.92091269" lon="-2.01583815">
        <ele>517.43787</ele>
        <time>2019-11-21T13:48:22Z</time>
      </trkpt>
      <trkpt lat="42.92075425" lon="-2.01618826">
        <ele>519.5067</ele>
        <time>2019-11-21T13:48:23Z</time>
      </trkpt>
      <trkpt lat="42.920597" lon="-2.01653876">
        <ele>520.4763</ele>
        <time>2019-11-21T13:48:24Z</time>
      </trkpt>
      <trkpt lat="42.92045001" lon="-2.01689488">
        <ele>521.6001</ele>
        <time>2019-11-21T13:48:25Z</time>
      </trkpt>
      <trkpt lat="42.92031489" lon="-2.01726396">
        <ele>521.69806</ele>
        <time>2019-11-21T13:48:26Z</time>
      </trkpt>
      <trkpt lat="42.92018397" lon="-2.01763619">
        <ele>523.22186</ele>
        <time>2019-11-21T13:48:27Z</time>
      </trkpt>
      <trkpt lat="42.92006405" lon="-2.01801398">
        <ele>524.4158</ele>
        <time>2019-11-21T13:48:28Z</time>
      </trkpt>
      <trkpt lat="42.91995095" lon="-2.01839886">
        <ele>525.42444</ele>
        <time>2019-11-21T13:48:29Z</time>
      </trkpt>
      <trkpt lat="42.91985051" lon="-2.01878669">
        <ele>526.14124</ele>
        <time>2019-11-21T13:48:30Z</time>
      </trkpt>
      <trkpt lat="42.91975891" lon="-2.01917191">
        <ele>525.48364</ele>
        <time>2019-11-21T13:48:31Z</time>
      </trkpt>
      <trkpt lat="42.91967674" lon="-2.01957099">
        <ele>526.0193</ele>
        <time>2019-11-21T13:48:32Z</time>
      </trkpt>
      <trkpt lat="42.91959701" lon="-2.019961">
        <ele>526.4558</ele>
        <time>2019-11-21T13:48:33Z</time>
      </trkpt>
      <trkpt lat="42.9195241" lon="-2.02036314">
        <ele>526.2882</ele>
        <time>2019-11-21T13:48:34Z</time>
      </trkpt>
      <trkpt lat="42.91945218" lon="-2.02075891">
        <ele>526.27637</ele>
        <time>2019-11-21T13:48:35Z</time>
      </trkpt>
      <trkpt lat="42.91937415" lon="-2.02115417">
        <ele>527.6113</ele>
        <time>2019-11-21T13:48:36Z</time>
      </trkpt>
      <trkpt lat="42.91929279" lon="-2.02155876">
        <ele>529.0166</ele>
        <time>2019-11-21T13:48:37Z</time>
      </trkpt>
      <trkpt lat="42.91920348" lon="-2.0219541">
        <ele>530.0901</ele>
        <time>2019-11-21T13:48:38Z</time>
      </trkpt>
      <trkpt lat="42.9191194" lon="-2.02235183">
        <ele>530.854</ele>
        <time>2019-11-21T13:48:39Z</time>
      </trkpt>
      <trkpt lat="42.91902932" lon="-2.02274603">
        <ele>531.8894</ele>
        <time>2019-11-21T13:48:40Z</time>
      </trkpt>
      <trkpt lat="42.91893252" lon="-2.02312966">
        <ele>532.08984</ele>
        <time>2019-11-21T13:48:41Z</time>
      </trkpt>
      <trkpt lat="42.9188401" lon="-2.0235111">
        <ele>532.9636</ele>
        <time>2019-11-21T13:48:42Z</time>
      </trkpt>
      <trkpt lat="42.91873546" lon="-2.02391655">
        <ele>535.56055</ele>
        <time>2019-11-21T13:48:43Z</time>
      </trkpt>
      <trkpt lat="42.91863451" lon="-2.02429966">
        <ele>537.18787</ele>
        <time>2019-11-21T13:48:44Z</time>
      </trkpt>
      <trkpt lat="42.91852005" lon="-2.02469074">
        <ele>539.095</ele>
        <time>2019-11-21T13:48:45Z</time>
      </trkpt>
      <trkpt lat="42.9183969" lon="-2.02505943">
        <ele>539.95557</ele>
        <time>2019-11-21T13:48:46Z</time>
      </trkpt>
      <trkpt lat="42.91827556" lon="-2.02542068">
        <ele>540.4861</ele>
        <time>2019-11-21T13:48:47Z</time>
      </trkpt>
      <trkpt lat="42.91813175" lon="-2.02578015">
        <ele>541.4679</ele>
        <time>2019-11-21T13:48:49Z</time>
      </trkpt>
      <trkpt lat="42.91798338" lon="-2.02613799">
        <ele>542.5984</ele>
        <time>2019-11-21T13:48:50Z</time>
      </trkpt>
      <trkpt lat="42.91766946" lon="-2.02683709">
        <ele>544.2527</ele>
        <time>2019-11-21T13:48:51Z</time>
      </trkpt>
      <trkpt lat="42.9175076" lon="-2.02718088">
        <ele>544.5112</ele>
        <time>2019-11-21T13:48:52Z</time>
      </trkpt>
      <trkpt lat="42.91734388" lon="-2.02752392">
        <ele>545.687</ele>
        <time>2019-11-21T13:48:53Z</time>
      </trkpt>
      <trkpt lat="42.91717042" lon="-2.02786589">
        <ele>546.49414</ele>
        <time>2019-11-21T13:48:54Z</time>
      </trkpt>
      <trkpt lat="42.9169969" lon="-2.02820403">
        <ele>547.0808</ele>
        <time>2019-11-21T13:48:55Z</time>
      </trkpt>
      <trkpt lat="42.91681854" lon="-2.02853825">
        <ele>548.70605</ele>
        <time>2019-11-21T13:48:56Z</time>
      </trkpt>
      <trkpt lat="42.91663876" lon="-2.02886018">
        <ele>548.9905</ele>
        <time>2019-11-21T13:48:57Z</time>
      </trkpt>
      <trkpt lat="42.91644732" lon="-2.02918486">
        <ele>550.23267</ele>
        <time>2019-11-21T13:48:58Z</time>
      </trkpt>
      <trkpt lat="42.91625616" lon="-2.02950677">
        <ele>550.34546</ele>
        <time>2019-11-21T13:48:59Z</time>
      </trkpt>
      <trkpt lat="42.91606332" lon="-2.02982993">
        <ele>550.64746</ele>
        <time>2019-11-21T13:49:00Z</time>
      </trkpt>
      <trkpt lat="42.91587672" lon="-2.03014938">
        <ele>551.1444</ele>
        <time>2019-11-21T13:49:01Z</time>
      </trkpt>
      <trkpt lat="42.91569425" lon="-2.03048084">
        <ele>550.9175</ele>
        <time>2019-11-21T13:49:02Z</time>
      </trkpt>
      <trkpt lat="42.9155175" lon="-2.03081955">
        <ele>550.9784</ele>
        <time>2019-11-21T13:49:03Z</time>
      </trkpt>
      <trkpt lat="42.91534058" lon="-2.03115466">
        <ele>549.8926</ele>
        <time>2019-11-21T13:49:04Z</time>
      </trkpt>
      <trkpt lat="42.91517546" lon="-2.03150062">
        <ele>549.448</ele>
        <time>2019-11-21T13:49:05Z</time>
      </trkpt>
      <trkpt lat="42.91500586" lon="-2.03185143">
        <ele>549.7544</ele>
        <time>2019-11-21T13:49:06Z</time>
      </trkpt>
      <trkpt lat="42.91483049" lon="-2.03219238">
        <ele>549.772</ele>
        <time>2019-11-21T13:49:07Z</time>
      </trkpt>
      <trkpt lat="42.91465383" lon="-2.03253147">
        <ele>550.31226</ele>
        <time>2019-11-21T13:49:08Z</time>
      </trkpt>
      <trkpt lat="42.91446592" lon="-2.0328586">
        <ele>551.4426</ele>
        <time>2019-11-21T13:49:09Z</time>
      </trkpt>
      <trkpt lat="42.91427131" lon="-2.03318137">
        <ele>551.2605</ele>
        <time>2019-11-21T13:49:10Z</time>
      </trkpt>
      <trkpt lat="42.91407428" lon="-2.03349765">
        <ele>550.87195</ele>
        <time>2019-11-21T13:49:11Z</time>
      </trkpt>
      <trkpt lat="42.9138745" lon="-2.03381265">
        <ele>550.0586</ele>
        <time>2019-11-21T13:49:12Z</time>
      </trkpt>
      <trkpt lat="42.91367034" lon="-2.03411938">
        <ele>550.55835</ele>
        <time>2019-11-21T13:49:13Z</time>
      </trkpt>
      <trkpt lat="42.91346106" lon="-2.03441289">
        <ele>550.7855</ele>
        <time>2019-11-21T13:49:14Z</time>
      </trkpt>
      <trkpt lat="42.91324691" lon="-2.0347045">
        <ele>554.0027</ele>
        <time>2019-11-21T13:49:15Z</time>
      </trkpt>
      <trkpt lat="42.91302762" lon="-2.03498604">
        <ele>552.8345</ele>
        <time>2019-11-21T13:49:16Z</time>
      </trkpt>
      <trkpt lat="42.91280377" lon="-2.03525818">
        <ele>551.7001</ele>
        <time>2019-11-21T13:49:17Z</time>
      </trkpt>
      <trkpt lat="42.9125723" lon="-2.03552766">
        <ele>550.229</ele>
        <time>2019-11-21T13:49:19Z</time>
      </trkpt>
      <trkpt lat="42.912112" lon="-2.0360394">
        <ele>548.13477</ele>
        <time>2019-11-21T13:49:20Z</time>
      </trkpt>
      <trkpt lat="42.91187177" lon="-2.03629613">
        <ele>547.4219</ele>
        <time>2019-11-21T13:49:21Z</time>
      </trkpt>
      <trkpt lat="42.9116294" lon="-2.03654235">
        <ele>546.34973</ele>
        <time>2019-11-21T13:49:22Z</time>
      </trkpt>
      <trkpt lat="42.9113885" lon="-2.03679252">
        <ele>545.822</ele>
        <time>2019-11-21T13:49:23Z</time>
      </trkpt>
      <trkpt lat="42.91114529" lon="-2.03703838">
        <ele>545.20605</ele>
        <time>2019-11-21T13:49:24Z</time>
      </trkpt>
      <trkpt lat="42.91091116" lon="-2.03729645">
        <ele>544.40344</ele>
        <time>2019-11-21T13:49:25Z</time>
      </trkpt>
      <trkpt lat="42.91068228" lon="-2.03756065">
        <ele>544.7937</ele>
        <time>2019-11-21T13:49:26Z</time>
      </trkpt>
      <trkpt lat="42.91045543" lon="-2.03783937">
        <ele>545.2451</ele>
        <time>2019-11-21T13:49:27Z</time>
      </trkpt>
      <trkpt lat="42.9102319" lon="-2.03812292">
        <ele>545.1531</ele>
        <time>2019-11-21T13:49:28Z</time>
      </trkpt>
      <trkpt lat="42.91001501" lon="-2.03840848">
        <ele>545.49817</ele>
        <time>2019-11-21T13:49:29Z</time>
      </trkpt>
      <trkpt lat="42.90980708" lon="-2.03870854">
        <ele>545.25305</ele>
        <time>2019-11-21T13:49:30Z</time>
      </trkpt>
      <trkpt lat="42.90960313" lon="-2.03900321">
        <ele>545.5957</ele>
        <time>2019-11-21T13:49:31Z</time>
      </trkpt>
      <trkpt lat="42.90940617" lon="-2.03930531">
        <ele>545.43665</ele>
        <time>2019-11-21T13:49:32Z</time>
      </trkpt>
      <trkpt lat="42.90921466" lon="-2.03961535">
        <ele>545.54065</ele>
        <time>2019-11-21T13:49:33Z</time>
      </trkpt>
      <trkpt lat="42.9090291" lon="-2.03992466">
        <ele>545.32544</ele>
        <time>2019-11-21T13:49:34Z</time>
      </trkpt>
      <trkpt lat="42.90884141" lon="-2.04024856">
        <ele>546.37256</ele>
        <time>2019-11-21T13:49:35Z</time>
      </trkpt>
      <trkpt lat="42.90866297" lon="-2.04057441">
        <ele>547.74585</ele>
        <time>2019-11-21T13:49:36Z</time>
      </trkpt>
      <trkpt lat="42.90848548" lon="-2.04090909">
        <ele>548.51404</ele>
        <time>2019-11-21T13:49:37Z</time>
      </trkpt>
      <trkpt lat="42.90831585" lon="-2.04125834">
        <ele>547.55176</ele>
        <time>2019-11-21T13:49:38Z</time>
      </trkpt>
      <trkpt lat="42.90814407" lon="-2.04160457">
        <ele>548.1914</ele>
        <time>2019-11-21T13:49:39Z</time>
      </trkpt>
      <trkpt lat="42.90798169" lon="-2.04195797">
        <ele>549.05237</ele>
        <time>2019-11-21T13:49:40Z</time>
      </trkpt>
      <trkpt lat="42.90781689" lon="-2.04230252">
        <ele>548.73706</ele>
        <time>2019-11-21T13:49:41Z</time>
      </trkpt>
      <trkpt lat="42.90767052" lon="-2.04266525">
        <ele>549.74097</ele>
        <time>2019-11-21T13:49:42Z</time>
      </trkpt>
      <trkpt lat="42.90752862" lon="-2.04303875">
        <ele>549.7395</ele>
        <time>2019-11-21T13:49:43Z</time>
      </trkpt>
      <trkpt lat="42.90739154" lon="-2.04341377">
        <ele>550.2013</ele>
        <time>2019-11-21T13:49:44Z</time>
      </trkpt>
      <trkpt lat="42.90726824" lon="-2.04379329">
        <ele>551.6571</ele>
        <time>2019-11-21T13:49:45Z</time>
      </trkpt>
      <trkpt lat="42.90714432" lon="-2.04417375">
        <ele>552.9258</ele>
        <time>2019-11-21T13:49:47Z</time>
      </trkpt>
      <trkpt lat="42.90701315" lon="-2.04454943">
        <ele>553.5117</ele>
        <time>2019-11-21T13:49:48Z</time>
      </trkpt>
      <trkpt lat="42.9067587" lon="-2.04529401">
        <ele>553.41956</ele>
        <time>2019-11-21T13:49:49Z</time>
      </trkpt>
      <trkpt lat="42.90663131" lon="-2.04567104">
        <ele>554.0669</ele>
        <time>2019-11-21T13:49:50Z</time>
      </trkpt>
      <trkpt lat="42.9064885" lon="-2.04603587">
        <ele>553.51624</ele>
        <time>2019-11-21T13:49:51Z</time>
      </trkpt>
      <trkpt lat="42.9063349" lon="-2.04639606">
        <ele>553.0935</ele>
        <time>2019-11-21T13:49:52Z</time>
      </trkpt>
      <trkpt lat="42.90617772" lon="-2.046746">
        <ele>552.1531</ele>
        <time>2019-11-21T13:49:53Z</time>
      </trkpt>
      <trkpt lat="42.90601605" lon="-2.04709728">
        <ele>551.80493</ele>
        <time>2019-11-21T13:49:54Z</time>
      </trkpt>
      <trkpt lat="42.90584727" lon="-2.04744056">
        <ele>551.8125</ele>
        <time>2019-11-21T13:49:55Z</time>
      </trkpt>
      <trkpt lat="42.90567319" lon="-2.04778104">
        <ele>551.3926</ele>
        <time>2019-11-21T13:49:56Z</time>
      </trkpt>
      <trkpt lat="42.90549081" lon="-2.04811787">
        <ele>550.2097</ele>
        <time>2019-11-21T13:49:57Z</time>
      </trkpt>
      <trkpt lat="42.90530522" lon="-2.0484455">
        <ele>549.7529</ele>
        <time>2019-11-21T13:49:58Z</time>
      </trkpt>
      <trkpt lat="42.9051123" lon="-2.04877098">
        <ele>549.58105</ele>
        <time>2019-11-21T13:49:59Z</time>
      </trkpt>
      <trkpt lat="42.90491301" lon="-2.04908675">
        <ele>548.2595</ele>
        <time>2019-11-21T13:50:00Z</time>
      </trkpt>
      <trkpt lat="42.90470838" lon="-2.04939258">
        <ele>547.14404</ele>
        <time>2019-11-21T13:50:01Z</time>
      </trkpt>
      <trkpt lat="42.90450086" lon="-2.04969751">
        <ele>546.48926</ele>
        <time>2019-11-21T13:50:03Z</time>
      </trkpt>
      <trkpt lat="42.90429237" lon="-2.04999725">
        <ele>546.6887</ele>
        <time>2019-11-21T13:50:04Z</time>
      </trkpt>
      <trkpt lat="42.90407738" lon="-2.05027187">
        <ele>545.46606</ele>
        <time>2019-11-21T13:50:05Z</time>
      </trkpt>
      <trkpt lat="42.90386183" lon="-2.05055292">
        <ele>544.67944</ele>
        <time>2019-11-21T13:50:06Z</time>
      </trkpt>
      <trkpt lat="42.90363991" lon="-2.05083902">
        <ele>544.21387</ele>
        <time>2019-11-21T13:50:07Z</time>
      </trkpt>
      <trkpt lat="42.90341149" lon="-2.05111071">
        <ele>543.80176</ele>
        <time>2019-11-21T13:50:08Z</time>
      </trkpt>
      <trkpt lat="42.90318295" lon="-2.05137783">
        <ele>542.42896</ele>
        <time>2019-11-21T13:50:09Z</time>
      </trkpt>
      <trkpt lat="42.90295041" lon="-2.05162759">
        <ele>542.32007</ele>
        <time>2019-11-21T13:50:10Z</time>
      </trkpt>
      <trkpt lat="42.90271513" lon="-2.05188529">
        <ele>542.3425</ele>
        <time>2019-11-21T13:50:11Z</time>
      </trkpt>
      <trkpt lat="42.90248387" lon="-2.05215944">
        <ele>543.0698</ele>
        <time>2019-11-21T13:50:12Z</time>
      </trkpt>
      <trkpt lat="42.90226032" lon="-2.0524358">
        <ele>543.26807</ele>
        <time>2019-11-21T13:50:13Z</time>
      </trkpt>
      <trkpt lat="42.90204309" lon="-2.05272225">
        <ele>543.4297</ele>
        <time>2019-11-21T13:50:14Z</time>
      </trkpt>
      <trkpt lat="42.90183057" lon="-2.05301222">
        <ele>543.64233</ele>
        <time>2019-11-21T13:50:15Z</time>
      </trkpt>
      <trkpt lat="42.90162032" lon="-2.05330988">
        <ele>543.678</ele>
        <time>2019-11-21T13:50:16Z</time>
      </trkpt>
      <trkpt lat="42.90142045" lon="-2.05361077">
        <ele>544.7429</ele>
        <time>2019-11-21T13:50:17Z</time>
      </trkpt>
      <trkpt lat="42.90122827" lon="-2.05391742">
        <ele>543.8428</ele>
        <time>2019-11-21T13:50:18Z</time>
      </trkpt>
      <trkpt lat="42.90104804" lon="-2.0542425">
        <ele>543.77954</ele>
        <time>2019-11-21T13:50:19Z</time>
      </trkpt>
      <trkpt lat="42.90070825" lon="-2.0549087">
        <ele>543.3048</ele>
        <time>2019-11-21T13:50:20Z</time>
      </trkpt>
      <trkpt lat="42.90054419" lon="-2.05525494">
        <ele>542.8086</ele>
        <time>2019-11-21T13:50:21Z</time>
      </trkpt>
      <trkpt lat="42.90039538" lon="-2.05560496">
        <ele>543.6311</ele>
        <time>2019-11-21T13:50:22Z</time>
      </trkpt>
      <trkpt lat="42.90024919" lon="-2.05596162">
        <ele>543.50464</ele>
        <time>2019-11-21T13:50:23Z</time>
      </trkpt>
      <trkpt lat="42.90011589" lon="-2.05632851">
        <ele>543.6902</ele>
        <time>2019-11-21T13:50:24Z</time>
      </trkpt>
      <trkpt lat="42.89999775" lon="-2.05671545">
        <ele>544.33813</ele>
        <time>2019-11-21T13:50:25Z</time>
      </trkpt>
      <trkpt lat="42.89989033" lon="-2.05709863">
        <ele>547.66235</ele>
        <time>2019-11-21T13:50:26Z</time>
      </trkpt>
      <trkpt lat="42.89978867" lon="-2.05749073">
        <ele>548.8275</ele>
        <time>2019-11-21T13:50:27Z</time>
      </trkpt>
      <trkpt lat="42.8996973" lon="-2.05788708">
        <ele>549.82104</ele>
        <time>2019-11-21T13:50:28Z</time>
      </trkpt>
      <trkpt lat="42.89960996" lon="-2.05828392">
        <ele>550.0598</ele>
        <time>2019-11-21T13:50:29Z</time>
      </trkpt>
      <trkpt lat="42.89953431" lon="-2.05868847">
        <ele>550.58813</ele>
        <time>2019-11-21T13:50:30Z</time>
      </trkpt>
      <trkpt lat="42.89945869" lon="-2.05908816">
        <ele>550.16345</ele>
        <time>2019-11-21T13:50:31Z</time>
      </trkpt>
      <trkpt lat="42.89941686" lon="-2.05949812">
        <ele>550.1039</ele>
        <time>2019-11-21T13:50:32Z</time>
      </trkpt>
      <trkpt lat="42.8993733" lon="-2.05990527">
        <ele>550.1881</ele>
        <time>2019-11-21T13:50:33Z</time>
      </trkpt>
      <trkpt lat="42.89934801" lon="-2.06032452">
        <ele>550.8728</ele>
        <time>2019-11-21T13:50:34Z</time>
      </trkpt>
      <trkpt lat="42.89931905" lon="-2.06073862">
        <ele>549.3828</ele>
        <time>2019-11-21T13:50:35Z</time>
      </trkpt>
      <trkpt lat="42.89930614" lon="-2.06114625">
        <ele>547.3535</ele>
        <time>2019-11-21T13:50:37Z</time>
      </trkpt>
      <trkpt lat="42.89930629" lon="-2.06155699">
        <ele>546.86694</ele>
        <time>2019-11-21T13:50:38Z</time>
      </trkpt>
      <trkpt lat="42.89931455" lon="-2.0619715">
        <ele>545.7744</ele>
        <time>2019-11-21T13:50:39Z</time>
      </trkpt>
      <trkpt lat="42.89933686" lon="-2.06238405">
        <ele>545.6487</ele>
        <time>2019-11-21T13:50:40Z</time>
      </trkpt>
      <trkpt lat="42.89937011" lon="-2.06278955">
        <ele>543.77844</ele>
        <time>2019-11-21T13:50:41Z</time>
      </trkpt>
      <trkpt lat="42.89940943" lon="-2.06319886">
        <ele>543.1643</ele>
        <time>2019-11-21T13:50:42Z</time>
      </trkpt>
      <trkpt lat="42.89946" lon="-2.06360909">
        <ele>542.46423</ele>
        <time>2019-11-21T13:50:43Z</time>
      </trkpt>
      <trkpt lat="42.89950944" lon="-2.06401601">
        <ele>542.4768</ele>
        <time>2019-11-21T13:50:44Z</time>
      </trkpt>
      <trkpt lat="42.89958492" lon="-2.06442352">
        <ele>542.66345</ele>
        <time>2019-11-21T13:50:45Z</time>
      </trkpt>
      <trkpt lat="42.89963974" lon="-2.06482663">
        <ele>542.27795</ele>
        <time>2019-11-21T13:50:46Z</time>
      </trkpt>
      <trkpt lat="42.89969603" lon="-2.06523208">
        <ele>543.08716</ele>
        <time>2019-11-21T13:50:47Z</time>
      </trkpt>
      <trkpt lat="42.89975399" lon="-2.06563426">
        <ele>542.6614</ele>
        <time>2019-11-21T13:50:48Z</time>
      </trkpt>
      <trkpt lat="42.89984525" lon="-2.06644359">
        <ele>542.49585</ele>
        <time>2019-11-21T13:50:50Z</time>
      </trkpt>
      <trkpt lat="42.89988102" lon="-2.06684931">
        <ele>542.4596</ele>
        <time>2019-11-21T13:50:51Z</time>
      </trkpt>
      <trkpt lat="42.89990324" lon="-2.0672595">
        <ele>543.1858</ele>
        <time>2019-11-21T13:50:52Z</time>
      </trkpt>
      <trkpt lat="42.89991459" lon="-2.06767165">
        <ele>543.79016</ele>
        <time>2019-11-21T13:50:53Z</time>
      </trkpt>
      <trkpt lat="42.89991783" lon="-2.06849272">
        <ele>544.5596</ele>
        <time>2019-11-21T13:50:54Z</time>
      </trkpt>
      <trkpt lat="42.89990018" lon="-2.06889847">
        <ele>544.83765</ele>
        <time>2019-11-21T13:50:55Z</time>
      </trkpt>
      <trkpt lat="42.89987469" lon="-2.06931329">
        <ele>546.2556</ele>
        <time>2019-11-21T13:50:56Z</time>
      </trkpt>
      <trkpt lat="42.89982775" lon="-2.06971832">
        <ele>546.60034</ele>
        <time>2019-11-21T13:50:57Z</time>
      </trkpt>
      <trkpt lat="42.89977433" lon="-2.07012256">
        <ele>545.88586</ele>
        <time>2019-11-21T13:50:58Z</time>
      </trkpt>
      <trkpt lat="42.89971458" lon="-2.07052796">
        <ele>546.2405</ele>
        <time>2019-11-21T13:50:59Z</time>
      </trkpt>
      <trkpt lat="42.89964779" lon="-2.07093099">
        <ele>546.8352</ele>
        <time>2019-11-21T13:51:00Z</time>
      </trkpt>
      <trkpt lat="42.89957389" lon="-2.07132797">
        <ele>547.7295</ele>
        <time>2019-11-21T13:51:01Z</time>
      </trkpt>
      <trkpt lat="42.89948678" lon="-2.07172572">
        <ele>548.34204</ele>
        <time>2019-11-21T13:51:02Z</time>
      </trkpt>
      <trkpt lat="42.89940563" lon="-2.07211463">
        <ele>549.521</ele>
        <time>2019-11-21T13:51:03Z</time>
      </trkpt>
      <trkpt lat="42.89931466" lon="-2.0724972">
        <ele>549.90857</ele>
        <time>2019-11-21T13:51:04Z</time>
      </trkpt>
      <trkpt lat="42.89920601" lon="-2.07288399">
        <ele>549.3302</ele>
        <time>2019-11-21T13:51:05Z</time>
      </trkpt>
      <trkpt lat="42.89908194" lon="-2.07326987">
        <ele>549.9713</ele>
        <time>2019-11-21T13:51:07Z</time>
      </trkpt>
      <trkpt lat="42.89897441" lon="-2.0736524">
        <ele>551.0824</ele>
        <time>2019-11-21T13:51:08Z</time>
      </trkpt>
      <trkpt lat="42.89886278" lon="-2.07403711">
        <ele>551.26074</ele>
        <time>2019-11-21T13:51:09Z</time>
      </trkpt>
      <trkpt lat="42.89875589" lon="-2.07442781">
        <ele>551.48</ele>
        <time>2019-11-21T13:51:10Z</time>
      </trkpt>
      <trkpt lat="42.89864942" lon="-2.07481619">
        <ele>551.36743</ele>
        <time>2019-11-21T13:51:11Z</time>
      </trkpt>
      <trkpt lat="42.89854117" lon="-2.07520203">
        <ele>552.0592</ele>
        <time>2019-11-21T13:51:12Z</time>
      </trkpt>
      <trkpt lat="42.89843007" lon="-2.0755906">
        <ele>553.7202</ele>
        <time>2019-11-21T13:51:13Z</time>
      </trkpt>
      <trkpt lat="42.89832363" lon="-2.07597122">
        <ele>554.7827</ele>
        <time>2019-11-21T13:51:14Z</time>
      </trkpt>
      <trkpt lat="42.89820742" lon="-2.07635715">
        <ele>555.38965</ele>
        <time>2019-11-21T13:51:15Z</time>
      </trkpt>
      <trkpt lat="42.89809525" lon="-2.07673906">
        <ele>556.0259</ele>
        <time>2019-11-21T13:51:16Z</time>
      </trkpt>
      <trkpt lat="42.8979809" lon="-2.07712434">
        <ele>555.8552</ele>
        <time>2019-11-21T13:51:17Z</time>
      </trkpt>
      <trkpt lat="42.89786356" lon="-2.07750341">
        <ele>556.2378</ele>
        <time>2019-11-21T13:51:18Z</time>
      </trkpt>
      <trkpt lat="42.89774393" lon="-2.07787934">
        <ele>556.33374</ele>
        <time>2019-11-21T13:51:19Z</time>
      </trkpt>
      <trkpt lat="42.89761702" lon="-2.0782477">
        <ele>555.41113</ele>
        <time>2019-11-21T13:51:20Z</time>
      </trkpt>
      <trkpt lat="42.89738414" lon="-2.07900452">
        <ele>556.08374</ele>
        <time>2019-11-21T13:51:21Z</time>
      </trkpt>
      <trkpt lat="42.89725812" lon="-2.0793884">
        <ele>556.3828</ele>
        <time>2019-11-21T13:51:22Z</time>
      </trkpt>
      <trkpt lat="42.89713272" lon="-2.07976827">
        <ele>556.12146</ele>
        <time>2019-11-21T13:51:23Z</time>
      </trkpt>
      <trkpt lat="42.89700699" lon="-2.0801443">
        <ele>556.4907</ele>
        <time>2019-11-21T13:51:24Z</time>
      </trkpt>
      <trkpt lat="42.89687474" lon="-2.08052395">
        <ele>556.5991</ele>
        <time>2019-11-21T13:51:25Z</time>
      </trkpt>
      <trkpt lat="42.8967476" lon="-2.08090274">
        <ele>556.15967</ele>
        <time>2019-11-21T13:51:26Z</time>
      </trkpt>
      <trkpt lat="42.89662564" lon="-2.08127257">
        <ele>555.7468</ele>
        <time>2019-11-21T13:51:27Z</time>
      </trkpt>
      <trkpt lat="42.89649792" lon="-2.08164714">
        <ele>555.313</ele>
        <time>2019-11-21T13:51:28Z</time>
      </trkpt>
      <trkpt lat="42.89636799" lon="-2.08201928">
        <ele>555.55774</ele>
        <time>2019-11-21T13:51:29Z</time>
      </trkpt>
      <trkpt lat="42.89624159" lon="-2.08239749">
        <ele>554.6138</ele>
        <time>2019-11-21T13:51:30Z</time>
      </trkpt>
      <trkpt lat="42.89611527" lon="-2.08277398">
        <ele>554.9663</ele>
        <time>2019-11-21T13:51:31Z</time>
      </trkpt>
      <trkpt lat="42.89598589" lon="-2.08314285">
        <ele>555.59485</ele>
        <time>2019-11-21T13:51:32Z</time>
      </trkpt>
      <trkpt lat="42.89585549" lon="-2.0835123">
        <ele>555.1417</ele>
        <time>2019-11-21T13:51:33Z</time>
      </trkpt>
      <trkpt lat="42.89573097" lon="-2.08387704">
        <ele>554.92725</ele>
        <time>2019-11-21T13:51:35Z</time>
      </trkpt>
      <trkpt lat="42.89560278" lon="-2.08424498">
        <ele>555.17554</ele>
        <time>2019-11-21T13:51:36Z</time>
      </trkpt>
      <trkpt lat="42.89547411" lon="-2.0846175">
        <ele>554.5957</ele>
        <time>2019-11-21T13:51:37Z</time>
      </trkpt>
      <trkpt lat="42.89534501" lon="-2.08498526">
        <ele>554.86194</ele>
        <time>2019-11-21T13:51:38Z</time>
      </trkpt>
      <trkpt lat="42.89521569" lon="-2.08535359">
        <ele>555.515</ele>
        <time>2019-11-21T13:51:39Z</time>
      </trkpt>
      <trkpt lat="42.89508147" lon="-2.08572189">
        <ele>555.62134</ele>
        <time>2019-11-21T13:51:40Z</time>
      </trkpt>
      <trkpt lat="42.89495092" lon="-2.08608678">
        <ele>555.8086</ele>
        <time>2019-11-21T13:51:41Z</time>
      </trkpt>
      <trkpt lat="42.89483015" lon="-2.08645464">
        <ele>555.31335</ele>
        <time>2019-11-21T13:51:42Z</time>
      </trkpt>
      <trkpt lat="42.89469743" lon="-2.08681781">
        <ele>555.4187</ele>
        <time>2019-11-21T13:51:43Z</time>
      </trkpt>
      <trkpt lat="42.89457767" lon="-2.08717622">
        <ele>555.2217</ele>
        <time>2019-11-21T13:51:44Z</time>
      </trkpt>
      <trkpt lat="42.89444829" lon="-2.08754165">
        <ele>555.9231</ele>
        <time>2019-11-21T13:51:45Z</time>
      </trkpt>
      <trkpt lat="42.89432572" lon="-2.0879067">
        <ele>556.00745</ele>
        <time>2019-11-21T13:51:46Z</time>
      </trkpt>
      <trkpt lat="42.89420501" lon="-2.08828513">
        <ele>557.3981</ele>
        <time>2019-11-21T13:51:47Z</time>
      </trkpt>
      <trkpt lat="42.89409895" lon="-2.0886708">
        <ele>557.9971</ele>
        <time>2019-11-21T13:51:48Z</time>
      </trkpt>
      <trkpt lat="42.89399221" lon="-2.08907545">
        <ele>558.2838</ele>
        <time>2019-11-21T13:51:49Z</time>
      </trkpt>
      <trkpt lat="42.8938075" lon="-2.08987471">
        <ele>561.88794</ele>
        <time>2019-11-21T13:51:50Z</time>
      </trkpt>
      <trkpt lat="42.89372084" lon="-2.09028113">
        <ele>563.6282</ele>
        <time>2019-11-21T13:51:51Z</time>
      </trkpt>
      <trkpt lat="42.89363606" lon="-2.09065519">
        <ele>557.6614</ele>
        <time>2019-11-21T13:51:52Z</time>
      </trkpt>
      <trkpt lat="42.89356149" lon="-2.09106441">
        <ele>557.79346</ele>
        <time>2019-11-21T13:51:53Z</time>
      </trkpt>
      <trkpt lat="42.89348886" lon="-2.09146869">
        <ele>558.28296</ele>
        <time>2019-11-21T13:51:54Z</time>
      </trkpt>
      <trkpt lat="42.89342588" lon="-2.09187348">
        <ele>557.3622</ele>
        <time>2019-11-21T13:51:55Z</time>
      </trkpt>
      <trkpt lat="42.89337792" lon="-2.09228352">
        <ele>557.79236</ele>
        <time>2019-11-21T13:51:56Z</time>
      </trkpt>
      <trkpt lat="42.89332504" lon="-2.09269861">
        <ele>558.5073</ele>
        <time>2019-11-21T13:51:57Z</time>
      </trkpt>
      <trkpt lat="42.89328527" lon="-2.09310931">
        <ele>558.9563</ele>
        <time>2019-11-21T13:51:58Z</time>
      </trkpt>
      <trkpt lat="42.89324002" lon="-2.09351927">
        <ele>559.1328</ele>
        <time>2019-11-21T13:51:59Z</time>
      </trkpt>
      <trkpt lat="42.89319399" lon="-2.09392392">
        <ele>559.62305</ele>
        <time>2019-11-21T13:52:00Z</time>
      </trkpt>
      <trkpt lat="42.89315092" lon="-2.094321">
        <ele>558.8784</ele>
        <time>2019-11-21T13:52:01Z</time>
      </trkpt>
      <trkpt lat="42.89310463" lon="-2.09472523">
        <ele>559.8435</ele>
        <time>2019-11-21T13:52:02Z</time>
      </trkpt>
      <trkpt lat="42.89306971" lon="-2.09512838">
        <ele>560.031</ele>
        <time>2019-11-21T13:52:03Z</time>
      </trkpt>
      <trkpt lat="42.89304679" lon="-2.09553277">
        <ele>560.0154</ele>
        <time>2019-11-21T13:52:05Z</time>
      </trkpt>
      <trkpt lat="42.89304348" lon="-2.09595435">
        <ele>560.54663</ele>
        <time>2019-11-21T13:52:06Z</time>
      </trkpt>
      <trkpt lat="42.8930507" lon="-2.09636357">
        <ele>560.06055</ele>
        <time>2019-11-21T13:52:07Z</time>
      </trkpt>
      <trkpt lat="42.89306809" lon="-2.09677333">
        <ele>559.90063</ele>
        <time>2019-11-21T13:52:08Z</time>
      </trkpt>
      <trkpt lat="42.89309648" lon="-2.09717479">
        <ele>560.76465</ele>
        <time>2019-11-21T13:52:09Z</time>
      </trkpt>
      <trkpt lat="42.89312879" lon="-2.09757045">
        <ele>560.7117</ele>
        <time>2019-11-21T13:52:10Z</time>
      </trkpt>
      <trkpt lat="42.89316498" lon="-2.09796092">
        <ele>561.24</ele>
        <time>2019-11-21T13:52:11Z</time>
      </trkpt>
      <trkpt lat="42.89320535" lon="-2.09834658">
        <ele>561.28625</ele>
        <time>2019-11-21T13:52:12Z</time>
      </trkpt>
      <trkpt lat="42.89324041" lon="-2.09872736">
        <ele>561.54736</ele>
        <time>2019-11-21T13:52:13Z</time>
      </trkpt>
      <trkpt lat="42.89327555" lon="-2.09909833">
        <ele>561.1997</ele>
        <time>2019-11-21T13:52:14Z</time>
      </trkpt>
      <trkpt lat="42.89331105" lon="-2.09946031">
        <ele>561.3218</ele>
        <time>2019-11-21T13:52:15Z</time>
      </trkpt>
      <trkpt lat="42.89334539" lon="-2.09981737">
        <ele>561.2456</ele>
        <time>2019-11-21T13:52:16Z</time>
      </trkpt>
      <trkpt lat="42.89338156" lon="-2.1001687">
        <ele>560.98145</ele>
        <time>2019-11-21T13:52:17Z</time>
      </trkpt>
      <trkpt lat="42.89341207" lon="-2.10051603">
        <ele>560.6183</ele>
        <time>2019-11-21T13:52:18Z</time>
      </trkpt>
      <trkpt lat="42.89343181" lon="-2.10086166">
        <ele>560.666</ele>
        <time>2019-11-21T13:52:19Z</time>
      </trkpt>
      <trkpt lat="42.89347062" lon="-2.10121342">
        <ele>558.7075</ele>
        <time>2019-11-21T13:52:20Z</time>
      </trkpt>
      <trkpt lat="42.89350101" lon="-2.10155973">
        <ele>556.2096</ele>
        <time>2019-11-21T13:52:21Z</time>
      </trkpt>
      <trkpt lat="42.89353301" lon="-2.10191684">
        <ele>554.5427</ele>
        <time>2019-11-21T13:52:22Z</time>
      </trkpt>
      <trkpt lat="42.89360184" lon="-2.10266022">
        <ele>553.8517</ele>
        <time>2019-11-21T13:52:23Z</time>
      </trkpt>
      <trkpt lat="42.89362283" lon="-2.10304374">
        <ele>554.0569</ele>
        <time>2019-11-21T13:52:24Z</time>
      </trkpt>
      <trkpt lat="42.89363278" lon="-2.10343544">
        <ele>553.322</ele>
        <time>2019-11-21T13:52:25Z</time>
      </trkpt>
      <trkpt lat="42.89362024" lon="-2.10383501">
        <ele>552.99854</ele>
        <time>2019-11-21T13:52:26Z</time>
      </trkpt>
      <trkpt lat="42.89360796" lon="-2.10423744">
        <ele>553.26013</ele>
        <time>2019-11-21T13:52:27Z</time>
      </trkpt>
      <trkpt lat="42.8935769" lon="-2.10463929">
        <ele>552.4939</ele>
        <time>2019-11-21T13:52:28Z</time>
      </trkpt>
      <trkpt lat="42.89353898" lon="-2.10504277">
        <ele>551.6964</ele>
        <time>2019-11-21T13:52:29Z</time>
      </trkpt>
      <trkpt lat="42.89350109" lon="-2.10544111">
        <ele>552.345</ele>
        <time>2019-11-21T13:52:30Z</time>
      </trkpt>
      <trkpt lat="42.8934412" lon="-2.1058423">
        <ele>552.6416</ele>
        <time>2019-11-21T13:52:31Z</time>
      </trkpt>
      <trkpt lat="42.89338523" lon="-2.10624168">
        <ele>552.7715</ele>
        <time>2019-11-21T13:52:32Z</time>
      </trkpt>
      <trkpt lat="42.89332816" lon="-2.10664763">
        <ele>552.99646</ele>
        <time>2019-11-21T13:52:33Z</time>
      </trkpt>
      <trkpt lat="42.89326759" lon="-2.10705126">
        <ele>558.7854</ele>
        <time>2019-11-21T13:52:34Z</time>
      </trkpt>
      <trkpt lat="42.89321219" lon="-2.10745376">
        <ele>557.2256</ele>
        <time>2019-11-21T13:52:35Z</time>
      </trkpt>
      <trkpt lat="42.8931536" lon="-2.1078566">
        <ele>557.9429</ele>
        <time>2019-11-21T13:52:37Z</time>
      </trkpt>
      <trkpt lat="42.89309784" lon="-2.10826237">
        <ele>557.0989</ele>
        <time>2019-11-21T13:52:38Z</time>
      </trkpt>
      <trkpt lat="42.89304391" lon="-2.10866744">
        <ele>556.69763</ele>
        <time>2019-11-21T13:52:39Z</time>
      </trkpt>
      <trkpt lat="42.89298631" lon="-2.10907182">
        <ele>557.8402</ele>
        <time>2019-11-21T13:52:40Z</time>
      </trkpt>
      <trkpt lat="42.89293363" lon="-2.10947714">
        <ele>557.38855</ele>
        <time>2019-11-21T13:52:41Z</time>
      </trkpt>
      <trkpt lat="42.89288017" lon="-2.10987992">
        <ele>557.7285</ele>
        <time>2019-11-21T13:52:42Z</time>
      </trkpt>
      <trkpt lat="42.89281722" lon="-2.110274">
        <ele>556.9348</ele>
        <time>2019-11-21T13:52:43Z</time>
      </trkpt>
      <trkpt lat="42.89276387" lon="-2.11067411">
        <ele>556.657</ele>
        <time>2019-11-21T13:52:44Z</time>
      </trkpt>
      <trkpt lat="42.89271019" lon="-2.11107711">
        <ele>555.6648</ele>
        <time>2019-11-21T13:52:45Z</time>
      </trkpt>
      <trkpt lat="42.89266138" lon="-2.11147577">
        <ele>555.2157</ele>
        <time>2019-11-21T13:52:46Z</time>
      </trkpt>
      <trkpt lat="42.89261012" lon="-2.11188119">
        <ele>555.8345</ele>
        <time>2019-11-21T13:52:47Z</time>
      </trkpt>
      <trkpt lat="42.89254826" lon="-2.11227865">
        <ele>555.0509</ele>
        <time>2019-11-21T13:52:48Z</time>
      </trkpt>
      <trkpt lat="42.89249303" lon="-2.1126814">
        <ele>555.13916</ele>
        <time>2019-11-21T13:52:49Z</time>
      </trkpt>
      <trkpt lat="42.89243758" lon="-2.11308702">
        <ele>555.2781</ele>
        <time>2019-11-21T13:52:50Z</time>
      </trkpt>
      <trkpt lat="42.89238669" lon="-2.11347938">
        <ele>555.72</ele>
        <time>2019-11-21T13:52:51Z</time>
      </trkpt>
      <trkpt lat="42.89233782" lon="-2.11388888">
        <ele>557.11865</ele>
        <time>2019-11-21T13:52:52Z</time>
      </trkpt>
      <trkpt lat="42.89228821" lon="-2.11429622">
        <ele>556.97095</ele>
        <time>2019-11-21T13:52:53Z</time>
      </trkpt>
      <trkpt lat="42.89223828" lon="-2.11469808">
        <ele>555.9055</ele>
        <time>2019-11-21T13:52:54Z</time>
      </trkpt>
      <trkpt lat="42.89213665" lon="-2.1155145">
        <ele>555.86694</ele>
        <time>2019-11-21T13:52:55Z</time>
      </trkpt>
      <trkpt lat="42.89208209" lon="-2.11592203">
        <ele>555.76025</ele>
        <time>2019-11-21T13:52:56Z</time>
      </trkpt>
      <trkpt lat="42.89203002" lon="-2.11632463">
        <ele>556.1809</ele>
        <time>2019-11-21T13:52:57Z</time>
      </trkpt>
      <trkpt lat="42.89197325" lon="-2.11672163">
        <ele>556.25</ele>
        <time>2019-11-21T13:52:58Z</time>
      </trkpt>
      <trkpt lat="42.89192555" lon="-2.11713015">
        <ele>556.2787</ele>
        <time>2019-11-21T13:52:59Z</time>
      </trkpt>
      <trkpt lat="42.89187621" lon="-2.11753979">
        <ele>557.29346</ele>
        <time>2019-11-21T13:53:00Z</time>
      </trkpt>
      <trkpt lat="42.89183207" lon="-2.11794459">
        <ele>558.197</ele>
        <time>2019-11-21T13:53:01Z</time>
      </trkpt>
      <trkpt lat="42.89178873" lon="-2.11835201">
        <ele>559.0</ele>
        <time>2019-11-21T13:53:02Z</time>
      </trkpt>
      <trkpt lat="42.8917441" lon="-2.11875943">
        <ele>559.53357</ele>
        <time>2019-11-21T13:53:03Z</time>
      </trkpt>
      <trkpt lat="42.89170136" lon="-2.11916722">
        <ele>559.35767</ele>
        <time>2019-11-21T13:53:04Z</time>
      </trkpt>
      <trkpt lat="42.89165999" lon="-2.11957116">
        <ele>558.96643</ele>
        <time>2019-11-21T13:53:05Z</time>
      </trkpt>
      <trkpt lat="42.89162755" lon="-2.11998018">
        <ele>560.5592</ele>
        <time>2019-11-21T13:53:06Z</time>
      </trkpt>
      <trkpt lat="42.89160415" lon="-2.12038995">
        <ele>561.3887</ele>
        <time>2019-11-21T13:53:08Z</time>
      </trkpt>
      <trkpt lat="42.8915784" lon="-2.12079595">
        <ele>560.7865</ele>
        <time>2019-11-21T13:53:09Z</time>
      </trkpt>
      <trkpt lat="42.89155947" lon="-2.1212142">
        <ele>559.8447</ele>
        <time>2019-11-21T13:53:10Z</time>
      </trkpt>
      <trkpt lat="42.89154139" lon="-2.12163231">
        <ele>558.7516</ele>
        <time>2019-11-21T13:53:11Z</time>
      </trkpt>
      <trkpt lat="42.8915359" lon="-2.12204217">
        <ele>559.2626</ele>
        <time>2019-11-21T13:53:12Z</time>
      </trkpt>
      <trkpt lat="42.89153381" lon="-2.12245734">
        <ele>566.8827</ele>
        <time>2019-11-21T13:53:13Z</time>
      </trkpt>
      <trkpt lat="42.89152917" lon="-2.12287431">
        <ele>563.4165</ele>
        <time>2019-11-21T13:53:14Z</time>
      </trkpt>
      <trkpt lat="42.89152235" lon="-2.12328808">
        <ele>560.5322</ele>
        <time>2019-11-21T13:53:15Z</time>
      </trkpt>
      <trkpt lat="42.89151106" lon="-2.12370386">
        <ele>558.7029</ele>
        <time>2019-11-21T13:53:16Z</time>
      </trkpt>
      <trkpt lat="42.891498" lon="-2.12412013">
        <ele>557.48145</ele>
        <time>2019-11-21T13:53:17Z</time>
      </trkpt>
      <trkpt lat="42.89148817" lon="-2.12453871">
        <ele>557.1863</ele>
        <time>2019-11-21T13:53:18Z</time>
      </trkpt>
      <trkpt lat="42.8914801" lon="-2.1249526">
        <ele>556.3926</ele>
        <time>2019-11-21T13:53:19Z</time>
      </trkpt>
      <trkpt lat="42.89146817" lon="-2.12536362">
        <ele>555.47253</ele>
        <time>2019-11-21T13:53:20Z</time>
      </trkpt>
      <trkpt lat="42.89145426" lon="-2.12578175">
        <ele>554.62695</ele>
        <time>2019-11-21T13:53:21Z</time>
      </trkpt>
      <trkpt lat="42.89143028" lon="-2.12618501">
        <ele>554.1365</ele>
        <time>2019-11-21T13:53:22Z</time>
      </trkpt>
      <trkpt lat="42.89139922" lon="-2.12658734">
        <ele>553.98706</ele>
        <time>2019-11-21T13:53:23Z</time>
      </trkpt>
      <trkpt lat="42.8913848" lon="-2.12699938">
        <ele>554.52246</ele>
        <time>2019-11-21T13:53:24Z</time>
      </trkpt>
      <trkpt lat="42.89136689" lon="-2.12740708">
        <ele>554.4487</ele>
        <time>2019-11-21T13:53:25Z</time>
      </trkpt>
      <trkpt lat="42.89138116" lon="-2.12821668">
        <ele>554.84644</ele>
        <time>2019-11-21T13:53:26Z</time>
      </trkpt>
      <trkpt lat="42.89140129" lon="-2.12861592">
        <ele>554.75415</ele>
        <time>2019-11-21T13:53:27Z</time>
      </trkpt>
      <trkpt lat="42.89144021" lon="-2.12900915">
        <ele>559.874</ele>
        <time>2019-11-21T13:53:28Z</time>
      </trkpt>
      <trkpt lat="42.89148955" lon="-2.12941689">
        <ele>558.42847</ele>
        <time>2019-11-21T13:53:29Z</time>
      </trkpt>
      <trkpt lat="42.89155023" lon="-2.12982286">
        <ele>558.3308</ele>
        <time>2019-11-21T13:53:30Z</time>
      </trkpt>
      <trkpt lat="42.89161851" lon="-2.13021564">
        <ele>557.1542</ele>
        <time>2019-11-21T13:53:31Z</time>
      </trkpt>
      <trkpt lat="42.89169996" lon="-2.13060611">
        <ele>556.31323</ele>
        <time>2019-11-21T13:53:32Z</time>
      </trkpt>
      <trkpt lat="42.8917877" lon="-2.13098955">
        <ele>556.7212</ele>
        <time>2019-11-21T13:53:33Z</time>
      </trkpt>
      <trkpt lat="42.89187377" lon="-2.13137931">
        <ele>556.8661</ele>
        <time>2019-11-21T13:53:34Z</time>
      </trkpt>
      <trkpt lat="42.89196155" lon="-2.13176635">
        <ele>556.8761</ele>
        <time>2019-11-21T13:53:35Z</time>
      </trkpt>
      <trkpt lat="42.89204349" lon="-2.13216686">
        <ele>557.5491</ele>
        <time>2019-11-21T13:53:36Z</time>
      </trkpt>
      <trkpt lat="42.89211965" lon="-2.13255962">
        <ele>557.7805</ele>
        <time>2019-11-21T13:53:37Z</time>
      </trkpt>
      <trkpt lat="42.89219803" lon="-2.13295361">
        <ele>558.28467</ele>
        <time>2019-11-21T13:53:38Z</time>
      </trkpt>
      <trkpt lat="42.8922706" lon="-2.13335946">
        <ele>558.948</ele>
        <time>2019-11-21T13:53:39Z</time>
      </trkpt>
      <trkpt lat="42.8923236" lon="-2.13376069">
        <ele>559.60474</ele>
        <time>2019-11-21T13:53:41Z</time>
      </trkpt>
      <trkpt lat="42.89238732" lon="-2.13417157">
        <ele>560.7057</ele>
        <time>2019-11-21T13:53:42Z</time>
      </trkpt>
      <trkpt lat="42.89244256" lon="-2.13458111">
        <ele>562.4282</ele>
        <time>2019-11-21T13:53:43Z</time>
      </trkpt>
      <trkpt lat="42.89248224" lon="-2.13500073">
        <ele>563.4463</ele>
        <time>2019-11-21T13:53:44Z</time>
      </trkpt>
      <trkpt lat="42.89251444" lon="-2.13541961">
        <ele>563.56836</ele>
        <time>2019-11-21T13:53:45Z</time>
      </trkpt>
      <trkpt lat="42.89254114" lon="-2.13583161">
        <ele>564.6918</ele>
        <time>2019-11-21T13:53:46Z</time>
      </trkpt>
      <trkpt lat="42.89255715" lon="-2.13625042">
        <ele>564.6565</ele>
        <time>2019-11-21T13:53:47Z</time>
      </trkpt>
      <trkpt lat="42.8925545" lon="-2.13666524">
        <ele>564.5017</ele>
        <time>2019-11-21T13:53:48Z</time>
      </trkpt>
      <trkpt lat="42.89254486" lon="-2.1370867">
        <ele>564.07263</ele>
        <time>2019-11-21T13:53:49Z</time>
      </trkpt>
      <trkpt lat="42.89253115" lon="-2.137504">
        <ele>564.3071</ele>
        <time>2019-11-21T13:53:50Z</time>
      </trkpt>
      <trkpt lat="42.89251176" lon="-2.1379217">
        <ele>564.6238</ele>
        <time>2019-11-21T13:53:51Z</time>
      </trkpt>
      <trkpt lat="42.89247766" lon="-2.13833738">
        <ele>563.9497</ele>
        <time>2019-11-21T13:53:52Z</time>
      </trkpt>
      <trkpt lat="42.89243936" lon="-2.13875043">
        <ele>563.7257</ele>
        <time>2019-11-21T13:53:53Z</time>
      </trkpt>
      <trkpt lat="42.89239313" lon="-2.1391607">
        <ele>564.2024</ele>
        <time>2019-11-21T13:53:54Z</time>
      </trkpt>
      <trkpt lat="42.89233667" lon="-2.13956958">
        <ele>564.7102</ele>
        <time>2019-11-21T13:53:55Z</time>
      </trkpt>
      <trkpt lat="42.89226707" lon="-2.13996877">
        <ele>565.17224</ele>
        <time>2019-11-21T13:53:56Z</time>
      </trkpt>
      <trkpt lat="42.89218865" lon="-2.14036293">
        <ele>565.19775</ele>
        <time>2019-11-21T13:53:57Z</time>
      </trkpt>
      <trkpt lat="42.89210636" lon="-2.14074462">
        <ele>565.9602</ele>
        <time>2019-11-21T13:53:58Z</time>
      </trkpt>
      <trkpt lat="42.89201793" lon="-2.14112313">
        <ele>566.75244</ele>
        <time>2019-11-21T13:53:59Z</time>
      </trkpt>
      <trkpt lat="42.89191936" lon="-2.14149576">
        <ele>568.1521</ele>
        <time>2019-11-21T13:54:00Z</time>
      </trkpt>
      <trkpt lat="42.89181863" lon="-2.14187615">
        <ele>568.5691</ele>
        <time>2019-11-21T13:54:01Z</time>
      </trkpt>
      <trkpt lat="42.89160594" lon="-2.14262804">
        <ele>569.7615</ele>
        <time>2019-11-21T13:54:02Z</time>
      </trkpt>
      <trkpt lat="42.8915014" lon="-2.14300037">
        <ele>569.874</ele>
        <time>2019-11-21T13:54:03Z</time>
      </trkpt>
      <trkpt lat="42.89139714" lon="-2.14336137">
        <ele>570.6609</ele>
        <time>2019-11-21T13:54:04Z</time>
      </trkpt>
      <trkpt lat="42.89129828" lon="-2.14372658">
        <ele>570.6555</ele>
        <time>2019-11-21T13:54:05Z</time>
      </trkpt>
      <trkpt lat="42.89120432" lon="-2.14409837">
        <ele>571.5249</ele>
        <time>2019-11-21T13:54:06Z</time>
      </trkpt>
      <trkpt lat="42.89112446" lon="-2.14445858">
        <ele>571.5481</ele>
        <time>2019-11-21T13:54:07Z</time>
      </trkpt>
      <trkpt lat="42.89104519" lon="-2.1448258">
        <ele>571.9038</ele>
        <time>2019-11-21T13:54:08Z</time>
      </trkpt>
      <trkpt lat="42.89097408" lon="-2.14519961">
        <ele>572.0895</ele>
        <time>2019-11-21T13:54:09Z</time>
      </trkpt>
      <trkpt lat="42.89091677" lon="-2.1455603">
        <ele>573.12036</ele>
        <time>2019-11-21T13:54:10Z</time>
      </trkpt>
      <trkpt lat="42.89086652" lon="-2.14593455">
        <ele>573.2876</ele>
        <time>2019-11-21T13:54:11Z</time>
      </trkpt>
      <trkpt lat="42.89081912" lon="-2.14632501">
        <ele>573.8135</ele>
        <time>2019-11-21T13:54:12Z</time>
      </trkpt>
      <trkpt lat="42.89078552" lon="-2.14672025">
        <ele>573.8684</ele>
        <time>2019-11-21T13:54:13Z</time>
      </trkpt>
      <trkpt lat="42.89076101" lon="-2.14711182">
        <ele>574.0613</ele>
        <time>2019-11-21T13:54:14Z</time>
      </trkpt>
      <trkpt lat="42.89074656" lon="-2.14750377">
        <ele>574.3954</ele>
        <time>2019-11-21T13:54:15Z</time>
      </trkpt>
      <trkpt lat="42.89073632" lon="-2.14789845">
        <ele>574.4175</ele>
        <time>2019-11-21T13:54:17Z</time>
      </trkpt>
      <trkpt lat="42.89073621" lon="-2.14829875">
        <ele>574.19165</ele>
        <time>2019-11-21T13:54:18Z</time>
      </trkpt>
      <trkpt lat="42.89074561" lon="-2.14869768">
        <ele>573.5686</ele>
        <time>2019-11-21T13:54:19Z</time>
      </trkpt>
      <trkpt lat="42.89075545" lon="-2.1491067">
        <ele>573.5277</ele>
        <time>2019-11-21T13:54:20Z</time>
      </trkpt>
      <trkpt lat="42.89076738" lon="-2.14951746">
        <ele>573.51904</ele>
        <time>2019-11-21T13:54:21Z</time>
      </trkpt>
      <trkpt lat="42.89078005" lon="-2.14993209">
        <ele>573.33777</ele>
        <time>2019-11-21T13:54:22Z</time>
      </trkpt>
      <trkpt lat="42.8907902" lon="-2.15034252">
        <ele>572.6598</ele>
        <time>2019-11-21T13:54:23Z</time>
      </trkpt>
      <trkpt lat="42.89080322" lon="-2.15075286">
        <ele>573.14905</ele>
        <time>2019-11-21T13:54:24Z</time>
      </trkpt>
      <trkpt lat="42.89081157" lon="-2.15116499">
        <ele>571.4409</ele>
        <time>2019-11-21T13:54:25Z</time>
      </trkpt>
      <trkpt lat="42.89082078" lon="-2.1515823">
        <ele>570.8738</ele>
        <time>2019-11-21T13:54:26Z</time>
      </trkpt>
      <trkpt lat="42.89082483" lon="-2.15199709">
        <ele>570.85</ele>
        <time>2019-11-21T13:54:27Z</time>
      </trkpt>
      <trkpt lat="42.89082458" lon="-2.15240415">
        <ele>569.6321</ele>
        <time>2019-11-21T13:54:28Z</time>
      </trkpt>
      <trkpt lat="42.89082618" lon="-2.15281798">
        <ele>568.8943</ele>
        <time>2019-11-21T13:54:29Z</time>
      </trkpt>
      <trkpt lat="42.89082569" lon="-2.15323045">
        <ele>568.6665</ele>
        <time>2019-11-21T13:54:30Z</time>
      </trkpt>
      <trkpt lat="42.89082862" lon="-2.15364578">
        <ele>568.10645</ele>
        <time>2019-11-21T13:54:31Z</time>
      </trkpt>
      <trkpt lat="42.89083015" lon="-2.15405565">
        <ele>567.823</ele>
        <time>2019-11-21T13:54:32Z</time>
      </trkpt>
      <trkpt lat="42.89083043" lon="-2.15487476">
        <ele>567.84717</ele>
        <time>2019-11-21T13:54:33Z</time>
      </trkpt>
      <trkpt lat="42.89082675" lon="-2.15528712">
        <ele>568.20386</ele>
        <time>2019-11-21T13:54:34Z</time>
      </trkpt>
      <trkpt lat="42.89081065" lon="-2.15570247">
        <ele>568.50903</ele>
        <time>2019-11-21T13:54:35Z</time>
      </trkpt>
      <trkpt lat="42.89078909" lon="-2.1561117">
        <ele>568.8971</ele>
        <time>2019-11-21T13:54:36Z</time>
      </trkpt>
      <trkpt lat="42.89075327" lon="-2.15651706">
        <ele>569.2417</ele>
        <time>2019-11-21T13:54:37Z</time>
      </trkpt>
      <trkpt lat="42.89070592" lon="-2.15692029">
        <ele>569.7173</ele>
        <time>2019-11-21T13:54:38Z</time>
      </trkpt>
      <trkpt lat="42.89065335" lon="-2.15731891">
        <ele>570.65015</ele>
        <time>2019-11-21T13:54:39Z</time>
      </trkpt>
      <trkpt lat="42.89058519" lon="-2.15771614">
        <ele>571.7717</ele>
        <time>2019-11-21T13:54:40Z</time>
      </trkpt>
      <trkpt lat="42.89050867" lon="-2.15810953">
        <ele>572.73267</ele>
        <time>2019-11-21T13:54:41Z</time>
      </trkpt>
      <trkpt lat="42.89042238" lon="-2.15850128">
        <ele>573.0326</ele>
        <time>2019-11-21T13:54:42Z</time>
      </trkpt>
      <trkpt lat="42.89032326" lon="-2.15888837">
        <ele>572.7455</ele>
        <time>2019-11-21T13:54:43Z</time>
      </trkpt>
      <trkpt lat="42.89021581" lon="-2.1592649">
        <ele>573.96204</ele>
        <time>2019-11-21T13:54:44Z</time>
      </trkpt>
      <trkpt lat="42.8900947" lon="-2.15963577">
        <ele>572.8596</ele>
        <time>2019-11-21T13:54:45Z</time>
      </trkpt>
      <trkpt lat="42.88995377" lon="-2.16000668">
        <ele>572.4658</ele>
        <time>2019-11-21T13:54:46Z</time>
      </trkpt>
      <trkpt lat="42.88981555" lon="-2.16037132">
        <ele>572.5781</ele>
        <time>2019-11-21T13:54:48Z</time>
      </trkpt>
      <trkpt lat="42.88967349" lon="-2.16072686">
        <ele>571.2898</ele>
        <time>2019-11-21T13:54:49Z</time>
      </trkpt>
      <trkpt lat="42.88937187" lon="-2.16144497">
        <ele>571.2898</ele>
        <time>2019-11-21T13:54:51Z</time>
      </trkpt>
      <trkpt lat="42.88921992" lon="-2.16180441">
        <ele>571.2285</ele>
        <time>2019-11-21T13:54:52Z</time>
      </trkpt>
      <trkpt lat="42.88907466" lon="-2.16217182">
        <ele>570.8159</ele>
        <time>2019-11-21T13:54:53Z</time>
      </trkpt>
      <trkpt lat="42.88893561" lon="-2.16254003">
        <ele>570.5906</ele>
        <time>2019-11-21T13:54:54Z</time>
      </trkpt>
      <trkpt lat="42.88880189" lon="-2.1629111">
        <ele>570.6179</ele>
        <time>2019-11-21T13:54:55Z</time>
      </trkpt>
      <trkpt lat="42.88868265" lon="-2.1632898">
        <ele>571.54395</ele>
        <time>2019-11-21T13:54:56Z</time>
      </trkpt>
      <trkpt lat="42.88857469" lon="-2.1636721">
        <ele>572.0122</ele>
        <time>2019-11-21T13:54:57Z</time>
      </trkpt>
      <trkpt lat="42.88847128" lon="-2.16406164">
        <ele>572.6682</ele>
        <time>2019-11-21T13:54:58Z</time>
      </trkpt>
      <trkpt lat="42.88837806" lon="-2.16445347">
        <ele>573.2147</ele>
        <time>2019-11-21T13:54:59Z</time>
      </trkpt>
      <trkpt lat="42.88829459" lon="-2.16484818">
        <ele>572.8518</ele>
        <time>2019-11-21T13:55:00Z</time>
      </trkpt>
      <trkpt lat="42.88822489" lon="-2.16524103">
        <ele>572.9155</ele>
        <time>2019-11-21T13:55:01Z</time>
      </trkpt>
      <trkpt lat="42.8881713" lon="-2.16562908">
        <ele>573.00757</ele>
        <time>2019-11-21T13:55:02Z</time>
      </trkpt>
      <trkpt lat="42.88812397" lon="-2.16600106">
        <ele>572.0322</ele>
        <time>2019-11-21T13:55:03Z</time>
      </trkpt>
      <trkpt lat="42.88804893" lon="-2.16677965">
        <ele>571.66797</ele>
        <time>2019-11-21T13:55:04Z</time>
      </trkpt>
      <trkpt lat="42.88802029" lon="-2.16716971">
        <ele>571.12427</ele>
        <time>2019-11-21T13:55:05Z</time>
      </trkpt>
      <trkpt lat="42.88800024" lon="-2.16755803">
        <ele>570.8806</ele>
        <time>2019-11-21T13:55:06Z</time>
      </trkpt>
      <trkpt lat="42.88798476" lon="-2.1679392">
        <ele>571.7068</ele>
        <time>2019-11-21T13:55:07Z</time>
      </trkpt>
      <trkpt lat="42.88797522" lon="-2.16831536">
        <ele>574.5648</ele>
        <time>2019-11-21T13:55:08Z</time>
      </trkpt>
      <trkpt lat="42.8879583" lon="-2.16868951">
        <ele>573.2446</ele>
        <time>2019-11-21T13:55:09Z</time>
      </trkpt>
      <trkpt lat="42.88793905" lon="-2.16906042">
        <ele>572.7008</ele>
        <time>2019-11-21T13:55:10Z</time>
      </trkpt>
      <trkpt lat="42.88791643" lon="-2.1694252">
        <ele>572.5012</ele>
        <time>2019-11-21T13:55:11Z</time>
      </trkpt>
      <trkpt lat="42.88789045" lon="-2.1697812">
        <ele>572.1172</ele>
        <time>2019-11-21T13:55:12Z</time>
      </trkpt>
      <trkpt lat="42.8878661" lon="-2.17012983">
        <ele>570.8179</ele>
        <time>2019-11-21T13:55:13Z</time>
      </trkpt>
      <trkpt lat="42.88782918" lon="-2.17045921">
        <ele>570.5211</ele>
        <time>2019-11-21T13:55:14Z</time>
      </trkpt>
      <trkpt lat="42.88778019" lon="-2.17077925">
        <ele>569.85046</ele>
        <time>2019-11-21T13:55:15Z</time>
      </trkpt>
      <trkpt lat="42.88772481" lon="-2.17108531">
        <ele>569.82776</ele>
        <time>2019-11-21T13:55:16Z</time>
      </trkpt>
      <trkpt lat="42.88766569" lon="-2.17138038">
        <ele>570.12036</ele>
        <time>2019-11-21T13:55:18Z</time>
      </trkpt>
      <trkpt lat="42.887603" lon="-2.17167069">
        <ele>570.5476</ele>
        <time>2019-11-21T13:55:19Z</time>
      </trkpt>
      <trkpt lat="42.88754255" lon="-2.17194976">
        <ele>571.25366</ele>
        <time>2019-11-21T13:55:20Z</time>
      </trkpt>
      <trkpt lat="42.88748386" lon="-2.17222241">
        <ele>571.5381</ele>
        <time>2019-11-21T13:55:21Z</time>
      </trkpt>
      <trkpt lat="42.8874302" lon="-2.17248685">
        <ele>571.84045</ele>
        <time>2019-11-21T13:55:22Z</time>
      </trkpt>
      <trkpt lat="42.88740049" lon="-2.17275319">
        <ele>573.1658</ele>
        <time>2019-11-21T13:55:23Z</time>
      </trkpt>
      <trkpt lat="42.88738285" lon="-2.1730223">
        <ele>573.3042</ele>
        <time>2019-11-21T13:55:24Z</time>
      </trkpt>
      <trkpt lat="42.88739136" lon="-2.17327255">
        <ele>572.07227</ele>
        <time>2019-11-21T13:55:25Z</time>
      </trkpt>
      <trkpt lat="42.88742084" lon="-2.17353593">
        <ele>572.43115</ele>
        <time>2019-11-21T13:55:26Z</time>
      </trkpt>
      <trkpt lat="42.88747228" lon="-2.17378619">
        <ele>572.93384</ele>
        <time>2019-11-21T13:55:27Z</time>
      </trkpt>
      <trkpt lat="42.88753891" lon="-2.17401985">
        <ele>572.157</ele>
        <time>2019-11-21T13:55:28Z</time>
      </trkpt>
      <trkpt lat="42.88762832" lon="-2.17424145">
        <ele>571.18774</ele>
        <time>2019-11-21T13:55:29Z</time>
      </trkpt>
      <trkpt lat="42.88772925" lon="-2.17445728">
        <ele>570.0006</ele>
        <time>2019-11-21T13:55:30Z</time>
      </trkpt>
      <trkpt lat="42.88784595" lon="-2.17466779">
        <ele>569.21313</ele>
        <time>2019-11-21T13:55:31Z</time>
      </trkpt>
      <trkpt lat="42.88797748" lon="-2.17485994">
        <ele>568.55566</ele>
        <time>2019-11-21T13:55:32Z</time>
      </trkpt>
      <trkpt lat="42.88812398" lon="-2.17502122">
        <ele>567.58594</ele>
        <time>2019-11-21T13:55:33Z</time>
      </trkpt>
      <trkpt lat="42.88845157" lon="-2.17528461">
        <ele>566.39856</ele>
        <time>2019-11-21T13:55:34Z</time>
      </trkpt>
      <trkpt lat="42.8886285" lon="-2.17538383">
        <ele>566.14246</ele>
        <time>2019-11-21T13:55:35Z</time>
      </trkpt>
      <trkpt lat="42.88882045" lon="-2.17545965">
        <ele>565.7185</ele>
        <time>2019-11-21T13:55:36Z</time>
      </trkpt>
      <trkpt lat="42.88900407" lon="-2.17550848">
        <ele>563.69775</ele>
        <time>2019-11-21T13:55:37Z</time>
      </trkpt>
      <trkpt lat="42.88920441" lon="-2.17554795">
        <ele>564.15405</ele>
        <time>2019-11-21T13:55:38Z</time>
      </trkpt>
      <trkpt lat="42.88941464" lon="-2.17558768">
        <ele>563.8894</ele>
        <time>2019-11-21T13:55:39Z</time>
      </trkpt>
      <trkpt lat="42.88961827" lon="-2.1756097">
        <ele>563.93335</ele>
        <time>2019-11-21T13:55:40Z</time>
      </trkpt>
      <trkpt lat="42.88982214" lon="-2.17561818">
        <ele>563.29834</ele>
        <time>2019-11-21T13:55:41Z</time>
      </trkpt>
      <trkpt lat="42.89003131" lon="-2.17563416">
        <ele>563.4133</ele>
        <time>2019-11-21T13:55:42Z</time>
      </trkpt>
      <trkpt lat="42.89024865" lon="-2.17564032">
        <ele>561.9182</ele>
        <time>2019-11-21T13:55:43Z</time>
      </trkpt>
      <trkpt lat="42.8904621" lon="-2.17566305">
        <ele>562.04443</ele>
        <time>2019-11-21T13:55:44Z</time>
      </trkpt>
      <trkpt lat="42.8906825" lon="-2.17570337">
        <ele>562.5923</ele>
        <time>2019-11-21T13:55:46Z</time>
      </trkpt>
      <trkpt lat="42.89090396" lon="-2.17576639">
        <ele>562.0659</ele>
        <time>2019-11-21T13:55:47Z</time>
      </trkpt>
      <trkpt lat="42.89112907" lon="-2.17583302">
        <ele>565.7312</ele>
        <time>2019-11-21T13:55:48Z</time>
      </trkpt>
      <trkpt lat="42.89134418" lon="-2.17590109">
        <ele>564.60315</ele>
        <time>2019-11-21T13:55:49Z</time>
      </trkpt>
      <trkpt lat="42.891559" lon="-2.17597293">
        <ele>564.11426</ele>
        <time>2019-11-21T13:55:50Z</time>
      </trkpt>
      <trkpt lat="42.89177805" lon="-2.17604467">
        <ele>563.5204</ele>
        <time>2019-11-21T13:55:51Z</time>
      </trkpt>
      <trkpt lat="42.89200364" lon="-2.17611419">
        <ele>563.4889</ele>
        <time>2019-11-21T13:55:52Z</time>
      </trkpt>
      <trkpt lat="42.89223037" lon="-2.17617178">
        <ele>563.2136</ele>
        <time>2019-11-21T13:55:53Z</time>
      </trkpt>
      <trkpt lat="42.89246214" lon="-2.17622335">
        <ele>563.3965</ele>
        <time>2019-11-21T13:55:54Z</time>
      </trkpt>
      <trkpt lat="42.89269299" lon="-2.17626156">
        <ele>562.8723</ele>
        <time>2019-11-21T13:55:55Z</time>
      </trkpt>
      <trkpt lat="42.8929296" lon="-2.17629393">
        <ele>563.0669</ele>
        <time>2019-11-21T13:55:56Z</time>
      </trkpt>
      <trkpt lat="42.89316635" lon="-2.1763139">
        <ele>562.5049</ele>
        <time>2019-11-21T13:55:57Z</time>
      </trkpt>
      <trkpt lat="42.89341506" lon="-2.17632022">
        <ele>562.2505</ele>
        <time>2019-11-21T13:55:58Z</time>
      </trkpt>
      <trkpt lat="42.89366294" lon="-2.17631389">
        <ele>562.65576</ele>
        <time>2019-11-21T13:55:59Z</time>
      </trkpt>
      <trkpt lat="42.89391112" lon="-2.17630012">
        <ele>563.2744</ele>
        <time>2019-11-21T13:56:00Z</time>
      </trkpt>
      <trkpt lat="42.89416569" lon="-2.17626618">
        <ele>563.405</ele>
        <time>2019-11-21T13:56:01Z</time>
      </trkpt>
      <trkpt lat="42.89442768" lon="-2.17622267">
        <ele>564.1261</ele>
        <time>2019-11-21T13:56:02Z</time>
      </trkpt>
      <trkpt lat="42.89494139" lon="-2.17608042">
        <ele>565.03784</ele>
        <time>2019-11-21T13:56:03Z</time>
      </trkpt>
      <trkpt lat="42.89519837" lon="-2.17600081">
        <ele>566.1835</ele>
        <time>2019-11-21T13:56:04Z</time>
      </trkpt>
      <trkpt lat="42.89547231" lon="-2.1758961">
        <ele>566.3867</ele>
        <time>2019-11-21T13:56:05Z</time>
      </trkpt>
      <trkpt lat="42.89574407" lon="-2.17579173">
        <ele>570.9656</ele>
        <time>2019-11-21T13:56:06Z</time>
      </trkpt>
      <trkpt lat="42.89601039" lon="-2.17568829">
        <ele>570.4585</ele>
        <time>2019-11-21T13:56:07Z</time>
      </trkpt>
      <trkpt lat="42.89628043" lon="-2.17558343">
        <ele>570.8164</ele>
        <time>2019-11-21T13:56:08Z</time>
      </trkpt>
      <trkpt lat="42.8965585" lon="-2.1754967">
        <ele>571.6605</ele>
        <time>2019-11-21T13:56:09Z</time>
      </trkpt>
      <trkpt lat="42.89684377" lon="-2.17542538">
        <ele>571.92944</ele>
        <time>2019-11-21T13:56:10Z</time>
      </trkpt>
      <trkpt lat="42.89713217" lon="-2.17536983">
        <ele>572.54834</ele>
        <time>2019-11-21T13:56:11Z</time>
      </trkpt>
      <trkpt lat="42.89742222" lon="-2.17533739">
        <ele>573.37256</ele>
        <time>2019-11-21T13:56:12Z</time>
      </trkpt>
      <trkpt lat="42.89771235" lon="-2.17532022">
        <ele>574.0941</ele>
        <time>2019-11-21T13:56:13Z</time>
      </trkpt>
      <trkpt lat="42.89800747" lon="-2.17532231">
        <ele>574.73486</ele>
        <time>2019-11-21T13:56:14Z</time>
      </trkpt>
      <trkpt lat="42.898307" lon="-2.17533305">
        <ele>575.21106</ele>
        <time>2019-11-21T13:56:15Z</time>
      </trkpt>
      <trkpt lat="42.89859371" lon="-2.17535629">
        <ele>576.0123</ele>
        <time>2019-11-21T13:56:17Z</time>
      </trkpt>
      <trkpt lat="42.89888527" lon="-2.17538628">
        <ele>576.7704</ele>
        <time>2019-11-21T13:56:18Z</time>
      </trkpt>
      <trkpt lat="42.89916695" lon="-2.17541661">
        <ele>577.4215</ele>
        <time>2019-11-21T13:56:19Z</time>
      </trkpt>
      <trkpt lat="42.89944172" lon="-2.1754441">
        <ele>577.6133</ele>
        <time>2019-11-21T13:56:20Z</time>
      </trkpt>
      <trkpt lat="42.89971947" lon="-2.17546425">
        <ele>577.2339</ele>
        <time>2019-11-21T13:56:21Z</time>
      </trkpt>
      <trkpt lat="42.89999109" lon="-2.1754777">
        <ele>576.7822</ele>
        <time>2019-11-21T13:56:22Z</time>
      </trkpt>
      <trkpt lat="42.90026336" lon="-2.17547918">
        <ele>576.2593</ele>
        <time>2019-11-21T13:56:23Z</time>
      </trkpt>
      <trkpt lat="42.90053065" lon="-2.17547824">
        <ele>576.1289</ele>
        <time>2019-11-21T13:56:24Z</time>
      </trkpt>
      <trkpt lat="42.90079826" lon="-2.17546862">
        <ele>575.8037</ele>
        <time>2019-11-21T13:56:25Z</time>
      </trkpt>
      <trkpt lat="42.90106078" lon="-2.1754531">
        <ele>575.275</ele>
        <time>2019-11-21T13:56:26Z</time>
      </trkpt>
      <trkpt lat="42.90131629" lon="-2.17544372">
        <ele>575.4634</ele>
        <time>2019-11-21T13:56:27Z</time>
      </trkpt>
      <trkpt lat="42.90156956" lon="-2.17542597">
        <ele>575.45605</ele>
        <time>2019-11-21T13:56:28Z</time>
      </trkpt>
      <trkpt lat="42.90182639" lon="-2.17541266">
        <ele>574.71387</ele>
        <time>2019-11-21T13:56:29Z</time>
      </trkpt>
      <trkpt lat="42.90208426" lon="-2.17540045">
        <ele>574.2689</ele>
        <time>2019-11-21T13:56:30Z</time>
      </trkpt>
      <trkpt lat="42.90234174" lon="-2.17538587">
        <ele>573.89307</ele>
        <time>2019-11-21T13:56:31Z</time>
      </trkpt>
      <trkpt lat="42.90286028" lon="-2.17535742">
        <ele>572.80444</ele>
        <time>2019-11-21T13:56:32Z</time>
      </trkpt>
      <trkpt lat="42.90311922" lon="-2.17534174">
        <ele>572.26794</ele>
        <time>2019-11-21T13:56:33Z</time>
      </trkpt>
      <trkpt lat="42.90337621" lon="-2.17532896">
        <ele>571.81104</ele>
        <time>2019-11-21T13:56:34Z</time>
      </trkpt>
      <trkpt lat="42.90363389" lon="-2.17531931">
        <ele>571.7698</ele>
        <time>2019-11-21T13:56:35Z</time>
      </trkpt>
      <trkpt lat="42.90389329" lon="-2.1753092">
        <ele>571.3701</ele>
        <time>2019-11-21T13:56:36Z</time>
      </trkpt>
      <trkpt lat="42.90415319" lon="-2.17530053">
        <ele>570.86096</ele>
        <time>2019-11-21T13:56:37Z</time>
      </trkpt>
      <trkpt lat="42.90441024" lon="-2.17529098">
        <ele>570.9087</ele>
        <time>2019-11-21T13:56:38Z</time>
      </trkpt>
      <trkpt lat="42.90466815" lon="-2.17529413">
        <ele>570.7566</ele>
        <time>2019-11-21T13:56:39Z</time>
      </trkpt>
      <trkpt lat="42.90492718" lon="-2.17530072">
        <ele>570.5867</ele>
        <time>2019-11-21T13:56:40Z</time>
      </trkpt>
      <trkpt lat="42.90518795" lon="-2.17531487">
        <ele>571.093</ele>
        <time>2019-11-21T13:56:41Z</time>
      </trkpt>
      <trkpt lat="42.90544556" lon="-2.17532741">
        <ele>571.3993</ele>
        <time>2019-11-21T13:56:42Z</time>
      </trkpt>
      <trkpt lat="42.905697" lon="-2.17534589">
        <ele>572.0111</ele>
        <time>2019-11-21T13:56:43Z</time>
      </trkpt>
      <trkpt lat="42.90594561" lon="-2.17536979">
        <ele>572.6687</ele>
        <time>2019-11-21T13:56:44Z</time>
      </trkpt>
      <trkpt lat="42.90618938" lon="-2.17539694">
        <ele>571.36487</ele>
        <time>2019-11-21T13:56:45Z</time>
      </trkpt>
      <trkpt lat="42.90641473" lon="-2.175437">
        <ele>572.0281</ele>
        <time>2019-11-21T13:56:47Z</time>
      </trkpt>
      <trkpt lat="42.90664113" lon="-2.17548028">
        <ele>572.51904</ele>
        <time>2019-11-21T13:56:48Z</time>
      </trkpt>
      <trkpt lat="42.90686645" lon="-2.17553193">
        <ele>572.8367</ele>
        <time>2019-11-21T13:56:49Z</time>
      </trkpt>
      <trkpt lat="42.90708839893341" lon="-2.175588011741638">
        <ele>0.0</ele>
        <time>2019-11-21T13:56:50Z</time>
      </trkpt>
      <trkpt lat="42.9094877" lon="-2.1766033">
        <ele>574.95166</ele>
        <time>2019-11-21T13:57:01Z</time>
      </trkpt>
      <trkpt lat="42.90968727" lon="-2.17672134">
        <ele>575.0548</ele>
        <time>2019-11-21T13:57:02Z</time>
      </trkpt>
      <trkpt lat="42.90988245" lon="-2.17687361">
        <ele>577.2278</ele>
        <time>2019-11-21T13:57:03Z</time>
      </trkpt>
      <trkpt lat="42.91007607" lon="-2.17702179">
        <ele>578.9319</ele>
        <time>2019-11-21T13:57:04Z</time>
      </trkpt>
      <trkpt lat="42.91028928" lon="-2.17718844">
        <ele>580.2207</ele>
        <time>2019-11-21T13:57:06Z</time>
      </trkpt>
      <trkpt lat="42.91050352" lon="-2.17736321">
        <ele>582.0447</ele>
        <time>2019-11-21T13:57:07Z</time>
      </trkpt>
      <trkpt lat="42.91072215" lon="-2.17754562">
        <ele>582.417</ele>
        <time>2019-11-21T13:57:08Z</time>
      </trkpt>
      <trkpt lat="42.91094152" lon="-2.17773808">
        <ele>582.7737</ele>
        <time>2019-11-21T13:57:09Z</time>
      </trkpt>
      <trkpt lat="42.91116042" lon="-2.17793776">
        <ele>583.48035</ele>
        <time>2019-11-21T13:57:10Z</time>
      </trkpt>
      <trkpt lat="42.91137553" lon="-2.1781518">
        <ele>584.5735</ele>
        <time>2019-11-21T13:57:11Z</time>
      </trkpt>
      <trkpt lat="42.91158508" lon="-2.17837606">
        <ele>585.1621</ele>
        <time>2019-11-21T13:57:12Z</time>
      </trkpt>
      <trkpt lat="42.91179064" lon="-2.17861">
        <ele>585.59155</ele>
        <time>2019-11-21T13:57:13Z</time>
      </trkpt>
      <trkpt lat="42.91199644" lon="-2.17885128">
        <ele>586.1367</ele>
        <time>2019-11-21T13:57:14Z</time>
      </trkpt>
      <trkpt lat="42.91220693" lon="-2.17910176">
        <ele>587.0475</ele>
        <time>2019-11-21T13:57:15Z</time>
      </trkpt>
      <trkpt lat="42.91240981" lon="-2.17936433">
        <ele>587.78394</ele>
        <time>2019-11-21T13:57:16Z</time>
      </trkpt>
      <trkpt lat="42.91261209" lon="-2.17963487">
        <ele>588.5868</ele>
        <time>2019-11-21T13:57:17Z</time>
      </trkpt>
      <trkpt lat="42.91280663" lon="-2.1799158">
        <ele>589.3794</ele>
        <time>2019-11-21T13:57:18Z</time>
      </trkpt>
      <trkpt lat="42.91299732" lon="-2.18020585">
        <ele>589.9331</ele>
        <time>2019-11-21T13:57:19Z</time>
      </trkpt>
      <trkpt lat="42.91317889" lon="-2.18050441">
        <ele>590.0969</ele>
        <time>2019-11-21T13:57:20Z</time>
      </trkpt>
      <trkpt lat="42.91334917" lon="-2.18081137">
        <ele>590.6245</ele>
        <time>2019-11-21T13:57:21Z</time>
      </trkpt>
      <trkpt lat="42.9135115" lon="-2.18112982">
        <ele>591.0022</ele>
        <time>2019-11-21T13:57:22Z</time>
      </trkpt>
      <trkpt lat="42.91382958" lon="-2.18176262">
        <ele>592.08057</ele>
        <time>2019-11-21T13:57:23Z</time>
      </trkpt>
      <trkpt lat="42.91397834" lon="-2.1820902">
        <ele>593.0941</ele>
        <time>2019-11-21T13:57:24Z</time>
      </trkpt>
      <trkpt lat="42.91412215" lon="-2.18242377">
        <ele>593.67566</ele>
        <time>2019-11-21T13:57:25Z</time>
      </trkpt>
      <trkpt lat="42.91425922" lon="-2.18276041">
        <ele>594.43506</ele>
        <time>2019-11-21T13:57:26Z</time>
      </trkpt>
      <trkpt lat="42.91438935" lon="-2.18310282">
        <ele>595.1006</ele>
        <time>2019-11-21T13:57:27Z</time>
      </trkpt>
      <trkpt lat="42.9145166" lon="-2.18344259">
        <ele>595.51465</ele>
        <time>2019-11-21T13:57:28Z</time>
      </trkpt>
      <trkpt lat="42.91463248" lon="-2.18379289">
        <ele>595.98804</ele>
        <time>2019-11-21T13:57:29Z</time>
      </trkpt>
      <trkpt lat="42.91473811" lon="-2.18414607">
        <ele>596.5303</ele>
        <time>2019-11-21T13:57:30Z</time>
      </trkpt>
      <trkpt lat="42.91484109" lon="-2.18450103">
        <ele>597.0176</ele>
        <time>2019-11-21T13:57:31Z</time>
      </trkpt>
      <trkpt lat="42.9149372" lon="-2.18486302">
        <ele>598.0056</ele>
        <time>2019-11-21T13:57:32Z</time>
      </trkpt>
      <trkpt lat="42.91502607" lon="-2.185226">
        <ele>599.052</ele>
        <time>2019-11-21T13:57:33Z</time>
      </trkpt>
      <trkpt lat="42.91510607" lon="-2.18559273">
        <ele>599.6526</ele>
        <time>2019-11-21T13:57:34Z</time>
      </trkpt>
      <trkpt lat="42.91518127" lon="-2.1859618">
        <ele>600.3779</ele>
        <time>2019-11-21T13:57:35Z</time>
      </trkpt>
      <trkpt lat="42.91525169" lon="-2.18633789">
        <ele>601.0825</ele>
        <time>2019-11-21T13:57:36Z</time>
      </trkpt>
      <trkpt lat="42.91531943" lon="-2.18670945">
        <ele>602.0177</ele>
        <time>2019-11-21T13:57:38Z</time>
      </trkpt>
      <trkpt lat="42.91538091" lon="-2.18709346">
        <ele>603.1858</ele>
        <time>2019-11-21T13:57:39Z</time>
      </trkpt>
      <trkpt lat="42.9154418" lon="-2.18747998">
        <ele>604.0405</ele>
        <time>2019-11-21T13:57:40Z</time>
      </trkpt>
      <trkpt lat="42.91549797" lon="-2.18787611">
        <ele>604.95447</ele>
        <time>2019-11-21T13:57:41Z</time>
      </trkpt>
      <trkpt lat="42.91556086" lon="-2.18826806">
        <ele>606.5167</ele>
        <time>2019-11-21T13:57:42Z</time>
      </trkpt>
      <trkpt lat="42.91562389" lon="-2.1886627">
        <ele>607.38965</ele>
        <time>2019-11-21T13:57:43Z</time>
      </trkpt>
      <trkpt lat="42.91568187" lon="-2.18905882">
        <ele>607.78906</ele>
        <time>2019-11-21T13:57:44Z</time>
      </trkpt>
      <trkpt lat="42.91574061" lon="-2.18945609">
        <ele>608.3596</ele>
        <time>2019-11-21T13:57:45Z</time>
      </trkpt>
      <trkpt lat="42.91580034" lon="-2.189853">
        <ele>593.5066</ele>
        <time>2019-11-21T13:57:46Z</time>
      </trkpt>
      <trkpt lat="42.91586071" lon="-2.19025081">
        <ele>601.0282</ele>
        <time>2019-11-21T13:57:47Z</time>
      </trkpt>
      <trkpt lat="42.91592192" lon="-2.19064587">
        <ele>605.26025</ele>
        <time>2019-11-21T13:57:48Z</time>
      </trkpt>
      <trkpt lat="42.91598677" lon="-2.1910355">
        <ele>608.8601</ele>
        <time>2019-11-21T13:57:49Z</time>
      </trkpt>
      <trkpt lat="42.9160466" lon="-2.1914113">
        <ele>610.667</ele>
        <time>2019-11-21T13:57:50Z</time>
      </trkpt>
      <trkpt lat="42.91610187" lon="-2.19177055">
        <ele>612.2151</ele>
        <time>2019-11-21T13:57:51Z</time>
      </trkpt>
      <trkpt lat="42.91615654" lon="-2.19212219">
        <ele>612.895</ele>
        <time>2019-11-21T13:57:52Z</time>
      </trkpt>
      <trkpt lat="42.91621073" lon="-2.19246227">
        <ele>614.2532</ele>
        <time>2019-11-21T13:57:53Z</time>
      </trkpt>
      <trkpt lat="42.91626581" lon="-2.19280148">
        <ele>615.303</ele>
        <time>2019-11-21T13:57:54Z</time>
      </trkpt>
      <trkpt lat="42.91632019" lon="-2.19314169">
        <ele>616.6969</ele>
        <time>2019-11-21T13:57:55Z</time>
      </trkpt>
      <trkpt lat="42.91642581" lon="-2.19382245">
        <ele>617.6467</ele>
        <time>2019-11-21T13:57:56Z</time>
      </trkpt>
      <trkpt lat="42.91648293" lon="-2.19416695">
        <ele>617.7977</ele>
        <time>2019-11-21T13:57:57Z</time>
      </trkpt>
      <trkpt lat="42.91654332" lon="-2.19450917">
        <ele>617.81104</ele>
        <time>2019-11-21T13:57:58Z</time>
      </trkpt>
      <trkpt lat="42.91660314" lon="-2.19484557">
        <ele>617.7803</ele>
        <time>2019-11-21T13:57:59Z</time>
      </trkpt>
      <trkpt lat="42.91666578" lon="-2.19518534">
        <ele>617.8894</ele>
        <time>2019-11-21T13:58:00Z</time>
      </trkpt>
      <trkpt lat="42.91673311" lon="-2.19553005">
        <ele>617.9092</ele>
        <time>2019-11-21T13:58:01Z</time>
      </trkpt>
      <trkpt lat="42.91680473" lon="-2.195881">
        <ele>617.7986</ele>
        <time>2019-11-21T13:58:02Z</time>
      </trkpt>
      <trkpt lat="42.91688166" lon="-2.19623798">
        <ele>617.53564</ele>
        <time>2019-11-21T13:58:03Z</time>
      </trkpt>
      <trkpt lat="42.91695833" lon="-2.19659752">
        <ele>617.3181</ele>
        <time>2019-11-21T13:58:04Z</time>
      </trkpt>
      <trkpt lat="42.91704095" lon="-2.19695392">
        <ele>617.374</ele>
        <time>2019-11-21T13:58:05Z</time>
      </trkpt>
      <trkpt lat="42.91712717" lon="-2.19731382">
        <ele>617.6809</ele>
        <time>2019-11-21T13:58:06Z</time>
      </trkpt>
      <trkpt lat="42.91722174" lon="-2.19766928">
        <ele>617.0293</ele>
        <time>2019-11-21T13:58:07Z</time>
      </trkpt>
      <trkpt lat="42.91732167" lon="-2.19802534">
        <ele>616.84546</ele>
        <time>2019-11-21T13:58:08Z</time>
      </trkpt>
      <trkpt lat="42.91742114" lon="-2.19838565">
        <ele>616.81836</ele>
        <time>2019-11-21T13:58:09Z</time>
      </trkpt>
      <trkpt lat="42.91752851" lon="-2.19874605">
        <ele>616.6106</ele>
        <time>2019-11-21T13:58:11Z</time>
      </trkpt>
      <trkpt lat="42.9176372" lon="-2.19910169">
        <ele>615.84216</ele>
        <time>2019-11-21T13:58:12Z</time>
      </trkpt>
      <trkpt lat="42.91775397" lon="-2.19945148">
        <ele>616.00757</ele>
        <time>2019-11-21T13:58:13Z</time>
      </trkpt>
      <trkpt lat="42.91786939" lon="-2.19980099">
        <ele>615.3004</ele>
        <time>2019-11-21T13:58:14Z</time>
      </trkpt>
      <trkpt lat="42.91799292" lon="-2.20014765">
        <ele>614.688</ele>
        <time>2019-11-21T13:58:15Z</time>
      </trkpt>
      <trkpt lat="42.91812348" lon="-2.20049004">
        <ele>614.7527</ele>
        <time>2019-11-21T13:58:16Z</time>
      </trkpt>
      <trkpt lat="42.91826091" lon="-2.20080664">
        <ele>611.9048</ele>
        <time>2019-11-21T13:58:17Z</time>
      </trkpt>
      <trkpt lat="42.918397" lon="-2.20114496">
        <ele>611.8081</ele>
        <time>2019-11-21T13:58:18Z</time>
      </trkpt>
      <trkpt lat="42.91853764" lon="-2.20148078">
        <ele>611.96387</ele>
        <time>2019-11-21T13:58:19Z</time>
      </trkpt>
      <trkpt lat="42.91867417" lon="-2.2018153">
        <ele>611.85645</ele>
        <time>2019-11-21T13:58:20Z</time>
      </trkpt>
      <trkpt lat="42.91882" lon="-2.20214312">
        <ele>611.81494</ele>
        <time>2019-11-21T13:58:21Z</time>
      </trkpt>
      <trkpt lat="42.91896148" lon="-2.20247159">
        <ele>611.8262</ele>
        <time>2019-11-21T13:58:22Z</time>
      </trkpt>
      <trkpt lat="42.91911038" lon="-2.2027997">
        <ele>611.30286</ele>
        <time>2019-11-21T13:58:23Z</time>
      </trkpt>
      <trkpt lat="42.91926753" lon="-2.20311365">
        <ele>611.2318</ele>
        <time>2019-11-21T13:58:24Z</time>
      </trkpt>
      <trkpt lat="42.91941784" lon="-2.20343664">
        <ele>611.3142</ele>
        <time>2019-11-21T13:58:25Z</time>
      </trkpt>
      <trkpt lat="42.91957984" lon="-2.20374389">
        <ele>611.6438</ele>
        <time>2019-11-21T13:58:26Z</time>
      </trkpt>
      <trkpt lat="42.91974412" lon="-2.20404832">
        <ele>612.5593</ele>
        <time>2019-11-21T13:58:27Z</time>
      </trkpt>
      <trkpt lat="42.92007221" lon="-2.20467264">
        <ele>615.2611</ele>
        <time>2019-11-21T13:58:28Z</time>
      </trkpt>
      <trkpt lat="42.92024466" lon="-2.20497364">
        <ele>616.7588</ele>
        <time>2019-11-21T13:58:29Z</time>
      </trkpt>
      <trkpt lat="42.92041654" lon="-2.20527962">
        <ele>618.1561</ele>
        <time>2019-11-21T13:58:30Z</time>
      </trkpt>
      <trkpt lat="42.92058453" lon="-2.20559055">
        <ele>620.10596</ele>
        <time>2019-11-21T13:58:31Z</time>
      </trkpt>
      <trkpt lat="42.92074993" lon="-2.20589821">
        <ele>621.58887</ele>
        <time>2019-11-21T13:58:32Z</time>
      </trkpt>
      <trkpt lat="42.92091365" lon="-2.20620448">
        <ele>622.489</ele>
        <time>2019-11-21T13:58:33Z</time>
      </trkpt>
      <trkpt lat="42.9210775" lon="-2.20651231">
        <ele>623.09644</ele>
        <time>2019-11-21T13:58:34Z</time>
      </trkpt>
      <trkpt lat="42.92123923" lon="-2.20682291">
        <ele>623.96533</ele>
        <time>2019-11-21T13:58:35Z</time>
      </trkpt>
      <trkpt lat="42.92140069" lon="-2.20713634">
        <ele>624.089</ele>
        <time>2019-11-21T13:58:36Z</time>
      </trkpt>
      <trkpt lat="42.92155969" lon="-2.20746564">
        <ele>624.208</ele>
        <time>2019-11-21T13:58:37Z</time>
      </trkpt>
      <trkpt lat="42.92171699" lon="-2.20776251">
        <ele>625.396</ele>
        <time>2019-11-21T13:58:38Z</time>
      </trkpt>
      <trkpt lat="42.9218696" lon="-2.20808964">
        <ele>625.7538</ele>
        <time>2019-11-21T13:58:39Z</time>
      </trkpt>
      <trkpt lat="42.92202566" lon="-2.20841544">
        <ele>627.2617</ele>
        <time>2019-11-21T13:58:40Z</time>
      </trkpt>
      <trkpt lat="42.92217466" lon="-2.208742">
        <ele>628.7854</ele>
        <time>2019-11-21T13:58:41Z</time>
      </trkpt>
      <trkpt lat="42.92231839" lon="-2.20907748">
        <ele>630.3887</ele>
        <time>2019-11-21T13:58:43Z</time>
      </trkpt>
      <trkpt lat="42.92246382" lon="-2.20940926">
        <ele>631.95605</ele>
        <time>2019-11-21T13:58:44Z</time>
      </trkpt>
      <trkpt lat="42.92260151" lon="-2.20975037">
        <ele>632.9956</ele>
        <time>2019-11-21T13:58:45Z</time>
      </trkpt>
      <trkpt lat="42.92273338" lon="-2.21009139">
        <ele>633.73865</ele>
        <time>2019-11-21T13:58:46Z</time>
      </trkpt>
      <trkpt lat="42.92286763" lon="-2.21043097">
        <ele>634.54663</ele>
        <time>2019-11-21T13:58:47Z</time>
      </trkpt>
      <trkpt lat="42.92299874" lon="-2.21077838">
        <ele>635.20154</ele>
        <time>2019-11-21T13:58:48Z</time>
      </trkpt>
      <trkpt lat="42.92312336" lon="-2.21112773">
        <ele>636.4092</ele>
        <time>2019-11-21T13:58:49Z</time>
      </trkpt>
      <trkpt lat="42.92324361" lon="-2.21147464">
        <ele>636.2416</ele>
        <time>2019-11-21T13:58:50Z</time>
      </trkpt>
      <trkpt lat="42.92335785" lon="-2.21183144">
        <ele>636.09375</ele>
        <time>2019-11-21T13:58:51Z</time>
      </trkpt>
      <trkpt lat="42.92347091" lon="-2.2121874">
        <ele>636.39453</ele>
        <time>2019-11-21T13:58:52Z</time>
      </trkpt>
      <trkpt lat="42.92357497" lon="-2.2125456">
        <ele>636.37695</ele>
        <time>2019-11-21T13:58:53Z</time>
      </trkpt>
      <trkpt lat="42.92367421" lon="-2.21290686">
        <ele>636.6063</ele>
        <time>2019-11-21T13:58:54Z</time>
      </trkpt>
      <trkpt lat="42.92377276" lon="-2.21326812">
        <ele>637.77</ele>
        <time>2019-11-21T13:58:55Z</time>
      </trkpt>
      <trkpt lat="42.92387162" lon="-2.21362863">
        <ele>638.27</ele>
        <time>2019-11-21T13:58:56Z</time>
      </trkpt>
      <trkpt lat="42.92396838" lon="-2.21398764">
        <ele>639.30676</ele>
        <time>2019-11-21T13:58:57Z</time>
      </trkpt>
      <trkpt lat="42.92414114" lon="-2.21473207">
        <ele>638.5303</ele>
        <time>2019-11-21T13:58:58Z</time>
      </trkpt>
      <trkpt lat="42.92423825" lon="-2.21510398">
        <ele>640.22705</ele>
        <time>2019-11-21T13:58:59Z</time>
      </trkpt>
      <trkpt lat="42.92432298" lon="-2.21546868">
        <ele>639.68506</ele>
        <time>2019-11-21T13:59:00Z</time>
      </trkpt>
      <trkpt lat="42.92440055" lon="-2.21584091">
        <ele>639.43066</ele>
        <time>2019-11-21T13:59:01Z</time>
      </trkpt>
      <trkpt lat="42.92447666" lon="-2.21622358">
        <ele>639.43555</ele>
        <time>2019-11-21T13:59:02Z</time>
      </trkpt>
      <trkpt lat="42.92453946" lon="-2.2166005">
        <ele>638.2805</ele>
        <time>2019-11-21T13:59:03Z</time>
      </trkpt>
      <trkpt lat="42.92460211" lon="-2.21697465">
        <ele>637.33167</ele>
        <time>2019-11-21T13:59:04Z</time>
      </trkpt>
      <trkpt lat="42.92465383" lon="-2.2173567">
        <ele>636.59937</ele>
        <time>2019-11-21T13:59:05Z</time>
      </trkpt>
      <trkpt lat="42.92470692" lon="-2.21773566">
        <ele>635.91003</ele>
        <time>2019-11-21T13:59:06Z</time>
      </trkpt>
      <trkpt lat="42.92475793" lon="-2.21811881">
        <ele>634.48804</ele>
        <time>2019-11-21T13:59:07Z</time>
      </trkpt>
      <trkpt lat="42.92481578" lon="-2.21850913">
        <ele>635.5945</ele>
        <time>2019-11-21T13:59:08Z</time>
      </trkpt>
      <trkpt lat="42.92486344" lon="-2.21889253">
        <ele>635.0597</ele>
        <time>2019-11-21T13:59:09Z</time>
      </trkpt>
      <trkpt lat="42.92491321" lon="-2.21926958">
        <ele>634.68005</ele>
        <time>2019-11-21T13:59:10Z</time>
      </trkpt>
      <trkpt lat="42.92495407" lon="-2.21964317">
        <ele>634.4263</ele>
        <time>2019-11-21T13:59:12Z</time>
      </trkpt>
      <trkpt lat="42.92500339" lon="-2.22002358">
        <ele>633.91504</ele>
        <time>2019-11-21T13:59:13Z</time>
      </trkpt>
      <trkpt lat="42.92504788" lon="-2.22040373">
        <ele>633.7246</ele>
        <time>2019-11-21T13:59:14Z</time>
      </trkpt>
      <trkpt lat="42.92510093" lon="-2.22078252">
        <ele>633.2029</ele>
        <time>2019-11-21T13:59:15Z</time>
      </trkpt>
      <trkpt lat="42.92516695" lon="-2.22115097">
        <ele>631.80884</ele>
        <time>2019-11-21T13:59:16Z</time>
      </trkpt>
      <trkpt lat="42.92524619" lon="-2.2215198">
        <ele>631.6377</ele>
        <time>2019-11-21T13:59:17Z</time>
      </trkpt>
      <trkpt lat="42.92533634" lon="-2.22188314">
        <ele>631.86584</ele>
        <time>2019-11-21T13:59:18Z</time>
      </trkpt>
      <trkpt lat="42.9254401" lon="-2.22223877">
        <ele>632.0166</ele>
        <time>2019-11-21T13:59:19Z</time>
      </trkpt>
      <trkpt lat="42.92555608" lon="-2.2225886">
        <ele>632.11743</ele>
        <time>2019-11-21T13:59:20Z</time>
      </trkpt>
      <trkpt lat="42.92567949" lon="-2.22292649">
        <ele>632.1633</ele>
        <time>2019-11-21T13:59:21Z</time>
      </trkpt>
      <trkpt lat="42.92581625" lon="-2.22326113">
        <ele>632.39453</ele>
        <time>2019-11-21T13:59:22Z</time>
      </trkpt>
      <trkpt lat="42.92596554" lon="-2.22358113">
        <ele>634.0902</ele>
        <time>2019-11-21T13:59:23Z</time>
      </trkpt>
      <trkpt lat="42.92611982" lon="-2.22389966">
        <ele>633.364</ele>
        <time>2019-11-21T13:59:24Z</time>
      </trkpt>
      <trkpt lat="42.92628319" lon="-2.22421508">
        <ele>632.4785</ele>
        <time>2019-11-21T13:59:25Z</time>
      </trkpt>
      <trkpt lat="42.92664056" lon="-2.22481038">
        <ele>632.85535</ele>
        <time>2019-11-21T13:59:26Z</time>
      </trkpt>
      <trkpt lat="42.92682814" lon="-2.22508764">
        <ele>633.5508</ele>
        <time>2019-11-21T13:59:27Z</time>
      </trkpt>
      <trkpt lat="42.92703132" lon="-2.22536041">
        <ele>633.6587</ele>
        <time>2019-11-21T13:59:28Z</time>
      </trkpt>
      <trkpt lat="42.92723489" lon="-2.22562085">
        <ele>633.28735</ele>
        <time>2019-11-21T13:59:29Z</time>
      </trkpt>
      <trkpt lat="42.9274366" lon="-2.22586651">
        <ele>632.5166</ele>
        <time>2019-11-21T13:59:30Z</time>
      </trkpt>
      <trkpt lat="42.92765325" lon="-2.2261069">
        <ele>632.50244</ele>
        <time>2019-11-21T13:59:31Z</time>
      </trkpt>
      <trkpt lat="42.92788155" lon="-2.22633162">
        <ele>631.6638</ele>
        <time>2019-11-21T13:59:32Z</time>
      </trkpt>
      <trkpt lat="42.92810623" lon="-2.22651864">
        <ele>627.917</ele>
        <time>2019-11-21T13:59:33Z</time>
      </trkpt>
      <trkpt lat="42.92834572" lon="-2.22671672">
        <ele>627.8191</ele>
        <time>2019-11-21T13:59:34Z</time>
      </trkpt>
      <trkpt lat="42.92858825" lon="-2.22689836">
        <ele>627.38696</ele>
        <time>2019-11-21T13:59:35Z</time>
      </trkpt>
      <trkpt lat="42.92884205" lon="-2.22705832">
        <ele>626.8474</ele>
        <time>2019-11-21T13:59:36Z</time>
      </trkpt>
      <trkpt lat="42.92910374" lon="-2.22721843">
        <ele>627.19214</ele>
        <time>2019-11-21T13:59:37Z</time>
      </trkpt>
      <trkpt lat="42.92936755" lon="-2.2273564">
        <ele>627.2998</ele>
        <time>2019-11-21T13:59:38Z</time>
      </trkpt>
      <trkpt lat="42.92964433" lon="-2.22747179">
        <ele>628.9896</ele>
        <time>2019-11-21T13:59:39Z</time>
      </trkpt>
      <trkpt lat="42.92989406" lon="-2.22756937">
        <ele>626.968</ele>
        <time>2019-11-21T13:59:41Z</time>
      </trkpt>
      <trkpt lat="42.93016189" lon="-2.22764919">
        <ele>626.96875</ele>
        <time>2019-11-21T13:59:42Z</time>
      </trkpt>
      <trkpt lat="42.93044213" lon="-2.22772585">
        <ele>628.0659</ele>
        <time>2019-11-21T13:59:43Z</time>
      </trkpt>
      <trkpt lat="42.93071827" lon="-2.22777351">
        <ele>629.151</ele>
        <time>2019-11-21T13:59:44Z</time>
      </trkpt>
      <trkpt lat="42.93099698" lon="-2.22780877">
        <ele>629.0908</ele>
        <time>2019-11-21T13:59:45Z</time>
      </trkpt>
      <trkpt lat="42.9312773" lon="-2.22783775">
        <ele>608.87805</ele>
        <time>2019-11-21T13:59:46Z</time>
      </trkpt>
      <trkpt lat="42.93156309" lon="-2.22784474">
        <ele>614.0126</ele>
        <time>2019-11-21T13:59:47Z</time>
      </trkpt>
      <trkpt lat="42.93183331" lon="-2.22784106">
        <ele>618.6924</ele>
        <time>2019-11-21T13:59:48Z</time>
      </trkpt>
      <trkpt lat="42.93212352" lon="-2.22782242">
        <ele>622.333</ele>
        <time>2019-11-21T13:59:49Z</time>
      </trkpt>
      <trkpt lat="42.93239823" lon="-2.22778611">
        <ele>623.9403</ele>
        <time>2019-11-21T13:59:50Z</time>
      </trkpt>
      <trkpt lat="42.93267336" lon="-2.22774063">
        <ele>627.188</ele>
        <time>2019-11-21T13:59:51Z</time>
      </trkpt>
      <trkpt lat="42.93296017" lon="-2.22767164">
        <ele>628.92334</ele>
        <time>2019-11-21T13:59:52Z</time>
      </trkpt>
      <trkpt lat="42.93325062" lon="-2.22758671">
        <ele>631.2899</ele>
        <time>2019-11-21T13:59:53Z</time>
      </trkpt>
      <trkpt lat="42.93353481" lon="-2.22748226">
        <ele>633.81274</ele>
        <time>2019-11-21T13:59:54Z</time>
      </trkpt>
      <trkpt lat="42.93380883" lon="-2.22736667">
        <ele>636.4529</ele>
        <time>2019-11-21T13:59:55Z</time>
      </trkpt>
      <trkpt lat="42.93399611" lon="-2.22723823">
        <ele>635.4407</ele>
        <time>2019-11-21T13:59:56Z</time>
      </trkpt>
      <trkpt lat="42.93446058" lon="-2.22698713">
        <ele>636.7643</ele>
        <time>2019-11-21T13:59:57Z</time>
      </trkpt>
      <trkpt lat="42.93468316" lon="-2.22686266">
        <ele>638.5156</ele>
        <time>2019-11-21T13:59:58Z</time>
      </trkpt>
      <trkpt lat="42.93490598" lon="-2.22672752">
        <ele>641.98267</ele>
        <time>2019-11-21T13:59:59Z</time>
      </trkpt>
      <trkpt lat="42.93510035" lon="-2.22660907">
        <ele>642.64014</ele>
        <time>2019-11-21T14:00:00Z</time>
      </trkpt>
      <trkpt lat="42.93529724" lon="-2.22647783">
        <ele>644.14233</ele>
        <time>2019-11-21T14:00:01Z</time>
      </trkpt>
      <trkpt lat="42.93548965" lon="-2.22635604">
        <ele>645.0654</ele>
        <time>2019-11-21T14:00:02Z</time>
      </trkpt>
      <trkpt lat="42.93570657" lon="-2.22625209">
        <ele>647.1658</ele>
        <time>2019-11-21T14:00:03Z</time>
      </trkpt>
      <trkpt lat="42.93591603" lon="-2.22614697">
        <ele>648.31824</ele>
        <time>2019-11-21T14:00:04Z</time>
      </trkpt>
      <trkpt lat="42.93613874" lon="-2.22605908">
        <ele>649.58887</ele>
        <time>2019-11-21T14:00:05Z</time>
      </trkpt>
      <trkpt lat="42.93636215" lon="-2.2259835">
        <ele>650.60657</ele>
        <time>2019-11-21T14:00:06Z</time>
      </trkpt>
      <trkpt lat="42.93658799" lon="-2.22591361">
        <ele>651.41003</ele>
        <time>2019-11-21T14:00:07Z</time>
      </trkpt>
      <trkpt lat="42.93680663" lon="-2.22585426">
        <ele>651.7549</ele>
        <time>2019-11-21T14:00:08Z</time>
      </trkpt>
      <trkpt lat="42.93702283" lon="-2.22580592">
        <ele>653.2742</ele>
        <time>2019-11-21T14:00:09Z</time>
      </trkpt>
      <trkpt lat="42.93723156" lon="-2.22577253">
        <ele>653.6284</ele>
        <time>2019-11-21T14:00:11Z</time>
      </trkpt>
      <trkpt lat="42.93744779" lon="-2.22574971">
        <ele>653.37134</ele>
        <time>2019-11-21T14:00:12Z</time>
      </trkpt>
      <trkpt lat="42.93767444" lon="-2.22574326">
        <ele>655.44763</ele>
        <time>2019-11-21T14:00:13Z</time>
      </trkpt>
      <trkpt lat="42.9379112" lon="-2.22573294">
        <ele>656.84595</ele>
        <time>2019-11-21T14:00:14Z</time>
      </trkpt>
      <trkpt lat="42.93813419" lon="-2.22574599">
        <ele>657.72534</ele>
        <time>2019-11-21T14:00:15Z</time>
      </trkpt>
      <trkpt lat="42.93835606" lon="-2.22576929">
        <ele>657.9917</ele>
        <time>2019-11-21T14:00:16Z</time>
      </trkpt>
      <trkpt lat="42.93858185" lon="-2.22580409">
        <ele>658.662</ele>
        <time>2019-11-21T14:00:17Z</time>
      </trkpt>
      <trkpt lat="42.93881294" lon="-2.22585644">
        <ele>659.952</ele>
        <time>2019-11-21T14:00:18Z</time>
      </trkpt>
      <trkpt lat="42.9390464" lon="-2.22591438">
        <ele>661.18225</ele>
        <time>2019-11-21T14:00:19Z</time>
      </trkpt>
      <trkpt lat="42.93928574" lon="-2.22597889">
        <ele>662.3948</ele>
        <time>2019-11-21T14:00:20Z</time>
      </trkpt>
      <trkpt lat="42.93952015" lon="-2.22605207">
        <ele>663.6697</ele>
        <time>2019-11-21T14:00:21Z</time>
      </trkpt>
      <trkpt lat="42.93975594" lon="-2.22612129">
        <ele>664.57935</ele>
        <time>2019-11-21T14:00:22Z</time>
      </trkpt>
      <trkpt lat="42.94000037" lon="-2.2261892">
        <ele>665.91223</ele>
        <time>2019-11-21T14:00:23Z</time>
      </trkpt>
      <trkpt lat="42.94024635" lon="-2.2262395">
        <ele>666.34375</ele>
        <time>2019-11-21T14:00:24Z</time>
      </trkpt>
      <trkpt lat="42.94049077" lon="-2.22629033">
        <ele>666.3441</ele>
        <time>2019-11-21T14:00:25Z</time>
      </trkpt>
      <trkpt lat="42.94074058" lon="-2.22632495">
        <ele>667.14307</ele>
        <time>2019-11-21T14:00:26Z</time>
      </trkpt>
      <trkpt lat="42.94123513" lon="-2.22634777">
        <ele>668.3237</ele>
        <time>2019-11-21T14:00:27Z</time>
      </trkpt>
      <trkpt lat="42.94147699" lon="-2.22632514">
        <ele>668.4573</ele>
        <time>2019-11-21T14:00:28Z</time>
      </trkpt>
      <trkpt lat="42.94172035" lon="-2.22627819">
        <ele>668.8273</ele>
        <time>2019-11-21T14:00:29Z</time>
      </trkpt>
      <trkpt lat="42.94196009" lon="-2.2262241">
        <ele>669.41724</ele>
        <time>2019-11-21T14:00:30Z</time>
      </trkpt>
      <trkpt lat="42.94219134" lon="-2.22616437">
        <ele>671.20605</ele>
        <time>2019-11-21T14:00:31Z</time>
      </trkpt>
      <trkpt lat="42.94242201" lon="-2.22612001">
        <ele>671.5957</ele>
        <time>2019-11-21T14:00:32Z</time>
      </trkpt>
      <trkpt lat="42.94266156" lon="-2.22608422">
        <ele>671.60376</ele>
        <time>2019-11-21T14:00:33Z</time>
      </trkpt>
      <trkpt lat="42.94289121" lon="-2.22606129">
        <ele>670.473</ele>
        <time>2019-11-21T14:00:34Z</time>
      </trkpt>
      <trkpt lat="42.94312663" lon="-2.22606099">
        <ele>670.05664</ele>
        <time>2019-11-21T14:00:35Z</time>
      </trkpt>
      <trkpt lat="42.94336745" lon="-2.22609199">
        <ele>670.39453</ele>
        <time>2019-11-21T14:00:36Z</time>
      </trkpt>
      <trkpt lat="42.94360685" lon="-2.22613566">
        <ele>671.06055</ele>
        <time>2019-11-21T14:00:37Z</time>
      </trkpt>
      <trkpt lat="42.94384241" lon="-2.22617978">
        <ele>672.4358</ele>
        <time>2019-11-21T14:00:38Z</time>
      </trkpt>
      <trkpt lat="42.94407578" lon="-2.22623365">
        <ele>673.0381</ele>
        <time>2019-11-21T14:00:40Z</time>
      </trkpt>
      <trkpt lat="42.9443196" lon="-2.22629904">
        <ele>674.5471</ele>
        <time>2019-11-21T14:00:41Z</time>
      </trkpt>
      <trkpt lat="42.94455924" lon="-2.22634941">
        <ele>674.63965</ele>
        <time>2019-11-21T14:00:42Z</time>
      </trkpt>
      <trkpt lat="42.94479828" lon="-2.22640012">
        <ele>674.8218</ele>
        <time>2019-11-21T14:00:43Z</time>
      </trkpt>
      <trkpt lat="42.94503285" lon="-2.2264556">
        <ele>675.2744</ele>
        <time>2019-11-21T14:00:44Z</time>
      </trkpt>
      <trkpt lat="42.94527301" lon="-2.22651336">
        <ele>675.6277</ele>
        <time>2019-11-21T14:00:45Z</time>
      </trkpt>
      <trkpt lat="42.94551747" lon="-2.22657435">
        <ele>677.22644</ele>
        <time>2019-11-21T14:00:46Z</time>
      </trkpt>
      <trkpt lat="42.94575394" lon="-2.22662889">
        <ele>678.3452</ele>
        <time>2019-11-21T14:00:47Z</time>
      </trkpt>
      <trkpt lat="42.94598795" lon="-2.22667881">
        <ele>679.1216</ele>
        <time>2019-11-21T14:00:48Z</time>
      </trkpt>
      <trkpt lat="42.94621747" lon="-2.22673509">
        <ele>679.8108</ele>
        <time>2019-11-21T14:00:49Z</time>
      </trkpt>
      <trkpt lat="42.94644915" lon="-2.22679802">
        <ele>680.56836</ele>
        <time>2019-11-21T14:00:50Z</time>
      </trkpt>
      <trkpt lat="42.9466774" lon="-2.22688349">
        <ele>680.78613</ele>
        <time>2019-11-21T14:00:51Z</time>
      </trkpt>
      <trkpt lat="42.94688834" lon="-2.22699069">
        <ele>680.29846</ele>
        <time>2019-11-21T14:00:52Z</time>
      </trkpt>
      <trkpt lat="42.94709263" lon="-2.22711682">
        <ele>680.397</ele>
        <time>2019-11-21T14:00:53Z</time>
      </trkpt>
      <trkpt lat="42.94728346" lon="-2.22726565">
        <ele>679.8137</ele>
        <time>2019-11-21T14:00:54Z</time>
      </trkpt>
      <trkpt lat="42.94746588" lon="-2.22740817">
        <ele>679.9247</ele>
        <time>2019-11-21T14:00:55Z</time>
      </trkpt>
      <trkpt lat="42.94764762" lon="-2.22757565">
        <ele>679.41455</ele>
        <time>2019-11-21T14:00:56Z</time>
      </trkpt>
      <trkpt lat="42.94802769" lon="-2.22789955">
        <ele>679.67175</ele>
        <time>2019-11-21T14:00:57Z</time>
      </trkpt>
      <trkpt lat="42.94822214" lon="-2.2280486">
        <ele>678.51855</ele>
        <time>2019-11-21T14:00:58Z</time>
      </trkpt>
      <trkpt lat="42.94841361" lon="-2.22818233">
        <ele>676.8784</ele>
        <time>2019-11-21T14:00:59Z</time>
      </trkpt>
      <trkpt lat="42.94862588" lon="-2.22831729">
        <ele>676.32104</ele>
        <time>2019-11-21T14:01:00Z</time>
      </trkpt>
      <trkpt lat="42.94884144" lon="-2.22843449">
        <ele>676.1233</ele>
        <time>2019-11-21T14:01:01Z</time>
      </trkpt>
      <trkpt lat="42.94905727" lon="-2.22854024">
        <ele>676.05554</ele>
        <time>2019-11-21T14:01:02Z</time>
      </trkpt>
      <trkpt lat="42.94927405" lon="-2.22862789">
        <ele>676.0332</ele>
        <time>2019-11-21T14:01:03Z</time>
      </trkpt>
      <trkpt lat="42.94948875904083" lon="-2.2287118434906006">
        <ele>0.0</ele>
        <time>2019-11-21T14:01:04Z</time>
      </trkpt>
      <trkpt lat="42.95141411" lon="-2.22944184">
        <ele>671.4961</ele>
        <time>2019-11-21T14:01:13Z</time>
      </trkpt>
      <trkpt lat="42.95164981" lon="-2.22960657">
        <ele>669.839</ele>
        <time>2019-11-21T14:01:14Z</time>
      </trkpt>
      <trkpt lat="42.9518657" lon="-2.22979248">
        <ele>669.2881</ele>
        <time>2019-11-21T14:01:15Z</time>
      </trkpt>
      <trkpt lat="42.9520867" lon="-2.22998956">
        <ele>668.9446</ele>
        <time>2019-11-21T14:01:16Z</time>
      </trkpt>
      <trkpt lat="42.95229802" lon="-2.2302002">
        <ele>668.62024</ele>
        <time>2019-11-21T14:01:17Z</time>
      </trkpt>
      <trkpt lat="42.95249233" lon="-2.23042022">
        <ele>667.27783</ele>
        <time>2019-11-21T14:01:18Z</time>
      </trkpt>
      <trkpt lat="42.9526929" lon="-2.23066094">
        <ele>649.9094</ele>
        <time>2019-11-21T14:01:19Z</time>
      </trkpt>
      <trkpt lat="42.95287452" lon="-2.23090652">
        <ele>654.8052</ele>
        <time>2019-11-21T14:01:20Z</time>
      </trkpt>
      <trkpt lat="42.953064" lon="-2.23118825">
        <ele>659.2672</ele>
        <time>2019-11-21T14:01:21Z</time>
      </trkpt>
      <trkpt lat="42.95324924" lon="-2.2314562">
        <ele>660.6432</ele>
        <time>2019-11-21T14:01:22Z</time>
      </trkpt>
      <trkpt lat="42.95342758" lon="-2.23174046">
        <ele>662.03076</ele>
        <time>2019-11-21T14:01:23Z</time>
      </trkpt>
      <trkpt lat="42.95360147" lon="-2.23203213">
        <ele>662.29785</ele>
        <time>2019-11-21T14:01:24Z</time>
      </trkpt>
      <trkpt lat="42.95377411" lon="-2.23231691">
        <ele>663.9249</ele>
        <time>2019-11-21T14:01:25Z</time>
      </trkpt>
      <trkpt lat="42.95410088" lon="-2.23286606">
        <ele>664.4675</ele>
        <time>2019-11-21T14:01:26Z</time>
      </trkpt>
      <trkpt lat="42.95427117" lon="-2.23313874">
        <ele>664.3508</ele>
        <time>2019-11-21T14:01:27Z</time>
      </trkpt>
      <trkpt lat="42.95442407" lon="-2.23339709">
        <ele>664.7892</ele>
        <time>2019-11-21T14:01:28Z</time>
      </trkpt>
      <trkpt lat="42.95456407" lon="-2.23363594">
        <ele>664.8081</ele>
        <time>2019-11-21T14:01:29Z</time>
      </trkpt>
      <trkpt lat="42.95471063" lon="-2.23387267">
        <ele>664.7383</ele>
        <time>2019-11-21T14:01:30Z</time>
      </trkpt>
      <trkpt lat="42.95474519" lon="-2.23412004">
        <ele>656.4535</ele>
        <time>2019-11-21T14:01:31Z</time>
      </trkpt>
      <trkpt lat="42.9549006" lon="-2.23436088">
        <ele>655.56665</ele>
        <time>2019-11-21T14:01:32Z</time>
      </trkpt>
      <trkpt lat="42.95502293" lon="-2.2346329">
        <ele>654.4524</ele>
        <time>2019-11-21T14:01:33Z</time>
      </trkpt>
      <trkpt lat="42.9551759" lon="-2.23489348">
        <ele>654.2499</ele>
        <time>2019-11-21T14:01:34Z</time>
      </trkpt>
      <trkpt lat="42.95533332" lon="-2.23514107">
        <ele>654.32263</ele>
        <time>2019-11-21T14:01:35Z</time>
      </trkpt>
      <trkpt lat="42.95547271" lon="-2.23537786">
        <ele>653.2759</ele>
        <time>2019-11-21T14:01:36Z</time>
      </trkpt>
      <trkpt lat="42.95561737" lon="-2.23561221">
        <ele>651.6267</ele>
        <time>2019-11-21T14:01:37Z</time>
      </trkpt>
      <trkpt lat="42.95576492" lon="-2.23582779">
        <ele>651.3346</ele>
        <time>2019-11-21T14:01:38Z</time>
      </trkpt>
      <trkpt lat="42.95594457" lon="-2.23602435">
        <ele>650.27563</ele>
        <time>2019-11-21T14:01:39Z</time>
      </trkpt>
      <trkpt lat="42.95606369" lon="-2.23621887">
        <ele>643.6244</ele>
        <time>2019-11-21T14:01:40Z</time>
      </trkpt>
      <trkpt lat="42.95623646" lon="-2.23641126">
        <ele>647.4199</ele>
        <time>2019-11-21T14:01:41Z</time>
      </trkpt>
      <trkpt lat="42.95642762" lon="-2.23657474">
        <ele>645.8286</ele>
        <time>2019-11-21T14:01:43Z</time>
      </trkpt>
      <trkpt lat="42.95661106" lon="-2.236733">
        <ele>644.61865</ele>
        <time>2019-11-21T14:01:44Z</time>
      </trkpt>
      <trkpt lat="42.95680859" lon="-2.23687623">
        <ele>643.25085</ele>
        <time>2019-11-21T14:01:45Z</time>
      </trkpt>
      <trkpt lat="42.95703514" lon="-2.23699734">
        <ele>642.49927</ele>
        <time>2019-11-21T14:01:46Z</time>
      </trkpt>
      <trkpt lat="42.9572556" lon="-2.23707769">
        <ele>638.0371</ele>
        <time>2019-11-21T14:01:47Z</time>
      </trkpt>
      <trkpt lat="42.95746532" lon="-2.23717304">
        <ele>634.7551</ele>
        <time>2019-11-21T14:01:48Z</time>
      </trkpt>
      <trkpt lat="42.95767158" lon="-2.23721435">
        <ele>629.0847</ele>
        <time>2019-11-21T14:01:49Z</time>
      </trkpt>
      <trkpt lat="42.95789808" lon="-2.23727848">
        <ele>629.27954</ele>
        <time>2019-11-21T14:01:50Z</time>
      </trkpt>
      <trkpt lat="42.95812394" lon="-2.23732416">
        <ele>629.1028</ele>
        <time>2019-11-21T14:01:51Z</time>
      </trkpt>
      <trkpt lat="42.95835614204407" lon="-2.237370014190674">
        <ele>0.0</ele>
        <time>2019-11-21T14:01:52Z</time>
      </trkpt>
      <trkpt lat="42.95903702" lon="-2.23735448">
        <ele>620.8811</ele>
        <time>2019-11-21T14:01:55Z</time>
      </trkpt>
      <trkpt lat="42.95926888" lon="-2.23736602">
        <ele>616.0437</ele>
        <time>2019-11-21T14:01:56Z</time>
      </trkpt>
      <trkpt lat="42.95948522" lon="-2.23739406">
        <ele>610.1338</ele>
        <time>2019-11-21T14:01:57Z</time>
      </trkpt>
      <trkpt lat="42.95968747" lon="-2.23745257">
        <ele>608.27405</ele>
        <time>2019-11-21T14:01:58Z</time>
      </trkpt>
      <trkpt lat="42.96014083" lon="-2.23758231">
        <ele>603.9303</ele>
        <time>2019-11-21T14:01:59Z</time>
      </trkpt>
      <trkpt lat="42.96036091" lon="-2.23766234">
        <ele>600.9617</ele>
        <time>2019-11-21T14:02:00Z</time>
      </trkpt>
      <trkpt lat="42.96059186" lon="-2.23775329">
        <ele>597.95496</ele>
        <time>2019-11-21T14:02:01Z</time>
      </trkpt>
      <trkpt lat="42.96082723" lon="-2.23783589">
        <ele>595.87866</ele>
        <time>2019-11-21T14:02:02Z</time>
      </trkpt>
      <trkpt lat="42.96105862" lon="-2.2379083">
        <ele>593.80945</ele>
        <time>2019-11-21T14:02:03Z</time>
      </trkpt>
      <trkpt lat="42.96128018" lon="-2.2379651">
        <ele>593.82666</ele>
        <time>2019-11-21T14:02:04Z</time>
      </trkpt>
      <trkpt lat="42.96150702" lon="-2.23800524">
        <ele>592.9397</ele>
        <time>2019-11-21T14:02:05Z</time>
      </trkpt>
      <trkpt lat="42.96173391" lon="-2.23801599">
        <ele>592.20386</ele>
        <time>2019-11-21T14:02:06Z</time>
      </trkpt>
      <trkpt lat="42.96195879" lon="-2.23802098">
        <ele>592.6238</ele>
        <time>2019-11-21T14:02:07Z</time>
      </trkpt>
      <trkpt lat="42.96220566" lon="-2.23800077">
        <ele>591.0232</ele>
        <time>2019-11-21T14:02:08Z</time>
      </trkpt>
      <trkpt lat="42.96244984" lon="-2.23793114">
        <ele>589.08984</ele>
        <time>2019-11-21T14:02:09Z</time>
      </trkpt>
      <trkpt lat="42.96266706" lon="-2.23785842">
        <ele>588.4813</ele>
        <time>2019-11-21T14:02:10Z</time>
      </trkpt>
      <trkpt lat="42.96289562" lon="-2.23776981">
        <ele>588.1521</ele>
        <time>2019-11-21T14:02:11Z</time>
      </trkpt>
      <trkpt lat="42.96315798" lon="-2.23764189">
        <ele>587.41846</ele>
        <time>2019-11-21T14:02:13Z</time>
      </trkpt>
      <trkpt lat="42.96330894" lon="-2.23749551">
        <ele>585.65625</ele>
        <time>2019-11-21T14:02:14Z</time>
      </trkpt>
      <trkpt lat="42.96355442" lon="-2.23733154">
        <ele>583.59985</ele>
        <time>2019-11-21T14:02:15Z</time>
      </trkpt>
      <trkpt lat="42.96376923" lon="-2.23717694">
        <ele>579.9065</ele>
        <time>2019-11-21T14:02:16Z</time>
      </trkpt>
      <trkpt lat="42.96396842" lon="-2.2370422">
        <ele>580.02783</ele>
        <time>2019-11-21T14:02:17Z</time>
      </trkpt>
      <trkpt lat="42.96419064" lon="-2.23690501">
        <ele>578.7937</ele>
        <time>2019-11-21T14:02:18Z</time>
      </trkpt>
      <trkpt lat="42.96436295" lon="-2.23678069">
        <ele>573.5996</ele>
        <time>2019-11-21T14:02:19Z</time>
      </trkpt>
      <trkpt lat="42.96458024" lon="-2.23668188">
        <ele>571.68005</ele>
        <time>2019-11-21T14:02:20Z</time>
      </trkpt>
      <trkpt lat="42.96479116" lon="-2.2365951">
        <ele>569.1366</ele>
        <time>2019-11-21T14:02:21Z</time>
      </trkpt>
      <trkpt lat="42.9649971" lon="-2.23653638">
        <ele>567.2102</ele>
        <time>2019-11-21T14:02:22Z</time>
      </trkpt>
      <trkpt lat="42.96522761" lon="-2.23648812">
        <ele>564.7593</ele>
        <time>2019-11-21T14:02:23Z</time>
      </trkpt>
      <trkpt lat="42.96544322" lon="-2.23646336">
        <ele>562.88464</ele>
        <time>2019-11-21T14:02:24Z</time>
      </trkpt>
      <trkpt lat="42.9656682" lon="-2.23646166">
        <ele>561.22925</ele>
        <time>2019-11-21T14:02:25Z</time>
      </trkpt>
      <trkpt lat="42.96589566" lon="-2.23646552">
        <ele>559.64124</ele>
        <time>2019-11-21T14:02:26Z</time>
      </trkpt>
      <trkpt lat="42.96611167" lon="-2.23650814">
        <ele>556.6112</ele>
        <time>2019-11-21T14:02:27Z</time>
      </trkpt>
      <trkpt lat="42.96654827" lon="-2.23665919">
        <ele>552.3533</ele>
        <time>2019-11-21T14:02:28Z</time>
      </trkpt>
      <trkpt lat="42.96675297" lon="-2.23676386">
        <ele>551.7252</ele>
        <time>2019-11-21T14:02:29Z</time>
      </trkpt>
      <trkpt lat="42.96694494" lon="-2.23688343">
        <ele>550.48145</ele>
        <time>2019-11-21T14:02:30Z</time>
      </trkpt>
      <trkpt lat="42.96713338" lon="-2.23702041">
        <ele>548.9199</ele>
        <time>2019-11-21T14:02:31Z</time>
      </trkpt>
      <trkpt lat="42.96731781" lon="-2.23715413">
        <ele>547.43567</ele>
        <time>2019-11-21T14:02:32Z</time>
      </trkpt>
      <trkpt lat="42.9674931" lon="-2.23729535">
        <ele>545.7589</ele>
        <time>2019-11-21T14:02:33Z</time>
      </trkpt>
      <trkpt lat="42.96766891" lon="-2.23744061">
        <ele>544.3723</ele>
        <time>2019-11-21T14:02:34Z</time>
      </trkpt>
      <trkpt lat="42.96783221" lon="-2.23757774">
        <ele>542.9181</ele>
        <time>2019-11-21T14:02:35Z</time>
      </trkpt>
      <trkpt lat="42.96798995" lon="-2.23771388">
        <ele>541.9563</ele>
        <time>2019-11-21T14:02:36Z</time>
      </trkpt>
      <trkpt lat="42.96814733" lon="-2.23784737">
        <ele>539.9292</ele>
        <time>2019-11-21T14:02:37Z</time>
      </trkpt>
      <trkpt lat="42.96833046" lon="-2.23798382">
        <ele>538.8447</ele>
        <time>2019-11-21T14:02:38Z</time>
      </trkpt>
      <trkpt lat="42.96848691" lon="-2.23811736">
        <ele>537.5488</ele>
        <time>2019-11-21T14:02:39Z</time>
      </trkpt>
      <trkpt lat="42.96863563" lon="-2.23824946">
        <ele>535.5503</ele>
        <time>2019-11-21T14:02:41Z</time>
      </trkpt>
      <trkpt lat="42.96878171" lon="-2.23836974">
        <ele>533.2842</ele>
        <time>2019-11-21T14:02:42Z</time>
      </trkpt>
      <trkpt lat="42.96894472" lon="-2.23847155">
        <ele>532.2898</ele>
        <time>2019-11-21T14:02:43Z</time>
      </trkpt>
      <trkpt lat="42.96911455" lon="-2.23856218">
        <ele>532.18494</ele>
        <time>2019-11-21T14:02:44Z</time>
      </trkpt>
      <trkpt lat="42.96927476" lon="-2.23863139">
        <ele>531.6305</ele>
        <time>2019-11-21T14:02:45Z</time>
      </trkpt>
      <trkpt lat="42.96944551" lon="-2.23869402">
        <ele>529.5674</ele>
        <time>2019-11-21T14:02:46Z</time>
      </trkpt>
      <trkpt lat="42.96960628" lon="-2.2387502">
        <ele>528.50806</ele>
        <time>2019-11-21T14:02:47Z</time>
      </trkpt>
      <trkpt lat="42.96978155" lon="-2.23877974">
        <ele>526.48584</ele>
        <time>2019-11-21T14:02:48Z</time>
      </trkpt>
      <trkpt lat="42.96998767" lon="-2.23879398">
        <ele>524.2716</ele>
        <time>2019-11-21T14:02:49Z</time>
      </trkpt>
      <trkpt lat="42.97018662" lon="-2.23878026">
        <ele>523.2426</ele>
        <time>2019-11-21T14:02:50Z</time>
      </trkpt>
      <trkpt lat="42.97040073" lon="-2.23874919">
        <ele>522.37286</ele>
        <time>2019-11-21T14:02:51Z</time>
      </trkpt>
      <trkpt lat="42.97061545" lon="-2.23869416">
        <ele>520.98376</ele>
        <time>2019-11-21T14:02:52Z</time>
      </trkpt>
      <trkpt lat="42.97084422" lon="-2.23861226">
        <ele>518.04224</ele>
        <time>2019-11-21T14:02:53Z</time>
      </trkpt>
      <trkpt lat="42.97106979" lon="-2.23852622">
        <ele>517.076</ele>
        <time>2019-11-21T14:02:54Z</time>
      </trkpt>
      <trkpt lat="42.97129289" lon="-2.2384203">
        <ele>516.24603</ele>
        <time>2019-11-21T14:02:55Z</time>
      </trkpt>
      <trkpt lat="42.97152367" lon="-2.23829079">
        <ele>514.91675</ele>
        <time>2019-11-21T14:02:56Z</time>
      </trkpt>
      <trkpt lat="42.97194667" lon="-2.23800087">
        <ele>511.88287</ele>
        <time>2019-11-21T14:02:57Z</time>
      </trkpt>
      <trkpt lat="42.97212058" lon="-2.23784294">
        <ele>509.95374</ele>
        <time>2019-11-21T14:02:58Z</time>
      </trkpt>
      <trkpt lat="42.97230304" lon="-2.23764747">
        <ele>508.91113</ele>
        <time>2019-11-21T14:02:59Z</time>
      </trkpt>
      <trkpt lat="42.97247807" lon="-2.23743873">
        <ele>507.1101</ele>
        <time>2019-11-21T14:03:00Z</time>
      </trkpt>
      <trkpt lat="42.97264246" lon="-2.23721452">
        <ele>504.8341</ele>
        <time>2019-11-21T14:03:01Z</time>
      </trkpt>
      <trkpt lat="42.97280224" lon="-2.2369891">
        <ele>503.19714</ele>
        <time>2019-11-21T14:03:02Z</time>
      </trkpt>
      <trkpt lat="42.97298406" lon="-2.23675146">
        <ele>502.7298</ele>
        <time>2019-11-21T14:03:03Z</time>
      </trkpt>
      <trkpt lat="42.97316188" lon="-2.23652459">
        <ele>500.41132</ele>
        <time>2019-11-21T14:03:04Z</time>
      </trkpt>
      <trkpt lat="42.97333961" lon="-2.23628133">
        <ele>499.11145</ele>
        <time>2019-11-21T14:03:05Z</time>
      </trkpt>
      <trkpt lat="42.97351973" lon="-2.23604964">
        <ele>497.0713</ele>
        <time>2019-11-21T14:03:06Z</time>
      </trkpt>
      <trkpt lat="42.97369626" lon="-2.23581717">
        <ele>495.95227</ele>
        <time>2019-11-21T14:03:07Z</time>
      </trkpt>
      <trkpt lat="42.97387318" lon="-2.23557796">
        <ele>495.35583</ele>
        <time>2019-11-21T14:03:08Z</time>
      </trkpt>
      <trkpt lat="42.97405576" lon="-2.23534025">
        <ele>494.68896</ele>
        <time>2019-11-21T14:03:09Z</time>
      </trkpt>
      <trkpt lat="42.97423457" lon="-2.23509826">
        <ele>493.31848</ele>
        <time>2019-11-21T14:03:11Z</time>
      </trkpt>
      <trkpt lat="42.97440458" lon="-2.2348526">
        <ele>491.4336</ele>
        <time>2019-11-21T14:03:12Z</time>
      </trkpt>
      <trkpt lat="42.97458944" lon="-2.23462212">
        <ele>490.4077</ele>
        <time>2019-11-21T14:03:13Z</time>
      </trkpt>
      <trkpt lat="42.97477858" lon="-2.23438771">
        <ele>488.75964</ele>
        <time>2019-11-21T14:03:14Z</time>
      </trkpt>
      <trkpt lat="42.97493385" lon="-2.23415236">
        <ele>486.90125</ele>
        <time>2019-11-21T14:03:15Z</time>
      </trkpt>
      <trkpt lat="42.97510472" lon="-2.23393097">
        <ele>485.29907</ele>
        <time>2019-11-21T14:03:16Z</time>
      </trkpt>
      <trkpt lat="42.97528064" lon="-2.23372493">
        <ele>520.3291</ele>
        <time>2019-11-21T14:03:17Z</time>
      </trkpt>
      <trkpt lat="42.97546252" lon="-2.23354774">
        <ele>510.41077</ele>
        <time>2019-11-21T14:03:18Z</time>
      </trkpt>
      <trkpt lat="42.97563911" lon="-2.23337532">
        <ele>503.74072</ele>
        <time>2019-11-21T14:03:19Z</time>
      </trkpt>
      <trkpt lat="42.97582999" lon="-2.23324636">
        <ele>496.69812</ele>
        <time>2019-11-21T14:03:20Z</time>
      </trkpt>
      <trkpt lat="42.97602325" lon="-2.23315779">
        <ele>492.22534</ele>
        <time>2019-11-21T14:03:21Z</time>
      </trkpt>
      <trkpt lat="42.976225" lon="-2.2330874">
        <ele>489.6178</ele>
        <time>2019-11-21T14:03:22Z</time>
      </trkpt>
      <trkpt lat="42.97643523" lon="-2.23302721">
        <ele>483.85535</ele>
        <time>2019-11-21T14:03:23Z</time>
      </trkpt>
      <trkpt lat="42.9766607" lon="-2.23300968">
        <ele>483.48987</ele>
        <time>2019-11-21T14:03:24Z</time>
      </trkpt>
      <trkpt lat="42.97710801" lon="-2.23302773">
        <ele>476.5371</ele>
        <time>2019-11-21T14:03:25Z</time>
      </trkpt>
      <trkpt lat="42.977321" lon="-2.23308207">
        <ele>474.3451</ele>
        <time>2019-11-21T14:03:26Z</time>
      </trkpt>
      <trkpt lat="42.97754098" lon="-2.23315864">
        <ele>471.9812</ele>
        <time>2019-11-21T14:03:27Z</time>
      </trkpt>
      <trkpt lat="42.97774566" lon="-2.23326445">
        <ele>471.2193</ele>
        <time>2019-11-21T14:03:28Z</time>
      </trkpt>
      <trkpt lat="42.97795283" lon="-2.23340102">
        <ele>469.58923</ele>
        <time>2019-11-21T14:03:29Z</time>
      </trkpt>
      <trkpt lat="42.97814462" lon="-2.2335711">
        <ele>469.12305</ele>
        <time>2019-11-21T14:03:30Z</time>
      </trkpt>
      <trkpt lat="42.97830045" lon="-2.23375675">
        <ele>467.6029</ele>
        <time>2019-11-21T14:03:31Z</time>
      </trkpt>
      <trkpt lat="42.97846633" lon="-2.23396278">
        <ele>467.5133</ele>
        <time>2019-11-21T14:03:32Z</time>
      </trkpt>
      <trkpt lat="42.97860124" lon="-2.23421486">
        <ele>466.23547</ele>
        <time>2019-11-21T14:03:33Z</time>
      </trkpt>
      <trkpt lat="42.97873055" lon="-2.23447705">
        <ele>464.89014</ele>
        <time>2019-11-21T14:03:34Z</time>
      </trkpt>
      <trkpt lat="42.9788477" lon="-2.23475578">
        <ele>463.33337</ele>
        <time>2019-11-21T14:03:35Z</time>
      </trkpt>
      <trkpt lat="42.97895872" lon="-2.23501418">
        <ele>460.64185</ele>
        <time>2019-11-21T14:03:36Z</time>
      </trkpt>
      <trkpt lat="42.97908226" lon="-2.23527817">
        <ele>459.04504</ele>
        <time>2019-11-21T14:03:37Z</time>
      </trkpt>
      <trkpt lat="42.97921909" lon="-2.23553003">
        <ele>458.26306</ele>
        <time>2019-11-21T14:03:38Z</time>
      </trkpt>
      <trkpt lat="42.97937034" lon="-2.23577492">
        <ele>457.03363</ele>
        <time>2019-11-21T14:03:40Z</time>
      </trkpt>
      <trkpt lat="42.97952016" lon="-2.23599953">
        <ele>456.03583</ele>
        <time>2019-11-21T14:03:41Z</time>
      </trkpt>
      <trkpt lat="42.97969329" lon="-2.23621565">
        <ele>455.64453</ele>
        <time>2019-11-21T14:03:42Z</time>
      </trkpt>
      <trkpt lat="42.97986669" lon="-2.23639616">
        <ele>452.61548</ele>
        <time>2019-11-21T14:03:43Z</time>
      </trkpt>
      <trkpt lat="42.98005905" lon="-2.2365693">
        <ele>451.43066</ele>
        <time>2019-11-21T14:03:44Z</time>
      </trkpt>
      <trkpt lat="42.9802757" lon="-2.23671687">
        <ele>449.67194</ele>
        <time>2019-11-21T14:03:45Z</time>
      </trkpt>
      <trkpt lat="42.98049654" lon="-2.23683046">
        <ele>449.77734</ele>
        <time>2019-11-21T14:03:46Z</time>
      </trkpt>
      <trkpt lat="42.98071657" lon="-2.23692513">
        <ele>448.48865</ele>
        <time>2019-11-21T14:03:47Z</time>
      </trkpt>
      <trkpt lat="42.98095695" lon="-2.23697958">
        <ele>447.25085</ele>
        <time>2019-11-21T14:03:48Z</time>
      </trkpt>
      <trkpt lat="42.98118045" lon="-2.23702282">
        <ele>447.02087</ele>
        <time>2019-11-21T14:03:49Z</time>
      </trkpt>
      <trkpt lat="42.98142922" lon="-2.23705368">
        <ele>445.60498</ele>
        <time>2019-11-21T14:03:50Z</time>
      </trkpt>
      <trkpt lat="42.98164683" lon="-2.23704782">
        <ele>443.11584</ele>
        <time>2019-11-21T14:03:51Z</time>
      </trkpt>
      <trkpt lat="42.98188583" lon="-2.23707456">
        <ele>441.1872</ele>
        <time>2019-11-21T14:03:52Z</time>
      </trkpt>
      <trkpt lat="42.9821157" lon="-2.23711906">
        <ele>440.74097</ele>
        <time>2019-11-21T14:03:53Z</time>
      </trkpt>
      <trkpt lat="42.98235374" lon="-2.23719553">
        <ele>439.69653</ele>
        <time>2019-11-21T14:03:54Z</time>
      </trkpt>
      <trkpt lat="42.98257752" lon="-2.23729316">
        <ele>439.93823</ele>
        <time>2019-11-21T14:03:55Z</time>
      </trkpt>
      <trkpt lat="42.98299544" lon="-2.23748684">
        <ele>440.0232</ele>
        <time>2019-11-21T14:03:56Z</time>
      </trkpt>
      <trkpt lat="42.98322233" lon="-2.23760478">
        <ele>439.09082</ele>
        <time>2019-11-21T14:03:57Z</time>
      </trkpt>
      <trkpt lat="42.98347311" lon="-2.23770679">
        <ele>436.79846</ele>
        <time>2019-11-21T14:03:58Z</time>
      </trkpt>
      <trkpt lat="42.98371128" lon="-2.23777396">
        <ele>435.38263</ele>
        <time>2019-11-21T14:03:59Z</time>
      </trkpt>
      <trkpt lat="42.98393517" lon="-2.23778975">
        <ele>432.8424</ele>
        <time>2019-11-21T14:04:00Z</time>
      </trkpt>
      <trkpt lat="42.98414688" lon="-2.23777254">
        <ele>432.03583</ele>
        <time>2019-11-21T14:04:01Z</time>
      </trkpt>
      <trkpt lat="42.98436818" lon="-2.23773099">
        <ele>431.31482</ele>
        <time>2019-11-21T14:04:02Z</time>
      </trkpt>
      <trkpt lat="42.98460762" lon="-2.23765788">
        <ele>426.6665</ele>
        <time>2019-11-21T14:04:03Z</time>
      </trkpt>
      <trkpt lat="42.98482513" lon="-2.23756839">
        <ele>424.69153</ele>
        <time>2019-11-21T14:04:04Z</time>
      </trkpt>
      <trkpt lat="42.98504427" lon="-2.23743967">
        <ele>423.969</ele>
        <time>2019-11-21T14:04:05Z</time>
      </trkpt>
      <trkpt lat="42.98524683" lon="-2.23729523">
        <ele>421.84058</ele>
        <time>2019-11-21T14:04:06Z</time>
      </trkpt>
      <trkpt lat="42.98543905" lon="-2.23711824">
        <ele>422.50385</ele>
        <time>2019-11-21T14:04:07Z</time>
      </trkpt>
      <trkpt lat="42.98562356" lon="-2.23691909">
        <ele>421.17017</ele>
        <time>2019-11-21T14:04:08Z</time>
      </trkpt>
      <trkpt lat="42.98579667" lon="-2.23671524">
        <ele>419.76538</ele>
        <time>2019-11-21T14:04:09Z</time>
      </trkpt>
      <trkpt lat="42.98598241" lon="-2.23652205">
        <ele>418.81824</ele>
        <time>2019-11-21T14:04:10Z</time>
      </trkpt>
      <trkpt lat="42.98616972" lon="-2.23634226">
        <ele>417.1433</ele>
        <time>2019-11-21T14:04:12Z</time>
      </trkpt>
      <trkpt lat="42.98636202" lon="-2.2361592">
        <ele>416.3805</ele>
        <time>2019-11-21T14:04:13Z</time>
      </trkpt>
      <trkpt lat="42.98653198" lon="-2.23599924">
        <ele>413.99384</ele>
        <time>2019-11-21T14:04:14Z</time>
      </trkpt>
      <trkpt lat="42.98673115" lon="-2.23584862">
        <ele>411.7135</ele>
        <time>2019-11-21T14:04:15Z</time>
      </trkpt>
      <trkpt lat="42.98691336" lon="-2.23571453">
        <ele>410.00232</ele>
        <time>2019-11-21T14:04:16Z</time>
      </trkpt>
      <trkpt lat="42.98708617" lon="-2.23558486">
        <ele>407.81067</ele>
        <time>2019-11-21T14:04:17Z</time>
      </trkpt>
      <trkpt lat="42.98724902" lon="-2.23548364">
        <ele>405.74597</ele>
        <time>2019-11-21T14:04:18Z</time>
      </trkpt>
      <trkpt lat="42.98742539" lon="-2.23538685">
        <ele>404.5938</ele>
        <time>2019-11-21T14:04:19Z</time>
      </trkpt>
      <trkpt lat="42.98758415" lon="-2.23528928">
        <ele>402.6969</ele>
        <time>2019-11-21T14:04:20Z</time>
      </trkpt>
      <trkpt lat="42.98775637" lon="-2.23519548">
        <ele>401.3412</ele>
        <time>2019-11-21T14:04:21Z</time>
      </trkpt>
      <trkpt lat="42.98793167" lon="-2.23510334">
        <ele>399.60315</ele>
        <time>2019-11-21T14:04:22Z</time>
      </trkpt>
      <trkpt lat="42.98810977" lon="-2.23499965">
        <ele>398.82794</ele>
        <time>2019-11-21T14:04:23Z</time>
      </trkpt>
      <trkpt lat="42.98831093" lon="-2.23490061">
        <ele>398.03674</ele>
        <time>2019-11-21T14:04:24Z</time>
      </trkpt>
      <trkpt lat="42.98852137" lon="-2.23478835">
        <ele>396.62598</ele>
        <time>2019-11-21T14:04:25Z</time>
      </trkpt>
      <trkpt lat="42.98871021" lon="-2.23469165">
        <ele>395.75897</ele>
        <time>2019-11-21T14:04:26Z</time>
      </trkpt>
      <trkpt lat="42.98890204" lon="-2.23458045">
        <ele>394.71008</ele>
        <time>2019-11-21T14:04:27Z</time>
      </trkpt>
      <trkpt lat="42.98904443" lon="-2.23445365">
        <ele>392.3844</ele>
        <time>2019-11-21T14:04:28Z</time>
      </trkpt>
      <trkpt lat="42.98922803" lon="-2.23431645">
        <ele>391.10266</ele>
        <time>2019-11-21T14:04:29Z</time>
      </trkpt>
      <trkpt lat="42.9896403" lon="-2.23402916">
        <ele>388.89056</ele>
        <time>2019-11-21T14:04:30Z</time>
      </trkpt>
      <trkpt lat="42.98985024" lon="-2.23387925">
        <ele>387.55823</ele>
        <time>2019-11-21T14:04:31Z</time>
      </trkpt>
      <trkpt lat="42.99004647" lon="-2.23372714">
        <ele>385.00055</ele>
        <time>2019-11-21T14:04:32Z</time>
      </trkpt>
      <trkpt lat="42.99026723" lon="-2.23360009">
        <ele>382.92517</ele>
        <time>2019-11-21T14:04:33Z</time>
      </trkpt>
      <trkpt lat="42.99049164" lon="-2.23349731">
        <ele>382.30457</ele>
        <time>2019-11-21T14:04:34Z</time>
      </trkpt>
      <trkpt lat="42.99071716" lon="-2.23341298">
        <ele>380.95728</ele>
        <time>2019-11-21T14:04:35Z</time>
      </trkpt>
      <trkpt lat="42.99089648" lon="-2.23333277">
        <ele>379.09314</ele>
        <time>2019-11-21T14:04:36Z</time>
      </trkpt>
      <trkpt lat="42.9911278" lon="-2.23326345">
        <ele>379.1714</ele>
        <time>2019-11-21T14:04:37Z</time>
      </trkpt>
      <trkpt lat="42.99135732" lon="-2.23320435">
        <ele>378.6222</ele>
        <time>2019-11-21T14:04:38Z</time>
      </trkpt>
      <trkpt lat="42.99160671" lon="-2.23315488">
        <ele>377.18036</ele>
        <time>2019-11-21T14:04:39Z</time>
      </trkpt>
      <trkpt lat="42.9918404" lon="-2.23313505">
        <ele>376.3443</ele>
        <time>2019-11-21T14:04:40Z</time>
      </trkpt>
      <trkpt lat="42.992072" lon="-2.2331213">
        <ele>374.1986</ele>
        <time>2019-11-21T14:04:41Z</time>
      </trkpt>
      <trkpt lat="42.99232106" lon="-2.23311782">
        <ele>372.3048</ele>
        <time>2019-11-21T14:04:42Z</time>
      </trkpt>
      <trkpt lat="42.9925578" lon="-2.23311653">
        <ele>370.18726</ele>
        <time>2019-11-21T14:04:44Z</time>
      </trkpt>
      <trkpt lat="42.99280083" lon="-2.23313695">
        <ele>368.26453</ele>
        <time>2019-11-21T14:04:45Z</time>
      </trkpt>
      <trkpt lat="42.99303272" lon="-2.23314997">
        <ele>365.2796</ele>
        <time>2019-11-21T14:04:46Z</time>
      </trkpt>
      <trkpt lat="42.99327808" lon="-2.23321697">
        <ele>363.46765</ele>
        <time>2019-11-21T14:04:47Z</time>
      </trkpt>
      <trkpt lat="42.99350978" lon="-2.23329566">
        <ele>363.7328</ele>
        <time>2019-11-21T14:04:48Z</time>
      </trkpt>
      <trkpt lat="42.99372845" lon="-2.23340066">
        <ele>363.64966</ele>
        <time>2019-11-21T14:04:49Z</time>
      </trkpt>
      <trkpt lat="42.99394709" lon="-2.23354295">
        <ele>363.53345</ele>
        <time>2019-11-21T14:04:50Z</time>
      </trkpt>
      <trkpt lat="42.99413561" lon="-2.23368166">
        <ele>363.30994</ele>
        <time>2019-11-21T14:04:51Z</time>
      </trkpt>
      <trkpt lat="42.99431362" lon="-2.23384652">
        <ele>362.90875</ele>
        <time>2019-11-21T14:04:52Z</time>
      </trkpt>
      <trkpt lat="42.99449751" lon="-2.23399968">
        <ele>359.67767</ele>
        <time>2019-11-21T14:04:53Z</time>
      </trkpt>
      <trkpt lat="42.99466221" lon="-2.23416707">
        <ele>357.35315</ele>
        <time>2019-11-21T14:04:54Z</time>
      </trkpt>
      <trkpt lat="42.99483658" lon="-2.23432864">
        <ele>354.74707</ele>
        <time>2019-11-21T14:04:55Z</time>
      </trkpt>
      <trkpt lat="42.9950148" lon="-2.23447762">
        <ele>353.73853</ele>
        <time>2019-11-21T14:04:56Z</time>
      </trkpt>
      <trkpt lat="42.99521151" lon="-2.23461182">
        <ele>398.5243</ele>
        <time>2019-11-21T14:04:57Z</time>
      </trkpt>
      <trkpt lat="42.99539035" lon="-2.23470131">
        <ele>388.59723</ele>
        <time>2019-11-21T14:04:58Z</time>
      </trkpt>
      <trkpt lat="42.99559651" lon="-2.23479452">
        <ele>382.08057</ele>
        <time>2019-11-21T14:04:59Z</time>
      </trkpt>
      <trkpt lat="42.99579749" lon="-2.23484571">
        <ele>376.70984</ele>
        <time>2019-11-21T14:05:00Z</time>
      </trkpt>
      <trkpt lat="42.99623765" lon="-2.23491785">
        <ele>367.3106</ele>
        <time>2019-11-21T14:05:01Z</time>
      </trkpt>
      <trkpt lat="42.99645948" lon="-2.23492118">
        <ele>361.9989</ele>
        <time>2019-11-21T14:05:02Z</time>
      </trkpt>
      <trkpt lat="42.99667237" lon="-2.23492938">
        <ele>358.9132</ele>
        <time>2019-11-21T14:05:03Z</time>
      </trkpt>
      <trkpt lat="42.99689677" lon="-2.23493204">
        <ele>354.62183</ele>
        <time>2019-11-21T14:05:04Z</time>
      </trkpt>
      <trkpt lat="42.99711898" lon="-2.23495578">
        <ele>349.81323</ele>
        <time>2019-11-21T14:05:05Z</time>
      </trkpt>
      <trkpt lat="42.99732761" lon="-2.23498125">
        <ele>348.10364</ele>
        <time>2019-11-21T14:05:06Z</time>
      </trkpt>
      <trkpt lat="42.99753608" lon="-2.23500584">
        <ele>345.5636</ele>
        <time>2019-11-21T14:05:07Z</time>
      </trkpt>
      <trkpt lat="42.99773933" lon="-2.2350349">
        <ele>343.0448</ele>
        <time>2019-11-21T14:05:08Z</time>
      </trkpt>
      <trkpt lat="42.99794496" lon="-2.23504095">
        <ele>341.45435</ele>
        <time>2019-11-21T14:05:09Z</time>
      </trkpt>
      <trkpt lat="42.9981477" lon="-2.23502055">
        <ele>341.00494</ele>
        <time>2019-11-21T14:05:10Z</time>
      </trkpt>
      <trkpt lat="42.99835032" lon="-2.2350056">
        <ele>339.19995</ele>
        <time>2019-11-21T14:05:11Z</time>
      </trkpt>
      <trkpt lat="42.99856123" lon="-2.23497142">
        <ele>336.51337</ele>
        <time>2019-11-21T14:05:12Z</time>
      </trkpt>
      <trkpt lat="42.99876365" lon="-2.2349255">
        <ele>334.7342</ele>
        <time>2019-11-21T14:05:13Z</time>
      </trkpt>
      <trkpt lat="42.99896094" lon="-2.2348809">
        <ele>333.69104</ele>
        <time>2019-11-21T14:05:15Z</time>
      </trkpt>
      <trkpt lat="42.99917558" lon="-2.23484516">
        <ele>331.36993</ele>
        <time>2019-11-21T14:05:16Z</time>
      </trkpt>
      <trkpt lat="42.99938636" lon="-2.2348177">
        <ele>329.60474</ele>
        <time>2019-11-21T14:05:17Z</time>
      </trkpt>
      <trkpt lat="42.99960241" lon="-2.23479346">
        <ele>327.91583</ele>
        <time>2019-11-21T14:05:18Z</time>
      </trkpt>
      <trkpt lat="42.99982685" lon="-2.23478281">
        <ele>324.58405</ele>
        <time>2019-11-21T14:05:19Z</time>
      </trkpt>
      <trkpt lat="43.00004328" lon="-2.23477225">
        <ele>322.463</ele>
        <time>2019-11-21T14:05:20Z</time>
      </trkpt>
      <trkpt lat="43.00025605" lon="-2.23473569">
        <ele>321.32678</ele>
        <time>2019-11-21T14:05:21Z</time>
      </trkpt>
      <trkpt lat="43.00048225" lon="-2.23470056">
        <ele>318.98364</ele>
        <time>2019-11-21T14:05:22Z</time>
      </trkpt>
      <trkpt lat="43.00069628" lon="-2.23463346">
        <ele>317.2069</ele>
        <time>2019-11-21T14:05:23Z</time>
      </trkpt>
      <trkpt lat="43.00090578" lon="-2.23457965">
        <ele>316.1244</ele>
        <time>2019-11-21T14:05:24Z</time>
      </trkpt>
      <trkpt lat="43.0011336" lon="-2.23452106">
        <ele>315.68903</ele>
        <time>2019-11-21T14:05:25Z</time>
      </trkpt>
      <trkpt lat="43.00136647" lon="-2.23450209">
        <ele>313.576</ele>
        <time>2019-11-21T14:05:26Z</time>
      </trkpt>
      <trkpt lat="43.00157219" lon="-2.2344745">
        <ele>314.0276</ele>
        <time>2019-11-21T14:05:27Z</time>
      </trkpt>
      <trkpt lat="43.00179613" lon="-2.23446834">
        <ele>312.7212</ele>
        <time>2019-11-21T14:05:28Z</time>
      </trkpt>
      <trkpt lat="43.00201319" lon="-2.23450108">
        <ele>312.65576</ele>
        <time>2019-11-21T14:05:29Z</time>
      </trkpt>
      <trkpt lat="43.00223387" lon="-2.23448879">
        <ele>312.10663</ele>
        <time>2019-11-21T14:05:30Z</time>
      </trkpt>
      <trkpt lat="43.00270902" lon="-2.23459012">
        <ele>310.02008</ele>
        <time>2019-11-21T14:05:31Z</time>
      </trkpt>
      <trkpt lat="43.00292541" lon="-2.23465877">
        <ele>308.7973</ele>
        <time>2019-11-21T14:05:32Z</time>
      </trkpt>
      <trkpt lat="43.00314259" lon="-2.23473413">
        <ele>308.5003</ele>
        <time>2019-11-21T14:05:33Z</time>
      </trkpt>
      <trkpt lat="43.00337074" lon="-2.23479474">
        <ele>305.8828</ele>
        <time>2019-11-21T14:05:34Z</time>
      </trkpt>
      <trkpt lat="43.00358184" lon="-2.23485768">
        <ele>306.28418</ele>
        <time>2019-11-21T14:05:35Z</time>
      </trkpt>
      <trkpt lat="43.00381334" lon="-2.23500599">
        <ele>305.578</ele>
        <time>2019-11-21T14:05:36Z</time>
      </trkpt>
      <trkpt lat="43.0040051" lon="-2.23518181">
        <ele>304.70258</ele>
        <time>2019-11-21T14:05:37Z</time>
      </trkpt>
      <trkpt lat="43.00423147" lon="-2.23536759">
        <ele>304.02008</ele>
        <time>2019-11-21T14:05:38Z</time>
      </trkpt>
      <trkpt lat="43.00442522" lon="-2.235541">
        <ele>301.5575</ele>
        <time>2019-11-21T14:05:39Z</time>
      </trkpt>
      <trkpt lat="43.00464055" lon="-2.23570024">
        <ele>300.3001</ele>
        <time>2019-11-21T14:05:40Z</time>
      </trkpt>
      <trkpt lat="43.00487621" lon="-2.23585859">
        <ele>299.807</ele>
        <time>2019-11-21T14:05:41Z</time>
      </trkpt>
      <trkpt lat="43.00508087" lon="-2.23601554">
        <ele>299.70636</ele>
        <time>2019-11-21T14:05:42Z</time>
      </trkpt>
      <trkpt lat="43.00529061" lon="-2.23615349">
        <ele>299.03094</ele>
        <time>2019-11-21T14:05:43Z</time>
      </trkpt>
      <trkpt lat="43.00551559" lon="-2.23628473">
        <ele>297.3828</ele>
        <time>2019-11-21T14:05:45Z</time>
      </trkpt>
      <trkpt lat="43.0057741" lon="-2.23638258">
        <ele>295.0257</ele>
        <time>2019-11-21T14:05:46Z</time>
      </trkpt>
      <trkpt lat="43.00601262" lon="-2.23649358">
        <ele>293.8838</ele>
        <time>2019-11-21T14:05:47Z</time>
      </trkpt>
      <trkpt lat="43.00626075" lon="-2.23657073">
        <ele>294.5664</ele>
        <time>2019-11-21T14:05:48Z</time>
      </trkpt>
      <trkpt lat="43.00650276" lon="-2.23661003">
        <ele>292.3625</ele>
        <time>2019-11-21T14:05:49Z</time>
      </trkpt>
      <trkpt lat="43.00675965" lon="-2.23663939">
        <ele>293.08765</ele>
        <time>2019-11-21T14:05:50Z</time>
      </trkpt>
      <trkpt lat="43.00702106" lon="-2.2366627">
        <ele>292.26697</ele>
        <time>2019-11-21T14:05:51Z</time>
      </trkpt>
      <trkpt lat="43.00726733" lon="-2.23667011">
        <ele>292.79504</ele>
        <time>2019-11-21T14:05:52Z</time>
      </trkpt>
      <trkpt lat="43.00751465" lon="-2.23666403">
        <ele>290.38202</ele>
        <time>2019-11-21T14:05:53Z</time>
      </trkpt>
      <trkpt lat="43.0077843" lon="-2.23666207">
        <ele>290.33765</ele>
        <time>2019-11-21T14:05:54Z</time>
      </trkpt>
      <trkpt lat="43.00802926" lon="-2.23666447">
        <ele>290.67566</ele>
        <time>2019-11-21T14:05:55Z</time>
      </trkpt>
      <trkpt lat="43.0082786" lon="-2.23664736">
        <ele>289.77332</ele>
        <time>2019-11-21T14:05:56Z</time>
      </trkpt>
      <trkpt lat="43.00854746" lon="-2.23661372">
        <ele>289.404</ele>
        <time>2019-11-21T14:05:57Z</time>
      </trkpt>
      <trkpt lat="43.00878858" lon="-2.23656863">
        <ele>287.74658</ele>
        <time>2019-11-21T14:05:58Z</time>
      </trkpt>
      <trkpt lat="43.00903438" lon="-2.23651465">
        <ele>288.80298</ele>
        <time>2019-11-21T14:05:59Z</time>
      </trkpt>
      <trkpt lat="43.00929533" lon="-2.23645054">
        <ele>288.0515</ele>
        <time>2019-11-21T14:06:00Z</time>
      </trkpt>
      <trkpt lat="43.00982977" lon="-2.23634278">
        <ele>286.68176</ele>
        <time>2019-11-21T14:06:01Z</time>
      </trkpt>
      <trkpt lat="43.01008009" lon="-2.23626259">
        <ele>286.00568</ele>
        <time>2019-11-21T14:06:02Z</time>
      </trkpt>
      <trkpt lat="43.01031996" lon="-2.23617256">
        <ele>286.83105</ele>
        <time>2019-11-21T14:06:03Z</time>
      </trkpt>
      <trkpt lat="43.01057232" lon="-2.23608862">
        <ele>287.53583</ele>
        <time>2019-11-21T14:06:04Z</time>
      </trkpt>
      <trkpt lat="43.01082086" lon="-2.23599098">
        <ele>288.56702</ele>
        <time>2019-11-21T14:06:05Z</time>
      </trkpt>
      <trkpt lat="43.0110767" lon="-2.23589933">
        <ele>289.98267</ele>
        <time>2019-11-21T14:06:06Z</time>
      </trkpt>
      <trkpt lat="43.01133185" lon="-2.23581129">
        <ele>289.81763</ele>
        <time>2019-11-21T14:06:07Z</time>
      </trkpt>
      <trkpt lat="43.01159574" lon="-2.23573322">
        <ele>289.98767</ele>
        <time>2019-11-21T14:06:08Z</time>
      </trkpt>
      <trkpt lat="43.01187392" lon="-2.23567262">
        <ele>289.83813</ele>
        <time>2019-11-21T14:06:09Z</time>
      </trkpt>
      <trkpt lat="43.012118" lon="-2.23562355">
        <ele>290.43152</ele>
        <time>2019-11-21T14:06:10Z</time>
      </trkpt>
      <trkpt lat="43.01237584" lon="-2.23559269">
        <ele>291.20044</ele>
        <time>2019-11-21T14:06:11Z</time>
      </trkpt>
      <trkpt lat="43.01263488" lon="-2.23556759">
        <ele>291.43207</ele>
        <time>2019-11-21T14:06:12Z</time>
      </trkpt>
      <trkpt lat="43.01289178" lon="-2.23555727">
        <ele>291.53784</ele>
        <time>2019-11-21T14:06:13Z</time>
      </trkpt>
      <trkpt lat="43.01313213" lon="-2.23555862">
        <ele>290.8838</ele>
        <time>2019-11-21T14:06:15Z</time>
      </trkpt>
      <trkpt lat="43.01337415" lon="-2.23555761">
        <ele>291.11523</ele>
        <time>2019-11-21T14:06:16Z</time>
      </trkpt>
      <trkpt lat="43.01362968" lon="-2.23554822">
        <ele>290.1609</ele>
        <time>2019-11-21T14:06:17Z</time>
      </trkpt>
      <trkpt lat="43.01387883" lon="-2.23552">
        <ele>290.64893</ele>
        <time>2019-11-21T14:06:18Z</time>
      </trkpt>
      <trkpt lat="43.01413389" lon="-2.23548695">
        <ele>291.53455</ele>
        <time>2019-11-21T14:06:19Z</time>
      </trkpt>
      <trkpt lat="43.01437569" lon="-2.23545666">
        <ele>302.52942</ele>
        <time>2019-11-21T14:06:20Z</time>
      </trkpt>
      <trkpt lat="43.01462214" lon="-2.23541237">
        <ele>300.84448</ele>
        <time>2019-11-21T14:06:21Z</time>
      </trkpt>
      <trkpt lat="43.01487144" lon="-2.23538009">
        <ele>299.58008</ele>
        <time>2019-11-21T14:06:22Z</time>
      </trkpt>
      <trkpt lat="43.01512036" lon="-2.23535295">
        <ele>297.92633</ele>
        <time>2019-11-21T14:06:23Z</time>
      </trkpt>
      <trkpt lat="43.01535849" lon="-2.23533418">
        <ele>296.21594</ele>
        <time>2019-11-21T14:06:24Z</time>
      </trkpt>
      <trkpt lat="43.01561708" lon="-2.2353066">
        <ele>293.85437</ele>
        <time>2019-11-21T14:06:25Z</time>
      </trkpt>
      <trkpt lat="43.01586555" lon="-2.23530209">
        <ele>291.83704</ele>
        <time>2019-11-21T14:06:26Z</time>
      </trkpt>
      <trkpt lat="43.01612486" lon="-2.23530395">
        <ele>290.40735</ele>
        <time>2019-11-21T14:06:27Z</time>
      </trkpt>
      <trkpt lat="43.01638206" lon="-2.23529178">
        <ele>288.81573</ele>
        <time>2019-11-21T14:06:28Z</time>
      </trkpt>
      <trkpt lat="43.01689448" lon="-2.23528534">
        <ele>286.351</ele>
        <time>2019-11-21T14:06:29Z</time>
      </trkpt>
      <trkpt lat="43.01714718" lon="-2.23526398">
        <ele>285.45782</ele>
        <time>2019-11-21T14:06:30Z</time>
      </trkpt>
      <trkpt lat="43.01739086" lon="-2.23523528">
        <ele>285.3529</ele>
        <time>2019-11-21T14:06:31Z</time>
      </trkpt>
      <trkpt lat="43.01765563" lon="-2.23520225">
        <ele>284.51923</ele>
        <time>2019-11-21T14:06:32Z</time>
      </trkpt>
      <trkpt lat="43.01792477" lon="-2.23517172">
        <ele>282.2121</ele>
        <time>2019-11-21T14:06:33Z</time>
      </trkpt>
      <trkpt lat="43.01818747" lon="-2.23513818">
        <ele>281.8236</ele>
        <time>2019-11-21T14:06:34Z</time>
      </trkpt>
      <trkpt lat="43.01843974" lon="-2.23509638">
        <ele>281.19067</ele>
        <time>2019-11-21T14:06:35Z</time>
      </trkpt>
      <trkpt lat="43.0187132" lon="-2.23504846">
        <ele>277.51013</ele>
        <time>2019-11-21T14:06:36Z</time>
      </trkpt>
      <trkpt lat="43.01898647" lon="-2.23498281">
        <ele>275.1659</ele>
        <time>2019-11-21T14:06:37Z</time>
      </trkpt>
      <trkpt lat="43.01926496" lon="-2.2349137">
        <ele>275.10413</ele>
        <time>2019-11-21T14:06:38Z</time>
      </trkpt>
      <trkpt lat="43.01952826" lon="-2.23483297">
        <ele>274.39966</ele>
        <time>2019-11-21T14:06:39Z</time>
      </trkpt>
      <trkpt lat="43.01975928" lon="-2.23474907">
        <ele>273.37946</ele>
        <time>2019-11-21T14:06:40Z</time>
      </trkpt>
      <trkpt lat="43.01997531" lon="-2.23464522">
        <ele>271.802</ele>
        <time>2019-11-21T14:06:42Z</time>
      </trkpt>
      <trkpt lat="43.02022297" lon="-2.23452411">
        <ele>269.74115</ele>
        <time>2019-11-21T14:06:43Z</time>
      </trkpt>
      <trkpt lat="43.02047284" lon="-2.23441878">
        <ele>268.19934</ele>
        <time>2019-11-21T14:06:44Z</time>
      </trkpt>
      <trkpt lat="43.02072382" lon="-2.23427739">
        <ele>268.36047</ele>
        <time>2019-11-21T14:06:45Z</time>
      </trkpt>
      <trkpt lat="43.02096539" lon="-2.23413494">
        <ele>267.64758</ele>
        <time>2019-11-21T14:06:46Z</time>
      </trkpt>
      <trkpt lat="43.02123891" lon="-2.23399724">
        <ele>267.0996</ele>
        <time>2019-11-21T14:06:47Z</time>
      </trkpt>
      <trkpt lat="43.02147091" lon="-2.23386908">
        <ele>265.40442</ele>
        <time>2019-11-21T14:06:48Z</time>
      </trkpt>
      <trkpt lat="43.02170331" lon="-2.23374259">
        <ele>265.31854</ele>
        <time>2019-11-21T14:06:49Z</time>
      </trkpt>
      <trkpt lat="43.02190768" lon="-2.23362822">
        <ele>264.96082</ele>
        <time>2019-11-21T14:06:50Z</time>
      </trkpt>
      <trkpt lat="43.02215761" lon="-2.23351139">
        <ele>264.40857</ele>
        <time>2019-11-21T14:06:51Z</time>
      </trkpt>
      <trkpt lat="43.02238872" lon="-2.23340313">
        <ele>262.4181</ele>
        <time>2019-11-21T14:06:52Z</time>
      </trkpt>
      <trkpt lat="43.02263261" lon="-2.23330087">
        <ele>260.38904</ele>
        <time>2019-11-21T14:06:53Z</time>
      </trkpt>
      <trkpt lat="43.02288249" lon="-2.23321639">
        <ele>259.2635</ele>
        <time>2019-11-21T14:06:54Z</time>
      </trkpt>
      <trkpt lat="43.02314015" lon="-2.23308312">
        <ele>267.49146</ele>
        <time>2019-11-21T14:06:55Z</time>
      </trkpt>
      <trkpt lat="43.02337907" lon="-2.232968">
        <ele>263.73035</ele>
        <time>2019-11-21T14:06:56Z</time>
      </trkpt>
      <trkpt lat="43.02360812" lon="-2.23283077">
        <ele>259.85608</ele>
        <time>2019-11-21T14:06:57Z</time>
      </trkpt>
      <trkpt lat="43.02380428" lon="-2.23267759">
        <ele>258.0949</ele>
        <time>2019-11-21T14:06:58Z</time>
      </trkpt>
      <trkpt lat="43.02424068" lon="-2.2322877">
        <ele>255.70422</ele>
        <time>2019-11-21T14:06:59Z</time>
      </trkpt>
      <trkpt lat="43.02442896" lon="-2.23204869">
        <ele>253.5744</ele>
        <time>2019-11-21T14:07:00Z</time>
      </trkpt>
      <trkpt lat="43.02459844" lon="-2.23179541">
        <ele>252.44348</ele>
        <time>2019-11-21T14:07:01Z</time>
      </trkpt>
      <trkpt lat="43.02473654" lon="-2.23152316">
        <ele>251.91144</ele>
        <time>2019-11-21T14:07:02Z</time>
      </trkpt>
      <trkpt lat="43.02482899" lon="-2.23122737">
        <ele>251.7392</ele>
        <time>2019-11-21T14:07:03Z</time>
      </trkpt>
      <trkpt lat="43.0249442" lon="-2.23094787">
        <ele>250.7486</ele>
        <time>2019-11-21T14:07:04Z</time>
      </trkpt>
      <trkpt lat="43.02502059" lon="-2.23063715">
        <ele>249.90283</ele>
        <time>2019-11-21T14:07:05Z</time>
      </trkpt>
      <trkpt lat="43.02506756" lon="-2.23029625">
        <ele>249.35114</ele>
        <time>2019-11-21T14:07:06Z</time>
      </trkpt>
      <trkpt lat="43.02511707" lon="-2.22997347">
        <ele>262.24463</ele>
        <time>2019-11-21T14:07:07Z</time>
      </trkpt>
      <trkpt lat="43.02514725" lon="-2.22961562">
        <ele>258.8437</ele>
        <time>2019-11-21T14:07:08Z</time>
      </trkpt>
      <trkpt lat="43.02517683" lon="-2.22926998">
        <ele>254.80878</ele>
        <time>2019-11-21T14:07:09Z</time>
      </trkpt>
      <trkpt lat="43.02520819" lon="-2.22893786">
        <ele>252.0788</ele>
        <time>2019-11-21T14:07:10Z</time>
      </trkpt>
      <trkpt lat="43.02524165" lon="-2.2285995">
        <ele>249.46448</ele>
        <time>2019-11-21T14:07:12Z</time>
      </trkpt>
      <trkpt lat="43.02527347" lon="-2.22825547">
        <ele>247.3938</ele>
        <time>2019-11-21T14:07:13Z</time>
      </trkpt>
      <trkpt lat="43.02530619" lon="-2.22791397">
        <ele>246.37878</ele>
        <time>2019-11-21T14:07:14Z</time>
      </trkpt>
      <trkpt lat="43.02533508" lon="-2.22756794">
        <ele>245.23218</ele>
        <time>2019-11-21T14:07:15Z</time>
      </trkpt>
      <trkpt lat="43.02536863" lon="-2.22721814">
        <ele>244.72522</ele>
        <time>2019-11-21T14:07:16Z</time>
      </trkpt>
      <trkpt lat="43.02539907" lon="-2.22686641">
        <ele>244.87183</ele>
        <time>2019-11-21T14:07:17Z</time>
      </trkpt>
      <trkpt lat="43.02543271" lon="-2.22651336">
        <ele>244.13037</ele>
        <time>2019-11-21T14:07:18Z</time>
      </trkpt>
      <trkpt lat="43.02546773" lon="-2.22617475">
        <ele>243.85718</ele>
        <time>2019-11-21T14:07:19Z</time>
      </trkpt>
      <trkpt lat="43.02549491" lon="-2.22582204">
        <ele>243.43292</ele>
        <time>2019-11-21T14:07:20Z</time>
      </trkpt>
      <trkpt lat="43.02552931" lon="-2.22547134">
        <ele>243.99506</ele>
        <time>2019-11-21T14:07:21Z</time>
      </trkpt>
      <trkpt lat="43.02556221" lon="-2.22512454">
        <ele>244.16492</ele>
        <time>2019-11-21T14:07:22Z</time>
      </trkpt>
      <trkpt lat="43.02559037" lon="-2.22477967">
        <ele>244.1435</ele>
        <time>2019-11-21T14:07:23Z</time>
      </trkpt>
      <trkpt lat="43.02561682" lon="-2.22444658">
        <ele>243.49164</ele>
        <time>2019-11-21T14:07:24Z</time>
      </trkpt>
      <trkpt lat="43.02564164" lon="-2.224106">
        <ele>242.76843</ele>
        <time>2019-11-21T14:07:25Z</time>
      </trkpt>
      <trkpt lat="43.02566877" lon="-2.22378107">
        <ele>242.07043</ele>
        <time>2019-11-21T14:07:26Z</time>
      </trkpt>
      <trkpt lat="43.02569451" lon="-2.22345362">
        <ele>241.8565</ele>
        <time>2019-11-21T14:07:27Z</time>
      </trkpt>
      <trkpt lat="43.0257253" lon="-2.22313608">
        <ele>241.98651</ele>
        <time>2019-11-21T14:07:28Z</time>
      </trkpt>
      <trkpt lat="43.02583731" lon="-2.22255273">
        <ele>239.10083</ele>
        <time>2019-11-21T14:07:29Z</time>
      </trkpt>
      <trkpt lat="43.0259208" lon="-2.22230113">
        <ele>237.443</ele>
        <time>2019-11-21T14:07:30Z</time>
      </trkpt>
      <trkpt lat="43.02603248" lon="-2.22205463">
        <ele>236.57495</ele>
        <time>2019-11-21T14:07:31Z</time>
      </trkpt>
      <trkpt lat="43.02614783" lon="-2.22180558">
        <ele>236.49261</ele>
        <time>2019-11-21T14:07:32Z</time>
      </trkpt>
      <trkpt lat="43.02628525" lon="-2.22159616">
        <ele>235.51538</ele>
        <time>2019-11-21T14:07:33Z</time>
      </trkpt>
      <trkpt lat="43.02643236" lon="-2.22139255">
        <ele>235.76862</ele>
        <time>2019-11-21T14:07:34Z</time>
      </trkpt>
      <trkpt lat="43.02659567" lon="-2.22121746">
        <ele>234.5299</ele>
        <time>2019-11-21T14:07:35Z</time>
      </trkpt>
      <trkpt lat="43.02676424" lon="-2.22104349">
        <ele>232.38782</ele>
        <time>2019-11-21T14:07:36Z</time>
      </trkpt>
      <trkpt lat="43.02693999" lon="-2.22087724">
        <ele>232.22357</ele>
        <time>2019-11-21T14:07:37Z</time>
      </trkpt>
      <trkpt lat="43.02712442" lon="-2.22072138">
        <ele>237.89331</ele>
        <time>2019-11-21T14:07:38Z</time>
      </trkpt>
      <trkpt lat="43.02731785" lon="-2.22057921">
        <ele>235.51593</ele>
        <time>2019-11-21T14:07:39Z</time>
      </trkpt>
      <trkpt lat="43.02751573" lon="-2.22045315">
        <ele>234.14258</ele>
        <time>2019-11-21T14:07:40Z</time>
      </trkpt>
      <trkpt lat="43.02771763" lon="-2.22034084">
        <ele>233.0448</ele>
        <time>2019-11-21T14:07:41Z</time>
      </trkpt>
      <trkpt lat="43.02791482" lon="-2.22025342">
        <ele>233.27515</ele>
        <time>2019-11-21T14:07:42Z</time>
      </trkpt>
      <trkpt lat="43.02812583" lon="-2.22019026">
        <ele>231.81653</ele>
        <time>2019-11-21T14:07:43Z</time>
      </trkpt>
      <trkpt lat="43.02833368" lon="-2.22012994">
        <ele>230.95972</ele>
        <time>2019-11-21T14:07:45Z</time>
      </trkpt>
      <trkpt lat="43.02854655" lon="-2.2200574">
        <ele>229.50812</ele>
        <time>2019-11-21T14:07:46Z</time>
      </trkpt>
      <trkpt lat="43.0287611" lon="-2.21998674">
        <ele>229.4773</ele>
        <time>2019-11-21T14:07:47Z</time>
      </trkpt>
      <trkpt lat="43.02896755" lon="-2.2199254">
        <ele>228.58435</ele>
        <time>2019-11-21T14:07:48Z</time>
      </trkpt>
      <trkpt lat="43.02918156" lon="-2.21986361">
        <ele>227.38525</ele>
        <time>2019-11-21T14:07:49Z</time>
      </trkpt>
      <trkpt lat="43.02939367" lon="-2.21979678">
        <ele>227.00385</ele>
        <time>2019-11-21T14:07:50Z</time>
      </trkpt>
      <trkpt lat="43.02962786" lon="-2.21973205">
        <ele>225.7536</ele>
        <time>2019-11-21T14:07:51Z</time>
      </trkpt>
      <trkpt lat="43.02985882" lon="-2.21966263">
        <ele>225.91583</ele>
        <time>2019-11-21T14:07:52Z</time>
      </trkpt>
      <trkpt lat="43.03008031" lon="-2.21959525">
        <ele>225.23883</ele>
        <time>2019-11-21T14:07:53Z</time>
      </trkpt>
      <trkpt lat="43.03029849" lon="-2.21953689">
        <ele>224.05383</ele>
        <time>2019-11-21T14:07:54Z</time>
      </trkpt>
      <trkpt lat="43.03052829" lon="-2.21945663">
        <ele>224.15137</ele>
        <time>2019-11-21T14:07:55Z</time>
      </trkpt>
      <trkpt lat="43.03074261" lon="-2.21938456">
        <ele>224.9715</ele>
        <time>2019-11-21T14:07:56Z</time>
      </trkpt>
      <trkpt lat="43.0309546" lon="-2.2193065">
        <ele>224.82068</ele>
        <time>2019-11-21T14:07:57Z</time>
      </trkpt>
      <trkpt lat="43.03115637" lon="-2.2192246">
        <ele>224.43225</ele>
        <time>2019-11-21T14:07:58Z</time>
      </trkpt>
      <trkpt lat="43.03139522" lon="-2.2191613">
        <ele>223.28137</ele>
        <time>2019-11-21T14:07:59Z</time>
      </trkpt>
      <trkpt lat="43.03161129" lon="-2.21909231">
        <ele>222.48083</ele>
        <time>2019-11-21T14:08:00Z</time>
      </trkpt>
      <trkpt lat="43.03207048" lon="-2.21894098">
        <ele>222.16327</ele>
        <time>2019-11-21T14:08:01Z</time>
      </trkpt>
      <trkpt lat="43.03228435" lon="-2.2188543">
        <ele>221.88306</ele>
        <time>2019-11-21T14:08:02Z</time>
      </trkpt>
      <trkpt lat="43.03250862" lon="-2.21877956">
        <ele>221.66583</ele>
        <time>2019-11-21T14:08:03Z</time>
      </trkpt>
      <trkpt lat="43.03274647" lon="-2.21870741">
        <ele>220.13287</ele>
        <time>2019-11-21T14:08:04Z</time>
      </trkpt>
      <trkpt lat="43.03296231" lon="-2.21864684">
        <ele>219.62665</ele>
        <time>2019-11-21T14:08:05Z</time>
      </trkpt>
      <trkpt lat="43.03319924" lon="-2.21857792">
        <ele>227.67242</ele>
        <time>2019-11-21T14:08:06Z</time>
      </trkpt>
      <trkpt lat="43.03342141" lon="-2.21850265">
        <ele>225.21631</ele>
        <time>2019-11-21T14:08:07Z</time>
      </trkpt>
      <trkpt lat="43.03367024" lon="-2.21844395">
        <ele>222.4992</ele>
        <time>2019-11-21T14:08:08Z</time>
      </trkpt>
      <trkpt lat="43.03389808" lon="-2.21836822">
        <ele>222.74426</ele>
        <time>2019-11-21T14:08:09Z</time>
      </trkpt>
      <trkpt lat="43.03413204" lon="-2.21829185">
        <ele>221.31964</ele>
        <time>2019-11-21T14:08:10Z</time>
      </trkpt>
      <trkpt lat="43.03436451" lon="-2.21821473">
        <ele>220.57147</ele>
        <time>2019-11-21T14:08:11Z</time>
      </trkpt>
      <trkpt lat="43.03457887" lon="-2.21814144">
        <ele>220.28967</ele>
        <time>2019-11-21T14:08:12Z</time>
      </trkpt>
      <trkpt lat="43.034822" lon="-2.21807686">
        <ele>218.81085</ele>
        <time>2019-11-21T14:08:13Z</time>
      </trkpt>
      <trkpt lat="43.03506835" lon="-2.2180046">
        <ele>218.59357</ele>
        <time>2019-11-21T14:08:14Z</time>
      </trkpt>
      <trkpt lat="43.0352993" lon="-2.21791952">
        <ele>217.92578</ele>
        <time>2019-11-21T14:08:16Z</time>
      </trkpt>
      <trkpt lat="43.03554311" lon="-2.21784696">
        <ele>217.6388</ele>
        <time>2019-11-21T14:08:17Z</time>
      </trkpt>
      <trkpt lat="43.03580762" lon="-2.21778049">
        <ele>216.40546</ele>
        <time>2019-11-21T14:08:18Z</time>
      </trkpt>
      <trkpt lat="43.03602622" lon="-2.21769704">
        <ele>215.53436</ele>
        <time>2019-11-21T14:08:19Z</time>
      </trkpt>
      <trkpt lat="43.03627472" lon="-2.21761666">
        <ele>214.69</ele>
        <time>2019-11-21T14:08:20Z</time>
      </trkpt>
      <trkpt lat="43.03654414" lon="-2.21753442">
        <ele>215.45117</ele>
        <time>2019-11-21T14:08:21Z</time>
      </trkpt>
      <trkpt lat="43.03679268" lon="-2.21745243">
        <ele>215.34326</ele>
        <time>2019-11-21T14:08:22Z</time>
      </trkpt>
      <trkpt lat="43.03705854" lon="-2.21737939">
        <ele>215.1571</ele>
        <time>2019-11-21T14:08:23Z</time>
      </trkpt>
      <trkpt lat="43.03731711" lon="-2.2172959">
        <ele>215.46179</ele>
        <time>2019-11-21T14:08:24Z</time>
      </trkpt>
      <trkpt lat="43.03756815" lon="-2.21720219">
        <ele>215.38745</ele>
        <time>2019-11-21T14:08:25Z</time>
      </trkpt>
      <trkpt lat="43.03780404" lon="-2.21709859">
        <ele>215.34656</ele>
        <time>2019-11-21T14:08:26Z</time>
      </trkpt>
      <trkpt lat="43.03802462" lon="-2.2169944">
        <ele>214.01324</ele>
        <time>2019-11-21T14:08:27Z</time>
      </trkpt>
      <trkpt lat="43.03825396" lon="-2.21687542">
        <ele>214.00806</ele>
        <time>2019-11-21T14:08:28Z</time>
      </trkpt>
      <trkpt lat="43.03847258" lon="-2.21674841">
        <ele>213.69495</ele>
        <time>2019-11-21T14:08:29Z</time>
      </trkpt>
      <trkpt lat="43.03869505" lon="-2.21665396">
        <ele>213.79578</ele>
        <time>2019-11-21T14:08:30Z</time>
      </trkpt>
      <trkpt lat="43.03891079" lon="-2.21653982">
        <ele>213.94635</ele>
        <time>2019-11-21T14:08:31Z</time>
      </trkpt>
      <trkpt lat="43.03913955" lon="-2.21643527">
        <ele>212.93121</ele>
        <time>2019-11-21T14:08:32Z</time>
      </trkpt>
      <trkpt lat="43.03936631" lon="-2.21632071">
        <ele>212.71063</ele>
        <time>2019-11-21T14:08:33Z</time>
      </trkpt>
      <trkpt lat="43.03981088" lon="-2.21609617">
        <ele>211.67468</ele>
        <time>2019-11-21T14:08:34Z</time>
      </trkpt>
      <trkpt lat="43.04002494" lon="-2.215984">
        <ele>211.98108</ele>
        <time>2019-11-21T14:08:35Z</time>
      </trkpt>
      <trkpt lat="43.04026498" lon="-2.21585323">
        <ele>210.95331</ele>
        <time>2019-11-21T14:08:36Z</time>
      </trkpt>
      <trkpt lat="43.04050927" lon="-2.21572867">
        <ele>210.88354</ele>
        <time>2019-11-21T14:08:37Z</time>
      </trkpt>
      <trkpt lat="43.04072738" lon="-2.21561537">
        <ele>211.8429</ele>
        <time>2019-11-21T14:08:38Z</time>
      </trkpt>
      <trkpt lat="43.04092809" lon="-2.21550634">
        <ele>211.31396</ele>
        <time>2019-11-21T14:08:39Z</time>
      </trkpt>
      <trkpt lat="43.0411348" lon="-2.21539421">
        <ele>210.16162</ele>
        <time>2019-11-21T14:08:40Z</time>
      </trkpt>
      <trkpt lat="43.04131244" lon="-2.21529593">
        <ele>209.86865</ele>
        <time>2019-11-21T14:08:41Z</time>
      </trkpt>
      <trkpt lat="43.04150443" lon="-2.21518786">
        <ele>209.29163</ele>
        <time>2019-11-21T14:08:42Z</time>
      </trkpt>
      <trkpt lat="43.04166321" lon="-2.21509453">
        <ele>209.48828</ele>
        <time>2019-11-21T14:08:43Z</time>
      </trkpt>
      <trkpt lat="43.04180412" lon="-2.21500948">
        <ele>209.03479</ele>
        <time>2019-11-21T14:08:44Z</time>
      </trkpt>
      <trkpt lat="43.04193331" lon="-2.21492627">
        <ele>208.88806</ele>
        <time>2019-11-21T14:08:46Z</time>
      </trkpt>
      <trkpt lat="43.04210903" lon="-2.21475345">
        <ele>207.26154</ele>
        <time>2019-11-21T14:08:48Z</time>
      </trkpt>
      <trkpt lat="43.04224967" lon="-2.21449781">
        <ele>208.4195</ele>
        <time>2019-11-21T14:08:50Z</time>
      </trkpt>
      <trkpt lat="43.04231157" lon="-2.21417555">
        <ele>207.98224</ele>
        <time>2019-11-21T14:08:52Z</time>
      </trkpt>
      <trkpt lat="43.0423079" lon="-2.21397983">
        <ele>209.05463</ele>
        <time>2019-11-21T14:08:53Z</time>
      </trkpt>
      <trkpt lat="43.04229875" lon="-2.21378334">
        <ele>209.95667</ele>
        <time>2019-11-21T14:08:54Z</time>
      </trkpt>
      <trkpt lat="43.04229851" lon="-2.21358567">
        <ele>210.9469</ele>
        <time>2019-11-21T14:08:55Z</time>
      </trkpt>
      <trkpt lat="43.04230098" lon="-2.21338773">
        <ele>211.64014</ele>
        <time>2019-11-21T14:08:56Z</time>
      </trkpt>
      <trkpt lat="43.04233566" lon="-2.21319321">
        <ele>211.74536</ele>
        <time>2019-11-21T14:08:57Z</time>
      </trkpt>
      <trkpt lat="43.04238899" lon="-2.21300902">
        <ele>212.28912</ele>
        <time>2019-11-21T14:08:58Z</time>
      </trkpt>
      <trkpt lat="43.04246167" lon="-2.21284337">
        <ele>212.36438</ele>
        <time>2019-11-21T14:08:59Z</time>
      </trkpt>
      <trkpt lat="43.04256002" lon="-2.21270939">
        <ele>212.49774</ele>
        <time>2019-11-21T14:09:00Z</time>
      </trkpt>
      <trkpt lat="43.04266777" lon="-2.21258188">
        <ele>212.5448</ele>
        <time>2019-11-21T14:09:01Z</time>
      </trkpt>
      <trkpt lat="43.04280472" lon="-2.21246793">
        <ele>212.83344</ele>
        <time>2019-11-21T14:09:02Z</time>
      </trkpt>
      <trkpt lat="43.0430858" lon="-2.21237311">
        <ele>215.14429</ele>
        <time>2019-11-21T14:09:03Z</time>
      </trkpt>
      <trkpt lat="43.04323387" lon="-2.21237694">
        <ele>216.29016</ele>
        <time>2019-11-21T14:09:04Z</time>
      </trkpt>
      <trkpt lat="43.0433688" lon="-2.21241825">
        <ele>217.23254</ele>
        <time>2019-11-21T14:09:05Z</time>
      </trkpt>
      <trkpt lat="43.0435149" lon="-2.21253086">
        <ele>217.01648</ele>
        <time>2019-11-21T14:09:06Z</time>
      </trkpt>
      <trkpt lat="43.0436396" lon="-2.21267118">
        <ele>214.1676</ele>
        <time>2019-11-21T14:09:07Z</time>
      </trkpt>
      <trkpt lat="43.0437488" lon="-2.21283651">
        <ele>214.93262</ele>
        <time>2019-11-21T14:09:08Z</time>
      </trkpt>
      <trkpt lat="43.04384411" lon="-2.21303379">
        <ele>215.32025</ele>
        <time>2019-11-21T14:09:09Z</time>
      </trkpt>
      <trkpt lat="43.0439465" lon="-2.2132614">
        <ele>215.7633</ele>
        <time>2019-11-21T14:09:10Z</time>
      </trkpt>
      <trkpt lat="43.04405984" lon="-2.21351868">
        <ele>216.4859</ele>
        <time>2019-11-21T14:09:11Z</time>
      </trkpt>
      <trkpt lat="43.0441583" lon="-2.21375446">
        <ele>216.35632</ele>
        <time>2019-11-21T14:09:12Z</time>
      </trkpt>
      <trkpt lat="43.04423575" lon="-2.21402895">
        <ele>216.0647</ele>
        <time>2019-11-21T14:09:13Z</time>
      </trkpt>
      <trkpt lat="43.04430595" lon="-2.21431845">
        <ele>215.51855</ele>
        <time>2019-11-21T14:09:14Z</time>
      </trkpt>
      <trkpt lat="43.04435838" lon="-2.21459923">
        <ele>216.14984</ele>
        <time>2019-11-21T14:09:15Z</time>
      </trkpt>
      <trkpt lat="43.04441714" lon="-2.21488544">
        <ele>217.55426</ele>
        <time>2019-11-21T14:09:16Z</time>
      </trkpt>
      <trkpt lat="43.04445657" lon="-2.21517656">
        <ele>217.36719</ele>
        <time>2019-11-21T14:09:18Z</time>
      </trkpt>
      <trkpt lat="43.044506" lon="-2.21548166">
        <ele>218.70166</ele>
        <time>2019-11-21T14:09:19Z</time>
      </trkpt>
      <trkpt lat="43.04454969" lon="-2.21581904">
        <ele>219.66724</ele>
        <time>2019-11-21T14:09:20Z</time>
      </trkpt>
      <trkpt lat="43.0446148" lon="-2.21612216">
        <ele>220.11804</ele>
        <time>2019-11-21T14:09:21Z</time>
      </trkpt>
      <trkpt lat="43.04469211" lon="-2.21642699">
        <ele>220.34308</ele>
        <time>2019-11-21T14:09:22Z</time>
      </trkpt>
      <trkpt lat="43.04477132" lon="-2.21673776">
        <ele>221.72552</ele>
        <time>2019-11-21T14:09:23Z</time>
      </trkpt>
      <trkpt lat="43.0448677" lon="-2.2170689">
        <ele>222.90967</ele>
        <time>2019-11-21T14:09:24Z</time>
      </trkpt>
      <trkpt lat="43.04497739" lon="-2.21737365">
        <ele>223.85474</ele>
        <time>2019-11-21T14:09:25Z</time>
      </trkpt>
      <trkpt lat="43.04511534" lon="-2.21767401">
        <ele>225.46216</ele>
        <time>2019-11-21T14:09:26Z</time>
      </trkpt>
      <trkpt lat="43.04526638" lon="-2.21793484">
        <ele>225.8255</ele>
        <time>2019-11-21T14:09:27Z</time>
      </trkpt>
      <trkpt lat="43.04543705" lon="-2.21818269">
        <ele>226.51044</ele>
        <time>2019-11-21T14:09:28Z</time>
      </trkpt>
      <trkpt lat="43.04561561" lon="-2.21840038">
        <ele>228.07074</ele>
        <time>2019-11-21T14:09:29Z</time>
      </trkpt>
      <trkpt lat="43.0458078" lon="-2.21861179">
        <ele>229.48328</ele>
        <time>2019-11-21T14:09:30Z</time>
      </trkpt>
      <trkpt lat="43.04598937" lon="-2.21879263">
        <ele>230.41925</ele>
        <time>2019-11-21T14:09:31Z</time>
      </trkpt>
      <trkpt lat="43.04618976" lon="-2.21896127">
        <ele>230.01447</ele>
        <time>2019-11-21T14:09:32Z</time>
      </trkpt>
      <trkpt lat="43.04641965" lon="-2.21911265">
        <ele>231.79028</ele>
        <time>2019-11-21T14:09:33Z</time>
      </trkpt>
      <trkpt lat="43.04689873" lon="-2.21934214">
        <ele>234.94092</ele>
        <time>2019-11-21T14:09:34Z</time>
      </trkpt>
      <trkpt lat="43.04713769" lon="-2.21942843">
        <ele>234.84424</ele>
        <time>2019-11-21T14:09:35Z</time>
      </trkpt>
      <trkpt lat="43.04739162" lon="-2.21951152">
        <ele>235.5346</ele>
        <time>2019-11-21T14:09:36Z</time>
      </trkpt>
      <trkpt lat="43.04765525" lon="-2.21959896">
        <ele>234.26868</ele>
        <time>2019-11-21T14:09:37Z</time>
      </trkpt>
      <trkpt lat="43.04791709" lon="-2.21966964">
        <ele>234.20227</ele>
        <time>2019-11-21T14:09:38Z</time>
      </trkpt>
      <trkpt lat="43.04814486" lon="-2.21974362">
        <ele>234.31573</ele>
        <time>2019-11-21T14:09:39Z</time>
      </trkpt>
      <trkpt lat="43.0484072" lon="-2.21983477">
        <ele>234.58179</ele>
        <time>2019-11-21T14:09:40Z</time>
      </trkpt>
      <trkpt lat="43.04864877" lon="-2.21992029">
        <ele>235.94592</ele>
        <time>2019-11-21T14:09:41Z</time>
      </trkpt>
      <trkpt lat="43.04891571" lon="-2.22001476">
        <ele>237.23596</ele>
        <time>2019-11-21T14:09:42Z</time>
      </trkpt>
      <trkpt lat="43.04916489" lon="-2.22012846">
        <ele>239.13501</ele>
        <time>2019-11-21T14:09:43Z</time>
      </trkpt>
      <trkpt lat="43.04937926" lon="-2.22027534">
        <ele>241.06775</ele>
        <time>2019-11-21T14:09:44Z</time>
      </trkpt>
      <trkpt lat="43.0495737" lon="-2.22045079">
        <ele>243.96094</ele>
        <time>2019-11-21T14:09:45Z</time>
      </trkpt>
      <trkpt lat="43.04975635" lon="-2.22066382">
        <ele>244.8736</ele>
        <time>2019-11-21T14:09:47Z</time>
      </trkpt>
      <trkpt lat="43.04992091" lon="-2.22091005">
        <ele>245.05981</ele>
        <time>2019-11-21T14:09:48Z</time>
      </trkpt>
      <trkpt lat="43.05005647" lon="-2.22117948">
        <ele>245.05249</ele>
        <time>2019-11-21T14:09:49Z</time>
      </trkpt>
      <trkpt lat="43.05019746" lon="-2.2214749">
        <ele>247.45978</ele>
        <time>2019-11-21T14:09:50Z</time>
      </trkpt>
      <trkpt lat="43.05030664" lon="-2.22178912">
        <ele>247.79724</ele>
        <time>2019-11-21T14:09:51Z</time>
      </trkpt>
      <trkpt lat="43.05038868" lon="-2.22212116">
        <ele>248.16052</ele>
        <time>2019-11-21T14:09:52Z</time>
      </trkpt>
      <trkpt lat="43.050447" lon="-2.22246778">
        <ele>248.80261</ele>
        <time>2019-11-21T14:09:53Z</time>
      </trkpt>
      <trkpt lat="43.05046267" lon="-2.22282667">
        <ele>249.031</ele>
        <time>2019-11-21T14:09:54Z</time>
      </trkpt>
      <trkpt lat="43.05043843" lon="-2.22318655">
        <ele>247.99805</ele>
        <time>2019-11-21T14:09:55Z</time>
      </trkpt>
      <trkpt lat="43.05041561" lon="-2.22353683">
        <ele>249.35522</ele>
        <time>2019-11-21T14:09:56Z</time>
      </trkpt>
      <trkpt lat="43.05035983" lon="-2.22388149">
        <ele>250.4367</ele>
        <time>2019-11-21T14:09:57Z</time>
      </trkpt>
      <trkpt lat="43.05026059" lon="-2.22420699">
        <ele>250.75476</ele>
        <time>2019-11-21T14:09:58Z</time>
      </trkpt>
      <trkpt lat="43.05014297" lon="-2.22451819">
        <ele>251.12152</ele>
        <time>2019-11-21T14:09:59Z</time>
      </trkpt>
      <trkpt lat="43.05000223" lon="-2.22484369">
        <ele>250.04712</ele>
        <time>2019-11-21T14:10:00Z</time>
      </trkpt>
      <trkpt lat="43.04984224" lon="-2.2251452">
        <ele>250.1878</ele>
        <time>2019-11-21T14:10:01Z</time>
      </trkpt>
      <trkpt lat="43.04965944" lon="-2.2254059">
        <ele>250.42719</ele>
        <time>2019-11-21T14:10:02Z</time>
      </trkpt>
      <trkpt lat="43.04931032" lon="-2.22595001">
        <ele>250.07037</ele>
        <time>2019-11-21T14:10:03Z</time>
      </trkpt>
      <trkpt lat="43.04914419" lon="-2.22621931">
        <ele>249.7179</ele>
        <time>2019-11-21T14:10:04Z</time>
      </trkpt>
      <trkpt lat="43.04900922" lon="-2.2265033">
        <ele>250.18939</ele>
        <time>2019-11-21T14:10:05Z</time>
      </trkpt>
      <trkpt lat="43.04888225" lon="-2.2267763">
        <ele>247.59857</ele>
        <time>2019-11-21T14:10:06Z</time>
      </trkpt>
      <trkpt lat="43.04877684" lon="-2.22708236">
        <ele>247.37396</ele>
        <time>2019-11-21T14:10:07Z</time>
      </trkpt>
      <trkpt lat="43.04868999" lon="-2.22739993">
        <ele>248.59576</ele>
        <time>2019-11-21T14:10:08Z</time>
      </trkpt>
      <trkpt lat="43.04863574" lon="-2.22773598">
        <ele>248.33887</ele>
        <time>2019-11-21T14:10:09Z</time>
      </trkpt>
      <trkpt lat="43.04860381" lon="-2.22806151">
        <ele>247.17474</ele>
        <time>2019-11-21T14:10:10Z</time>
      </trkpt>
      <trkpt lat="43.04860847" lon="-2.22838955">
        <ele>247.37756</ele>
        <time>2019-11-21T14:10:11Z</time>
      </trkpt>
      <trkpt lat="43.04862956" lon="-2.22869903">
        <ele>247.13428</ele>
        <time>2019-11-21T14:10:12Z</time>
      </trkpt>
      <trkpt lat="43.04866875" lon="-2.22902804">
        <ele>247.37122</ele>
        <time>2019-11-21T14:10:13Z</time>
      </trkpt>
      <trkpt lat="43.04871777" lon="-2.22931819">
        <ele>247.81934</ele>
        <time>2019-11-21T14:10:14Z</time>
      </trkpt>
      <trkpt lat="43.04876782" lon="-2.2296217">
        <ele>247.6637</ele>
        <time>2019-11-21T14:10:15Z</time>
      </trkpt>
      <trkpt lat="43.04881183" lon="-2.22991718">
        <ele>247.67572</ele>
        <time>2019-11-21T14:10:16Z</time>
      </trkpt>
      <trkpt lat="43.04885708" lon="-2.23023714">
        <ele>248.73224</ele>
        <time>2019-11-21T14:10:17Z</time>
      </trkpt>
      <trkpt lat="43.04886026" lon="-2.23067018">
        <ele>248.19775</ele>
        <time>2019-11-21T14:10:18Z</time>
      </trkpt>
      <trkpt lat="43.04885124" lon="-2.23107062">
        <ele>245.48816</ele>
        <time>2019-11-21T14:10:19Z</time>
      </trkpt>
      <trkpt lat="43.04883426" lon="-2.23143603">
        <ele>245.75775</ele>
        <time>2019-11-21T14:10:20Z</time>
      </trkpt>
      <trkpt lat="43.04879591" lon="-2.23180765">
        <ele>245.38086</ele>
        <time>2019-11-21T14:10:21Z</time>
      </trkpt>
      <trkpt lat="43.04871674" lon="-2.23213816">
        <ele>244.71387</ele>
        <time>2019-11-21T14:10:22Z</time>
      </trkpt>
      <trkpt lat="43.04861583" lon="-2.23246095">
        <ele>243.96252</ele>
        <time>2019-11-21T14:10:23Z</time>
      </trkpt>
      <trkpt lat="43.04849194" lon="-2.23278099">
        <ele>243.29114</ele>
        <time>2019-11-21T14:10:24Z</time>
      </trkpt>
      <trkpt lat="43.04834257" lon="-2.23308328">
        <ele>241.80652</ele>
        <time>2019-11-21T14:10:25Z</time>
      </trkpt>
      <trkpt lat="43.04818587" lon="-2.23333377">
        <ele>240.76471</ele>
        <time>2019-11-21T14:10:27Z</time>
      </trkpt>
      <trkpt lat="43.04801256" lon="-2.23359313">
        <ele>240.63141</ele>
        <time>2019-11-21T14:10:28Z</time>
      </trkpt>
      <trkpt lat="43.04783793" lon="-2.23382041">
        <ele>241.5188</ele>
        <time>2019-11-21T14:10:29Z</time>
      </trkpt>
      <trkpt lat="43.04763538" lon="-2.23406114">
        <ele>242.09131</ele>
        <time>2019-11-21T14:10:30Z</time>
      </trkpt>
      <trkpt lat="43.04742529" lon="-2.23428065">
        <ele>241.39441</ele>
        <time>2019-11-21T14:10:31Z</time>
      </trkpt>
      <trkpt lat="43.047225" lon="-2.23449456">
        <ele>241.64282</ele>
        <time>2019-11-21T14:10:32Z</time>
      </trkpt>
      <trkpt lat="43.04702394" lon="-2.2347301">
        <ele>242.16174</ele>
        <time>2019-11-21T14:10:33Z</time>
      </trkpt>
      <trkpt lat="43.04665678" lon="-2.23517523">
        <ele>241.61963</ele>
        <time>2019-11-21T14:10:34Z</time>
      </trkpt>
      <trkpt lat="43.04648117" lon="-2.23544563">
        <ele>243.3081</ele>
        <time>2019-11-21T14:10:35Z</time>
      </trkpt>
      <trkpt lat="43.04635104" lon="-2.23568295">
        <ele>240.7721</ele>
        <time>2019-11-21T14:10:36Z</time>
      </trkpt>
      <trkpt lat="43.04627539" lon="-2.23600161">
        <ele>239.68115</ele>
        <time>2019-11-21T14:10:37Z</time>
      </trkpt>
      <trkpt lat="43.04620808" lon="-2.2363201">
        <ele>239.18182</ele>
        <time>2019-11-21T14:10:38Z</time>
      </trkpt>
      <trkpt lat="43.04616931" lon="-2.23664087">
        <ele>237.2168</ele>
        <time>2019-11-21T14:10:39Z</time>
      </trkpt>
      <trkpt lat="43.04614719" lon="-2.23696754">
        <ele>237.0838</ele>
        <time>2019-11-21T14:10:40Z</time>
      </trkpt>
      <trkpt lat="43.04614615" lon="-2.23729436">
        <ele>237.31677</ele>
        <time>2019-11-21T14:10:41Z</time>
      </trkpt>
      <trkpt lat="43.04617162" lon="-2.23761658">
        <ele>238.64526</ele>
        <time>2019-11-21T14:10:42Z</time>
      </trkpt>
      <trkpt lat="43.04620778" lon="-2.23795361">
        <ele>238.39862</ele>
        <time>2019-11-21T14:10:43Z</time>
      </trkpt>
      <trkpt lat="43.04624604" lon="-2.23827492">
        <ele>239.71765</ele>
        <time>2019-11-21T14:10:44Z</time>
      </trkpt>
      <trkpt lat="43.04629912" lon="-2.23860961">
        <ele>240.98364</ele>
        <time>2019-11-21T14:10:45Z</time>
      </trkpt>
      <trkpt lat="43.04635602" lon="-2.23892179">
        <ele>243.42969</ele>
        <time>2019-11-21T14:10:46Z</time>
      </trkpt>
      <trkpt lat="43.04641022" lon="-2.23924479">
        <ele>244.19482</ele>
        <time>2019-11-21T14:10:47Z</time>
      </trkpt>
      <trkpt lat="43.04646615" lon="-2.23954266">
        <ele>244.47314</ele>
        <time>2019-11-21T14:10:48Z</time>
      </trkpt>
      <trkpt lat="43.04650427" lon="-2.23989621">
        <ele>243.22284</ele>
        <time>2019-11-21T14:10:49Z</time>
      </trkpt>
      <trkpt lat="43.04653379" lon="-2.24024044">
        <ele>243.69482</ele>
        <time>2019-11-21T14:10:50Z</time>
      </trkpt>
      <trkpt lat="43.04656028" lon="-2.24054922">
        <ele>246.80743</ele>
        <time>2019-11-21T14:10:51Z</time>
      </trkpt>
      <trkpt lat="43.04656557" lon="-2.24088344">
        <ele>246.4154</ele>
        <time>2019-11-21T14:10:52Z</time>
      </trkpt>
      <trkpt lat="43.04654775" lon="-2.24124215">
        <ele>247.31476</ele>
        <time>2019-11-21T14:10:53Z</time>
      </trkpt>
      <trkpt lat="43.04650519" lon="-2.24158813">
        <ele>247.84119</ele>
        <time>2019-11-21T14:10:55Z</time>
      </trkpt>
      <trkpt lat="43.04645125" lon="-2.2419373">
        <ele>246.6004</ele>
        <time>2019-11-21T14:10:56Z</time>
      </trkpt>
      <trkpt lat="43.04638532" lon="-2.24227146">
        <ele>246.9624</ele>
        <time>2019-11-21T14:10:57Z</time>
      </trkpt>
      <trkpt lat="43.04629416" lon="-2.24259591">
        <ele>247.62451</ele>
        <time>2019-11-21T14:10:58Z</time>
      </trkpt>
      <trkpt lat="43.04619466" lon="-2.24291843">
        <ele>249.97168</ele>
        <time>2019-11-21T14:10:59Z</time>
      </trkpt>
      <trkpt lat="43.04608881" lon="-2.24321581">
        <ele>250.39972</ele>
        <time>2019-11-21T14:11:00Z</time>
      </trkpt>
      <trkpt lat="43.04596144" lon="-2.24351875">
        <ele>250.76239</ele>
        <time>2019-11-21T14:11:01Z</time>
      </trkpt>
      <trkpt lat="43.04581437" lon="-2.24380748">
        <ele>250.42126</ele>
        <time>2019-11-21T14:11:02Z</time>
      </trkpt>
      <trkpt lat="43.04548951" lon="-2.24434504">
        <ele>250.17383</ele>
        <time>2019-11-21T14:11:03Z</time>
      </trkpt>
      <trkpt lat="43.04531292" lon="-2.24458563">
        <ele>251.10278</ele>
        <time>2019-11-21T14:11:04Z</time>
      </trkpt>
      <trkpt lat="43.04506927" lon="-2.24480218">
        <ele>252.49768</ele>
        <time>2019-11-21T14:11:05Z</time>
      </trkpt>
      <trkpt lat="43.0448462" lon="-2.24500999">
        <ele>253.1853</ele>
        <time>2019-11-21T14:11:06Z</time>
      </trkpt>
      <trkpt lat="43.04462793" lon="-2.24520383">
        <ele>253.95941</ele>
        <time>2019-11-21T14:11:07Z</time>
      </trkpt>
      <trkpt lat="43.04440765" lon="-2.24536315">
        <ele>254.47815</ele>
        <time>2019-11-21T14:11:08Z</time>
      </trkpt>
      <trkpt lat="43.04418048" lon="-2.24554454">
        <ele>255.96686</ele>
        <time>2019-11-21T14:11:09Z</time>
      </trkpt>
      <trkpt lat="43.04396321" lon="-2.24572991">
        <ele>257.30267</ele>
        <time>2019-11-21T14:11:10Z</time>
      </trkpt>
      <trkpt lat="43.04374797" lon="-2.24594644">
        <ele>259.9336</ele>
        <time>2019-11-21T14:11:11Z</time>
      </trkpt>
      <trkpt lat="43.04356829" lon="-2.24617901">
        <ele>259.93726</ele>
        <time>2019-11-21T14:11:12Z</time>
      </trkpt>
      <trkpt lat="43.04337083" lon="-2.24642525">
        <ele>260.3521</ele>
        <time>2019-11-21T14:11:13Z</time>
      </trkpt>
      <trkpt lat="43.04321606" lon="-2.2466782">
        <ele>260.76843</ele>
        <time>2019-11-21T14:11:14Z</time>
      </trkpt>
      <trkpt lat="43.04308717" lon="-2.24699067">
        <ele>262.1089</ele>
        <time>2019-11-21T14:11:15Z</time>
      </trkpt>
      <trkpt lat="43.04297163" lon="-2.2473042">
        <ele>262.1067</ele>
        <time>2019-11-21T14:11:16Z</time>
      </trkpt>
      <trkpt lat="43.0428693" lon="-2.24762022">
        <ele>261.38562</ele>
        <time>2019-11-21T14:11:17Z</time>
      </trkpt>
      <trkpt lat="43.04277505" lon="-2.24793207">
        <ele>260.43353</ele>
        <time>2019-11-21T14:11:18Z</time>
      </trkpt>
      <trkpt lat="43.04272734" lon="-2.24825715">
        <ele>261.93774</ele>
        <time>2019-11-21T14:11:19Z</time>
      </trkpt>
      <trkpt lat="43.04272536" lon="-2.24864286">
        <ele>263.17523</ele>
        <time>2019-11-21T14:11:20Z</time>
      </trkpt>
      <trkpt lat="43.04269877" lon="-2.24899529">
        <ele>263.23608</ele>
        <time>2019-11-21T14:11:21Z</time>
      </trkpt>
      <trkpt lat="43.04272605" lon="-2.24933723">
        <ele>262.19946</ele>
        <time>2019-11-21T14:11:22Z</time>
      </trkpt>
      <trkpt lat="43.04279964" lon="-2.24968567">
        <ele>261.11548</ele>
        <time>2019-11-21T14:11:24Z</time>
      </trkpt>
      <trkpt lat="43.04289638" lon="-2.25001331">
        <ele>260.94067</ele>
        <time>2019-11-21T14:11:25Z</time>
      </trkpt>
      <trkpt lat="43.04300831" lon="-2.25031097">
        <ele>259.7339</ele>
        <time>2019-11-21T14:11:26Z</time>
      </trkpt>
      <trkpt lat="43.04315981" lon="-2.250603">
        <ele>258.68982</ele>
        <time>2019-11-21T14:11:27Z</time>
      </trkpt>
      <trkpt lat="43.04332822" lon="-2.25086534">
        <ele>257.43665</ele>
        <time>2019-11-21T14:11:28Z</time>
      </trkpt>
      <trkpt lat="43.04349672" lon="-2.25111536">
        <ele>258.69043</ele>
        <time>2019-11-21T14:11:29Z</time>
      </trkpt>
      <trkpt lat="43.04367501" lon="-2.25136018">
        <ele>258.86475</ele>
        <time>2019-11-21T14:11:30Z</time>
      </trkpt>
      <trkpt lat="43.04389398" lon="-2.25153245">
        <ele>258.32336</ele>
        <time>2019-11-21T14:11:31Z</time>
      </trkpt>
      <trkpt lat="43.04432144" lon="-2.25192073">
        <ele>258.56763</ele>
        <time>2019-11-21T14:11:32Z</time>
      </trkpt>
      <trkpt lat="43.04452024" lon="-2.25213149">
        <ele>258.59882</ele>
        <time>2019-11-21T14:11:33Z</time>
      </trkpt>
      <trkpt lat="43.04470708" lon="-2.25234351">
        <ele>258.11505</ele>
        <time>2019-11-21T14:11:34Z</time>
      </trkpt>
      <trkpt lat="43.04488198" lon="-2.25258231">
        <ele>258.49988</ele>
        <time>2019-11-21T14:11:35Z</time>
      </trkpt>
      <trkpt lat="43.04505388" lon="-2.25283633">
        <ele>258.6416</ele>
        <time>2019-11-21T14:11:36Z</time>
      </trkpt>
      <trkpt lat="43.04519619" lon="-2.25309956">
        <ele>259.90637</ele>
        <time>2019-11-21T14:11:37Z</time>
      </trkpt>
      <trkpt lat="43.04533177" lon="-2.25338505">
        <ele>261.42413</ele>
        <time>2019-11-21T14:11:38Z</time>
      </trkpt>
      <trkpt lat="43.04545642" lon="-2.2536873">
        <ele>261.85913</ele>
        <time>2019-11-21T14:11:39Z</time>
      </trkpt>
      <trkpt lat="43.04556688" lon="-2.25399281">
        <ele>262.29303</ele>
        <time>2019-11-21T14:11:40Z</time>
      </trkpt>
      <trkpt lat="43.04568119" lon="-2.2542915">
        <ele>261.9795</ele>
        <time>2019-11-21T14:11:41Z</time>
      </trkpt>
      <trkpt lat="43.04578753" lon="-2.25459623">
        <ele>262.3639</ele>
        <time>2019-11-21T14:11:42Z</time>
      </trkpt>
      <trkpt lat="43.04590171" lon="-2.25490119">
        <ele>262.55786</ele>
        <time>2019-11-21T14:11:43Z</time>
      </trkpt>
      <trkpt lat="43.04602634" lon="-2.25520273">
        <ele>263.42548</ele>
        <time>2019-11-21T14:11:44Z</time>
      </trkpt>
      <trkpt lat="43.04615202" lon="-2.25549808">
        <ele>263.7318</ele>
        <time>2019-11-21T14:11:45Z</time>
      </trkpt>
      <trkpt lat="43.04630169" lon="-2.25578001">
        <ele>263.943</ele>
        <time>2019-11-21T14:11:46Z</time>
      </trkpt>
      <trkpt lat="43.04645556" lon="-2.25605366">
        <ele>264.19885</ele>
        <time>2019-11-21T14:11:47Z</time>
      </trkpt>
      <trkpt lat="43.0466157" lon="-2.25631525">
        <ele>265.74774</ele>
        <time>2019-11-21T14:11:48Z</time>
      </trkpt>
      <trkpt lat="43.04678343" lon="-2.2565841">
        <ele>265.87646</ele>
        <time>2019-11-21T14:11:49Z</time>
      </trkpt>
      <trkpt lat="43.04698459" lon="-2.25682595">
        <ele>266.49744</ele>
        <time>2019-11-21T14:11:50Z</time>
      </trkpt>
      <trkpt lat="43.04718439" lon="-2.25706031">
        <ele>266.89148</ele>
        <time>2019-11-21T14:11:51Z</time>
      </trkpt>
      <trkpt lat="43.04738296" lon="-2.25726943">
        <ele>266.68127</ele>
        <time>2019-11-21T14:11:52Z</time>
      </trkpt>
      <trkpt lat="43.04759119" lon="-2.25746269">
        <ele>265.26318</ele>
        <time>2019-11-21T14:11:54Z</time>
      </trkpt>
      <trkpt lat="43.04781394" lon="-2.25765871">
        <ele>264.85315</ele>
        <time>2019-11-21T14:11:55Z</time>
      </trkpt>
      <trkpt lat="43.04804262" lon="-2.25783196">
        <ele>264.39325</ele>
        <time>2019-11-21T14:11:56Z</time>
      </trkpt>
      <trkpt lat="43.04826784" lon="-2.25797669">
        <ele>263.85352</ele>
        <time>2019-11-21T14:11:57Z</time>
      </trkpt>
      <trkpt lat="43.04850107" lon="-2.25811361">
        <ele>264.6291</ele>
        <time>2019-11-21T14:11:58Z</time>
      </trkpt>
      <trkpt lat="43.04873643" lon="-2.2582338">
        <ele>264.46338</ele>
        <time>2019-11-21T14:11:59Z</time>
      </trkpt>
      <trkpt lat="43.04897477" lon="-2.25831449">
        <ele>262.51294</ele>
        <time>2019-11-21T14:12:00Z</time>
      </trkpt>
      <trkpt lat="43.04920967" lon="-2.2584047">
        <ele>263.00677</ele>
        <time>2019-11-21T14:12:02Z</time>
      </trkpt>
      <trkpt lat="43.04997546" lon="-2.25855246">
        <ele>263.16638</ele>
        <time>2019-11-21T14:12:03Z</time>
      </trkpt>
      <trkpt lat="43.05023284" lon="-2.25857893">
        <ele>263.82013</ele>
        <time>2019-11-21T14:12:04Z</time>
      </trkpt>
      <trkpt lat="43.05051029" lon="-2.2585972">
        <ele>264.08356</ele>
        <time>2019-11-21T14:12:05Z</time>
      </trkpt>
      <trkpt lat="43.05078091" lon="-2.25864503">
        <ele>263.89246</ele>
        <time>2019-11-21T14:12:06Z</time>
      </trkpt>
      <trkpt lat="43.05104935" lon="-2.25866342">
        <ele>265.20984</ele>
        <time>2019-11-21T14:12:07Z</time>
      </trkpt>
      <trkpt lat="43.05132554" lon="-2.25870847">
        <ele>266.38953</ele>
        <time>2019-11-21T14:12:08Z</time>
      </trkpt>
      <trkpt lat="43.05160561" lon="-2.25870843">
        <ele>266.49353</ele>
        <time>2019-11-21T14:12:09Z</time>
      </trkpt>
      <trkpt lat="43.05188224" lon="-2.25875138">
        <ele>267.14575</ele>
        <time>2019-11-21T14:12:10Z</time>
      </trkpt>
      <trkpt lat="43.05215154" lon="-2.25878865">
        <ele>267.59528</ele>
        <time>2019-11-21T14:12:11Z</time>
      </trkpt>
      <trkpt lat="43.05242936" lon="-2.25885546">
        <ele>268.61414</ele>
        <time>2019-11-21T14:12:12Z</time>
      </trkpt>
      <trkpt lat="43.05271115" lon="-2.25891974">
        <ele>269.7138</ele>
        <time>2019-11-21T14:12:13Z</time>
      </trkpt>
      <trkpt lat="43.05298892" lon="-2.25900671">
        <ele>271.1175</ele>
        <time>2019-11-21T14:12:14Z</time>
      </trkpt>
      <trkpt lat="43.05327182" lon="-2.25910388">
        <ele>271.67603</ele>
        <time>2019-11-21T14:12:15Z</time>
      </trkpt>
      <trkpt lat="43.05353635" lon="-2.259222">
        <ele>271.8429</ele>
        <time>2019-11-21T14:12:16Z</time>
      </trkpt>
      <trkpt lat="43.05378207" lon="-2.25933467">
        <ele>272.51782</ele>
        <time>2019-11-21T14:12:17Z</time>
      </trkpt>
      <trkpt lat="43.05404153" lon="-2.25946568">
        <ele>272.42657</ele>
        <time>2019-11-21T14:12:18Z</time>
      </trkpt>
      <trkpt lat="43.05431033" lon="-2.25961443">
        <ele>273.2199</ele>
        <time>2019-11-21T14:12:19Z</time>
      </trkpt>
      <trkpt lat="43.05456517" lon="-2.25976574">
        <ele>273.74725</ele>
        <time>2019-11-21T14:12:20Z</time>
      </trkpt>
      <trkpt lat="43.05481221" lon="-2.25993167">
        <ele>273.99463</ele>
        <time>2019-11-21T14:12:21Z</time>
      </trkpt>
      <trkpt lat="43.05506626" lon="-2.26012047">
        <ele>274.30615</ele>
        <time>2019-11-21T14:12:22Z</time>
      </trkpt>
      <trkpt lat="43.05530233" lon="-2.260322">
        <ele>274.78937</ele>
        <time>2019-11-21T14:12:23Z</time>
      </trkpt>
      <trkpt lat="43.05553007" lon="-2.26051802">
        <ele>277.12354</ele>
        <time>2019-11-21T14:12:24Z</time>
      </trkpt>
      <trkpt lat="43.05577753" lon="-2.26071981">
        <ele>279.27185</ele>
        <time>2019-11-21T14:12:26Z</time>
      </trkpt>
      <trkpt lat="43.05601392" lon="-2.26093573">
        <ele>279.19983</ele>
        <time>2019-11-21T14:12:27Z</time>
      </trkpt>
      <trkpt lat="43.05625735" lon="-2.26115774">
        <ele>279.33392</ele>
        <time>2019-11-21T14:12:28Z</time>
      </trkpt>
      <trkpt lat="43.0564952" lon="-2.26139732">
        <ele>279.32648</ele>
        <time>2019-11-21T14:12:29Z</time>
      </trkpt>
      <trkpt lat="43.0567418" lon="-2.26164023">
        <ele>280.41418</ele>
        <time>2019-11-21T14:12:30Z</time>
      </trkpt>
      <trkpt lat="43.05696194" lon="-2.26189411">
        <ele>279.44946</ele>
        <time>2019-11-21T14:12:31Z</time>
      </trkpt>
      <trkpt lat="43.05718007" lon="-2.26214378">
        <ele>279.10205</ele>
        <time>2019-11-21T14:12:32Z</time>
      </trkpt>
      <trkpt lat="43.0573996" lon="-2.26241469">
        <ele>278.8803</ele>
        <time>2019-11-21T14:12:33Z</time>
      </trkpt>
      <trkpt lat="43.05784278" lon="-2.26296297">
        <ele>278.64697</ele>
        <time>2019-11-21T14:12:34Z</time>
      </trkpt>
      <trkpt lat="43.0580641" lon="-2.26323957">
        <ele>279.083</ele>
        <time>2019-11-21T14:12:35Z</time>
      </trkpt>
      <trkpt lat="43.05827501" lon="-2.26352734">
        <ele>278.5503</ele>
        <time>2019-11-21T14:12:36Z</time>
      </trkpt>
      <trkpt lat="43.05848954" lon="-2.26381431">
        <ele>278.69177</ele>
        <time>2019-11-21T14:12:37Z</time>
      </trkpt>
      <trkpt lat="43.05868722" lon="-2.2641135">
        <ele>278.62604</ele>
        <time>2019-11-21T14:12:38Z</time>
      </trkpt>
      <trkpt lat="43.05888712" lon="-2.26441799">
        <ele>278.2339</ele>
        <time>2019-11-21T14:12:39Z</time>
      </trkpt>
      <trkpt lat="43.05909887" lon="-2.26472369">
        <ele>279.32007</ele>
        <time>2019-11-21T14:12:40Z</time>
      </trkpt>
      <trkpt lat="43.05929411" lon="-2.26505213">
        <ele>280.41595</ele>
        <time>2019-11-21T14:12:41Z</time>
      </trkpt>
      <trkpt lat="43.05948653" lon="-2.26539505">
        <ele>280.22375</ele>
        <time>2019-11-21T14:12:42Z</time>
      </trkpt>
      <trkpt lat="43.05966341" lon="-2.2657173">
        <ele>279.6167</ele>
        <time>2019-11-21T14:12:43Z</time>
      </trkpt>
      <trkpt lat="43.05983961" lon="-2.26604336">
        <ele>279.03345</ele>
        <time>2019-11-21T14:12:44Z</time>
      </trkpt>
      <trkpt lat="43.06000616" lon="-2.26638567">
        <ele>279.0417</ele>
        <time>2019-11-21T14:12:45Z</time>
      </trkpt>
      <trkpt lat="43.06016569" lon="-2.26674098">
        <ele>279.30054</ele>
        <time>2019-11-21T14:12:46Z</time>
      </trkpt>
      <trkpt lat="43.06031325" lon="-2.26708568">
        <ele>276.69293</ele>
        <time>2019-11-21T14:12:47Z</time>
      </trkpt>
      <trkpt lat="43.06045792" lon="-2.26742415">
        <ele>275.4745</ele>
        <time>2019-11-21T14:12:48Z</time>
      </trkpt>
      <trkpt lat="43.06059938" lon="-2.26776522">
        <ele>276.37665</ele>
        <time>2019-11-21T14:12:49Z</time>
      </trkpt>
      <trkpt lat="43.06073062" lon="-2.26813678">
        <ele>275.61658</ele>
        <time>2019-11-21T14:12:50Z</time>
      </trkpt>
      <trkpt lat="43.06085798" lon="-2.26851539">
        <ele>275.81543</ele>
        <time>2019-11-21T14:12:51Z</time>
      </trkpt>
      <trkpt lat="43.06097529" lon="-2.26889415">
        <ele>275.37</ele>
        <time>2019-11-21T14:12:52Z</time>
      </trkpt>
      <trkpt lat="43.06109321" lon="-2.26927479">
        <ele>275.37292</ele>
        <time>2019-11-21T14:12:53Z</time>
      </trkpt>
      <trkpt lat="43.06119979" lon="-2.26964885">
        <ele>275.23694</ele>
        <time>2019-11-21T14:12:54Z</time>
      </trkpt>
      <trkpt lat="43.06130449" lon="-2.27002922">
        <ele>275.7235</ele>
        <time>2019-11-21T14:12:56Z</time>
      </trkpt>
      <trkpt lat="43.06141954" lon="-2.27037105">
        <ele>275.98987</ele>
        <time>2019-11-21T14:12:57Z</time>
      </trkpt>
      <trkpt lat="43.06148904" lon="-2.2708039">
        <ele>275.12354</ele>
        <time>2019-11-21T14:12:58Z</time>
      </trkpt>
      <trkpt lat="43.0615865" lon="-2.2711836">
        <ele>275.21246</ele>
        <time>2019-11-21T14:12:59Z</time>
      </trkpt>
      <trkpt lat="43.06169312" lon="-2.27155565">
        <ele>274.72235</ele>
        <time>2019-11-21T14:13:00Z</time>
      </trkpt>
      <trkpt lat="43.06182023" lon="-2.27192409">
        <ele>274.84436</ele>
        <time>2019-11-21T14:13:01Z</time>
      </trkpt>
      <trkpt lat="43.0619517" lon="-2.27226338">
        <ele>274.98645</ele>
        <time>2019-11-21T14:13:02Z</time>
      </trkpt>
      <trkpt lat="43.06210414" lon="-2.27256729">
        <ele>275.0556</ele>
        <time>2019-11-21T14:13:03Z</time>
      </trkpt>
      <trkpt lat="43.06235861" lon="-2.27336069">
        <ele>271.48938</ele>
        <time>2019-11-21T14:13:04Z</time>
      </trkpt>
      <trkpt lat="43.06253368" lon="-2.27368141">
        <ele>272.07056</ele>
        <time>2019-11-21T14:13:05Z</time>
      </trkpt>
      <trkpt lat="43.06271944" lon="-2.27399909">
        <ele>272.56885</ele>
        <time>2019-11-21T14:13:06Z</time>
      </trkpt>
      <trkpt lat="43.06289145" lon="-2.27433842">
        <ele>273.7069</ele>
        <time>2019-11-21T14:13:07Z</time>
      </trkpt>
      <trkpt lat="43.06306454" lon="-2.27467678">
        <ele>274.6715</ele>
        <time>2019-11-21T14:13:08Z</time>
      </trkpt>
      <trkpt lat="43.06325093" lon="-2.27499217">
        <ele>276.7915</ele>
        <time>2019-11-21T14:13:09Z</time>
      </trkpt>
      <trkpt lat="43.06338126" lon="-2.27534246">
        <ele>276.92438</ele>
        <time>2019-11-21T14:13:10Z</time>
      </trkpt>
      <trkpt lat="43.06351763" lon="-2.27569781">
        <ele>276.7865</ele>
        <time>2019-11-21T14:13:11Z</time>
      </trkpt>
      <trkpt lat="43.06365584" lon="-2.27605446">
        <ele>276.59875</ele>
        <time>2019-11-21T14:13:12Z</time>
      </trkpt>
      <trkpt lat="43.06377697" lon="-2.27643019">
        <ele>277.40332</ele>
        <time>2019-11-21T14:13:13Z</time>
      </trkpt>
      <trkpt lat="43.06388166" lon="-2.27680737">
        <ele>277.7588</ele>
        <time>2019-11-21T14:13:14Z</time>
      </trkpt>
      <trkpt lat="43.06396937" lon="-2.27719148">
        <ele>277.77502</ele>
        <time>2019-11-21T14:13:15Z</time>
      </trkpt>
      <trkpt lat="43.06406063" lon="-2.27756897">
        <ele>277.63428</ele>
        <time>2019-11-21T14:13:16Z</time>
      </trkpt>
      <trkpt lat="43.06414864" lon="-2.27799311">
        <ele>278.24048</ele>
        <time>2019-11-21T14:13:17Z</time>
      </trkpt>
      <trkpt lat="43.06425146" lon="-2.27840487">
        <ele>278.74963</ele>
        <time>2019-11-21T14:13:18Z</time>
      </trkpt>
      <trkpt lat="43.06436871" lon="-2.27878884">
        <ele>278.37976</ele>
        <time>2019-11-21T14:13:19Z</time>
      </trkpt>
      <trkpt lat="43.06450764" lon="-2.27918134">
        <ele>278.9994</ele>
        <time>2019-11-21T14:13:20Z</time>
      </trkpt>
      <trkpt lat="43.06466113" lon="-2.27955252">
        <ele>279.01038</ele>
        <time>2019-11-21T14:13:21Z</time>
      </trkpt>
      <trkpt lat="43.06480099" lon="-2.27993703">
        <ele>278.90393</ele>
        <time>2019-11-21T14:13:22Z</time>
      </trkpt>
      <trkpt lat="43.06497257" lon="-2.28026396">
        <ele>279.49976</ele>
        <time>2019-11-21T14:13:23Z</time>
      </trkpt>
      <trkpt lat="43.06518767" lon="-2.28039609">
        <ele>278.664</ele>
        <time>2019-11-21T14:13:25Z</time>
      </trkpt>
      <trkpt lat="43.06534346" lon="-2.2806843">
        <ele>277.45142</ele>
        <time>2019-11-21T14:13:26Z</time>
      </trkpt>
      <trkpt lat="43.06546222" lon="-2.28104318">
        <ele>277.13385</ele>
        <time>2019-11-21T14:13:27Z</time>
      </trkpt>
      <trkpt lat="43.0655759" lon="-2.281405">
        <ele>277.6245</ele>
        <time>2019-11-21T14:13:28Z</time>
      </trkpt>
      <trkpt lat="43.06567353" lon="-2.28177156">
        <ele>278.49194</ele>
        <time>2019-11-21T14:13:29Z</time>
      </trkpt>
      <trkpt lat="43.06573329" lon="-2.28217765">
        <ele>277.87994</ele>
        <time>2019-11-21T14:13:30Z</time>
      </trkpt>
      <trkpt lat="43.06577968" lon="-2.28257632">
        <ele>279.40002</ele>
        <time>2019-11-21T14:13:31Z</time>
      </trkpt>
      <trkpt lat="43.06582994" lon="-2.2829829">
        <ele>280.47107</ele>
        <time>2019-11-21T14:13:32Z</time>
      </trkpt>
      <trkpt lat="43.06587495" lon="-2.28338097">
        <ele>282.8789</ele>
        <time>2019-11-21T14:13:33Z</time>
      </trkpt>
      <trkpt lat="43.06596249" lon="-2.28421743">
        <ele>286.34973</ele>
        <time>2019-11-21T14:13:34Z</time>
      </trkpt>
      <trkpt lat="43.06600536" lon="-2.28462047">
        <ele>286.86792</ele>
        <time>2019-11-21T14:13:35Z</time>
      </trkpt>
      <trkpt lat="43.06605972" lon="-2.28500496">
        <ele>288.0005</ele>
        <time>2019-11-21T14:13:36Z</time>
      </trkpt>
      <trkpt lat="43.06612592" lon="-2.28541286">
        <ele>290.412</ele>
        <time>2019-11-21T14:13:37Z</time>
      </trkpt>
      <trkpt lat="43.06620274" lon="-2.28581962">
        <ele>291.44714</ele>
        <time>2019-11-21T14:13:38Z</time>
      </trkpt>
      <trkpt lat="43.06629908" lon="-2.28620849">
        <ele>292.7124</ele>
        <time>2019-11-21T14:13:39Z</time>
      </trkpt>
      <trkpt lat="43.06640554" lon="-2.28657134">
        <ele>295.36145</ele>
        <time>2019-11-21T14:13:40Z</time>
      </trkpt>
      <trkpt lat="43.06651751" lon="-2.28696406">
        <ele>296.18323</ele>
        <time>2019-11-21T14:13:41Z</time>
      </trkpt>
      <trkpt lat="43.06663839" lon="-2.28733138">
        <ele>299.06775</ele>
        <time>2019-11-21T14:13:42Z</time>
      </trkpt>
      <trkpt lat="43.06676779" lon="-2.28768281">
        <ele>299.27228</ele>
        <time>2019-11-21T14:13:43Z</time>
      </trkpt>
      <trkpt lat="43.06690931" lon="-2.28804792">
        <ele>303.5786</ele>
        <time>2019-11-21T14:13:44Z</time>
      </trkpt>
      <trkpt lat="43.06704467" lon="-2.28841236">
        <ele>303.781</ele>
        <time>2019-11-21T14:13:45Z</time>
      </trkpt>
      <trkpt lat="43.06718568" lon="-2.28877697">
        <ele>303.8999</ele>
        <time>2019-11-21T14:13:46Z</time>
      </trkpt>
      <trkpt lat="43.06735418" lon="-2.28909487">
        <ele>305.35693</ele>
        <time>2019-11-21T14:13:47Z</time>
      </trkpt>
      <trkpt lat="43.06753153" lon="-2.28941553">
        <ele>305.50104</ele>
        <time>2019-11-21T14:13:48Z</time>
      </trkpt>
      <trkpt lat="43.06771928" lon="-2.28972665">
        <ele>305.54022</ele>
        <time>2019-11-21T14:13:49Z</time>
      </trkpt>
      <trkpt lat="43.06792531" lon="-2.2900175">
        <ele>291.58447</ele>
        <time>2019-11-21T14:13:50Z</time>
      </trkpt>
      <trkpt lat="43.06813026" lon="-2.29030206">
        <ele>293.6454</ele>
        <time>2019-11-21T14:13:51Z</time>
      </trkpt>
      <trkpt lat="43.06834079" lon="-2.29053633">
        <ele>297.03333</ele>
        <time>2019-11-21T14:13:52Z</time>
      </trkpt>
      <trkpt lat="43.06857904" lon="-2.29071564">
        <ele>299.89</ele>
        <time>2019-11-21T14:13:53Z</time>
      </trkpt>
      <trkpt lat="43.06882163" lon="-2.29093415">
        <ele>302.10547</ele>
        <time>2019-11-21T14:13:54Z</time>
      </trkpt>
      <trkpt lat="43.0691277" lon="-2.29111482">
        <ele>306.82495</ele>
        <time>2019-11-21T14:13:56Z</time>
      </trkpt>
      <trkpt lat="43.06941592" lon="-2.29127531">
        <ele>311.43665</ele>
        <time>2019-11-21T14:13:57Z</time>
      </trkpt>
      <trkpt lat="43.0696988" lon="-2.29142964">
        <ele>314.08167</ele>
        <time>2019-11-21T14:13:58Z</time>
      </trkpt>
      <trkpt lat="43.06996632" lon="-2.29157236">
        <ele>316.9524</ele>
        <time>2019-11-21T14:13:59Z</time>
      </trkpt>
      <trkpt lat="43.07024433" lon="-2.29171719">
        <ele>320.25104</ele>
        <time>2019-11-21T14:14:00Z</time>
      </trkpt>
      <trkpt lat="43.0705309" lon="-2.29186983">
        <ele>321.86523</ele>
        <time>2019-11-21T14:14:01Z</time>
      </trkpt>
      <trkpt lat="43.0707984" lon="-2.29202298">
        <ele>324.57043</ele>
        <time>2019-11-21T14:14:02Z</time>
      </trkpt>
      <trkpt lat="43.0710821" lon="-2.29218398">
        <ele>324.85706</ele>
        <time>2019-11-21T14:14:03Z</time>
      </trkpt>
      <trkpt lat="43.07159826" lon="-2.29254719">
        <ele>326.41187</ele>
        <time>2019-11-21T14:14:04Z</time>
      </trkpt>
      <trkpt lat="43.07186982" lon="-2.29275796">
        <ele>327.33356</ele>
        <time>2019-11-21T14:14:05Z</time>
      </trkpt>
      <trkpt lat="43.07212833" lon="-2.29298288">
        <ele>329.88336</ele>
        <time>2019-11-21T14:14:06Z</time>
      </trkpt>
      <trkpt lat="43.07237342" lon="-2.29322826">
        <ele>331.54858</ele>
        <time>2019-11-21T14:14:07Z</time>
      </trkpt>
      <trkpt lat="43.07260381" lon="-2.29348791">
        <ele>330.98828</ele>
        <time>2019-11-21T14:14:08Z</time>
      </trkpt>
      <trkpt lat="43.07284686" lon="-2.29374459">
        <ele>332.97107</ele>
        <time>2019-11-21T14:14:09Z</time>
      </trkpt>
      <trkpt lat="43.07305881" lon="-2.29403397">
        <ele>333.05103</ele>
        <time>2019-11-21T14:14:10Z</time>
      </trkpt>
      <trkpt lat="43.07327566" lon="-2.29429567">
        <ele>333.51868</ele>
        <time>2019-11-21T14:14:11Z</time>
      </trkpt>
      <trkpt lat="43.0734589" lon="-2.29459505">
        <ele>305.28394</ele>
        <time>2019-11-21T14:14:12Z</time>
      </trkpt>
      <trkpt lat="43.0736631" lon="-2.29487639">
        <ele>311.47076</ele>
        <time>2019-11-21T14:14:13Z</time>
      </trkpt>
      <trkpt lat="43.07386991" lon="-2.29515534">
        <ele>315.6809</ele>
        <time>2019-11-21T14:14:14Z</time>
      </trkpt>
      <trkpt lat="43.07409543" lon="-2.29542122">
        <ele>320.33313</ele>
        <time>2019-11-21T14:14:15Z</time>
      </trkpt>
      <trkpt lat="43.07432469" lon="-2.29570048">
        <ele>326.79858</ele>
        <time>2019-11-21T14:14:16Z</time>
      </trkpt>
      <trkpt lat="43.07457834" lon="-2.2959315">
        <ele>330.95386</ele>
        <time>2019-11-21T14:14:17Z</time>
      </trkpt>
      <trkpt lat="43.07483077" lon="-2.29616277">
        <ele>332.84766</ele>
        <time>2019-11-21T14:14:18Z</time>
      </trkpt>
      <trkpt lat="43.07509895" lon="-2.29639194">
        <ele>305.69446</ele>
        <time>2019-11-21T14:14:19Z</time>
      </trkpt>
      <trkpt lat="43.07535297" lon="-2.29661338">
        <ele>312.89783</ele>
        <time>2019-11-21T14:14:20Z</time>
      </trkpt>
      <trkpt lat="43.07560068" lon="-2.29684456">
        <ele>319.36615</ele>
        <time>2019-11-21T14:14:21Z</time>
      </trkpt>
      <trkpt lat="43.07582968" lon="-2.29709711">
        <ele>325.58472</ele>
        <time>2019-11-21T14:14:22Z</time>
      </trkpt>
      <trkpt lat="43.07604961" lon="-2.29734416">
        <ele>329.9782</ele>
        <time>2019-11-21T14:14:23Z</time>
      </trkpt>
      <trkpt lat="43.07626861" lon="-2.29761858">
        <ele>335.28455</ele>
        <time>2019-11-21T14:14:24Z</time>
      </trkpt>
      <trkpt lat="43.076489" lon="-2.29790702">
        <ele>340.437</ele>
        <time>2019-11-21T14:14:25Z</time>
      </trkpt>
      <trkpt lat="43.0766802" lon="-2.29821562">
        <ele>343.12402</ele>
        <time>2019-11-21T14:14:27Z</time>
      </trkpt>
      <trkpt lat="43.07687013" lon="-2.29854228">
        <ele>345.8985</ele>
        <time>2019-11-21T14:14:28Z</time>
      </trkpt>
      <trkpt lat="43.07706298" lon="-2.29885677">
        <ele>349.38416</ele>
        <time>2019-11-21T14:14:29Z</time>
      </trkpt>
      <trkpt lat="43.07726338" lon="-2.2991575">
        <ele>350.32825</ele>
        <time>2019-11-21T14:14:30Z</time>
      </trkpt>
      <trkpt lat="43.0774803" lon="-2.29945722">
        <ele>353.63782</ele>
        <time>2019-11-21T14:14:31Z</time>
      </trkpt>
      <trkpt lat="43.07769467" lon="-2.29973416">
        <ele>355.0669</ele>
        <time>2019-11-21T14:14:32Z</time>
      </trkpt>
      <trkpt lat="43.0779211" lon="-2.30000309">
        <ele>356.04333</ele>
        <time>2019-11-21T14:14:33Z</time>
      </trkpt>
      <trkpt lat="43.07813585" lon="-2.3002758">
        <ele>356.93835</ele>
        <time>2019-11-21T14:14:34Z</time>
      </trkpt>
      <trkpt lat="43.07857385" lon="-2.30085364">
        <ele>363.02917</ele>
        <time>2019-11-21T14:14:35Z</time>
      </trkpt>
      <trkpt lat="43.07875876" lon="-2.3011641">
        <ele>363.73718</ele>
        <time>2019-11-21T14:14:36Z</time>
      </trkpt>
      <trkpt lat="43.07892785" lon="-2.30149477">
        <ele>364.24127</ele>
        <time>2019-11-21T14:14:37Z</time>
      </trkpt>
      <trkpt lat="43.07907652" lon="-2.30184261">
        <ele>365.50854</ele>
        <time>2019-11-21T14:14:38Z</time>
      </trkpt>
      <trkpt lat="43.07921401" lon="-2.30220829">
        <ele>366.48096</ele>
        <time>2019-11-21T14:14:39Z</time>
      </trkpt>
      <trkpt lat="43.07934073" lon="-2.30257737">
        <ele>367.0808</ele>
        <time>2019-11-21T14:14:40Z</time>
      </trkpt>
      <trkpt lat="43.07942805" lon="-2.30297867">
        <ele>368.10938</ele>
        <time>2019-11-21T14:14:41Z</time>
      </trkpt>
      <trkpt lat="43.07950753" lon="-2.30338034">
        <ele>369.07544</ele>
        <time>2019-11-21T14:14:42Z</time>
      </trkpt>
      <trkpt lat="43.0795624" lon="-2.30375835">
        <ele>369.61475</ele>
        <time>2019-11-21T14:14:43Z</time>
      </trkpt>
      <trkpt lat="43.07959756" lon="-2.30416135">
        <ele>370.33655</ele>
        <time>2019-11-21T14:14:44Z</time>
      </trkpt>
      <trkpt lat="43.07959808" lon="-2.30456033">
        <ele>367.9895</ele>
        <time>2019-11-21T14:14:45Z</time>
      </trkpt>
      <trkpt lat="43.07957075" lon="-2.30497188">
        <ele>367.26892</ele>
        <time>2019-11-21T14:14:46Z</time>
      </trkpt>
      <trkpt lat="43.07953208" lon="-2.30537888">
        <ele>367.88196</ele>
        <time>2019-11-21T14:14:47Z</time>
      </trkpt>
      <trkpt lat="43.07948566" lon="-2.30576499">
        <ele>369.16998</ele>
        <time>2019-11-21T14:14:48Z</time>
      </trkpt>
      <trkpt lat="43.0794004" lon="-2.30614862">
        <ele>368.68872</ele>
        <time>2019-11-21T14:14:49Z</time>
      </trkpt>
      <trkpt lat="43.07931299" lon="-2.30652599">
        <ele>369.16467</ele>
        <time>2019-11-21T14:14:50Z</time>
      </trkpt>
      <trkpt lat="43.07919701" lon="-2.30689887">
        <ele>369.52014</ele>
        <time>2019-11-21T14:14:51Z</time>
      </trkpt>
      <trkpt lat="43.07907791" lon="-2.30726892">
        <ele>372.03247</ele>
        <time>2019-11-21T14:14:52Z</time>
      </trkpt>
      <trkpt lat="43.07893354" lon="-2.30763317">
        <ele>372.71423</ele>
        <time>2019-11-21T14:14:53Z</time>
      </trkpt>
      <trkpt lat="43.07878596" lon="-2.30798704">
        <ele>374.36792</ele>
        <time>2019-11-21T14:14:54Z</time>
      </trkpt>
      <trkpt lat="43.07863215" lon="-2.30834517">
        <ele>375.95667</ele>
        <time>2019-11-21T14:14:55Z</time>
      </trkpt>
      <trkpt lat="43.07850054" lon="-2.30869884">
        <ele>376.67987</ele>
        <time>2019-11-21T14:14:56Z</time>
      </trkpt>
      <trkpt lat="43.07835226" lon="-2.30906277">
        <ele>377.8181</ele>
        <time>2019-11-21T14:14:57Z</time>
      </trkpt>
      <trkpt lat="43.078222" lon="-2.30944096">
        <ele>378.9997</ele>
        <time>2019-11-21T14:14:59Z</time>
      </trkpt>
      <trkpt lat="43.07810514" lon="-2.309814">
        <ele>379.72607</ele>
        <time>2019-11-21T14:15:00Z</time>
      </trkpt>
      <trkpt lat="43.07800195" lon="-2.31017442">
        <ele>382.10608</ele>
        <time>2019-11-21T14:15:01Z</time>
      </trkpt>
      <trkpt lat="43.07791852" lon="-2.31055579">
        <ele>383.86902</ele>
        <time>2019-11-21T14:15:02Z</time>
      </trkpt>
      <trkpt lat="43.07784335" lon="-2.31096929">
        <ele>385.74817</ele>
        <time>2019-11-21T14:15:03Z</time>
      </trkpt>
      <trkpt lat="43.07778819" lon="-2.31134988">
        <ele>386.95593</ele>
        <time>2019-11-21T14:15:04Z</time>
      </trkpt>
      <trkpt lat="43.07774476" lon="-2.31174183">
        <ele>389.36218</ele>
        <time>2019-11-21T14:15:05Z</time>
      </trkpt>
      <trkpt lat="43.07770026" lon="-2.31214565">
        <ele>388.99292</ele>
        <time>2019-11-21T14:15:06Z</time>
      </trkpt>
      <trkpt lat="43.0776399" lon="-2.31295519">
        <ele>390.4641</ele>
        <time>2019-11-21T14:15:07Z</time>
      </trkpt>
      <trkpt lat="43.07762464" lon="-2.31335249">
        <ele>390.5282</ele>
        <time>2019-11-21T14:15:08Z</time>
      </trkpt>
      <trkpt lat="43.07761469" lon="-2.3137505">
        <ele>390.54785</ele>
        <time>2019-11-21T14:15:09Z</time>
      </trkpt>
      <trkpt lat="43.07760715484619" lon="-2.314145565032959">
        <ele>0.0</ele>
        <time>2019-11-21T14:15:10Z</time>
      </trkpt>
      <trkpt lat="43.07766246" lon="-2.32618822">
        <ele>385.47375</ele>
        <time>2019-11-21T14:15:40Z</time>
      </trkpt>
      <trkpt lat="43.07772888" lon="-2.32653601">
        <ele>390.646</ele>
        <time>2019-11-21T14:15:41Z</time>
      </trkpt>
      <trkpt lat="43.07779058" lon="-2.32691179">
        <ele>391.43018</ele>
        <time>2019-11-21T14:15:42Z</time>
      </trkpt>
      <trkpt lat="43.07786362" lon="-2.32726646">
        <ele>394.06604</ele>
        <time>2019-11-21T14:15:43Z</time>
      </trkpt>
      <trkpt lat="43.0781088" lon="-2.32764215">
        <ele>397.67096</ele>
        <time>2019-11-21T14:15:44Z</time>
      </trkpt>
      <trkpt lat="43.07825092" lon="-2.3279768">
        <ele>397.95935</ele>
        <time>2019-11-21T14:15:45Z</time>
      </trkpt>
      <trkpt lat="43.07837519" lon="-2.32832594">
        <ele>404.43994</ele>
        <time>2019-11-21T14:15:46Z</time>
      </trkpt>
      <trkpt lat="43.0785106" lon="-2.32868686">
        <ele>407.536</ele>
        <time>2019-11-21T14:15:47Z</time>
      </trkpt>
      <trkpt lat="43.07863904" lon="-2.32904992">
        <ele>409.8767</ele>
        <time>2019-11-21T14:15:48Z</time>
      </trkpt>
      <trkpt lat="43.07875693" lon="-2.32940736">
        <ele>412.4973</ele>
        <time>2019-11-21T14:15:49Z</time>
      </trkpt>
      <trkpt lat="43.07888392" lon="-2.32975499">
        <ele>412.52722</ele>
        <time>2019-11-21T14:15:50Z</time>
      </trkpt>
      <trkpt lat="43.07901292" lon="-2.33008889">
        <ele>412.08405</ele>
        <time>2019-11-21T14:15:51Z</time>
      </trkpt>
      <trkpt lat="43.07913573" lon="-2.33042631">
        <ele>412.4696</ele>
        <time>2019-11-21T14:15:52Z</time>
      </trkpt>
      <trkpt lat="43.07927411" lon="-2.33076442">
        <ele>413.23132</ele>
        <time>2019-11-21T14:15:53Z</time>
      </trkpt>
      <trkpt lat="43.07941706" lon="-2.33108252">
        <ele>413.74548</ele>
        <time>2019-11-21T14:15:54Z</time>
      </trkpt>
      <trkpt lat="43.07955555" lon="-2.33141664">
        <ele>415.19653</ele>
        <time>2019-11-21T14:15:55Z</time>
      </trkpt>
      <trkpt lat="43.0797031" lon="-2.33174123">
        <ele>418.49255</ele>
        <time>2019-11-21T14:15:56Z</time>
      </trkpt>
      <trkpt lat="43.07986701" lon="-2.33204204">
        <ele>419.765</ele>
        <time>2019-11-21T14:15:57Z</time>
      </trkpt>
      <trkpt lat="43.08004644" lon="-2.33234697">
        <ele>421.1062</ele>
        <time>2019-11-21T14:15:58Z</time>
      </trkpt>
      <trkpt lat="43.08025093" lon="-2.33262366">
        <ele>421.5796</ele>
        <time>2019-11-21T14:15:59Z</time>
      </trkpt>
      <trkpt lat="43.08043269" lon="-2.33292395">
        <ele>423.47406</ele>
        <time>2019-11-21T14:16:00Z</time>
      </trkpt>
      <trkpt lat="43.08065496" lon="-2.33322087">
        <ele>426.77844</ele>
        <time>2019-11-21T14:16:01Z</time>
      </trkpt>
      <trkpt lat="43.0808734" lon="-2.33348607">
        <ele>427.70068</ele>
        <time>2019-11-21T14:16:02Z</time>
      </trkpt>
      <trkpt lat="43.08109506" lon="-2.33374295">
        <ele>429.578</ele>
        <time>2019-11-21T14:16:03Z</time>
      </trkpt>
      <trkpt lat="43.08133164" lon="-2.33399864">
        <ele>430.99023</ele>
        <time>2019-11-21T14:16:04Z</time>
      </trkpt>
      <trkpt lat="43.08156867" lon="-2.33425422">
        <ele>431.22314</ele>
        <time>2019-11-21T14:16:06Z</time>
      </trkpt>
      <trkpt lat="43.08180108" lon="-2.33450521">
        <ele>431.45087</ele>
        <time>2019-11-21T14:16:07Z</time>
      </trkpt>
      <trkpt lat="43.08203401" lon="-2.33474628">
        <ele>431.82855</ele>
        <time>2019-11-21T14:16:08Z</time>
      </trkpt>
      <trkpt lat="43.08224851" lon="-2.33501408">
        <ele>432.30908</ele>
        <time>2019-11-21T14:16:09Z</time>
      </trkpt>
      <trkpt lat="43.08247428" lon="-2.33525844">
        <ele>432.38074</ele>
        <time>2019-11-21T14:16:10Z</time>
      </trkpt>
      <trkpt lat="43.08267738" lon="-2.33553256">
        <ele>432.65338</ele>
        <time>2019-11-21T14:16:11Z</time>
      </trkpt>
      <trkpt lat="43.0828803" lon="-2.33579447">
        <ele>433.14404</ele>
        <time>2019-11-21T14:16:12Z</time>
      </trkpt>
      <trkpt lat="43.08306336" lon="-2.33606778">
        <ele>432.58026</ele>
        <time>2019-11-21T14:16:13Z</time>
      </trkpt>
      <trkpt lat="43.08324427" lon="-2.33633216">
        <ele>433.21252</ele>
        <time>2019-11-21T14:16:14Z</time>
      </trkpt>
      <trkpt lat="43.08358612" lon="-2.33686869">
        <ele>433.53693</ele>
        <time>2019-11-21T14:16:15Z</time>
      </trkpt>
      <trkpt lat="43.08374438" lon="-2.33714366">
        <ele>432.96387</ele>
        <time>2019-11-21T14:16:16Z</time>
      </trkpt>
      <trkpt lat="43.08390049" lon="-2.33740739">
        <ele>433.28186</ele>
        <time>2019-11-21T14:16:17Z</time>
      </trkpt>
      <trkpt lat="43.08404794" lon="-2.33767862">
        <ele>433.29266</ele>
        <time>2019-11-21T14:16:18Z</time>
      </trkpt>
      <trkpt lat="43.08420425" lon="-2.33796659">
        <ele>434.0194</ele>
        <time>2019-11-21T14:16:19Z</time>
      </trkpt>
      <trkpt lat="43.08434031" lon="-2.33824473">
        <ele>434.4757</ele>
        <time>2019-11-21T14:16:20Z</time>
      </trkpt>
      <trkpt lat="43.08448908" lon="-2.33853671">
        <ele>432.04297</ele>
        <time>2019-11-21T14:16:21Z</time>
      </trkpt>
      <trkpt lat="43.08465274" lon="-2.33882457">
        <ele>433.72272</ele>
        <time>2019-11-21T14:16:22Z</time>
      </trkpt>
      <trkpt lat="43.08480086" lon="-2.33912467">
        <ele>435.93884</ele>
        <time>2019-11-21T14:16:23Z</time>
      </trkpt>
      <trkpt lat="43.08492556" lon="-2.33943155">
        <ele>437.24658</ele>
        <time>2019-11-21T14:16:24Z</time>
      </trkpt>
      <trkpt lat="43.08505061" lon="-2.33974154">
        <ele>439.32263</ele>
        <time>2019-11-21T14:16:25Z</time>
      </trkpt>
      <trkpt lat="43.08516726" lon="-2.34005694">
        <ele>441.09174</ele>
        <time>2019-11-21T14:16:26Z</time>
      </trkpt>
      <trkpt lat="43.08526103" lon="-2.34035305">
        <ele>444.44244</ele>
        <time>2019-11-21T14:16:27Z</time>
      </trkpt>
      <trkpt lat="43.08536614" lon="-2.34066827">
        <ele>444.97382</ele>
        <time>2019-11-21T14:16:28Z</time>
      </trkpt>
      <trkpt lat="43.08546917" lon="-2.3409788">
        <ele>446.10547</ele>
        <time>2019-11-21T14:16:29Z</time>
      </trkpt>
      <trkpt lat="43.08557664" lon="-2.34128969">
        <ele>447.3806</ele>
        <time>2019-11-21T14:16:30Z</time>
      </trkpt>
      <trkpt lat="43.08569238" lon="-2.34160398">
        <ele>448.90674</ele>
        <time>2019-11-21T14:16:31Z</time>
      </trkpt>
      <trkpt lat="43.08580431" lon="-2.34191564">
        <ele>449.4917</ele>
        <time>2019-11-21T14:16:32Z</time>
      </trkpt>
      <trkpt lat="43.08590085" lon="-2.34221291">
        <ele>449.91278</ele>
        <time>2019-11-21T14:16:33Z</time>
      </trkpt>
      <trkpt lat="43.08603608" lon="-2.34251363">
        <ele>449.26636</ele>
        <time>2019-11-21T14:16:34Z</time>
      </trkpt>
      <trkpt lat="43.08616377" lon="-2.34281337">
        <ele>449.99243</ele>
        <time>2019-11-21T14:16:35Z</time>
      </trkpt>
      <trkpt lat="43.08629893" lon="-2.34310967">
        <ele>450.08624</ele>
        <time>2019-11-21T14:16:36Z</time>
      </trkpt>
      <trkpt lat="43.08643897" lon="-2.34340314">
        <ele>449.8722</ele>
        <time>2019-11-21T14:16:38Z</time>
      </trkpt>
      <trkpt lat="43.08658349" lon="-2.34368664">
        <ele>451.49756</ele>
        <time>2019-11-21T14:16:39Z</time>
      </trkpt>
      <trkpt lat="43.08672908" lon="-2.34398909">
        <ele>452.36542</ele>
        <time>2019-11-21T14:16:40Z</time>
      </trkpt>
      <trkpt lat="43.08687034" lon="-2.34428346">
        <ele>452.61005</ele>
        <time>2019-11-21T14:16:41Z</time>
      </trkpt>
      <trkpt lat="43.08701166" lon="-2.3445833">
        <ele>453.25134</ele>
        <time>2019-11-21T14:16:42Z</time>
      </trkpt>
      <trkpt lat="43.08715552" lon="-2.34487206">
        <ele>452.38196</ele>
        <time>2019-11-21T14:16:43Z</time>
      </trkpt>
      <trkpt lat="43.08729302" lon="-2.3451675">
        <ele>452.489</ele>
        <time>2019-11-21T14:16:44Z</time>
      </trkpt>
      <trkpt lat="43.08742022" lon="-2.34546354">
        <ele>452.7154</ele>
        <time>2019-11-21T14:16:45Z</time>
      </trkpt>
      <trkpt lat="43.08770005" lon="-2.34609666">
        <ele>454.0774</ele>
        <time>2019-11-21T14:16:46Z</time>
      </trkpt>
      <trkpt lat="43.08782001" lon="-2.34641182">
        <ele>454.0027</ele>
        <time>2019-11-21T14:16:47Z</time>
      </trkpt>
      <trkpt lat="43.08793318" lon="-2.34673014">
        <ele>453.94727</ele>
        <time>2019-11-21T14:16:48Z</time>
      </trkpt>
      <trkpt lat="43.08804631233215" lon="-2.3470455408096313">
        <ele>0.0</ele>
        <time>2019-11-21T14:16:49Z</time>
      </trkpt>
      <trkpt lat="43.08948028" lon="-2.35509727">
        <ele>458.22424</ele>
        <time>2019-11-21T14:17:14Z</time>
      </trkpt>
      <trkpt lat="43.08948021" lon="-2.3553963">
        <ele>461.32208</ele>
        <time>2019-11-21T14:17:15Z</time>
      </trkpt>
      <trkpt lat="43.08949605" lon="-2.35571434">
        <ele>461.3485</ele>
        <time>2019-11-21T14:17:16Z</time>
      </trkpt>
      <trkpt lat="43.08949008" lon="-2.35607149">
        <ele>462.11194</ele>
        <time>2019-11-21T14:17:17Z</time>
      </trkpt>
      <trkpt lat="43.08948492" lon="-2.35640181">
        <ele>458.45892</ele>
        <time>2019-11-21T14:17:18Z</time>
      </trkpt>
      <trkpt lat="43.08944181" lon="-2.35707943">
        <ele>458.7561</ele>
        <time>2019-11-21T14:17:19Z</time>
      </trkpt>
      <trkpt lat="43.08940311" lon="-2.3574133">
        <ele>457.60632</ele>
        <time>2019-11-21T14:17:20Z</time>
      </trkpt>
      <trkpt lat="43.08934254" lon="-2.35776225">
        <ele>457.95557</ele>
        <time>2019-11-21T14:17:21Z</time>
      </trkpt>
      <trkpt lat="43.08927577" lon="-2.35810681">
        <ele>457.7046</ele>
        <time>2019-11-21T14:17:22Z</time>
      </trkpt>
      <trkpt lat="43.08919889" lon="-2.35844631">
        <ele>455.7301</ele>
        <time>2019-11-21T14:17:23Z</time>
      </trkpt>
      <trkpt lat="43.08912304" lon="-2.35877326">
        <ele>454.1731</ele>
        <time>2019-11-21T14:17:24Z</time>
      </trkpt>
      <trkpt lat="43.08904648" lon="-2.35908349">
        <ele>451.94318</ele>
        <time>2019-11-21T14:17:25Z</time>
      </trkpt>
      <trkpt lat="43.088955" lon="-2.35939131">
        <ele>449.7666</ele>
        <time>2019-11-21T14:17:26Z</time>
      </trkpt>
      <trkpt lat="43.08884608" lon="-2.3596986">
        <ele>449.01758</ele>
        <time>2019-11-21T14:17:27Z</time>
      </trkpt>
      <trkpt lat="43.08872129" lon="-2.35999288">
        <ele>446.82178</ele>
        <time>2019-11-21T14:17:28Z</time>
      </trkpt>
      <trkpt lat="43.08857822" lon="-2.36030705">
        <ele>446.2541</ele>
        <time>2019-11-21T14:17:29Z</time>
      </trkpt>
      <trkpt lat="43.08843044" lon="-2.36060606">
        <ele>446.2329</ele>
        <time>2019-11-21T14:17:30Z</time>
      </trkpt>
      <trkpt lat="43.08829806" lon="-2.36089959">
        <ele>444.0481</ele>
        <time>2019-11-21T14:17:31Z</time>
      </trkpt>
      <trkpt lat="43.08815557" lon="-2.36118695">
        <ele>442.89264</ele>
        <time>2019-11-21T14:17:32Z</time>
      </trkpt>
      <trkpt lat="43.08801088" lon="-2.36146939">
        <ele>439.4702</ele>
        <time>2019-11-21T14:17:33Z</time>
      </trkpt>
      <trkpt lat="43.08788699" lon="-2.36178535">
        <ele>438.17926</ele>
        <time>2019-11-21T14:17:34Z</time>
      </trkpt>
      <trkpt lat="43.08777932" lon="-2.36210637">
        <ele>437.54657</ele>
        <time>2019-11-21T14:17:35Z</time>
      </trkpt>
      <trkpt lat="43.08767078" lon="-2.3624399">
        <ele>436.53967</ele>
        <time>2019-11-21T14:17:36Z</time>
      </trkpt>
      <trkpt lat="43.08759098" lon="-2.36277392">
        <ele>434.98682</ele>
        <time>2019-11-21T14:17:37Z</time>
      </trkpt>
      <trkpt lat="43.08752488" lon="-2.36311364">
        <ele>432.94177</ele>
        <time>2019-11-21T14:17:38Z</time>
      </trkpt>
      <trkpt lat="43.08747311" lon="-2.36346613">
        <ele>432.00824</ele>
        <time>2019-11-21T14:17:40Z</time>
      </trkpt>
      <trkpt lat="43.08743643" lon="-2.36381718">
        <ele>430.05396</ele>
        <time>2019-11-21T14:17:41Z</time>
      </trkpt>
      <trkpt lat="43.08743371" lon="-2.36417371">
        <ele>429.38104</ele>
        <time>2019-11-21T14:17:42Z</time>
      </trkpt>
      <trkpt lat="43.0874453" lon="-2.3644987">
        <ele>428.57703</ele>
        <time>2019-11-21T14:17:43Z</time>
      </trkpt>
      <trkpt lat="43.08746911" lon="-2.36486647">
        <ele>428.5863</ele>
        <time>2019-11-21T14:17:44Z</time>
      </trkpt>
      <trkpt lat="43.0875122" lon="-2.36519509">
        <ele>426.3275</ele>
        <time>2019-11-21T14:17:45Z</time>
      </trkpt>
      <trkpt lat="43.08757118" lon="-2.36553976">
        <ele>425.31738</ele>
        <time>2019-11-21T14:17:46Z</time>
      </trkpt>
      <trkpt lat="43.08764478" lon="-2.3658808">
        <ele>424.05835</ele>
        <time>2019-11-21T14:17:47Z</time>
      </trkpt>
      <trkpt lat="43.08783672" lon="-2.36655957">
        <ele>423.2843</ele>
        <time>2019-11-21T14:17:48Z</time>
      </trkpt>
      <trkpt lat="43.0879504" lon="-2.366889">
        <ele>423.01794</ele>
        <time>2019-11-21T14:17:49Z</time>
      </trkpt>
      <trkpt lat="43.08807293" lon="-2.36720646">
        <ele>423.5912</ele>
        <time>2019-11-21T14:17:50Z</time>
      </trkpt>
      <trkpt lat="43.08821743" lon="-2.36748396">
        <ele>422.04852</ele>
        <time>2019-11-21T14:17:51Z</time>
      </trkpt>
      <trkpt lat="43.08840401" lon="-2.36774799">
        <ele>421.6861</ele>
        <time>2019-11-21T14:17:52Z</time>
      </trkpt>
      <trkpt lat="43.08858432" lon="-2.3680262">
        <ele>420.5119</ele>
        <time>2019-11-21T14:17:53Z</time>
      </trkpt>
      <trkpt lat="43.08877434" lon="-2.36825674">
        <ele>416.99072</ele>
        <time>2019-11-21T14:17:54Z</time>
      </trkpt>
      <trkpt lat="43.08896526" lon="-2.36848403">
        <ele>415.84558</ele>
        <time>2019-11-21T14:17:55Z</time>
      </trkpt>
      <trkpt lat="43.08919622" lon="-2.36869429">
        <ele>416.00122</ele>
        <time>2019-11-21T14:17:56Z</time>
      </trkpt>
      <trkpt lat="43.0894044" lon="-2.36891161">
        <ele>414.706</ele>
        <time>2019-11-21T14:17:57Z</time>
      </trkpt>
      <trkpt lat="43.08960403" lon="-2.36913076">
        <ele>412.72888</ele>
        <time>2019-11-21T14:17:58Z</time>
      </trkpt>
      <trkpt lat="43.08980645" lon="-2.36936201">
        <ele>412.12573</ele>
        <time>2019-11-21T14:17:59Z</time>
      </trkpt>
      <trkpt lat="43.09000723" lon="-2.36959892">
        <ele>410.91046</ele>
        <time>2019-11-21T14:18:00Z</time>
      </trkpt>
      <trkpt lat="43.09019536" lon="-2.36984971">
        <ele>409.86615</ele>
        <time>2019-11-21T14:18:01Z</time>
      </trkpt>
      <trkpt lat="43.09037296" lon="-2.37010698">
        <ele>409.19556</ele>
        <time>2019-11-21T14:18:02Z</time>
      </trkpt>
      <trkpt lat="43.0905389" lon="-2.37038004">
        <ele>408.8556</ele>
        <time>2019-11-21T14:18:03Z</time>
      </trkpt>
      <trkpt lat="43.09069594" lon="-2.37066262">
        <ele>408.93463</ele>
        <time>2019-11-21T14:18:04Z</time>
      </trkpt>
      <trkpt lat="43.09083587" lon="-2.37094742">
        <ele>408.4469</ele>
        <time>2019-11-21T14:18:05Z</time>
      </trkpt>
      <trkpt lat="43.09097588" lon="-2.37124776">
        <ele>406.56567</ele>
        <time>2019-11-21T14:18:06Z</time>
      </trkpt>
      <trkpt lat="43.09109928" lon="-2.37155588">
        <ele>404.84204</ele>
        <time>2019-11-21T14:18:07Z</time>
      </trkpt>
      <trkpt lat="43.09121327" lon="-2.37187096">
        <ele>410.4776</ele>
        <time>2019-11-21T14:18:08Z</time>
      </trkpt>
      <trkpt lat="43.09131768" lon="-2.37219396">
        <ele>407.76025</ele>
        <time>2019-11-21T14:18:09Z</time>
      </trkpt>
      <trkpt lat="43.09140543" lon="-2.37252458">
        <ele>405.45416</ele>
        <time>2019-11-21T14:18:11Z</time>
      </trkpt>
      <trkpt lat="43.09148637" lon="-2.37286239">
        <ele>403.53284</ele>
        <time>2019-11-21T14:18:12Z</time>
      </trkpt>
      <trkpt lat="43.09155212" lon="-2.37320169">
        <ele>401.2898</ele>
        <time>2019-11-21T14:18:13Z</time>
      </trkpt>
      <trkpt lat="43.09161102" lon="-2.37356267">
        <ele>399.9923</ele>
        <time>2019-11-21T14:18:14Z</time>
      </trkpt>
      <trkpt lat="43.09165501" lon="-2.37391766">
        <ele>398.00427</ele>
        <time>2019-11-21T14:18:15Z</time>
      </trkpt>
      <trkpt lat="43.09167864" lon="-2.37426018">
        <ele>394.66248</ele>
        <time>2019-11-21T14:18:16Z</time>
      </trkpt>
      <trkpt lat="43.09169409" lon="-2.37461757">
        <ele>393.49146</ele>
        <time>2019-11-21T14:18:17Z</time>
      </trkpt>
      <trkpt lat="43.09170359" lon="-2.37498345">
        <ele>391.2713</ele>
        <time>2019-11-21T14:18:18Z</time>
      </trkpt>
      <trkpt lat="43.09171172" lon="-2.37533882">
        <ele>388.8316</ele>
        <time>2019-11-21T14:18:19Z</time>
      </trkpt>
      <trkpt lat="43.09169641" lon="-2.37604385">
        <ele>383.8164</ele>
        <time>2019-11-21T14:18:20Z</time>
      </trkpt>
      <trkpt lat="43.0916848" lon="-2.37639435">
        <ele>381.13177</ele>
        <time>2019-11-21T14:18:21Z</time>
      </trkpt>
      <trkpt lat="43.09168363" lon="-2.37674642">
        <ele>378.54578</ele>
        <time>2019-11-21T14:18:22Z</time>
      </trkpt>
      <trkpt lat="43.0916937" lon="-2.37710329">
        <ele>388.8761</ele>
        <time>2019-11-21T14:18:23Z</time>
      </trkpt>
      <trkpt lat="43.09172125" lon="-2.37747013">
        <ele>385.86243</ele>
        <time>2019-11-21T14:18:24Z</time>
      </trkpt>
      <trkpt lat="43.09176903" lon="-2.37783613">
        <ele>384.25116</ele>
        <time>2019-11-21T14:18:25Z</time>
      </trkpt>
      <trkpt lat="43.09182711" lon="-2.3781852">
        <ele>382.83923</ele>
        <time>2019-11-21T14:18:26Z</time>
      </trkpt>
      <trkpt lat="43.09192653" lon="-2.37851654">
        <ele>380.61353</ele>
        <time>2019-11-21T14:18:27Z</time>
      </trkpt>
      <trkpt lat="43.09203109" lon="-2.37885122">
        <ele>378.95544</ele>
        <time>2019-11-21T14:18:28Z</time>
      </trkpt>
      <trkpt lat="43.09214784" lon="-2.37917733">
        <ele>378.13403</ele>
        <time>2019-11-21T14:18:29Z</time>
      </trkpt>
      <trkpt lat="43.09228243" lon="-2.37949038">
        <ele>377.1881</ele>
        <time>2019-11-21T14:18:30Z</time>
      </trkpt>
      <trkpt lat="43.09243475" lon="-2.37979875">
        <ele>376.7506</ele>
        <time>2019-11-21T14:18:31Z</time>
      </trkpt>
      <trkpt lat="43.09262438" lon="-2.3800332">
        <ele>373.05957</ele>
        <time>2019-11-21T14:18:32Z</time>
      </trkpt>
      <trkpt lat="43.09279678" lon="-2.38030178">
        <ele>370.812</ele>
        <time>2019-11-21T14:18:33Z</time>
      </trkpt>
      <trkpt lat="43.09300601" lon="-2.38050683">
        <ele>368.3415</ele>
        <time>2019-11-21T14:18:34Z</time>
      </trkpt>
      <trkpt lat="43.09323239" lon="-2.38071225">
        <ele>367.68512</ele>
        <time>2019-11-21T14:18:35Z</time>
      </trkpt>
      <trkpt lat="43.09345793" lon="-2.38091544">
        <ele>367.078</ele>
        <time>2019-11-21T14:18:36Z</time>
      </trkpt>
      <trkpt lat="43.09370317" lon="-2.3810805">
        <ele>365.20966</ele>
        <time>2019-11-21T14:18:37Z</time>
      </trkpt>
      <trkpt lat="43.09394417" lon="-2.38121123">
        <ele>362.10718</ele>
        <time>2019-11-21T14:18:38Z</time>
      </trkpt>
      <trkpt lat="43.09419712" lon="-2.38134113">
        <ele>358.79578</ele>
        <time>2019-11-21T14:18:39Z</time>
      </trkpt>
      <trkpt lat="43.09444407" lon="-2.38146393">
        <ele>356.15393</ele>
        <time>2019-11-21T14:18:40Z</time>
      </trkpt>
      <trkpt lat="43.09468506" lon="-2.38159833">
        <ele>354.43005</ele>
        <time>2019-11-21T14:18:42Z</time>
      </trkpt>
      <trkpt lat="43.09492996" lon="-2.38172204">
        <ele>353.02917</ele>
        <time>2019-11-21T14:18:43Z</time>
      </trkpt>
      <trkpt lat="43.09517461" lon="-2.38186514">
        <ele>350.85144</ele>
        <time>2019-11-21T14:18:44Z</time>
      </trkpt>
      <trkpt lat="43.09540536" lon="-2.3820344">
        <ele>348.97223</ele>
        <time>2019-11-21T14:18:45Z</time>
      </trkpt>
      <trkpt lat="43.09563376" lon="-2.38223009">
        <ele>347.85278</ele>
        <time>2019-11-21T14:18:46Z</time>
      </trkpt>
      <trkpt lat="43.09584544" lon="-2.38244787">
        <ele>347.34033</ele>
        <time>2019-11-21T14:18:47Z</time>
      </trkpt>
      <trkpt lat="43.09604682" lon="-2.38268741">
        <ele>346.6728</ele>
        <time>2019-11-21T14:18:48Z</time>
      </trkpt>
      <trkpt lat="43.09623453" lon="-2.38293933">
        <ele>346.76343</ele>
        <time>2019-11-21T14:18:49Z</time>
      </trkpt>
      <trkpt lat="43.09659483" lon="-2.38348484">
        <ele>345.56213</ele>
        <time>2019-11-21T14:18:50Z</time>
      </trkpt>
      <trkpt lat="43.09677068" lon="-2.38376515">
        <ele>344.7281</ele>
        <time>2019-11-21T14:18:51Z</time>
      </trkpt>
      <trkpt lat="43.0969554" lon="-2.38403765">
        <ele>344.31952</ele>
        <time>2019-11-21T14:18:52Z</time>
      </trkpt>
      <trkpt lat="43.09714569" lon="-2.38428763">
        <ele>343.94995</ele>
        <time>2019-11-21T14:18:53Z</time>
      </trkpt>
      <trkpt lat="43.09727934" lon="-2.38452128">
        <ele>338.76306</ele>
        <time>2019-11-21T14:18:54Z</time>
      </trkpt>
      <trkpt lat="43.09747378" lon="-2.38472628">
        <ele>336.26404</ele>
        <time>2019-11-21T14:18:55Z</time>
      </trkpt>
      <trkpt lat="43.09771005" lon="-2.38489133">
        <ele>333.5459</ele>
        <time>2019-11-21T14:18:56Z</time>
      </trkpt>
      <trkpt lat="43.09794641" lon="-2.38501933">
        <ele>332.7038</ele>
        <time>2019-11-21T14:18:57Z</time>
      </trkpt>
      <trkpt lat="43.09819571" lon="-2.38511612">
        <ele>331.10388</ele>
        <time>2019-11-21T14:18:58Z</time>
      </trkpt>
      <trkpt lat="43.09844377" lon="-2.38517353">
        <ele>328.37726</ele>
        <time>2019-11-21T14:18:59Z</time>
      </trkpt>
      <trkpt lat="43.09870004" lon="-2.38522451">
        <ele>326.75818</ele>
        <time>2019-11-21T14:19:00Z</time>
      </trkpt>
      <trkpt lat="43.09895642" lon="-2.38529044">
        <ele>324.12482</ele>
        <time>2019-11-21T14:19:01Z</time>
      </trkpt>
      <trkpt lat="43.09919392" lon="-2.38536191">
        <ele>322.89087</ele>
        <time>2019-11-21T14:19:02Z</time>
      </trkpt>
      <trkpt lat="43.09943875" lon="-2.38546219">
        <ele>321.28192</ele>
        <time>2019-11-21T14:19:03Z</time>
      </trkpt>
      <trkpt lat="43.09967956" lon="-2.38558008">
        <ele>320.2693</ele>
        <time>2019-11-21T14:19:04Z</time>
      </trkpt>
      <trkpt lat="43.09990637" lon="-2.38573183">
        <ele>318.8319</ele>
        <time>2019-11-21T14:19:05Z</time>
      </trkpt>
      <trkpt lat="43.10011785" lon="-2.38591313">
        <ele>317.84338</ele>
        <time>2019-11-21T14:19:06Z</time>
      </trkpt>
      <trkpt lat="43.10031333" lon="-2.38611976">
        <ele>316.75708</ele>
        <time>2019-11-21T14:19:07Z</time>
      </trkpt>
      <trkpt lat="43.10050112" lon="-2.38635499">
        <ele>316.5569</ele>
        <time>2019-11-21T14:19:08Z</time>
      </trkpt>
      <trkpt lat="43.10067374" lon="-2.38661774">
        <ele>316.0965</ele>
        <time>2019-11-21T14:19:09Z</time>
      </trkpt>
      <trkpt lat="43.10083451" lon="-2.38690396">
        <ele>315.66266</ele>
        <time>2019-11-21T14:19:10Z</time>
      </trkpt>
      <trkpt lat="43.10096181" lon="-2.3872083">
        <ele>314.901</ele>
        <time>2019-11-21T14:19:12Z</time>
      </trkpt>
      <trkpt lat="43.10107821" lon="-2.38752431">
        <ele>314.50623</ele>
        <time>2019-11-21T14:19:13Z</time>
      </trkpt>
      <trkpt lat="43.10116151" lon="-2.38785968">
        <ele>313.32904</ele>
        <time>2019-11-21T14:19:14Z</time>
      </trkpt>
      <trkpt lat="43.10123122" lon="-2.38820463">
        <ele>312.68787</ele>
        <time>2019-11-21T14:19:15Z</time>
      </trkpt>
      <trkpt lat="43.10128123" lon="-2.38856396">
        <ele>342.05908</ele>
        <time>2019-11-21T14:19:16Z</time>
      </trkpt>
      <trkpt lat="43.10129978" lon="-2.38892311">
        <ele>329.1239</ele>
        <time>2019-11-21T14:19:17Z</time>
      </trkpt>
      <trkpt lat="43.10130497" lon="-2.38929219">
        <ele>320.79224</ele>
        <time>2019-11-21T14:19:18Z</time>
      </trkpt>
      <trkpt lat="43.10130489" lon="-2.38965718">
        <ele>316.1493</ele>
        <time>2019-11-21T14:19:19Z</time>
      </trkpt>
      <trkpt lat="43.10130284" lon="-2.39001399">
        <ele>311.1988</ele>
        <time>2019-11-21T14:19:20Z</time>
      </trkpt>
      <trkpt lat="43.10130633" lon="-2.39037997">
        <ele>308.7683</ele>
        <time>2019-11-21T14:19:21Z</time>
      </trkpt>
      <trkpt lat="43.10135704" lon="-2.39111684">
        <ele>304.99835</ele>
        <time>2019-11-21T14:19:22Z</time>
      </trkpt>
      <trkpt lat="43.10141503" lon="-2.39147241">
        <ele>301.7682</ele>
        <time>2019-11-21T14:19:23Z</time>
      </trkpt>
      <trkpt lat="43.10148598" lon="-2.3918261">
        <ele>299.20593</ele>
        <time>2019-11-21T14:19:24Z</time>
      </trkpt>
      <trkpt lat="43.10157484" lon="-2.39216439">
        <ele>295.50098</ele>
        <time>2019-11-21T14:19:25Z</time>
      </trkpt>
      <trkpt lat="43.10166997" lon="-2.39251485">
        <ele>294.3401</ele>
        <time>2019-11-21T14:19:26Z</time>
      </trkpt>
      <trkpt lat="43.10178026" lon="-2.39285641">
        <ele>294.17603</ele>
        <time>2019-11-21T14:19:27Z</time>
      </trkpt>
      <trkpt lat="43.10189968" lon="-2.39319578">
        <ele>293.38342</ele>
        <time>2019-11-21T14:19:28Z</time>
      </trkpt>
      <trkpt lat="43.10202834" lon="-2.39352532">
        <ele>292.83887</ele>
        <time>2019-11-21T14:19:29Z</time>
      </trkpt>
      <trkpt lat="43.102182" lon="-2.39383976">
        <ele>291.17493</ele>
        <time>2019-11-21T14:19:30Z</time>
      </trkpt>
      <trkpt lat="43.10233714" lon="-2.39414566">
        <ele>290.75183</ele>
        <time>2019-11-21T14:19:31Z</time>
      </trkpt>
      <trkpt lat="43.10251276" lon="-2.39444835">
        <ele>290.13916</ele>
        <time>2019-11-21T14:19:32Z</time>
      </trkpt>
      <trkpt lat="43.10267153" lon="-2.39473429">
        <ele>288.14685</ele>
        <time>2019-11-21T14:19:33Z</time>
      </trkpt>
      <trkpt lat="43.10285527" lon="-2.39500541">
        <ele>287.72937</ele>
        <time>2019-11-21T14:19:34Z</time>
      </trkpt>
      <trkpt lat="43.10305799" lon="-2.39526416">
        <ele>286.08685</ele>
        <time>2019-11-21T14:19:35Z</time>
      </trkpt>
      <trkpt lat="43.10324969" lon="-2.39552187">
        <ele>285.0653</ele>
        <time>2019-11-21T14:19:36Z</time>
      </trkpt>
      <trkpt lat="43.1034239" lon="-2.39577045">
        <ele>282.4596</ele>
        <time>2019-11-21T14:19:37Z</time>
      </trkpt>
      <trkpt lat="43.10363338" lon="-2.39600363">
        <ele>282.17468</ele>
        <time>2019-11-21T14:19:38Z</time>
      </trkpt>
      <trkpt lat="43.10383967" lon="-2.39622515">
        <ele>278.9638</ele>
        <time>2019-11-21T14:19:39Z</time>
      </trkpt>
      <trkpt lat="43.1040405" lon="-2.39644422">
        <ele>277.06274</ele>
        <time>2019-11-21T14:19:40Z</time>
      </trkpt>
      <trkpt lat="43.10425728" lon="-2.39663874">
        <ele>276.43323</ele>
        <time>2019-11-21T14:19:41Z</time>
      </trkpt>
      <trkpt lat="43.10450856" lon="-2.3968255">
        <ele>274.42645</ele>
        <time>2019-11-21T14:19:42Z</time>
      </trkpt>
      <trkpt lat="43.10474331" lon="-2.39699849">
        <ele>270.94373</ele>
        <time>2019-11-21T14:19:44Z</time>
      </trkpt>
      <trkpt lat="43.10498414" lon="-2.39719311">
        <ele>268.86108</ele>
        <time>2019-11-21T14:19:45Z</time>
      </trkpt>
      <trkpt lat="43.10521807" lon="-2.39738598">
        <ele>267.0653</ele>
        <time>2019-11-21T14:19:46Z</time>
      </trkpt>
      <trkpt lat="43.10545137" lon="-2.3975901">
        <ele>266.5315</ele>
        <time>2019-11-21T14:19:47Z</time>
      </trkpt>
      <trkpt lat="43.10567567" lon="-2.39781531">
        <ele>264.9048</ele>
        <time>2019-11-21T14:19:48Z</time>
      </trkpt>
      <trkpt lat="43.10588795" lon="-2.3980588">
        <ele>263.13354</ele>
        <time>2019-11-21T14:19:49Z</time>
      </trkpt>
      <trkpt lat="43.10609256" lon="-2.39831669">
        <ele>262.2055</ele>
        <time>2019-11-21T14:19:50Z</time>
      </trkpt>
      <trkpt lat="43.10645464" lon="-2.39889516">
        <ele>261.15472</ele>
        <time>2019-11-21T14:19:51Z</time>
      </trkpt>
      <trkpt lat="43.10661091" lon="-2.39920715">
        <ele>259.87012</ele>
        <time>2019-11-21T14:19:52Z</time>
      </trkpt>
      <trkpt lat="43.10675754" lon="-2.39952929">
        <ele>259.14563</ele>
        <time>2019-11-21T14:19:53Z</time>
      </trkpt>
      <trkpt lat="43.10687611" lon="-2.39985903">
        <ele>258.79785</ele>
        <time>2019-11-21T14:19:54Z</time>
      </trkpt>
      <trkpt lat="43.10697592" lon="-2.4001913">
        <ele>257.48096</ele>
        <time>2019-11-21T14:19:55Z</time>
      </trkpt>
      <trkpt lat="43.10705891" lon="-2.40053238">
        <ele>256.41235</ele>
        <time>2019-11-21T14:19:56Z</time>
      </trkpt>
      <trkpt lat="43.10712751" lon="-2.40089304">
        <ele>255.82294</ele>
        <time>2019-11-21T14:19:57Z</time>
      </trkpt>
      <trkpt lat="43.10718292" lon="-2.40126415">
        <ele>255.22504</ele>
        <time>2019-11-21T14:19:58Z</time>
      </trkpt>
      <trkpt lat="43.10721951" lon="-2.40162972">
        <ele>255.21942</ele>
        <time>2019-11-21T14:19:59Z</time>
      </trkpt>
      <trkpt lat="43.10724899" lon="-2.4020058">
        <ele>253.78949</ele>
        <time>2019-11-21T14:20:00Z</time>
      </trkpt>
      <trkpt lat="43.10724511" lon="-2.40236891">
        <ele>249.9024</ele>
        <time>2019-11-21T14:20:01Z</time>
      </trkpt>
      <trkpt lat="43.10723433" lon="-2.40274301">
        <ele>265.8377</ele>
        <time>2019-11-21T14:20:02Z</time>
      </trkpt>
      <trkpt lat="43.10722543" lon="-2.40312048">
        <ele>259.69012</ele>
        <time>2019-11-21T14:20:03Z</time>
      </trkpt>
      <trkpt lat="43.10719614" lon="-2.4034845">
        <ele>256.281</ele>
        <time>2019-11-21T14:20:04Z</time>
      </trkpt>
      <trkpt lat="43.10716555" lon="-2.40385154">
        <ele>254.43726</ele>
        <time>2019-11-21T14:20:05Z</time>
      </trkpt>
      <trkpt lat="43.10717308" lon="-2.40421375">
        <ele>251.80457</ele>
        <time>2019-11-21T14:20:06Z</time>
      </trkpt>
      <trkpt lat="43.1071659" lon="-2.4045831">
        <ele>242.48254</ele>
        <time>2019-11-21T14:20:07Z</time>
      </trkpt>
      <trkpt lat="43.10716418" lon="-2.40492951">
        <ele>241.284</ele>
        <time>2019-11-21T14:20:08Z</time>
      </trkpt>
      <trkpt lat="43.10716038" lon="-2.40527415">
        <ele>239.65417</ele>
        <time>2019-11-21T14:20:09Z</time>
      </trkpt>
      <trkpt lat="43.1071796" lon="-2.40561679">
        <ele>238.72626</ele>
        <time>2019-11-21T14:20:10Z</time>
      </trkpt>
      <trkpt lat="43.10721694" lon="-2.40594366">
        <ele>237.91376</ele>
        <time>2019-11-21T14:20:11Z</time>
      </trkpt>
      <trkpt lat="43.10726829" lon="-2.40626725">
        <ele>236.73822</ele>
        <time>2019-11-21T14:20:12Z</time>
      </trkpt>
      <trkpt lat="43.10734441" lon="-2.40654867">
        <ele>232.7956</ele>
        <time>2019-11-21T14:20:13Z</time>
      </trkpt>
      <trkpt lat="43.10741652" lon="-2.4068379">
        <ele>231.97333</ele>
        <time>2019-11-21T14:20:14Z</time>
      </trkpt>
      <trkpt lat="43.10750976" lon="-2.40710676">
        <ele>230.10333</ele>
        <time>2019-11-21T14:20:15Z</time>
      </trkpt>
      <trkpt lat="43.10761359" lon="-2.40736909">
        <ele>229.26465</ele>
        <time>2019-11-21T14:20:17Z</time>
      </trkpt>
      <trkpt lat="43.10772892" lon="-2.40762707">
        <ele>228.61615</ele>
        <time>2019-11-21T14:20:18Z</time>
      </trkpt>
      <trkpt lat="43.1078428" lon="-2.40787937">
        <ele>227.53381</ele>
        <time>2019-11-21T14:20:19Z</time>
      </trkpt>
      <trkpt lat="43.10795531" lon="-2.40812216">
        <ele>227.47784</ele>
        <time>2019-11-21T14:20:20Z</time>
      </trkpt>
      <trkpt lat="43.10806986" lon="-2.40834756">
        <ele>226.18243</ele>
        <time>2019-11-21T14:20:21Z</time>
      </trkpt>
      <trkpt lat="43.10817842" lon="-2.40857658">
        <ele>225.60034</ele>
        <time>2019-11-21T14:20:22Z</time>
      </trkpt>
      <trkpt lat="43.10828879" lon="-2.40880106">
        <ele>226.06702</ele>
        <time>2019-11-21T14:20:23Z</time>
      </trkpt>
      <trkpt lat="43.10839512" lon="-2.40903516">
        <ele>226.61914</ele>
        <time>2019-11-21T14:20:24Z</time>
      </trkpt>
      <trkpt lat="43.10850616" lon="-2.40927817">
        <ele>227.90668</ele>
        <time>2019-11-21T14:20:25Z</time>
      </trkpt>
      <trkpt lat="43.10868106" lon="-2.40976695">
        <ele>230.23877</ele>
        <time>2019-11-21T14:20:26Z</time>
      </trkpt>
      <trkpt lat="43.10873556" lon="-2.41001512">
        <ele>229.54688</ele>
        <time>2019-11-21T14:20:27Z</time>
      </trkpt>
      <trkpt lat="43.10879306" lon="-2.4102632">
        <ele>229.43811</ele>
        <time>2019-11-21T14:20:28Z</time>
      </trkpt>
      <trkpt lat="43.10884391" lon="-2.41051397">
        <ele>229.35193</ele>
        <time>2019-11-21T14:20:29Z</time>
      </trkpt>
      <trkpt lat="43.1088924407959" lon="-2.4107640981674194">
        <ele>0.0</ele>
        <time>2019-11-21T14:20:30Z</time>
      </trkpt>
      <trkpt lat="43.10871023" lon="-2.41472639">
        <ele>228.25232</ele>
        <time>2019-11-21T14:20:44Z</time>
      </trkpt>
      <trkpt lat="43.1086239" lon="-2.4149938">
        <ele>227.33093</ele>
        <time>2019-11-21T14:20:45Z</time>
      </trkpt>
      <trkpt lat="43.108544" lon="-2.41525692">
        <ele>226.8778</ele>
        <time>2019-11-21T14:20:46Z</time>
      </trkpt>
      <trkpt lat="43.10844799" lon="-2.41551022">
        <ele>235.31659</ele>
        <time>2019-11-21T14:20:47Z</time>
      </trkpt>
      <trkpt lat="43.1083585" lon="-2.41574494">
        <ele>232.65002</ele>
        <time>2019-11-21T14:20:49Z</time>
      </trkpt>
      <trkpt lat="43.10823714" lon="-2.41597149">
        <ele>232.10718</ele>
        <time>2019-11-21T14:20:50Z</time>
      </trkpt>
      <trkpt lat="43.10810763" lon="-2.416205">
        <ele>229.56732</ele>
        <time>2019-11-21T14:20:51Z</time>
      </trkpt>
      <trkpt lat="43.10796571" lon="-2.41643006">
        <ele>227.15948</ele>
        <time>2019-11-21T14:20:52Z</time>
      </trkpt>
      <trkpt lat="43.10782084" lon="-2.41667244">
        <ele>225.92993</ele>
        <time>2019-11-21T14:20:53Z</time>
      </trkpt>
      <trkpt lat="43.10766562" lon="-2.41689649">
        <ele>224.422</ele>
        <time>2019-11-21T14:20:54Z</time>
      </trkpt>
      <trkpt lat="43.10749729" lon="-2.4171126">
        <ele>223.461</ele>
        <time>2019-11-21T14:20:55Z</time>
      </trkpt>
      <trkpt lat="43.10732161" lon="-2.41731897">
        <ele>223.5343</ele>
        <time>2019-11-21T14:20:56Z</time>
      </trkpt>
      <trkpt lat="43.10713822" lon="-2.41750727">
        <ele>223.39404</ele>
        <time>2019-11-21T14:20:57Z</time>
      </trkpt>
      <trkpt lat="43.10675643" lon="-2.4178523">
        <ele>222.66705</ele>
        <time>2019-11-21T14:20:58Z</time>
      </trkpt>
      <trkpt lat="43.10656011" lon="-2.41800854">
        <ele>221.47217</ele>
        <time>2019-11-21T14:20:59Z</time>
      </trkpt>
      <trkpt lat="43.1063618" lon="-2.41814889">
        <ele>222.37079</ele>
        <time>2019-11-21T14:21:00Z</time>
      </trkpt>
      <trkpt lat="43.10616663" lon="-2.41827985">
        <ele>222.26733</ele>
        <time>2019-11-21T14:21:01Z</time>
      </trkpt>
      <trkpt lat="43.10596562" lon="-2.41840511">
        <ele>222.39832</ele>
        <time>2019-11-21T14:21:02Z</time>
      </trkpt>
      <trkpt lat="43.10576425" lon="-2.41852509">
        <ele>223.03137</ele>
        <time>2019-11-21T14:21:03Z</time>
      </trkpt>
      <trkpt lat="43.10556717" lon="-2.41864206">
        <ele>223.96759</ele>
        <time>2019-11-21T14:21:04Z</time>
      </trkpt>
      <trkpt lat="43.10537699" lon="-2.4187621">
        <ele>224.87195</ele>
        <time>2019-11-21T14:21:05Z</time>
      </trkpt>
      <trkpt lat="43.10519336" lon="-2.41888972">
        <ele>226.04926</ele>
        <time>2019-11-21T14:21:06Z</time>
      </trkpt>
      <trkpt lat="43.1050145" lon="-2.419028">
        <ele>227.7998</ele>
        <time>2019-11-21T14:21:07Z</time>
      </trkpt>
      <trkpt lat="43.10483815" lon="-2.41917105">
        <ele>228.27875</ele>
        <time>2019-11-21T14:21:08Z</time>
      </trkpt>
      <trkpt lat="43.10467143" lon="-2.41932768">
        <ele>228.5636</ele>
        <time>2019-11-21T14:21:09Z</time>
      </trkpt>
      <trkpt lat="43.104505" lon="-2.41948824">
        <ele>229.00873</ele>
        <time>2019-11-21T14:21:10Z</time>
      </trkpt>
      <trkpt lat="43.10434188" lon="-2.41966178">
        <ele>229.93945</ele>
        <time>2019-11-21T14:21:11Z</time>
      </trkpt>
      <trkpt lat="43.1041853" lon="-2.41984358">
        <ele>231.04395</ele>
        <time>2019-11-21T14:21:12Z</time>
      </trkpt>
      <trkpt lat="43.1040286" lon="-2.42002574">
        <ele>231.0982</ele>
        <time>2019-11-21T14:21:13Z</time>
      </trkpt>
      <trkpt lat="43.10387553" lon="-2.42021921">
        <ele>231.57764</ele>
        <time>2019-11-21T14:21:14Z</time>
      </trkpt>
      <trkpt lat="43.10373257" lon="-2.42042242">
        <ele>231.85645</ele>
        <time>2019-11-21T14:21:15Z</time>
      </trkpt>
      <trkpt lat="43.1035923" lon="-2.42063681">
        <ele>231.9549</ele>
        <time>2019-11-21T14:21:16Z</time>
      </trkpt>
      <trkpt lat="43.10344902" lon="-2.42085077">
        <ele>231.23486</ele>
        <time>2019-11-21T14:21:17Z</time>
      </trkpt>
      <trkpt lat="43.10331269" lon="-2.42107062">
        <ele>231.50092</ele>
        <time>2019-11-21T14:21:18Z</time>
      </trkpt>
      <trkpt lat="43.10317016" lon="-2.42131277">
        <ele>232.00757</ele>
        <time>2019-11-21T14:21:19Z</time>
      </trkpt>
      <trkpt lat="43.10303754" lon="-2.42158314">
        <ele>232.2865</ele>
        <time>2019-11-21T14:21:21Z</time>
      </trkpt>
      <trkpt lat="43.10291013" lon="-2.42185239">
        <ele>232.48145</ele>
        <time>2019-11-21T14:21:22Z</time>
      </trkpt>
      <trkpt lat="43.10278364" lon="-2.42211116">
        <ele>232.74158</ele>
        <time>2019-11-21T14:21:23Z</time>
      </trkpt>
      <trkpt lat="43.10264695" lon="-2.42237805">
        <ele>232.94507</ele>
        <time>2019-11-21T14:21:24Z</time>
      </trkpt>
      <trkpt lat="43.10251247" lon="-2.42265001">
        <ele>233.64459</ele>
        <time>2019-11-21T14:21:25Z</time>
      </trkpt>
      <trkpt lat="43.10237689" lon="-2.42290999">
        <ele>234.75604</ele>
        <time>2019-11-21T14:21:26Z</time>
      </trkpt>
      <trkpt lat="43.10223102" lon="-2.42316485">
        <ele>235.15497</ele>
        <time>2019-11-21T14:21:27Z</time>
      </trkpt>
      <trkpt lat="43.10207961" lon="-2.42341489">
        <ele>235.36719</ele>
        <time>2019-11-21T14:21:28Z</time>
      </trkpt>
      <trkpt lat="43.10173175" lon="-2.42393457">
        <ele>234.74634</ele>
        <time>2019-11-21T14:21:29Z</time>
      </trkpt>
      <trkpt lat="43.10154721" lon="-2.42420008">
        <ele>235.33728</ele>
        <time>2019-11-21T14:21:30Z</time>
      </trkpt>
      <trkpt lat="43.10136111" lon="-2.42445097">
        <ele>234.12958</ele>
        <time>2019-11-21T14:21:31Z</time>
      </trkpt>
      <trkpt lat="43.1011671" lon="-2.42468974">
        <ele>233.4231</ele>
        <time>2019-11-21T14:21:32Z</time>
      </trkpt>
      <trkpt lat="43.10097095" lon="-2.42492759">
        <ele>233.47565</ele>
        <time>2019-11-21T14:21:33Z</time>
      </trkpt>
      <trkpt lat="43.10076201" lon="-2.42516197">
        <ele>232.49304</ele>
        <time>2019-11-21T14:21:34Z</time>
      </trkpt>
      <trkpt lat="43.10054252" lon="-2.42538438">
        <ele>231.48273</ele>
        <time>2019-11-21T14:21:35Z</time>
      </trkpt>
      <trkpt lat="43.10032259" lon="-2.42559215">
        <ele>231.23987</ele>
        <time>2019-11-21T14:21:36Z</time>
      </trkpt>
      <trkpt lat="43.10009837" lon="-2.42580615">
        <ele>231.6524</ele>
        <time>2019-11-21T14:21:37Z</time>
      </trkpt>
      <trkpt lat="43.09987198" lon="-2.42599298">
        <ele>230.4419</ele>
        <time>2019-11-21T14:21:38Z</time>
      </trkpt>
      <trkpt lat="43.09963807" lon="-2.42617204">
        <ele>230.07458</ele>
        <time>2019-11-21T14:21:39Z</time>
      </trkpt>
      <trkpt lat="43.09940752" lon="-2.42635016">
        <ele>229.49854</ele>
        <time>2019-11-21T14:21:40Z</time>
      </trkpt>
      <trkpt lat="43.09917525" lon="-2.42651153">
        <ele>229.17664</ele>
        <time>2019-11-21T14:21:41Z</time>
      </trkpt>
      <trkpt lat="43.09893715" lon="-2.42666249">
        <ele>229.2909</ele>
        <time>2019-11-21T14:21:42Z</time>
      </trkpt>
      <trkpt lat="43.09869705" lon="-2.42679895">
        <ele>229.86316</ele>
        <time>2019-11-21T14:21:43Z</time>
      </trkpt>
      <trkpt lat="43.09845379" lon="-2.42694241">
        <ele>229.24976</ele>
        <time>2019-11-21T14:21:44Z</time>
      </trkpt>
      <trkpt lat="43.09820712" lon="-2.42707324">
        <ele>228.46118</ele>
        <time>2019-11-21T14:21:45Z</time>
      </trkpt>
      <trkpt lat="43.09796202" lon="-2.42719204">
        <ele>228.74036</ele>
        <time>2019-11-21T14:21:46Z</time>
      </trkpt>
      <trkpt lat="43.0977142" lon="-2.42730273">
        <ele>232.75488</ele>
        <time>2019-11-21T14:21:47Z</time>
      </trkpt>
      <trkpt lat="43.09746894" lon="-2.42741072">
        <ele>231.51001</ele>
        <time>2019-11-21T14:21:48Z</time>
      </trkpt>
      <trkpt lat="43.09722842" lon="-2.42752858">
        <ele>231.14618</ele>
        <time>2019-11-21T14:21:49Z</time>
      </trkpt>
      <trkpt lat="43.09698243" lon="-2.42764671">
        <ele>232.27179</ele>
        <time>2019-11-21T14:21:50Z</time>
      </trkpt>
      <trkpt lat="43.09674178" lon="-2.42777716">
        <ele>232.79071</ele>
        <time>2019-11-21T14:21:52Z</time>
      </trkpt>
      <trkpt lat="43.09650868" lon="-2.42791341">
        <ele>235.21478</ele>
        <time>2019-11-21T14:21:53Z</time>
      </trkpt>
      <trkpt lat="43.09627821" lon="-2.42806221">
        <ele>235.53351</ele>
        <time>2019-11-21T14:21:54Z</time>
      </trkpt>
      <trkpt lat="43.09605952" lon="-2.4282024">
        <ele>236.1524</ele>
        <time>2019-11-21T14:21:55Z</time>
      </trkpt>
      <trkpt lat="43.09584924" lon="-2.42835206">
        <ele>236.32404</ele>
        <time>2019-11-21T14:21:56Z</time>
      </trkpt>
      <trkpt lat="43.09565086" lon="-2.42849185">
        <ele>236.64392</ele>
        <time>2019-11-21T14:21:57Z</time>
      </trkpt>
      <trkpt lat="43.09545015" lon="-2.42865173">
        <ele>236.8186</ele>
        <time>2019-11-21T14:21:58Z</time>
      </trkpt>
      <trkpt lat="43.09525598" lon="-2.42881833">
        <ele>236.72943</ele>
        <time>2019-11-21T14:21:59Z</time>
      </trkpt>
      <trkpt lat="43.09489694" lon="-2.42913469">
        <ele>236.12573</ele>
        <time>2019-11-21T14:22:00Z</time>
      </trkpt>
      <trkpt lat="43.09473085" lon="-2.42930065">
        <ele>237.08337</ele>
        <time>2019-11-21T14:22:01Z</time>
      </trkpt>
      <trkpt lat="43.09457498" lon="-2.429463">
        <ele>237.3562</ele>
        <time>2019-11-21T14:22:02Z</time>
      </trkpt>
      <trkpt lat="43.09443223" lon="-2.4296218">
        <ele>238.27509</ele>
        <time>2019-11-21T14:22:03Z</time>
      </trkpt>
      <trkpt lat="43.09429377" lon="-2.4297781">
        <ele>238.70044</ele>
        <time>2019-11-21T14:22:04Z</time>
      </trkpt>
      <trkpt lat="43.09416592" lon="-2.42994512">
        <ele>239.90222</ele>
        <time>2019-11-21T14:22:05Z</time>
      </trkpt>
      <trkpt lat="43.09405439" lon="-2.43009201">
        <ele>240.58875</ele>
        <time>2019-11-21T14:22:06Z</time>
      </trkpt>
      <trkpt lat="43.0939533" lon="-2.43023373">
        <ele>241.30292</ele>
        <time>2019-11-21T14:22:07Z</time>
      </trkpt>
      <trkpt lat="43.09379244" lon="-2.43046402">
        <ele>242.91931</ele>
        <time>2019-11-21T14:22:09Z</time>
      </trkpt>
      <trkpt lat="43.093697" lon="-2.43061024">
        <ele>243.58093</ele>
        <time>2019-11-21T14:22:11Z</time>
      </trkpt>
      <trkpt lat="43.09359602" lon="-2.43075743">
        <ele>241.88098</ele>
        <time>2019-11-21T14:22:21Z</time>
      </trkpt>
      <trkpt lat="43.09348754" lon="-2.43093584">
        <ele>241.30414</ele>
        <time>2019-11-21T14:22:28Z</time>
      </trkpt>
      <trkpt lat="43.09339816" lon="-2.43108592">
        <ele>242.64087</ele>
        <time>2019-11-21T14:22:30Z</time>
      </trkpt>
      <trkpt lat="43.09328493" lon="-2.43128335">
        <ele>244.39648</ele>
        <time>2019-11-21T14:22:32Z</time>
      </trkpt>
      <trkpt lat="43.09314862" lon="-2.43150555">
        <ele>245.28589</ele>
        <time>2019-11-21T14:22:34Z</time>
      </trkpt>
      <trkpt lat="43.09299136" lon="-2.43176021">
        <ele>246.70978</ele>
        <time>2019-11-21T14:22:36Z</time>
      </trkpt>
      <trkpt lat="43.09282155" lon="-2.43202178">
        <ele>248.7138</ele>
        <time>2019-11-21T14:22:38Z</time>
      </trkpt>
      <trkpt lat="43.09263747" lon="-2.43227583">
        <ele>250.03687</ele>
        <time>2019-11-21T14:22:40Z</time>
      </trkpt>
      <trkpt lat="43.09244247" lon="-2.43251854">
        <ele>251.67853</ele>
        <time>2019-11-21T14:22:42Z</time>
      </trkpt>
      <trkpt lat="43.09232815" lon="-2.43263648">
        <ele>252.18494</ele>
        <time>2019-11-21T14:22:43Z</time>
      </trkpt>
      <trkpt lat="43.09220749" lon="-2.43275638">
        <ele>253.13727</ele>
        <time>2019-11-21T14:22:44Z</time>
      </trkpt>
      <trkpt lat="43.09209192" lon="-2.43286636">
        <ele>254.11932</ele>
        <time>2019-11-21T14:22:45Z</time>
      </trkpt>
      <trkpt lat="43.09197267" lon="-2.4329696">
        <ele>255.23828</ele>
        <time>2019-11-21T14:22:46Z</time>
      </trkpt>
      <trkpt lat="43.0918502" lon="-2.43305898">
        <ele>255.44489</ele>
        <time>2019-11-21T14:22:47Z</time>
      </trkpt>
      <trkpt lat="43.09172878" lon="-2.4331427">
        <ele>254.63391</ele>
        <time>2019-11-21T14:22:49Z</time>
      </trkpt>
      <trkpt lat="43.09160586" lon="-2.43322338">
        <ele>253.94391</ele>
        <time>2019-11-21T14:22:50Z</time>
      </trkpt>
      <trkpt lat="43.09147865" lon="-2.43329898">
        <ele>253.47284</ele>
        <time>2019-11-21T14:22:51Z</time>
      </trkpt>
      <trkpt lat="43.09124373" lon="-2.43343921">
        <ele>251.66223</ele>
        <time>2019-11-21T14:22:53Z</time>
      </trkpt>
      <trkpt lat="43.09107281" lon="-2.43358039">
        <ele>249.43597</ele>
        <time>2019-11-21T14:22:55Z</time>
      </trkpt>
      <trkpt lat="43.09094319" lon="-2.43394575">
        <ele>248.60541</ele>
        <time>2019-11-21T14:22:57Z</time>
      </trkpt>
      <trkpt lat="43.09099278" lon="-2.43420802">
        <ele>248.75305</ele>
        <time>2019-11-21T14:22:59Z</time>
      </trkpt>
      <trkpt lat="43.09115224" lon="-2.43442506">
        <ele>248.10394</ele>
        <time>2019-11-21T14:23:01Z</time>
      </trkpt>
      <trkpt lat="43.09139757" lon="-2.43452272">
        <ele>249.2038</ele>
        <time>2019-11-21T14:23:03Z</time>
      </trkpt>
      <trkpt lat="43.09153854" lon="-2.43453993">
        <ele>250.34753</ele>
        <time>2019-11-21T14:23:04Z</time>
      </trkpt>
      <trkpt lat="43.09170138" lon="-2.43456943">
        <ele>249.6576</ele>
        <time>2019-11-21T14:23:05Z</time>
      </trkpt>
      <trkpt lat="43.09186942" lon="-2.4346095">
        <ele>248.41345</ele>
        <time>2019-11-21T14:23:06Z</time>
      </trkpt>
      <trkpt lat="43.09203847" lon="-2.43464089">
        <ele>248.61096</ele>
        <time>2019-11-21T14:23:07Z</time>
      </trkpt>
      <trkpt lat="43.09221978" lon="-2.43467972">
        <ele>248.54926</ele>
        <time>2019-11-21T14:23:08Z</time>
      </trkpt>
      <trkpt lat="43.09241585" lon="-2.43471401">
        <ele>248.617</ele>
        <time>2019-11-21T14:23:09Z</time>
      </trkpt>
      <trkpt lat="43.09262077" lon="-2.43474368">
        <ele>248.47083</ele>
        <time>2019-11-21T14:23:10Z</time>
      </trkpt>
      <trkpt lat="43.09283215" lon="-2.43477746">
        <ele>248.53192</ele>
        <time>2019-11-21T14:23:11Z</time>
      </trkpt>
      <trkpt lat="43.09304808" lon="-2.43478706">
        <ele>248.61975</ele>
        <time>2019-11-21T14:23:12Z</time>
      </trkpt>
      <trkpt lat="43.09326625" lon="-2.43478924">
        <ele>248.56335</ele>
        <time>2019-11-21T14:23:13Z</time>
      </trkpt>
      <trkpt lat="43.09349221" lon="-2.43477784">
        <ele>249.32538</ele>
        <time>2019-11-21T14:23:14Z</time>
      </trkpt>
      <trkpt lat="43.0937268" lon="-2.43474409">
        <ele>250.01074</ele>
        <time>2019-11-21T14:23:15Z</time>
      </trkpt>
      <trkpt lat="43.09397236" lon="-2.43470342">
        <ele>250.80139</ele>
        <time>2019-11-21T14:23:16Z</time>
      </trkpt>
      <trkpt lat="43.09421697" lon="-2.43464414">
        <ele>251.83441</ele>
        <time>2019-11-21T14:23:18Z</time>
      </trkpt>
      <trkpt lat="43.09447143" lon="-2.43457398">
        <ele>253.49487</ele>
        <time>2019-11-21T14:23:19Z</time>
      </trkpt>
      <trkpt lat="43.09472337" lon="-2.43449281">
        <ele>251.76666</ele>
        <time>2019-11-21T14:23:20Z</time>
      </trkpt>
      <trkpt lat="43.09498336" lon="-2.43439245">
        <ele>254.09229</ele>
        <time>2019-11-21T14:23:21Z</time>
      </trkpt>
      <trkpt lat="43.09524234" lon="-2.43428226">
        <ele>255.44958</ele>
        <time>2019-11-21T14:23:22Z</time>
      </trkpt>
      <trkpt lat="43.09550369" lon="-2.43417211">
        <ele>256.09656</ele>
        <time>2019-11-21T14:23:23Z</time>
      </trkpt>
      <trkpt lat="43.09575554" lon="-2.43405771">
        <ele>257.01904</ele>
        <time>2019-11-21T14:23:24Z</time>
      </trkpt>
      <trkpt lat="43.09601693" lon="-2.43394874">
        <ele>257.58508</ele>
        <time>2019-11-21T14:23:25Z</time>
      </trkpt>
      <trkpt lat="43.09627955" lon="-2.43384922">
        <ele>257.64612</ele>
        <time>2019-11-21T14:23:26Z</time>
      </trkpt>
      <trkpt lat="43.09679488" lon="-2.43366441">
        <ele>258.46436</ele>
        <time>2019-11-21T14:23:27Z</time>
      </trkpt>
      <trkpt lat="43.0970625" lon="-2.43359387">
        <ele>258.95435</ele>
        <time>2019-11-21T14:23:28Z</time>
      </trkpt>
      <trkpt lat="43.09732811" lon="-2.43354305">
        <ele>258.9591</ele>
        <time>2019-11-21T14:23:29Z</time>
      </trkpt>
      <trkpt lat="43.09761424" lon="-2.43350308">
        <ele>259.9068</ele>
        <time>2019-11-21T14:23:30Z</time>
      </trkpt>
      <trkpt lat="43.09789437" lon="-2.43348104">
        <ele>260.49463</ele>
        <time>2019-11-21T14:23:31Z</time>
      </trkpt>
      <trkpt lat="43.09818758" lon="-2.43346792">
        <ele>260.90186</ele>
        <time>2019-11-21T14:23:32Z</time>
      </trkpt>
      <trkpt lat="43.09847696" lon="-2.43348146">
        <ele>261.91547</ele>
        <time>2019-11-21T14:23:33Z</time>
      </trkpt>
      <trkpt lat="43.09876445" lon="-2.43351015">
        <ele>262.6797</ele>
        <time>2019-11-21T14:23:34Z</time>
      </trkpt>
      <trkpt lat="43.09905785" lon="-2.4335522">
        <ele>263.1963</ele>
        <time>2019-11-21T14:23:35Z</time>
      </trkpt>
      <trkpt lat="43.09934557" lon="-2.43359518">
        <ele>262.94592</ele>
        <time>2019-11-21T14:23:36Z</time>
      </trkpt>
      <trkpt lat="43.09963206" lon="-2.43365917">
        <ele>264.07983</ele>
        <time>2019-11-21T14:23:37Z</time>
      </trkpt>
      <trkpt lat="43.09992655" lon="-2.43374431">
        <ele>265.12555</ele>
        <time>2019-11-21T14:23:38Z</time>
      </trkpt>
      <trkpt lat="43.10020783" lon="-2.43383479">
        <ele>265.66534</ele>
        <time>2019-11-21T14:23:39Z</time>
      </trkpt>
      <trkpt lat="43.10048469" lon="-2.43392916">
        <ele>265.23523</ele>
        <time>2019-11-21T14:23:40Z</time>
      </trkpt>
      <trkpt lat="43.10077353" lon="-2.43402669">
        <ele>264.8108</ele>
        <time>2019-11-21T14:23:41Z</time>
      </trkpt>
      <trkpt lat="43.10105268" lon="-2.43413178">
        <ele>264.51178</ele>
        <time>2019-11-21T14:23:42Z</time>
      </trkpt>
      <trkpt lat="43.10134482" lon="-2.4342361">
        <ele>265.97333</ele>
        <time>2019-11-21T14:23:43Z</time>
      </trkpt>
      <trkpt lat="43.10163378" lon="-2.43433966">
        <ele>265.71448</ele>
        <time>2019-11-21T14:23:44Z</time>
      </trkpt>
      <trkpt lat="43.10190696" lon="-2.43441629">
        <ele>265.28766</ele>
        <time>2019-11-21T14:23:45Z</time>
      </trkpt>
      <trkpt lat="43.10218895" lon="-2.43448866">
        <ele>265.74493</ele>
        <time>2019-11-21T14:23:46Z</time>
      </trkpt>
      <trkpt lat="43.10246692" lon="-2.4345629">
        <ele>265.80182</ele>
        <time>2019-11-21T14:23:47Z</time>
      </trkpt>
      <trkpt lat="43.10274719" lon="-2.43462381">
        <ele>266.63623</ele>
        <time>2019-11-21T14:23:48Z</time>
      </trkpt>
      <trkpt lat="43.10301063" lon="-2.43466847">
        <ele>266.8319</ele>
        <time>2019-11-21T14:23:50Z</time>
      </trkpt>
      <trkpt lat="43.10328643" lon="-2.43471996">
        <ele>267.49158</ele>
        <time>2019-11-21T14:23:51Z</time>
      </trkpt>
      <trkpt lat="43.103558" lon="-2.43475221">
        <ele>268.92523</ele>
        <time>2019-11-21T14:23:52Z</time>
      </trkpt>
      <trkpt lat="43.10382955" lon="-2.43477183">
        <ele>269.524</ele>
        <time>2019-11-21T14:23:53Z</time>
      </trkpt>
      <trkpt lat="43.10409962" lon="-2.43479572">
        <ele>269.1869</ele>
        <time>2019-11-21T14:23:54Z</time>
      </trkpt>
      <trkpt lat="43.10436969" lon="-2.43479678">
        <ele>269.82104</ele>
        <time>2019-11-21T14:23:55Z</time>
      </trkpt>
      <trkpt lat="43.10464345" lon="-2.43478506">
        <ele>270.95215</ele>
        <time>2019-11-21T14:23:56Z</time>
      </trkpt>
      <trkpt lat="43.10491045" lon="-2.43476977">
        <ele>270.7832</ele>
        <time>2019-11-21T14:23:57Z</time>
      </trkpt>
      <trkpt lat="43.10518495" lon="-2.43474962">
        <ele>271.05066</ele>
        <time>2019-11-21T14:23:58Z</time>
      </trkpt>
      <trkpt lat="43.10570489" lon="-2.43469003">
        <ele>272.1183</ele>
        <time>2019-11-21T14:23:59Z</time>
      </trkpt>
      <trkpt lat="43.10595163" lon="-2.43465965">
        <ele>271.19507</ele>
        <time>2019-11-21T14:24:00Z</time>
      </trkpt>
      <trkpt lat="43.10619786" lon="-2.43462065">
        <ele>271.29138</ele>
        <time>2019-11-21T14:24:01Z</time>
      </trkpt>
      <trkpt lat="43.10643794" lon="-2.43456726">
        <ele>272.55933</ele>
        <time>2019-11-21T14:24:02Z</time>
      </trkpt>
      <trkpt lat="43.10668037" lon="-2.4345061">
        <ele>256.0536</ele>
        <time>2019-11-21T14:24:03Z</time>
      </trkpt>
      <trkpt lat="43.10692193" lon="-2.43443694">
        <ele>259.84106</ele>
        <time>2019-11-21T14:24:04Z</time>
      </trkpt>
      <trkpt lat="43.10715973377228" lon="-2.434367537498474">
        <ele>0.0</ele>
        <time>2019-11-21T14:24:05Z</time>
      </trkpt>
      <trkpt lat="43.11998338" lon="-2.42804151">
        <ele>257.33154</ele>
        <time>2019-11-21T14:25:05Z</time>
      </trkpt>
      <trkpt lat="43.12025222" lon="-2.42810072">
        <ele>257.74402</ele>
        <time>2019-11-21T14:25:06Z</time>
      </trkpt>
      <trkpt lat="43.12051083" lon="-2.42817561">
        <ele>257.4342</ele>
        <time>2019-11-21T14:25:07Z</time>
      </trkpt>
      <trkpt lat="43.12078559" lon="-2.42822846">
        <ele>255.17078</ele>
        <time>2019-11-21T14:25:08Z</time>
      </trkpt>
      <trkpt lat="43.12105075" lon="-2.42828219">
        <ele>253.74872</ele>
        <time>2019-11-21T14:25:09Z</time>
      </trkpt>
      <trkpt lat="43.12130045" lon="-2.42833383">
        <ele>252.91125</ele>
        <time>2019-11-21T14:25:10Z</time>
      </trkpt>
      <trkpt lat="43.12155754" lon="-2.42837079">
        <ele>252.48987</ele>
        <time>2019-11-21T14:25:11Z</time>
      </trkpt>
      <trkpt lat="43.12181844" lon="-2.42840202">
        <ele>250.88232</ele>
        <time>2019-11-21T14:25:12Z</time>
      </trkpt>
      <trkpt lat="43.12209466" lon="-2.42841178">
        <ele>248.53003</ele>
        <time>2019-11-21T14:25:13Z</time>
      </trkpt>
      <trkpt lat="43.12236036" lon="-2.42841959">
        <ele>247.6258</ele>
        <time>2019-11-21T14:25:14Z</time>
      </trkpt>
      <trkpt lat="43.1226252" lon="-2.42842116">
        <ele>246.94727</ele>
        <time>2019-11-21T14:25:15Z</time>
      </trkpt>
      <trkpt lat="43.12289954" lon="-2.42840957">
        <ele>246.1903</ele>
        <time>2019-11-21T14:25:16Z</time>
      </trkpt>
      <trkpt lat="43.12318157" lon="-2.4283928">
        <ele>245.82654</ele>
        <time>2019-11-21T14:25:17Z</time>
      </trkpt>
      <trkpt lat="43.12345811" lon="-2.42836251">
        <ele>245.10205</ele>
        <time>2019-11-21T14:25:18Z</time>
      </trkpt>
      <trkpt lat="43.12374096" lon="-2.42831038">
        <ele>245.55841</ele>
        <time>2019-11-21T14:25:19Z</time>
      </trkpt>
      <trkpt lat="43.12402962" lon="-2.42822974">
        <ele>243.62427</ele>
        <time>2019-11-21T14:25:20Z</time>
      </trkpt>
      <trkpt lat="43.12431205" lon="-2.42813771">
        <ele>242.41919</ele>
        <time>2019-11-21T14:25:21Z</time>
      </trkpt>
      <trkpt lat="43.12487505" lon="-2.42792341">
        <ele>240.59644</ele>
        <time>2019-11-21T14:25:23Z</time>
      </trkpt>
      <trkpt lat="43.12514822" lon="-2.42779573">
        <ele>240.04144</ele>
        <time>2019-11-21T14:25:25Z</time>
      </trkpt>
      <trkpt lat="43.12542404" lon="-2.42766812">
        <ele>239.66467</ele>
        <time>2019-11-21T14:25:26Z</time>
      </trkpt>
      <trkpt lat="43.12571083" lon="-2.42753451">
        <ele>238.1076</ele>
        <time>2019-11-21T14:25:27Z</time>
      </trkpt>
      <trkpt lat="43.12598147" lon="-2.42738728">
        <ele>241.72992</ele>
        <time>2019-11-21T14:25:28Z</time>
      </trkpt>
      <trkpt lat="43.12626774" lon="-2.42721296">
        <ele>240.43842</ele>
        <time>2019-11-21T14:25:29Z</time>
      </trkpt>
      <trkpt lat="43.12678431" lon="-2.42684466">
        <ele>237.8169</ele>
        <time>2019-11-21T14:25:30Z</time>
      </trkpt>
      <trkpt lat="43.1270427" lon="-2.4266527">
        <ele>236.71832</ele>
        <time>2019-11-21T14:25:31Z</time>
      </trkpt>
      <trkpt lat="43.12729009" lon="-2.42645378">
        <ele>235.86877</ele>
        <time>2019-11-21T14:25:32Z</time>
      </trkpt>
      <trkpt lat="43.12752881" lon="-2.42625416">
        <ele>234.58252</ele>
        <time>2019-11-21T14:25:33Z</time>
      </trkpt>
      <trkpt lat="43.12778418" lon="-2.42604564">
        <ele>235.09888</ele>
        <time>2019-11-21T14:25:34Z</time>
      </trkpt>
      <trkpt lat="43.12801979" lon="-2.42588329">
        <ele>230.66943</ele>
        <time>2019-11-21T14:25:35Z</time>
      </trkpt>
      <trkpt lat="43.12828602" lon="-2.42570453">
        <ele>229.70343</ele>
        <time>2019-11-21T14:25:36Z</time>
      </trkpt>
      <trkpt lat="43.12855913" lon="-2.42554026">
        <ele>228.76569</ele>
        <time>2019-11-21T14:25:37Z</time>
      </trkpt>
      <trkpt lat="43.12882572" lon="-2.42539446">
        <ele>228.88287</ele>
        <time>2019-11-21T14:25:38Z</time>
      </trkpt>
      <trkpt lat="43.12909322" lon="-2.42526221">
        <ele>227.99225</ele>
        <time>2019-11-21T14:25:39Z</time>
      </trkpt>
      <trkpt lat="43.12937047" lon="-2.4251429">
        <ele>227.84497</ele>
        <time>2019-11-21T14:25:40Z</time>
      </trkpt>
      <trkpt lat="43.12965241" lon="-2.42504515">
        <ele>227.0639</ele>
        <time>2019-11-21T14:25:41Z</time>
      </trkpt>
      <trkpt lat="43.12993306" lon="-2.42496494">
        <ele>226.13025</ele>
        <time>2019-11-21T14:25:42Z</time>
      </trkpt>
      <trkpt lat="43.13021386" lon="-2.42489552">
        <ele>225.41443</ele>
        <time>2019-11-21T14:25:43Z</time>
      </trkpt>
      <trkpt lat="43.13049487" lon="-2.42484686">
        <ele>225.45929</ele>
        <time>2019-11-21T14:25:44Z</time>
      </trkpt>
      <trkpt lat="43.13079687" lon="-2.42480764">
        <ele>225.8949</ele>
        <time>2019-11-21T14:25:45Z</time>
      </trkpt>
      <trkpt lat="43.13109076" lon="-2.42479434">
        <ele>226.50012</ele>
        <time>2019-11-21T14:25:46Z</time>
      </trkpt>
      <trkpt lat="43.13138513" lon="-2.42480681">
        <ele>225.93738</ele>
        <time>2019-11-21T14:25:47Z</time>
      </trkpt>
      <trkpt lat="43.13167571" lon="-2.4248231">
        <ele>226.04694</ele>
        <time>2019-11-21T14:25:48Z</time>
      </trkpt>
      <trkpt lat="43.13196333" lon="-2.42485877">
        <ele>227.06738</ele>
        <time>2019-11-21T14:25:49Z</time>
      </trkpt>
      <trkpt lat="43.13225575" lon="-2.42491254">
        <ele>227.60492</ele>
        <time>2019-11-21T14:25:50Z</time>
      </trkpt>
      <trkpt lat="43.13255088" lon="-2.42497514">
        <ele>228.26117</ele>
        <time>2019-11-21T14:25:51Z</time>
      </trkpt>
      <trkpt lat="43.13284395" lon="-2.42505172">
        <ele>228.26678</ele>
        <time>2019-11-21T14:25:52Z</time>
      </trkpt>
      <trkpt lat="43.13313209" lon="-2.42513534">
        <ele>227.77008</ele>
        <time>2019-11-21T14:25:53Z</time>
      </trkpt>
      <trkpt lat="43.13342267" lon="-2.42521408">
        <ele>228.1872</ele>
        <time>2019-11-21T14:25:54Z</time>
      </trkpt>
      <trkpt lat="43.13371732" lon="-2.42530437">
        <ele>228.45728</ele>
        <time>2019-11-21T14:25:55Z</time>
      </trkpt>
      <trkpt lat="43.13400126" lon="-2.42538294">
        <ele>227.9248</ele>
        <time>2019-11-21T14:25:56Z</time>
      </trkpt>
      <trkpt lat="43.13429273" lon="-2.42544496">
        <ele>227.75073</ele>
        <time>2019-11-21T14:25:58Z</time>
      </trkpt>
      <trkpt lat="43.13457317" lon="-2.42548798">
        <ele>227.57568</ele>
        <time>2019-11-21T14:25:59Z</time>
      </trkpt>
      <trkpt lat="43.13485703" lon="-2.42551741">
        <ele>227.92786</ele>
        <time>2019-11-21T14:26:00Z</time>
      </trkpt>
      <trkpt lat="43.13513424" lon="-2.42553273">
        <ele>227.70691</ele>
        <time>2019-11-21T14:26:01Z</time>
      </trkpt>
      <trkpt lat="43.13567276" lon="-2.42550913">
        <ele>227.08838</ele>
        <time>2019-11-21T14:26:02Z</time>
      </trkpt>
      <trkpt lat="43.13594504" lon="-2.42548276">
        <ele>227.17694</ele>
        <time>2019-11-21T14:26:03Z</time>
      </trkpt>
      <trkpt lat="43.136213421821594" lon="-2.425457239151001">
        <ele>0.0</ele>
        <time>2019-11-21T14:26:04Z</time>
      </trkpt>
      <trkpt lat="43.14730167388916" lon="-2.428203821182251">
        <ele>233.23718</ele>
        <time>2019-11-21T14:26:57Z</time>
      </trkpt>
      <trkpt lat="43.14759764" lon="-2.42826956">
        <ele>237.41272</ele>
        <time>2019-11-21T14:26:58Z</time>
      </trkpt>
      <trkpt lat="43.14789026" lon="-2.42833833">
        <ele>236.94177</ele>
        <time>2019-11-21T14:26:59Z</time>
      </trkpt>
      <trkpt lat="43.14816564" lon="-2.42836089">
        <ele>236.06006</ele>
        <time>2019-11-21T14:27:00Z</time>
      </trkpt>
      <trkpt lat="43.14842127" lon="-2.42840121">
        <ele>238.24158</ele>
        <time>2019-11-21T14:27:01Z</time>
      </trkpt>
      <trkpt lat="43.14864589" lon="-2.42841972">
        <ele>238.81952</ele>
        <time>2019-11-21T14:27:02Z</time>
      </trkpt>
      <trkpt lat="43.14913007" lon="-2.42846532">
        <ele>240.87628</ele>
        <time>2019-11-21T14:27:03Z</time>
      </trkpt>
      <trkpt lat="43.14936894" lon="-2.4284624">
        <ele>242.03058</ele>
        <time>2019-11-21T14:27:04Z</time>
      </trkpt>
      <trkpt lat="43.14960564" lon="-2.42846824">
        <ele>242.32465</ele>
        <time>2019-11-21T14:27:05Z</time>
      </trkpt>
      <trkpt lat="43.14983405" lon="-2.42846603">
        <ele>242.70142</ele>
        <time>2019-11-21T14:27:06Z</time>
      </trkpt>
      <trkpt lat="43.15007739" lon="-2.42845209">
        <ele>243.30902</ele>
        <time>2019-11-21T14:27:07Z</time>
      </trkpt>
      <trkpt lat="43.1503107" lon="-2.42843512">
        <ele>243.48676</ele>
        <time>2019-11-21T14:27:08Z</time>
      </trkpt>
      <trkpt lat="43.15054351" lon="-2.42841604">
        <ele>243.60791</ele>
        <time>2019-11-21T14:27:09Z</time>
      </trkpt>
      <trkpt lat="43.15077245235443" lon="-2.4283969402313232">
        <ele>0.0</ele>
        <time>2019-11-21T14:27:10Z</time>
      </trkpt>
      <trkpt lat="43.17209579" lon="-2.42488596">
        <ele>241.4068</ele>
        <time>2019-11-21T14:28:39Z</time>
      </trkpt>
      <trkpt lat="43.17231461" lon="-2.42483101">
        <ele>238.96252</ele>
        <time>2019-11-21T14:28:40Z</time>
      </trkpt>
      <trkpt lat="43.17253612" lon="-2.42476238">
        <ele>239.54126</ele>
        <time>2019-11-21T14:28:41Z</time>
      </trkpt>
      <trkpt lat="43.17282793" lon="-2.42473482">
        <ele>240.11829</ele>
        <time>2019-11-21T14:28:42Z</time>
      </trkpt>
      <trkpt lat="43.17313386" lon="-2.42470488">
        <ele>239.5755</ele>
        <time>2019-11-21T14:28:43Z</time>
      </trkpt>
      <trkpt lat="43.17340895" lon="-2.42467909">
        <ele>239.32764</ele>
        <time>2019-11-21T14:28:44Z</time>
      </trkpt>
      <trkpt lat="43.17366484" lon="-2.42465658">
        <ele>239.34363</ele>
        <time>2019-11-21T14:28:45Z</time>
      </trkpt>
      <trkpt lat="43.17392068" lon="-2.42464017">
        <ele>239.40717</ele>
        <time>2019-11-21T14:28:46Z</time>
      </trkpt>
      <trkpt lat="43.174172043800354" lon="-2.4246257543563843">
        <ele>0.0</ele>
        <time>2019-11-21T14:28:47Z</time>
      </trkpt>
      <trkpt lat="43.18072984" lon="-2.4271572">
        <ele>233.09613</ele>
        <time>2019-11-21T14:29:15Z</time>
      </trkpt>
      <trkpt lat="43.18108417" lon="-2.42725792">
        <ele>228.38348</ele>
        <time>2019-11-21T14:29:16Z</time>
      </trkpt>
      <trkpt lat="43.18127732" lon="-2.42739121">
        <ele>228.0036</ele>
        <time>2019-11-21T14:29:17Z</time>
      </trkpt>
      <trkpt lat="43.181495" lon="-2.42753379">
        <ele>227.85327</ele>
        <time>2019-11-21T14:29:18Z</time>
      </trkpt>
      <trkpt lat="43.18175154" lon="-2.42765513">
        <ele>224.2456</ele>
        <time>2019-11-21T14:29:19Z</time>
      </trkpt>
      <trkpt lat="43.18200273" lon="-2.42777704">
        <ele>223.305</ele>
        <time>2019-11-21T14:29:20Z</time>
      </trkpt>
      <trkpt lat="43.18219994" lon="-2.42789644">
        <ele>223.66644</ele>
        <time>2019-11-21T14:29:21Z</time>
      </trkpt>
      <trkpt lat="43.18245107" lon="-2.4279995">
        <ele>223.1773</ele>
        <time>2019-11-21T14:29:22Z</time>
      </trkpt>
      <trkpt lat="43.18268751" lon="-2.42808827">
        <ele>222.77307</ele>
        <time>2019-11-21T14:29:23Z</time>
      </trkpt>
      <trkpt lat="43.18294445" lon="-2.42817082">
        <ele>225.04858</ele>
        <time>2019-11-21T14:29:24Z</time>
      </trkpt>
      <trkpt lat="43.18320327" lon="-2.42822938">
        <ele>225.33716</ele>
        <time>2019-11-21T14:29:25Z</time>
      </trkpt>
      <trkpt lat="43.18345591" lon="-2.42829616">
        <ele>224.50543</ele>
        <time>2019-11-21T14:29:26Z</time>
      </trkpt>
      <trkpt lat="43.18369993" lon="-2.42835475">
        <ele>222.89648</ele>
        <time>2019-11-21T14:29:27Z</time>
      </trkpt>
      <trkpt lat="43.18393718" lon="-2.42841185">
        <ele>220.57123</ele>
        <time>2019-11-21T14:29:28Z</time>
      </trkpt>
      <trkpt lat="43.18419008" lon="-2.42845167">
        <ele>217.71545</ele>
        <time>2019-11-21T14:29:29Z</time>
      </trkpt>
      <trkpt lat="43.18443764" lon="-2.4284789">
        <ele>216.33807</ele>
        <time>2019-11-21T14:29:30Z</time>
      </trkpt>
      <trkpt lat="43.18469963" lon="-2.42850026">
        <ele>215.0108</ele>
        <time>2019-11-21T14:29:31Z</time>
      </trkpt>
      <trkpt lat="43.18498484" lon="-2.42851181">
        <ele>212.133</ele>
        <time>2019-11-21T14:29:32Z</time>
      </trkpt>
      <trkpt lat="43.18527486" lon="-2.42853171">
        <ele>211.80115</ele>
        <time>2019-11-21T14:29:34Z</time>
      </trkpt>
      <trkpt lat="43.18555655" lon="-2.4285483">
        <ele>210.21906</ele>
        <time>2019-11-21T14:29:35Z</time>
      </trkpt>
      <trkpt lat="43.18584399" lon="-2.42855682">
        <ele>210.823</ele>
        <time>2019-11-21T14:29:36Z</time>
      </trkpt>
      <trkpt lat="43.18611408" lon="-2.42857539">
        <ele>209.52032</ele>
        <time>2019-11-21T14:29:37Z</time>
      </trkpt>
      <trkpt lat="43.18637384" lon="-2.42858969">
        <ele>209.66583</ele>
        <time>2019-11-21T14:29:38Z</time>
      </trkpt>
      <trkpt lat="43.1866404" lon="-2.4286084">
        <ele>209.50696</ele>
        <time>2019-11-21T14:29:39Z</time>
      </trkpt>
      <trkpt lat="43.18721228" lon="-2.42868237">
        <ele>210.11414</ele>
        <time>2019-11-21T14:29:40Z</time>
      </trkpt>
      <trkpt lat="43.18747569" lon="-2.42873372">
        <ele>210.05994</ele>
        <time>2019-11-21T14:29:41Z</time>
      </trkpt>
      <trkpt lat="43.18773671" lon="-2.42880207">
        <ele>209.8938</ele>
        <time>2019-11-21T14:29:42Z</time>
      </trkpt>
      <trkpt lat="43.18801067" lon="-2.42888813">
        <ele>209.49536</ele>
        <time>2019-11-21T14:29:43Z</time>
      </trkpt>
      <trkpt lat="43.18825437" lon="-2.42898753">
        <ele>208.98425</ele>
        <time>2019-11-21T14:29:44Z</time>
      </trkpt>
      <trkpt lat="43.18851938" lon="-2.42909726">
        <ele>207.565</ele>
        <time>2019-11-21T14:29:45Z</time>
      </trkpt>
      <trkpt lat="43.18876475" lon="-2.42922928">
        <ele>205.89673</ele>
        <time>2019-11-21T14:29:46Z</time>
      </trkpt>
      <trkpt lat="43.18901805" lon="-2.42937019">
        <ele>204.85406</ele>
        <time>2019-11-21T14:29:47Z</time>
      </trkpt>
      <trkpt lat="43.18924798" lon="-2.42953502">
        <ele>202.50421</ele>
        <time>2019-11-21T14:29:48Z</time>
      </trkpt>
      <trkpt lat="43.18948084" lon="-2.42970332">
        <ele>201.00885</ele>
        <time>2019-11-21T14:29:49Z</time>
      </trkpt>
      <trkpt lat="43.18972291" lon="-2.42989308">
        <ele>200.54742</ele>
        <time>2019-11-21T14:29:50Z</time>
      </trkpt>
      <trkpt lat="43.18994375" lon="-2.43008437">
        <ele>200.22107</ele>
        <time>2019-11-21T14:29:51Z</time>
      </trkpt>
      <trkpt lat="43.190168" lon="-2.43029972">
        <ele>199.48712</ele>
        <time>2019-11-21T14:29:52Z</time>
      </trkpt>
      <trkpt lat="43.19038722" lon="-2.43051702">
        <ele>199.30066</ele>
        <time>2019-11-21T14:29:53Z</time>
      </trkpt>
      <trkpt lat="43.19058609" lon="-2.43074233">
        <ele>198.19019</ele>
        <time>2019-11-21T14:29:54Z</time>
      </trkpt>
      <trkpt lat="43.19079445" lon="-2.43098879">
        <ele>197.37476</ele>
        <time>2019-11-21T14:29:55Z</time>
      </trkpt>
      <trkpt lat="43.19099258" lon="-2.43125557">
        <ele>195.09467</ele>
        <time>2019-11-21T14:29:56Z</time>
      </trkpt>
      <trkpt lat="43.19116284" lon="-2.43152811">
        <ele>193.90039</ele>
        <time>2019-11-21T14:29:57Z</time>
      </trkpt>
      <trkpt lat="43.19131662" lon="-2.43179162">
        <ele>192.94434</ele>
        <time>2019-11-21T14:29:58Z</time>
      </trkpt>
      <trkpt lat="43.19146994" lon="-2.43206144">
        <ele>190.2945</ele>
        <time>2019-11-21T14:29:59Z</time>
      </trkpt>
      <trkpt lat="43.19162028" lon="-2.43231306">
        <ele>188.93274</ele>
        <time>2019-11-21T14:30:00Z</time>
      </trkpt>
      <trkpt lat="43.19176844" lon="-2.43254679">
        <ele>188.4342</ele>
        <time>2019-11-21T14:30:01Z</time>
      </trkpt>
      <trkpt lat="43.1919195" lon="-2.43277062">
        <ele>186.94257</ele>
        <time>2019-11-21T14:30:02Z</time>
      </trkpt>
      <trkpt lat="43.19207873" lon="-2.43299804">
        <ele>186.81787</ele>
        <time>2019-11-21T14:30:03Z</time>
      </trkpt>
      <trkpt lat="43.19222705" lon="-2.43316823">
        <ele>185.66656</ele>
        <time>2019-11-21T14:30:04Z</time>
      </trkpt>
      <trkpt lat="43.19239225" lon="-2.43334584">
        <ele>187.05762</ele>
        <time>2019-11-21T14:30:06Z</time>
      </trkpt>
      <trkpt lat="43.19256203" lon="-2.43352498">
        <ele>186.37427</ele>
        <time>2019-11-21T14:30:07Z</time>
      </trkpt>
      <trkpt lat="43.19274486" lon="-2.43366184">
        <ele>185.94672</ele>
        <time>2019-11-21T14:30:08Z</time>
      </trkpt>
      <trkpt lat="43.19292184" lon="-2.43381936">
        <ele>185.78162</ele>
        <time>2019-11-21T14:30:09Z</time>
      </trkpt>
      <trkpt lat="43.19309844" lon="-2.43397754">
        <ele>185.6612</ele>
        <time>2019-11-21T14:30:10Z</time>
      </trkpt>
      <trkpt lat="43.19327473640442" lon="-2.4341368675231934">
        <ele>0.0</ele>
        <time>2019-11-21T14:30:11Z</time>
      </trkpt>
      <trkpt lat="43.19422172" lon="-2.43646872">
        <ele>179.75891</ele>
        <time>2019-11-21T14:30:20Z</time>
      </trkpt>
      <trkpt lat="43.19427015" lon="-2.43670163">
        <ele>177.77234</ele>
        <time>2019-11-21T14:30:21Z</time>
      </trkpt>
      <trkpt lat="43.19427002" lon="-2.43697496">
        <ele>176.47577</ele>
        <time>2019-11-21T14:30:22Z</time>
      </trkpt>
      <trkpt lat="43.1942508" lon="-2.43728127">
        <ele>174.10309</ele>
        <time>2019-11-21T14:30:23Z</time>
      </trkpt>
      <trkpt lat="43.19420289" lon="-2.43756244">
        <ele>173.6377</ele>
        <time>2019-11-21T14:30:24Z</time>
      </trkpt>
      <trkpt lat="43.19412915" lon="-2.43782931">
        <ele>174.25891</ele>
        <time>2019-11-21T14:30:25Z</time>
      </trkpt>
      <trkpt lat="43.19406526" lon="-2.43806113">
        <ele>173.23395</ele>
        <time>2019-11-21T14:30:26Z</time>
      </trkpt>
      <trkpt lat="43.19398668" lon="-2.43828391">
        <ele>171.27289</ele>
        <time>2019-11-21T14:30:27Z</time>
      </trkpt>
      <trkpt lat="43.19388406" lon="-2.43852325">
        <ele>170.17163</ele>
        <time>2019-11-21T14:30:28Z</time>
      </trkpt>
      <trkpt lat="43.19377085" lon="-2.43878948">
        <ele>170.79309</ele>
        <time>2019-11-21T14:30:29Z</time>
      </trkpt>
      <trkpt lat="43.19363893" lon="-2.43903877">
        <ele>169.95898</ele>
        <time>2019-11-21T14:30:30Z</time>
      </trkpt>
      <trkpt lat="43.19353341" lon="-2.43921385">
        <ele>167.419</ele>
        <time>2019-11-21T14:30:31Z</time>
      </trkpt>
      <trkpt lat="43.19341675" lon="-2.4394204">
        <ele>178.12012</ele>
        <time>2019-11-21T14:30:32Z</time>
      </trkpt>
      <trkpt lat="43.19329619407654" lon="-2.439635396003723">
        <ele>0.0</ele>
        <time>2019-11-21T14:30:33Z</time>
      </trkpt>
      <trkpt lat="43.19212118" lon="-2.441751">
        <ele>167.37439</ele>
        <time>2019-11-21T14:30:43Z</time>
      </trkpt>
      <trkpt lat="43.19199582" lon="-2.44194465">
        <ele>165.71167</ele>
        <time>2019-11-21T14:30:44Z</time>
      </trkpt>
      <trkpt lat="43.19185565" lon="-2.44219575">
        <ele>165.31378</ele>
        <time>2019-11-21T14:30:45Z</time>
      </trkpt>
      <trkpt lat="43.19171795" lon="-2.44246198">
        <ele>160.81317</ele>
        <time>2019-11-21T14:30:46Z</time>
      </trkpt>
      <trkpt lat="43.19156995" lon="-2.44270089">
        <ele>161.49207</ele>
        <time>2019-11-21T14:30:47Z</time>
      </trkpt>
      <trkpt lat="43.19130794" lon="-2.44325755">
        <ele>159.23755</ele>
        <time>2019-11-21T14:30:48Z</time>
      </trkpt>
      <trkpt lat="43.19120841" lon="-2.44352516">
        <ele>159.1513</ele>
        <time>2019-11-21T14:30:49Z</time>
      </trkpt>
      <trkpt lat="43.19114396" lon="-2.44378134">
        <ele>158.32495</ele>
        <time>2019-11-21T14:30:50Z</time>
      </trkpt>
      <trkpt lat="43.19104833" lon="-2.44405652">
        <ele>157.55371</ele>
        <time>2019-11-21T14:30:51Z</time>
      </trkpt>
      <trkpt lat="43.1909557" lon="-2.44434102">
        <ele>156.8125</ele>
        <time>2019-11-21T14:30:52Z</time>
      </trkpt>
      <trkpt lat="43.19088555" lon="-2.44461596">
        <ele>155.68915</ele>
        <time>2019-11-21T14:30:53Z</time>
      </trkpt>
      <trkpt lat="43.19079376" lon="-2.44490431">
        <ele>156.07196</ele>
        <time>2019-11-21T14:30:54Z</time>
      </trkpt>
      <trkpt lat="43.19070612" lon="-2.44519293">
        <ele>156.25012</ele>
        <time>2019-11-21T14:30:55Z</time>
      </trkpt>
      <trkpt lat="43.19063179" lon="-2.44548127">
        <ele>156.12317</ele>
        <time>2019-11-21T14:30:56Z</time>
      </trkpt>
      <trkpt lat="43.1905617" lon="-2.44575313">
        <ele>158.15271</ele>
        <time>2019-11-21T14:30:57Z</time>
      </trkpt>
      <trkpt lat="43.1905107" lon="-2.44601458">
        <ele>157.81622</ele>
        <time>2019-11-21T14:30:58Z</time>
      </trkpt>
      <trkpt lat="43.19046997" lon="-2.44626584">
        <ele>158.22217</ele>
        <time>2019-11-21T14:30:59Z</time>
      </trkpt>
      <trkpt lat="43.19045055" lon="-2.44650017">
        <ele>158.59137</ele>
        <time>2019-11-21T14:31:00Z</time>
      </trkpt>
      <trkpt lat="43.19043613" lon="-2.44673087">
        <ele>159.50403</ele>
        <time>2019-11-21T14:31:01Z</time>
      </trkpt>
      <trkpt lat="43.19043868" lon="-2.44694341">
        <ele>159.37921</ele>
        <time>2019-11-21T14:31:02Z</time>
      </trkpt>
      <trkpt lat="43.19045377" lon="-2.44715704">
        <ele>159.5636</ele>
        <time>2019-11-21T14:31:03Z</time>
      </trkpt>
      <trkpt lat="43.19046988" lon="-2.44738408">
        <ele>159.95569</ele>
        <time>2019-11-21T14:31:04Z</time>
      </trkpt>
      <trkpt lat="43.19046039" lon="-2.44760839">
        <ele>159.84845</ele>
        <time>2019-11-21T14:31:05Z</time>
      </trkpt>
      <trkpt lat="43.19043318" lon="-2.44780047">
        <ele>160.53027</ele>
        <time>2019-11-21T14:31:06Z</time>
      </trkpt>
      <trkpt lat="43.19040773" lon="-2.44799682">
        <ele>159.03436</ele>
        <time>2019-11-21T14:31:07Z</time>
      </trkpt>
      <trkpt lat="43.1903785" lon="-2.4482107">
        <ele>158.53021</ele>
        <time>2019-11-21T14:31:08Z</time>
      </trkpt>
      <trkpt lat="43.19034109" lon="-2.44842519">
        <ele>157.67084</ele>
        <time>2019-11-21T14:31:09Z</time>
      </trkpt>
      <trkpt lat="43.19030137" lon="-2.44864464">
        <ele>157.57178</ele>
        <time>2019-11-21T14:31:10Z</time>
      </trkpt>
      <trkpt lat="43.19024063" lon="-2.44884092">
        <ele>159.00574</ele>
        <time>2019-11-21T14:31:12Z</time>
      </trkpt>
      <trkpt lat="43.19018021" lon="-2.44902909">
        <ele>158.94312</ele>
        <time>2019-11-21T14:31:13Z</time>
      </trkpt>
      <trkpt lat="43.19011" lon="-2.44922585">
        <ele>158.64087</ele>
        <time>2019-11-21T14:31:14Z</time>
      </trkpt>
      <trkpt lat="43.19002188" lon="-2.44942865">
        <ele>159.54498</ele>
        <time>2019-11-21T14:31:15Z</time>
      </trkpt>
      <trkpt lat="43.1899167" lon="-2.44964139">
        <ele>161.055</ele>
        <time>2019-11-21T14:31:16Z</time>
      </trkpt>
      <trkpt lat="43.18969557" lon="-2.45008003">
        <ele>162.4231</ele>
        <time>2019-11-21T14:31:17Z</time>
      </trkpt>
      <trkpt lat="43.18957809" lon="-2.45031668">
        <ele>162.65295</ele>
        <time>2019-11-21T14:31:18Z</time>
      </trkpt>
      <trkpt lat="43.18946335" lon="-2.45054829">
        <ele>161.8263</ele>
        <time>2019-11-21T14:31:19Z</time>
      </trkpt>
      <trkpt lat="43.18936437" lon="-2.45078413">
        <ele>162.56433</ele>
        <time>2019-11-21T14:31:20Z</time>
      </trkpt>
      <trkpt lat="43.18926653" lon="-2.45103305">
        <ele>162.93536</ele>
        <time>2019-11-21T14:31:21Z</time>
      </trkpt>
      <trkpt lat="43.1891781" lon="-2.45130298">
        <ele>164.23792</ele>
        <time>2019-11-21T14:31:22Z</time>
      </trkpt>
      <trkpt lat="43.18910025" lon="-2.4515862">
        <ele>165.47046</ele>
        <time>2019-11-21T14:31:23Z</time>
      </trkpt>
      <trkpt lat="43.18903524" lon="-2.4518696">
        <ele>166.19086</ele>
        <time>2019-11-21T14:31:24Z</time>
      </trkpt>
      <trkpt lat="43.18898508" lon="-2.45214594">
        <ele>166.37701</ele>
        <time>2019-11-21T14:31:25Z</time>
      </trkpt>
      <trkpt lat="43.1889573" lon="-2.45245075">
        <ele>166.56696</ele>
        <time>2019-11-21T14:31:26Z</time>
      </trkpt>
      <trkpt lat="43.18893232" lon="-2.45276379">
        <ele>168.91638</ele>
        <time>2019-11-21T14:31:27Z</time>
      </trkpt>
      <trkpt lat="43.18892222" lon="-2.45307275">
        <ele>170.08423</ele>
        <time>2019-11-21T14:31:28Z</time>
      </trkpt>
      <trkpt lat="43.18892635" lon="-2.45338527">
        <ele>170.90613</ele>
        <time>2019-11-21T14:31:29Z</time>
      </trkpt>
      <trkpt lat="43.18893582" lon="-2.45369142">
        <ele>171.21881</ele>
        <time>2019-11-21T14:31:30Z</time>
      </trkpt>
      <trkpt lat="43.18895603" lon="-2.45398933">
        <ele>171.35974</ele>
        <time>2019-11-21T14:31:31Z</time>
      </trkpt>
      <trkpt lat="43.18896758" lon="-2.45428114">
        <ele>171.62036</ele>
        <time>2019-11-21T14:31:32Z</time>
      </trkpt>
      <trkpt lat="43.18898207" lon="-2.45457264">
        <ele>172.05188</ele>
        <time>2019-11-21T14:31:33Z</time>
      </trkpt>
      <trkpt lat="43.18898751" lon="-2.45487428">
        <ele>172.7218</ele>
        <time>2019-11-21T14:31:34Z</time>
      </trkpt>
      <trkpt lat="43.18896988" lon="-2.45517689">
        <ele>172.85669</ele>
        <time>2019-11-21T14:31:35Z</time>
      </trkpt>
      <trkpt lat="43.18894872" lon="-2.455489">
        <ele>173.31195</ele>
        <time>2019-11-21T14:31:36Z</time>
      </trkpt>
      <trkpt lat="43.18891491" lon="-2.45580606">
        <ele>174.51526</ele>
        <time>2019-11-21T14:31:37Z</time>
      </trkpt>
      <trkpt lat="43.18887109" lon="-2.45610985">
        <ele>174.52246</ele>
        <time>2019-11-21T14:31:38Z</time>
      </trkpt>
      <trkpt lat="43.18880833" lon="-2.45640891">
        <ele>174.27795</ele>
        <time>2019-11-21T14:31:39Z</time>
      </trkpt>
      <trkpt lat="43.18873219" lon="-2.45670268">
        <ele>175.4494</ele>
        <time>2019-11-21T14:31:40Z</time>
      </trkpt>
      <trkpt lat="43.18864653" lon="-2.45699551">
        <ele>176.7113</ele>
        <time>2019-11-21T14:31:42Z</time>
      </trkpt>
      <trkpt lat="43.18855196" lon="-2.457284">
        <ele>178.31189</ele>
        <time>2019-11-21T14:31:43Z</time>
      </trkpt>
      <trkpt lat="43.18844955" lon="-2.45756487">
        <ele>179.2735</ele>
        <time>2019-11-21T14:31:44Z</time>
      </trkpt>
      <trkpt lat="43.1883424" lon="-2.45783851">
        <ele>180.1607</ele>
        <time>2019-11-21T14:31:45Z</time>
      </trkpt>
      <trkpt lat="43.18822926" lon="-2.45810703">
        <ele>180.96277</ele>
        <time>2019-11-21T14:31:46Z</time>
      </trkpt>
      <trkpt lat="43.18811056" lon="-2.45838001">
        <ele>181.36713</ele>
        <time>2019-11-21T14:31:47Z</time>
      </trkpt>
      <trkpt lat="43.18785108" lon="-2.45890127">
        <ele>181.57544</ele>
        <time>2019-11-21T14:31:48Z</time>
      </trkpt>
      <trkpt lat="43.1877169" lon="-2.45912389">
        <ele>181.43298</ele>
        <time>2019-11-21T14:31:49Z</time>
      </trkpt>
      <trkpt lat="43.18756867" lon="-2.45936011">
        <ele>181.1242</ele>
        <time>2019-11-21T14:31:50Z</time>
      </trkpt>
      <trkpt lat="43.1874188" lon="-2.4595876">
        <ele>180.89398</ele>
        <time>2019-11-21T14:31:51Z</time>
      </trkpt>
      <trkpt lat="43.18726163" lon="-2.45979172">
        <ele>182.07709</ele>
        <time>2019-11-21T14:31:52Z</time>
      </trkpt>
      <trkpt lat="43.18709608" lon="-2.45999652">
        <ele>183.5257</ele>
        <time>2019-11-21T14:31:53Z</time>
      </trkpt>
      <trkpt lat="43.18692683" lon="-2.46019163">
        <ele>184.39258</ele>
        <time>2019-11-21T14:31:54Z</time>
      </trkpt>
      <trkpt lat="43.18675615" lon="-2.4603548">
        <ele>184.66833</ele>
        <time>2019-11-21T14:31:55Z</time>
      </trkpt>
      <trkpt lat="43.18658005" lon="-2.46052831">
        <ele>184.74738</ele>
        <time>2019-11-21T14:31:56Z</time>
      </trkpt>
      <trkpt lat="43.18639984" lon="-2.46069291">
        <ele>185.68872</ele>
        <time>2019-11-21T14:31:57Z</time>
      </trkpt>
      <trkpt lat="43.18621499" lon="-2.46085766">
        <ele>186.01373</ele>
        <time>2019-11-21T14:31:58Z</time>
      </trkpt>
      <trkpt lat="43.18602592" lon="-2.46100894">
        <ele>187.8081</ele>
        <time>2019-11-21T14:31:59Z</time>
      </trkpt>
      <trkpt lat="43.18583477" lon="-2.46116982">
        <ele>188.77087</ele>
        <time>2019-11-21T14:32:00Z</time>
      </trkpt>
      <trkpt lat="43.18564416" lon="-2.46131786">
        <ele>189.67798</ele>
        <time>2019-11-21T14:32:01Z</time>
      </trkpt>
      <trkpt lat="43.18545099" lon="-2.46146845">
        <ele>190.1261</ele>
        <time>2019-11-21T14:32:02Z</time>
      </trkpt>
      <trkpt lat="43.18525993" lon="-2.46163081">
        <ele>190.61475</ele>
        <time>2019-11-21T14:32:03Z</time>
      </trkpt>
      <trkpt lat="43.18507501" lon="-2.4617993">
        <ele>191.0863</ele>
        <time>2019-11-21T14:32:04Z</time>
      </trkpt>
      <trkpt lat="43.18489764" lon="-2.46197806">
        <ele>192.2406</ele>
        <time>2019-11-21T14:32:05Z</time>
      </trkpt>
      <trkpt lat="43.18473617" lon="-2.46217323">
        <ele>192.297</ele>
        <time>2019-11-21T14:32:06Z</time>
      </trkpt>
      <trkpt lat="43.18457372" lon="-2.46238713">
        <ele>193.10364</ele>
        <time>2019-11-21T14:32:07Z</time>
      </trkpt>
      <trkpt lat="43.18442362" lon="-2.46259464">
        <ele>193.29565</ele>
        <time>2019-11-21T14:32:08Z</time>
      </trkpt>
      <trkpt lat="43.184272" lon="-2.46282971">
        <ele>194.34644</ele>
        <time>2019-11-21T14:32:09Z</time>
      </trkpt>
      <trkpt lat="43.18412818" lon="-2.46307334">
        <ele>195.2334</ele>
        <time>2019-11-21T14:32:10Z</time>
      </trkpt>
      <trkpt lat="43.18399097" lon="-2.46333939">
        <ele>196.65723</ele>
        <time>2019-11-21T14:32:11Z</time>
      </trkpt>
      <trkpt lat="43.18387093" lon="-2.4636061">
        <ele>197.81848</ele>
        <time>2019-11-21T14:32:12Z</time>
      </trkpt>
      <trkpt lat="43.18376783" lon="-2.46388309">
        <ele>198.79974</ele>
        <time>2019-11-21T14:32:13Z</time>
      </trkpt>
      <trkpt lat="43.18368146" lon="-2.46416602">
        <ele>199.39941</ele>
        <time>2019-11-21T14:32:14Z</time>
      </trkpt>
      <trkpt lat="43.18360909" lon="-2.46443395">
        <ele>199.36127</ele>
        <time>2019-11-21T14:32:15Z</time>
      </trkpt>
      <trkpt lat="43.18354336" lon="-2.46471872">
        <ele>200.15906</ele>
        <time>2019-11-21T14:32:17Z</time>
      </trkpt>
      <trkpt lat="43.18348476" lon="-2.46500555">
        <ele>200.54852</ele>
        <time>2019-11-21T14:32:18Z</time>
      </trkpt>
      <trkpt lat="43.18342053" lon="-2.46530549">
        <ele>200.8288</ele>
        <time>2019-11-21T14:32:19Z</time>
      </trkpt>
      <trkpt lat="43.18334918" lon="-2.46559806">
        <ele>201.22815</ele>
        <time>2019-11-21T14:32:20Z</time>
      </trkpt>
      <trkpt lat="43.18326412" lon="-2.46590415">
        <ele>203.0951</ele>
        <time>2019-11-21T14:32:21Z</time>
      </trkpt>
      <trkpt lat="43.18317581" lon="-2.46619942">
        <ele>203.61237</ele>
        <time>2019-11-21T14:32:22Z</time>
      </trkpt>
      <trkpt lat="43.18307182" lon="-2.46648562">
        <ele>203.97192</ele>
        <time>2019-11-21T14:32:23Z</time>
      </trkpt>
      <trkpt lat="43.18294644" lon="-2.46675807">
        <ele>204.76965</ele>
        <time>2019-11-21T14:32:24Z</time>
      </trkpt>
      <trkpt lat="43.18265079" lon="-2.46727281">
        <ele>204.33966</ele>
        <time>2019-11-21T14:32:25Z</time>
      </trkpt>
      <trkpt lat="43.18247497" lon="-2.46748518">
        <ele>204.23889</ele>
        <time>2019-11-21T14:32:26Z</time>
      </trkpt>
      <trkpt lat="43.1822902" lon="-2.46770456">
        <ele>188.3183</ele>
        <time>2019-11-21T14:32:27Z</time>
      </trkpt>
      <trkpt lat="43.18209793" lon="-2.46791432">
        <ele>193.67377</ele>
        <time>2019-11-21T14:32:28Z</time>
      </trkpt>
      <trkpt lat="43.1818924" lon="-2.46813017">
        <ele>197.91321</ele>
        <time>2019-11-21T14:32:29Z</time>
      </trkpt>
      <trkpt lat="43.18168439" lon="-2.46832988">
        <ele>202.1037</ele>
        <time>2019-11-21T14:32:30Z</time>
      </trkpt>
      <trkpt lat="43.18147628" lon="-2.46854601">
        <ele>205.97742</ele>
        <time>2019-11-21T14:32:31Z</time>
      </trkpt>
      <trkpt lat="43.18127907" lon="-2.46877523">
        <ele>207.268</ele>
        <time>2019-11-21T14:32:32Z</time>
      </trkpt>
      <trkpt lat="43.18107622" lon="-2.46903861">
        <ele>207.84686</ele>
        <time>2019-11-21T14:32:33Z</time>
      </trkpt>
      <trkpt lat="43.18089516" lon="-2.46933555">
        <ele>203.60931</ele>
        <time>2019-11-21T14:32:34Z</time>
      </trkpt>
      <trkpt lat="43.18072157" lon="-2.46964985">
        <ele>207.53741</ele>
        <time>2019-11-21T14:32:35Z</time>
      </trkpt>
      <trkpt lat="43.18057103" lon="-2.46998103">
        <ele>210.5763</ele>
        <time>2019-11-21T14:32:36Z</time>
      </trkpt>
      <trkpt lat="43.18044017" lon="-2.47032825">
        <ele>211.89441</ele>
        <time>2019-11-21T14:32:37Z</time>
      </trkpt>
      <trkpt lat="43.18033689" lon="-2.47069895">
        <ele>212.47076</ele>
        <time>2019-11-21T14:32:38Z</time>
      </trkpt>
      <trkpt lat="43.18025142" lon="-2.471066">
        <ele>213.46301</ele>
        <time>2019-11-21T14:32:39Z</time>
      </trkpt>
      <trkpt lat="43.18018842" lon="-2.47144097">
        <ele>214.89209</ele>
        <time>2019-11-21T14:32:40Z</time>
      </trkpt>
      <trkpt lat="43.18014837" lon="-2.47181572">
        <ele>213.88531</ele>
        <time>2019-11-21T14:32:41Z</time>
      </trkpt>
      <trkpt lat="43.18012754" lon="-2.4721779">
        <ele>215.79529</ele>
        <time>2019-11-21T14:32:42Z</time>
      </trkpt>
      <trkpt lat="43.18012883" lon="-2.4725479">
        <ele>216.81665</ele>
        <time>2019-11-21T14:32:43Z</time>
      </trkpt>
      <trkpt lat="43.1801451" lon="-2.47291925">
        <ele>217.40955</ele>
        <time>2019-11-21T14:32:44Z</time>
      </trkpt>
      <trkpt lat="43.18018628" lon="-2.47329422">
        <ele>217.85944</ele>
        <time>2019-11-21T14:32:45Z</time>
      </trkpt>
      <trkpt lat="43.18024647" lon="-2.47365907">
        <ele>218.49512</ele>
        <time>2019-11-21T14:32:46Z</time>
      </trkpt>
      <trkpt lat="43.18032788" lon="-2.47402456">
        <ele>218.25897</ele>
        <time>2019-11-21T14:32:47Z</time>
      </trkpt>
      <trkpt lat="43.18042455" lon="-2.47437702">
        <ele>218.40314</ele>
        <time>2019-11-21T14:32:48Z</time>
      </trkpt>
      <trkpt lat="43.18053071" lon="-2.47472481">
        <ele>218.4198</ele>
        <time>2019-11-21T14:32:49Z</time>
      </trkpt>
      <trkpt lat="43.18063599" lon="-2.47508444">
        <ele>218.93805</ele>
        <time>2019-11-21T14:32:51Z</time>
      </trkpt>
      <trkpt lat="43.1807434" lon="-2.47544021">
        <ele>219.41357</ele>
        <time>2019-11-21T14:32:52Z</time>
      </trkpt>
      <trkpt lat="43.18085468" lon="-2.47579771">
        <ele>219.12231</ele>
        <time>2019-11-21T14:32:53Z</time>
      </trkpt>
      <trkpt lat="43.18096388" lon="-2.47616673">
        <ele>218.56506</ele>
        <time>2019-11-21T14:32:54Z</time>
      </trkpt>
      <trkpt lat="43.18106063" lon="-2.47655001">
        <ele>218.1781</ele>
        <time>2019-11-21T14:32:55Z</time>
      </trkpt>
      <trkpt lat="43.18113609" lon="-2.47694015">
        <ele>218.63086</ele>
        <time>2019-11-21T14:32:56Z</time>
      </trkpt>
      <trkpt lat="43.18125766" lon="-2.47772843">
        <ele>216.77246</ele>
        <time>2019-11-21T14:32:57Z</time>
      </trkpt>
      <trkpt lat="43.18129828" lon="-2.47811282">
        <ele>215.12158</ele>
        <time>2019-11-21T14:32:58Z</time>
      </trkpt>
      <trkpt lat="43.18132437" lon="-2.47852037">
        <ele>214.91028</ele>
        <time>2019-11-21T14:32:59Z</time>
      </trkpt>
      <trkpt lat="43.18134345" lon="-2.47891725">
        <ele>213.66168</ele>
        <time>2019-11-21T14:33:00Z</time>
      </trkpt>
      <trkpt lat="43.18133687" lon="-2.479314">
        <ele>213.44922</ele>
        <time>2019-11-21T14:33:01Z</time>
      </trkpt>
      <trkpt lat="43.18131787" lon="-2.47974354">
        <ele>213.29565</ele>
        <time>2019-11-21T14:33:02Z</time>
      </trkpt>
      <trkpt lat="43.18129001" lon="-2.48015441">
        <ele>212.6919</ele>
        <time>2019-11-21T14:33:03Z</time>
      </trkpt>
      <trkpt lat="43.18125336" lon="-2.48056228">
        <ele>211.93262</ele>
        <time>2019-11-21T14:33:04Z</time>
      </trkpt>
      <trkpt lat="43.18119527" lon="-2.48096739">
        <ele>211.44568</ele>
        <time>2019-11-21T14:33:05Z</time>
      </trkpt>
      <trkpt lat="43.18112006" lon="-2.48135939">
        <ele>211.59082</ele>
        <time>2019-11-21T14:33:06Z</time>
      </trkpt>
      <trkpt lat="43.18102521" lon="-2.48173599">
        <ele>208.83923</ele>
        <time>2019-11-21T14:33:07Z</time>
      </trkpt>
      <trkpt lat="43.18090931" lon="-2.48212184">
        <ele>208.21344</ele>
        <time>2019-11-21T14:33:08Z</time>
      </trkpt>
      <trkpt lat="43.18078033" lon="-2.48248794">
        <ele>207.53809</ele>
        <time>2019-11-21T14:33:09Z</time>
      </trkpt>
      <trkpt lat="43.18063632" lon="-2.48284948">
        <ele>207.09723</ele>
        <time>2019-11-21T14:33:10Z</time>
      </trkpt>
      <trkpt lat="43.18047835" lon="-2.48320867">
        <ele>207.24878</ele>
        <time>2019-11-21T14:33:11Z</time>
      </trkpt>
      <trkpt lat="43.18031954" lon="-2.48355672">
        <ele>207.24963</ele>
        <time>2019-11-21T14:33:12Z</time>
      </trkpt>
      <trkpt lat="43.18014355" lon="-2.48387101">
        <ele>205.53302</ele>
        <time>2019-11-21T14:33:13Z</time>
      </trkpt>
      <trkpt lat="43.1799822" lon="-2.48421242">
        <ele>204.90466</ele>
        <time>2019-11-21T14:33:14Z</time>
      </trkpt>
      <trkpt lat="43.17982549" lon="-2.48455555">
        <ele>204.0252</ele>
        <time>2019-11-21T14:33:15Z</time>
      </trkpt>
      <trkpt lat="43.17968335" lon="-2.48491209">
        <ele>204.04797</ele>
        <time>2019-11-21T14:33:16Z</time>
      </trkpt>
      <trkpt lat="43.17955614" lon="-2.48527224">
        <ele>204.55945</ele>
        <time>2019-11-21T14:33:17Z</time>
      </trkpt>
      <trkpt lat="43.17944671" lon="-2.48564446">
        <ele>204.26355</ele>
        <time>2019-11-21T14:33:18Z</time>
      </trkpt>
      <trkpt lat="43.17934933" lon="-2.48601975">
        <ele>204.07544</ele>
        <time>2019-11-21T14:33:19Z</time>
      </trkpt>
      <trkpt lat="43.17926818" lon="-2.48641196">
        <ele>203.95361</ele>
        <time>2019-11-21T14:33:20Z</time>
      </trkpt>
      <trkpt lat="43.17919326" lon="-2.48678676">
        <ele>203.38141</ele>
        <time>2019-11-21T14:33:21Z</time>
      </trkpt>
      <trkpt lat="43.17911774" lon="-2.4871463">
        <ele>202.62805</ele>
        <time>2019-11-21T14:33:23Z</time>
      </trkpt>
      <trkpt lat="43.17902351" lon="-2.48750375">
        <ele>203.31305</ele>
        <time>2019-11-21T14:33:24Z</time>
      </trkpt>
      <trkpt lat="43.17893246" lon="-2.48785853">
        <ele>202.69714</ele>
        <time>2019-11-21T14:33:25Z</time>
      </trkpt>
      <trkpt lat="43.17882748" lon="-2.48822253">
        <ele>205.01434</ele>
        <time>2019-11-21T14:33:26Z</time>
      </trkpt>
      <trkpt lat="43.17871399" lon="-2.48855436">
        <ele>205.36572</ele>
        <time>2019-11-21T14:33:27Z</time>
      </trkpt>
      <trkpt lat="43.1785883" lon="-2.48887002">
        <ele>205.64026</ele>
        <time>2019-11-21T14:33:28Z</time>
      </trkpt>
      <trkpt lat="43.17844683" lon="-2.48915665">
        <ele>204.9447</ele>
        <time>2019-11-21T14:33:29Z</time>
      </trkpt>
      <trkpt lat="43.17814862" lon="-2.48969934">
        <ele>204.73303</ele>
        <time>2019-11-21T14:33:30Z</time>
      </trkpt>
      <trkpt lat="43.17799438" lon="-2.48995797">
        <ele>205.0747</ele>
        <time>2019-11-21T14:33:31Z</time>
      </trkpt>
      <trkpt lat="43.17784165" lon="-2.49021112">
        <ele>205.20612</ele>
        <time>2019-11-21T14:33:32Z</time>
      </trkpt>
      <trkpt lat="43.17769858" lon="-2.49046908">
        <ele>204.74817</ele>
        <time>2019-11-21T14:33:33Z</time>
      </trkpt>
      <trkpt lat="43.17757331" lon="-2.49071546">
        <ele>205.58081</ele>
        <time>2019-11-21T14:33:34Z</time>
      </trkpt>
      <trkpt lat="43.17746049" lon="-2.49097832">
        <ele>205.84973</ele>
        <time>2019-11-21T14:33:35Z</time>
      </trkpt>
      <trkpt lat="43.17735923" lon="-2.49124523">
        <ele>206.01288</ele>
        <time>2019-11-21T14:33:36Z</time>
      </trkpt>
      <trkpt lat="43.17728591" lon="-2.49153456">
        <ele>205.65863</ele>
        <time>2019-11-21T14:33:37Z</time>
      </trkpt>
      <trkpt lat="43.17722557" lon="-2.49182524">
        <ele>205.19751</ele>
        <time>2019-11-21T14:33:38Z</time>
      </trkpt>
      <trkpt lat="43.17718262" lon="-2.49212232">
        <ele>205.36731</ele>
        <time>2019-11-21T14:33:39Z</time>
      </trkpt>
      <trkpt lat="43.17715212" lon="-2.49241593">
        <ele>204.9162</ele>
        <time>2019-11-21T14:33:40Z</time>
      </trkpt>
      <trkpt lat="43.17714129" lon="-2.49271394">
        <ele>205.22974</ele>
        <time>2019-11-21T14:33:41Z</time>
      </trkpt>
      <trkpt lat="43.17715181" lon="-2.49302563">
        <ele>205.81995</ele>
        <time>2019-11-21T14:33:42Z</time>
      </trkpt>
      <trkpt lat="43.17717565" lon="-2.49332685">
        <ele>206.17603</ele>
        <time>2019-11-21T14:33:43Z</time>
      </trkpt>
      <trkpt lat="43.17721819" lon="-2.49362973">
        <ele>206.30023</ele>
        <time>2019-11-21T14:33:44Z</time>
      </trkpt>
      <trkpt lat="43.17727608" lon="-2.49392614">
        <ele>206.67914</ele>
        <time>2019-11-21T14:33:45Z</time>
      </trkpt>
      <trkpt lat="43.17733238" lon="-2.4942159">
        <ele>207.9961</ele>
        <time>2019-11-21T14:33:46Z</time>
      </trkpt>
      <trkpt lat="43.17741266" lon="-2.49451812">
        <ele>207.71167</ele>
        <time>2019-11-21T14:33:47Z</time>
      </trkpt>
      <trkpt lat="43.17748313" lon="-2.4948177">
        <ele>207.91791</ele>
        <time>2019-11-21T14:33:48Z</time>
      </trkpt>
      <trkpt lat="43.17754019" lon="-2.49512005">
        <ele>208.2207</ele>
        <time>2019-11-21T14:33:49Z</time>
      </trkpt>
      <trkpt lat="43.17758596" lon="-2.49542262">
        <ele>208.05457</ele>
        <time>2019-11-21T14:33:50Z</time>
      </trkpt>
      <trkpt lat="43.17761366" lon="-2.49572872">
        <ele>208.21918</ele>
        <time>2019-11-21T14:33:51Z</time>
      </trkpt>
      <trkpt lat="43.17761614" lon="-2.49603436">
        <ele>209.59186</ele>
        <time>2019-11-21T14:33:52Z</time>
      </trkpt>
      <trkpt lat="43.17759832" lon="-2.49633604">
        <ele>208.98853</ele>
        <time>2019-11-21T14:33:53Z</time>
      </trkpt>
      <trkpt lat="43.17755249" lon="-2.49663012">
        <ele>209.0033</ele>
        <time>2019-11-21T14:33:55Z</time>
      </trkpt>
      <trkpt lat="43.17749257" lon="-2.49691445">
        <ele>208.97192</ele>
        <time>2019-11-21T14:33:56Z</time>
      </trkpt>
      <trkpt lat="43.17741501" lon="-2.49719616">
        <ele>208.93628</ele>
        <time>2019-11-21T14:33:57Z</time>
      </trkpt>
      <trkpt lat="43.17732659" lon="-2.49746833">
        <ele>209.2232</ele>
        <time>2019-11-21T14:33:58Z</time>
      </trkpt>
      <trkpt lat="43.17722948" lon="-2.49773589">
        <ele>209.21667</ele>
        <time>2019-11-21T14:33:59Z</time>
      </trkpt>
      <trkpt lat="43.17713406" lon="-2.49799511">
        <ele>209.16028</ele>
        <time>2019-11-21T14:34:00Z</time>
      </trkpt>
      <trkpt lat="43.17703796" lon="-2.49824791">
        <ele>208.22205</ele>
        <time>2019-11-21T14:34:01Z</time>
      </trkpt>
      <trkpt lat="43.17687637" lon="-2.4987935">
        <ele>207.7583</ele>
        <time>2019-11-21T14:34:02Z</time>
      </trkpt>
      <trkpt lat="43.17682322" lon="-2.49907074">
        <ele>207.32343</ele>
        <time>2019-11-21T14:34:03Z</time>
      </trkpt>
      <trkpt lat="43.17678602" lon="-2.49938529">
        <ele>210.38562</ele>
        <time>2019-11-21T14:34:04Z</time>
      </trkpt>
      <trkpt lat="43.1767643" lon="-2.49968117">
        <ele>211.26538</ele>
        <time>2019-11-21T14:34:05Z</time>
      </trkpt>
      <trkpt lat="43.17675666" lon="-2.4999852">
        <ele>211.74615</ele>
        <time>2019-11-21T14:34:06Z</time>
      </trkpt>
      <trkpt lat="43.17676577" lon="-2.50029404">
        <ele>211.94507</ele>
        <time>2019-11-21T14:34:07Z</time>
      </trkpt>
      <trkpt lat="43.1767881" lon="-2.50059486">
        <ele>211.26428</ele>
        <time>2019-11-21T14:34:08Z</time>
      </trkpt>
      <trkpt lat="43.17681296" lon="-2.50089725">
        <ele>212.09467</ele>
        <time>2019-11-21T14:34:09Z</time>
      </trkpt>
      <trkpt lat="43.1768265" lon="-2.50120364">
        <ele>213.14874</ele>
        <time>2019-11-21T14:34:10Z</time>
      </trkpt>
      <trkpt lat="43.17683998" lon="-2.50150288">
        <ele>213.93158</ele>
        <time>2019-11-21T14:34:11Z</time>
      </trkpt>
      <trkpt lat="43.17684445" lon="-2.50180443">
        <ele>214.82043</ele>
        <time>2019-11-21T14:34:12Z</time>
      </trkpt>
      <trkpt lat="43.17682995" lon="-2.50210981">
        <ele>216.02032</ele>
        <time>2019-11-21T14:34:13Z</time>
      </trkpt>
      <trkpt lat="43.17680343" lon="-2.50241325">
        <ele>216.91498</ele>
        <time>2019-11-21T14:34:14Z</time>
      </trkpt>
      <trkpt lat="43.17676028" lon="-2.50270894">
        <ele>217.29883</ele>
        <time>2019-11-21T14:34:15Z</time>
      </trkpt>
      <trkpt lat="43.17670737" lon="-2.50299882">
        <ele>217.1463</ele>
        <time>2019-11-21T14:34:16Z</time>
      </trkpt>
      <trkpt lat="43.17664069" lon="-2.50328811">
        <ele>217.14221</ele>
        <time>2019-11-21T14:34:17Z</time>
      </trkpt>
      <trkpt lat="43.17655595" lon="-2.50356894">
        <ele>215.87079</ele>
        <time>2019-11-21T14:34:18Z</time>
      </trkpt>
      <trkpt lat="43.17644862" lon="-2.50384721">
        <ele>218.06915</ele>
        <time>2019-11-21T14:34:19Z</time>
      </trkpt>
      <trkpt lat="43.17633478" lon="-2.50411755">
        <ele>219.4834</ele>
        <time>2019-11-21T14:34:20Z</time>
      </trkpt>
      <trkpt lat="43.17620362" lon="-2.50438321">
        <ele>220.12274</ele>
        <time>2019-11-21T14:34:21Z</time>
      </trkpt>
      <trkpt lat="43.1760571" lon="-2.50461959">
        <ele>222.0506</ele>
        <time>2019-11-21T14:34:22Z</time>
      </trkpt>
      <trkpt lat="43.17590124" lon="-2.50484555">
        <ele>222.13818</ele>
        <time>2019-11-21T14:34:23Z</time>
      </trkpt>
      <trkpt lat="43.17574285" lon="-2.50506504">
        <ele>222.34338</ele>
        <time>2019-11-21T14:34:24Z</time>
      </trkpt>
      <trkpt lat="43.17558212" lon="-2.50528035">
        <ele>222.24603</ele>
        <time>2019-11-21T14:34:26Z</time>
      </trkpt>
      <trkpt lat="43.1754265" lon="-2.50549843">
        <ele>222.65503</ele>
        <time>2019-11-21T14:34:27Z</time>
      </trkpt>
      <trkpt lat="43.17527354" lon="-2.50571565">
        <ele>222.74988</ele>
        <time>2019-11-21T14:34:28Z</time>
      </trkpt>
      <trkpt lat="43.17512601" lon="-2.50594498">
        <ele>224.40674</ele>
        <time>2019-11-21T14:34:29Z</time>
      </trkpt>
      <trkpt lat="43.1749947" lon="-2.50618376">
        <ele>225.521</ele>
        <time>2019-11-21T14:34:30Z</time>
      </trkpt>
      <trkpt lat="43.17487809" lon="-2.50644114">
        <ele>227.5882</ele>
        <time>2019-11-21T14:34:31Z</time>
      </trkpt>
      <trkpt lat="43.17478089" lon="-2.50670585">
        <ele>229.00989</ele>
        <time>2019-11-21T14:34:32Z</time>
      </trkpt>
      <trkpt lat="43.17462241" lon="-2.50727381">
        <ele>228.48853</ele>
        <time>2019-11-21T14:34:33Z</time>
      </trkpt>
      <trkpt lat="43.1745754" lon="-2.50760083">
        <ele>230.48193</ele>
        <time>2019-11-21T14:34:34Z</time>
      </trkpt>
      <trkpt lat="43.17454386" lon="-2.50791734">
        <ele>231.09613</ele>
        <time>2019-11-21T14:34:35Z</time>
      </trkpt>
      <trkpt lat="43.17453473" lon="-2.50824785">
        <ele>231.51202</ele>
        <time>2019-11-21T14:34:36Z</time>
      </trkpt>
      <trkpt lat="43.17453033" lon="-2.50857795">
        <ele>231.55798</ele>
        <time>2019-11-21T14:34:37Z</time>
      </trkpt>
      <trkpt lat="43.17453944" lon="-2.50891994">
        <ele>232.41138</ele>
        <time>2019-11-21T14:34:38Z</time>
      </trkpt>
      <trkpt lat="43.17455659" lon="-2.50926163">
        <ele>233.065</ele>
        <time>2019-11-21T14:34:39Z</time>
      </trkpt>
      <trkpt lat="43.17459165" lon="-2.50960886">
        <ele>233.53827</ele>
        <time>2019-11-21T14:34:40Z</time>
      </trkpt>
      <trkpt lat="43.17462674" lon="-2.50995706">
        <ele>234.15662</ele>
        <time>2019-11-21T14:34:41Z</time>
      </trkpt>
      <trkpt lat="43.17466824" lon="-2.51029749">
        <ele>234.97784</ele>
        <time>2019-11-21T14:34:42Z</time>
      </trkpt>
      <trkpt lat="43.17471899" lon="-2.5106129">
        <ele>234.88123</ele>
        <time>2019-11-21T14:34:43Z</time>
      </trkpt>
      <trkpt lat="43.17476884" lon="-2.51093149">
        <ele>235.65967</ele>
        <time>2019-11-21T14:34:44Z</time>
      </trkpt>
      <trkpt lat="43.17480643" lon="-2.51125997">
        <ele>236.26099</ele>
        <time>2019-11-21T14:34:45Z</time>
      </trkpt>
      <trkpt lat="43.17484468" lon="-2.51159351">
        <ele>237.26709</ele>
        <time>2019-11-21T14:34:46Z</time>
      </trkpt>
      <trkpt lat="43.1748954" lon="-2.51192773">
        <ele>236.80664</ele>
        <time>2019-11-21T14:34:47Z</time>
      </trkpt>
      <trkpt lat="43.17494218" lon="-2.51228275">
        <ele>238.12683</ele>
        <time>2019-11-21T14:34:48Z</time>
      </trkpt>
      <trkpt lat="43.17498637" lon="-2.51264313">
        <ele>239.59216</ele>
        <time>2019-11-21T14:34:49Z</time>
      </trkpt>
      <trkpt lat="43.17502729" lon="-2.51300766">
        <ele>240.33685</ele>
        <time>2019-11-21T14:34:50Z</time>
      </trkpt>
      <trkpt lat="43.1750684" lon="-2.51337618">
        <ele>241.59125</ele>
        <time>2019-11-21T14:34:51Z</time>
      </trkpt>
      <trkpt lat="43.17510895" lon="-2.51374519">
        <ele>242.36096</ele>
        <time>2019-11-21T14:34:52Z</time>
      </trkpt>
      <trkpt lat="43.17514876" lon="-2.5141194">
        <ele>243.22968</ele>
        <time>2019-11-21T14:34:53Z</time>
      </trkpt>
      <trkpt lat="43.17518823" lon="-2.51449623">
        <ele>243.74432</ele>
        <time>2019-11-21T14:34:54Z</time>
      </trkpt>
      <trkpt lat="43.1752276" lon="-2.51487316">
        <ele>244.48785</ele>
        <time>2019-11-21T14:34:55Z</time>
      </trkpt>
      <trkpt lat="43.17526666" lon="-2.51525272">
        <ele>244.73828</ele>
        <time>2019-11-21T14:34:57Z</time>
      </trkpt>
      <trkpt lat="43.17530404" lon="-2.51562689">
        <ele>245.58789</ele>
        <time>2019-11-21T14:34:58Z</time>
      </trkpt>
      <trkpt lat="43.17533489" lon="-2.51600725">
        <ele>247.1886</ele>
        <time>2019-11-21T14:34:59Z</time>
      </trkpt>
      <trkpt lat="43.17537228" lon="-2.51637703">
        <ele>248.13342</ele>
        <time>2019-11-21T14:35:00Z</time>
      </trkpt>
      <trkpt lat="43.1754116" lon="-2.51674036">
        <ele>250.25323</ele>
        <time>2019-11-21T14:35:01Z</time>
      </trkpt>
      <trkpt lat="43.17544518" lon="-2.51709055">
        <ele>252.63293</ele>
        <time>2019-11-21T14:35:02Z</time>
      </trkpt>
      <trkpt lat="43.17551295" lon="-2.51773219">
        <ele>254.26538</ele>
        <time>2019-11-21T14:35:03Z</time>
      </trkpt>
      <trkpt lat="43.17554769" lon="-2.51803586">
        <ele>256.63416</ele>
        <time>2019-11-21T14:35:04Z</time>
      </trkpt>
      <trkpt lat="43.17559013" lon="-2.51833511">
        <ele>257.32422</ele>
        <time>2019-11-21T14:35:05Z</time>
      </trkpt>
      <trkpt lat="43.17563388" lon="-2.51863603">
        <ele>258.0522</ele>
        <time>2019-11-21T14:35:06Z</time>
      </trkpt>
      <trkpt lat="43.17568403" lon="-2.51893873">
        <ele>258.7827</ele>
        <time>2019-11-21T14:35:07Z</time>
      </trkpt>
      <trkpt lat="43.17573207" lon="-2.51924358">
        <ele>259.95538</ele>
        <time>2019-11-21T14:35:08Z</time>
      </trkpt>
      <trkpt lat="43.17578501" lon="-2.51955393">
        <ele>260.96338</ele>
        <time>2019-11-21T14:35:09Z</time>
      </trkpt>
      <trkpt lat="43.17583934" lon="-2.51987227">
        <ele>261.90076</ele>
        <time>2019-11-21T14:35:10Z</time>
      </trkpt>
      <trkpt lat="43.17588841" lon="-2.52017914">
        <ele>262.53638</ele>
        <time>2019-11-21T14:35:11Z</time>
      </trkpt>
      <trkpt lat="43.17594833" lon="-2.52049325">
        <ele>263.3554</ele>
        <time>2019-11-21T14:35:12Z</time>
      </trkpt>
      <trkpt lat="43.17601059" lon="-2.52080778">
        <ele>264.23615</ele>
        <time>2019-11-21T14:35:13Z</time>
      </trkpt>
      <trkpt lat="43.17607469" lon="-2.52111596">
        <ele>265.2887</ele>
        <time>2019-11-21T14:35:14Z</time>
      </trkpt>
      <trkpt lat="43.17614225" lon="-2.52143389">
        <ele>266.28998</ele>
        <time>2019-11-21T14:35:15Z</time>
      </trkpt>
      <trkpt lat="43.17621388" lon="-2.52175176">
        <ele>267.4718</ele>
        <time>2019-11-21T14:35:16Z</time>
      </trkpt>
      <trkpt lat="43.17629008" lon="-2.5220729">
        <ele>269.58557</ele>
        <time>2019-11-21T14:35:17Z</time>
      </trkpt>
      <trkpt lat="43.17636926" lon="-2.52238128">
        <ele>271.01636</ele>
        <time>2019-11-21T14:35:18Z</time>
      </trkpt>
      <trkpt lat="43.176448" lon="-2.52269459">
        <ele>271.83032</ele>
        <time>2019-11-21T14:35:19Z</time>
      </trkpt>
      <trkpt lat="43.17653597" lon="-2.52299201">
        <ele>271.7403</ele>
        <time>2019-11-21T14:35:20Z</time>
      </trkpt>
      <trkpt lat="43.17662241" lon="-2.52328571">
        <ele>272.0569</ele>
        <time>2019-11-21T14:35:21Z</time>
      </trkpt>
      <trkpt lat="43.17670345" lon="-2.52357825">
        <ele>271.64844</ele>
        <time>2019-11-21T14:35:22Z</time>
      </trkpt>
      <trkpt lat="43.17678852" lon="-2.52389395">
        <ele>272.21338</ele>
        <time>2019-11-21T14:35:23Z</time>
      </trkpt>
      <trkpt lat="43.17687606" lon="-2.52418928">
        <ele>272.37396</ele>
        <time>2019-11-21T14:35:24Z</time>
      </trkpt>
      <trkpt lat="43.17695316" lon="-2.52448999">
        <ele>261.28546</ele>
        <time>2019-11-21T14:35:25Z</time>
      </trkpt>
      <trkpt lat="43.1770185" lon="-2.52480069">
        <ele>265.3648</ele>
        <time>2019-11-21T14:35:27Z</time>
      </trkpt>
      <trkpt lat="43.17707582" lon="-2.52511477">
        <ele>270.95276</ele>
        <time>2019-11-21T14:35:28Z</time>
      </trkpt>
      <trkpt lat="43.17711271" lon="-2.52542685">
        <ele>273.78015</ele>
        <time>2019-11-21T14:35:29Z</time>
      </trkpt>
      <trkpt lat="43.17713828" lon="-2.52574685">
        <ele>275.85547</ele>
        <time>2019-11-21T14:35:30Z</time>
      </trkpt>
      <trkpt lat="43.17714161" lon="-2.52607475">
        <ele>277.47485</ele>
        <time>2019-11-21T14:35:31Z</time>
      </trkpt>
      <trkpt lat="43.17711729" lon="-2.5263981">
        <ele>280.39832</ele>
        <time>2019-11-21T14:35:32Z</time>
      </trkpt>
      <trkpt lat="43.17700073" lon="-2.52701282">
        <ele>280.42615</ele>
        <time>2019-11-21T14:35:33Z</time>
      </trkpt>
      <trkpt lat="43.1769106" lon="-2.52731617">
        <ele>280.58472</ele>
        <time>2019-11-21T14:35:34Z</time>
      </trkpt>
      <trkpt lat="43.17679611" lon="-2.527591">
        <ele>280.71167</ele>
        <time>2019-11-21T14:35:35Z</time>
      </trkpt>
      <trkpt lat="43.17666731" lon="-2.52784865">
        <ele>280.7168</ele>
        <time>2019-11-21T14:35:36Z</time>
      </trkpt>
      <trkpt lat="43.17652431" lon="-2.52809542">
        <ele>280.63733</ele>
        <time>2019-11-21T14:35:37Z</time>
      </trkpt>
      <trkpt lat="43.17638097" lon="-2.52831662">
        <ele>280.95593</ele>
        <time>2019-11-21T14:35:38Z</time>
      </trkpt>
      <trkpt lat="43.17622737" lon="-2.52851956">
        <ele>280.94397</ele>
        <time>2019-11-21T14:35:39Z</time>
      </trkpt>
      <trkpt lat="43.17606861" lon="-2.52871418">
        <ele>280.89856</ele>
        <time>2019-11-21T14:35:40Z</time>
      </trkpt>
      <trkpt lat="43.175910115242004" lon="-2.528904676437378">
        <ele>0.0</ele>
        <time>2019-11-21T14:35:41Z</time>
      </trkpt>
      <trkpt lat="43.17181514" lon="-2.53386289">
        <ele>265.16956</ele>
        <time>2019-11-21T14:36:07Z</time>
      </trkpt>
      <trkpt lat="43.17168115" lon="-2.53414222">
        <ele>267.91504</ele>
        <time>2019-11-21T14:36:08Z</time>
      </trkpt>
      <trkpt lat="43.1715885" lon="-2.53442446">
        <ele>270.7757</ele>
        <time>2019-11-21T14:36:09Z</time>
      </trkpt>
      <trkpt lat="43.1714925" lon="-2.5347116">
        <ele>274.96484</ele>
        <time>2019-11-21T14:36:10Z</time>
      </trkpt>
      <trkpt lat="43.17142163" lon="-2.53500007">
        <ele>278.49176</ele>
        <time>2019-11-21T14:36:11Z</time>
      </trkpt>
      <trkpt lat="43.17137901" lon="-2.5353022">
        <ele>280.40283</ele>
        <time>2019-11-21T14:36:12Z</time>
      </trkpt>
      <trkpt lat="43.17135193" lon="-2.53560079">
        <ele>282.24762</ele>
        <time>2019-11-21T14:36:13Z</time>
      </trkpt>
      <trkpt lat="43.17134585" lon="-2.53591115">
        <ele>282.7826</ele>
        <time>2019-11-21T14:36:14Z</time>
      </trkpt>
      <trkpt lat="43.17135234" lon="-2.53622948">
        <ele>283.8153</ele>
        <time>2019-11-21T14:36:15Z</time>
      </trkpt>
      <trkpt lat="43.17135061" lon="-2.53654326">
        <ele>285.1051</ele>
        <time>2019-11-21T14:36:16Z</time>
      </trkpt>
      <trkpt lat="43.17135742" lon="-2.53686329">
        <ele>286.4026</ele>
        <time>2019-11-21T14:36:17Z</time>
      </trkpt>
      <trkpt lat="43.17135246" lon="-2.53718265">
        <ele>286.59332</ele>
        <time>2019-11-21T14:36:18Z</time>
      </trkpt>
      <trkpt lat="43.17134167" lon="-2.53749144">
        <ele>285.2085</ele>
        <time>2019-11-21T14:36:19Z</time>
      </trkpt>
      <trkpt lat="43.17134431" lon="-2.53779787">
        <ele>282.02118</ele>
        <time>2019-11-21T14:36:20Z</time>
      </trkpt>
      <trkpt lat="43.17131299" lon="-2.53811909">
        <ele>279.6958</ele>
        <time>2019-11-21T14:36:21Z</time>
      </trkpt>
      <trkpt lat="43.17126482" lon="-2.53843411">
        <ele>279.19983</ele>
        <time>2019-11-21T14:36:22Z</time>
      </trkpt>
      <trkpt lat="43.17120675" lon="-2.53875273">
        <ele>279.14136</ele>
        <time>2019-11-21T14:36:23Z</time>
      </trkpt>
      <trkpt lat="43.17114322" lon="-2.5390613">
        <ele>278.8772</ele>
        <time>2019-11-21T14:36:24Z</time>
      </trkpt>
      <trkpt lat="43.17105658" lon="-2.53937594">
        <ele>278.66467</ele>
        <time>2019-11-21T14:36:25Z</time>
      </trkpt>
      <trkpt lat="43.17095497" lon="-2.5396729">
        <ele>277.84937</ele>
        <time>2019-11-21T14:36:26Z</time>
      </trkpt>
      <trkpt lat="43.17085282" lon="-2.53996263">
        <ele>278.2661</ele>
        <time>2019-11-21T14:36:27Z</time>
      </trkpt>
      <trkpt lat="43.17074534" lon="-2.54024515">
        <ele>277.09973</ele>
        <time>2019-11-21T14:36:28Z</time>
      </trkpt>
      <trkpt lat="43.1706222" lon="-2.54051719">
        <ele>275.5592</ele>
        <time>2019-11-21T14:36:29Z</time>
      </trkpt>
      <trkpt lat="43.17049037" lon="-2.54079178">
        <ele>274.50287</ele>
        <time>2019-11-21T14:36:31Z</time>
      </trkpt>
      <trkpt lat="43.17035142" lon="-2.54105663">
        <ele>273.20544</ele>
        <time>2019-11-21T14:36:32Z</time>
      </trkpt>
      <trkpt lat="43.17020846" lon="-2.54131591">
        <ele>272.07245</ele>
        <time>2019-11-21T14:36:33Z</time>
      </trkpt>
      <trkpt lat="43.17005803" lon="-2.54156301">
        <ele>269.286</ele>
        <time>2019-11-21T14:36:34Z</time>
      </trkpt>
      <trkpt lat="43.1699056" lon="-2.54179681">
        <ele>268.09375</ele>
        <time>2019-11-21T14:36:35Z</time>
      </trkpt>
      <trkpt lat="43.16958789" lon="-2.54223854">
        <ele>270.89844</ele>
        <time>2019-11-21T14:36:36Z</time>
      </trkpt>
      <trkpt lat="43.16942429" lon="-2.54245822">
        <ele>270.8225</ele>
        <time>2019-11-21T14:36:37Z</time>
      </trkpt>
      <trkpt lat="43.16925582" lon="-2.54269858">
        <ele>270.1665</ele>
        <time>2019-11-21T14:36:38Z</time>
      </trkpt>
      <trkpt lat="43.169089" lon="-2.54293626">
        <ele>269.71808</ele>
        <time>2019-11-21T14:36:39Z</time>
      </trkpt>
      <trkpt lat="43.16892225" lon="-2.54318671">
        <ele>268.60065</ele>
        <time>2019-11-21T14:36:40Z</time>
      </trkpt>
      <trkpt lat="43.16875493" lon="-2.5434697">
        <ele>267.75427</ele>
        <time>2019-11-21T14:36:41Z</time>
      </trkpt>
      <trkpt lat="43.16859137" lon="-2.54374964">
        <ele>267.5349</ele>
        <time>2019-11-21T14:36:42Z</time>
      </trkpt>
      <trkpt lat="43.1684297" lon="-2.54404128">
        <ele>267.39935</ele>
        <time>2019-11-21T14:36:43Z</time>
      </trkpt>
      <trkpt lat="43.16828129" lon="-2.54435222">
        <ele>266.9657</ele>
        <time>2019-11-21T14:36:44Z</time>
      </trkpt>
      <trkpt lat="43.16815318" lon="-2.54465502">
        <ele>266.4162</ele>
        <time>2019-11-21T14:36:45Z</time>
      </trkpt>
      <trkpt lat="43.16804611" lon="-2.54497074">
        <ele>264.6717</ele>
        <time>2019-11-21T14:36:46Z</time>
      </trkpt>
      <trkpt lat="43.16795337" lon="-2.54529023">
        <ele>263.79187</ele>
        <time>2019-11-21T14:36:47Z</time>
      </trkpt>
      <trkpt lat="43.16787194" lon="-2.54562379">
        <ele>262.79272</ele>
        <time>2019-11-21T14:36:48Z</time>
      </trkpt>
      <trkpt lat="43.16781517" lon="-2.54596321">
        <ele>262.11432</ele>
        <time>2019-11-21T14:36:49Z</time>
      </trkpt>
      <trkpt lat="43.16777276" lon="-2.54631265">
        <ele>262.0542</ele>
        <time>2019-11-21T14:36:50Z</time>
      </trkpt>
      <trkpt lat="43.16774993" lon="-2.54666892">
        <ele>262.14075</ele>
        <time>2019-11-21T14:36:51Z</time>
      </trkpt>
      <trkpt lat="43.16774046" lon="-2.54701912">
        <ele>261.70288</ele>
        <time>2019-11-21T14:36:52Z</time>
      </trkpt>
      <trkpt lat="43.16774679" lon="-2.54737744">
        <ele>260.6601</ele>
        <time>2019-11-21T14:36:53Z</time>
      </trkpt>
      <trkpt lat="43.16776504" lon="-2.54772771">
        <ele>258.84546</ele>
        <time>2019-11-21T14:36:54Z</time>
      </trkpt>
      <trkpt lat="43.16777408" lon="-2.54808045">
        <ele>257.75983</ele>
        <time>2019-11-21T14:36:55Z</time>
      </trkpt>
      <trkpt lat="43.1677813" lon="-2.5484393">
        <ele>257.36475</ele>
        <time>2019-11-21T14:36:56Z</time>
      </trkpt>
      <trkpt lat="43.16777267" lon="-2.54878754">
        <ele>256.66724</ele>
        <time>2019-11-21T14:36:57Z</time>
      </trkpt>
      <trkpt lat="43.16776666" lon="-2.54915801">
        <ele>256.4369</ele>
        <time>2019-11-21T14:36:58Z</time>
      </trkpt>
      <trkpt lat="43.16773533" lon="-2.54950038">
        <ele>255.04492</ele>
        <time>2019-11-21T14:37:00Z</time>
      </trkpt>
      <trkpt lat="43.16770698" lon="-2.54984248">
        <ele>253.78174</ele>
        <time>2019-11-21T14:37:01Z</time>
      </trkpt>
      <trkpt lat="43.16765806" lon="-2.55018652">
        <ele>252.92285</ele>
        <time>2019-11-21T14:37:02Z</time>
      </trkpt>
      <trkpt lat="43.16762075" lon="-2.55052872">
        <ele>249.92548</ele>
        <time>2019-11-21T14:37:03Z</time>
      </trkpt>
      <trkpt lat="43.16756885" lon="-2.5508725">
        <ele>249.01709</ele>
        <time>2019-11-21T14:37:04Z</time>
      </trkpt>
      <trkpt lat="43.16746834" lon="-2.55155461">
        <ele>246.59839</ele>
        <time>2019-11-21T14:37:05Z</time>
      </trkpt>
      <trkpt lat="43.16742916" lon="-2.55190499">
        <ele>246.1731</ele>
        <time>2019-11-21T14:37:06Z</time>
      </trkpt>
      <trkpt lat="43.1674019" lon="-2.55225658">
        <ele>246.23682</ele>
        <time>2019-11-21T14:37:07Z</time>
      </trkpt>
      <trkpt lat="43.1673842" lon="-2.55261286">
        <ele>245.58746</ele>
        <time>2019-11-21T14:37:08Z</time>
      </trkpt>
      <trkpt lat="43.16737442" lon="-2.5529649">
        <ele>244.98169</ele>
        <time>2019-11-21T14:37:09Z</time>
      </trkpt>
      <trkpt lat="43.16737381" lon="-2.5533142">
        <ele>244.03986</ele>
        <time>2019-11-21T14:37:10Z</time>
      </trkpt>
      <trkpt lat="43.16737749" lon="-2.55366712">
        <ele>243.23792</ele>
        <time>2019-11-21T14:37:11Z</time>
      </trkpt>
      <trkpt lat="43.1673893" lon="-2.55401782">
        <ele>242.02979</ele>
        <time>2019-11-21T14:37:12Z</time>
      </trkpt>
      <trkpt lat="43.1674048" lon="-2.55436871">
        <ele>241.06622</ele>
        <time>2019-11-21T14:37:13Z</time>
      </trkpt>
      <trkpt lat="43.16742519" lon="-2.5547162">
        <ele>239.58936</ele>
        <time>2019-11-21T14:37:14Z</time>
      </trkpt>
      <trkpt lat="43.16744358" lon="-2.55507306">
        <ele>242.96753</ele>
        <time>2019-11-21T14:37:15Z</time>
      </trkpt>
      <trkpt lat="43.16745801" lon="-2.55544098">
        <ele>242.3888</ele>
        <time>2019-11-21T14:37:16Z</time>
      </trkpt>
      <trkpt lat="43.16747056" lon="-2.55579857">
        <ele>241.74017</ele>
        <time>2019-11-21T14:37:17Z</time>
      </trkpt>
      <trkpt lat="43.16748163" lon="-2.55615384">
        <ele>240.401</ele>
        <time>2019-11-21T14:37:18Z</time>
      </trkpt>
      <trkpt lat="43.1674841" lon="-2.55650996">
        <ele>238.65173</ele>
        <time>2019-11-21T14:37:19Z</time>
      </trkpt>
      <trkpt lat="43.1674734" lon="-2.55686693">
        <ele>238.00513</ele>
        <time>2019-11-21T14:37:20Z</time>
      </trkpt>
      <trkpt lat="43.16745344" lon="-2.55721781">
        <ele>237.0102</ele>
        <time>2019-11-21T14:37:21Z</time>
      </trkpt>
      <trkpt lat="43.16742413" lon="-2.55757969">
        <ele>237.83289</ele>
        <time>2019-11-21T14:37:22Z</time>
      </trkpt>
      <trkpt lat="43.16739045" lon="-2.55793851">
        <ele>238.41724</ele>
        <time>2019-11-21T14:37:23Z</time>
      </trkpt>
      <trkpt lat="43.16736891" lon="-2.55828561">
        <ele>236.09705</ele>
        <time>2019-11-21T14:37:24Z</time>
      </trkpt>
      <trkpt lat="43.16734382" lon="-2.5586377">
        <ele>235.98364</ele>
        <time>2019-11-21T14:37:25Z</time>
      </trkpt>
      <trkpt lat="43.16731793" lon="-2.55899318">
        <ele>236.39929</ele>
        <time>2019-11-21T14:37:26Z</time>
      </trkpt>
      <trkpt lat="43.1673089" lon="-2.55934223">
        <ele>236.33289</ele>
        <time>2019-11-21T14:37:27Z</time>
      </trkpt>
      <trkpt lat="43.16730509" lon="-2.55969007">
        <ele>235.8772</ele>
        <time>2019-11-21T14:37:28Z</time>
      </trkpt>
      <trkpt lat="43.16730807" lon="-2.56003572">
        <ele>235.14258</ele>
        <time>2019-11-21T14:37:30Z</time>
      </trkpt>
      <trkpt lat="43.16731339" lon="-2.56038635">
        <ele>235.401</ele>
        <time>2019-11-21T14:37:31Z</time>
      </trkpt>
      <trkpt lat="43.1673388" lon="-2.56073238">
        <ele>234.50043</ele>
        <time>2019-11-21T14:37:32Z</time>
      </trkpt>
      <trkpt lat="43.16738891" lon="-2.56106849">
        <ele>230.56146</ele>
        <time>2019-11-21T14:37:33Z</time>
      </trkpt>
      <trkpt lat="43.1674432" lon="-2.56140173">
        <ele>229.232</ele>
        <time>2019-11-21T14:37:34Z</time>
      </trkpt>
      <trkpt lat="43.16750197" lon="-2.56173971">
        <ele>228.01562</ele>
        <time>2019-11-21T14:37:35Z</time>
      </trkpt>
      <trkpt lat="43.16764305" lon="-2.5624114">
        <ele>226.7157</ele>
        <time>2019-11-21T14:37:36Z</time>
      </trkpt>
      <trkpt lat="43.16772579" lon="-2.56273563">
        <ele>226.29492</ele>
        <time>2019-11-21T14:37:37Z</time>
      </trkpt>
      <trkpt lat="43.1678193" lon="-2.56306598">
        <ele>230.9303</ele>
        <time>2019-11-21T14:37:38Z</time>
      </trkpt>
      <trkpt lat="43.16791521" lon="-2.56339793">
        <ele>226.73376</ele>
        <time>2019-11-21T14:37:39Z</time>
      </trkpt>
      <trkpt lat="43.16801233" lon="-2.56372761">
        <ele>225.62738</ele>
        <time>2019-11-21T14:37:40Z</time>
      </trkpt>
      <trkpt lat="43.1681058" lon="-2.56406295">
        <ele>224.50018</ele>
        <time>2019-11-21T14:37:41Z</time>
      </trkpt>
      <trkpt lat="43.16819531" lon="-2.56439595">
        <ele>224.08307</ele>
        <time>2019-11-21T14:37:42Z</time>
      </trkpt>
      <trkpt lat="43.16827754" lon="-2.56473282">
        <ele>223.62994</ele>
        <time>2019-11-21T14:37:43Z</time>
      </trkpt>
      <trkpt lat="43.16834991" lon="-2.56507831">
        <ele>223.19482</ele>
        <time>2019-11-21T14:37:44Z</time>
      </trkpt>
      <trkpt lat="43.16842061" lon="-2.5654175">
        <ele>222.43066</ele>
        <time>2019-11-21T14:37:45Z</time>
      </trkpt>
      <trkpt lat="43.16847334" lon="-2.56576488">
        <ele>222.23877</ele>
        <time>2019-11-21T14:37:46Z</time>
      </trkpt>
      <trkpt lat="43.16851686" lon="-2.56609728">
        <ele>221.29706</ele>
        <time>2019-11-21T14:37:47Z</time>
      </trkpt>
      <trkpt lat="43.16854736" lon="-2.56643012">
        <ele>220.36523</ele>
        <time>2019-11-21T14:37:48Z</time>
      </trkpt>
      <trkpt lat="43.16857798" lon="-2.56675941">
        <ele>219.92126</ele>
        <time>2019-11-21T14:37:49Z</time>
      </trkpt>
      <trkpt lat="43.16859971" lon="-2.5670831">
        <ele>219.37238</ele>
        <time>2019-11-21T14:37:50Z</time>
      </trkpt>
      <trkpt lat="43.16861466" lon="-2.56741202">
        <ele>218.90173</ele>
        <time>2019-11-21T14:37:51Z</time>
      </trkpt>
      <trkpt lat="43.16862338" lon="-2.5677491">
        <ele>218.99762</ele>
        <time>2019-11-21T14:37:52Z</time>
      </trkpt>
      <trkpt lat="43.16862465" lon="-2.56808185">
        <ele>218.41681</ele>
        <time>2019-11-21T14:37:53Z</time>
      </trkpt>
      <trkpt lat="43.16862922" lon="-2.56841691">
        <ele>217.6997</ele>
        <time>2019-11-21T14:37:54Z</time>
      </trkpt>
      <trkpt lat="43.16861742" lon="-2.56875673">
        <ele>217.67712</ele>
        <time>2019-11-21T14:37:55Z</time>
      </trkpt>
      <trkpt lat="43.16859934" lon="-2.56909289">
        <ele>217.1524</ele>
        <time>2019-11-21T14:37:56Z</time>
      </trkpt>
      <trkpt lat="43.16857442" lon="-2.56942885">
        <ele>217.39832</ele>
        <time>2019-11-21T14:37:57Z</time>
      </trkpt>
      <trkpt lat="43.1685402" lon="-2.56976791">
        <ele>217.37506</ele>
        <time>2019-11-21T14:37:58Z</time>
      </trkpt>
      <trkpt lat="43.16850623" lon="-2.57008007">
        <ele>216.77142</ele>
        <time>2019-11-21T14:37:59Z</time>
      </trkpt>
      <trkpt lat="43.16845881" lon="-2.57040789">
        <ele>217.34827</ele>
        <time>2019-11-21T14:38:01Z</time>
      </trkpt>
      <trkpt lat="43.16841063" lon="-2.5707264">
        <ele>217.40979</ele>
        <time>2019-11-21T14:38:02Z</time>
      </trkpt>
      <trkpt lat="43.16835989" lon="-2.57103256">
        <ele>217.45465</ele>
        <time>2019-11-21T14:38:03Z</time>
      </trkpt>
      <trkpt lat="43.16830334" lon="-2.57133614">
        <ele>217.76147</ele>
        <time>2019-11-21T14:38:04Z</time>
      </trkpt>
      <trkpt lat="43.16825013" lon="-2.57162822">
        <ele>217.51227</ele>
        <time>2019-11-21T14:38:05Z</time>
      </trkpt>
      <trkpt lat="43.16819621" lon="-2.57191409">
        <ele>217.17719</ele>
        <time>2019-11-21T14:38:06Z</time>
      </trkpt>
      <trkpt lat="43.16808656" lon="-2.5724619">
        <ele>217.30676</ele>
        <time>2019-11-21T14:38:07Z</time>
      </trkpt>
      <trkpt lat="43.16802935" lon="-2.57272066">
        <ele>217.84637</ele>
        <time>2019-11-21T14:38:08Z</time>
      </trkpt>
      <trkpt lat="43.1679764" lon="-2.57298257">
        <ele>218.67938</ele>
        <time>2019-11-21T14:38:09Z</time>
      </trkpt>
      <trkpt lat="43.16792905" lon="-2.57323247">
        <ele>218.80463</ele>
        <time>2019-11-21T14:38:10Z</time>
      </trkpt>
      <trkpt lat="43.16788621" lon="-2.57349338">
        <ele>218.82697</ele>
        <time>2019-11-21T14:38:11Z</time>
      </trkpt>
      <trkpt lat="43.16784015" lon="-2.57374445">
        <ele>219.06189</ele>
        <time>2019-11-21T14:38:12Z</time>
      </trkpt>
      <trkpt lat="43.1677972" lon="-2.57401469">
        <ele>219.49725</ele>
        <time>2019-11-21T14:38:13Z</time>
      </trkpt>
      <trkpt lat="43.16775373" lon="-2.57428874">
        <ele>220.83972</ele>
        <time>2019-11-21T14:38:14Z</time>
      </trkpt>
      <trkpt lat="43.16772495" lon="-2.57455106">
        <ele>219.03625</ele>
        <time>2019-11-21T14:38:15Z</time>
      </trkpt>
      <trkpt lat="43.16769598" lon="-2.57482736">
        <ele>218.19525</ele>
        <time>2019-11-21T14:38:16Z</time>
      </trkpt>
      <trkpt lat="43.167667" lon="-2.57511998">
        <ele>219.86078</ele>
        <time>2019-11-21T14:38:17Z</time>
      </trkpt>
      <trkpt lat="43.16764979" lon="-2.57541751">
        <ele>220.12604</ele>
        <time>2019-11-21T14:38:18Z</time>
      </trkpt>
      <trkpt lat="43.16764503" lon="-2.57572457">
        <ele>220.57178</ele>
        <time>2019-11-21T14:38:19Z</time>
      </trkpt>
      <trkpt lat="43.16764976" lon="-2.57603784">
        <ele>220.92896</ele>
        <time>2019-11-21T14:38:20Z</time>
      </trkpt>
      <trkpt lat="43.16764377" lon="-2.57636265">
        <ele>221.44678</ele>
        <time>2019-11-21T14:38:21Z</time>
      </trkpt>
      <trkpt lat="43.167665" lon="-2.57669804">
        <ele>221.83942</ele>
        <time>2019-11-21T14:38:22Z</time>
      </trkpt>
      <trkpt lat="43.16768143" lon="-2.57704337">
        <ele>221.85583</ele>
        <time>2019-11-21T14:38:23Z</time>
      </trkpt>
      <trkpt lat="43.16771034" lon="-2.57738605">
        <ele>221.63342</ele>
        <time>2019-11-21T14:38:24Z</time>
      </trkpt>
      <trkpt lat="43.16774945" lon="-2.5777177">
        <ele>221.06305</ele>
        <time>2019-11-21T14:38:25Z</time>
      </trkpt>
      <trkpt lat="43.16779136" lon="-2.5780452">
        <ele>220.92603</ele>
        <time>2019-11-21T14:38:26Z</time>
      </trkpt>
      <trkpt lat="43.16784173" lon="-2.57839329">
        <ele>222.65308</ele>
        <time>2019-11-21T14:38:27Z</time>
      </trkpt>
      <trkpt lat="43.16790408" lon="-2.5787339">
        <ele>221.2749</ele>
        <time>2019-11-21T14:38:28Z</time>
      </trkpt>
      <trkpt lat="43.16797761" lon="-2.57906572">
        <ele>220.5611</ele>
        <time>2019-11-21T14:38:30Z</time>
      </trkpt>
      <trkpt lat="43.16805582" lon="-2.57940335">
        <ele>219.66187</ele>
        <time>2019-11-21T14:38:31Z</time>
      </trkpt>
      <trkpt lat="43.16813315" lon="-2.57974556">
        <ele>218.31018</ele>
        <time>2019-11-21T14:38:32Z</time>
      </trkpt>
      <trkpt lat="43.16822495" lon="-2.58008815">
        <ele>216.43689</ele>
        <time>2019-11-21T14:38:33Z</time>
      </trkpt>
      <trkpt lat="43.16831423" lon="-2.58043344">
        <ele>215.45648</ele>
        <time>2019-11-21T14:38:34Z</time>
      </trkpt>
      <trkpt lat="43.16840479" lon="-2.58079063">
        <ele>215.48718</ele>
        <time>2019-11-21T14:38:35Z</time>
      </trkpt>
      <trkpt lat="43.16849868" lon="-2.58114427">
        <ele>215.00256</ele>
        <time>2019-11-21T14:38:36Z</time>
      </trkpt>
      <trkpt lat="43.16868702" lon="-2.58185918">
        <ele>213.16425</ele>
        <time>2019-11-21T14:38:37Z</time>
      </trkpt>
      <trkpt lat="43.16878119" lon="-2.58222189">
        <ele>212.76172</ele>
        <time>2019-11-21T14:38:38Z</time>
      </trkpt>
      <trkpt lat="43.1688839" lon="-2.58258227">
        <ele>211.37866</ele>
        <time>2019-11-21T14:38:39Z</time>
      </trkpt>
      <trkpt lat="43.16897709" lon="-2.58295821">
        <ele>210.77612</ele>
        <time>2019-11-21T14:38:40Z</time>
      </trkpt>
      <trkpt lat="43.16905706" lon="-2.5833363">
        <ele>210.30103</ele>
        <time>2019-11-21T14:38:41Z</time>
      </trkpt>
      <trkpt lat="43.16913094" lon="-2.583716">
        <ele>209.68262</ele>
        <time>2019-11-21T14:38:42Z</time>
      </trkpt>
      <trkpt lat="43.16919657" lon="-2.58409493">
        <ele>208.45184</ele>
        <time>2019-11-21T14:38:43Z</time>
      </trkpt>
      <trkpt lat="43.16925521" lon="-2.58447122">
        <ele>207.88745</ele>
        <time>2019-11-21T14:38:44Z</time>
      </trkpt>
      <trkpt lat="43.16929415" lon="-2.5848764">
        <ele>207.50836</ele>
        <time>2019-11-21T14:38:45Z</time>
      </trkpt>
      <trkpt lat="43.16931849" lon="-2.58526446">
        <ele>207.3136</ele>
        <time>2019-11-21T14:38:46Z</time>
      </trkpt>
      <trkpt lat="43.16933342" lon="-2.58566847">
        <ele>208.15076</ele>
        <time>2019-11-21T14:38:47Z</time>
      </trkpt>
      <trkpt lat="43.16933181" lon="-2.58607551">
        <ele>209.03302</ele>
        <time>2019-11-21T14:38:48Z</time>
      </trkpt>
      <trkpt lat="43.16931935" lon="-2.58647345">
        <ele>209.62762</ele>
        <time>2019-11-21T14:38:49Z</time>
      </trkpt>
      <trkpt lat="43.16930111" lon="-2.58687154">
        <ele>209.39185</ele>
        <time>2019-11-21T14:38:50Z</time>
      </trkpt>
      <trkpt lat="43.16927407" lon="-2.58726212">
        <ele>209.03699</ele>
        <time>2019-11-21T14:38:51Z</time>
      </trkpt>
      <trkpt lat="43.1692372" lon="-2.58765433">
        <ele>208.38806</ele>
        <time>2019-11-21T14:38:52Z</time>
      </trkpt>
      <trkpt lat="43.16919067" lon="-2.58804403">
        <ele>206.8559</ele>
        <time>2019-11-21T14:38:53Z</time>
      </trkpt>
      <trkpt lat="43.16913282" lon="-2.58843725">
        <ele>205.70569</ele>
        <time>2019-11-21T14:38:54Z</time>
      </trkpt>
      <trkpt lat="43.1690723" lon="-2.58881657">
        <ele>205.62665</ele>
        <time>2019-11-21T14:38:55Z</time>
      </trkpt>
      <trkpt lat="43.16900188" lon="-2.58919505">
        <ele>205.35718</ele>
        <time>2019-11-21T14:38:56Z</time>
      </trkpt>
      <trkpt lat="43.16893037" lon="-2.58956119">
        <ele>204.12671</ele>
        <time>2019-11-21T14:38:57Z</time>
      </trkpt>
      <trkpt lat="43.16885161" lon="-2.58992478">
        <ele>203.25787</ele>
        <time>2019-11-21T14:38:58Z</time>
      </trkpt>
      <trkpt lat="43.16876589" lon="-2.59030949">
        <ele>202.51544</ele>
        <time>2019-11-21T14:39:00Z</time>
      </trkpt>
      <trkpt lat="43.16867751" lon="-2.59069725">
        <ele>202.12024</ele>
        <time>2019-11-21T14:39:01Z</time>
      </trkpt>
      <trkpt lat="43.16858752" lon="-2.59108615">
        <ele>206.17566</ele>
        <time>2019-11-21T14:39:02Z</time>
      </trkpt>
      <trkpt lat="43.16849585" lon="-2.5914737">
        <ele>203.5119</ele>
        <time>2019-11-21T14:39:03Z</time>
      </trkpt>
      <trkpt lat="43.16841491" lon="-2.5918593">
        <ele>201.46295</ele>
        <time>2019-11-21T14:39:04Z</time>
      </trkpt>
      <trkpt lat="43.16833362" lon="-2.59224589">
        <ele>199.85565</ele>
        <time>2019-11-21T14:39:05Z</time>
      </trkpt>
      <trkpt lat="43.16819365" lon="-2.59303029">
        <ele>197.1626</ele>
        <time>2019-11-21T14:39:06Z</time>
      </trkpt>
      <trkpt lat="43.16813175" lon="-2.5934215">
        <ele>194.79199</ele>
        <time>2019-11-21T14:39:07Z</time>
      </trkpt>
      <trkpt lat="43.16807336" lon="-2.59381014">
        <ele>201.05725</ele>
        <time>2019-11-21T14:39:08Z</time>
      </trkpt>
      <trkpt lat="43.1680222" lon="-2.59420771">
        <ele>196.90448</ele>
        <time>2019-11-21T14:39:09Z</time>
      </trkpt>
      <trkpt lat="43.16797612" lon="-2.59461622">
        <ele>193.82465</ele>
        <time>2019-11-21T14:39:10Z</time>
      </trkpt>
      <trkpt lat="43.16793484" lon="-2.59502885">
        <ele>191.34827</ele>
        <time>2019-11-21T14:39:11Z</time>
      </trkpt>
      <trkpt lat="43.16789949" lon="-2.59544128">
        <ele>189.37189</ele>
        <time>2019-11-21T14:39:12Z</time>
      </trkpt>
      <trkpt lat="43.16787646" lon="-2.5958644">
        <ele>188.30872</ele>
        <time>2019-11-21T14:39:13Z</time>
      </trkpt>
      <trkpt lat="43.16785919" lon="-2.59629676">
        <ele>186.96918</ele>
        <time>2019-11-21T14:39:14Z</time>
      </trkpt>
      <trkpt lat="43.16784302" lon="-2.59674237">
        <ele>186.41437</ele>
        <time>2019-11-21T14:39:15Z</time>
      </trkpt>
      <trkpt lat="43.16784094" lon="-2.59717303">
        <ele>185.21802</ele>
        <time>2019-11-21T14:39:16Z</time>
      </trkpt>
      <trkpt lat="43.16784218" lon="-2.59761176">
        <ele>184.21277</ele>
        <time>2019-11-21T14:39:17Z</time>
      </trkpt>
      <trkpt lat="43.16786016" lon="-2.59803438">
        <ele>183.9126</ele>
        <time>2019-11-21T14:39:18Z</time>
      </trkpt>
      <trkpt lat="43.16788052" lon="-2.59844576">
        <ele>190.58917</ele>
        <time>2019-11-21T14:39:19Z</time>
      </trkpt>
      <trkpt lat="43.16791061" lon="-2.59886447">
        <ele>187.8728</ele>
        <time>2019-11-21T14:39:20Z</time>
      </trkpt>
      <trkpt lat="43.16794785" lon="-2.59927036">
        <ele>186.31421</ele>
        <time>2019-11-21T14:39:21Z</time>
      </trkpt>
      <trkpt lat="43.16798849" lon="-2.59967622">
        <ele>185.27075</ele>
        <time>2019-11-21T14:39:22Z</time>
      </trkpt>
      <trkpt lat="43.16802836" lon="-2.60007612">
        <ele>181.91223</ele>
        <time>2019-11-21T14:39:23Z</time>
      </trkpt>
      <trkpt lat="43.16807486" lon="-2.60046904">
        <ele>182.00354</ele>
        <time>2019-11-21T14:39:24Z</time>
      </trkpt>
      <trkpt lat="43.16812992" lon="-2.60086067">
        <ele>182.31494</ele>
        <time>2019-11-21T14:39:25Z</time>
      </trkpt>
      <trkpt lat="43.16819939" lon="-2.60125886">
        <ele>182.35004</ele>
        <time>2019-11-21T14:39:26Z</time>
      </trkpt>
      <trkpt lat="43.16826819" lon="-2.60165256">
        <ele>182.64856</ele>
        <time>2019-11-21T14:39:27Z</time>
      </trkpt>
      <trkpt lat="43.16834655" lon="-2.60203797">
        <ele>182.93817</ele>
        <time>2019-11-21T14:39:28Z</time>
      </trkpt>
      <trkpt lat="43.16843179" lon="-2.60241978">
        <ele>182.94733</ele>
        <time>2019-11-21T14:39:29Z</time>
      </trkpt>
      <trkpt lat="43.16851837" lon="-2.60279857">
        <ele>183.6278</ele>
        <time>2019-11-21T14:39:31Z</time>
      </trkpt>
      <trkpt lat="43.16861155" lon="-2.6031678">
        <ele>184.12756</ele>
        <time>2019-11-21T14:39:32Z</time>
      </trkpt>
      <trkpt lat="43.16870317" lon="-2.60354381">
        <ele>184.8706</ele>
        <time>2019-11-21T14:39:33Z</time>
      </trkpt>
      <trkpt lat="43.16881092" lon="-2.60390704">
        <ele>185.47119</ele>
        <time>2019-11-21T14:39:34Z</time>
      </trkpt>
      <trkpt lat="43.16891733" lon="-2.60427814">
        <ele>186.27032</ele>
        <time>2019-11-21T14:39:35Z</time>
      </trkpt>
      <trkpt lat="43.16903314" lon="-2.60464404">
        <ele>186.4043</ele>
        <time>2019-11-21T14:39:36Z</time>
      </trkpt>
      <trkpt lat="43.16929049" lon="-2.60535308">
        <ele>187.84314</ele>
        <time>2019-11-21T14:39:37Z</time>
      </trkpt>
      <trkpt lat="43.16943157" lon="-2.60570493">
        <ele>187.94666</ele>
        <time>2019-11-21T14:39:38Z</time>
      </trkpt>
      <trkpt lat="43.1695786" lon="-2.60605736">
        <ele>187.0404</ele>
        <time>2019-11-21T14:39:39Z</time>
      </trkpt>
      <trkpt lat="43.16972318" lon="-2.6063831">
        <ele>186.77551</ele>
        <time>2019-11-21T14:39:40Z</time>
      </trkpt>
      <trkpt lat="43.16986658" lon="-2.60670417">
        <ele>188.89832</ele>
        <time>2019-11-21T14:39:41Z</time>
      </trkpt>
      <trkpt lat="43.17004387" lon="-2.60701715">
        <ele>189.66577</ele>
        <time>2019-11-21T14:39:42Z</time>
      </trkpt>
      <trkpt lat="43.17022491" lon="-2.60731698">
        <ele>189.65735</ele>
        <time>2019-11-21T14:39:43Z</time>
      </trkpt>
      <trkpt lat="43.17040231" lon="-2.60761074">
        <ele>190.09497</ele>
        <time>2019-11-21T14:39:44Z</time>
      </trkpt>
      <trkpt lat="43.17059173" lon="-2.60788856">
        <ele>190.3335</ele>
        <time>2019-11-21T14:39:45Z</time>
      </trkpt>
      <trkpt lat="43.17078459" lon="-2.60816842">
        <ele>189.78064</ele>
        <time>2019-11-21T14:39:46Z</time>
      </trkpt>
      <trkpt lat="43.17096206" lon="-2.60844998">
        <ele>189.49658</ele>
        <time>2019-11-21T14:39:47Z</time>
      </trkpt>
      <trkpt lat="43.17115039" lon="-2.60872615">
        <ele>188.56134</ele>
        <time>2019-11-21T14:39:48Z</time>
      </trkpt>
      <trkpt lat="43.17132519" lon="-2.6090272">
        <ele>186.77869</ele>
        <time>2019-11-21T14:39:49Z</time>
      </trkpt>
      <trkpt lat="43.17150501" lon="-2.60932406">
        <ele>186.62372</ele>
        <time>2019-11-21T14:39:50Z</time>
      </trkpt>
      <trkpt lat="43.17168617" lon="-2.60962512">
        <ele>185.32056</ele>
        <time>2019-11-21T14:39:51Z</time>
      </trkpt>
      <trkpt lat="43.17186127" lon="-2.6099354">
        <ele>184.74286</ele>
        <time>2019-11-21T14:39:52Z</time>
      </trkpt>
      <trkpt lat="43.17204076" lon="-2.61024947">
        <ele>184.0343</ele>
        <time>2019-11-21T14:39:53Z</time>
      </trkpt>
      <trkpt lat="43.17221274" lon="-2.61056734">
        <ele>182.52435</ele>
        <time>2019-11-21T14:39:54Z</time>
      </trkpt>
      <trkpt lat="43.17235811" lon="-2.6108989">
        <ele>182.48242</ele>
        <time>2019-11-21T14:39:55Z</time>
      </trkpt>
      <trkpt lat="43.17250648" lon="-2.61123962">
        <ele>182.85828</ele>
        <time>2019-11-21T14:39:56Z</time>
      </trkpt>
      <trkpt lat="43.1726364" lon="-2.61157284">
        <ele>183.79443</ele>
        <time>2019-11-21T14:39:57Z</time>
      </trkpt>
      <trkpt lat="43.17275698" lon="-2.61190949">
        <ele>184.04364</ele>
        <time>2019-11-21T14:39:58Z</time>
      </trkpt>
      <trkpt lat="43.17286752" lon="-2.61224881">
        <ele>184.13385</ele>
        <time>2019-11-21T14:39:59Z</time>
      </trkpt>
      <trkpt lat="43.17297524" lon="-2.61258454">
        <ele>184.28522</ele>
        <time>2019-11-21T14:40:00Z</time>
      </trkpt>
      <trkpt lat="43.17307368" lon="-2.6129156">
        <ele>184.80573</ele>
        <time>2019-11-21T14:40:01Z</time>
      </trkpt>
      <trkpt lat="43.17317105" lon="-2.61325841">
        <ele>185.17511</ele>
        <time>2019-11-21T14:40:03Z</time>
      </trkpt>
      <trkpt lat="43.17327709" lon="-2.6136202">
        <ele>185.33197</ele>
        <time>2019-11-21T14:40:04Z</time>
      </trkpt>
      <trkpt lat="43.17338104" lon="-2.61395816">
        <ele>185.44647</ele>
        <time>2019-11-21T14:40:05Z</time>
      </trkpt>
      <trkpt lat="43.17349078" lon="-2.61428566">
        <ele>185.61078</ele>
        <time>2019-11-21T14:40:06Z</time>
      </trkpt>
      <trkpt lat="43.17361438" lon="-2.61459374">
        <ele>186.78918</ele>
        <time>2019-11-21T14:40:07Z</time>
      </trkpt>
      <trkpt lat="43.17390835" lon="-2.61526891">
        <ele>188.68372</ele>
        <time>2019-11-21T14:40:08Z</time>
      </trkpt>
      <trkpt lat="43.17406611" lon="-2.61556615">
        <ele>186.95941</ele>
        <time>2019-11-21T14:40:09Z</time>
      </trkpt>
      <trkpt lat="43.17422885" lon="-2.61586793">
        <ele>187.26544</ele>
        <time>2019-11-21T14:40:10Z</time>
      </trkpt>
      <trkpt lat="43.17440893" lon="-2.61616584">
        <ele>187.83215</ele>
        <time>2019-11-21T14:40:11Z</time>
      </trkpt>
      <trkpt lat="43.17460606" lon="-2.6164765">
        <ele>189.51044</ele>
        <time>2019-11-21T14:40:12Z</time>
      </trkpt>
      <trkpt lat="43.17480615" lon="-2.61678469">
        <ele>189.68945</ele>
        <time>2019-11-21T14:40:13Z</time>
      </trkpt>
      <trkpt lat="43.1750047" lon="-2.61708807">
        <ele>195.9668</ele>
        <time>2019-11-21T14:40:14Z</time>
      </trkpt>
      <trkpt lat="43.17519872" lon="-2.61740746">
        <ele>193.63165</ele>
        <time>2019-11-21T14:40:15Z</time>
      </trkpt>
      <trkpt lat="43.1753932" lon="-2.61771733">
        <ele>192.30896</ele>
        <time>2019-11-21T14:40:16Z</time>
      </trkpt>
      <trkpt lat="43.17558621" lon="-2.61804477">
        <ele>192.18713</ele>
        <time>2019-11-21T14:40:17Z</time>
      </trkpt>
      <trkpt lat="43.17577894" lon="-2.61836296">
        <ele>192.17963</ele>
        <time>2019-11-21T14:40:18Z</time>
      </trkpt>
      <trkpt lat="43.17595727" lon="-2.61869707">
        <ele>192.82196</ele>
        <time>2019-11-21T14:40:19Z</time>
      </trkpt>
      <trkpt lat="43.17613284" lon="-2.61903317">
        <ele>192.9198</ele>
        <time>2019-11-21T14:40:20Z</time>
      </trkpt>
      <trkpt lat="43.17631982" lon="-2.61935844">
        <ele>191.85645</ele>
        <time>2019-11-21T14:40:21Z</time>
      </trkpt>
      <trkpt lat="43.17649593" lon="-2.61969713">
        <ele>191.57349</ele>
        <time>2019-11-21T14:40:22Z</time>
      </trkpt>
      <trkpt lat="43.17667373" lon="-2.62002597">
        <ele>190.08533</ele>
        <time>2019-11-21T14:40:23Z</time>
      </trkpt>
      <trkpt lat="43.17686552" lon="-2.62038687">
        <ele>189.71832</ele>
        <time>2019-11-21T14:40:24Z</time>
      </trkpt>
      <trkpt lat="43.17703265" lon="-2.6207518">
        <ele>188.75366</ele>
        <time>2019-11-21T14:40:25Z</time>
      </trkpt>
      <trkpt lat="43.17719439" lon="-2.62111556">
        <ele>188.30676</ele>
        <time>2019-11-21T14:40:26Z</time>
      </trkpt>
      <trkpt lat="43.17736905" lon="-2.62148598">
        <ele>187.09839</ele>
        <time>2019-11-21T14:40:27Z</time>
      </trkpt>
      <trkpt lat="43.17754294" lon="-2.62187184">
        <ele>186.58429</ele>
        <time>2019-11-21T14:40:28Z</time>
      </trkpt>
      <trkpt lat="43.17770732" lon="-2.6222329">
        <ele>185.22131</ele>
        <time>2019-11-21T14:40:29Z</time>
      </trkpt>
      <trkpt lat="43.17783418" lon="-2.62258929">
        <ele>185.42291</ele>
        <time>2019-11-21T14:40:31Z</time>
      </trkpt>
      <trkpt lat="43.17797935" lon="-2.62298442">
        <ele>185.32153</ele>
        <time>2019-11-21T14:40:32Z</time>
      </trkpt>
      <trkpt lat="43.17811805" lon="-2.62337506">
        <ele>185.26404</ele>
        <time>2019-11-21T14:40:33Z</time>
      </trkpt>
      <trkpt lat="43.178243" lon="-2.62369425">
        <ele>182.83575</ele>
        <time>2019-11-21T14:40:34Z</time>
      </trkpt>
      <trkpt lat="43.1783533" lon="-2.62406367">
        <ele>183.01593</ele>
        <time>2019-11-21T14:40:35Z</time>
      </trkpt>
      <trkpt lat="43.17846145" lon="-2.62444075">
        <ele>181.22028</ele>
        <time>2019-11-21T14:40:36Z</time>
      </trkpt>
      <trkpt lat="43.17864866" lon="-2.62522863">
        <ele>179.56519</ele>
        <time>2019-11-21T14:40:37Z</time>
      </trkpt>
      <trkpt lat="43.17872968" lon="-2.62562206">
        <ele>178.66138</ele>
        <time>2019-11-21T14:40:38Z</time>
      </trkpt>
      <trkpt lat="43.17877366" lon="-2.62601203">
        <ele>177.94946</ele>
        <time>2019-11-21T14:40:39Z</time>
      </trkpt>
      <trkpt lat="43.17881877" lon="-2.62640461">
        <ele>176.5409</ele>
        <time>2019-11-21T14:40:40Z</time>
      </trkpt>
      <trkpt lat="43.17885376" lon="-2.62680901">
        <ele>176.00116</ele>
        <time>2019-11-21T14:40:41Z</time>
      </trkpt>
      <trkpt lat="43.17889012" lon="-2.62721474">
        <ele>173.53253</ele>
        <time>2019-11-21T14:40:42Z</time>
      </trkpt>
      <trkpt lat="43.17891976" lon="-2.62761136">
        <ele>173.27527</ele>
        <time>2019-11-21T14:40:43Z</time>
      </trkpt>
      <trkpt lat="43.17894612" lon="-2.62802666">
        <ele>170.94983</ele>
        <time>2019-11-21T14:40:44Z</time>
      </trkpt>
      <trkpt lat="43.17897434" lon="-2.62844185">
        <ele>169.96869</ele>
        <time>2019-11-21T14:40:45Z</time>
      </trkpt>
      <trkpt lat="43.17899514" lon="-2.62884638">
        <ele>169.13843</ele>
        <time>2019-11-21T14:40:46Z</time>
      </trkpt>
      <trkpt lat="43.17901815" lon="-2.62926147">
        <ele>168.32788</ele>
        <time>2019-11-21T14:40:47Z</time>
      </trkpt>
      <trkpt lat="43.17903202" lon="-2.62967005">
        <ele>167.2406</ele>
        <time>2019-11-21T14:40:48Z</time>
      </trkpt>
      <trkpt lat="43.17905234" lon="-2.63007795">
        <ele>167.09235</ele>
        <time>2019-11-21T14:40:49Z</time>
      </trkpt>
      <trkpt lat="43.17905919" lon="-2.63047346">
        <ele>166.13031</ele>
        <time>2019-11-21T14:40:50Z</time>
      </trkpt>
      <trkpt lat="43.17907224" lon="-2.63088755">
        <ele>166.35461</ele>
        <time>2019-11-21T14:40:51Z</time>
      </trkpt>
      <trkpt lat="43.17907604" lon="-2.63129458">
        <ele>166.47083</ele>
        <time>2019-11-21T14:40:52Z</time>
      </trkpt>
      <trkpt lat="43.17908481" lon="-2.6316952">
        <ele>166.62177</ele>
        <time>2019-11-21T14:40:53Z</time>
      </trkpt>
      <trkpt lat="43.17909581" lon="-2.63208776">
        <ele>166.7182</ele>
        <time>2019-11-21T14:40:54Z</time>
      </trkpt>
      <trkpt lat="43.1791001" lon="-2.63247259">
        <ele>166.27618</ele>
        <time>2019-11-21T14:40:55Z</time>
      </trkpt>
      <trkpt lat="43.17909768" lon="-2.63286859">
        <ele>166.68921</ele>
        <time>2019-11-21T14:40:56Z</time>
      </trkpt>
      <trkpt lat="43.17910093" lon="-2.63327052">
        <ele>166.97748</ele>
        <time>2019-11-21T14:40:57Z</time>
      </trkpt>
      <trkpt lat="43.17910559" lon="-2.63367017">
        <ele>166.71631</ele>
        <time>2019-11-21T14:40:58Z</time>
      </trkpt>
      <trkpt lat="43.17911032" lon="-2.63406121">
        <ele>167.1308</ele>
        <time>2019-11-21T14:40:59Z</time>
      </trkpt>
      <trkpt lat="43.17912355" lon="-2.63444908">
        <ele>166.57483</ele>
        <time>2019-11-21T14:41:01Z</time>
      </trkpt>
      <trkpt lat="43.17913431" lon="-2.63485996">
        <ele>167.5755</ele>
        <time>2019-11-21T14:41:02Z</time>
      </trkpt>
      <trkpt lat="43.17914291" lon="-2.63525125">
        <ele>167.31079</ele>
        <time>2019-11-21T14:41:03Z</time>
      </trkpt>
      <trkpt lat="43.17916561" lon="-2.6356475">
        <ele>167.31891</ele>
        <time>2019-11-21T14:41:04Z</time>
      </trkpt>
      <trkpt lat="43.17918876" lon="-2.63602595">
        <ele>166.98834</ele>
        <time>2019-11-21T14:41:05Z</time>
      </trkpt>
      <trkpt lat="43.17920213" lon="-2.63641044">
        <ele>167.87268</ele>
        <time>2019-11-21T14:41:06Z</time>
      </trkpt>
      <trkpt lat="43.17926655" lon="-2.63714242">
        <ele>167.09058</ele>
        <time>2019-11-21T14:41:07Z</time>
      </trkpt>
      <trkpt lat="43.17929193" lon="-2.63745803">
        <ele>167.50476</ele>
        <time>2019-11-21T14:41:08Z</time>
      </trkpt>
      <trkpt lat="43.17933027" lon="-2.63777431">
        <ele>168.43506</ele>
        <time>2019-11-21T14:41:09Z</time>
      </trkpt>
      <trkpt lat="43.17935548" lon="-2.63806882">
        <ele>167.6886</ele>
        <time>2019-11-21T14:41:10Z</time>
      </trkpt>
      <trkpt lat="43.17938992" lon="-2.63836207">
        <ele>167.51453</ele>
        <time>2019-11-21T14:41:11Z</time>
      </trkpt>
      <trkpt lat="43.17942711" lon="-2.63865632">
        <ele>167.47119</ele>
        <time>2019-11-21T14:41:12Z</time>
      </trkpt>
      <trkpt lat="43.17945518" lon="-2.63892815">
        <ele>168.55621</ele>
        <time>2019-11-21T14:41:13Z</time>
      </trkpt>
      <trkpt lat="43.17950859" lon="-2.63918585">
        <ele>169.26703</ele>
        <time>2019-11-21T14:41:14Z</time>
      </trkpt>
      <trkpt lat="43.1795675" lon="-2.63943931">
        <ele>168.52979</ele>
        <time>2019-11-21T14:41:15Z</time>
      </trkpt>
      <trkpt lat="43.17964749" lon="-2.63968516">
        <ele>166.60602</ele>
        <time>2019-11-21T14:41:16Z</time>
      </trkpt>
      <trkpt lat="43.17972619" lon="-2.63992076">
        <ele>166.28778</ele>
        <time>2019-11-21T14:41:17Z</time>
      </trkpt>
      <trkpt lat="43.17981658" lon="-2.64015485">
        <ele>166.08344</ele>
        <time>2019-11-21T14:41:18Z</time>
      </trkpt>
      <trkpt lat="43.17990223" lon="-2.6403715">
        <ele>165.93018</ele>
        <time>2019-11-21T14:41:19Z</time>
      </trkpt>
      <trkpt lat="43.17997337" lon="-2.64056756">
        <ele>166.03662</ele>
        <time>2019-11-21T14:41:20Z</time>
      </trkpt>
      <trkpt lat="43.18004022" lon="-2.64076235">
        <ele>165.81635</ele>
        <time>2019-11-21T14:41:21Z</time>
      </trkpt>
      <trkpt lat="43.18009369" lon="-2.64107673">
        <ele>164.39911</ele>
        <time>2019-11-21T14:41:23Z</time>
      </trkpt>
      <trkpt lat="43.18002007" lon="-2.64140709">
        <ele>163.91516</ele>
        <time>2019-11-21T14:41:25Z</time>
      </trkpt>
      <trkpt lat="43.17987719" lon="-2.64164507">
        <ele>163.15137</ele>
        <time>2019-11-21T14:41:27Z</time>
      </trkpt>
      <trkpt lat="43.17973556" lon="-2.64170281">
        <ele>162.7945</ele>
        <time>2019-11-21T14:41:29Z</time>
      </trkpt>
      <trkpt lat="43.1795716" lon="-2.64174992">
        <ele>162.7378</ele>
        <time>2019-11-21T14:41:30Z</time>
      </trkpt>
      <trkpt lat="43.17937882" lon="-2.64180848">
        <ele>162.45483</ele>
        <time>2019-11-21T14:41:32Z</time>
      </trkpt>
      <trkpt lat="43.17921054" lon="-2.64185249">
        <ele>164.47229</ele>
        <time>2019-11-21T14:41:33Z</time>
      </trkpt>
      <trkpt lat="43.17905642" lon="-2.64188171">
        <ele>164.85632</ele>
        <time>2019-11-21T14:41:34Z</time>
      </trkpt>
      <trkpt lat="43.17890569" lon="-2.6419043">
        <ele>163.65869</ele>
        <time>2019-11-21T14:41:35Z</time>
      </trkpt>
      <trkpt lat="43.17870715" lon="-2.64195404">
        <ele>163.30066</ele>
        <time>2019-11-21T14:41:37Z</time>
      </trkpt>
      <trkpt lat="43.17854904" lon="-2.64197707">
        <ele>164.19397</ele>
        <time>2019-11-21T14:41:38Z</time>
      </trkpt>
      <trkpt lat="43.17838035" lon="-2.64197548">
        <ele>164.182</ele>
        <time>2019-11-21T14:41:42Z</time>
      </trkpt>
      <trkpt lat="43.17823607" lon="-2.64197479">
        <ele>163.2298</ele>
        <time>2019-11-21T14:41:54Z</time>
      </trkpt>
      <trkpt lat="43.17807078" lon="-2.64202747">
        <ele>163.98834</ele>
        <time>2019-11-21T14:42:06Z</time>
      </trkpt>
      <trkpt lat="43.17794012" lon="-2.64209386">
        <ele>162.24548</ele>
        <time>2019-11-21T14:42:10Z</time>
      </trkpt>
      <trkpt lat="43.1778072" lon="-2.64218792">
        <ele>161.4754</ele>
        <time>2019-11-21T14:42:14Z</time>
      </trkpt>
      <trkpt lat="43.17768615" lon="-2.64231822">
        <ele>159.7309</ele>
        <time>2019-11-21T14:42:18Z</time>
      </trkpt>
      <trkpt lat="43.17766576" lon="-2.64254497">
        <ele>158.4549</ele>
        <time>2019-11-21T14:42:22Z</time>
      </trkpt>
      <trkpt lat="43.17762952" lon="-2.64279743">
        <ele>157.93329</ele>
        <time>2019-11-21T14:42:25Z</time>
      </trkpt>
      <trkpt lat="43.17746244" lon="-2.64294904">
        <ele>157.46777</ele>
        <time>2019-11-21T14:42:29Z</time>
      </trkpt>
      <trkpt lat="43.1773112" lon="-2.64294564">
        <ele>157.08435</ele>
        <time>2019-11-21T14:42:31Z</time>
      </trkpt>
      <trkpt lat="43.17716178" lon="-2.64282363">
        <ele>158.64447</ele>
        <time>2019-11-21T14:42:33Z</time>
      </trkpt>
      <trkpt lat="43.17710586" lon="-2.64250783">
        <ele>158.70032</ele>
        <time>2019-11-21T14:42:35Z</time>
      </trkpt>
      <trkpt lat="43.17718537" lon="-2.64231012">
        <ele>158.8133</ele>
        <time>2019-11-21T14:42:37Z</time>
      </trkpt>
      <trkpt lat="43.17729076" lon="-2.64211647">
        <ele>158.93604</ele>
        <time>2019-11-21T14:42:39Z</time>
      </trkpt>
      <trkpt lat="43.17733122" lon="-2.64188287">
        <ele>159.15588</ele>
        <time>2019-11-21T14:42:41Z</time>
      </trkpt>
      <trkpt lat="43.17730087" lon="-2.64161277">
        <ele>161.21716</ele>
        <time>2019-11-21T14:42:43Z</time>
      </trkpt>
      <trkpt lat="43.17727441" lon="-2.6413653">
        <ele>162.20166</ele>
        <time>2019-11-21T14:42:45Z</time>
      </trkpt>
      <trkpt lat="43.17724402" lon="-2.64114244">
        <ele>163.54523</ele>
        <time>2019-11-21T14:42:47Z</time>
      </trkpt>
      <trkpt lat="43.17717724" lon="-2.64089487">
        <ele>164.70953</ele>
        <time>2019-11-21T14:42:50Z</time>
      </trkpt>
      <trkpt lat="43.17732369" lon="-2.64086746">
        <ele>164.4726</ele>
        <time>2019-11-21T14:42:54Z</time>
      </trkpt>
      <trkpt lat="43.17729862" lon="-2.64105792">
        <ele>163.98901</ele>
        <time>2019-11-21T14:42:56Z</time>
      </trkpt>
      <trkpt lat="43.17729225" lon="-2.64130116">
        <ele>163.37231</ele>
        <time>2019-11-21T14:42:59Z</time>
      </trkpt>
      <trkpt lat="43.17731218" lon="-2.64158968">
        <ele>161.78094</ele>
        <time>2019-11-21T14:43:01Z</time>
      </trkpt>
      <trkpt lat="43.17735281" lon="-2.64197568">
        <ele>161.11389</ele>
        <time>2019-11-21T14:43:03Z</time>
      </trkpt>
      <trkpt lat="43.17740673" lon="-2.64214961">
        <ele>161.58984</ele>
        <time>2019-11-21T14:43:07Z</time>
      </trkpt>
      <trkpt lat="43.17753485" lon="-2.64231376">
        <ele>162.84473</ele>
        <time>2019-11-21T14:43:14Z</time>
      </trkpt>
      <trkpt lat="43.17765366" lon="-2.64252961">
        <ele>162.09253</ele>
        <time>2019-11-21T14:43:16Z</time>
      </trkpt>
      <trkpt lat="43.17767037" lon="-2.64279616">
        <ele>159.04877</ele>
        <time>2019-11-21T14:43:18Z</time>
      </trkpt>
      <trkpt lat="43.17754456" lon="-2.64299141">
        <ele>158.84277</ele>
        <time>2019-11-21T14:43:20Z</time>
      </trkpt>
      <trkpt lat="43.17739641" lon="-2.64301977">
        <ele>154.70312</ele>
        <time>2019-11-21T14:43:22Z</time>
      </trkpt>
      <trkpt lat="43.17723222" lon="-2.64290402">
        <ele>153.05878</ele>
        <time>2019-11-21T14:43:24Z</time>
      </trkpt>
      <trkpt lat="43.17712566" lon="-2.64267117">
        <ele>153.99652</ele>
        <time>2019-11-21T14:43:27Z</time>
      </trkpt>
      <trkpt lat="43.17702401" lon="-2.64245504">
        <ele>153.14783</ele>
        <time>2019-11-21T14:43:29Z</time>
      </trkpt>
      <trkpt lat="43.17685623" lon="-2.64230272">
        <ele>153.70178</ele>
        <time>2019-11-21T14:43:31Z</time>
      </trkpt>
      <trkpt lat="43.17665971" lon="-2.64217834">
        <ele>152.15686</ele>
        <time>2019-11-21T14:43:32Z</time>
      </trkpt>
      <trkpt lat="43.17645695" lon="-2.64208421">
        <ele>151.79395</ele>
        <time>2019-11-21T14:43:34Z</time>
      </trkpt>
      <trkpt lat="43.17626042" lon="-2.642039">
        <ele>152.58936</ele>
        <time>2019-11-21T14:43:36Z</time>
      </trkpt>
      <trkpt lat="43.17609973" lon="-2.64213053">
        <ele>150.22003</ele>
        <time>2019-11-21T14:43:38Z</time>
      </trkpt>
      <trkpt lat="43.17598067" lon="-2.64230961">
        <ele>151.66138</ele>
        <time>2019-11-21T14:43:40Z</time>
      </trkpt>
      <trkpt lat="43.17594194" lon="-2.6425555">
        <ele>151.65924</ele>
        <time>2019-11-21T14:43:42Z</time>
      </trkpt>
      <trkpt lat="43.17603281" lon="-2.64289687">
        <ele>152.23706</ele>
        <time>2019-11-21T14:43:44Z</time>
      </trkpt>
      <trkpt lat="43.1761028" lon="-2.64307431">
        <ele>152.71631</ele>
        <time>2019-11-21T14:43:45Z</time>
      </trkpt>
      <trkpt lat="43.17616801" lon="-2.64325109">
        <ele>153.08313</ele>
        <time>2019-11-21T14:43:46Z</time>
      </trkpt>
      <trkpt lat="43.17630301" lon="-2.64357775">
        <ele>153.10126</ele>
        <time>2019-11-21T14:43:48Z</time>
      </trkpt>
      <trkpt lat="43.17639137" lon="-2.64376207">
        <ele>157.71674</ele>
        <time>2019-11-21T14:43:49Z</time>
      </trkpt>
      <trkpt lat="43.17647841" lon="-2.64396246">
        <ele>156.99963</ele>
        <time>2019-11-21T14:43:50Z</time>
      </trkpt>
      <trkpt lat="43.17656503" lon="-2.64415874">
        <ele>156.5199</ele>
        <time>2019-11-21T14:43:51Z</time>
      </trkpt>
      <trkpt lat="43.17665989" lon="-2.64434156">
        <ele>155.63629</ele>
        <time>2019-11-21T14:43:52Z</time>
      </trkpt>
      <trkpt lat="43.17674345" lon="-2.64451213">
        <ele>154.5202</ele>
        <time>2019-11-21T14:43:53Z</time>
      </trkpt>
      <trkpt lat="43.17684362" lon="-2.64468574">
        <ele>152.63666</ele>
        <time>2019-11-21T14:43:54Z</time>
      </trkpt>
      <trkpt lat="43.176931" lon="-2.64485662">
        <ele>151.9635</ele>
        <time>2019-11-21T14:43:55Z</time>
      </trkpt>
      <trkpt lat="43.17701149" lon="-2.64501117">
        <ele>151.28955</ele>
        <time>2019-11-21T14:43:57Z</time>
      </trkpt>
      <trkpt lat="43.17717894" lon="-2.64531628">
        <ele>150.02686</ele>
        <time>2019-11-21T14:43:59Z</time>
      </trkpt>
      <trkpt lat="43.17727536" lon="-2.64548643">
        <ele>148.82202</ele>
        <time>2019-11-21T14:44:00Z</time>
      </trkpt>
      <trkpt lat="43.1773696" lon="-2.64565572">
        <ele>148.64905</ele>
        <time>2019-11-21T14:44:01Z</time>
      </trkpt>
      <trkpt lat="43.1774611" lon="-2.64582024">
        <ele>148.49286</ele>
        <time>2019-11-21T14:44:02Z</time>
      </trkpt>
      <trkpt lat="43.17763735" lon="-2.64615601">
        <ele>147.21326</ele>
        <time>2019-11-21T14:44:03Z</time>
      </trkpt>
      <trkpt lat="43.1777171" lon="-2.64631065">
        <ele>148.44006</ele>
        <time>2019-11-21T14:44:04Z</time>
      </trkpt>
      <trkpt lat="43.17780742" lon="-2.64647781">
        <ele>148.44995</ele>
        <time>2019-11-21T14:44:05Z</time>
      </trkpt>
      <trkpt lat="43.17789452" lon="-2.64664445">
        <ele>148.5296</ele>
        <time>2019-11-21T14:44:06Z</time>
      </trkpt>
      <trkpt lat="43.17799428" lon="-2.64680971">
        <ele>148.91779</ele>
        <time>2019-11-21T14:44:07Z</time>
      </trkpt>
      <trkpt lat="43.17808264" lon="-2.64698948">
        <ele>148.82544</ele>
        <time>2019-11-21T14:44:08Z</time>
      </trkpt>
      <trkpt lat="43.17818331" lon="-2.6471631">
        <ele>149.05432</ele>
        <time>2019-11-21T14:44:09Z</time>
      </trkpt>
      <trkpt lat="43.1782802" lon="-2.6473494">
        <ele>149.21289</ele>
        <time>2019-11-21T14:44:10Z</time>
      </trkpt>
      <trkpt lat="43.17835932" lon="-2.64753242">
        <ele>149.88763</ele>
        <time>2019-11-21T14:44:11Z</time>
      </trkpt>
      <trkpt lat="43.17845865" lon="-2.64770995">
        <ele>149.58612</ele>
        <time>2019-11-21T14:44:12Z</time>
      </trkpt>
      <trkpt lat="43.17854401" lon="-2.64789689">
        <ele>149.11499</ele>
        <time>2019-11-21T14:44:13Z</time>
      </trkpt>
      <trkpt lat="43.17864315" lon="-2.64808251">
        <ele>148.50714</ele>
        <time>2019-11-21T14:44:14Z</time>
      </trkpt>
      <trkpt lat="43.17876228" lon="-2.64826625">
        <ele>148.69525</ele>
        <time>2019-11-21T14:44:15Z</time>
      </trkpt>
      <trkpt lat="43.17885443" lon="-2.64844417">
        <ele>148.26514</ele>
        <time>2019-11-21T14:44:16Z</time>
      </trkpt>
      <trkpt lat="43.17893976" lon="-2.64861928">
        <ele>149.60596</ele>
        <time>2019-11-21T14:44:17Z</time>
      </trkpt>
      <trkpt lat="43.17904417" lon="-2.64879639">
        <ele>150.55835</ele>
        <time>2019-11-21T14:44:18Z</time>
      </trkpt>
      <trkpt lat="43.17915187" lon="-2.64897746">
        <ele>150.1615</ele>
        <time>2019-11-21T14:44:19Z</time>
      </trkpt>
      <trkpt lat="43.1792611" lon="-2.64914655">
        <ele>150.36658</ele>
        <time>2019-11-21T14:44:20Z</time>
      </trkpt>
      <trkpt lat="43.17935221" lon="-2.64932115">
        <ele>151.08453</ele>
        <time>2019-11-21T14:44:21Z</time>
      </trkpt>
      <trkpt lat="43.17944158" lon="-2.64949656">
        <ele>150.80444</ele>
        <time>2019-11-21T14:44:22Z</time>
      </trkpt>
      <trkpt lat="43.17952512" lon="-2.64966175">
        <ele>152.3421</ele>
        <time>2019-11-21T14:44:23Z</time>
      </trkpt>
      <trkpt lat="43.17960635" lon="-2.64982786">
        <ele>152.39343</ele>
        <time>2019-11-21T14:44:24Z</time>
      </trkpt>
      <trkpt lat="43.17969218" lon="-2.64998948">
        <ele>152.35034</ele>
        <time>2019-11-21T14:44:26Z</time>
      </trkpt>
      <trkpt lat="43.17978962" lon="-2.65026239">
        <ele>154.13171</ele>
        <time>2019-11-21T14:44:28Z</time>
      </trkpt>
      <trkpt lat="43.17988512" lon="-2.65050867">
        <ele>155.20593</ele>
        <time>2019-11-21T14:44:30Z</time>
      </trkpt>
      <trkpt lat="43.1799801" lon="-2.65064064">
        <ele>155.2876</ele>
        <time>2019-11-21T14:44:32Z</time>
      </trkpt>
      <trkpt lat="43.18011594" lon="-2.65068733">
        <ele>153.28357</ele>
        <time>2019-11-21T14:44:33Z</time>
      </trkpt>
      <trkpt lat="43.18027154" lon="-2.65063846">
        <ele>155.67383</ele>
        <time>2019-11-21T14:44:36Z</time>
      </trkpt>
      <trkpt lat="43.18041595" lon="-2.65055967">
        <ele>153.79016</ele>
        <time>2019-11-21T14:44:38Z</time>
      </trkpt>
      <trkpt lat="43.18056225" lon="-2.65040514">
        <ele>156.29199</ele>
        <time>2019-11-21T14:44:41Z</time>
      </trkpt>
      <trkpt lat="43.18064742" lon="-2.65023716">
        <ele>156.41803</ele>
        <time>2019-11-21T14:44:45Z</time>
      </trkpt>
      <trkpt lat="43.1806961" lon="-2.6500442">
        <ele>159.81995</ele>
        <time>2019-11-21T14:45:43Z</time>
      </trkpt>
      <trkpt lat="43.18075426" lon="-2.64987202">
        <ele>161.16125</ele>
        <time>2019-11-21T14:45:46Z</time>
      </trkpt>
      <trkpt lat="43.1807719" lon="-2.64966014">
        <ele>160.64319</ele>
        <time>2019-11-21T14:45:50Z</time>
      </trkpt>
      <trkpt lat="43.18068045" lon="-2.64946842">
        <ele>162.04706</ele>
        <time>2019-11-21T14:45:54Z</time>
      </trkpt>
      <trkpt lat="43.18048507" lon="-2.64939139">
        <ele>161.9411</ele>
        <time>2019-11-21T14:45:57Z</time>
      </trkpt>
      <trkpt lat="43.18030125" lon="-2.64948738">
        <ele>162.0503</ele>
        <time>2019-11-21T14:46:00Z</time>
      </trkpt>
      <trkpt lat="43.18012843" lon="-2.64962455">
        <ele>162.05145</ele>
        <time>2019-11-21T14:46:02Z</time>
      </trkpt>
      <trkpt lat="43.17982529" lon="-2.64983649">
        <ele>159.4585</ele>
        <time>2019-11-21T14:46:04Z</time>
      </trkpt>
      <trkpt lat="43.17963986" lon="-2.64998016">
        <ele>159.19922</ele>
        <time>2019-11-21T14:46:06Z</time>
      </trkpt>
      <trkpt lat="43.17946652" lon="-2.65013611">
        <ele>157.13611</ele>
        <time>2019-11-21T14:46:08Z</time>
      </trkpt>
      <trkpt lat="43.17933825" lon="-2.65035579">
        <ele>157.04431</ele>
        <time>2019-11-21T14:46:10Z</time>
      </trkpt>
      <trkpt lat="43.17931549" lon="-2.65058539">
        <ele>156.05066</ele>
        <time>2019-11-21T14:46:12Z</time>
      </trkpt>
      <trkpt lat="43.1793624" lon="-2.65080051">
        <ele>154.91284</ele>
        <time>2019-11-21T14:46:14Z</time>
      </trkpt>
      <trkpt lat="43.17946393" lon="-2.65095925">
        <ele>155.00977</ele>
        <time>2019-11-21T14:46:16Z</time>
      </trkpt>
      <trkpt lat="43.17961923" lon="-2.6510144">
        <ele>153.54242</ele>
        <time>2019-11-21T14:46:18Z</time>
      </trkpt>
      <trkpt lat="43.17976102" lon="-2.65092627">
        <ele>153.54456</ele>
        <time>2019-11-21T14:46:20Z</time>
      </trkpt>
      <trkpt lat="43.17984594" lon="-2.65076998">
        <ele>154.17133</ele>
        <time>2019-11-21T14:46:22Z</time>
      </trkpt>
      <trkpt lat="43.1797703" lon="-2.65049034">
        <ele>154.43445</ele>
        <time>2019-11-21T14:46:24Z</time>
      </trkpt>
      <trkpt lat="43.17968353" lon="-2.65020553">
        <ele>153.8927</ele>
        <time>2019-11-21T14:46:26Z</time>
      </trkpt>
      <trkpt lat="43.17958054" lon="-2.64987432">
        <ele>154.20996</ele>
        <time>2019-11-21T14:46:29Z</time>
      </trkpt>
      <trkpt lat="43.17950257" lon="-2.64969611">
        <ele>154.05927</ele>
        <time>2019-11-21T14:46:30Z</time>
      </trkpt>
      <trkpt lat="43.17940736" lon="-2.64952096">
        <ele>153.18091</ele>
        <time>2019-11-21T14:46:31Z</time>
      </trkpt>
      <trkpt lat="43.179299" lon="-2.64934584">
        <ele>152.78937</ele>
        <time>2019-11-21T14:46:32Z</time>
      </trkpt>
      <trkpt lat="43.1792088" lon="-2.64916874">
        <ele>152.55817</ele>
        <time>2019-11-21T14:46:33Z</time>
      </trkpt>
      <trkpt lat="43.17902871" lon="-2.64882563">
        <ele>151.75586</ele>
        <time>2019-11-21T14:46:34Z</time>
      </trkpt>
      <trkpt lat="43.17893967" lon="-2.6486582">
        <ele>151.53839</ele>
        <time>2019-11-21T14:46:35Z</time>
      </trkpt>
      <trkpt lat="43.17886321" lon="-2.6485055">
        <ele>151.85168</ele>
        <time>2019-11-21T14:46:36Z</time>
      </trkpt>
      <trkpt lat="43.17876456" lon="-2.64833287">
        <ele>154.44171</ele>
        <time>2019-11-21T14:46:36Z</time>
      </trkpt>
      <trkpt lat="43.17867021" lon="-2.64815206">
        <ele>153.23499</ele>
        <time>2019-11-21T14:46:37Z</time>
      </trkpt>
      <trkpt lat="43.17856782" lon="-2.64799037">
        <ele>152.93652</ele>
        <time>2019-11-21T14:46:39Z</time>
      </trkpt>
      <trkpt lat="43.17840294" lon="-2.64763818">
        <ele>152.40228</ele>
        <time>2019-11-21T14:46:40Z</time>
      </trkpt>
      <trkpt lat="43.17833095" lon="-2.64743029">
        <ele>152.3092</ele>
        <time>2019-11-21T14:46:41Z</time>
      </trkpt>
      <trkpt lat="43.17818391" lon="-2.64715464">
        <ele>152.61804</ele>
        <time>2019-11-21T14:46:43Z</time>
      </trkpt>
      <trkpt lat="43.17800439" lon="-2.6469049">
        <ele>152.75629</ele>
        <time>2019-11-21T14:46:45Z</time>
      </trkpt>
      <trkpt lat="43.17785971" lon="-2.64674673">
        <ele>153.66925</ele>
        <time>2019-11-21T14:46:47Z</time>
      </trkpt>
      <trkpt lat="43.17773621" lon="-2.64656498">
        <ele>155.34882</ele>
        <time>2019-11-21T14:46:49Z</time>
      </trkpt>
      <trkpt lat="43.17764026" lon="-2.64640398">
        <ele>155.27734</ele>
        <time>2019-11-21T14:46:52Z</time>
      </trkpt>
      <trkpt lat="43.17758125" lon="-2.64658141">
        <ele>154.21497</ele>
        <time>2019-11-21T14:47:02Z</time>
      </trkpt>
      <trkpt lat="43.17784881" lon="-2.64668469">
        <ele>164.72687</ele>
        <time>2019-11-21T14:52:05Z</time>
      </trkpt>
      <trkpt lat="43.1775447" lon="-2.64663684">
        <ele>156.53894</ele>
        <time>2019-11-21T14:56:22Z</time>
      </trkpt>
      <trkpt lat="43.17755935" lon="-2.64664839">
        <ele>156.35168</ele>
        <time>2019-11-21T15:02:18Z</time>
      </trkpt>
      <trkpt lat="43.17735675" lon="-2.64583883">
        <ele>154.96771</ele>
        <time>2019-11-21T15:49:44Z</time>
      </trkpt>
      <trkpt lat="43.17724412" lon="-2.64561867">
        <ele>156.27087</ele>
        <time>2019-11-21T15:49:46Z</time>
      </trkpt>
      <trkpt lat="43.17710541" lon="-2.64538148">
        <ele>155.2143</ele>
        <time>2019-11-21T15:49:48Z</time>
      </trkpt>
      <trkpt lat="43.17696591" lon="-2.6451493">
        <ele>154.80957</ele>
        <time>2019-11-21T15:49:50Z</time>
      </trkpt>
      <trkpt lat="43.17681476" lon="-2.64493158">
        <ele>155.15381</ele>
        <time>2019-11-21T15:49:52Z</time>
      </trkpt>
      <trkpt lat="43.17664428" lon="-2.64470935">
        <ele>155.271</ele>
        <time>2019-11-21T15:49:54Z</time>
      </trkpt>
      <trkpt lat="43.1764596" lon="-2.64450564">
        <ele>156.46722</ele>
        <time>2019-11-21T15:49:56Z</time>
      </trkpt>
      <trkpt lat="43.17624981" lon="-2.64433926">
        <ele>157.55096</ele>
        <time>2019-11-21T15:49:58Z</time>
      </trkpt>
      <trkpt lat="43.17605781" lon="-2.6442166">
        <ele>158.69373</ele>
        <time>2019-11-21T15:50:00Z</time>
      </trkpt>
      <trkpt lat="43.17591066" lon="-2.64411522">
        <ele>159.92047</ele>
        <time>2019-11-21T15:50:02Z</time>
      </trkpt>
      <trkpt lat="43.17577544" lon="-2.64400509">
        <ele>160.96808</ele>
        <time>2019-11-21T15:50:10Z</time>
      </trkpt>
      <trkpt lat="43.1756373" lon="-2.64385551">
        <ele>160.99725</ele>
        <time>2019-11-21T15:50:13Z</time>
      </trkpt>
      <trkpt lat="43.17565458" lon="-2.64360902">
        <ele>159.69312</ele>
        <time>2019-11-21T15:50:16Z</time>
      </trkpt>
      <trkpt lat="43.17578999" lon="-2.64352024">
        <ele>159.195</ele>
        <time>2019-11-21T15:50:18Z</time>
      </trkpt>
      <trkpt lat="43.17596831" lon="-2.64349921">
        <ele>158.37299</ele>
        <time>2019-11-21T15:50:20Z</time>
      </trkpt>
      <trkpt lat="43.176246" lon="-2.64339936">
        <ele>157.36218</ele>
        <time>2019-11-21T15:50:22Z</time>
      </trkpt>
      <trkpt lat="43.17641363" lon="-2.64326119">
        <ele>157.35718</ele>
        <time>2019-11-21T15:50:24Z</time>
      </trkpt>
      <trkpt lat="43.17657594" lon="-2.64313728">
        <ele>157.65881</ele>
        <time>2019-11-21T15:50:26Z</time>
      </trkpt>
      <trkpt lat="43.17671554" lon="-2.6430074">
        <ele>158.21179</ele>
        <time>2019-11-21T15:50:28Z</time>
      </trkpt>
      <trkpt lat="43.17681807" lon="-2.642846">
        <ele>160.4389</ele>
        <time>2019-11-21T15:50:30Z</time>
      </trkpt>
      <trkpt lat="43.17685785" lon="-2.6426688">
        <ele>159.20178</ele>
        <time>2019-11-21T15:50:32Z</time>
      </trkpt>
      <trkpt lat="43.17680748" lon="-2.64246508">
        <ele>157.26807</ele>
        <time>2019-11-21T15:50:34Z</time>
      </trkpt>
      <trkpt lat="43.1766792" lon="-2.64227134">
        <ele>155.6181</ele>
        <time>2019-11-21T15:50:37Z</time>
      </trkpt>
      <trkpt lat="43.17653849" lon="-2.64217241">
        <ele>153.96753</ele>
        <time>2019-11-21T15:50:39Z</time>
      </trkpt>
      <trkpt lat="43.17637852" lon="-2.64210133">
        <ele>153.8468</ele>
        <time>2019-11-21T15:50:41Z</time>
      </trkpt>
      <trkpt lat="43.17621567" lon="-2.64210229">
        <ele>151.72668</ele>
        <time>2019-11-21T15:50:44Z</time>
      </trkpt>
      <trkpt lat="43.17607934" lon="-2.64219327">
        <ele>151.77795</ele>
        <time>2019-11-21T15:50:46Z</time>
      </trkpt>
      <trkpt lat="43.17598908" lon="-2.64239939">
        <ele>151.73944</ele>
        <time>2019-11-21T15:50:48Z</time>
      </trkpt>
      <trkpt lat="43.17598587" lon="-2.64264942">
        <ele>151.74066</ele>
        <time>2019-11-21T15:50:50Z</time>
      </trkpt>
      <trkpt lat="43.17606347" lon="-2.6429212">
        <ele>150.6878</ele>
        <time>2019-11-21T15:50:52Z</time>
      </trkpt>
      <trkpt lat="43.17617344" lon="-2.64322611">
        <ele>151.27924</ele>
        <time>2019-11-21T15:50:54Z</time>
      </trkpt>
      <trkpt lat="43.17629808" lon="-2.64353985">
        <ele>151.36761</ele>
        <time>2019-11-21T15:50:55Z</time>
      </trkpt>
      <trkpt lat="43.17637512" lon="-2.643702">
        <ele>151.01105</ele>
        <time>2019-11-21T15:50:56Z</time>
      </trkpt>
      <trkpt lat="43.17644898" lon="-2.64387261">
        <ele>151.28424</ele>
        <time>2019-11-21T15:50:57Z</time>
      </trkpt>
      <trkpt lat="43.17652449" lon="-2.64403665">
        <ele>150.99579</ele>
        <time>2019-11-21T15:50:58Z</time>
      </trkpt>
      <trkpt lat="43.17660515" lon="-2.64420255">
        <ele>150.47449</ele>
        <time>2019-11-21T15:50:59Z</time>
      </trkpt>
      <trkpt lat="43.17669088" lon="-2.64436871">
        <ele>150.33496</ele>
        <time>2019-11-21T15:51:00Z</time>
      </trkpt>
      <trkpt lat="43.17676453" lon="-2.64454168">
        <ele>149.6831</ele>
        <time>2019-11-21T15:51:01Z</time>
      </trkpt>
      <trkpt lat="43.17686062" lon="-2.64471049">
        <ele>149.85498</ele>
        <time>2019-11-21T15:51:02Z</time>
      </trkpt>
      <trkpt lat="43.17695318" lon="-2.64487667">
        <ele>149.5398</ele>
        <time>2019-11-21T15:51:03Z</time>
      </trkpt>
      <trkpt lat="43.17704898" lon="-2.64504161">
        <ele>149.27234</ele>
        <time>2019-11-21T15:51:04Z</time>
      </trkpt>
      <trkpt lat="43.17713652" lon="-2.64521585">
        <ele>148.29724</ele>
        <time>2019-11-21T15:51:05Z</time>
      </trkpt>
      <trkpt lat="43.1772345" lon="-2.64538442">
        <ele>148.24896</ele>
        <time>2019-11-21T15:51:06Z</time>
      </trkpt>
      <trkpt lat="43.1773257" lon="-2.64555053">
        <ele>148.08044</ele>
        <time>2019-11-21T15:51:07Z</time>
      </trkpt>
      <trkpt lat="43.17742316" lon="-2.64571827">
        <ele>147.08594</ele>
        <time>2019-11-21T15:51:08Z</time>
      </trkpt>
      <trkpt lat="43.1775236" lon="-2.64587798">
        <ele>146.49988</ele>
        <time>2019-11-21T15:51:09Z</time>
      </trkpt>
      <trkpt lat="43.17761511" lon="-2.64603847">
        <ele>146.70789</ele>
        <time>2019-11-21T15:51:10Z</time>
      </trkpt>
      <trkpt lat="43.17770508" lon="-2.64619783">
        <ele>146.67004</ele>
        <time>2019-11-21T15:51:11Z</time>
      </trkpt>
      <trkpt lat="43.17779103" lon="-2.64636333">
        <ele>146.52148</ele>
        <time>2019-11-21T15:51:12Z</time>
      </trkpt>
      <trkpt lat="43.17788001" lon="-2.64653137">
        <ele>147.02832</ele>
        <time>2019-11-21T15:51:13Z</time>
      </trkpt>
      <trkpt lat="43.17796623" lon="-2.6466997">
        <ele>147.01483</ele>
        <time>2019-11-21T15:51:14Z</time>
      </trkpt>
      <trkpt lat="43.17805478" lon="-2.64686505">
        <ele>146.81079</ele>
        <time>2019-11-21T15:51:15Z</time>
      </trkpt>
      <trkpt lat="43.17814073" lon="-2.64703676">
        <ele>145.84094</ele>
        <time>2019-11-21T15:51:16Z</time>
      </trkpt>
      <trkpt lat="43.17823171" lon="-2.6472156">
        <ele>145.27118</ele>
        <time>2019-11-21T15:51:18Z</time>
      </trkpt>
      <trkpt lat="43.17832954" lon="-2.64739084">
        <ele>144.8081</ele>
        <time>2019-11-21T15:51:19Z</time>
      </trkpt>
      <trkpt lat="43.1784244" lon="-2.64757109">
        <ele>145.03601</ele>
        <time>2019-11-21T15:51:20Z</time>
      </trkpt>
      <trkpt lat="43.17851967" lon="-2.64774402">
        <ele>144.67462</ele>
        <time>2019-11-21T15:51:21Z</time>
      </trkpt>
      <trkpt lat="43.17861598" lon="-2.64791923">
        <ele>143.6482</ele>
        <time>2019-11-21T15:51:22Z</time>
      </trkpt>
      <trkpt lat="43.17870703" lon="-2.64809848">
        <ele>143.62854</ele>
        <time>2019-11-21T15:51:23Z</time>
      </trkpt>
      <trkpt lat="43.1788049" lon="-2.64828586">
        <ele>144.00128</ele>
        <time>2019-11-21T15:51:24Z</time>
      </trkpt>
      <trkpt lat="43.17889846" lon="-2.64846999">
        <ele>144.3299</ele>
        <time>2019-11-21T15:51:25Z</time>
      </trkpt>
      <trkpt lat="43.17899552" lon="-2.64864843">
        <ele>144.36761</ele>
        <time>2019-11-21T15:51:26Z</time>
      </trkpt>
      <trkpt lat="43.17909231" lon="-2.64883149">
        <ele>144.61267</ele>
        <time>2019-11-21T15:51:27Z</time>
      </trkpt>
      <trkpt lat="43.17918655" lon="-2.64901696">
        <ele>144.24176</ele>
        <time>2019-11-21T15:51:28Z</time>
      </trkpt>
      <trkpt lat="43.1792797" lon="-2.64920019">
        <ele>144.49933</ele>
        <time>2019-11-21T15:51:29Z</time>
      </trkpt>
      <trkpt lat="43.17947119" lon="-2.64955493">
        <ele>145.47119</ele>
        <time>2019-11-21T15:51:30Z</time>
      </trkpt>
      <trkpt lat="43.17955899" lon="-2.64973458">
        <ele>145.93689</ele>
        <time>2019-11-21T15:51:31Z</time>
      </trkpt>
      <trkpt lat="43.17964341" lon="-2.649924">
        <ele>145.58124</ele>
        <time>2019-11-21T15:51:32Z</time>
      </trkpt>
      <trkpt lat="43.17971637" lon="-2.65011336">
        <ele>145.51855</ele>
        <time>2019-11-21T15:51:33Z</time>
      </trkpt>
      <trkpt lat="43.17978756" lon="-2.65028827">
        <ele>145.54633</ele>
        <time>2019-11-21T15:51:34Z</time>
      </trkpt>
      <trkpt lat="43.17986093" lon="-2.6504894">
        <ele>146.3222</ele>
        <time>2019-11-21T15:51:35Z</time>
      </trkpt>
      <trkpt lat="43.17992305" lon="-2.65068789">
        <ele>147.45105</ele>
        <time>2019-11-21T15:51:36Z</time>
      </trkpt>
      <trkpt lat="43.1799814" lon="-2.65088648">
        <ele>147.46692</ele>
        <time>2019-11-21T15:51:37Z</time>
      </trkpt>
      <trkpt lat="43.18004542" lon="-2.65108306">
        <ele>148.20691</ele>
        <time>2019-11-21T15:51:38Z</time>
      </trkpt>
      <trkpt lat="43.18010978" lon="-2.6512749">
        <ele>148.13806</ele>
        <time>2019-11-21T15:51:39Z</time>
      </trkpt>
      <trkpt lat="43.18017387" lon="-2.65148821">
        <ele>148.04846</ele>
        <time>2019-11-21T15:51:40Z</time>
      </trkpt>
      <trkpt lat="43.1802346" lon="-2.65169838">
        <ele>147.65747</ele>
        <time>2019-11-21T15:51:41Z</time>
      </trkpt>
      <trkpt lat="43.18030134" lon="-2.65191034">
        <ele>147.82642</ele>
        <time>2019-11-21T15:51:42Z</time>
      </trkpt>
      <trkpt lat="43.18036486" lon="-2.65211963">
        <ele>148.33008</ele>
        <time>2019-11-21T15:51:43Z</time>
      </trkpt>
      <trkpt lat="43.18043282" lon="-2.65233088">
        <ele>147.9317</ele>
        <time>2019-11-21T15:51:44Z</time>
      </trkpt>
      <trkpt lat="43.18048604" lon="-2.65254309">
        <ele>147.849</ele>
        <time>2019-11-21T15:51:45Z</time>
      </trkpt>
      <trkpt lat="43.18055077" lon="-2.6527546">
        <ele>148.45508</ele>
        <time>2019-11-21T15:51:46Z</time>
      </trkpt>
      <trkpt lat="43.1806121" lon="-2.65295713">
        <ele>148.78772</ele>
        <time>2019-11-21T15:51:47Z</time>
      </trkpt>
      <trkpt lat="43.1806723" lon="-2.65315776">
        <ele>148.89136</ele>
        <time>2019-11-21T15:51:48Z</time>
      </trkpt>
      <trkpt lat="43.18073364" lon="-2.65334937">
        <ele>148.18091</ele>
        <time>2019-11-21T15:51:49Z</time>
      </trkpt>
      <trkpt lat="43.18078749" lon="-2.6535487">
        <ele>147.90161</ele>
        <time>2019-11-21T15:51:50Z</time>
      </trkpt>
      <trkpt lat="43.18084456" lon="-2.65375473">
        <ele>148.36206</ele>
        <time>2019-11-21T15:51:51Z</time>
      </trkpt>
      <trkpt lat="43.18090032" lon="-2.65395611">
        <ele>148.67322</ele>
        <time>2019-11-21T15:51:53Z</time>
      </trkpt>
      <trkpt lat="43.18095678" lon="-2.65415302">
        <ele>148.79877</ele>
        <time>2019-11-21T15:51:54Z</time>
      </trkpt>
      <trkpt lat="43.18101511" lon="-2.65434877">
        <ele>149.08264</ele>
        <time>2019-11-21T15:51:55Z</time>
      </trkpt>
      <trkpt lat="43.18106774" lon="-2.65453364">
        <ele>151.65771</ele>
        <time>2019-11-21T15:51:56Z</time>
      </trkpt>
      <trkpt lat="43.1811276" lon="-2.65472872">
        <ele>150.58374</ele>
        <time>2019-11-21T15:51:57Z</time>
      </trkpt>
      <trkpt lat="43.18118255" lon="-2.65492043">
        <ele>149.6836</ele>
        <time>2019-11-21T15:51:58Z</time>
      </trkpt>
      <trkpt lat="43.18124267" lon="-2.65510393">
        <ele>149.23297</ele>
        <time>2019-11-21T15:51:59Z</time>
      </trkpt>
      <trkpt lat="43.1812986" lon="-2.65530171">
        <ele>148.86713</ele>
        <time>2019-11-21T15:52:00Z</time>
      </trkpt>
      <trkpt lat="43.1813571" lon="-2.65548767">
        <ele>148.56274</ele>
        <time>2019-11-21T15:52:01Z</time>
      </trkpt>
      <trkpt lat="43.18141107" lon="-2.65567496">
        <ele>148.06458</ele>
        <time>2019-11-21T15:52:02Z</time>
      </trkpt>
      <trkpt lat="43.1815139" lon="-2.6560509">
        <ele>146.69312</ele>
        <time>2019-11-21T15:52:03Z</time>
      </trkpt>
      <trkpt lat="43.18156008" lon="-2.65623187">
        <ele>146.39716</ele>
        <time>2019-11-21T15:52:04Z</time>
      </trkpt>
      <trkpt lat="43.1816081" lon="-2.65640593">
        <ele>146.00214</ele>
        <time>2019-11-21T15:52:05Z</time>
      </trkpt>
      <trkpt lat="43.1816973" lon="-2.65671267">
        <ele>145.85266</ele>
        <time>2019-11-21T15:52:07Z</time>
      </trkpt>
      <trkpt lat="43.18178617" lon="-2.65700683">
        <ele>146.0658</ele>
        <time>2019-11-21T15:52:09Z</time>
      </trkpt>
      <trkpt lat="43.18186979" lon="-2.65728101">
        <ele>145.3894</ele>
        <time>2019-11-21T15:52:11Z</time>
      </trkpt>
      <trkpt lat="43.18196015" lon="-2.65750267">
        <ele>145.53674</ele>
        <time>2019-11-21T15:52:13Z</time>
      </trkpt>
      <trkpt lat="43.18208177" lon="-2.65766073">
        <ele>145.7674</ele>
        <time>2019-11-21T15:52:15Z</time>
      </trkpt>
      <trkpt lat="43.18223312" lon="-2.65769335">
        <ele>146.44403</ele>
        <time>2019-11-21T15:52:18Z</time>
      </trkpt>
      <trkpt lat="43.18217594" lon="-2.65751309">
        <ele>143.80042</ele>
        <time>2019-11-21T15:52:23Z</time>
      </trkpt>
      <trkpt lat="43.18206886" lon="-2.65750362">
        <ele>143.71625</ele>
        <time>2019-11-21T15:52:29Z</time>
      </trkpt>
      <trkpt lat="43.18194508552551" lon="-2.657639980316162">
        <ele>153.42035</ele>
        <time>2019-11-21T16:44:30Z</time>
      </trkpt>
      <trkpt lat="43.18206706" lon="-2.65736944">
        <ele>159.86444</ele>
        <time>2019-11-21T16:44:31Z</time>
      </trkpt>
      <trkpt lat="43.18209706" lon="-2.65756318">
        <ele>156.49017</ele>
        <time>2019-11-21T16:46:34Z</time>
      </trkpt>
      <trkpt lat="43.18223782" lon="-2.65764589">
        <ele>159.98578</ele>
        <time>2019-11-21T16:46:39Z</time>
      </trkpt>
      <trkpt lat="43.18220426" lon="-2.65786223">
        <ele>154.96442</ele>
        <time>2019-11-21T16:55:38Z</time>
      </trkpt>
      <trkpt lat="43.1821001" lon="-2.65798598">
        <ele>154.8512</ele>
        <time>2019-11-21T16:55:42Z</time>
      </trkpt>
      <trkpt lat="43.18210798" lon="-2.65820155">
        <ele>155.49774</ele>
        <time>2019-11-21T16:55:46Z</time>
      </trkpt>
      <trkpt lat="43.18218693" lon="-2.65844103">
        <ele>154.05188</ele>
        <time>2019-11-21T16:55:49Z</time>
      </trkpt>
      <trkpt lat="43.18224182" lon="-2.6586272">
        <ele>155.86096</ele>
        <time>2019-11-21T16:55:51Z</time>
      </trkpt>
      <trkpt lat="43.18230248" lon="-2.65883389">
        <ele>155.89978</ele>
        <time>2019-11-21T16:55:53Z</time>
      </trkpt>
      <trkpt lat="43.18235922" lon="-2.65906684">
        <ele>153.78314</ele>
        <time>2019-11-21T16:55:55Z</time>
      </trkpt>
      <trkpt lat="43.18244142" lon="-2.65938181">
        <ele>154.39624</ele>
        <time>2019-11-21T16:55:57Z</time>
      </trkpt>
      <trkpt lat="43.18253652" lon="-2.65970222">
        <ele>153.96893</ele>
        <time>2019-11-21T16:55:59Z</time>
      </trkpt>
      <trkpt lat="43.18263775" lon="-2.66003584">
        <ele>153.77081</ele>
        <time>2019-11-21T16:56:01Z</time>
      </trkpt>
      <trkpt lat="43.18273854" lon="-2.66037284">
        <ele>153.56952</ele>
        <time>2019-11-21T16:56:04Z</time>
      </trkpt>
      <trkpt lat="43.18279496" lon="-2.66054193">
        <ele>153.97552</ele>
        <time>2019-11-21T16:56:05Z</time>
      </trkpt>
      <trkpt lat="43.18284067" lon="-2.66071771">
        <ele>153.41742</ele>
        <time>2019-11-21T16:56:06Z</time>
      </trkpt>
      <trkpt lat="43.18291086" lon="-2.66088502">
        <ele>153.85645</ele>
        <time>2019-11-21T16:56:07Z</time>
      </trkpt>
      <trkpt lat="43.1830258" lon="-2.66122398">
        <ele>154.07245</ele>
        <time>2019-11-21T16:56:09Z</time>
      </trkpt>
      <trkpt lat="43.18312009" lon="-2.6615388">
        <ele>154.01208</ele>
        <time>2019-11-21T16:56:10Z</time>
      </trkpt>
      <trkpt lat="43.18323593" lon="-2.66185015">
        <ele>155.87354</ele>
        <time>2019-11-21T16:56:12Z</time>
      </trkpt>
      <trkpt lat="43.18334385" lon="-2.66214033">
        <ele>156.69928</ele>
        <time>2019-11-21T16:56:14Z</time>
      </trkpt>
      <trkpt lat="43.1834492" lon="-2.66241823">
        <ele>158.5888</ele>
        <time>2019-11-21T16:56:16Z</time>
      </trkpt>
      <trkpt lat="43.18350164" lon="-2.66275301">
        <ele>160.64832</ele>
        <time>2019-11-21T16:56:18Z</time>
      </trkpt>
      <trkpt lat="43.18360682" lon="-2.66305209">
        <ele>158.05371</ele>
        <time>2019-11-21T16:56:20Z</time>
      </trkpt>
      <trkpt lat="43.18370926" lon="-2.66330904">
        <ele>152.01147</ele>
        <time>2019-11-21T16:56:22Z</time>
      </trkpt>
      <trkpt lat="43.18376815" lon="-2.66363238">
        <ele>152.5827</ele>
        <time>2019-11-21T16:56:24Z</time>
      </trkpt>
      <trkpt lat="43.18381066" lon="-2.66397866">
        <ele>146.67212</ele>
        <time>2019-11-21T16:56:26Z</time>
      </trkpt>
      <trkpt lat="43.18384315" lon="-2.66416904">
        <ele>146.01404</ele>
        <time>2019-11-21T16:56:27Z</time>
      </trkpt>
      <trkpt lat="43.18389026" lon="-2.66434567">
        <ele>145.57153</ele>
        <time>2019-11-21T16:56:28Z</time>
      </trkpt>
      <trkpt lat="43.18393529" lon="-2.66452755">
        <ele>145.41492</ele>
        <time>2019-11-21T16:56:29Z</time>
      </trkpt>
      <trkpt lat="43.18400126" lon="-2.66469394">
        <ele>146.79877</ele>
        <time>2019-11-21T16:56:30Z</time>
      </trkpt>
      <trkpt lat="43.18404447" lon="-2.66486986">
        <ele>147.09131</ele>
        <time>2019-11-21T16:56:32Z</time>
      </trkpt>
      <trkpt lat="43.18409284" lon="-2.66504246">
        <ele>146.73761</ele>
        <time>2019-11-21T16:56:33Z</time>
      </trkpt>
      <trkpt lat="43.18418116" lon="-2.66538515">
        <ele>145.78741</ele>
        <time>2019-11-21T16:56:35Z</time>
      </trkpt>
      <trkpt lat="43.18422584" lon="-2.66556753">
        <ele>146.25323</ele>
        <time>2019-11-21T16:56:36Z</time>
      </trkpt>
      <trkpt lat="43.18432785" lon="-2.66586633">
        <ele>143.86774</ele>
        <time>2019-11-21T16:56:38Z</time>
      </trkpt>
      <trkpt lat="43.18441581" lon="-2.66623526">
        <ele>144.0415</ele>
        <time>2019-11-21T16:56:39Z</time>
      </trkpt>
      <trkpt lat="43.18451508" lon="-2.66658981">
        <ele>145.57684</ele>
        <time>2019-11-21T16:56:41Z</time>
      </trkpt>
      <trkpt lat="43.18459568" lon="-2.66689274">
        <ele>146.41895</ele>
        <time>2019-11-21T16:56:43Z</time>
      </trkpt>
      <trkpt lat="43.18465886" lon="-2.66716676">
        <ele>143.66058</ele>
        <time>2019-11-21T16:56:45Z</time>
      </trkpt>
      <trkpt lat="43.18472732" lon="-2.66734796">
        <ele>145.16364</ele>
        <time>2019-11-21T16:56:46Z</time>
      </trkpt>
      <trkpt lat="43.18485393" lon="-2.6676774">
        <ele>148.07043</ele>
        <time>2019-11-21T16:56:48Z</time>
      </trkpt>
      <trkpt lat="43.18492651" lon="-2.66788662">
        <ele>147.94275</ele>
        <time>2019-11-21T16:56:49Z</time>
      </trkpt>
      <trkpt lat="43.18500781" lon="-2.66823785">
        <ele>147.16809</ele>
        <time>2019-11-21T16:56:51Z</time>
      </trkpt>
      <trkpt lat="43.18512361" lon="-2.6685799">
        <ele>145.97821</ele>
        <time>2019-11-21T16:56:53Z</time>
      </trkpt>
      <trkpt lat="43.18524804" lon="-2.66891051">
        <ele>146.95953</ele>
        <time>2019-11-21T16:56:55Z</time>
      </trkpt>
      <trkpt lat="43.1853073" lon="-2.66908569">
        <ele>144.27972</ele>
        <time>2019-11-21T16:56:56Z</time>
      </trkpt>
      <trkpt lat="43.18536717" lon="-2.66926718">
        <ele>143.2962</ele>
        <time>2019-11-21T16:56:57Z</time>
      </trkpt>
      <trkpt lat="43.185426" lon="-2.66945783">
        <ele>142.20178</ele>
        <time>2019-11-21T16:56:58Z</time>
      </trkpt>
      <trkpt lat="43.18548736" lon="-2.66964934">
        <ele>143.51196</ele>
        <time>2019-11-21T16:56:59Z</time>
      </trkpt>
      <trkpt lat="43.18558964" lon="-2.67001813">
        <ele>142.13367</ele>
        <time>2019-11-21T16:57:01Z</time>
      </trkpt>
      <trkpt lat="43.18564906" lon="-2.6702233">
        <ele>142.60803</ele>
        <time>2019-11-21T16:57:02Z</time>
      </trkpt>
      <trkpt lat="43.18570465" lon="-2.67041109">
        <ele>143.1482</ele>
        <time>2019-11-21T16:57:04Z</time>
      </trkpt>
      <trkpt lat="43.18575362" lon="-2.67061726">
        <ele>142.77838</ele>
        <time>2019-11-21T16:57:05Z</time>
      </trkpt>
      <trkpt lat="43.18581835" lon="-2.67080205">
        <ele>142.24438</ele>
        <time>2019-11-21T16:57:06Z</time>
      </trkpt>
      <trkpt lat="43.18585856" lon="-2.67099356">
        <ele>142.26337</ele>
        <time>2019-11-21T16:57:07Z</time>
      </trkpt>
      <trkpt lat="43.18590243" lon="-2.67118473">
        <ele>169.79785</ele>
        <time>2019-11-21T16:57:08Z</time>
      </trkpt>
      <trkpt lat="43.18596346" lon="-2.67137703">
        <ele>165.27295</ele>
        <time>2019-11-21T16:57:09Z</time>
      </trkpt>
      <trkpt lat="43.18603023" lon="-2.67154861">
        <ele>161.59918</ele>
        <time>2019-11-21T16:57:10Z</time>
      </trkpt>
      <trkpt lat="43.18607136" lon="-2.67174435">
        <ele>158.07019</ele>
        <time>2019-11-21T16:57:11Z</time>
      </trkpt>
      <trkpt lat="43.18613819" lon="-2.67191981">
        <ele>155.5296</ele>
        <time>2019-11-21T16:57:12Z</time>
      </trkpt>
      <trkpt lat="43.186216" lon="-2.67226693">
        <ele>152.44312</ele>
        <time>2019-11-21T16:57:13Z</time>
      </trkpt>
      <trkpt lat="43.18629742" lon="-2.67258735">
        <ele>150.76727</ele>
        <time>2019-11-21T16:57:15Z</time>
      </trkpt>
      <trkpt lat="43.18635777" lon="-2.67290964">
        <ele>149.57678</ele>
        <time>2019-11-21T16:57:17Z</time>
      </trkpt>
      <trkpt lat="43.18640155" lon="-2.67320905">
        <ele>148.7157</ele>
        <time>2019-11-21T16:57:19Z</time>
      </trkpt>
      <trkpt lat="43.18650767" lon="-2.673363">
        <ele>148.15863</ele>
        <time>2019-11-21T16:57:21Z</time>
      </trkpt>
      <trkpt lat="43.18659617" lon="-2.67352902">
        <ele>144.15094</ele>
        <time>2019-11-21T16:57:23Z</time>
      </trkpt>
      <trkpt lat="43.18662476" lon="-2.67374814">
        <ele>144.78241</ele>
        <time>2019-11-21T16:57:25Z</time>
      </trkpt>
      <trkpt lat="43.18663642" lon="-2.67422949">
        <ele>144.16364</ele>
        <time>2019-11-21T16:57:28Z</time>
      </trkpt>
      <trkpt lat="43.18669893" lon="-2.67456923">
        <ele>144.23358</ele>
        <time>2019-11-21T16:57:30Z</time>
      </trkpt>
      <trkpt lat="43.18674633" lon="-2.67486426">
        <ele>143.29156</ele>
        <time>2019-11-21T16:57:32Z</time>
      </trkpt>
      <trkpt lat="43.18678279" lon="-2.67504435">
        <ele>143.27081</ele>
        <time>2019-11-21T16:57:33Z</time>
      </trkpt>
      <trkpt lat="43.18681805" lon="-2.67522596">
        <ele>144.63428</ele>
        <time>2019-11-21T16:57:34Z</time>
      </trkpt>
      <trkpt lat="43.1868332" lon="-2.67541108">
        <ele>145.0788</ele>
        <time>2019-11-21T16:57:35Z</time>
      </trkpt>
      <trkpt lat="43.18687361" lon="-2.67559624">
        <ele>145.00433</ele>
        <time>2019-11-21T16:57:37Z</time>
      </trkpt>
      <trkpt lat="43.18690792" lon="-2.67579663">
        <ele>145.28918</ele>
        <time>2019-11-21T16:57:38Z</time>
      </trkpt>
      <trkpt lat="43.18694678" lon="-2.67618362">
        <ele>146.23346</ele>
        <time>2019-11-21T16:57:40Z</time>
      </trkpt>
      <trkpt lat="43.18697082" lon="-2.67638657">
        <ele>145.85394</ele>
        <time>2019-11-21T16:57:41Z</time>
      </trkpt>
      <trkpt lat="43.18700007" lon="-2.6765822">
        <ele>145.72119</ele>
        <time>2019-11-21T16:57:42Z</time>
      </trkpt>
      <trkpt lat="43.18708239" lon="-2.67711539">
        <ele>142.46155</ele>
        <time>2019-11-21T16:57:44Z</time>
      </trkpt>
      <trkpt lat="43.18710356" lon="-2.67733651">
        <ele>142.83075</ele>
        <time>2019-11-21T16:57:45Z</time>
      </trkpt>
      <trkpt lat="43.18712273" lon="-2.67753934">
        <ele>142.93713</ele>
        <time>2019-11-21T16:57:46Z</time>
      </trkpt>
      <trkpt lat="43.18715949" lon="-2.67773452">
        <ele>143.95447</ele>
        <time>2019-11-21T16:57:47Z</time>
      </trkpt>
      <trkpt lat="43.18718944" lon="-2.67792554">
        <ele>144.95636</ele>
        <time>2019-11-21T16:57:48Z</time>
      </trkpt>
      <trkpt lat="43.18722263" lon="-2.67811998">
        <ele>145.15894</ele>
        <time>2019-11-21T16:57:49Z</time>
      </trkpt>
      <trkpt lat="43.18723958" lon="-2.67831962">
        <ele>145.46521</ele>
        <time>2019-11-21T16:57:50Z</time>
      </trkpt>
      <trkpt lat="43.18726969" lon="-2.67851575">
        <ele>145.58661</ele>
        <time>2019-11-21T16:57:51Z</time>
      </trkpt>
      <trkpt lat="43.18733539" lon="-2.67889792">
        <ele>145.64899</ele>
        <time>2019-11-21T16:57:53Z</time>
      </trkpt>
      <trkpt lat="43.1873574" lon="-2.67910507">
        <ele>146.09357</ele>
        <time>2019-11-21T16:57:54Z</time>
      </trkpt>
      <trkpt lat="43.18738287" lon="-2.67929011">
        <ele>147.22296</ele>
        <time>2019-11-21T16:57:55Z</time>
      </trkpt>
      <trkpt lat="43.18741708" lon="-2.67947474">
        <ele>146.83691</ele>
        <time>2019-11-21T16:57:57Z</time>
      </trkpt>
      <trkpt lat="43.18745821" lon="-2.6796643">
        <ele>147.2215</ele>
        <time>2019-11-21T16:57:58Z</time>
      </trkpt>
      <trkpt lat="43.18748404" lon="-2.67987715">
        <ele>147.37549</ele>
        <time>2019-11-21T16:57:59Z</time>
      </trkpt>
      <trkpt lat="43.18751196" lon="-2.68009969">
        <ele>148.13232</ele>
        <time>2019-11-21T16:58:00Z</time>
      </trkpt>
      <trkpt lat="43.18752866" lon="-2.68031571">
        <ele>149.0487</ele>
        <time>2019-11-21T16:58:01Z</time>
      </trkpt>
      <trkpt lat="43.18754526" lon="-2.68050797">
        <ele>149.20679</ele>
        <time>2019-11-21T16:58:02Z</time>
      </trkpt>
      <trkpt lat="43.18757286" lon="-2.68069811">
        <ele>148.9273</ele>
        <time>2019-11-21T16:58:03Z</time>
      </trkpt>
      <trkpt lat="43.18760188" lon="-2.68087944">
        <ele>148.97528</ele>
        <time>2019-11-21T16:58:04Z</time>
      </trkpt>
      <trkpt lat="43.18760945" lon="-2.68123685">
        <ele>149.32599</ele>
        <time>2019-11-21T16:58:06Z</time>
      </trkpt>
      <trkpt lat="43.18763661" lon="-2.68142228">
        <ele>147.91858</ele>
        <time>2019-11-21T16:58:07Z</time>
      </trkpt>
      <trkpt lat="43.18766864" lon="-2.68162616">
        <ele>148.00525</ele>
        <time>2019-11-21T16:58:08Z</time>
      </trkpt>
      <trkpt lat="43.18769552" lon="-2.6818209">
        <ele>148.6502</ele>
        <time>2019-11-21T16:58:09Z</time>
      </trkpt>
      <trkpt lat="43.18773994" lon="-2.68201427">
        <ele>150.0365</ele>
        <time>2019-11-21T16:58:10Z</time>
      </trkpt>
      <trkpt lat="43.1877758" lon="-2.68220076">
        <ele>150.82562</ele>
        <time>2019-11-21T16:58:11Z</time>
      </trkpt>
      <trkpt lat="43.18781364" lon="-2.682395">
        <ele>150.10114</ele>
        <time>2019-11-21T16:58:12Z</time>
      </trkpt>
      <trkpt lat="43.18784192" lon="-2.68259856">
        <ele>150.43115</ele>
        <time>2019-11-21T16:58:13Z</time>
      </trkpt>
      <trkpt lat="43.18790045" lon="-2.68302223">
        <ele>150.42358</ele>
        <time>2019-11-21T16:58:14Z</time>
      </trkpt>
      <trkpt lat="43.18793946" lon="-2.68320805">
        <ele>149.93665</ele>
        <time>2019-11-21T16:58:15Z</time>
      </trkpt>
      <trkpt lat="43.18794859" lon="-2.68342449">
        <ele>151.73303</ele>
        <time>2019-11-21T16:58:16Z</time>
      </trkpt>
      <trkpt lat="43.18797911" lon="-2.6836291">
        <ele>152.73376</ele>
        <time>2019-11-21T16:58:17Z</time>
      </trkpt>
      <trkpt lat="43.18799529" lon="-2.68382598">
        <ele>152.44696</ele>
        <time>2019-11-21T16:58:18Z</time>
      </trkpt>
      <trkpt lat="43.18803794" lon="-2.68403355">
        <ele>153.01233</ele>
        <time>2019-11-21T16:58:19Z</time>
      </trkpt>
      <trkpt lat="43.18806086" lon="-2.68422751">
        <ele>153.43884</ele>
        <time>2019-11-21T16:58:20Z</time>
      </trkpt>
      <trkpt lat="43.18811659" lon="-2.68460895">
        <ele>153.08649</ele>
        <time>2019-11-21T16:58:22Z</time>
      </trkpt>
      <trkpt lat="43.18813091" lon="-2.68481061">
        <ele>153.94543</ele>
        <time>2019-11-21T16:58:23Z</time>
      </trkpt>
      <trkpt lat="43.18812888" lon="-2.68503082">
        <ele>154.46051</ele>
        <time>2019-11-21T16:58:24Z</time>
      </trkpt>
      <trkpt lat="43.18816171" lon="-2.68521809">
        <ele>154.57745</ele>
        <time>2019-11-21T16:58:25Z</time>
      </trkpt>
      <trkpt lat="43.18817828" lon="-2.68540302">
        <ele>155.09729</ele>
        <time>2019-11-21T16:58:26Z</time>
      </trkpt>
      <trkpt lat="43.18820383" lon="-2.68559905">
        <ele>155.9762</ele>
        <time>2019-11-21T16:58:27Z</time>
      </trkpt>
      <trkpt lat="43.18828256" lon="-2.68594203">
        <ele>155.73108</ele>
        <time>2019-11-21T16:58:30Z</time>
      </trkpt>
      <trkpt lat="43.18839289" lon="-2.68622753">
        <ele>152.57</ele>
        <time>2019-11-21T16:58:32Z</time>
      </trkpt>
      <trkpt lat="43.18845832" lon="-2.68641038">
        <ele>151.86737</ele>
        <time>2019-11-21T16:58:33Z</time>
      </trkpt>
      <trkpt lat="43.18853384" lon="-2.68656603">
        <ele>151.52081</ele>
        <time>2019-11-21T16:58:34Z</time>
      </trkpt>
      <trkpt lat="43.18868253" lon="-2.68688577">
        <ele>150.36389</ele>
        <time>2019-11-21T16:58:36Z</time>
      </trkpt>
      <trkpt lat="43.1887756" lon="-2.68724716">
        <ele>151.80023</ele>
        <time>2019-11-21T16:58:38Z</time>
      </trkpt>
      <trkpt lat="43.18885407" lon="-2.68742882">
        <ele>147.86096</ele>
        <time>2019-11-21T16:58:39Z</time>
      </trkpt>
      <trkpt lat="43.18893759" lon="-2.68758952">
        <ele>147.62659</ele>
        <time>2019-11-21T16:58:40Z</time>
      </trkpt>
      <trkpt lat="43.18900967" lon="-2.68777517">
        <ele>148.46515</ele>
        <time>2019-11-21T16:58:41Z</time>
      </trkpt>
      <trkpt lat="43.18918955" lon="-2.6880946">
        <ele>147.2956</ele>
        <time>2019-11-21T16:58:43Z</time>
      </trkpt>
      <trkpt lat="43.18941276" lon="-2.6883824">
        <ele>148.47272</ele>
        <time>2019-11-21T16:58:44Z</time>
      </trkpt>
      <trkpt lat="43.18951855" lon="-2.68853904">
        <ele>148.33423</ele>
        <time>2019-11-21T16:58:45Z</time>
      </trkpt>
      <trkpt lat="43.189585" lon="-2.688702">
        <ele>148.336</ele>
        <time>2019-11-21T16:58:46Z</time>
      </trkpt>
      <trkpt lat="43.18967666" lon="-2.68886506">
        <ele>148.27454</ele>
        <time>2019-11-21T16:58:47Z</time>
      </trkpt>
      <trkpt lat="43.18975389" lon="-2.68903918">
        <ele>148.60144</ele>
        <time>2019-11-21T16:58:48Z</time>
      </trkpt>
      <trkpt lat="43.18985999" lon="-2.68919248">
        <ele>148.35498</ele>
        <time>2019-11-21T16:58:49Z</time>
      </trkpt>
      <trkpt lat="43.18994452" lon="-2.68935754">
        <ele>148.3075</ele>
        <time>2019-11-21T16:58:50Z</time>
      </trkpt>
      <trkpt lat="43.19005173" lon="-2.68951109">
        <ele>149.20325</ele>
        <time>2019-11-21T16:58:51Z</time>
      </trkpt>
      <trkpt lat="43.19012745" lon="-2.68968861">
        <ele>150.4176</ele>
        <time>2019-11-21T16:58:52Z</time>
      </trkpt>
      <trkpt lat="43.19024886" lon="-2.689823">
        <ele>151.62708</ele>
        <time>2019-11-21T16:58:53Z</time>
      </trkpt>
      <trkpt lat="43.19034827" lon="-2.68997986">
        <ele>151.12122</ele>
        <time>2019-11-21T16:58:54Z</time>
      </trkpt>
      <trkpt lat="43.1905105" lon="-2.69028454">
        <ele>150.22168</ele>
        <time>2019-11-21T16:58:56Z</time>
      </trkpt>
      <trkpt lat="43.19059017" lon="-2.69045843">
        <ele>150.44824</ele>
        <time>2019-11-21T16:58:58Z</time>
      </trkpt>
      <trkpt lat="43.19070936" lon="-2.69060835">
        <ele>151.69525</ele>
        <time>2019-11-21T16:58:59Z</time>
      </trkpt>
      <trkpt lat="43.19082661" lon="-2.6907764">
        <ele>151.18402</ele>
        <time>2019-11-21T16:59:00Z</time>
      </trkpt>
      <trkpt lat="43.19090193" lon="-2.69097451">
        <ele>150.65173</ele>
        <time>2019-11-21T16:59:01Z</time>
      </trkpt>
      <trkpt lat="43.19098156" lon="-2.69115651">
        <ele>150.79578</ele>
        <time>2019-11-21T16:59:02Z</time>
      </trkpt>
      <trkpt lat="43.19109588" lon="-2.69130209">
        <ele>153.45691</ele>
        <time>2019-11-21T16:59:03Z</time>
      </trkpt>
      <trkpt lat="43.19119224" lon="-2.6914643">
        <ele>154.53699</ele>
        <time>2019-11-21T16:59:04Z</time>
      </trkpt>
      <trkpt lat="43.19131294" lon="-2.69161482">
        <ele>155.73749</ele>
        <time>2019-11-21T16:59:05Z</time>
      </trkpt>
      <trkpt lat="43.19137456" lon="-2.69178307">
        <ele>156.76709</ele>
        <time>2019-11-21T16:59:06Z</time>
      </trkpt>
      <trkpt lat="43.19149058" lon="-2.69192176">
        <ele>157.802</ele>
        <time>2019-11-21T16:59:07Z</time>
      </trkpt>
      <trkpt lat="43.19158879" lon="-2.69206866">
        <ele>159.2605</ele>
        <time>2019-11-21T16:59:08Z</time>
      </trkpt>
      <trkpt lat="43.19169268" lon="-2.6922106">
        <ele>158.48468</ele>
        <time>2019-11-21T16:59:09Z</time>
      </trkpt>
      <trkpt lat="43.19188037" lon="-2.69244068">
        <ele>158.62183</ele>
        <time>2019-11-21T16:59:11Z</time>
      </trkpt>
      <trkpt lat="43.19198938" lon="-2.69255381">
        <ele>158.01605</ele>
        <time>2019-11-21T16:59:12Z</time>
      </trkpt>
      <trkpt lat="43.19209789" lon="-2.69267605">
        <ele>158.1438</ele>
        <time>2019-11-21T16:59:13Z</time>
      </trkpt>
      <trkpt lat="43.19221174" lon="-2.69278141">
        <ele>157.03235</ele>
        <time>2019-11-21T16:59:14Z</time>
      </trkpt>
      <trkpt lat="43.19251302" lon="-2.69313822">
        <ele>155.97034</ele>
        <time>2019-11-21T16:59:16Z</time>
      </trkpt>
      <trkpt lat="43.19262129" lon="-2.69326349">
        <ele>154.77112</ele>
        <time>2019-11-21T16:59:17Z</time>
      </trkpt>
      <trkpt lat="43.19283245" lon="-2.69348025">
        <ele>155.297</ele>
        <time>2019-11-21T16:59:19Z</time>
      </trkpt>
      <trkpt lat="43.19304493" lon="-2.69363461">
        <ele>149.93658</ele>
        <time>2019-11-21T16:59:21Z</time>
      </trkpt>
      <trkpt lat="43.19327875" lon="-2.69384708">
        <ele>150.1654</ele>
        <time>2019-11-21T16:59:23Z</time>
      </trkpt>
      <trkpt lat="43.19342345" lon="-2.69397503">
        <ele>151.82635</ele>
        <time>2019-11-21T16:59:24Z</time>
      </trkpt>
      <trkpt lat="43.19354636" lon="-2.69412646">
        <ele>153.14435</ele>
        <time>2019-11-21T16:59:25Z</time>
      </trkpt>
      <trkpt lat="43.19365752" lon="-2.69424909">
        <ele>152.55194</ele>
        <time>2019-11-21T16:59:26Z</time>
      </trkpt>
      <trkpt lat="43.19376784" lon="-2.6943677">
        <ele>150.81696</ele>
        <time>2019-11-21T16:59:27Z</time>
      </trkpt>
      <trkpt lat="43.19388809" lon="-2.69450829">
        <ele>150.51367</ele>
        <time>2019-11-21T16:59:29Z</time>
      </trkpt>
      <trkpt lat="43.19400764" lon="-2.69466075">
        <ele>150.54474</ele>
        <time>2019-11-21T16:59:30Z</time>
      </trkpt>
      <trkpt lat="43.1941217" lon="-2.6947722">
        <ele>149.07422</ele>
        <time>2019-11-21T16:59:31Z</time>
      </trkpt>
      <trkpt lat="43.19422899" lon="-2.69490331">
        <ele>148.5741</ele>
        <time>2019-11-21T16:59:32Z</time>
      </trkpt>
      <trkpt lat="43.1944214" lon="-2.6951531">
        <ele>146.52698</ele>
        <time>2019-11-21T16:59:34Z</time>
      </trkpt>
      <trkpt lat="43.19453215" lon="-2.6952938">
        <ele>150.65692</ele>
        <time>2019-11-21T16:59:35Z</time>
      </trkpt>
      <trkpt lat="43.19470767" lon="-2.69553716">
        <ele>147.29535</ele>
        <time>2019-11-21T16:59:37Z</time>
      </trkpt>
      <trkpt lat="43.1948468" lon="-2.69574925">
        <ele>149.25873</ele>
        <time>2019-11-21T16:59:39Z</time>
      </trkpt>
      <trkpt lat="43.19500607" lon="-2.69597809">
        <ele>153.22607</ele>
        <time>2019-11-21T16:59:42Z</time>
      </trkpt>
      <trkpt lat="43.19515236" lon="-2.69623816">
        <ele>152.91083</ele>
        <time>2019-11-21T16:59:44Z</time>
      </trkpt>
      <trkpt lat="43.19538355" lon="-2.69666901">
        <ele>152.00134</ele>
        <time>2019-11-21T16:59:46Z</time>
      </trkpt>
      <trkpt lat="43.19548289" lon="-2.69682846">
        <ele>153.51581</ele>
        <time>2019-11-21T16:59:47Z</time>
      </trkpt>
      <trkpt lat="43.19558676" lon="-2.6969533">
        <ele>149.93018</ele>
        <time>2019-11-21T16:59:48Z</time>
      </trkpt>
      <trkpt lat="43.19567996" lon="-2.69712173">
        <ele>149.75726</ele>
        <time>2019-11-21T16:59:49Z</time>
      </trkpt>
      <trkpt lat="43.19576115" lon="-2.69729477">
        <ele>149.78357</ele>
        <time>2019-11-21T16:59:50Z</time>
      </trkpt>
      <trkpt lat="43.19587092" lon="-2.69745158">
        <ele>146.74097</ele>
        <time>2019-11-21T16:59:51Z</time>
      </trkpt>
      <trkpt lat="43.19598116" lon="-2.69761644">
        <ele>146.33618</ele>
        <time>2019-11-21T16:59:52Z</time>
      </trkpt>
      <trkpt lat="43.19610398" lon="-2.69774559">
        <ele>144.55109</ele>
        <time>2019-11-21T16:59:53Z</time>
      </trkpt>
      <trkpt lat="43.19624309" lon="-2.69788098">
        <ele>146.8399</ele>
        <time>2019-11-21T16:59:54Z</time>
      </trkpt>
      <trkpt lat="43.19635913" lon="-2.69803199">
        <ele>148.78223</ele>
        <time>2019-11-21T16:59:55Z</time>
      </trkpt>
      <trkpt lat="43.1964777" lon="-2.69817002">
        <ele>148.11566</ele>
        <time>2019-11-21T16:59:56Z</time>
      </trkpt>
      <trkpt lat="43.19659845" lon="-2.69831617">
        <ele>147.6969</ele>
        <time>2019-11-21T16:59:57Z</time>
      </trkpt>
      <trkpt lat="43.19671134" lon="-2.69844746">
        <ele>147.22443</ele>
        <time>2019-11-21T16:59:58Z</time>
      </trkpt>
      <trkpt lat="43.19679435" lon="-2.69859486">
        <ele>146.4151</ele>
        <time>2019-11-21T17:00:00Z</time>
      </trkpt>
      <trkpt lat="43.19691331" lon="-2.69871473">
        <ele>146.69049</ele>
        <time>2019-11-21T17:00:01Z</time>
      </trkpt>
      <trkpt lat="43.19707771" lon="-2.6989791">
        <ele>146.24512</ele>
        <time>2019-11-21T17:00:03Z</time>
      </trkpt>
      <trkpt lat="43.197161" lon="-2.69913877">
        <ele>145.38654</ele>
        <time>2019-11-21T17:00:04Z</time>
      </trkpt>
      <trkpt lat="43.19732265" lon="-2.69941969">
        <ele>148.40167</ele>
        <time>2019-11-21T17:00:06Z</time>
      </trkpt>
      <trkpt lat="43.197376" lon="-2.69959865">
        <ele>149.19067</ele>
        <time>2019-11-21T17:00:07Z</time>
      </trkpt>
      <trkpt lat="43.19743545" lon="-2.69977827">
        <ele>150.78656</ele>
        <time>2019-11-21T17:00:08Z</time>
      </trkpt>
      <trkpt lat="43.19749053" lon="-2.69995711">
        <ele>151.88782</ele>
        <time>2019-11-21T17:00:09Z</time>
      </trkpt>
      <trkpt lat="43.19752132" lon="-2.70015519">
        <ele>152.5083</ele>
        <time>2019-11-21T17:00:10Z</time>
      </trkpt>
      <trkpt lat="43.19757026" lon="-2.70036993">
        <ele>176.59662</ele>
        <time>2019-11-21T17:00:11Z</time>
      </trkpt>
      <trkpt lat="43.1976087" lon="-2.70057875">
        <ele>174.05115</ele>
        <time>2019-11-21T17:00:12Z</time>
      </trkpt>
      <trkpt lat="43.19762921" lon="-2.70076665">
        <ele>172.58514</ele>
        <time>2019-11-21T17:00:13Z</time>
      </trkpt>
      <trkpt lat="43.19766941" lon="-2.70096238">
        <ele>171.1344</ele>
        <time>2019-11-21T17:00:14Z</time>
      </trkpt>
      <trkpt lat="43.19772142" lon="-2.70119485">
        <ele>169.52112</ele>
        <time>2019-11-21T17:00:15Z</time>
      </trkpt>
      <trkpt lat="43.1978245" lon="-2.70160807">
        <ele>167.39258</ele>
        <time>2019-11-21T17:00:16Z</time>
      </trkpt>
      <trkpt lat="43.19787922" lon="-2.70181045">
        <ele>166.43744</ele>
        <time>2019-11-21T17:00:17Z</time>
      </trkpt>
      <trkpt lat="43.1979255" lon="-2.70201771">
        <ele>164.01752</ele>
        <time>2019-11-21T17:00:18Z</time>
      </trkpt>
      <trkpt lat="43.19798276" lon="-2.70223883">
        <ele>162.34143</ele>
        <time>2019-11-21T17:00:19Z</time>
      </trkpt>
      <trkpt lat="43.19805031" lon="-2.70247277">
        <ele>161.96777</ele>
        <time>2019-11-21T17:00:20Z</time>
      </trkpt>
      <trkpt lat="43.1981028" lon="-2.70267669">
        <ele>160.96735</ele>
        <time>2019-11-21T17:00:21Z</time>
      </trkpt>
      <trkpt lat="43.1981696" lon="-2.70284456">
        <ele>156.97974</ele>
        <time>2019-11-21T17:00:22Z</time>
      </trkpt>
      <trkpt lat="43.19821782" lon="-2.70305199">
        <ele>156.80695</ele>
        <time>2019-11-21T17:00:23Z</time>
      </trkpt>
      <trkpt lat="43.19827618" lon="-2.70328778">
        <ele>154.33264</ele>
        <time>2019-11-21T17:00:24Z</time>
      </trkpt>
      <trkpt lat="43.19833564" lon="-2.70350985">
        <ele>152.95905</ele>
        <time>2019-11-21T17:00:25Z</time>
      </trkpt>
      <trkpt lat="43.19839197" lon="-2.70369787">
        <ele>153.48718</ele>
        <time>2019-11-21T17:00:26Z</time>
      </trkpt>
      <trkpt lat="43.1984073" lon="-2.70390511">
        <ele>152.20569</ele>
        <time>2019-11-21T17:00:27Z</time>
      </trkpt>
      <trkpt lat="43.19845042" lon="-2.70412062">
        <ele>151.49518</ele>
        <time>2019-11-21T17:00:28Z</time>
      </trkpt>
      <trkpt lat="43.19845246" lon="-2.70432252">
        <ele>144.34546</ele>
        <time>2019-11-21T17:00:30Z</time>
      </trkpt>
      <trkpt lat="43.19851331" lon="-2.70452678">
        <ele>145.88916</ele>
        <time>2019-11-21T17:00:31Z</time>
      </trkpt>
      <trkpt lat="43.19856527" lon="-2.70471948">
        <ele>145.2323</ele>
        <time>2019-11-21T17:00:32Z</time>
      </trkpt>
      <trkpt lat="43.1986182" lon="-2.70492436">
        <ele>143.70209</ele>
        <time>2019-11-21T17:00:33Z</time>
      </trkpt>
      <trkpt lat="43.19866813" lon="-2.70511561">
        <ele>145.31177</ele>
        <time>2019-11-21T17:00:34Z</time>
      </trkpt>
      <trkpt lat="43.19871403" lon="-2.70531554">
        <ele>144.5874</ele>
        <time>2019-11-21T17:00:35Z</time>
      </trkpt>
      <trkpt lat="43.19876652" lon="-2.70550086">
        <ele>144.52869</ele>
        <time>2019-11-21T17:00:36Z</time>
      </trkpt>
      <trkpt lat="43.19882357" lon="-2.7057146">
        <ele>146.40588</ele>
        <time>2019-11-21T17:00:37Z</time>
      </trkpt>
      <trkpt lat="43.1988693" lon="-2.70592574">
        <ele>146.23438</ele>
        <time>2019-11-21T17:00:38Z</time>
      </trkpt>
      <trkpt lat="43.19891669" lon="-2.70611884">
        <ele>146.59363</ele>
        <time>2019-11-21T17:00:39Z</time>
      </trkpt>
      <trkpt lat="43.19895075" lon="-2.70631751">
        <ele>145.85767</ele>
        <time>2019-11-21T17:00:40Z</time>
      </trkpt>
      <trkpt lat="43.19899615" lon="-2.70653212">
        <ele>145.5849</ele>
        <time>2019-11-21T17:00:41Z</time>
      </trkpt>
      <trkpt lat="43.1990527" lon="-2.70673522">
        <ele>148.13074</ele>
        <time>2019-11-21T17:00:42Z</time>
      </trkpt>
      <trkpt lat="43.19910436" lon="-2.70695249">
        <ele>149.41144</ele>
        <time>2019-11-21T17:00:43Z</time>
      </trkpt>
      <trkpt lat="43.19915781" lon="-2.70716959">
        <ele>149.08441</ele>
        <time>2019-11-21T17:00:44Z</time>
      </trkpt>
      <trkpt lat="43.19922357" lon="-2.70739697">
        <ele>149.49512</ele>
        <time>2019-11-21T17:00:45Z</time>
      </trkpt>
      <trkpt lat="43.19925505" lon="-2.70760625">
        <ele>149.00848</ele>
        <time>2019-11-21T17:00:46Z</time>
      </trkpt>
      <trkpt lat="43.19935221" lon="-2.7079826">
        <ele>149.81976</ele>
        <time>2019-11-21T17:00:47Z</time>
      </trkpt>
      <trkpt lat="43.19941313" lon="-2.70819941">
        <ele>150.3877</ele>
        <time>2019-11-21T17:00:48Z</time>
      </trkpt>
      <trkpt lat="43.19947703" lon="-2.70842683">
        <ele>150.46484</ele>
        <time>2019-11-21T17:00:49Z</time>
      </trkpt>
      <trkpt lat="43.19952023" lon="-2.70866376">
        <ele>147.08252</ele>
        <time>2019-11-21T17:00:50Z</time>
      </trkpt>
      <trkpt lat="43.19961523" lon="-2.70888496">
        <ele>148.6239</ele>
        <time>2019-11-21T17:00:51Z</time>
      </trkpt>
      <trkpt lat="43.1997209" lon="-2.70905173">
        <ele>174.0476</ele>
        <time>2019-11-21T17:00:52Z</time>
      </trkpt>
      <trkpt lat="43.19983515" lon="-2.70923354">
        <ele>170.42236</ele>
        <time>2019-11-21T17:00:53Z</time>
      </trkpt>
      <trkpt lat="43.19996593" lon="-2.70940543">
        <ele>167.23523</ele>
        <time>2019-11-21T17:00:54Z</time>
      </trkpt>
      <trkpt lat="43.20010647" lon="-2.70955449">
        <ele>163.83118</ele>
        <time>2019-11-21T17:00:55Z</time>
      </trkpt>
      <trkpt lat="43.20025622" lon="-2.70968762">
        <ele>160.86658</ele>
        <time>2019-11-21T17:00:56Z</time>
      </trkpt>
      <trkpt lat="43.2004155" lon="-2.70983716">
        <ele>158.53436</ele>
        <time>2019-11-21T17:00:57Z</time>
      </trkpt>
      <trkpt lat="43.20057203" lon="-2.70996606">
        <ele>157.77686</ele>
        <time>2019-11-21T17:00:59Z</time>
      </trkpt>
      <trkpt lat="43.20072518" lon="-2.71010669">
        <ele>173.65778</ele>
        <time>2019-11-21T17:01:00Z</time>
      </trkpt>
      <trkpt lat="43.20088561" lon="-2.71024327">
        <ele>169.9892</ele>
        <time>2019-11-21T17:01:01Z</time>
      </trkpt>
      <trkpt lat="43.20105085" lon="-2.71036324">
        <ele>167.20874</ele>
        <time>2019-11-21T17:01:02Z</time>
      </trkpt>
      <trkpt lat="43.201185" lon="-2.71051362">
        <ele>162.2923</ele>
        <time>2019-11-21T17:01:03Z</time>
      </trkpt>
      <trkpt lat="43.20134536" lon="-2.71065928">
        <ele>159.77448</ele>
        <time>2019-11-21T17:01:04Z</time>
      </trkpt>
      <trkpt lat="43.20149442" lon="-2.71081091">
        <ele>157.60156</ele>
        <time>2019-11-21T17:01:05Z</time>
      </trkpt>
      <trkpt lat="43.2016304" lon="-2.71094712">
        <ele>157.43085</ele>
        <time>2019-11-21T17:01:06Z</time>
      </trkpt>
      <trkpt lat="43.2017571" lon="-2.7110857">
        <ele>156.0675</ele>
        <time>2019-11-21T17:01:07Z</time>
      </trkpt>
      <trkpt lat="43.20187703" lon="-2.71121384">
        <ele>153.98083</ele>
        <time>2019-11-21T17:01:08Z</time>
      </trkpt>
      <trkpt lat="43.20198719" lon="-2.71134823">
        <ele>152.71967</ele>
        <time>2019-11-21T17:01:09Z</time>
      </trkpt>
      <trkpt lat="43.20212583" lon="-2.71147879">
        <ele>152.13477</ele>
        <time>2019-11-21T17:01:10Z</time>
      </trkpt>
      <trkpt lat="43.20224232" lon="-2.71160537">
        <ele>150.93365</ele>
        <time>2019-11-21T17:01:11Z</time>
      </trkpt>
      <trkpt lat="43.20236971" lon="-2.7117328">
        <ele>150.48865</ele>
        <time>2019-11-21T17:01:12Z</time>
      </trkpt>
      <trkpt lat="43.20251359" lon="-2.71184715">
        <ele>151.2503</ele>
        <time>2019-11-21T17:01:13Z</time>
      </trkpt>
      <trkpt lat="43.20264899" lon="-2.71196099">
        <ele>151.69556</ele>
        <time>2019-11-21T17:01:14Z</time>
      </trkpt>
      <trkpt lat="43.20290902" lon="-2.71225332">
        <ele>151.24359</ele>
        <time>2019-11-21T17:01:15Z</time>
      </trkpt>
      <trkpt lat="43.20304193" lon="-2.7123505">
        <ele>149.85364</ele>
        <time>2019-11-21T17:01:16Z</time>
      </trkpt>
      <trkpt lat="43.20317653" lon="-2.71245241">
        <ele>149.98535</ele>
        <time>2019-11-21T17:01:17Z</time>
      </trkpt>
      <trkpt lat="43.20330404" lon="-2.71259154">
        <ele>151.16956</ele>
        <time>2019-11-21T17:01:18Z</time>
      </trkpt>
      <trkpt lat="43.20343538" lon="-2.7127135">
        <ele>176.70618</ele>
        <time>2019-11-21T17:01:19Z</time>
      </trkpt>
      <trkpt lat="43.20356687" lon="-2.71285685">
        <ele>174.45032</ele>
        <time>2019-11-21T17:01:20Z</time>
      </trkpt>
      <trkpt lat="43.20374434" lon="-2.7130939">
        <ele>167.16809</ele>
        <time>2019-11-21T17:01:22Z</time>
      </trkpt>
      <trkpt lat="43.20387587" lon="-2.7132384">
        <ele>165.18079</ele>
        <time>2019-11-21T17:01:23Z</time>
      </trkpt>
      <trkpt lat="43.20400701" lon="-2.7133642">
        <ele>163.46167</ele>
        <time>2019-11-21T17:01:24Z</time>
      </trkpt>
      <trkpt lat="43.2042402" lon="-2.71357351">
        <ele>160.91492</ele>
        <time>2019-11-21T17:01:26Z</time>
      </trkpt>
      <trkpt lat="43.20436645" lon="-2.71372141">
        <ele>159.5221</ele>
        <time>2019-11-21T17:01:27Z</time>
      </trkpt>
      <trkpt lat="43.20461069" lon="-2.71390499">
        <ele>156.67847</ele>
        <time>2019-11-21T17:01:29Z</time>
      </trkpt>
      <trkpt lat="43.20473966" lon="-2.71402631">
        <ele>155.92725</ele>
        <time>2019-11-21T17:01:30Z</time>
      </trkpt>
      <trkpt lat="43.20486687" lon="-2.71414257">
        <ele>155.16101</ele>
        <time>2019-11-21T17:01:32Z</time>
      </trkpt>
      <trkpt lat="43.20500774" lon="-2.71422284">
        <ele>154.71619</ele>
        <time>2019-11-21T17:01:33Z</time>
      </trkpt>
      <trkpt lat="43.2051145" lon="-2.71434107">
        <ele>152.88806</ele>
        <time>2019-11-21T17:01:34Z</time>
      </trkpt>
      <trkpt lat="43.2052519" lon="-2.71444994">
        <ele>151.03772</ele>
        <time>2019-11-21T17:01:35Z</time>
      </trkpt>
      <trkpt lat="43.20548569" lon="-2.71466156">
        <ele>145.73895</ele>
        <time>2019-11-21T17:01:37Z</time>
      </trkpt>
      <trkpt lat="43.20570456" lon="-2.71485558">
        <ele>145.78033</ele>
        <time>2019-11-21T17:01:39Z</time>
      </trkpt>
      <trkpt lat="43.20588019" lon="-2.71502186">
        <ele>146.81506</ele>
        <time>2019-11-21T17:01:41Z</time>
      </trkpt>
      <trkpt lat="43.20599687" lon="-2.7151228">
        <ele>146.72772</ele>
        <time>2019-11-21T17:01:42Z</time>
      </trkpt>
      <trkpt lat="43.20620435" lon="-2.71531567">
        <ele>146.66638</ele>
        <time>2019-11-21T17:01:44Z</time>
      </trkpt>
      <trkpt lat="43.20639025" lon="-2.71550867">
        <ele>146.6001</ele>
        <time>2019-11-21T17:01:46Z</time>
      </trkpt>
      <trkpt lat="43.20651227" lon="-2.71561416">
        <ele>146.57776</ele>
        <time>2019-11-21T17:01:47Z</time>
      </trkpt>
      <trkpt lat="43.20661079" lon="-2.71576106">
        <ele>146.6012</ele>
        <time>2019-11-21T17:01:48Z</time>
      </trkpt>
      <trkpt lat="43.2067508" lon="-2.71584134">
        <ele>146.8153</ele>
        <time>2019-11-21T17:01:49Z</time>
      </trkpt>
      <trkpt lat="43.20694704" lon="-2.71612048">
        <ele>147.37567</ele>
        <time>2019-11-21T17:01:50Z</time>
      </trkpt>
      <trkpt lat="43.20713897" lon="-2.71633749">
        <ele>148.6164</ele>
        <time>2019-11-21T17:01:52Z</time>
      </trkpt>
      <trkpt lat="43.20725293" lon="-2.71648574">
        <ele>147.74438</ele>
        <time>2019-11-21T17:01:53Z</time>
      </trkpt>
      <trkpt lat="43.20738513" lon="-2.7165769">
        <ele>149.00378</ele>
        <time>2019-11-21T17:01:54Z</time>
      </trkpt>
      <trkpt lat="43.20747007" lon="-2.71677049">
        <ele>152.66516</ele>
        <time>2019-11-21T17:01:55Z</time>
      </trkpt>
      <trkpt lat="43.20756887" lon="-2.71690243">
        <ele>153.74652</ele>
        <time>2019-11-21T17:01:56Z</time>
      </trkpt>
      <trkpt lat="43.20775777" lon="-2.71718948">
        <ele>155.72382</ele>
        <time>2019-11-21T17:01:58Z</time>
      </trkpt>
      <trkpt lat="43.20788819" lon="-2.71724793">
        <ele>152.74817</ele>
        <time>2019-11-21T17:01:59Z</time>
      </trkpt>
      <trkpt lat="43.20798827" lon="-2.71739764">
        <ele>153.76526</ele>
        <time>2019-11-21T17:02:00Z</time>
      </trkpt>
      <trkpt lat="43.20808192" lon="-2.7175403">
        <ele>153.47546</ele>
        <time>2019-11-21T17:02:01Z</time>
      </trkpt>
      <trkpt lat="43.20818225" lon="-2.71768044">
        <ele>149.93848</ele>
        <time>2019-11-21T17:02:02Z</time>
      </trkpt>
      <trkpt lat="43.20827677" lon="-2.71784867">
        <ele>151.04083</ele>
        <time>2019-11-21T17:02:04Z</time>
      </trkpt>
      <trkpt lat="43.20839015" lon="-2.71801825">
        <ele>149.53625</ele>
        <time>2019-11-21T17:02:05Z</time>
      </trkpt>
      <trkpt lat="43.2086138" lon="-2.7183045">
        <ele>149.745</ele>
        <time>2019-11-21T17:02:07Z</time>
      </trkpt>
      <trkpt lat="43.20873434" lon="-2.7184826">
        <ele>148.89136</ele>
        <time>2019-11-21T17:02:08Z</time>
      </trkpt>
      <trkpt lat="43.20883592" lon="-2.71864083">
        <ele>151.2268</ele>
        <time>2019-11-21T17:02:09Z</time>
      </trkpt>
      <trkpt lat="43.20892675" lon="-2.71878757">
        <ele>149.94025</ele>
        <time>2019-11-21T17:02:10Z</time>
      </trkpt>
      <trkpt lat="43.20903513" lon="-2.71894934">
        <ele>147.48566</ele>
        <time>2019-11-21T17:02:11Z</time>
      </trkpt>
      <trkpt lat="43.20914572" lon="-2.71911355">
        <ele>147.72693</ele>
        <time>2019-11-21T17:02:12Z</time>
      </trkpt>
      <trkpt lat="43.20926693" lon="-2.71928543">
        <ele>147.07806</ele>
        <time>2019-11-21T17:02:13Z</time>
      </trkpt>
      <trkpt lat="43.20936459" lon="-2.71946758">
        <ele>143.14355</ele>
        <time>2019-11-21T17:02:14Z</time>
      </trkpt>
      <trkpt lat="43.20947972" lon="-2.71963752">
        <ele>145.67322</ele>
        <time>2019-11-21T17:02:15Z</time>
      </trkpt>
      <trkpt lat="43.2095745" lon="-2.71979543">
        <ele>146.24768</ele>
        <time>2019-11-21T17:02:16Z</time>
      </trkpt>
      <trkpt lat="43.20969131" lon="-2.7199657">
        <ele>144.9314</ele>
        <time>2019-11-21T17:02:17Z</time>
      </trkpt>
      <trkpt lat="43.20980332" lon="-2.7201271">
        <ele>146.09692</ele>
        <time>2019-11-21T17:02:18Z</time>
      </trkpt>
      <trkpt lat="43.20991536" lon="-2.72030185">
        <ele>147.25903</ele>
        <time>2019-11-21T17:02:19Z</time>
      </trkpt>
      <trkpt lat="43.21003299" lon="-2.72046997">
        <ele>145.62122</ele>
        <time>2019-11-21T17:02:20Z</time>
      </trkpt>
      <trkpt lat="43.21014793" lon="-2.72063925">
        <ele>143.18805</ele>
        <time>2019-11-21T17:02:21Z</time>
      </trkpt>
      <trkpt lat="43.21040121" lon="-2.72091398">
        <ele>143.0133</ele>
        <time>2019-11-21T17:02:22Z</time>
      </trkpt>
      <trkpt lat="43.21054656" lon="-2.72101699">
        <ele>143.80957</ele>
        <time>2019-11-21T17:02:23Z</time>
      </trkpt>
      <trkpt lat="43.210717" lon="-2.72114957">
        <ele>143.38824</ele>
        <time>2019-11-21T17:02:24Z</time>
      </trkpt>
      <trkpt lat="43.21086592" lon="-2.72125539">
        <ele>145.00421</ele>
        <time>2019-11-21T17:02:25Z</time>
      </trkpt>
      <trkpt lat="43.21100625" lon="-2.72134876">
        <ele>141.73438</ele>
        <time>2019-11-21T17:02:26Z</time>
      </trkpt>
      <trkpt lat="43.21114897" lon="-2.72144813">
        <ele>138.95514</ele>
        <time>2019-11-21T17:02:27Z</time>
      </trkpt>
      <trkpt lat="43.21133756" lon="-2.72152349">
        <ele>136.92358</ele>
        <time>2019-11-21T17:02:28Z</time>
      </trkpt>
      <trkpt lat="43.21150872" lon="-2.72159051">
        <ele>136.98578</ele>
        <time>2019-11-21T17:02:29Z</time>
      </trkpt>
      <trkpt lat="43.21170643" lon="-2.72165135">
        <ele>139.5904</ele>
        <time>2019-11-21T17:02:30Z</time>
      </trkpt>
      <trkpt lat="43.21191517" lon="-2.72171133">
        <ele>144.16785</ele>
        <time>2019-11-21T17:02:31Z</time>
      </trkpt>
      <trkpt lat="43.21206967" lon="-2.72172823">
        <ele>143.12024</ele>
        <time>2019-11-21T17:02:32Z</time>
      </trkpt>
      <trkpt lat="43.2122521" lon="-2.72173328">
        <ele>143.25745</ele>
        <time>2019-11-21T17:02:33Z</time>
      </trkpt>
      <trkpt lat="43.21243197" lon="-2.72173549">
        <ele>143.55127</ele>
        <time>2019-11-21T17:02:34Z</time>
      </trkpt>
      <trkpt lat="43.21261152" lon="-2.72175156">
        <ele>143.42108</ele>
        <time>2019-11-21T17:02:35Z</time>
      </trkpt>
      <trkpt lat="43.21278536" lon="-2.72177747">
        <ele>143.91522</ele>
        <time>2019-11-21T17:02:37Z</time>
      </trkpt>
      <trkpt lat="43.21295348" lon="-2.72180941">
        <ele>143.46942</ele>
        <time>2019-11-21T17:02:38Z</time>
      </trkpt>
      <trkpt lat="43.21312244" lon="-2.72186689">
        <ele>141.8407</ele>
        <time>2019-11-21T17:02:39Z</time>
      </trkpt>
      <trkpt lat="43.21327414" lon="-2.72192201">
        <ele>142.00323</ele>
        <time>2019-11-21T17:02:40Z</time>
      </trkpt>
      <trkpt lat="43.21343404" lon="-2.7219853">
        <ele>143.30957</ele>
        <time>2019-11-21T17:02:41Z</time>
      </trkpt>
      <trkpt lat="43.21356804" lon="-2.72206606">
        <ele>140.71332</ele>
        <time>2019-11-21T17:02:42Z</time>
      </trkpt>
      <trkpt lat="43.21372364" lon="-2.72215798">
        <ele>141.15625</ele>
        <time>2019-11-21T17:02:43Z</time>
      </trkpt>
      <trkpt lat="43.21386235" lon="-2.72226516">
        <ele>141.11523</ele>
        <time>2019-11-21T17:02:44Z</time>
      </trkpt>
      <trkpt lat="43.21400102" lon="-2.72238631">
        <ele>141.07947</ele>
        <time>2019-11-21T17:02:45Z</time>
      </trkpt>
      <trkpt lat="43.21413908" lon="-2.72252349">
        <ele>139.82611</ele>
        <time>2019-11-21T17:02:47Z</time>
      </trkpt>
      <trkpt lat="43.21439679" lon="-2.72282274">
        <ele>138.91492</ele>
        <time>2019-11-21T17:02:48Z</time>
      </trkpt>
      <trkpt lat="43.21452524" lon="-2.72297915">
        <ele>139.09937</ele>
        <time>2019-11-21T17:02:49Z</time>
      </trkpt>
      <trkpt lat="43.21465604" lon="-2.72312994">
        <ele>138.79974</ele>
        <time>2019-11-21T17:02:50Z</time>
      </trkpt>
      <trkpt lat="43.21478307" lon="-2.72328851">
        <ele>138.4173</ele>
        <time>2019-11-21T17:02:51Z</time>
      </trkpt>
      <trkpt lat="43.21491588" lon="-2.72344647">
        <ele>137.47095</ele>
        <time>2019-11-21T17:02:52Z</time>
      </trkpt>
      <trkpt lat="43.21506032" lon="-2.72359436">
        <ele>139.51337</ele>
        <time>2019-11-21T17:02:53Z</time>
      </trkpt>
      <trkpt lat="43.21519386" lon="-2.72372956">
        <ele>138.10101</ele>
        <time>2019-11-21T17:02:54Z</time>
      </trkpt>
      <trkpt lat="43.21534427" lon="-2.72386198">
        <ele>137.69641</ele>
        <time>2019-11-21T17:02:55Z</time>
      </trkpt>
      <trkpt lat="43.21550608" lon="-2.72399196">
        <ele>137.96484</ele>
        <time>2019-11-21T17:02:56Z</time>
      </trkpt>
      <trkpt lat="43.21563151" lon="-2.72412818">
        <ele>137.12042</ele>
        <time>2019-11-21T17:02:57Z</time>
      </trkpt>
      <trkpt lat="43.21578609" lon="-2.72423419">
        <ele>136.1532</ele>
        <time>2019-11-21T17:02:58Z</time>
      </trkpt>
      <trkpt lat="43.2161076" lon="-2.7244215">
        <ele>135.74304</ele>
        <time>2019-11-21T17:02:59Z</time>
      </trkpt>
      <trkpt lat="43.21625892" lon="-2.72450085">
        <ele>134.86768</ele>
        <time>2019-11-21T17:03:00Z</time>
      </trkpt>
      <trkpt lat="43.2164179" lon="-2.72457196">
        <ele>135.47949</ele>
        <time>2019-11-21T17:03:01Z</time>
      </trkpt>
      <trkpt lat="43.21658214" lon="-2.72463243">
        <ele>133.81396</ele>
        <time>2019-11-21T17:03:02Z</time>
      </trkpt>
      <trkpt lat="43.2167469" lon="-2.72468682">
        <ele>132.68695</ele>
        <time>2019-11-21T17:03:03Z</time>
      </trkpt>
      <trkpt lat="43.21692159" lon="-2.72474147">
        <ele>133.20142</ele>
        <time>2019-11-21T17:03:04Z</time>
      </trkpt>
      <trkpt lat="43.21708256" lon="-2.7247973">
        <ele>133.16504</ele>
        <time>2019-11-21T17:03:05Z</time>
      </trkpt>
      <trkpt lat="43.2172555" lon="-2.72485044">
        <ele>133.08795</ele>
        <time>2019-11-21T17:03:06Z</time>
      </trkpt>
      <trkpt lat="43.21761062" lon="-2.72493764">
        <ele>131.71375</ele>
        <time>2019-11-21T17:03:08Z</time>
      </trkpt>
      <trkpt lat="43.21779993" lon="-2.72498648">
        <ele>131.50085</ele>
        <time>2019-11-21T17:03:09Z</time>
      </trkpt>
      <trkpt lat="43.21798239" lon="-2.7250417">
        <ele>130.47113</ele>
        <time>2019-11-21T17:03:11Z</time>
      </trkpt>
      <trkpt lat="43.21815481" lon="-2.72509661">
        <ele>131.31995</ele>
        <time>2019-11-21T17:03:12Z</time>
      </trkpt>
      <trkpt lat="43.21830698" lon="-2.72516138">
        <ele>131.65436</ele>
        <time>2019-11-21T17:03:13Z</time>
      </trkpt>
      <trkpt lat="43.21848826" lon="-2.72522507">
        <ele>132.41577</ele>
        <time>2019-11-21T17:03:14Z</time>
      </trkpt>
      <trkpt lat="43.21867193" lon="-2.72529635">
        <ele>133.38312</ele>
        <time>2019-11-21T17:03:15Z</time>
      </trkpt>
      <trkpt lat="43.21882551" lon="-2.72536231">
        <ele>133.05591</ele>
        <time>2019-11-21T17:03:16Z</time>
      </trkpt>
      <trkpt lat="43.21899689" lon="-2.72543943">
        <ele>132.22308</ele>
        <time>2019-11-21T17:03:17Z</time>
      </trkpt>
      <trkpt lat="43.21917609" lon="-2.72551643">
        <ele>131.63354</ele>
        <time>2019-11-21T17:03:18Z</time>
      </trkpt>
      <trkpt lat="43.21935542" lon="-2.72559971">
        <ele>130.46863</ele>
        <time>2019-11-21T17:03:19Z</time>
      </trkpt>
      <trkpt lat="43.21951164" lon="-2.72567566">
        <ele>131.29517</ele>
        <time>2019-11-21T17:03:20Z</time>
      </trkpt>
      <trkpt lat="43.21969456" lon="-2.72575676">
        <ele>132.22314</ele>
        <time>2019-11-21T17:03:21Z</time>
      </trkpt>
      <trkpt lat="43.21986902" lon="-2.72582694">
        <ele>135.14325</ele>
        <time>2019-11-21T17:03:22Z</time>
      </trkpt>
      <trkpt lat="43.22004637" lon="-2.72589388">
        <ele>136.2218</ele>
        <time>2019-11-21T17:03:23Z</time>
      </trkpt>
      <trkpt lat="43.22023685" lon="-2.72598149">
        <ele>135.11493</ele>
        <time>2019-11-21T17:03:24Z</time>
      </trkpt>
      <trkpt lat="43.22040837" lon="-2.72606451">
        <ele>136.41797</ele>
        <time>2019-11-21T17:03:25Z</time>
      </trkpt>
      <trkpt lat="43.22058863" lon="-2.72614652">
        <ele>136.31372</ele>
        <time>2019-11-21T17:03:26Z</time>
      </trkpt>
      <trkpt lat="43.22075169" lon="-2.72622541">
        <ele>135.60767</ele>
        <time>2019-11-21T17:03:27Z</time>
      </trkpt>
      <trkpt lat="43.22110734" lon="-2.72638115">
        <ele>137.27582</ele>
        <time>2019-11-21T17:03:28Z</time>
      </trkpt>
      <trkpt lat="43.22128923" lon="-2.72646418">
        <ele>138.776</ele>
        <time>2019-11-21T17:03:29Z</time>
      </trkpt>
      <trkpt lat="43.22144216" lon="-2.72655381">
        <ele>137.3158</ele>
        <time>2019-11-21T17:03:30Z</time>
      </trkpt>
      <trkpt lat="43.22162692" lon="-2.72664423">
        <ele>137.37598</ele>
        <time>2019-11-21T17:03:31Z</time>
      </trkpt>
      <trkpt lat="43.2218204" lon="-2.7267413">
        <ele>138.08997</ele>
        <time>2019-11-21T17:03:32Z</time>
      </trkpt>
      <trkpt lat="43.221989" lon="-2.72685253">
        <ele>137.31927</ele>
        <time>2019-11-21T17:03:33Z</time>
      </trkpt>
      <trkpt lat="43.22214124" lon="-2.72696876">
        <ele>135.06769</ele>
        <time>2019-11-21T17:03:34Z</time>
      </trkpt>
      <trkpt lat="43.22229566" lon="-2.72710586">
        <ele>135.58734</ele>
        <time>2019-11-21T17:03:35Z</time>
      </trkpt>
      <trkpt lat="43.22243806" lon="-2.72724946">
        <ele>135.6872</ele>
        <time>2019-11-21T17:03:36Z</time>
      </trkpt>
      <trkpt lat="43.22257348" lon="-2.72740389">
        <ele>134.64899</ele>
        <time>2019-11-21T17:03:37Z</time>
      </trkpt>
      <trkpt lat="43.22270483" lon="-2.72757537">
        <ele>134.6372</ele>
        <time>2019-11-21T17:03:38Z</time>
      </trkpt>
      <trkpt lat="43.22283608" lon="-2.72774149">
        <ele>134.78406</ele>
        <time>2019-11-21T17:03:39Z</time>
      </trkpt>
      <trkpt lat="43.22295948" lon="-2.72793062">
        <ele>134.8487</ele>
        <time>2019-11-21T17:03:40Z</time>
      </trkpt>
      <trkpt lat="43.22308266" lon="-2.72810933">
        <ele>135.59564</ele>
        <time>2019-11-21T17:03:41Z</time>
      </trkpt>
      <trkpt lat="43.22319817" lon="-2.72830104">
        <ele>135.2121</ele>
        <time>2019-11-21T17:03:43Z</time>
      </trkpt>
      <trkpt lat="43.22330992" lon="-2.7284841">
        <ele>134.97064</ele>
        <time>2019-11-21T17:03:44Z</time>
      </trkpt>
      <trkpt lat="43.22340131" lon="-2.7286955">
        <ele>134.76025</ele>
        <time>2019-11-21T17:03:45Z</time>
      </trkpt>
      <trkpt lat="43.22350026" lon="-2.72890562">
        <ele>135.02838</ele>
        <time>2019-11-21T17:03:46Z</time>
      </trkpt>
      <trkpt lat="43.2235741" lon="-2.72912492">
        <ele>133.34406</ele>
        <time>2019-11-21T17:03:47Z</time>
      </trkpt>
      <trkpt lat="43.22364986" lon="-2.72935195">
        <ele>132.61597</ele>
        <time>2019-11-21T17:03:48Z</time>
      </trkpt>
      <trkpt lat="43.22369754" lon="-2.72958733">
        <ele>129.88641</ele>
        <time>2019-11-21T17:03:49Z</time>
      </trkpt>
      <trkpt lat="43.22376663" lon="-2.72981677">
        <ele>129.01343</ele>
        <time>2019-11-21T17:03:50Z</time>
      </trkpt>
      <trkpt lat="43.22383633" lon="-2.73004886">
        <ele>128.4862</ele>
        <time>2019-11-21T17:03:51Z</time>
      </trkpt>
      <trkpt lat="43.2239" lon="-2.73028614">
        <ele>127.660645</ele>
        <time>2019-11-21T17:03:52Z</time>
      </trkpt>
      <trkpt lat="43.22396786" lon="-2.73051929">
        <ele>127.48474</ele>
        <time>2019-11-21T17:03:53Z</time>
      </trkpt>
      <trkpt lat="43.22403129" lon="-2.73076054">
        <ele>127.42474</ele>
        <time>2019-11-21T17:03:54Z</time>
      </trkpt>
      <trkpt lat="43.22409863" lon="-2.73100501">
        <ele>127.168945</ele>
        <time>2019-11-21T17:03:55Z</time>
      </trkpt>
      <trkpt lat="43.22415446" lon="-2.73125111">
        <ele>127.35602</ele>
        <time>2019-11-21T17:03:56Z</time>
      </trkpt>
      <trkpt lat="43.2242243" lon="-2.73150427">
        <ele>127.38544</ele>
        <time>2019-11-21T17:03:57Z</time>
      </trkpt>
      <trkpt lat="43.22436872" lon="-2.73200449">
        <ele>127.58539</ele>
        <time>2019-11-21T17:03:58Z</time>
      </trkpt>
      <trkpt lat="43.22441866" lon="-2.73225346">
        <ele>127.19348</ele>
        <time>2019-11-21T17:03:59Z</time>
      </trkpt>
      <trkpt lat="43.22447282" lon="-2.73250109">
        <ele>127.47778</ele>
        <time>2019-11-21T17:04:00Z</time>
      </trkpt>
      <trkpt lat="43.22452609" lon="-2.73273894">
        <ele>127.03656</ele>
        <time>2019-11-21T17:04:01Z</time>
      </trkpt>
      <trkpt lat="43.22458518" lon="-2.73296893">
        <ele>126.60431</ele>
        <time>2019-11-21T17:04:02Z</time>
      </trkpt>
      <trkpt lat="43.22463531" lon="-2.73321216">
        <ele>126.10498</ele>
        <time>2019-11-21T17:04:03Z</time>
      </trkpt>
      <trkpt lat="43.22467631" lon="-2.73346305">
        <ele>126.7948</ele>
        <time>2019-11-21T17:04:04Z</time>
      </trkpt>
      <trkpt lat="43.22471574" lon="-2.73370182">
        <ele>125.60919</ele>
        <time>2019-11-21T17:04:05Z</time>
      </trkpt>
      <trkpt lat="43.22475676" lon="-2.73394547">
        <ele>125.83661</ele>
        <time>2019-11-21T17:04:06Z</time>
      </trkpt>
      <trkpt lat="43.22480554" lon="-2.73418696">
        <ele>126.128235</ele>
        <time>2019-11-21T17:04:07Z</time>
      </trkpt>
      <trkpt lat="43.2248578" lon="-2.73442374">
        <ele>126.28479</ele>
        <time>2019-11-21T17:04:08Z</time>
      </trkpt>
      <trkpt lat="43.22491125" lon="-2.73465317">
        <ele>125.76843</ele>
        <time>2019-11-21T17:04:09Z</time>
      </trkpt>
      <trkpt lat="43.224972" lon="-2.73487883">
        <ele>124.76965</ele>
        <time>2019-11-21T17:04:10Z</time>
      </trkpt>
      <trkpt lat="43.22503442" lon="-2.7351123">
        <ele>125.93378</ele>
        <time>2019-11-21T17:04:12Z</time>
      </trkpt>
      <trkpt lat="43.22510287" lon="-2.73535402">
        <ele>126.97052</ele>
        <time>2019-11-21T17:04:13Z</time>
      </trkpt>
      <trkpt lat="43.22518801" lon="-2.73559307">
        <ele>127.75891</ele>
        <time>2019-11-21T17:04:14Z</time>
      </trkpt>
      <trkpt lat="43.22528236" lon="-2.73582343">
        <ele>128.31934</ele>
        <time>2019-11-21T17:04:15Z</time>
      </trkpt>
      <trkpt lat="43.22537102" lon="-2.73605275">
        <ele>128.90167</ele>
        <time>2019-11-21T17:04:16Z</time>
      </trkpt>
      <trkpt lat="43.22546265" lon="-2.73627035">
        <ele>129.8692</ele>
        <time>2019-11-21T17:04:17Z</time>
      </trkpt>
      <trkpt lat="43.22555361" lon="-2.7364718">
        <ele>130.20483</ele>
        <time>2019-11-21T17:04:18Z</time>
      </trkpt>
      <trkpt lat="43.22564158" lon="-2.73668746">
        <ele>131.70776</ele>
        <time>2019-11-21T17:04:19Z</time>
      </trkpt>
      <trkpt lat="43.22572216" lon="-2.73688475">
        <ele>131.48792</ele>
        <time>2019-11-21T17:04:20Z</time>
      </trkpt>
      <trkpt lat="43.22579682" lon="-2.73707806">
        <ele>131.94666</ele>
        <time>2019-11-21T17:04:21Z</time>
      </trkpt>
      <trkpt lat="43.22588371" lon="-2.7372751">
        <ele>132.4198</ele>
        <time>2019-11-21T17:04:22Z</time>
      </trkpt>
      <trkpt lat="43.22596618" lon="-2.73747794">
        <ele>133.38385</ele>
        <time>2019-11-21T17:04:23Z</time>
      </trkpt>
      <trkpt lat="43.22604193" lon="-2.73768474">
        <ele>133.95319</ele>
        <time>2019-11-21T17:04:24Z</time>
      </trkpt>
      <trkpt lat="43.22611191" lon="-2.73789336">
        <ele>134.1023</ele>
        <time>2019-11-21T17:04:25Z</time>
      </trkpt>
      <trkpt lat="43.22617625" lon="-2.73810593">
        <ele>135.4325</ele>
        <time>2019-11-21T17:04:26Z</time>
      </trkpt>
      <trkpt lat="43.22623452" lon="-2.73831606">
        <ele>136.83215</ele>
        <time>2019-11-21T17:04:27Z</time>
      </trkpt>
      <trkpt lat="43.22628978" lon="-2.73852683">
        <ele>137.5116</ele>
        <time>2019-11-21T17:04:28Z</time>
      </trkpt>
      <trkpt lat="43.22633945" lon="-2.73873632">
        <ele>138.07153</ele>
        <time>2019-11-21T17:04:29Z</time>
      </trkpt>
      <trkpt lat="43.22645324" lon="-2.73917446">
        <ele>140.14606</ele>
        <time>2019-11-21T17:04:30Z</time>
      </trkpt>
      <trkpt lat="43.22649706" lon="-2.73940079">
        <ele>140.04626</ele>
        <time>2019-11-21T17:04:31Z</time>
      </trkpt>
      <trkpt lat="43.22654217" lon="-2.73962498">
        <ele>140.68561</ele>
        <time>2019-11-21T17:04:32Z</time>
      </trkpt>
      <trkpt lat="43.2265906" lon="-2.73982869">
        <ele>141.42761</ele>
        <time>2019-11-21T17:04:33Z</time>
      </trkpt>
      <trkpt lat="43.2266294" lon="-2.74005102">
        <ele>136.5279</ele>
        <time>2019-11-21T17:04:34Z</time>
      </trkpt>
      <trkpt lat="43.22665979" lon="-2.74027001">
        <ele>138.86798</ele>
        <time>2019-11-21T17:04:35Z</time>
      </trkpt>
      <trkpt lat="43.22669448" lon="-2.74048857">
        <ele>139.29395</ele>
        <time>2019-11-21T17:04:36Z</time>
      </trkpt>
      <trkpt lat="43.22673163" lon="-2.74071597">
        <ele>138.23541</ele>
        <time>2019-11-21T17:04:37Z</time>
      </trkpt>
      <trkpt lat="43.22677672" lon="-2.74095087">
        <ele>139.26611</ele>
        <time>2019-11-21T17:04:38Z</time>
      </trkpt>
      <trkpt lat="43.22681607" lon="-2.74118936">
        <ele>141.31891</ele>
        <time>2019-11-21T17:04:39Z</time>
      </trkpt>
      <trkpt lat="43.22686953" lon="-2.7414043">
        <ele>142.57019</ele>
        <time>2019-11-21T17:04:40Z</time>
      </trkpt>
      <trkpt lat="43.22691419" lon="-2.74162078">
        <ele>143.76685</ele>
        <time>2019-11-21T17:04:41Z</time>
      </trkpt>
      <trkpt lat="43.22696893" lon="-2.74182727">
        <ele>144.49866</ele>
        <time>2019-11-21T17:04:43Z</time>
      </trkpt>
      <trkpt lat="43.22703385" lon="-2.74203376">
        <ele>144.76965</ele>
        <time>2019-11-21T17:04:44Z</time>
      </trkpt>
      <trkpt lat="43.2270929" lon="-2.74225206">
        <ele>145.82446</ele>
        <time>2019-11-21T17:04:45Z</time>
      </trkpt>
      <trkpt lat="43.22715918" lon="-2.74246463">
        <ele>146.86157</ele>
        <time>2019-11-21T17:04:46Z</time>
      </trkpt>
      <trkpt lat="43.22723317" lon="-2.74269666">
        <ele>147.87604</ele>
        <time>2019-11-21T17:04:47Z</time>
      </trkpt>
      <trkpt lat="43.22731916" lon="-2.74291331">
        <ele>148.63239</ele>
        <time>2019-11-21T17:04:48Z</time>
      </trkpt>
      <trkpt lat="43.2274169" lon="-2.74313267">
        <ele>148.54419</ele>
        <time>2019-11-21T17:04:49Z</time>
      </trkpt>
      <trkpt lat="43.22751478" lon="-2.74335844">
        <ele>148.55444</ele>
        <time>2019-11-21T17:04:50Z</time>
      </trkpt>
      <trkpt lat="43.22763141" lon="-2.74354017">
        <ele>143.25305</ele>
        <time>2019-11-21T17:04:51Z</time>
      </trkpt>
      <trkpt lat="43.22773228" lon="-2.74375499">
        <ele>143.01245</ele>
        <time>2019-11-21T17:04:52Z</time>
      </trkpt>
      <trkpt lat="43.22781588" lon="-2.74395978">
        <ele>142.16699</ele>
        <time>2019-11-21T17:04:53Z</time>
      </trkpt>
      <trkpt lat="43.22791236" lon="-2.74411691">
        <ele>139.23419</ele>
        <time>2019-11-21T17:04:54Z</time>
      </trkpt>
      <trkpt lat="43.22798974" lon="-2.74433029">
        <ele>139.1399</ele>
        <time>2019-11-21T17:04:55Z</time>
      </trkpt>
      <trkpt lat="43.2280629" lon="-2.74455001">
        <ele>138.3501</ele>
        <time>2019-11-21T17:04:56Z</time>
      </trkpt>
      <trkpt lat="43.22813591" lon="-2.74477981">
        <ele>138.0813</ele>
        <time>2019-11-21T17:04:57Z</time>
      </trkpt>
      <trkpt lat="43.22819474" lon="-2.74501605">
        <ele>137.8125</ele>
        <time>2019-11-21T17:04:58Z</time>
      </trkpt>
      <trkpt lat="43.22829686" lon="-2.74550594">
        <ele>139.14484</ele>
        <time>2019-11-21T17:04:59Z</time>
      </trkpt>
      <trkpt lat="43.22831922" lon="-2.74576018">
        <ele>138.82666</ele>
        <time>2019-11-21T17:05:00Z</time>
      </trkpt>
      <trkpt lat="43.22834361" lon="-2.746015">
        <ele>139.50214</ele>
        <time>2019-11-21T17:05:01Z</time>
      </trkpt>
      <trkpt lat="43.22835972" lon="-2.74626352">
        <ele>140.63593</ele>
        <time>2019-11-21T17:05:02Z</time>
      </trkpt>
      <trkpt lat="43.22836561" lon="-2.74652459">
        <ele>142.66187</ele>
        <time>2019-11-21T17:05:03Z</time>
      </trkpt>
      <trkpt lat="43.22833759" lon="-2.7467806">
        <ele>143.36835</ele>
        <time>2019-11-21T17:05:04Z</time>
      </trkpt>
      <trkpt lat="43.22830939" lon="-2.74704523">
        <ele>144.48047</ele>
        <time>2019-11-21T17:05:05Z</time>
      </trkpt>
      <trkpt lat="43.22828427" lon="-2.7472983">
        <ele>146.44629</ele>
        <time>2019-11-21T17:05:06Z</time>
      </trkpt>
      <trkpt lat="43.22826264" lon="-2.74755552">
        <ele>146.98181</ele>
        <time>2019-11-21T17:05:07Z</time>
      </trkpt>
      <trkpt lat="43.22824306" lon="-2.74779662">
        <ele>145.89514</ele>
        <time>2019-11-21T17:05:08Z</time>
      </trkpt>
      <trkpt lat="43.22821306" lon="-2.74806213">
        <ele>146.93176</ele>
        <time>2019-11-21T17:05:09Z</time>
      </trkpt>
      <trkpt lat="43.22818129" lon="-2.74833237">
        <ele>147.67346</ele>
        <time>2019-11-21T17:05:10Z</time>
      </trkpt>
      <trkpt lat="43.22815803" lon="-2.74860205">
        <ele>149.05298</ele>
        <time>2019-11-21T17:05:11Z</time>
      </trkpt>
      <trkpt lat="43.22814388" lon="-2.74887212">
        <ele>150.19336</ele>
        <time>2019-11-21T17:05:13Z</time>
      </trkpt>
      <trkpt lat="43.2281362" lon="-2.74913133">
        <ele>150.14197</ele>
        <time>2019-11-21T17:05:14Z</time>
      </trkpt>
      <trkpt lat="43.22813173" lon="-2.74938698">
        <ele>150.12927</ele>
        <time>2019-11-21T17:05:15Z</time>
      </trkpt>
      <trkpt lat="43.22814555" lon="-2.74963757">
        <ele>150.18347</ele>
        <time>2019-11-21T17:05:16Z</time>
      </trkpt>
      <trkpt lat="43.22816285" lon="-2.749885">
        <ele>150.08618</ele>
        <time>2019-11-21T17:05:17Z</time>
      </trkpt>
      <trkpt lat="43.22819126" lon="-2.75012023">
        <ele>149.65521</ele>
        <time>2019-11-21T17:05:18Z</time>
      </trkpt>
      <trkpt lat="43.22822509" lon="-2.75034864">
        <ele>149.19214</ele>
        <time>2019-11-21T17:05:19Z</time>
      </trkpt>
      <trkpt lat="43.22825602" lon="-2.75056873">
        <ele>149.20325</ele>
        <time>2019-11-21T17:05:20Z</time>
      </trkpt>
      <trkpt lat="43.22829561" lon="-2.75078067">
        <ele>149.65894</ele>
        <time>2019-11-21T17:05:21Z</time>
      </trkpt>
      <trkpt lat="43.22833362" lon="-2.7509979">
        <ele>150.17615</ele>
        <time>2019-11-21T17:05:22Z</time>
      </trkpt>
      <trkpt lat="43.22838268" lon="-2.75122599">
        <ele>150.29327</ele>
        <time>2019-11-21T17:05:23Z</time>
      </trkpt>
      <trkpt lat="43.2284303" lon="-2.75143954">
        <ele>150.44891</ele>
        <time>2019-11-21T17:05:24Z</time>
      </trkpt>
      <trkpt lat="43.22849989" lon="-2.75178041">
        <ele>149.46234</ele>
        <time>2019-11-21T17:05:26Z</time>
      </trkpt>
      <trkpt lat="43.22855902" lon="-2.75209448">
        <ele>149.97168</ele>
        <time>2019-11-21T17:05:28Z</time>
      </trkpt>
      <trkpt lat="43.22860828" lon="-2.75238406">
        <ele>150.65442</ele>
        <time>2019-11-21T17:05:29Z</time>
      </trkpt>
      <trkpt lat="43.22865349" lon="-2.75266964">
        <ele>150.30023</ele>
        <time>2019-11-21T17:05:31Z</time>
      </trkpt>
      <trkpt lat="43.22869762" lon="-2.75295893">
        <ele>150.86353</ele>
        <time>2019-11-21T17:05:33Z</time>
      </trkpt>
      <trkpt lat="43.2287283" lon="-2.75324456">
        <ele>150.17859</ele>
        <time>2019-11-21T17:05:35Z</time>
      </trkpt>
      <trkpt lat="43.22876695" lon="-2.75353003">
        <ele>150.16553</ele>
        <time>2019-11-21T17:05:37Z</time>
      </trkpt>
      <trkpt lat="43.22880797" lon="-2.75380956">
        <ele>148.52734</ele>
        <time>2019-11-21T17:05:39Z</time>
      </trkpt>
      <trkpt lat="43.2288525" lon="-2.75410148">
        <ele>150.45984</ele>
        <time>2019-11-21T17:05:41Z</time>
      </trkpt>
      <trkpt lat="43.22890005" lon="-2.75439593">
        <ele>149.55396</ele>
        <time>2019-11-21T17:05:43Z</time>
      </trkpt>
      <trkpt lat="43.22894394" lon="-2.75468679">
        <ele>147.78772</ele>
        <time>2019-11-21T17:05:46Z</time>
      </trkpt>
      <trkpt lat="43.22899391" lon="-2.75497267">
        <ele>147.02179</ele>
        <time>2019-11-21T17:05:48Z</time>
      </trkpt>
      <trkpt lat="43.22903665" lon="-2.75525244">
        <ele>147.2334</ele>
        <time>2019-11-21T17:05:50Z</time>
      </trkpt>
      <trkpt lat="43.22908011" lon="-2.75552722">
        <ele>147.69183</ele>
        <time>2019-11-21T17:05:52Z</time>
      </trkpt>
      <trkpt lat="43.22912418" lon="-2.75579372">
        <ele>146.4306</ele>
        <time>2019-11-21T17:05:54Z</time>
      </trkpt>
      <trkpt lat="43.22917098" lon="-2.75604256">
        <ele>145.78967</ele>
        <time>2019-11-21T17:05:56Z</time>
      </trkpt>
      <trkpt lat="43.22920191" lon="-2.75629797">
        <ele>145.3352</ele>
        <time>2019-11-21T17:05:58Z</time>
      </trkpt>
      <trkpt lat="43.22923537" lon="-2.75653211">
        <ele>145.73724</ele>
        <time>2019-11-21T17:06:00Z</time>
      </trkpt>
      <trkpt lat="43.22928726" lon="-2.75673218">
        <ele>144.60327</ele>
        <time>2019-11-21T17:06:01Z</time>
      </trkpt>
      <trkpt lat="43.22937416" lon="-2.75690833">
        <ele>144.5639</ele>
        <time>2019-11-21T17:06:03Z</time>
      </trkpt>
      <trkpt lat="43.22948893" lon="-2.75705148">
        <ele>143.40625</ele>
        <time>2019-11-21T17:06:05Z</time>
      </trkpt>
      <trkpt lat="43.22954515" lon="-2.75723723">
        <ele>142.6477</ele>
        <time>2019-11-21T17:06:07Z</time>
      </trkpt>
      <trkpt lat="43.22953165" lon="-2.75744291">
        <ele>142.55566</ele>
        <time>2019-11-21T17:06:09Z</time>
      </trkpt>
      <trkpt lat="43.22949733" lon="-2.75765531">
        <ele>142.74884</ele>
        <time>2019-11-21T17:06:11Z</time>
      </trkpt>
      <trkpt lat="43.22948922" lon="-2.75789589">
        <ele>142.52045</ele>
        <time>2019-11-21T17:06:14Z</time>
      </trkpt>
      <trkpt lat="43.22951765" lon="-2.75814353">
        <ele>142.25867</ele>
        <time>2019-11-21T17:06:16Z</time>
      </trkpt>
      <trkpt lat="43.22954811" lon="-2.75839309">
        <ele>142.48853</ele>
        <time>2019-11-21T17:06:18Z</time>
      </trkpt>
      <trkpt lat="43.22958904" lon="-2.75866467">
        <ele>143.198</ele>
        <time>2019-11-21T17:06:20Z</time>
      </trkpt>
      <trkpt lat="43.22963228" lon="-2.75894453">
        <ele>142.45032</ele>
        <time>2019-11-21T17:06:22Z</time>
      </trkpt>
      <trkpt lat="43.22968783" lon="-2.75922106">
        <ele>141.67987</ele>
        <time>2019-11-21T17:06:24Z</time>
      </trkpt>
      <trkpt lat="43.22973491" lon="-2.75953778">
        <ele>141.58923</ele>
        <time>2019-11-21T17:06:26Z</time>
      </trkpt>
      <trkpt lat="43.22978088" lon="-2.7598705">
        <ele>141.4701</ele>
        <time>2019-11-21T17:06:28Z</time>
      </trkpt>
      <trkpt lat="43.22980863" lon="-2.76005352">
        <ele>141.8346</ele>
        <time>2019-11-21T17:06:29Z</time>
      </trkpt>
      <trkpt lat="43.22983813" lon="-2.76024806">
        <ele>142.25244</ele>
        <time>2019-11-21T17:06:30Z</time>
      </trkpt>
      <trkpt lat="43.22990116" lon="-2.76063849">
        <ele>141.79999</ele>
        <time>2019-11-21T17:06:31Z</time>
      </trkpt>
      <trkpt lat="43.22993433" lon="-2.76083386">
        <ele>142.01428</ele>
        <time>2019-11-21T17:06:32Z</time>
      </trkpt>
      <trkpt lat="43.22996802" lon="-2.76103288">
        <ele>141.67554</ele>
        <time>2019-11-21T17:06:33Z</time>
      </trkpt>
      <trkpt lat="43.22999908" lon="-2.76124073">
        <ele>142.17035</ele>
        <time>2019-11-21T17:06:34Z</time>
      </trkpt>
      <trkpt lat="43.23002989" lon="-2.76145086">
        <ele>141.92181</ele>
        <time>2019-11-21T17:06:35Z</time>
      </trkpt>
      <trkpt lat="43.23006113" lon="-2.76166424">
        <ele>141.87402</ele>
        <time>2019-11-21T17:06:36Z</time>
      </trkpt>
      <trkpt lat="43.23009157" lon="-2.76187377">
        <ele>141.40002</ele>
        <time>2019-11-21T17:06:37Z</time>
      </trkpt>
      <trkpt lat="43.23011606" lon="-2.76209031">
        <ele>142.18903</ele>
        <time>2019-11-21T17:06:38Z</time>
      </trkpt>
      <trkpt lat="43.2301515" lon="-2.76230538">
        <ele>142.7113</ele>
        <time>2019-11-21T17:06:39Z</time>
      </trkpt>
      <trkpt lat="43.2301806" lon="-2.7625235">
        <ele>142.20776</ele>
        <time>2019-11-21T17:06:40Z</time>
      </trkpt>
      <trkpt lat="43.23022469" lon="-2.76274326">
        <ele>140.69604</ele>
        <time>2019-11-21T17:06:41Z</time>
      </trkpt>
      <trkpt lat="43.23026005" lon="-2.7629743">
        <ele>140.06982</ele>
        <time>2019-11-21T17:06:43Z</time>
      </trkpt>
      <trkpt lat="43.23029481" lon="-2.76320092">
        <ele>140.07733</ele>
        <time>2019-11-21T17:06:44Z</time>
      </trkpt>
      <trkpt lat="43.23033142" lon="-2.76342364">
        <ele>139.66492</ele>
        <time>2019-11-21T17:06:45Z</time>
      </trkpt>
      <trkpt lat="43.2303676" lon="-2.76364856">
        <ele>139.84125</ele>
        <time>2019-11-21T17:06:46Z</time>
      </trkpt>
      <trkpt lat="43.23040217" lon="-2.76387269">
        <ele>139.97784</ele>
        <time>2019-11-21T17:06:47Z</time>
      </trkpt>
      <trkpt lat="43.23043161" lon="-2.76409322">
        <ele>138.18323</ele>
        <time>2019-11-21T17:06:48Z</time>
      </trkpt>
      <trkpt lat="43.23045527" lon="-2.76431934">
        <ele>137.6648</ele>
        <time>2019-11-21T17:06:49Z</time>
      </trkpt>
      <trkpt lat="43.23049305" lon="-2.76454081">
        <ele>137.63684</ele>
        <time>2019-11-21T17:06:50Z</time>
      </trkpt>
      <trkpt lat="43.23052181" lon="-2.76475345">
        <ele>138.15955</ele>
        <time>2019-11-21T17:06:51Z</time>
      </trkpt>
      <trkpt lat="43.23055337" lon="-2.76496026">
        <ele>137.3728</ele>
        <time>2019-11-21T17:06:52Z</time>
      </trkpt>
      <trkpt lat="43.230582" lon="-2.76516478">
        <ele>137.42194</ele>
        <time>2019-11-21T17:06:53Z</time>
      </trkpt>
      <trkpt lat="43.23061312" lon="-2.76537426">
        <ele>137.49622</ele>
        <time>2019-11-21T17:06:54Z</time>
      </trkpt>
      <trkpt lat="43.23066968" lon="-2.76577809">
        <ele>137.94952</ele>
        <time>2019-11-21T17:06:56Z</time>
      </trkpt>
      <trkpt lat="43.2306972" lon="-2.76597395">
        <ele>138.10071</ele>
        <time>2019-11-21T17:06:57Z</time>
      </trkpt>
      <trkpt lat="43.2307515" lon="-2.76635905">
        <ele>138.38013</ele>
        <time>2019-11-21T17:06:58Z</time>
      </trkpt>
      <trkpt lat="43.23077718" lon="-2.76655418">
        <ele>142.54907</ele>
        <time>2019-11-21T17:06:59Z</time>
      </trkpt>
      <trkpt lat="43.23080834" lon="-2.76674336">
        <ele>142.02869</ele>
        <time>2019-11-21T17:07:00Z</time>
      </trkpt>
      <trkpt lat="43.23084077" lon="-2.76692733">
        <ele>141.75891</ele>
        <time>2019-11-21T17:07:01Z</time>
      </trkpt>
      <trkpt lat="43.23087457" lon="-2.76710989">
        <ele>141.3211</ele>
        <time>2019-11-21T17:07:02Z</time>
      </trkpt>
      <trkpt lat="43.23090093" lon="-2.76729842">
        <ele>141.03119</ele>
        <time>2019-11-21T17:07:03Z</time>
      </trkpt>
      <trkpt lat="43.23092538" lon="-2.7674847">
        <ele>141.10797</ele>
        <time>2019-11-21T17:07:04Z</time>
      </trkpt>
      <trkpt lat="43.23094774" lon="-2.76768741">
        <ele>141.76917</ele>
        <time>2019-11-21T17:07:05Z</time>
      </trkpt>
      <trkpt lat="43.2309809" lon="-2.76787734">
        <ele>141.60938</ele>
        <time>2019-11-21T17:07:06Z</time>
      </trkpt>
      <trkpt lat="43.23101883" lon="-2.76807078">
        <ele>142.14441</ele>
        <time>2019-11-21T17:07:07Z</time>
      </trkpt>
      <trkpt lat="43.23101692" lon="-2.76828303">
        <ele>140.51764</ele>
        <time>2019-11-21T17:07:08Z</time>
      </trkpt>
      <trkpt lat="43.23101485" lon="-2.76850731">
        <ele>140.82678</ele>
        <time>2019-11-21T17:07:09Z</time>
      </trkpt>
      <trkpt lat="43.23101406" lon="-2.76872433">
        <ele>142.03271</ele>
        <time>2019-11-21T17:07:10Z</time>
      </trkpt>
      <trkpt lat="43.23097251" lon="-2.76910915">
        <ele>143.95728</ele>
        <time>2019-11-21T17:07:13Z</time>
      </trkpt>
      <trkpt lat="43.23093064" lon="-2.76944318">
        <ele>142.31915</ele>
        <time>2019-11-21T17:07:15Z</time>
      </trkpt>
      <trkpt lat="43.23089852" lon="-2.76962433">
        <ele>143.73975</ele>
        <time>2019-11-21T17:07:16Z</time>
      </trkpt>
      <trkpt lat="43.23084771" lon="-2.7699582">
        <ele>143.74487</ele>
        <time>2019-11-21T17:07:18Z</time>
      </trkpt>
      <trkpt lat="43.23079666" lon="-2.77028154">
        <ele>144.9693</ele>
        <time>2019-11-21T17:07:20Z</time>
      </trkpt>
      <trkpt lat="43.23074643" lon="-2.770584">
        <ele>145.7384</ele>
        <time>2019-11-21T17:07:22Z</time>
      </trkpt>
      <trkpt lat="43.23070648" lon="-2.7708704">
        <ele>147.52612</ele>
        <time>2019-11-21T17:07:24Z</time>
      </trkpt>
      <trkpt lat="43.23067045" lon="-2.77114723">
        <ele>146.36865</ele>
        <time>2019-11-21T17:07:26Z</time>
      </trkpt>
      <trkpt lat="43.23064258" lon="-2.77141821">
        <ele>146.20374</ele>
        <time>2019-11-21T17:07:28Z</time>
      </trkpt>
      <trkpt lat="43.23062161" lon="-2.77168713">
        <ele>144.38745</ele>
        <time>2019-11-21T17:07:29Z</time>
      </trkpt>
      <trkpt lat="43.23060481" lon="-2.77196733">
        <ele>142.68481</ele>
        <time>2019-11-21T17:07:31Z</time>
      </trkpt>
      <trkpt lat="43.23059695" lon="-2.77227211">
        <ele>143.54626</ele>
        <time>2019-11-21T17:07:33Z</time>
      </trkpt>
      <trkpt lat="43.23059555" lon="-2.7725887">
        <ele>144.02625</ele>
        <time>2019-11-21T17:07:35Z</time>
      </trkpt>
      <trkpt lat="43.23060515" lon="-2.7729158">
        <ele>142.74634</ele>
        <time>2019-11-21T17:07:37Z</time>
      </trkpt>
      <trkpt lat="43.23064545" lon="-2.77323495">
        <ele>137.59436</ele>
        <time>2019-11-21T17:07:39Z</time>
      </trkpt>
      <trkpt lat="43.23067982" lon="-2.77357176">
        <ele>139.25696</ele>
        <time>2019-11-21T17:07:41Z</time>
      </trkpt>
      <trkpt lat="43.23070782" lon="-2.77391159">
        <ele>138.0794</ele>
        <time>2019-11-21T17:07:44Z</time>
      </trkpt>
      <trkpt lat="43.2307454" lon="-2.77423124">
        <ele>138.52954</ele>
        <time>2019-11-21T17:07:46Z</time>
      </trkpt>
      <trkpt lat="43.23077787" lon="-2.77455807">
        <ele>138.73505</ele>
        <time>2019-11-21T17:07:48Z</time>
      </trkpt>
      <trkpt lat="43.23081338" lon="-2.77488883">
        <ele>137.02783</ele>
        <time>2019-11-21T17:07:50Z</time>
      </trkpt>
      <trkpt lat="43.23083902" lon="-2.77524175">
        <ele>139.29138</ele>
        <time>2019-11-21T17:07:52Z</time>
      </trkpt>
      <trkpt lat="43.23087278" lon="-2.77557999">
        <ele>140.20135</ele>
        <time>2019-11-21T17:07:54Z</time>
      </trkpt>
      <trkpt lat="43.23091093" lon="-2.77591127">
        <ele>141.38214</ele>
        <time>2019-11-21T17:07:56Z</time>
      </trkpt>
      <trkpt lat="43.230999" lon="-2.77620634">
        <ele>131.38977</ele>
        <time>2019-11-21T17:07:58Z</time>
      </trkpt>
      <trkpt lat="43.23104733" lon="-2.77652387">
        <ele>130.9635</ele>
        <time>2019-11-21T17:08:00Z</time>
      </trkpt>
      <trkpt lat="43.23107472" lon="-2.77684022">
        <ele>131.7392</ele>
        <time>2019-11-21T17:08:02Z</time>
      </trkpt>
      <trkpt lat="43.23111519" lon="-2.77711881">
        <ele>131.72864</ele>
        <time>2019-11-21T17:08:03Z</time>
      </trkpt>
      <trkpt lat="43.23115003" lon="-2.77736128">
        <ele>131.26447</ele>
        <time>2019-11-21T17:08:05Z</time>
      </trkpt>
      <trkpt lat="43.23115152" lon="-2.77756531">
        <ele>129.0393</ele>
        <time>2019-11-21T17:08:07Z</time>
      </trkpt>
      <trkpt lat="43.23115203" lon="-2.77775059">
        <ele>128.64069</ele>
        <time>2019-11-21T17:08:09Z</time>
      </trkpt>
      <trkpt lat="43.23115477" lon="-2.77799817">
        <ele>129.12848</ele>
        <time>2019-11-21T17:08:12Z</time>
      </trkpt>
      <trkpt lat="43.23121344" lon="-2.77824347">
        <ele>128.48792</ele>
        <time>2019-11-21T17:08:16Z</time>
      </trkpt>
      <trkpt lat="43.23122553" lon="-2.77843283">
        <ele>129.89648</ele>
        <time>2019-11-21T17:08:18Z</time>
      </trkpt>
      <trkpt lat="43.23116571" lon="-2.77862506">
        <ele>125.40137</ele>
        <time>2019-11-21T17:08:20Z</time>
      </trkpt>
      <trkpt lat="43.23109889" lon="-2.77886661">
        <ele>123.62921</ele>
        <time>2019-11-21T17:08:22Z</time>
      </trkpt>
      <trkpt lat="43.2310413" lon="-2.77913976">
        <ele>121.930664</ele>
        <time>2019-11-21T17:08:24Z</time>
      </trkpt>
      <trkpt lat="43.23099609" lon="-2.77943781">
        <ele>121.638855</ele>
        <time>2019-11-21T17:08:26Z</time>
      </trkpt>
      <trkpt lat="43.23095554" lon="-2.77972862">
        <ele>122.59668</ele>
        <time>2019-11-21T17:08:28Z</time>
      </trkpt>
      <trkpt lat="43.23090936" lon="-2.78001972">
        <ele>122.41278</ele>
        <time>2019-11-21T17:08:29Z</time>
      </trkpt>
      <trkpt lat="43.23086698" lon="-2.78032311">
        <ele>123.11023</ele>
        <time>2019-11-21T17:08:31Z</time>
      </trkpt>
      <trkpt lat="43.23082043" lon="-2.78065275">
        <ele>122.596985</ele>
        <time>2019-11-21T17:08:33Z</time>
      </trkpt>
      <trkpt lat="43.23076382" lon="-2.78099892">
        <ele>121.94476</ele>
        <time>2019-11-21T17:08:35Z</time>
      </trkpt>
      <trkpt lat="43.23071529" lon="-2.78135281">
        <ele>120.19855</ele>
        <time>2019-11-21T17:08:37Z</time>
      </trkpt>
      <trkpt lat="43.23067402" lon="-2.78172645">
        <ele>119.964966</ele>
        <time>2019-11-21T17:08:39Z</time>
      </trkpt>
      <trkpt lat="43.23066435" lon="-2.78191928">
        <ele>120.1911</ele>
        <time>2019-11-21T17:08:41Z</time>
      </trkpt>
      <trkpt lat="43.23066531" lon="-2.78210907">
        <ele>120.55792</ele>
        <time>2019-11-21T17:08:42Z</time>
      </trkpt>
      <trkpt lat="43.23067482" lon="-2.78230145">
        <ele>121.01947</ele>
        <time>2019-11-21T17:08:43Z</time>
      </trkpt>
      <trkpt lat="43.23069022" lon="-2.78249103">
        <ele>121.26526</ele>
        <time>2019-11-21T17:08:44Z</time>
      </trkpt>
      <trkpt lat="43.23070618" lon="-2.78267684">
        <ele>121.868164</ele>
        <time>2019-11-21T17:08:45Z</time>
      </trkpt>
      <trkpt lat="43.23072114" lon="-2.78286714">
        <ele>122.98096</ele>
        <time>2019-11-21T17:08:46Z</time>
      </trkpt>
      <trkpt lat="43.23074664" lon="-2.78305418">
        <ele>121.698975</ele>
        <time>2019-11-21T17:08:47Z</time>
      </trkpt>
      <trkpt lat="43.23076088" lon="-2.78324465">
        <ele>120.77344</ele>
        <time>2019-11-21T17:08:48Z</time>
      </trkpt>
      <trkpt lat="43.23077913" lon="-2.78343449">
        <ele>120.746216</ele>
        <time>2019-11-21T17:08:49Z</time>
      </trkpt>
      <trkpt lat="43.23079553" lon="-2.78362628">
        <ele>120.71246</ele>
        <time>2019-11-21T17:08:50Z</time>
      </trkpt>
      <trkpt lat="43.23081096" lon="-2.78382202">
        <ele>120.4613</ele>
        <time>2019-11-21T17:08:51Z</time>
      </trkpt>
      <trkpt lat="43.23083044" lon="-2.78401275">
        <ele>120.35498</ele>
        <time>2019-11-21T17:08:52Z</time>
      </trkpt>
      <trkpt lat="43.23084981" lon="-2.78420062">
        <ele>120.75775</ele>
        <time>2019-11-21T17:08:53Z</time>
      </trkpt>
      <trkpt lat="43.23086835" lon="-2.78438864">
        <ele>121.01648</ele>
        <time>2019-11-21T17:08:54Z</time>
      </trkpt>
      <trkpt lat="43.23088796" lon="-2.78458504">
        <ele>120.86963</ele>
        <time>2019-11-21T17:08:55Z</time>
      </trkpt>
      <trkpt lat="43.23090675" lon="-2.7847877">
        <ele>120.87811</ele>
        <time>2019-11-21T17:08:56Z</time>
      </trkpt>
      <trkpt lat="43.23093916" lon="-2.78517949">
        <ele>121.261475</ele>
        <time>2019-11-21T17:08:57Z</time>
      </trkpt>
      <trkpt lat="43.23095714" lon="-2.78537038">
        <ele>122.01318</ele>
        <time>2019-11-21T17:08:58Z</time>
      </trkpt>
      <trkpt lat="43.23097019" lon="-2.78555461">
        <ele>122.190796</ele>
        <time>2019-11-21T17:08:59Z</time>
      </trkpt>
      <trkpt lat="43.23099781" lon="-2.78590706">
        <ele>123.61133</ele>
        <time>2019-11-21T17:09:01Z</time>
      </trkpt>
      <trkpt lat="43.23102411" lon="-2.78627059">
        <ele>125.35626</ele>
        <time>2019-11-21T17:09:03Z</time>
      </trkpt>
      <trkpt lat="43.23104543" lon="-2.78663312">
        <ele>125.50073</ele>
        <time>2019-11-21T17:09:05Z</time>
      </trkpt>
      <trkpt lat="43.23106252" lon="-2.78682844">
        <ele>125.320984</ele>
        <time>2019-11-21T17:09:06Z</time>
      </trkpt>
      <trkpt lat="43.23108582" lon="-2.78702247">
        <ele>124.909</ele>
        <time>2019-11-21T17:09:07Z</time>
      </trkpt>
      <trkpt lat="43.23110844" lon="-2.78721439">
        <ele>124.93158</ele>
        <time>2019-11-21T17:09:08Z</time>
      </trkpt>
      <trkpt lat="43.23112804" lon="-2.78740906">
        <ele>125.09161</ele>
        <time>2019-11-21T17:09:09Z</time>
      </trkpt>
      <trkpt lat="43.23114416" lon="-2.78761106">
        <ele>126.313965</ele>
        <time>2019-11-21T17:09:10Z</time>
      </trkpt>
      <trkpt lat="43.23116388" lon="-2.78781646">
        <ele>126.44824</ele>
        <time>2019-11-21T17:09:12Z</time>
      </trkpt>
      <trkpt lat="43.23118316" lon="-2.78802354">
        <ele>126.388916</ele>
        <time>2019-11-21T17:09:13Z</time>
      </trkpt>
      <trkpt lat="43.23120321" lon="-2.78822666">
        <ele>126.67645</ele>
        <time>2019-11-21T17:09:14Z</time>
      </trkpt>
      <trkpt lat="43.23122291" lon="-2.78842791">
        <ele>127.04645</ele>
        <time>2019-11-21T17:09:15Z</time>
      </trkpt>
      <trkpt lat="43.23124349" lon="-2.78862995">
        <ele>127.30798</ele>
        <time>2019-11-21T17:09:16Z</time>
      </trkpt>
      <trkpt lat="43.23126312" lon="-2.78882274">
        <ele>127.92944</ele>
        <time>2019-11-21T17:09:17Z</time>
      </trkpt>
      <trkpt lat="43.2312803" lon="-2.78901492">
        <ele>128.4148</ele>
        <time>2019-11-21T17:09:18Z</time>
      </trkpt>
      <trkpt lat="43.23129637" lon="-2.78920731">
        <ele>128.94336</ele>
        <time>2019-11-21T17:09:19Z</time>
      </trkpt>
      <trkpt lat="43.23131326" lon="-2.78940435">
        <ele>130.0614</ele>
        <time>2019-11-21T17:09:20Z</time>
      </trkpt>
      <trkpt lat="43.23133379" lon="-2.78960383">
        <ele>130.18982</ele>
        <time>2019-11-21T17:09:21Z</time>
      </trkpt>
      <trkpt lat="43.23135008" lon="-2.78980999">
        <ele>130.17236</ele>
        <time>2019-11-21T17:09:22Z</time>
      </trkpt>
      <trkpt lat="43.2313709" lon="-2.7899996">
        <ele>130.19244</ele>
        <time>2019-11-21T17:09:23Z</time>
      </trkpt>
      <trkpt lat="43.23143575" lon="-2.79036263">
        <ele>122.70404</ele>
        <time>2019-11-21T17:09:25Z</time>
      </trkpt>
      <trkpt lat="43.23147511" lon="-2.79054176">
        <ele>119.97095</ele>
        <time>2019-11-21T17:09:26Z</time>
      </trkpt>
      <trkpt lat="43.23153753" lon="-2.79090977">
        <ele>121.52765</ele>
        <time>2019-11-21T17:09:27Z</time>
      </trkpt>
      <trkpt lat="43.23164086" lon="-2.79124054">
        <ele>118.06671</ele>
        <time>2019-11-21T17:09:29Z</time>
      </trkpt>
      <trkpt lat="43.23176592" lon="-2.79157095">
        <ele>116.74127</ele>
        <time>2019-11-21T17:09:31Z</time>
      </trkpt>
      <trkpt lat="43.23183055" lon="-2.79174522">
        <ele>117.513306</ele>
        <time>2019-11-21T17:09:32Z</time>
      </trkpt>
      <trkpt lat="43.23189534" lon="-2.79191027">
        <ele>115.51953</ele>
        <time>2019-11-21T17:09:33Z</time>
      </trkpt>
      <trkpt lat="43.23197896" lon="-2.79206184">
        <ele>112.864136</ele>
        <time>2019-11-21T17:09:34Z</time>
      </trkpt>
      <trkpt lat="43.23204951" lon="-2.79224585">
        <ele>111.59387</ele>
        <time>2019-11-21T17:09:35Z</time>
      </trkpt>
      <trkpt lat="43.23213411" lon="-2.7924257">
        <ele>111.9328</ele>
        <time>2019-11-21T17:09:36Z</time>
      </trkpt>
      <trkpt lat="43.23220924" lon="-2.79260071">
        <ele>112.27142</ele>
        <time>2019-11-21T17:09:37Z</time>
      </trkpt>
      <trkpt lat="43.23227061" lon="-2.79277644">
        <ele>111.77759</ele>
        <time>2019-11-21T17:09:38Z</time>
      </trkpt>
      <trkpt lat="43.23235654" lon="-2.79293276">
        <ele>109.40344</ele>
        <time>2019-11-21T17:09:39Z</time>
      </trkpt>
      <trkpt lat="43.23242973" lon="-2.79309813">
        <ele>109.92169</ele>
        <time>2019-11-21T17:09:40Z</time>
      </trkpt>
      <trkpt lat="43.2325027" lon="-2.79326446">
        <ele>110.29578</ele>
        <time>2019-11-21T17:09:41Z</time>
      </trkpt>
      <trkpt lat="43.2325713" lon="-2.79343186">
        <ele>110.25128</ele>
        <time>2019-11-21T17:09:42Z</time>
      </trkpt>
      <trkpt lat="43.23263668" lon="-2.79359606">
        <ele>111.26184</ele>
        <time>2019-11-21T17:09:44Z</time>
      </trkpt>
      <trkpt lat="43.23270995" lon="-2.79376017">
        <ele>111.0708</ele>
        <time>2019-11-21T17:09:45Z</time>
      </trkpt>
      <trkpt lat="43.232777" lon="-2.7939226">
        <ele>109.51605</ele>
        <time>2019-11-21T17:09:46Z</time>
      </trkpt>
      <trkpt lat="43.23290562" lon="-2.79423663">
        <ele>110.01221</ele>
        <time>2019-11-21T17:09:48Z</time>
      </trkpt>
      <trkpt lat="43.23296961" lon="-2.79440207">
        <ele>109.70361</ele>
        <time>2019-11-21T17:09:49Z</time>
      </trkpt>
      <trkpt lat="43.23310418" lon="-2.79471181">
        <ele>108.552734</ele>
        <time>2019-11-21T17:09:51Z</time>
      </trkpt>
      <trkpt lat="43.23324113" lon="-2.7950308">
        <ele>108.866394</ele>
        <time>2019-11-21T17:09:53Z</time>
      </trkpt>
      <trkpt lat="43.23331123" lon="-2.79519981">
        <ele>109.387146</ele>
        <time>2019-11-21T17:09:54Z</time>
      </trkpt>
      <trkpt lat="43.23337535" lon="-2.79537413">
        <ele>109.83331</ele>
        <time>2019-11-21T17:09:55Z</time>
      </trkpt>
      <trkpt lat="43.23344569" lon="-2.79555177">
        <ele>110.02777</ele>
        <time>2019-11-21T17:09:56Z</time>
      </trkpt>
      <trkpt lat="43.23351665" lon="-2.7957223">
        <ele>109.18268</ele>
        <time>2019-11-21T17:09:57Z</time>
      </trkpt>
      <trkpt lat="43.23358045" lon="-2.79588666">
        <ele>109.53552</ele>
        <time>2019-11-21T17:09:58Z</time>
      </trkpt>
      <trkpt lat="43.23365086" lon="-2.7960556">
        <ele>109.31592</ele>
        <time>2019-11-21T17:09:59Z</time>
      </trkpt>
      <trkpt lat="43.23379151" lon="-2.7963878">
        <ele>108.762695</ele>
        <time>2019-11-21T17:10:00Z</time>
      </trkpt>
      <trkpt lat="43.23384942" lon="-2.79656136">
        <ele>107.96985</ele>
        <time>2019-11-21T17:10:01Z</time>
      </trkpt>
      <trkpt lat="43.23391201" lon="-2.7967316">
        <ele>107.574524</ele>
        <time>2019-11-21T17:10:02Z</time>
      </trkpt>
      <trkpt lat="43.23398257" lon="-2.79690592">
        <ele>107.94867</ele>
        <time>2019-11-21T17:10:03Z</time>
      </trkpt>
      <trkpt lat="43.23406216" lon="-2.79707791">
        <ele>107.806946</ele>
        <time>2019-11-21T17:10:04Z</time>
      </trkpt>
      <trkpt lat="43.23414169" lon="-2.79724084">
        <ele>107.108154</ele>
        <time>2019-11-21T17:10:05Z</time>
      </trkpt>
      <trkpt lat="43.23422792" lon="-2.79739045">
        <ele>105.19873</ele>
        <time>2019-11-21T17:10:06Z</time>
      </trkpt>
      <trkpt lat="43.23433253" lon="-2.79751926">
        <ele>105.43536</ele>
        <time>2019-11-21T17:10:07Z</time>
      </trkpt>
      <trkpt lat="43.23445129" lon="-2.79762268">
        <ele>104.75293</ele>
        <time>2019-11-21T17:10:08Z</time>
      </trkpt>
      <trkpt lat="43.23458352" lon="-2.79771138">
        <ele>104.194885</ele>
        <time>2019-11-21T17:10:09Z</time>
      </trkpt>
      <trkpt lat="43.2347126" lon="-2.79778093">
        <ele>104.08472</ele>
        <time>2019-11-21T17:10:10Z</time>
      </trkpt>
      <trkpt lat="43.23484407" lon="-2.79783306">
        <ele>103.832825</ele>
        <time>2019-11-21T17:10:11Z</time>
      </trkpt>
      <trkpt lat="43.23497969" lon="-2.79788144">
        <ele>103.83392</ele>
        <time>2019-11-21T17:10:12Z</time>
      </trkpt>
      <trkpt lat="43.23511183261871" lon="-2.7979302406311035">
        <ele>0.0</ele>
        <time>2019-11-21T17:10:14Z</time>
      </trkpt>
      <trkpt lat="43.23564557" lon="-2.79827726">
        <ele>105.20477</ele>
        <time>2019-11-21T17:10:18Z</time>
      </trkpt>
      <trkpt lat="43.23581533" lon="-2.79866525">
        <ele>101.918945</ele>
        <time>2019-11-21T17:10:20Z</time>
      </trkpt>
      <trkpt lat="43.23588787" lon="-2.79888084">
        <ele>101.18561</ele>
        <time>2019-11-21T17:10:21Z</time>
      </trkpt>
      <trkpt lat="43.23593612" lon="-2.79910342">
        <ele>104.06445</ele>
        <time>2019-11-21T17:10:22Z</time>
      </trkpt>
      <trkpt lat="43.23596792" lon="-2.79932569">
        <ele>104.30151</ele>
        <time>2019-11-21T17:10:23Z</time>
      </trkpt>
      <trkpt lat="43.23598738" lon="-2.79955268">
        <ele>105.390564</ele>
        <time>2019-11-21T17:10:24Z</time>
      </trkpt>
      <trkpt lat="43.23600083" lon="-2.79980119">
        <ele>103.59381</ele>
        <time>2019-11-21T17:10:25Z</time>
      </trkpt>
      <trkpt lat="43.23602159" lon="-2.80004549">
        <ele>103.8468</ele>
        <time>2019-11-21T17:10:26Z</time>
      </trkpt>
      <trkpt lat="43.23604625" lon="-2.80030314">
        <ele>103.240295</ele>
        <time>2019-11-21T17:10:27Z</time>
      </trkpt>
      <trkpt lat="43.23606271" lon="-2.8005439">
        <ele>103.805664</ele>
        <time>2019-11-21T17:10:28Z</time>
      </trkpt>
      <trkpt lat="43.23608587" lon="-2.80079189">
        <ele>104.90192</ele>
        <time>2019-11-21T17:10:29Z</time>
      </trkpt>
      <trkpt lat="43.2361142" lon="-2.80102102">
        <ele>103.03876</ele>
        <time>2019-11-21T17:10:30Z</time>
      </trkpt>
      <trkpt lat="43.23613309" lon="-2.80127524">
        <ele>104.06287</ele>
        <time>2019-11-21T17:10:31Z</time>
      </trkpt>
      <trkpt lat="43.23616406" lon="-2.80175974">
        <ele>105.791504</ele>
        <time>2019-11-21T17:10:32Z</time>
      </trkpt>
      <trkpt lat="43.23617204" lon="-2.80198915">
        <ele>105.66199</ele>
        <time>2019-11-21T17:10:33Z</time>
      </trkpt>
      <trkpt lat="43.23619294" lon="-2.80217919">
        <ele>104.41431</ele>
        <time>2019-11-21T17:10:34Z</time>
      </trkpt>
      <trkpt lat="43.23618787" lon="-2.80239337">
        <ele>104.362305</ele>
        <time>2019-11-21T17:10:35Z</time>
      </trkpt>
      <trkpt lat="43.23617847" lon="-2.80259695">
        <ele>101.14142</ele>
        <time>2019-11-21T17:10:36Z</time>
      </trkpt>
      <trkpt lat="43.23620459" lon="-2.8029252">
        <ele>101.76013</ele>
        <time>2019-11-21T17:10:38Z</time>
      </trkpt>
      <trkpt lat="43.23624155" lon="-2.80318301">
        <ele>102.77759</ele>
        <time>2019-11-21T17:10:40Z</time>
      </trkpt>
      <trkpt lat="43.23635077" lon="-2.80334094">
        <ele>104.680115</ele>
        <time>2019-11-21T17:10:42Z</time>
      </trkpt>
      <trkpt lat="43.23650998" lon="-2.8034492">
        <ele>103.36194</ele>
        <time>2019-11-21T17:10:44Z</time>
      </trkpt>
      <trkpt lat="43.23669202" lon="-2.80357082">
        <ele>104.30377</ele>
        <time>2019-11-21T17:10:47Z</time>
      </trkpt>
      <trkpt lat="43.23692758" lon="-2.80360915">
        <ele>102.917175</ele>
        <time>2019-11-21T17:10:49Z</time>
      </trkpt>
      <trkpt lat="43.2370889" lon="-2.8035569">
        <ele>102.15674</ele>
        <time>2019-11-21T17:10:50Z</time>
      </trkpt>
      <trkpt lat="43.23723409" lon="-2.8035092">
        <ele>102.61243</ele>
        <time>2019-11-21T17:10:51Z</time>
      </trkpt>
      <trkpt lat="43.23740001" lon="-2.80346196">
        <ele>101.72528</ele>
        <time>2019-11-21T17:10:52Z</time>
      </trkpt>
      <trkpt lat="43.23755609" lon="-2.80341485">
        <ele>101.01648</ele>
        <time>2019-11-21T17:10:53Z</time>
      </trkpt>
      <trkpt lat="43.23769972" lon="-2.80337413">
        <ele>101.22693</ele>
        <time>2019-11-21T17:10:54Z</time>
      </trkpt>
      <trkpt lat="43.23784848" lon="-2.80334702">
        <ele>101.09418</ele>
        <time>2019-11-21T17:10:55Z</time>
      </trkpt>
      <trkpt lat="43.23799244" lon="-2.80331274">
        <ele>101.16382</ele>
        <time>2019-11-21T17:10:56Z</time>
      </trkpt>
      <trkpt lat="43.23814621" lon="-2.8032901">
        <ele>101.62915</ele>
        <time>2019-11-21T17:10:57Z</time>
      </trkpt>
      <trkpt lat="43.2382986" lon="-2.80326927">
        <ele>101.74597</ele>
        <time>2019-11-21T17:10:58Z</time>
      </trkpt>
      <trkpt lat="43.23845207" lon="-2.80326763">
        <ele>101.91943</ele>
        <time>2019-11-21T17:10:59Z</time>
      </trkpt>
      <trkpt lat="43.23860925" lon="-2.80328153">
        <ele>102.40674</ele>
        <time>2019-11-21T17:11:00Z</time>
      </trkpt>
      <trkpt lat="43.23877319" lon="-2.80331132">
        <ele>102.77545</ele>
        <time>2019-11-21T17:11:01Z</time>
      </trkpt>
      <trkpt lat="43.23894154" lon="-2.8033357">
        <ele>103.57172</ele>
        <time>2019-11-21T17:11:02Z</time>
      </trkpt>
      <trkpt lat="43.23911009" lon="-2.80335658">
        <ele>104.52667</ele>
        <time>2019-11-21T17:11:03Z</time>
      </trkpt>
      <trkpt lat="43.23927558" lon="-2.8033723">
        <ele>104.65503</ele>
        <time>2019-11-21T17:11:04Z</time>
      </trkpt>
      <trkpt lat="43.23943969" lon="-2.80337191">
        <ele>103.94281</ele>
        <time>2019-11-21T17:11:05Z</time>
      </trkpt>
      <trkpt lat="43.23976718" lon="-2.80333238">
        <ele>103.747375</ele>
        <time>2019-11-21T17:11:06Z</time>
      </trkpt>
      <trkpt lat="43.23992455" lon="-2.80328312">
        <ele>104.595825</ele>
        <time>2019-11-21T17:11:07Z</time>
      </trkpt>
      <trkpt lat="43.24007411" lon="-2.80321479">
        <ele>105.19446</ele>
        <time>2019-11-21T17:11:08Z</time>
      </trkpt>
      <trkpt lat="43.24022308" lon="-2.80314452">
        <ele>107.06775</ele>
        <time>2019-11-21T17:11:09Z</time>
      </trkpt>
      <trkpt lat="43.24037152" lon="-2.80307381">
        <ele>106.05011</ele>
        <time>2019-11-21T17:11:10Z</time>
      </trkpt>
      <trkpt lat="43.24052916" lon="-2.80300219">
        <ele>106.70758</ele>
        <time>2019-11-21T17:11:11Z</time>
      </trkpt>
      <trkpt lat="43.24068451" lon="-2.80294213">
        <ele>106.99768</ele>
        <time>2019-11-21T17:11:12Z</time>
      </trkpt>
      <trkpt lat="43.24084038" lon="-2.80288367">
        <ele>106.40796</ele>
        <time>2019-11-21T17:11:13Z</time>
      </trkpt>
      <trkpt lat="43.24098454" lon="-2.80285116">
        <ele>106.3681</ele>
        <time>2019-11-21T17:11:14Z</time>
      </trkpt>
      <trkpt lat="43.24115907" lon="-2.80283355">
        <ele>107.0199</ele>
        <time>2019-11-21T17:11:15Z</time>
      </trkpt>
      <trkpt lat="43.24133159" lon="-2.80284462">
        <ele>108.39697</ele>
        <time>2019-11-21T17:11:16Z</time>
      </trkpt>
      <trkpt lat="43.24149819" lon="-2.8028753">
        <ele>108.93469</ele>
        <time>2019-11-21T17:11:17Z</time>
      </trkpt>
      <trkpt lat="43.24165263" lon="-2.80292995">
        <ele>109.36188</ele>
        <time>2019-11-21T17:11:19Z</time>
      </trkpt>
      <trkpt lat="43.24182843" lon="-2.80302559">
        <ele>109.435486</ele>
        <time>2019-11-21T17:11:20Z</time>
      </trkpt>
      <trkpt lat="43.24198044" lon="-2.80313181">
        <ele>110.010925</ele>
        <time>2019-11-21T17:11:21Z</time>
      </trkpt>
      <trkpt lat="43.24213945" lon="-2.80325541">
        <ele>109.99707</ele>
        <time>2019-11-21T17:11:22Z</time>
      </trkpt>
      <trkpt lat="43.24226254" lon="-2.80339425">
        <ele>110.112976</ele>
        <time>2019-11-21T17:11:23Z</time>
      </trkpt>
      <trkpt lat="43.24239624" lon="-2.80356618">
        <ele>110.80359</ele>
        <time>2019-11-21T17:11:24Z</time>
      </trkpt>
      <trkpt lat="43.24253613" lon="-2.80375347">
        <ele>108.89978</ele>
        <time>2019-11-21T17:11:25Z</time>
      </trkpt>
      <trkpt lat="43.24264728" lon="-2.80394626">
        <ele>108.59314</ele>
        <time>2019-11-21T17:11:26Z</time>
      </trkpt>
      <trkpt lat="43.24279016" lon="-2.80415793">
        <ele>104.83148</ele>
        <time>2019-11-21T17:11:27Z</time>
      </trkpt>
      <trkpt lat="43.24289065" lon="-2.80431654">
        <ele>105.37091</ele>
        <time>2019-11-21T17:11:28Z</time>
      </trkpt>
      <trkpt lat="43.24301501" lon="-2.80446128">
        <ele>105.45709</ele>
        <time>2019-11-21T17:11:29Z</time>
      </trkpt>
      <trkpt lat="43.24315762" lon="-2.80456939">
        <ele>103.6311</ele>
        <time>2019-11-21T17:11:30Z</time>
      </trkpt>
      <trkpt lat="43.24331278" lon="-2.80468871">
        <ele>105.16211</ele>
        <time>2019-11-21T17:11:31Z</time>
      </trkpt>
      <trkpt lat="43.24345237" lon="-2.80476994">
        <ele>106.351074</ele>
        <time>2019-11-21T17:11:32Z</time>
      </trkpt>
      <trkpt lat="43.24367131" lon="-2.80484062">
        <ele>107.29187</ele>
        <time>2019-11-21T17:11:33Z</time>
      </trkpt>
      <trkpt lat="43.2438337" lon="-2.80490963">
        <ele>107.655334</ele>
        <time>2019-11-21T17:11:34Z</time>
      </trkpt>
      <trkpt lat="43.24402159" lon="-2.80496923">
        <ele>109.7204</ele>
        <time>2019-11-21T17:11:35Z</time>
      </trkpt>
      <trkpt lat="43.24420989" lon="-2.80503518">
        <ele>110.39795</ele>
        <time>2019-11-21T17:11:36Z</time>
      </trkpt>
      <trkpt lat="43.24441651" lon="-2.80509617">
        <ele>110.28821</ele>
        <time>2019-11-21T17:11:37Z</time>
      </trkpt>
      <trkpt lat="43.24462697" lon="-2.80512608">
        <ele>112.03766</ele>
        <time>2019-11-21T17:11:38Z</time>
      </trkpt>
      <trkpt lat="43.2450053" lon="-2.80518984">
        <ele>112.38928</ele>
        <time>2019-11-21T17:11:39Z</time>
      </trkpt>
      <trkpt lat="43.24521192" lon="-2.80521897">
        <ele>113.437195</ele>
        <time>2019-11-21T17:11:40Z</time>
      </trkpt>
      <trkpt lat="43.24539781" lon="-2.80524367">
        <ele>113.43677</ele>
        <time>2019-11-21T17:11:41Z</time>
      </trkpt>
      <trkpt lat="43.24561436" lon="-2.8052614">
        <ele>114.012024</ele>
        <time>2019-11-21T17:11:42Z</time>
      </trkpt>
      <trkpt lat="43.24579672" lon="-2.80525803">
        <ele>116.0672</ele>
        <time>2019-11-21T17:11:43Z</time>
      </trkpt>
      <trkpt lat="43.2460247" lon="-2.80525879">
        <ele>114.047</ele>
        <time>2019-11-21T17:11:44Z</time>
      </trkpt>
      <trkpt lat="43.24622724" lon="-2.80524207">
        <ele>112.52118</ele>
        <time>2019-11-21T17:11:45Z</time>
      </trkpt>
      <trkpt lat="43.24639921" lon="-2.80521886">
        <ele>112.11365</ele>
        <time>2019-11-21T17:11:46Z</time>
      </trkpt>
      <trkpt lat="43.24657477" lon="-2.8051816">
        <ele>112.30713</ele>
        <time>2019-11-21T17:11:47Z</time>
      </trkpt>
      <trkpt lat="43.24673215" lon="-2.80513491">
        <ele>111.12488</ele>
        <time>2019-11-21T17:11:48Z</time>
      </trkpt>
      <trkpt lat="43.24691065" lon="-2.80507148">
        <ele>110.39215</ele>
        <time>2019-11-21T17:11:49Z</time>
      </trkpt>
      <trkpt lat="43.24708036" lon="-2.80498828">
        <ele>110.97687</ele>
        <time>2019-11-21T17:11:50Z</time>
      </trkpt>
      <trkpt lat="43.24724658" lon="-2.80489883">
        <ele>112.14209</ele>
        <time>2019-11-21T17:11:51Z</time>
      </trkpt>
      <trkpt lat="43.24739877" lon="-2.80479904">
        <ele>113.23999</ele>
        <time>2019-11-21T17:11:53Z</time>
      </trkpt>
      <trkpt lat="43.24753436" lon="-2.80468807">
        <ele>112.651306</ele>
        <time>2019-11-21T17:11:54Z</time>
      </trkpt>
      <trkpt lat="43.24767217" lon="-2.80457557">
        <ele>112.91052</ele>
        <time>2019-11-21T17:11:55Z</time>
      </trkpt>
      <trkpt lat="43.24781844" lon="-2.80445852">
        <ele>113.69177</ele>
        <time>2019-11-21T17:11:56Z</time>
      </trkpt>
      <trkpt lat="43.24795163" lon="-2.80435041">
        <ele>113.956116</ele>
        <time>2019-11-21T17:11:57Z</time>
      </trkpt>
      <trkpt lat="43.24807058" lon="-2.80424832">
        <ele>114.06683</ele>
        <time>2019-11-21T17:11:58Z</time>
      </trkpt>
      <trkpt lat="43.24828446" lon="-2.80407866">
        <ele>116.21002</ele>
        <time>2019-11-21T17:12:00Z</time>
      </trkpt>
      <trkpt lat="43.24843934" lon="-2.80392712">
        <ele>117.35315</ele>
        <time>2019-11-21T17:12:02Z</time>
      </trkpt>
      <trkpt lat="43.24854313" lon="-2.80377947">
        <ele>117.72894</ele>
        <time>2019-11-21T17:12:04Z</time>
      </trkpt>
      <trkpt lat="43.24863727" lon="-2.80355485">
        <ele>119.04291</ele>
        <time>2019-11-21T17:12:07Z</time>
      </trkpt>
      <trkpt lat="43.24876247" lon="-2.80335037">
        <ele>120.10474</ele>
        <time>2019-11-21T17:12:10Z</time>
      </trkpt>
      <trkpt lat="43.24885128" lon="-2.80315692">
        <ele>119.677795</ele>
        <time>2019-11-21T17:12:13Z</time>
      </trkpt>
      <trkpt lat="43.24897263" lon="-2.80293666">
        <ele>119.463135</ele>
        <time>2019-11-21T17:12:15Z</time>
      </trkpt>
      <trkpt lat="43.24914265" lon="-2.80271776">
        <ele>119.16626</ele>
        <time>2019-11-21T17:12:17Z</time>
      </trkpt>
      <trkpt lat="43.24932727" lon="-2.80250991">
        <ele>119.242676</ele>
        <time>2019-11-21T17:12:19Z</time>
      </trkpt>
      <trkpt lat="43.24952255" lon="-2.80234228">
        <ele>119.17877</ele>
        <time>2019-11-21T17:12:21Z</time>
      </trkpt>
      <trkpt lat="43.24969948" lon="-2.80219809">
        <ele>118.61713</ele>
        <time>2019-11-21T17:12:23Z</time>
      </trkpt>
      <trkpt lat="43.2498759" lon="-2.80207012">
        <ele>119.295166</ele>
        <time>2019-11-21T17:12:26Z</time>
      </trkpt>
      <trkpt lat="43.25003587" lon="-2.80195295">
        <ele>119.298096</ele>
        <time>2019-11-21T17:12:28Z</time>
      </trkpt>
      <trkpt lat="43.25017475" lon="-2.80184706">
        <ele>118.883606</ele>
        <time>2019-11-21T17:12:30Z</time>
      </trkpt>
      <trkpt lat="43.25033101" lon="-2.80170868">
        <ele>119.01495</ele>
        <time>2019-11-21T17:12:33Z</time>
      </trkpt>
      <trkpt lat="43.25050381" lon="-2.801718">
        <ele>118.83905</ele>
        <time>2019-11-21T17:12:36Z</time>
      </trkpt>
      <trkpt lat="43.25053946" lon="-2.8019206">
        <ele>115.87683</ele>
        <time>2019-11-21T17:12:38Z</time>
      </trkpt>
      <trkpt lat="43.25054702" lon="-2.80213792">
        <ele>116.88159</ele>
        <time>2019-11-21T17:12:40Z</time>
      </trkpt>
      <trkpt lat="43.25058675" lon="-2.80237786">
        <ele>113.83124</ele>
        <time>2019-11-21T17:12:41Z</time>
      </trkpt>
      <trkpt lat="43.25066644" lon="-2.80261062">
        <ele>115.12738</ele>
        <time>2019-11-21T17:12:43Z</time>
      </trkpt>
      <trkpt lat="43.25080961" lon="-2.80284298">
        <ele>114.65723</ele>
        <time>2019-11-21T17:12:45Z</time>
      </trkpt>
      <trkpt lat="43.25099798" lon="-2.80304841">
        <ele>112.893555</ele>
        <time>2019-11-21T17:12:47Z</time>
      </trkpt>
      <trkpt lat="43.25123374" lon="-2.80323996">
        <ele>113.857666</ele>
        <time>2019-11-21T17:12:49Z</time>
      </trkpt>
      <trkpt lat="43.25148077" lon="-2.80344409">
        <ele>112.05963</ele>
        <time>2019-11-21T17:12:51Z</time>
      </trkpt>
      <trkpt lat="43.25161504" lon="-2.80355107">
        <ele>111.918945</ele>
        <time>2019-11-21T17:12:52Z</time>
      </trkpt>
      <trkpt lat="43.25174276" lon="-2.80367395">
        <ele>112.457825</ele>
        <time>2019-11-21T17:12:54Z</time>
      </trkpt>
      <trkpt lat="43.25189063" lon="-2.80379083">
        <ele>112.78168</ele>
        <time>2019-11-21T17:12:55Z</time>
      </trkpt>
      <trkpt lat="43.25204625" lon="-2.80391729">
        <ele>113.570435</ele>
        <time>2019-11-21T17:12:56Z</time>
      </trkpt>
      <trkpt lat="43.25218422" lon="-2.80402854">
        <ele>113.7323</ele>
        <time>2019-11-21T17:12:57Z</time>
      </trkpt>
      <trkpt lat="43.25232792" lon="-2.80415908">
        <ele>114.914</ele>
        <time>2019-11-21T17:12:58Z</time>
      </trkpt>
      <trkpt lat="43.25249124" lon="-2.8042729">
        <ele>114.82117</ele>
        <time>2019-11-21T17:12:59Z</time>
      </trkpt>
      <trkpt lat="43.25265551" lon="-2.8043912">
        <ele>115.79669</ele>
        <time>2019-11-21T17:13:00Z</time>
      </trkpt>
      <trkpt lat="43.25280804" lon="-2.80451741">
        <ele>117.51965</ele>
        <time>2019-11-21T17:13:01Z</time>
      </trkpt>
      <trkpt lat="43.25296217" lon="-2.8046398">
        <ele>117.408325</ele>
        <time>2019-11-21T17:13:02Z</time>
      </trkpt>
      <trkpt lat="43.25311943" lon="-2.80475997">
        <ele>117.79358</ele>
        <time>2019-11-21T17:13:03Z</time>
      </trkpt>
      <trkpt lat="43.25329316" lon="-2.80487547">
        <ele>117.504395</ele>
        <time>2019-11-21T17:13:04Z</time>
      </trkpt>
      <trkpt lat="43.25344335" lon="-2.80500711">
        <ele>118.219055</ele>
        <time>2019-11-21T17:13:05Z</time>
      </trkpt>
      <trkpt lat="43.25359156" lon="-2.80513588">
        <ele>116.77734</ele>
        <time>2019-11-21T17:13:06Z</time>
      </trkpt>
      <trkpt lat="43.25376293" lon="-2.80526506">
        <ele>117.31323</ele>
        <time>2019-11-21T17:13:07Z</time>
      </trkpt>
      <trkpt lat="43.25390143" lon="-2.80540256">
        <ele>116.70557</ele>
        <time>2019-11-21T17:13:08Z</time>
      </trkpt>
      <trkpt lat="43.25407139" lon="-2.8055295">
        <ele>116.0116</ele>
        <time>2019-11-21T17:13:09Z</time>
      </trkpt>
      <trkpt lat="43.25424992" lon="-2.80564893">
        <ele>115.74219</ele>
        <time>2019-11-21T17:13:10Z</time>
      </trkpt>
      <trkpt lat="43.25441416" lon="-2.80577403">
        <ele>115.75061</ele>
        <time>2019-11-21T17:13:11Z</time>
      </trkpt>
      <trkpt lat="43.25458787" lon="-2.80589363">
        <ele>115.10016</ele>
        <time>2019-11-21T17:13:12Z</time>
      </trkpt>
      <trkpt lat="43.25493306" lon="-2.80613174">
        <ele>116.08728</ele>
        <time>2019-11-21T17:13:13Z</time>
      </trkpt>
      <trkpt lat="43.25510313" lon="-2.80625304">
        <ele>116.175354</ele>
        <time>2019-11-21T17:13:14Z</time>
      </trkpt>
      <trkpt lat="43.25526967" lon="-2.80636908">
        <ele>116.25299</ele>
        <time>2019-11-21T17:13:15Z</time>
      </trkpt>
      <trkpt lat="43.25544213" lon="-2.80649585">
        <ele>115.13672</ele>
        <time>2019-11-21T17:13:16Z</time>
      </trkpt>
      <trkpt lat="43.25562341" lon="-2.80662268">
        <ele>115.99133</ele>
        <time>2019-11-21T17:13:17Z</time>
      </trkpt>
      <trkpt lat="43.2557982" lon="-2.80674381">
        <ele>116.570984</ele>
        <time>2019-11-21T17:13:18Z</time>
      </trkpt>
      <trkpt lat="43.25597193" lon="-2.8068649">
        <ele>116.58783</ele>
        <time>2019-11-21T17:13:19Z</time>
      </trkpt>
      <trkpt lat="43.25615995" lon="-2.80699225">
        <ele>116.84076</ele>
        <time>2019-11-21T17:13:20Z</time>
      </trkpt>
      <trkpt lat="43.2563454" lon="-2.80712233">
        <ele>116.24017</ele>
        <time>2019-11-21T17:13:21Z</time>
      </trkpt>
      <trkpt lat="43.2565305" lon="-2.80724792">
        <ele>116.635864</ele>
        <time>2019-11-21T17:13:22Z</time>
      </trkpt>
      <trkpt lat="43.25671842" lon="-2.80738307">
        <ele>115.96393</ele>
        <time>2019-11-21T17:13:23Z</time>
      </trkpt>
      <trkpt lat="43.25690876" lon="-2.80749475">
        <ele>116.01807</ele>
        <time>2019-11-21T17:13:24Z</time>
      </trkpt>
      <trkpt lat="43.25708447" lon="-2.80761473">
        <ele>115.03369</ele>
        <time>2019-11-21T17:13:26Z</time>
      </trkpt>
      <trkpt lat="43.25725324" lon="-2.80774048">
        <ele>114.38837</ele>
        <time>2019-11-21T17:13:27Z</time>
      </trkpt>
      <trkpt lat="43.25743427" lon="-2.80785675">
        <ele>115.07507</ele>
        <time>2019-11-21T17:13:28Z</time>
      </trkpt>
      <trkpt lat="43.25761371" lon="-2.80797859">
        <ele>114.55701</ele>
        <time>2019-11-21T17:13:29Z</time>
      </trkpt>
      <trkpt lat="43.25779745" lon="-2.80809801">
        <ele>114.1579</ele>
        <time>2019-11-21T17:13:30Z</time>
      </trkpt>
      <trkpt lat="43.25797553" lon="-2.80822223">
        <ele>114.9259</ele>
        <time>2019-11-21T17:13:31Z</time>
      </trkpt>
      <trkpt lat="43.25815795" lon="-2.80834047">
        <ele>115.10974</ele>
        <time>2019-11-21T17:13:32Z</time>
      </trkpt>
      <trkpt lat="43.25833369" lon="-2.80846684">
        <ele>115.5152</ele>
        <time>2019-11-21T17:13:33Z</time>
      </trkpt>
      <trkpt lat="43.25850472" lon="-2.80859601">
        <ele>116.10663</ele>
        <time>2019-11-21T17:13:34Z</time>
      </trkpt>
      <trkpt lat="43.25867968" lon="-2.80872199">
        <ele>115.443115</ele>
        <time>2019-11-21T17:13:35Z</time>
      </trkpt>
      <trkpt lat="43.25885187" lon="-2.80885654">
        <ele>115.41229</ele>
        <time>2019-11-21T17:13:36Z</time>
      </trkpt>
      <trkpt lat="43.25901805" lon="-2.8089916">
        <ele>114.82678</ele>
        <time>2019-11-21T17:13:37Z</time>
      </trkpt>
      <trkpt lat="43.2591892" lon="-2.80914031">
        <ele>116.399475</ele>
        <time>2019-11-21T17:13:38Z</time>
      </trkpt>
      <trkpt lat="43.25935752" lon="-2.80929339">
        <ele>116.52661</ele>
        <time>2019-11-21T17:13:39Z</time>
      </trkpt>
      <trkpt lat="43.2595231" lon="-2.80945074">
        <ele>116.91882</ele>
        <time>2019-11-21T17:13:40Z</time>
      </trkpt>
      <trkpt lat="43.25968025" lon="-2.80961785">
        <ele>117.096375</ele>
        <time>2019-11-21T17:13:41Z</time>
      </trkpt>
      <trkpt lat="43.2598449" lon="-2.80979243">
        <ele>118.18689</ele>
        <time>2019-11-21T17:13:42Z</time>
      </trkpt>
      <trkpt lat="43.26000757" lon="-2.80997785">
        <ele>119.01373</ele>
        <time>2019-11-21T17:13:43Z</time>
      </trkpt>
      <trkpt lat="43.26032507" lon="-2.81036388">
        <ele>120.54993</ele>
        <time>2019-11-21T17:13:44Z</time>
      </trkpt>
      <trkpt lat="43.26049023" lon="-2.81056137">
        <ele>121.3183</ele>
        <time>2019-11-21T17:13:45Z</time>
      </trkpt>
      <trkpt lat="43.26062737" lon="-2.81077309">
        <ele>122.271545</ele>
        <time>2019-11-21T17:13:46Z</time>
      </trkpt>
      <trkpt lat="43.26078367" lon="-2.81098052">
        <ele>122.6427</ele>
        <time>2019-11-21T17:13:47Z</time>
      </trkpt>
      <trkpt lat="43.26093067" lon="-2.81119953">
        <ele>123.411194</ele>
        <time>2019-11-21T17:13:48Z</time>
      </trkpt>
      <trkpt lat="43.2610723" lon="-2.81141303">
        <ele>121.70117</ele>
        <time>2019-11-21T17:13:49Z</time>
      </trkpt>
      <trkpt lat="43.2612057" lon="-2.81163077">
        <ele>120.203186</ele>
        <time>2019-11-21T17:13:50Z</time>
      </trkpt>
      <trkpt lat="43.26133086" lon="-2.81185275">
        <ele>121.40546</ele>
        <time>2019-11-21T17:13:51Z</time>
      </trkpt>
      <trkpt lat="43.26145032" lon="-2.81208676">
        <ele>122.79303</ele>
        <time>2019-11-21T17:13:52Z</time>
      </trkpt>
      <trkpt lat="43.26157152" lon="-2.81232474">
        <ele>123.46155</ele>
        <time>2019-11-21T17:13:53Z</time>
      </trkpt>
      <trkpt lat="43.26169132" lon="-2.81256905">
        <ele>124.15375</ele>
        <time>2019-11-21T17:13:54Z</time>
      </trkpt>
      <trkpt lat="43.26181339" lon="-2.81281575">
        <ele>124.771484</ele>
        <time>2019-11-21T17:13:56Z</time>
      </trkpt>
      <trkpt lat="43.26192073" lon="-2.81306218">
        <ele>125.21881</ele>
        <time>2019-11-21T17:13:57Z</time>
      </trkpt>
      <trkpt lat="43.26201815" lon="-2.81331022">
        <ele>126.3233</ele>
        <time>2019-11-21T17:13:58Z</time>
      </trkpt>
      <trkpt lat="43.26212099" lon="-2.81357621">
        <ele>125.48163</ele>
        <time>2019-11-21T17:13:59Z</time>
      </trkpt>
      <trkpt lat="43.26221351" lon="-2.81382515">
        <ele>126.8147</ele>
        <time>2019-11-21T17:14:00Z</time>
      </trkpt>
      <trkpt lat="43.26229743" lon="-2.81408846">
        <ele>127.79205</ele>
        <time>2019-11-21T17:14:01Z</time>
      </trkpt>
      <trkpt lat="43.26236891" lon="-2.81435067">
        <ele>128.76343</ele>
        <time>2019-11-21T17:14:02Z</time>
      </trkpt>
      <trkpt lat="43.26243671" lon="-2.81462041">
        <ele>130.42542</ele>
        <time>2019-11-21T17:14:03Z</time>
      </trkpt>
      <trkpt lat="43.26249766" lon="-2.81489481">
        <ele>131.39197</ele>
        <time>2019-11-21T17:14:04Z</time>
      </trkpt>
      <trkpt lat="43.26255696" lon="-2.81516428">
        <ele>132.89429</ele>
        <time>2019-11-21T17:14:05Z</time>
      </trkpt>
      <trkpt lat="43.26260966" lon="-2.81543945">
        <ele>134.52045</ele>
        <time>2019-11-21T17:14:06Z</time>
      </trkpt>
      <trkpt lat="43.26266352" lon="-2.81571263">
        <ele>135.46606</ele>
        <time>2019-11-21T17:14:07Z</time>
      </trkpt>
      <trkpt lat="43.26271522" lon="-2.81598175">
        <ele>136.1532</ele>
        <time>2019-11-21T17:14:08Z</time>
      </trkpt>
      <trkpt lat="43.26275144" lon="-2.8162463">
        <ele>137.38489</ele>
        <time>2019-11-21T17:14:09Z</time>
      </trkpt>
      <trkpt lat="43.26277934" lon="-2.81651833">
        <ele>137.23444</ele>
        <time>2019-11-21T17:14:10Z</time>
      </trkpt>
      <trkpt lat="43.26280381" lon="-2.81679164">
        <ele>136.99048</ele>
        <time>2019-11-21T17:14:11Z</time>
      </trkpt>
      <trkpt lat="43.26284904" lon="-2.81731138">
        <ele>138.10791</ele>
        <time>2019-11-21T17:14:12Z</time>
      </trkpt>
      <trkpt lat="43.26286421" lon="-2.81757022">
        <ele>138.3866</ele>
        <time>2019-11-21T17:14:13Z</time>
      </trkpt>
      <trkpt lat="43.26287501" lon="-2.81783507">
        <ele>139.35077</ele>
        <time>2019-11-21T17:14:14Z</time>
      </trkpt>
      <trkpt lat="43.26288206" lon="-2.81809463">
        <ele>139.7873</ele>
        <time>2019-11-21T17:14:15Z</time>
      </trkpt>
      <trkpt lat="43.26288323" lon="-2.8183567">
        <ele>140.39203</ele>
        <time>2019-11-21T17:14:16Z</time>
      </trkpt>
      <trkpt lat="43.26288196" lon="-2.81862091">
        <ele>140.60175</ele>
        <time>2019-11-21T17:14:17Z</time>
      </trkpt>
      <trkpt lat="43.26288409" lon="-2.81888185">
        <ele>141.28613</ele>
        <time>2019-11-21T17:14:18Z</time>
      </trkpt>
      <trkpt lat="43.2628824" lon="-2.81914296">
        <ele>141.70691</ele>
        <time>2019-11-21T17:14:19Z</time>
      </trkpt>
      <trkpt lat="43.26288521" lon="-2.81939752">
        <ele>142.1549</ele>
        <time>2019-11-21T17:14:20Z</time>
      </trkpt>
      <trkpt lat="43.2628885" lon="-2.8196536">
        <ele>142.47003</ele>
        <time>2019-11-21T17:14:21Z</time>
      </trkpt>
      <trkpt lat="43.26290462" lon="-2.81990485">
        <ele>143.53741</ele>
        <time>2019-11-21T17:14:22Z</time>
      </trkpt>
      <trkpt lat="43.26291463" lon="-2.82015609">
        <ele>144.39014</ele>
        <time>2019-11-21T17:14:23Z</time>
      </trkpt>
      <trkpt lat="43.26293609" lon="-2.82040405">
        <ele>143.06873</ele>
        <time>2019-11-21T17:14:24Z</time>
      </trkpt>
      <trkpt lat="43.26294726" lon="-2.82065382">
        <ele>142.11316</ele>
        <time>2019-11-21T17:14:25Z</time>
      </trkpt>
      <trkpt lat="43.26297729" lon="-2.82089558">
        <ele>141.60535</ele>
        <time>2019-11-21T17:14:27Z</time>
      </trkpt>
      <trkpt lat="43.26300731" lon="-2.82114676">
        <ele>142.08875</ele>
        <time>2019-11-21T17:14:28Z</time>
      </trkpt>
      <trkpt lat="43.26304668" lon="-2.82139668">
        <ele>141.83875</ele>
        <time>2019-11-21T17:14:29Z</time>
      </trkpt>
      <trkpt lat="43.26308333" lon="-2.82165744">
        <ele>142.21082</ele>
        <time>2019-11-21T17:14:30Z</time>
      </trkpt>
      <trkpt lat="43.26312342" lon="-2.82190288">
        <ele>142.75336</ele>
        <time>2019-11-21T17:14:31Z</time>
      </trkpt>
      <trkpt lat="43.26316988" lon="-2.82216088">
        <ele>143.28833</ele>
        <time>2019-11-21T17:14:32Z</time>
      </trkpt>
      <trkpt lat="43.26321535" lon="-2.82241356">
        <ele>143.89429</ele>
        <time>2019-11-21T17:14:33Z</time>
      </trkpt>
      <trkpt lat="43.26326919" lon="-2.8226582">
        <ele>144.1087</ele>
        <time>2019-11-21T17:14:34Z</time>
      </trkpt>
      <trkpt lat="43.26332576" lon="-2.82290137">
        <ele>139.72809</ele>
        <time>2019-11-21T17:14:35Z</time>
      </trkpt>
      <trkpt lat="43.26338231563568" lon="-2.8231430053710938">
        <ele>0.0</ele>
        <time>2019-11-21T17:14:36Z</time>
      </trkpt>
      <trkpt lat="43.26405424" lon="-2.82599553">
        <ele>147.46106</ele>
        <time>2019-11-21T17:14:46Z</time>
      </trkpt>
      <trkpt lat="43.26411016" lon="-2.82627587">
        <ele>148.68958</ele>
        <time>2019-11-21T17:14:47Z</time>
      </trkpt>
      <trkpt lat="43.2641581" lon="-2.82653594">
        <ele>151.03107</ele>
        <time>2019-11-21T17:14:48Z</time>
      </trkpt>
      <trkpt lat="43.26419572" lon="-2.82681601">
        <ele>152.87439</ele>
        <time>2019-11-21T17:14:49Z</time>
      </trkpt>
      <trkpt lat="43.26419964" lon="-2.82709243">
        <ele>152.82538</ele>
        <time>2019-11-21T17:14:50Z</time>
      </trkpt>
      <trkpt lat="43.26421553" lon="-2.82736519">
        <ele>152.56323</ele>
        <time>2019-11-21T17:14:51Z</time>
      </trkpt>
      <trkpt lat="43.26423587" lon="-2.82763675">
        <ele>152.5564</ele>
        <time>2019-11-21T17:14:52Z</time>
      </trkpt>
      <trkpt lat="43.26426592" lon="-2.82791511">
        <ele>153.3996</ele>
        <time>2019-11-21T17:14:53Z</time>
      </trkpt>
      <trkpt lat="43.26427417" lon="-2.82819011">
        <ele>153.56604</ele>
        <time>2019-11-21T17:14:54Z</time>
      </trkpt>
      <trkpt lat="43.2642867" lon="-2.82846295">
        <ele>153.95032</ele>
        <time>2019-11-21T17:14:55Z</time>
      </trkpt>
      <trkpt lat="43.26429251" lon="-2.82873257">
        <ele>153.21448</ele>
        <time>2019-11-21T17:14:56Z</time>
      </trkpt>
      <trkpt lat="43.26430034" lon="-2.82901443">
        <ele>154.80432</ele>
        <time>2019-11-21T17:14:57Z</time>
      </trkpt>
      <trkpt lat="43.26431018" lon="-2.82928336">
        <ele>155.59985</ele>
        <time>2019-11-21T17:14:59Z</time>
      </trkpt>
      <trkpt lat="43.2643121" lon="-2.82953812">
        <ele>156.27765</ele>
        <time>2019-11-21T17:15:00Z</time>
      </trkpt>
      <trkpt lat="43.26431633" lon="-2.82981531">
        <ele>157.29364</ele>
        <time>2019-11-21T17:15:01Z</time>
      </trkpt>
      <trkpt lat="43.26432535" lon="-2.83008917">
        <ele>158.45435</ele>
        <time>2019-11-21T17:15:02Z</time>
      </trkpt>
      <trkpt lat="43.26432782" lon="-2.83037322">
        <ele>157.4679</ele>
        <time>2019-11-21T17:15:03Z</time>
      </trkpt>
      <trkpt lat="43.26434312" lon="-2.83064779">
        <ele>157.51404</ele>
        <time>2019-11-21T17:15:04Z</time>
      </trkpt>
      <trkpt lat="43.26436821" lon="-2.83091663">
        <ele>158.05225</ele>
        <time>2019-11-21T17:15:05Z</time>
      </trkpt>
      <trkpt lat="43.26438989" lon="-2.83118926">
        <ele>157.51807</ele>
        <time>2019-11-21T17:15:06Z</time>
      </trkpt>
      <trkpt lat="43.26442548" lon="-2.83146754">
        <ele>157.41473</ele>
        <time>2019-11-21T17:15:07Z</time>
      </trkpt>
      <trkpt lat="43.26446347" lon="-2.83174145">
        <ele>157.6211</ele>
        <time>2019-11-21T17:15:08Z</time>
      </trkpt>
      <trkpt lat="43.26449895" lon="-2.8320144">
        <ele>157.96405</ele>
        <time>2019-11-21T17:15:09Z</time>
      </trkpt>
      <trkpt lat="43.26454157" lon="-2.83228327">
        <ele>159.13953</ele>
        <time>2019-11-21T17:15:10Z</time>
      </trkpt>
      <trkpt lat="43.26458171" lon="-2.83255853">
        <ele>160.40973</ele>
        <time>2019-11-21T17:15:11Z</time>
      </trkpt>
      <trkpt lat="43.26463495" lon="-2.83282701">
        <ele>162.23096</ele>
        <time>2019-11-21T17:15:12Z</time>
      </trkpt>
      <trkpt lat="43.26469087" lon="-2.83309681">
        <ele>163.40265</ele>
        <time>2019-11-21T17:15:13Z</time>
      </trkpt>
      <trkpt lat="43.26475758" lon="-2.83336635">
        <ele>164.48639</ele>
        <time>2019-11-21T17:15:14Z</time>
      </trkpt>
      <trkpt lat="43.26482941" lon="-2.8336317">
        <ele>164.7251</ele>
        <time>2019-11-21T17:15:15Z</time>
      </trkpt>
      <trkpt lat="43.26498924" lon="-2.83417304">
        <ele>165.906</ele>
        <time>2019-11-21T17:15:16Z</time>
      </trkpt>
      <trkpt lat="43.2650702" lon="-2.83443234">
        <ele>166.37036</ele>
        <time>2019-11-21T17:15:17Z</time>
      </trkpt>
      <trkpt lat="43.26516242" lon="-2.83468337">
        <ele>167.32782</ele>
        <time>2019-11-21T17:15:18Z</time>
      </trkpt>
      <trkpt lat="43.265255" lon="-2.83493319">
        <ele>168.2351</ele>
        <time>2019-11-21T17:15:19Z</time>
      </trkpt>
      <trkpt lat="43.2653477" lon="-2.83518396">
        <ele>168.78082</ele>
        <time>2019-11-21T17:15:20Z</time>
      </trkpt>
      <trkpt lat="43.26544855" lon="-2.83544261">
        <ele>169.83832</ele>
        <time>2019-11-21T17:15:21Z</time>
      </trkpt>
      <trkpt lat="43.26554983" lon="-2.8356977">
        <ele>169.80786</ele>
        <time>2019-11-21T17:15:22Z</time>
      </trkpt>
      <trkpt lat="43.26565977" lon="-2.83595384">
        <ele>170.25024</ele>
        <time>2019-11-21T17:15:23Z</time>
      </trkpt>
      <trkpt lat="43.26576589" lon="-2.83621304">
        <ele>170.37012</ele>
        <time>2019-11-21T17:15:24Z</time>
      </trkpt>
      <trkpt lat="43.26587795" lon="-2.83648033">
        <ele>170.35565</ele>
        <time>2019-11-21T17:15:25Z</time>
      </trkpt>
      <trkpt lat="43.26598859" lon="-2.83674003">
        <ele>170.05255</ele>
        <time>2019-11-21T17:15:26Z</time>
      </trkpt>
      <trkpt lat="43.26609359" lon="-2.83700924">
        <ele>170.71521</ele>
        <time>2019-11-21T17:15:27Z</time>
      </trkpt>
      <trkpt lat="43.26619967" lon="-2.83728045">
        <ele>170.74994</ele>
        <time>2019-11-21T17:15:29Z</time>
      </trkpt>
      <trkpt lat="43.26630474" lon="-2.83755246">
        <ele>170.65417</ele>
        <time>2019-11-21T17:15:30Z</time>
      </trkpt>
      <trkpt lat="43.26639742" lon="-2.83783039">
        <ele>170.22931</ele>
        <time>2019-11-21T17:15:31Z</time>
      </trkpt>
      <trkpt lat="43.2664883" lon="-2.83811544">
        <ele>161.0564</ele>
        <time>2019-11-21T17:15:32Z</time>
      </trkpt>
      <trkpt lat="43.26657304" lon="-2.83839559">
        <ele>163.44678</ele>
        <time>2019-11-21T17:15:33Z</time>
      </trkpt>
      <trkpt lat="43.26665259" lon="-2.83869241">
        <ele>164.2461</ele>
        <time>2019-11-21T17:15:34Z</time>
      </trkpt>
      <trkpt lat="43.26672284" lon="-2.83898367">
        <ele>165.27826</ele>
        <time>2019-11-21T17:15:35Z</time>
      </trkpt>
      <trkpt lat="43.26678865" lon="-2.8392792">
        <ele>165.54706</ele>
        <time>2019-11-21T17:15:36Z</time>
      </trkpt>
      <trkpt lat="43.26685128" lon="-2.83957224">
        <ele>165.3208</ele>
        <time>2019-11-21T17:15:37Z</time>
      </trkpt>
      <trkpt lat="43.26690805" lon="-2.83986438">
        <ele>165.5625</ele>
        <time>2019-11-21T17:15:38Z</time>
      </trkpt>
      <trkpt lat="43.26695933" lon="-2.84015888">
        <ele>165.4635</ele>
        <time>2019-11-21T17:15:39Z</time>
      </trkpt>
      <trkpt lat="43.2670128" lon="-2.84044746">
        <ele>164.51282</ele>
        <time>2019-11-21T17:15:40Z</time>
      </trkpt>
      <trkpt lat="43.26705064" lon="-2.84073231">
        <ele>164.53467</ele>
        <time>2019-11-21T17:15:41Z</time>
      </trkpt>
      <trkpt lat="43.26708802" lon="-2.84100801">
        <ele>163.5774</ele>
        <time>2019-11-21T17:15:42Z</time>
      </trkpt>
      <trkpt lat="43.26712" lon="-2.84128951">
        <ele>162.927</ele>
        <time>2019-11-21T17:15:43Z</time>
      </trkpt>
      <trkpt lat="43.26715692" lon="-2.84157261">
        <ele>162.51587</ele>
        <time>2019-11-21T17:15:44Z</time>
      </trkpt>
      <trkpt lat="43.26719509" lon="-2.84185753">
        <ele>162.6206</ele>
        <time>2019-11-21T17:15:45Z</time>
      </trkpt>
      <trkpt lat="43.26723208" lon="-2.84214574">
        <ele>162.35645</ele>
        <time>2019-11-21T17:15:46Z</time>
      </trkpt>
      <trkpt lat="43.26730261" lon="-2.84271896">
        <ele>161.677</ele>
        <time>2019-11-21T17:15:47Z</time>
      </trkpt>
      <trkpt lat="43.2673438" lon="-2.84299966">
        <ele>161.85956</ele>
        <time>2019-11-21T17:15:48Z</time>
      </trkpt>
      <trkpt lat="43.26739135" lon="-2.84328468">
        <ele>161.73541</ele>
        <time>2019-11-21T17:15:49Z</time>
      </trkpt>
      <trkpt lat="43.26745151" lon="-2.84357371">
        <ele>160.4248</ele>
        <time>2019-11-21T17:15:50Z</time>
      </trkpt>
      <trkpt lat="43.26751137" lon="-2.84386062">
        <ele>160.66486</ele>
        <time>2019-11-21T17:15:51Z</time>
      </trkpt>
      <trkpt lat="43.26757264" lon="-2.84414456">
        <ele>160.49207</ele>
        <time>2019-11-21T17:15:52Z</time>
      </trkpt>
      <trkpt lat="43.26764315" lon="-2.84442022">
        <ele>161.5133</ele>
        <time>2019-11-21T17:15:53Z</time>
      </trkpt>
      <trkpt lat="43.26772351" lon="-2.84470119">
        <ele>160.15558</ele>
        <time>2019-11-21T17:15:54Z</time>
      </trkpt>
      <trkpt lat="43.26781321" lon="-2.84498117">
        <ele>159.41705</ele>
        <time>2019-11-21T17:15:55Z</time>
      </trkpt>
      <trkpt lat="43.26790793" lon="-2.84526614">
        <ele>157.84766</ele>
        <time>2019-11-21T17:15:56Z</time>
      </trkpt>
      <trkpt lat="43.26800988" lon="-2.8455327">
        <ele>156.78314</ele>
        <time>2019-11-21T17:15:57Z</time>
      </trkpt>
      <trkpt lat="43.26811148" lon="-2.84581381">
        <ele>156.49457</ele>
        <time>2019-11-21T17:15:58Z</time>
      </trkpt>
      <trkpt lat="43.26821818" lon="-2.84608487">
        <ele>156.24963</ele>
        <time>2019-11-21T17:15:59Z</time>
      </trkpt>
      <trkpt lat="43.26833086" lon="-2.84634817">
        <ele>155.43286</ele>
        <time>2019-11-21T17:16:01Z</time>
      </trkpt>
      <trkpt lat="43.26843954" lon="-2.84658693">
        <ele>154.70862</ele>
        <time>2019-11-21T17:16:02Z</time>
      </trkpt>
      <trkpt lat="43.26855049" lon="-2.84682375">
        <ele>157.23425</ele>
        <time>2019-11-21T17:16:03Z</time>
      </trkpt>
      <trkpt lat="43.26866573" lon="-2.8470558">
        <ele>156.52386</ele>
        <time>2019-11-21T17:16:04Z</time>
      </trkpt>
      <trkpt lat="43.268778920173645" lon="-2.8472882509231567">
        <ele>0.0</ele>
        <time>2019-11-21T17:16:05Z</time>
      </trkpt>
      <trkpt lat="43.26920697" lon="-2.84800387">
        <ele>154.8775</ele>
        <time>2019-11-21T17:16:12Z</time>
      </trkpt>
      <trkpt lat="43.26932631" lon="-2.84814626">
        <ele>151.909</ele>
        <time>2019-11-21T17:16:14Z</time>
      </trkpt>
      <trkpt lat="43.26944764" lon="-2.84834607">
        <ele>150.11176</ele>
        <time>2019-11-21T17:16:16Z</time>
      </trkpt>
      <trkpt lat="43.26959599" lon="-2.84856216">
        <ele>147.49762</ele>
        <time>2019-11-21T17:16:18Z</time>
      </trkpt>
      <trkpt lat="43.26970307" lon="-2.84868895">
        <ele>150.2793</ele>
        <time>2019-11-21T17:16:20Z</time>
      </trkpt>
      <trkpt lat="43.26981691" lon="-2.84886505">
        <ele>149.1015</ele>
        <time>2019-11-21T17:16:23Z</time>
      </trkpt>
      <trkpt lat="43.26992633" lon="-2.8490189">
        <ele>148.0824</ele>
        <time>2019-11-21T17:16:28Z</time>
      </trkpt>
      <trkpt lat="43.27003023" lon="-2.8491488">
        <ele>147.26508</ele>
        <time>2019-11-21T17:16:35Z</time>
      </trkpt>
      <trkpt lat="43.27016052" lon="-2.84930693">
        <ele>146.78119</ele>
        <time>2019-11-21T17:16:40Z</time>
      </trkpt>
      <trkpt lat="43.27028484" lon="-2.84944691">
        <ele>147.46533</ele>
        <time>2019-11-21T17:16:44Z</time>
      </trkpt>
      <trkpt lat="43.27040692" lon="-2.84958521">
        <ele>146.67401</ele>
        <time>2019-11-21T17:16:47Z</time>
      </trkpt>
      <trkpt lat="43.2705109" lon="-2.84970395">
        <ele>148.5647</ele>
        <time>2019-11-21T17:16:51Z</time>
      </trkpt>
      <trkpt lat="43.27062491" lon="-2.84983742">
        <ele>147.21729</ele>
        <time>2019-11-21T17:16:55Z</time>
      </trkpt>
      <trkpt lat="43.2707176" lon="-2.84997596">
        <ele>143.95398</ele>
        <time>2019-11-21T17:17:00Z</time>
      </trkpt>
      <trkpt lat="43.27083584" lon="-2.85010833">
        <ele>143.8446</ele>
        <time>2019-11-21T17:17:04Z</time>
      </trkpt>
      <trkpt lat="43.27095139" lon="-2.8502714">
        <ele>142.91754</ele>
        <time>2019-11-21T17:17:09Z</time>
      </trkpt>
      <trkpt lat="43.27104604" lon="-2.85041248">
        <ele>140.84485</ele>
        <time>2019-11-21T17:17:13Z</time>
      </trkpt>
      <trkpt lat="43.27114046" lon="-2.85055479">
        <ele>138.66211</ele>
        <time>2019-11-21T17:17:16Z</time>
      </trkpt>
      <trkpt lat="43.2712308" lon="-2.85070475">
        <ele>137.61847</ele>
        <time>2019-11-21T17:17:21Z</time>
      </trkpt>
      <trkpt lat="43.27132785" lon="-2.85086616">
        <ele>134.61493</ele>
        <time>2019-11-21T17:17:53Z</time>
      </trkpt>
      <trkpt lat="43.27142316" lon="-2.85100945">
        <ele>134.45062</ele>
        <time>2019-11-21T17:17:59Z</time>
      </trkpt>
      <trkpt lat="43.27153178" lon="-2.8511701">
        <ele>135.14258</ele>
        <time>2019-11-21T17:18:04Z</time>
      </trkpt>
      <trkpt lat="43.27162419" lon="-2.85132287">
        <ele>134.69092</ele>
        <time>2019-11-21T17:18:09Z</time>
      </trkpt>
      <trkpt lat="43.27169679" lon="-2.85148307">
        <ele>135.67188</ele>
        <time>2019-11-21T17:18:14Z</time>
      </trkpt>
      <trkpt lat="43.27176962" lon="-2.85166279">
        <ele>135.23572</ele>
        <time>2019-11-21T17:18:21Z</time>
      </trkpt>
      <trkpt lat="43.27184181" lon="-2.85181999">
        <ele>134.4906</ele>
        <time>2019-11-21T17:18:29Z</time>
      </trkpt>
      <trkpt lat="43.27191929" lon="-2.85198161">
        <ele>136.33759</ele>
        <time>2019-11-21T17:18:42Z</time>
      </trkpt>
      <trkpt lat="43.27198999" lon="-2.85215717">
        <ele>136.07294</ele>
        <time>2019-11-21T17:18:46Z</time>
      </trkpt>
      <trkpt lat="43.27205965" lon="-2.85232455">
        <ele>135.33783</ele>
        <time>2019-11-21T17:18:50Z</time>
      </trkpt>
      <trkpt lat="43.27212905" lon="-2.85248918">
        <ele>134.60669</ele>
        <time>2019-11-21T17:18:55Z</time>
      </trkpt>
      <trkpt lat="43.2722023" lon="-2.85269012">
        <ele>132.755</ele>
        <time>2019-11-21T17:19:02Z</time>
      </trkpt>
      <trkpt lat="43.2722604" lon="-2.85287304">
        <ele>134.1283</ele>
        <time>2019-11-21T17:19:06Z</time>
      </trkpt>
      <trkpt lat="43.27231474" lon="-2.85307926">
        <ele>132.65002</ele>
        <time>2019-11-21T17:19:10Z</time>
      </trkpt>
      <trkpt lat="43.27238958" lon="-2.85324918">
        <ele>132.77155</ele>
        <time>2019-11-21T17:19:13Z</time>
      </trkpt>
      <trkpt lat="43.27244506" lon="-2.85342878">
        <ele>133.33716</ele>
        <time>2019-11-21T17:19:16Z</time>
      </trkpt>
      <trkpt lat="43.27250406" lon="-2.85361516">
        <ele>132.65125</ele>
        <time>2019-11-21T17:19:18Z</time>
      </trkpt>
      <trkpt lat="43.27255499" lon="-2.85380096">
        <ele>133.03961</ele>
        <time>2019-11-21T17:19:21Z</time>
      </trkpt>
      <trkpt lat="43.27259388" lon="-2.853985">
        <ele>132.24738</ele>
        <time>2019-11-21T17:19:24Z</time>
      </trkpt>
      <trkpt lat="43.27264117" lon="-2.8541782">
        <ele>131.50195</ele>
        <time>2019-11-21T17:19:27Z</time>
      </trkpt>
      <trkpt lat="43.27268623" lon="-2.85439183">
        <ele>132.20038</ele>
        <time>2019-11-21T17:19:30Z</time>
      </trkpt>
      <trkpt lat="43.27272798" lon="-2.85458838">
        <ele>132.49341</ele>
        <time>2019-11-21T17:19:33Z</time>
      </trkpt>
      <trkpt lat="43.27274448" lon="-2.85478543">
        <ele>134.04297</ele>
        <time>2019-11-21T17:19:37Z</time>
      </trkpt>
      <trkpt lat="43.27276311" lon="-2.85496941">
        <ele>133.9967</ele>
        <time>2019-11-21T17:19:40Z</time>
      </trkpt>
      <trkpt lat="43.27279445" lon="-2.85519103">
        <ele>133.40436</ele>
        <time>2019-11-21T17:19:44Z</time>
      </trkpt>
      <trkpt lat="43.2728206" lon="-2.8553846">
        <ele>133.19849</ele>
        <time>2019-11-21T17:19:52Z</time>
      </trkpt>
      <trkpt lat="43.27283891" lon="-2.85557542">
        <ele>133.14551</ele>
        <time>2019-11-21T17:19:58Z</time>
      </trkpt>
      <trkpt lat="43.27285311" lon="-2.85578734">
        <ele>131.5238</ele>
        <time>2019-11-21T17:20:02Z</time>
      </trkpt>
      <trkpt lat="43.27286137" lon="-2.85599851">
        <ele>130.75555</ele>
        <time>2019-11-21T17:20:08Z</time>
      </trkpt>
      <trkpt lat="43.27287171" lon="-2.85621692">
        <ele>130.8601</ele>
        <time>2019-11-21T17:20:24Z</time>
      </trkpt>
      <trkpt lat="43.27288269" lon="-2.85642217">
        <ele>131.6524</ele>
        <time>2019-11-21T17:20:28Z</time>
      </trkpt>
      <trkpt lat="43.27288758" lon="-2.8566814">
        <ele>136.24695</ele>
        <time>2019-11-21T17:20:36Z</time>
      </trkpt>
      <trkpt lat="43.2728863" lon="-2.85687689">
        <ele>136.69324</ele>
        <time>2019-11-21T17:20:39Z</time>
      </trkpt>
      <trkpt lat="43.27288529" lon="-2.85706357">
        <ele>137.22168</ele>
        <time>2019-11-21T17:20:43Z</time>
      </trkpt>
      <trkpt lat="43.27288555" lon="-2.85725746">
        <ele>137.95477</ele>
        <time>2019-11-21T17:20:49Z</time>
      </trkpt>
      <trkpt lat="43.27288711" lon="-2.85749673">
        <ele>137.67786</ele>
        <time>2019-11-21T17:20:52Z</time>
      </trkpt>
      <trkpt lat="43.27289153" lon="-2.85770575">
        <ele>136.95703</ele>
        <time>2019-11-21T17:20:55Z</time>
      </trkpt>
      <trkpt lat="43.27289352" lon="-2.85789151">
        <ele>136.11139</ele>
        <time>2019-11-21T17:20:59Z</time>
      </trkpt>
      <trkpt lat="43.27289695" lon="-2.85816842">
        <ele>138.80511</ele>
        <time>2019-11-21T17:21:04Z</time>
      </trkpt>
      <trkpt lat="43.27289337" lon="-2.85839437">
        <ele>141.38544</ele>
        <time>2019-11-21T17:21:07Z</time>
      </trkpt>
      <trkpt lat="43.27289535" lon="-2.85860318">
        <ele>143.72491</ele>
        <time>2019-11-21T17:21:10Z</time>
      </trkpt>
      <trkpt lat="43.27290722" lon="-2.85879155">
        <ele>144.32703</ele>
        <time>2019-11-21T17:21:13Z</time>
      </trkpt>
      <trkpt lat="43.27290803" lon="-2.85904554">
        <ele>145.4259</ele>
        <time>2019-11-21T17:21:16Z</time>
      </trkpt>
      <trkpt lat="43.27291406" lon="-2.85925733">
        <ele>145.7096</ele>
        <time>2019-11-21T17:21:20Z</time>
      </trkpt>
      <trkpt lat="43.27293898" lon="-2.85946325">
        <ele>142.5105</ele>
        <time>2019-11-21T17:21:24Z</time>
      </trkpt>
      <trkpt lat="43.27295789" lon="-2.85971028">
        <ele>142.69366</ele>
        <time>2019-11-21T17:21:28Z</time>
      </trkpt>
      <trkpt lat="43.27296906" lon="-2.85990554">
        <ele>143.72955</ele>
        <time>2019-11-21T17:21:31Z</time>
      </trkpt>
      <trkpt lat="43.27299212" lon="-2.860091">
        <ele>144.61804</ele>
        <time>2019-11-21T17:21:33Z</time>
      </trkpt>
      <trkpt lat="43.27301754" lon="-2.86027848">
        <ele>146.12195</ele>
        <time>2019-11-21T17:21:36Z</time>
      </trkpt>
      <trkpt lat="43.27305272" lon="-2.86053625">
        <ele>145.55383</ele>
        <time>2019-11-21T17:21:39Z</time>
      </trkpt>
      <trkpt lat="43.27308718" lon="-2.86077194">
        <ele>145.65265</ele>
        <time>2019-11-21T17:21:41Z</time>
      </trkpt>
      <trkpt lat="43.27315676" lon="-2.86104891">
        <ele>142.14563</ele>
        <time>2019-11-21T17:21:43Z</time>
      </trkpt>
      <trkpt lat="43.27321832" lon="-2.86133289">
        <ele>141.7793</ele>
        <time>2019-11-21T17:21:45Z</time>
      </trkpt>
      <trkpt lat="43.27329183" lon="-2.86165388">
        <ele>141.12653</ele>
        <time>2019-11-21T17:21:48Z</time>
      </trkpt>
      <trkpt lat="43.27337934" lon="-2.86199636">
        <ele>140.33673</ele>
        <time>2019-11-21T17:21:50Z</time>
      </trkpt>
      <trkpt lat="43.2734356" lon="-2.86219094">
        <ele>140.02057</ele>
        <time>2019-11-21T17:21:51Z</time>
      </trkpt>
      <trkpt lat="43.27349757" lon="-2.86239633">
        <ele>140.56152</ele>
        <time>2019-11-21T17:21:52Z</time>
      </trkpt>
      <trkpt lat="43.27355956" lon="-2.86260659">
        <ele>140.65881</ele>
        <time>2019-11-21T17:21:53Z</time>
      </trkpt>
      <trkpt lat="43.27362759" lon="-2.86283012">
        <ele>140.60834</ele>
        <time>2019-11-21T17:21:54Z</time>
      </trkpt>
      <trkpt lat="43.27370568" lon="-2.86304695">
        <ele>140.30457</ele>
        <time>2019-11-21T17:21:55Z</time>
      </trkpt>
      <trkpt lat="43.27379334" lon="-2.86325462">
        <ele>139.77466</ele>
        <time>2019-11-21T17:21:56Z</time>
      </trkpt>
      <trkpt lat="43.27389012" lon="-2.86347787">
        <ele>139.18506</ele>
        <time>2019-11-21T17:21:57Z</time>
      </trkpt>
      <trkpt lat="43.27398845" lon="-2.86370269">
        <ele>139.00488</ele>
        <time>2019-11-21T17:21:58Z</time>
      </trkpt>
      <trkpt lat="43.27409086" lon="-2.86392686">
        <ele>138.29114</ele>
        <time>2019-11-21T17:21:59Z</time>
      </trkpt>
      <trkpt lat="43.2742027" lon="-2.86414308">
        <ele>137.68134</ele>
        <time>2019-11-21T17:22:00Z</time>
      </trkpt>
      <trkpt lat="43.27431732" lon="-2.86436263">
        <ele>137.13629</ele>
        <time>2019-11-21T17:22:01Z</time>
      </trkpt>
      <trkpt lat="43.27443687" lon="-2.86459757">
        <ele>137.96228</ele>
        <time>2019-11-21T17:22:02Z</time>
      </trkpt>
      <trkpt lat="43.27455999" lon="-2.86482923">
        <ele>138.18939</ele>
        <time>2019-11-21T17:22:03Z</time>
      </trkpt>
      <trkpt lat="43.274684" lon="-2.86504676">
        <ele>138.18701</ele>
        <time>2019-11-21T17:22:04Z</time>
      </trkpt>
      <trkpt lat="43.27494047" lon="-2.86546094">
        <ele>137.65216</ele>
        <time>2019-11-21T17:22:05Z</time>
      </trkpt>
      <trkpt lat="43.27507907" lon="-2.86567086">
        <ele>137.60449</ele>
        <time>2019-11-21T17:22:06Z</time>
      </trkpt>
      <trkpt lat="43.27521622180939" lon="-2.865881323814392">
        <ele>0.0</ele>
        <time>2019-11-21T17:22:07Z</time>
      </trkpt>
      <trkpt lat="43.27609408" lon="-2.86779722">
        <ele>135.79034</ele>
        <time>2019-11-21T17:22:14Z</time>
      </trkpt>
      <trkpt lat="43.27618334" lon="-2.86807442">
        <ele>134.73193</ele>
        <time>2019-11-21T17:22:16Z</time>
      </trkpt>
      <trkpt lat="43.27627977" lon="-2.86838176">
        <ele>134.11102</ele>
        <time>2019-11-21T17:22:17Z</time>
      </trkpt>
      <trkpt lat="43.27638048" lon="-2.86869835">
        <ele>133.71863</ele>
        <time>2019-11-21T17:22:18Z</time>
      </trkpt>
      <trkpt lat="43.27647132" lon="-2.86899916">
        <ele>133.59338</ele>
        <time>2019-11-21T17:22:19Z</time>
      </trkpt>
      <trkpt lat="43.27656573" lon="-2.86932437">
        <ele>134.43555</ele>
        <time>2019-11-21T17:22:20Z</time>
      </trkpt>
      <trkpt lat="43.27664623" lon="-2.86964852">
        <ele>135.36542</ele>
        <time>2019-11-21T17:22:21Z</time>
      </trkpt>
      <trkpt lat="43.2767253" lon="-2.86996106">
        <ele>134.46954</ele>
        <time>2019-11-21T17:22:22Z</time>
      </trkpt>
      <trkpt lat="43.27679887" lon="-2.87027624">
        <ele>131.96313</ele>
        <time>2019-11-21T17:22:23Z</time>
      </trkpt>
      <trkpt lat="43.27687217" lon="-2.8705911">
        <ele>131.12384</ele>
        <time>2019-11-21T17:22:24Z</time>
      </trkpt>
      <trkpt lat="43.27694473" lon="-2.87091787">
        <ele>129.44977</ele>
        <time>2019-11-21T17:22:25Z</time>
      </trkpt>
      <trkpt lat="43.27702473" lon="-2.87124984">
        <ele>128.86322</ele>
        <time>2019-11-21T17:22:26Z</time>
      </trkpt>
      <trkpt lat="43.27711229" lon="-2.87158272">
        <ele>128.48401</ele>
        <time>2019-11-21T17:22:27Z</time>
      </trkpt>
      <trkpt lat="43.27719778" lon="-2.87191142">
        <ele>127.87622</ele>
        <time>2019-11-21T17:22:28Z</time>
      </trkpt>
      <trkpt lat="43.27728661" lon="-2.87223588">
        <ele>126.85187</ele>
        <time>2019-11-21T17:22:29Z</time>
      </trkpt>
      <trkpt lat="43.2773823" lon="-2.87255265">
        <ele>125.52124</ele>
        <time>2019-11-21T17:22:30Z</time>
      </trkpt>
      <trkpt lat="43.27748428" lon="-2.87287186">
        <ele>124.34784</ele>
        <time>2019-11-21T17:22:31Z</time>
      </trkpt>
      <trkpt lat="43.27759695" lon="-2.87318316">
        <ele>123.08569</ele>
        <time>2019-11-21T17:22:32Z</time>
      </trkpt>
      <trkpt lat="43.27784316" lon="-2.87380391">
        <ele>120.96118</ele>
        <time>2019-11-21T17:22:33Z</time>
      </trkpt>
      <trkpt lat="43.27798756" lon="-2.87411446">
        <ele>119.23169</ele>
        <time>2019-11-21T17:22:34Z</time>
      </trkpt>
      <trkpt lat="43.2781371" lon="-2.87441571">
        <ele>117.73474</ele>
        <time>2019-11-21T17:22:35Z</time>
      </trkpt>
      <trkpt lat="43.27829668" lon="-2.8747158">
        <ele>116.40173</ele>
        <time>2019-11-21T17:22:36Z</time>
      </trkpt>
      <trkpt lat="43.2784596" lon="-2.87500053">
        <ele>115.03723</ele>
        <time>2019-11-21T17:22:37Z</time>
      </trkpt>
      <trkpt lat="43.27862451" lon="-2.87528272">
        <ele>114.01111</ele>
        <time>2019-11-21T17:22:38Z</time>
      </trkpt>
      <trkpt lat="43.27879057" lon="-2.875557">
        <ele>112.345764</ele>
        <time>2019-11-21T17:22:39Z</time>
      </trkpt>
      <trkpt lat="43.27897114" lon="-2.87582242">
        <ele>111.483154</ele>
        <time>2019-11-21T17:22:40Z</time>
      </trkpt>
      <trkpt lat="43.27914538" lon="-2.87608116">
        <ele>110.7135</ele>
        <time>2019-11-21T17:22:41Z</time>
      </trkpt>
      <trkpt lat="43.27932443" lon="-2.87632977">
        <ele>110.170166</ele>
        <time>2019-11-21T17:22:42Z</time>
      </trkpt>
      <trkpt lat="43.27950503" lon="-2.87658693">
        <ele>110.0036</ele>
        <time>2019-11-21T17:22:43Z</time>
      </trkpt>
      <trkpt lat="43.2796886" lon="-2.87684691">
        <ele>110.20819</ele>
        <time>2019-11-21T17:22:44Z</time>
      </trkpt>
      <trkpt lat="43.27987208" lon="-2.87710648">
        <ele>110.2746</ele>
        <time>2019-11-21T17:22:45Z</time>
      </trkpt>
      <trkpt lat="43.28004975" lon="-2.8773721">
        <ele>110.343506</ele>
        <time>2019-11-21T17:22:46Z</time>
      </trkpt>
      <trkpt lat="43.280231952667236" lon="-2.877645492553711">
        <ele>0.0</ele>
        <time>2019-11-21T17:22:48Z</time>
      </trkpt>
      <trkpt lat="43.28131133" lon="-2.87994325">
        <ele>115.91852</ele>
        <time>2019-11-21T17:22:55Z</time>
      </trkpt>
      <trkpt lat="43.28143141" lon="-2.88029505">
        <ele>113.43982</ele>
        <time>2019-11-21T17:22:56Z</time>
      </trkpt>
      <trkpt lat="43.28154799" lon="-2.88067205">
        <ele>111.78998</ele>
        <time>2019-11-21T17:22:57Z</time>
      </trkpt>
      <trkpt lat="43.28163721" lon="-2.88102425">
        <ele>110.3017</ele>
        <time>2019-11-21T17:22:58Z</time>
      </trkpt>
      <trkpt lat="43.28172095" lon="-2.88138178">
        <ele>108.358154</ele>
        <time>2019-11-21T17:22:59Z</time>
      </trkpt>
      <trkpt lat="43.28179772" lon="-2.88173942">
        <ele>106.83826</ele>
        <time>2019-11-21T17:23:00Z</time>
      </trkpt>
      <trkpt lat="43.28187466" lon="-2.88209034">
        <ele>105.702515</ele>
        <time>2019-11-21T17:23:01Z</time>
      </trkpt>
      <trkpt lat="43.28194574" lon="-2.88244683">
        <ele>104.604614</ele>
        <time>2019-11-21T17:23:02Z</time>
      </trkpt>
      <trkpt lat="43.28202121" lon="-2.88280176">
        <ele>101.62024</ele>
        <time>2019-11-21T17:23:03Z</time>
      </trkpt>
      <trkpt lat="43.28211305" lon="-2.88314875">
        <ele>100.86859</ele>
        <time>2019-11-21T17:23:04Z</time>
      </trkpt>
      <trkpt lat="43.28220656" lon="-2.88349253">
        <ele>99.675476</ele>
        <time>2019-11-21T17:23:05Z</time>
      </trkpt>
      <trkpt lat="43.28230904" lon="-2.8838386">
        <ele>100.40515</ele>
        <time>2019-11-21T17:23:06Z</time>
      </trkpt>
      <trkpt lat="43.28241763" lon="-2.88418">
        <ele>99.45538</ele>
        <time>2019-11-21T17:23:07Z</time>
      </trkpt>
      <trkpt lat="43.28267154" lon="-2.88483488">
        <ele>98.20343</ele>
        <time>2019-11-21T17:23:08Z</time>
      </trkpt>
      <trkpt lat="43.2828092" lon="-2.88514978">
        <ele>97.44946</ele>
        <time>2019-11-21T17:23:09Z</time>
      </trkpt>
      <trkpt lat="43.28295094" lon="-2.88545514">
        <ele>97.21399</ele>
        <time>2019-11-21T17:23:10Z</time>
      </trkpt>
      <trkpt lat="43.28309493" lon="-2.88574294">
        <ele>96.63422</ele>
        <time>2019-11-21T17:23:11Z</time>
      </trkpt>
      <trkpt lat="43.28325065" lon="-2.88602364">
        <ele>98.50073</ele>
        <time>2019-11-21T17:23:12Z</time>
      </trkpt>
      <trkpt lat="43.28341358" lon="-2.88630702">
        <ele>97.53607</ele>
        <time>2019-11-21T17:23:13Z</time>
      </trkpt>
      <trkpt lat="43.28357921" lon="-2.88657964">
        <ele>98.561035</ele>
        <time>2019-11-21T17:23:14Z</time>
      </trkpt>
      <trkpt lat="43.28374454" lon="-2.8868473">
        <ele>100.05017</ele>
        <time>2019-11-21T17:23:15Z</time>
      </trkpt>
      <trkpt lat="43.28390066" lon="-2.88711539">
        <ele>101.228516</ele>
        <time>2019-11-21T17:23:16Z</time>
      </trkpt>
      <trkpt lat="43.28406106" lon="-2.88737952">
        <ele>101.74347</ele>
        <time>2019-11-21T17:23:17Z</time>
      </trkpt>
      <trkpt lat="43.28421387" lon="-2.88765583">
        <ele>103.41693</ele>
        <time>2019-11-21T17:23:18Z</time>
      </trkpt>
      <trkpt lat="43.28435616" lon="-2.88793229">
        <ele>104.14093</ele>
        <time>2019-11-21T17:23:19Z</time>
      </trkpt>
      <trkpt lat="43.28450058" lon="-2.88821899">
        <ele>104.574646</ele>
        <time>2019-11-21T17:23:20Z</time>
      </trkpt>
      <trkpt lat="43.2846261" lon="-2.88848945">
        <ele>105.17938</ele>
        <time>2019-11-21T17:23:21Z</time>
      </trkpt>
      <trkpt lat="43.28475203" lon="-2.88876976">
        <ele>106.499756</ele>
        <time>2019-11-21T17:23:23Z</time>
      </trkpt>
      <trkpt lat="43.28486484" lon="-2.88905483">
        <ele>107.012146</ele>
        <time>2019-11-21T17:23:24Z</time>
      </trkpt>
      <trkpt lat="43.2849736" lon="-2.88934855">
        <ele>106.98584</ele>
        <time>2019-11-21T17:23:25Z</time>
      </trkpt>
      <trkpt lat="43.28508182" lon="-2.8896447">
        <ele>106.38806</ele>
        <time>2019-11-21T17:23:26Z</time>
      </trkpt>
      <trkpt lat="43.28518119" lon="-2.88994014">
        <ele>106.55652</ele>
        <time>2019-11-21T17:23:27Z</time>
      </trkpt>
      <trkpt lat="43.28528777" lon="-2.89024659">
        <ele>105.84381</ele>
        <time>2019-11-21T17:23:28Z</time>
      </trkpt>
      <trkpt lat="43.28540083" lon="-2.89055798">
        <ele>106.065735</ele>
        <time>2019-11-21T17:23:29Z</time>
      </trkpt>
      <trkpt lat="43.2855125" lon="-2.89085389">
        <ele>104.96875</ele>
        <time>2019-11-21T17:23:30Z</time>
      </trkpt>
      <trkpt lat="43.28563728" lon="-2.89114595">
        <ele>105.03131</ele>
        <time>2019-11-21T17:23:31Z</time>
      </trkpt>
      <trkpt lat="43.28576796" lon="-2.89142567">
        <ele>104.59381</ele>
        <time>2019-11-21T17:23:32Z</time>
      </trkpt>
      <trkpt lat="43.28590847" lon="-2.89169976">
        <ele>104.98157</ele>
        <time>2019-11-21T17:23:33Z</time>
      </trkpt>
      <trkpt lat="43.28606063" lon="-2.89197135">
        <ele>103.59125</ele>
        <time>2019-11-21T17:23:34Z</time>
      </trkpt>
      <trkpt lat="43.28622164" lon="-2.89223754">
        <ele>103.81793</ele>
        <time>2019-11-21T17:23:35Z</time>
      </trkpt>
      <trkpt lat="43.28639072" lon="-2.89249455">
        <ele>102.905334</ele>
        <time>2019-11-21T17:23:36Z</time>
      </trkpt>
      <trkpt lat="43.28656519" lon="-2.8927412">
        <ele>102.01416</ele>
        <time>2019-11-21T17:23:37Z</time>
      </trkpt>
      <trkpt lat="43.28675194" lon="-2.89297693">
        <ele>100.964966</ele>
        <time>2019-11-21T17:23:38Z</time>
      </trkpt>
      <trkpt lat="43.28694971" lon="-2.89318102">
        <ele>100.541626</ele>
        <time>2019-11-21T17:23:39Z</time>
      </trkpt>
      <trkpt lat="43.28715869" lon="-2.89339352">
        <ele>100.66193</ele>
        <time>2019-11-21T17:23:40Z</time>
      </trkpt>
      <trkpt lat="43.28734116" lon="-2.89361201">
        <ele>100.83948</ele>
        <time>2019-11-21T17:23:41Z</time>
      </trkpt>
      <trkpt lat="43.28753505" lon="-2.89383209">
        <ele>100.51703</ele>
        <time>2019-11-21T17:23:42Z</time>
      </trkpt>
      <trkpt lat="43.28772191" lon="-2.89406199">
        <ele>100.32654</ele>
        <time>2019-11-21T17:23:43Z</time>
      </trkpt>
      <trkpt lat="43.2878955" lon="-2.89431116">
        <ele>99.151</ele>
        <time>2019-11-21T17:23:44Z</time>
      </trkpt>
      <trkpt lat="43.28821092" lon="-2.89484769">
        <ele>97.90912</ele>
        <time>2019-11-21T17:23:45Z</time>
      </trkpt>
      <trkpt lat="43.28834978" lon="-2.89513433">
        <ele>96.94849</ele>
        <time>2019-11-21T17:23:46Z</time>
      </trkpt>
      <trkpt lat="43.288471" lon="-2.89543274">
        <ele>96.12219</ele>
        <time>2019-11-21T17:23:47Z</time>
      </trkpt>
      <trkpt lat="43.28858079" lon="-2.89574442">
        <ele>95.11316</ele>
        <time>2019-11-21T17:23:48Z</time>
      </trkpt>
      <trkpt lat="43.28867064" lon="-2.89606055">
        <ele>94.914246</ele>
        <time>2019-11-21T17:23:49Z</time>
      </trkpt>
      <trkpt lat="43.28874355" lon="-2.89638493">
        <ele>94.66113</ele>
        <time>2019-11-21T17:23:50Z</time>
      </trkpt>
      <trkpt lat="43.28879865" lon="-2.89671348">
        <ele>94.570984</ele>
        <time>2019-11-21T17:23:51Z</time>
      </trkpt>
      <trkpt lat="43.2888357" lon="-2.89703486">
        <ele>93.98163</ele>
        <time>2019-11-21T17:23:52Z</time>
      </trkpt>
      <trkpt lat="43.28885551" lon="-2.89735166">
        <ele>93.547485</ele>
        <time>2019-11-21T17:23:53Z</time>
      </trkpt>
      <trkpt lat="43.28886441" lon="-2.89765973">
        <ele>93.59192</ele>
        <time>2019-11-21T17:23:54Z</time>
      </trkpt>
      <trkpt lat="43.28886417" lon="-2.8979689">
        <ele>93.74359</ele>
        <time>2019-11-21T17:23:55Z</time>
      </trkpt>
      <trkpt lat="43.28884394" lon="-2.89826623">
        <ele>93.05115</ele>
        <time>2019-11-21T17:23:57Z</time>
      </trkpt>
      <trkpt lat="43.28881477" lon="-2.8985738">
        <ele>95.6651</ele>
        <time>2019-11-21T17:23:58Z</time>
      </trkpt>
      <trkpt lat="43.2887705" lon="-2.89888942">
        <ele>93.90344</ele>
        <time>2019-11-21T17:23:59Z</time>
      </trkpt>
      <trkpt lat="43.28872798" lon="-2.89920781">
        <ele>92.400024</ele>
        <time>2019-11-21T17:24:00Z</time>
      </trkpt>
      <trkpt lat="43.28868672" lon="-2.89951592">
        <ele>91.8833</ele>
        <time>2019-11-21T17:24:01Z</time>
      </trkpt>
      <trkpt lat="43.28864107" lon="-2.89982736">
        <ele>91.56287</ele>
        <time>2019-11-21T17:24:02Z</time>
      </trkpt>
      <trkpt lat="43.28860589" lon="-2.90014362">
        <ele>90.99536</ele>
        <time>2019-11-21T17:24:03Z</time>
      </trkpt>
      <trkpt lat="43.28858006" lon="-2.90046195">
        <ele>90.694885</ele>
        <time>2019-11-21T17:24:04Z</time>
      </trkpt>
      <trkpt lat="43.28856019" lon="-2.90078297">
        <ele>90.2182</ele>
        <time>2019-11-21T17:24:05Z</time>
      </trkpt>
      <trkpt lat="43.28855152" lon="-2.90111524">
        <ele>89.663635</ele>
        <time>2019-11-21T17:24:06Z</time>
      </trkpt>
      <trkpt lat="43.28855543" lon="-2.90143823">
        <ele>91.375854</ele>
        <time>2019-11-21T17:24:07Z</time>
      </trkpt>
      <trkpt lat="43.28858082" lon="-2.90175966">
        <ele>90.30719</ele>
        <time>2019-11-21T17:24:08Z</time>
      </trkpt>
      <trkpt lat="43.28861515" lon="-2.90208514">
        <ele>89.495605</ele>
        <time>2019-11-21T17:24:09Z</time>
      </trkpt>
      <trkpt lat="43.28865436" lon="-2.90242173">
        <ele>89.844055</ele>
        <time>2019-11-21T17:24:10Z</time>
      </trkpt>
      <trkpt lat="43.28873007" lon="-2.90269294">
        <ele>87.8562</ele>
        <time>2019-11-21T17:24:11Z</time>
      </trkpt>
      <trkpt lat="43.28879333" lon="-2.90302164">
        <ele>87.90808</ele>
        <time>2019-11-21T17:24:12Z</time>
      </trkpt>
      <trkpt lat="43.28886402" lon="-2.90335073">
        <ele>87.61835</ele>
        <time>2019-11-21T17:24:13Z</time>
      </trkpt>
      <trkpt lat="43.28893737" lon="-2.90368271">
        <ele>86.84766</ele>
        <time>2019-11-21T17:24:14Z</time>
      </trkpt>
      <trkpt lat="43.28900427" lon="-2.90401339">
        <ele>86.80377</ele>
        <time>2019-11-21T17:24:15Z</time>
      </trkpt>
      <trkpt lat="43.2890936" lon="-2.90433672">
        <ele>86.78821</ele>
        <time>2019-11-21T17:24:16Z</time>
      </trkpt>
      <trkpt lat="43.28916142" lon="-2.90466845">
        <ele>86.48096</ele>
        <time>2019-11-21T17:24:17Z</time>
      </trkpt>
      <trkpt lat="43.28921698" lon="-2.90500389">
        <ele>86.32703</ele>
        <time>2019-11-21T17:24:18Z</time>
      </trkpt>
      <trkpt lat="43.28931734" lon="-2.90566478">
        <ele>86.74524</ele>
        <time>2019-11-21T17:24:19Z</time>
      </trkpt>
      <trkpt lat="43.28935738" lon="-2.9059799">
        <ele>86.999756</ele>
        <time>2019-11-21T17:24:20Z</time>
      </trkpt>
      <trkpt lat="43.2893842" lon="-2.90631313">
        <ele>87.35309</ele>
        <time>2019-11-21T17:24:21Z</time>
      </trkpt>
      <trkpt lat="43.28941269" lon="-2.90664105">
        <ele>88.44336</ele>
        <time>2019-11-21T17:24:22Z</time>
      </trkpt>
      <trkpt lat="43.28942869" lon="-2.90696364">
        <ele>87.84601</ele>
        <time>2019-11-21T17:24:23Z</time>
      </trkpt>
      <trkpt lat="43.28943573" lon="-2.90728296">
        <ele>88.34845</ele>
        <time>2019-11-21T17:24:24Z</time>
      </trkpt>
      <trkpt lat="43.28944167" lon="-2.90760135">
        <ele>88.017395</ele>
        <time>2019-11-21T17:24:25Z</time>
      </trkpt>
      <trkpt lat="43.28943799" lon="-2.90792168">
        <ele>87.470825</ele>
        <time>2019-11-21T17:24:26Z</time>
      </trkpt>
      <trkpt lat="43.28942829" lon="-2.90824106">
        <ele>87.94379</ele>
        <time>2019-11-21T17:24:27Z</time>
      </trkpt>
      <trkpt lat="43.2894142" lon="-2.90856276">
        <ele>87.99457</ele>
        <time>2019-11-21T17:24:28Z</time>
      </trkpt>
      <trkpt lat="43.28939947" lon="-2.90888214">
        <ele>88.54474</ele>
        <time>2019-11-21T17:24:29Z</time>
      </trkpt>
      <trkpt lat="43.28937489" lon="-2.90920418">
        <ele>88.664856</ele>
        <time>2019-11-21T17:24:30Z</time>
      </trkpt>
      <trkpt lat="43.28934859" lon="-2.9095202">
        <ele>87.88202</ele>
        <time>2019-11-21T17:24:31Z</time>
      </trkpt>
      <trkpt lat="43.2893249" lon="-2.90983386">
        <ele>86.6189</ele>
        <time>2019-11-21T17:24:32Z</time>
      </trkpt>
      <trkpt lat="43.28929602" lon="-2.91015581">
        <ele>86.7431</ele>
        <time>2019-11-21T17:24:33Z</time>
      </trkpt>
      <trkpt lat="43.28926716" lon="-2.91047845">
        <ele>86.714905</ele>
        <time>2019-11-21T17:24:35Z</time>
      </trkpt>
      <trkpt lat="43.28924227" lon="-2.91079814">
        <ele>86.11041</ele>
        <time>2019-11-21T17:24:36Z</time>
      </trkpt>
      <trkpt lat="43.28922668" lon="-2.91110863">
        <ele>85.79077</ele>
        <time>2019-11-21T17:24:37Z</time>
      </trkpt>
      <trkpt lat="43.28921761" lon="-2.91142207">
        <ele>86.44092</ele>
        <time>2019-11-21T17:24:38Z</time>
      </trkpt>
      <trkpt lat="43.28921313" lon="-2.91173145">
        <ele>86.036865</ele>
        <time>2019-11-21T17:24:39Z</time>
      </trkpt>
      <trkpt lat="43.28921098" lon="-2.91204399">
        <ele>86.56091</ele>
        <time>2019-11-21T17:24:40Z</time>
      </trkpt>
      <trkpt lat="43.28922006" lon="-2.91235422">
        <ele>86.520935</ele>
        <time>2019-11-21T17:24:41Z</time>
      </trkpt>
      <trkpt lat="43.28923526" lon="-2.91266466">
        <ele>87.064575</ele>
        <time>2019-11-21T17:24:42Z</time>
      </trkpt>
      <trkpt lat="43.28926033" lon="-2.91297995">
        <ele>86.86084</ele>
        <time>2019-11-21T17:24:43Z</time>
      </trkpt>
      <trkpt lat="43.28929473" lon="-2.91329427">
        <ele>86.94586</ele>
        <time>2019-11-21T17:24:44Z</time>
      </trkpt>
      <trkpt lat="43.28933625" lon="-2.91361879">
        <ele>87.61554</ele>
        <time>2019-11-21T17:24:45Z</time>
      </trkpt>
      <trkpt lat="43.28938623" lon="-2.91393715">
        <ele>88.078735</ele>
        <time>2019-11-21T17:24:46Z</time>
      </trkpt>
      <trkpt lat="43.28944516" lon="-2.91424826">
        <ele>88.26001</ele>
        <time>2019-11-21T17:24:47Z</time>
      </trkpt>
      <trkpt lat="43.28951534" lon="-2.91455132">
        <ele>87.808716</ele>
        <time>2019-11-21T17:24:48Z</time>
      </trkpt>
      <trkpt lat="43.28958442" lon="-2.91484999">
        <ele>87.44928</ele>
        <time>2019-11-21T17:24:49Z</time>
      </trkpt>
      <trkpt lat="43.28965354" lon="-2.91514183">
        <ele>86.0495</ele>
        <time>2019-11-21T17:24:50Z</time>
      </trkpt>
      <trkpt lat="43.28970731" lon="-2.91543957">
        <ele>85.09088</ele>
        <time>2019-11-21T17:24:51Z</time>
      </trkpt>
      <trkpt lat="43.28977527" lon="-2.91573757">
        <ele>87.22455</ele>
        <time>2019-11-21T17:24:52Z</time>
      </trkpt>
      <trkpt lat="43.28988269" lon="-2.91632646">
        <ele>85.90283</ele>
        <time>2019-11-21T17:24:53Z</time>
      </trkpt>
      <trkpt lat="43.2899223" lon="-2.91662209">
        <ele>86.005005</ele>
        <time>2019-11-21T17:24:54Z</time>
      </trkpt>
      <trkpt lat="43.28994966" lon="-2.91691442">
        <ele>85.81415</ele>
        <time>2019-11-21T17:24:55Z</time>
      </trkpt>
      <trkpt lat="43.28996037" lon="-2.91722014">
        <ele>86.539856</ele>
        <time>2019-11-21T17:24:56Z</time>
      </trkpt>
      <trkpt lat="43.28996273" lon="-2.91752551">
        <ele>86.397705</ele>
        <time>2019-11-21T17:24:57Z</time>
      </trkpt>
      <trkpt lat="43.28995259" lon="-2.91782913">
        <ele>86.264465</ele>
        <time>2019-11-21T17:24:58Z</time>
      </trkpt>
      <trkpt lat="43.28993095" lon="-2.91813299">
        <ele>86.237305</ele>
        <time>2019-11-21T17:24:59Z</time>
      </trkpt>
      <trkpt lat="43.28990105" lon="-2.9184371">
        <ele>86.91882</ele>
        <time>2019-11-21T17:25:00Z</time>
      </trkpt>
      <trkpt lat="43.28985972" lon="-2.91873558">
        <ele>87.13147</ele>
        <time>2019-11-21T17:25:01Z</time>
      </trkpt>
      <trkpt lat="43.28980715" lon="-2.91902399">
        <ele>87.707275</ele>
        <time>2019-11-21T17:25:02Z</time>
      </trkpt>
      <trkpt lat="43.28974047" lon="-2.91931433">
        <ele>88.65704</ele>
        <time>2019-11-21T17:25:03Z</time>
      </trkpt>
      <trkpt lat="43.28966588" lon="-2.91958781">
        <ele>88.11554</ele>
        <time>2019-11-21T17:25:04Z</time>
      </trkpt>
      <trkpt lat="43.28957459" lon="-2.91985371">
        <ele>88.27356</ele>
        <time>2019-11-21T17:25:05Z</time>
      </trkpt>
      <trkpt lat="43.28947587" lon="-2.92011185">
        <ele>88.22485</ele>
        <time>2019-11-21T17:25:06Z</time>
      </trkpt>
      <trkpt lat="43.2893651" lon="-2.92037323">
        <ele>87.45984</ele>
        <time>2019-11-21T17:25:07Z</time>
      </trkpt>
      <trkpt lat="43.28925139" lon="-2.92061447">
        <ele>86.083984</ele>
        <time>2019-11-21T17:25:09Z</time>
      </trkpt>
      <trkpt lat="43.28913808" lon="-2.92083639">
        <ele>85.19946</ele>
        <time>2019-11-21T17:25:10Z</time>
      </trkpt>
      <trkpt lat="43.28900198" lon="-2.92107372">
        <ele>85.486755</ele>
        <time>2019-11-21T17:25:11Z</time>
      </trkpt>
      <trkpt lat="43.28885996" lon="-2.92129263">
        <ele>84.9718</ele>
        <time>2019-11-21T17:25:12Z</time>
      </trkpt>
      <trkpt lat="43.28870685" lon="-2.92149885">
        <ele>83.883606</ele>
        <time>2019-11-21T17:25:13Z</time>
      </trkpt>
      <trkpt lat="43.28854767" lon="-2.92170697">
        <ele>83.15558</ele>
        <time>2019-11-21T17:25:14Z</time>
      </trkpt>
      <trkpt lat="43.28837672" lon="-2.92190379">
        <ele>83.12103</ele>
        <time>2019-11-21T17:25:15Z</time>
      </trkpt>
      <trkpt lat="43.2882152" lon="-2.92209044">
        <ele>81.90045</ele>
        <time>2019-11-21T17:25:16Z</time>
      </trkpt>
      <trkpt lat="43.28804691" lon="-2.92227689">
        <ele>81.29431</ele>
        <time>2019-11-21T17:25:17Z</time>
      </trkpt>
      <trkpt lat="43.28786885" lon="-2.92248333">
        <ele>80.923096</ele>
        <time>2019-11-21T17:25:18Z</time>
      </trkpt>
      <trkpt lat="43.2877034" lon="-2.92267989">
        <ele>80.57422</ele>
        <time>2019-11-21T17:25:19Z</time>
      </trkpt>
      <trkpt lat="43.28755893" lon="-2.92285643">
        <ele>79.30109</ele>
        <time>2019-11-21T17:25:20Z</time>
      </trkpt>
      <trkpt lat="43.28739156" lon="-2.92307829">
        <ele>79.73639</ele>
        <time>2019-11-21T17:25:21Z</time>
      </trkpt>
      <trkpt lat="43.28723035" lon="-2.92330307">
        <ele>79.15466</ele>
        <time>2019-11-21T17:25:22Z</time>
      </trkpt>
      <trkpt lat="43.28707802" lon="-2.92353434">
        <ele>78.33789</ele>
        <time>2019-11-21T17:25:23Z</time>
      </trkpt>
      <trkpt lat="43.28693568" lon="-2.92378205">
        <ele>80.81641</ele>
        <time>2019-11-21T17:25:24Z</time>
      </trkpt>
      <trkpt lat="43.28679827" lon="-2.92403126">
        <ele>79.46918</ele>
        <time>2019-11-21T17:25:25Z</time>
      </trkpt>
      <trkpt lat="43.28666881" lon="-2.92428624">
        <ele>78.42444</ele>
        <time>2019-11-21T17:25:26Z</time>
      </trkpt>
      <trkpt lat="43.28654796" lon="-2.92454889">
        <ele>77.7688</ele>
        <time>2019-11-21T17:25:27Z</time>
      </trkpt>
      <trkpt lat="43.28632334" lon="-2.92507799">
        <ele>78.15613</ele>
        <time>2019-11-21T17:25:28Z</time>
      </trkpt>
      <trkpt lat="43.28622311" lon="-2.92536662">
        <ele>78.32666</ele>
        <time>2019-11-21T17:25:29Z</time>
      </trkpt>
      <trkpt lat="43.28612457" lon="-2.9256661">
        <ele>78.34595</ele>
        <time>2019-11-21T17:25:30Z</time>
      </trkpt>
      <trkpt lat="43.28603437" lon="-2.92595996">
        <ele>78.49963</ele>
        <time>2019-11-21T17:25:31Z</time>
      </trkpt>
      <trkpt lat="43.28595269" lon="-2.92626512">
        <ele>79.49634</ele>
        <time>2019-11-21T17:25:32Z</time>
      </trkpt>
      <trkpt lat="43.28587741" lon="-2.92656353">
        <ele>79.57593</ele>
        <time>2019-11-21T17:25:33Z</time>
      </trkpt>
      <trkpt lat="43.28581158" lon="-2.92686254">
        <ele>79.215454</ele>
        <time>2019-11-21T17:25:34Z</time>
      </trkpt>
      <trkpt lat="43.28575356" lon="-2.92716705">
        <ele>78.954346</ele>
        <time>2019-11-21T17:25:35Z</time>
      </trkpt>
      <trkpt lat="43.28570691" lon="-2.92747873">
        <ele>79.901306</ele>
        <time>2019-11-21T17:25:36Z</time>
      </trkpt>
      <trkpt lat="43.28566438" lon="-2.92778439">
        <ele>79.841675</ele>
        <time>2019-11-21T17:25:37Z</time>
      </trkpt>
      <trkpt lat="43.28562743" lon="-2.9281006">
        <ele>80.05359</ele>
        <time>2019-11-21T17:25:38Z</time>
      </trkpt>
      <trkpt lat="43.2856026" lon="-2.92840981">
        <ele>80.007385</ele>
        <time>2019-11-21T17:25:39Z</time>
      </trkpt>
      <trkpt lat="43.28558821" lon="-2.92871806">
        <ele>80.67468</ele>
        <time>2019-11-21T17:25:40Z</time>
      </trkpt>
      <trkpt lat="43.28558178" lon="-2.92902004">
        <ele>81.128174</ele>
        <time>2019-11-21T17:25:41Z</time>
      </trkpt>
      <trkpt lat="43.2855779" lon="-2.92931761">
        <ele>81.161865</ele>
        <time>2019-11-21T17:25:43Z</time>
      </trkpt>
      <trkpt lat="43.28558066" lon="-2.92961939">
        <ele>81.27985</ele>
        <time>2019-11-21T17:25:44Z</time>
      </trkpt>
      <trkpt lat="43.28559477" lon="-2.92991699">
        <ele>81.09625</ele>
        <time>2019-11-21T17:25:45Z</time>
      </trkpt>
      <trkpt lat="43.28561471" lon="-2.93021723">
        <ele>81.47168</ele>
        <time>2019-11-21T17:25:46Z</time>
      </trkpt>
      <trkpt lat="43.28563911" lon="-2.9305202">
        <ele>82.272095</ele>
        <time>2019-11-21T17:25:47Z</time>
      </trkpt>
      <trkpt lat="43.28568284" lon="-2.93081424">
        <ele>83.220764</ele>
        <time>2019-11-21T17:25:48Z</time>
      </trkpt>
      <trkpt lat="43.28572619" lon="-2.93110251">
        <ele>84.402954</ele>
        <time>2019-11-21T17:25:49Z</time>
      </trkpt>
      <trkpt lat="43.28577137" lon="-2.93138646">
        <ele>85.00952</ele>
        <time>2019-11-21T17:25:50Z</time>
      </trkpt>
      <trkpt lat="43.28581912" lon="-2.9316613">
        <ele>86.66327</ele>
        <time>2019-11-21T17:25:51Z</time>
      </trkpt>
      <trkpt lat="43.28587369" lon="-2.9319365">
        <ele>87.786804</ele>
        <time>2019-11-21T17:25:52Z</time>
      </trkpt>
      <trkpt lat="43.28592839" lon="-2.93220823">
        <ele>88.88287</ele>
        <time>2019-11-21T17:25:53Z</time>
      </trkpt>
      <trkpt lat="43.2859831" lon="-2.93248096">
        <ele>89.769226</ele>
        <time>2019-11-21T17:25:54Z</time>
      </trkpt>
      <trkpt lat="43.2860317" lon="-2.93275551">
        <ele>90.72681</ele>
        <time>2019-11-21T17:25:55Z</time>
      </trkpt>
      <trkpt lat="43.28608767" lon="-2.93302886">
        <ele>91.30072</ele>
        <time>2019-11-21T17:25:56Z</time>
      </trkpt>
      <trkpt lat="43.28613683" lon="-2.93332133">
        <ele>93.38855</ele>
        <time>2019-11-21T17:25:57Z</time>
      </trkpt>
      <trkpt lat="43.28619336" lon="-2.93361165">
        <ele>94.247925</ele>
        <time>2019-11-21T17:25:58Z</time>
      </trkpt>
      <trkpt lat="43.28623941" lon="-2.93392447">
        <ele>98.38013</ele>
        <time>2019-11-21T17:25:59Z</time>
      </trkpt>
      <trkpt lat="43.28629761" lon="-2.93423509">
        <ele>101.69476</ele>
        <time>2019-11-21T17:26:00Z</time>
      </trkpt>
      <trkpt lat="43.28636228" lon="-2.93453233">
        <ele>99.1311</ele>
        <time>2019-11-21T17:26:01Z</time>
      </trkpt>
      <trkpt lat="43.2865004" lon="-2.93512082">
        <ele>103.25177</ele>
        <time>2019-11-21T17:26:02Z</time>
      </trkpt>
      <trkpt lat="43.28656557" lon="-2.93540775">
        <ele>104.06677</ele>
        <time>2019-11-21T17:26:03Z</time>
      </trkpt>
      <trkpt lat="43.28662878" lon="-2.93570146">
        <ele>106.05084</ele>
        <time>2019-11-21T17:26:04Z</time>
      </trkpt>
      <trkpt lat="43.28667477" lon="-2.93597258">
        <ele>106.69348</ele>
        <time>2019-11-21T17:26:05Z</time>
      </trkpt>
      <trkpt lat="43.28675248" lon="-2.93627812">
        <ele>109.09784</ele>
        <time>2019-11-21T17:26:06Z</time>
      </trkpt>
      <trkpt lat="43.28683011" lon="-2.93657959">
        <ele>110.53699</ele>
        <time>2019-11-21T17:26:07Z</time>
      </trkpt>
      <trkpt lat="43.28689809" lon="-2.93687443">
        <ele>111.64728</ele>
        <time>2019-11-21T17:26:08Z</time>
      </trkpt>
      <trkpt lat="43.28698128" lon="-2.93717858">
        <ele>112.29193</ele>
        <time>2019-11-21T17:26:09Z</time>
      </trkpt>
      <trkpt lat="43.28706923" lon="-2.93747201">
        <ele>113.5556</ele>
        <time>2019-11-21T17:26:10Z</time>
      </trkpt>
      <trkpt lat="43.28717172" lon="-2.93776954">
        <ele>113.89203</ele>
        <time>2019-11-21T17:26:11Z</time>
      </trkpt>
      <trkpt lat="43.28727946" lon="-2.9380555">
        <ele>115.11456</ele>
        <time>2019-11-21T17:26:12Z</time>
      </trkpt>
      <trkpt lat="43.28739254" lon="-2.9383489">
        <ele>115.66742</ele>
        <time>2019-11-21T17:26:13Z</time>
      </trkpt>
      <trkpt lat="43.28751012" lon="-2.93864368">
        <ele>116.50238</ele>
        <time>2019-11-21T17:26:14Z</time>
      </trkpt>
      <trkpt lat="43.28763341" lon="-2.93892819">
        <ele>117.10303</ele>
        <time>2019-11-21T17:26:15Z</time>
      </trkpt>
      <trkpt lat="43.28776093" lon="-2.93920891">
        <ele>117.88336</ele>
        <time>2019-11-21T17:26:16Z</time>
      </trkpt>
      <trkpt lat="43.28789513" lon="-2.93947874">
        <ele>118.86914</ele>
        <time>2019-11-21T17:26:17Z</time>
      </trkpt>
      <trkpt lat="43.28803842" lon="-2.93974713">
        <ele>115.14447</ele>
        <time>2019-11-21T17:26:19Z</time>
      </trkpt>
      <trkpt lat="43.28818835" lon="-2.93999456">
        <ele>116.96246</ele>
        <time>2019-11-21T17:26:20Z</time>
      </trkpt>
      <trkpt lat="43.28834067" lon="-2.94023951">
        <ele>117.34119</ele>
        <time>2019-11-21T17:26:21Z</time>
      </trkpt>
      <trkpt lat="43.28849554" lon="-2.94047457">
        <ele>116.94684</ele>
        <time>2019-11-21T17:26:22Z</time>
      </trkpt>
      <trkpt lat="43.28865507" lon="-2.94069807">
        <ele>118.08655</ele>
        <time>2019-11-21T17:26:23Z</time>
      </trkpt>
      <trkpt lat="43.28882666" lon="-2.94093325">
        <ele>117.36047</ele>
        <time>2019-11-21T17:26:24Z</time>
      </trkpt>
      <trkpt lat="43.28900242" lon="-2.94114724">
        <ele>117.598145</ele>
        <time>2019-11-21T17:26:25Z</time>
      </trkpt>
      <trkpt lat="43.28918856" lon="-2.94136238">
        <ele>116.643005</ele>
        <time>2019-11-21T17:26:26Z</time>
      </trkpt>
      <trkpt lat="43.28936861" lon="-2.9415643">
        <ele>116.346985</ele>
        <time>2019-11-21T17:26:27Z</time>
      </trkpt>
      <trkpt lat="43.28954934" lon="-2.94175967">
        <ele>115.91803</ele>
        <time>2019-11-21T17:26:28Z</time>
      </trkpt>
      <trkpt lat="43.2897405" lon="-2.94194237">
        <ele>115.2547</ele>
        <time>2019-11-21T17:26:29Z</time>
      </trkpt>
      <trkpt lat="43.28993473" lon="-2.94212268">
        <ele>115.13049</ele>
        <time>2019-11-21T17:26:30Z</time>
      </trkpt>
      <trkpt lat="43.29013163" lon="-2.94229473">
        <ele>114.66742</ele>
        <time>2019-11-21T17:26:31Z</time>
      </trkpt>
      <trkpt lat="43.29033605" lon="-2.94245048">
        <ele>114.818115</ele>
        <time>2019-11-21T17:26:32Z</time>
      </trkpt>
      <trkpt lat="43.29052801" lon="-2.94258871">
        <ele>113.51965</ele>
        <time>2019-11-21T17:26:33Z</time>
      </trkpt>
      <trkpt lat="43.29071137" lon="-2.94271881">
        <ele>113.29993</ele>
        <time>2019-11-21T17:26:34Z</time>
      </trkpt>
      <trkpt lat="43.29091671" lon="-2.94286506">
        <ele>112.94696</ele>
        <time>2019-11-21T17:26:35Z</time>
      </trkpt>
      <trkpt lat="43.29109977" lon="-2.94297495">
        <ele>111.550354</ele>
        <time>2019-11-21T17:26:36Z</time>
      </trkpt>
      <trkpt lat="43.29129011" lon="-2.94308076">
        <ele>110.75116</ele>
        <time>2019-11-21T17:26:37Z</time>
      </trkpt>
      <trkpt lat="43.2914762" lon="-2.94317002">
        <ele>107.63782</ele>
        <time>2019-11-21T17:26:38Z</time>
      </trkpt>
      <trkpt lat="43.29166582" lon="-2.94326326">
        <ele>107.74939</ele>
        <time>2019-11-21T17:26:39Z</time>
      </trkpt>
      <trkpt lat="43.29186918" lon="-2.94335129">
        <ele>107.75256</ele>
        <time>2019-11-21T17:26:40Z</time>
      </trkpt>
      <trkpt lat="43.29226" lon="-2.94350591">
        <ele>107.36444</ele>
        <time>2019-11-21T17:26:41Z</time>
      </trkpt>
      <trkpt lat="43.29246508" lon="-2.94358512">
        <ele>106.56891</ele>
        <time>2019-11-21T17:26:42Z</time>
      </trkpt>
      <trkpt lat="43.29268007" lon="-2.94366931">
        <ele>105.74512</ele>
        <time>2019-11-21T17:26:43Z</time>
      </trkpt>
      <trkpt lat="43.29288875" lon="-2.94375345">
        <ele>105.13965</ele>
        <time>2019-11-21T17:26:44Z</time>
      </trkpt>
      <trkpt lat="43.29310346" lon="-2.94384998">
        <ele>104.51935</ele>
        <time>2019-11-21T17:26:45Z</time>
      </trkpt>
      <trkpt lat="43.29331291" lon="-2.94396294">
        <ele>104.116516</ele>
        <time>2019-11-21T17:26:46Z</time>
      </trkpt>
      <trkpt lat="43.29351699" lon="-2.9440752">
        <ele>103.158875</ele>
        <time>2019-11-21T17:26:47Z</time>
      </trkpt>
      <trkpt lat="43.29371037" lon="-2.94420751">
        <ele>103.26477</ele>
        <time>2019-11-21T17:26:48Z</time>
      </trkpt>
      <trkpt lat="43.29390954" lon="-2.9443494">
        <ele>104.01117</ele>
        <time>2019-11-21T17:26:49Z</time>
      </trkpt>
      <trkpt lat="43.29411237" lon="-2.94449635">
        <ele>102.85022</ele>
        <time>2019-11-21T17:26:50Z</time>
      </trkpt>
      <trkpt lat="43.294264" lon="-2.9446691">
        <ele>103.75195</ele>
        <time>2019-11-21T17:26:51Z</time>
      </trkpt>
      <trkpt lat="43.29445008" lon="-2.94484299">
        <ele>103.76141</ele>
        <time>2019-11-21T17:26:53Z</time>
      </trkpt>
      <trkpt lat="43.29462644" lon="-2.94501402">
        <ele>102.20801</ele>
        <time>2019-11-21T17:26:54Z</time>
      </trkpt>
      <trkpt lat="43.29479875" lon="-2.94519573">
        <ele>101.38599</ele>
        <time>2019-11-21T17:26:55Z</time>
      </trkpt>
      <trkpt lat="43.29495987" lon="-2.9453956">
        <ele>98.9375</ele>
        <time>2019-11-21T17:26:56Z</time>
      </trkpt>
      <trkpt lat="43.29512535" lon="-2.94557823">
        <ele>97.38245</ele>
        <time>2019-11-21T17:26:57Z</time>
      </trkpt>
      <trkpt lat="43.29527963" lon="-2.94576851">
        <ele>96.18817</ele>
        <time>2019-11-21T17:26:58Z</time>
      </trkpt>
      <trkpt lat="43.29543834" lon="-2.94596565">
        <ele>94.83118</ele>
        <time>2019-11-21T17:26:59Z</time>
      </trkpt>
      <trkpt lat="43.29559804" lon="-2.94617159">
        <ele>93.16644</ele>
        <time>2019-11-21T17:27:00Z</time>
      </trkpt>
      <trkpt lat="43.29575008" lon="-2.94637454">
        <ele>91.527954</ele>
        <time>2019-11-21T17:27:01Z</time>
      </trkpt>
      <trkpt lat="43.2959039" lon="-2.94659124">
        <ele>90.132996</ele>
        <time>2019-11-21T17:27:02Z</time>
      </trkpt>
      <trkpt lat="43.29605777" lon="-2.94680389">
        <ele>89.03088</ele>
        <time>2019-11-21T17:27:03Z</time>
      </trkpt>
      <trkpt lat="43.29621368" lon="-2.94702319">
        <ele>87.77362</ele>
        <time>2019-11-21T17:27:04Z</time>
      </trkpt>
      <trkpt lat="43.29636321" lon="-2.94724377">
        <ele>89.145874</ele>
        <time>2019-11-21T17:27:05Z</time>
      </trkpt>
      <trkpt lat="43.2965097" lon="-2.94745547">
        <ele>87.72351</ele>
        <time>2019-11-21T17:27:06Z</time>
      </trkpt>
      <trkpt lat="43.29664822" lon="-2.94766611">
        <ele>86.394165</ele>
        <time>2019-11-21T17:27:07Z</time>
      </trkpt>
      <trkpt lat="43.29678644" lon="-2.94787648">
        <ele>85.49939</ele>
        <time>2019-11-21T17:27:08Z</time>
      </trkpt>
      <trkpt lat="43.29692451" lon="-2.94808154">
        <ele>84.684326</ele>
        <time>2019-11-21T17:27:09Z</time>
      </trkpt>
      <trkpt lat="43.29707479" lon="-2.94830027">
        <ele>83.93915</ele>
        <time>2019-11-21T17:27:10Z</time>
      </trkpt>
      <trkpt lat="43.29734099" lon="-2.94871311">
        <ele>81.981445</ele>
        <time>2019-11-21T17:27:11Z</time>
      </trkpt>
      <trkpt lat="43.29745981" lon="-2.94890634">
        <ele>81.39966</ele>
        <time>2019-11-21T17:27:12Z</time>
      </trkpt>
      <trkpt lat="43.29757706" lon="-2.94907845">
        <ele>80.34601</ele>
        <time>2019-11-21T17:27:13Z</time>
      </trkpt>
      <trkpt lat="43.29767839" lon="-2.9492499">
        <ele>79.552124</ele>
        <time>2019-11-21T17:27:14Z</time>
      </trkpt>
      <trkpt lat="43.29776936" lon="-2.9494241">
        <ele>78.52698</ele>
        <time>2019-11-21T17:27:15Z</time>
      </trkpt>
      <trkpt lat="43.2978518" lon="-2.94959398">
        <ele>78.21155</ele>
        <time>2019-11-21T17:27:16Z</time>
      </trkpt>
      <trkpt lat="43.2979392" lon="-2.94976796">
        <ele>77.65918</ele>
        <time>2019-11-21T17:27:17Z</time>
      </trkpt>
      <trkpt lat="43.29802696" lon="-2.94993727">
        <ele>77.28491</ele>
        <time>2019-11-21T17:27:18Z</time>
      </trkpt>
      <trkpt lat="43.29811793" lon="-2.95010449">
        <ele>76.562744</ele>
        <time>2019-11-21T17:27:19Z</time>
      </trkpt>
      <trkpt lat="43.29821427" lon="-2.95026887">
        <ele>76.19806</ele>
        <time>2019-11-21T17:27:20Z</time>
      </trkpt>
      <trkpt lat="43.29832631" lon="-2.95041065">
        <ele>75.31482</ele>
        <time>2019-11-21T17:27:21Z</time>
      </trkpt>
      <trkpt lat="43.29844841" lon="-2.9505447">
        <ele>74.75891</ele>
        <time>2019-11-21T17:27:22Z</time>
      </trkpt>
      <trkpt lat="43.29858119" lon="-2.95066281">
        <ele>74.671265</ele>
        <time>2019-11-21T17:27:24Z</time>
      </trkpt>
      <trkpt lat="43.2987148" lon="-2.95078621">
        <ele>74.23059</ele>
        <time>2019-11-21T17:27:25Z</time>
      </trkpt>
      <trkpt lat="43.29885956" lon="-2.95091158">
        <ele>73.45154</ele>
        <time>2019-11-21T17:27:26Z</time>
      </trkpt>
      <trkpt lat="43.29900289" lon="-2.95104594">
        <ele>73.58258</ele>
        <time>2019-11-21T17:27:27Z</time>
      </trkpt>
      <trkpt lat="43.29912246" lon="-2.95118157">
        <ele>73.13452</ele>
        <time>2019-11-21T17:27:28Z</time>
      </trkpt>
      <trkpt lat="43.29924121" lon="-2.9513459">
        <ele>73.69873</ele>
        <time>2019-11-21T17:27:29Z</time>
      </trkpt>
      <trkpt lat="43.29933962" lon="-2.95152957">
        <ele>72.960205</ele>
        <time>2019-11-21T17:27:30Z</time>
      </trkpt>
      <trkpt lat="43.29941717" lon="-2.95172133">
        <ele>73.65027</ele>
        <time>2019-11-21T17:27:31Z</time>
      </trkpt>
      <trkpt lat="43.29948497" lon="-2.95193016">
        <ele>73.76251</ele>
        <time>2019-11-21T17:27:32Z</time>
      </trkpt>
      <trkpt lat="43.2995372" lon="-2.95214458">
        <ele>74.364624</ele>
        <time>2019-11-21T17:27:33Z</time>
      </trkpt>
      <trkpt lat="43.29956232" lon="-2.95236821">
        <ele>75.19794</ele>
        <time>2019-11-21T17:27:34Z</time>
      </trkpt>
      <trkpt lat="43.29956428" lon="-2.95258751">
        <ele>75.88434</ele>
        <time>2019-11-21T17:27:35Z</time>
      </trkpt>
      <trkpt lat="43.29953586" lon="-2.95280364">
        <ele>76.737305</ele>
        <time>2019-11-21T17:27:36Z</time>
      </trkpt>
      <trkpt lat="43.29948631" lon="-2.95301429">
        <ele>77.58917</ele>
        <time>2019-11-21T17:27:37Z</time>
      </trkpt>
      <trkpt lat="43.29941819" lon="-2.95320975">
        <ele>78.522156</ele>
        <time>2019-11-21T17:27:38Z</time>
      </trkpt>
      <trkpt lat="43.29932263" lon="-2.95338724">
        <ele>79.47919</ele>
        <time>2019-11-21T17:27:39Z</time>
      </trkpt>
      <trkpt lat="43.29920984" lon="-2.95353634">
        <ele>80.48865</ele>
        <time>2019-11-21T17:27:40Z</time>
      </trkpt>
      <trkpt lat="43.29907995" lon="-2.95365433">
        <ele>81.40723</ele>
        <time>2019-11-21T17:27:41Z</time>
      </trkpt>
      <trkpt lat="43.29878662" lon="-2.95380007">
        <ele>83.03418</ele>
        <time>2019-11-21T17:27:42Z</time>
      </trkpt>
      <trkpt lat="43.29862831" lon="-2.9538274">
        <ele>85.01471</ele>
        <time>2019-11-21T17:27:43Z</time>
      </trkpt>
      <trkpt lat="43.29846167" lon="-2.9538249">
        <ele>85.13751</ele>
        <time>2019-11-21T17:27:44Z</time>
      </trkpt>
      <trkpt lat="43.29828751" lon="-2.95381693">
        <ele>86.17865</ele>
        <time>2019-11-21T17:27:45Z</time>
      </trkpt>
      <trkpt lat="43.298104" lon="-2.95380919">
        <ele>86.97803</ele>
        <time>2019-11-21T17:27:46Z</time>
      </trkpt>
      <trkpt lat="43.29791721" lon="-2.95380209">
        <ele>87.619995</ele>
        <time>2019-11-21T17:27:47Z</time>
      </trkpt>
      <trkpt lat="43.29773384" lon="-2.95377839">
        <ele>88.58557</ele>
        <time>2019-11-21T17:27:48Z</time>
      </trkpt>
      <trkpt lat="43.2975466" lon="-2.95375753">
        <ele>88.93872</ele>
        <time>2019-11-21T17:27:49Z</time>
      </trkpt>
      <trkpt lat="43.29735386" lon="-2.9537333">
        <ele>89.44641</ele>
        <time>2019-11-21T17:27:50Z</time>
      </trkpt>
      <trkpt lat="43.29716135" lon="-2.95371578">
        <ele>89.71222</ele>
        <time>2019-11-21T17:27:51Z</time>
      </trkpt>
      <trkpt lat="43.29696963" lon="-2.95369209">
        <ele>90.33453</ele>
        <time>2019-11-21T17:27:52Z</time>
      </trkpt>
      <trkpt lat="43.29678423" lon="-2.95366558">
        <ele>91.28223</ele>
        <time>2019-11-21T17:27:53Z</time>
      </trkpt>
      <trkpt lat="43.29660376" lon="-2.95361916">
        <ele>92.19934</ele>
        <time>2019-11-21T17:27:54Z</time>
      </trkpt>
      <trkpt lat="43.29642624" lon="-2.9535578">
        <ele>92.77594</ele>
        <time>2019-11-21T17:27:56Z</time>
      </trkpt>
      <trkpt lat="43.29625146" lon="-2.95349008">
        <ele>92.85498</ele>
        <time>2019-11-21T17:27:57Z</time>
      </trkpt>
      <trkpt lat="43.29607595" lon="-2.95342346">
        <ele>93.16699</ele>
        <time>2019-11-21T17:27:58Z</time>
      </trkpt>
      <trkpt lat="43.29589369" lon="-2.95337869">
        <ele>94.016785</ele>
        <time>2019-11-21T17:27:59Z</time>
      </trkpt>
      <trkpt lat="43.29571211" lon="-2.95336044">
        <ele>95.94586</ele>
        <time>2019-11-21T17:28:00Z</time>
      </trkpt>
      <trkpt lat="43.29553246" lon="-2.95336027">
        <ele>96.83411</ele>
        <time>2019-11-21T17:28:01Z</time>
      </trkpt>
      <trkpt lat="43.29535569" lon="-2.95338967">
        <ele>97.74066</ele>
        <time>2019-11-21T17:28:02Z</time>
      </trkpt>
      <trkpt lat="43.29518011" lon="-2.9534446">
        <ele>98.21759</ele>
        <time>2019-11-21T17:28:03Z</time>
      </trkpt>
      <trkpt lat="43.2950166" lon="-2.95353775">
        <ele>99.133545</ele>
        <time>2019-11-21T17:28:04Z</time>
      </trkpt>
      <trkpt lat="43.29487956" lon="-2.95363954">
        <ele>98.7561</ele>
        <time>2019-11-21T17:28:05Z</time>
      </trkpt>
      <trkpt lat="43.29473919" lon="-2.953752">
        <ele>100.247986</ele>
        <time>2019-11-21T17:28:06Z</time>
      </trkpt>
      <trkpt lat="43.29460414" lon="-2.9538738">
        <ele>101.885315</ele>
        <time>2019-11-21T17:28:07Z</time>
      </trkpt>
      <trkpt lat="43.29448258" lon="-2.95401672">
        <ele>102.43628</ele>
        <time>2019-11-21T17:28:08Z</time>
      </trkpt>
      <trkpt lat="43.2943688" lon="-2.95417074">
        <ele>103.64673</ele>
        <time>2019-11-21T17:28:09Z</time>
      </trkpt>
      <trkpt lat="43.29426118" lon="-2.95433308">
        <ele>104.9458</ele>
        <time>2019-11-21T17:28:10Z</time>
      </trkpt>
      <trkpt lat="43.29415402" lon="-2.95449181">
        <ele>106.18713</ele>
        <time>2019-11-21T17:28:11Z</time>
      </trkpt>
      <trkpt lat="43.29404219" lon="-2.95465609">
        <ele>107.430786</ele>
        <time>2019-11-21T17:28:12Z</time>
      </trkpt>
      <trkpt lat="43.29393261" lon="-2.95482446">
        <ele>108.90741</ele>
        <time>2019-11-21T17:28:13Z</time>
      </trkpt>
      <trkpt lat="43.29382329" lon="-2.95499949">
        <ele>109.9563</ele>
        <time>2019-11-21T17:28:14Z</time>
      </trkpt>
      <trkpt lat="43.29370676" lon="-2.95517468">
        <ele>111.09363</ele>
        <time>2019-11-21T17:28:15Z</time>
      </trkpt>
      <trkpt lat="43.29359036" lon="-2.95535543">
        <ele>111.931885</ele>
        <time>2019-11-21T17:28:16Z</time>
      </trkpt>
      <trkpt lat="43.29348298" lon="-2.95553622">
        <ele>113.50116</ele>
        <time>2019-11-21T17:28:17Z</time>
      </trkpt>
      <trkpt lat="43.29331106" lon="-2.95591962">
        <ele>114.48297</ele>
        <time>2019-11-21T17:28:18Z</time>
      </trkpt>
      <trkpt lat="43.29325757" lon="-2.95611236">
        <ele>115.46716</ele>
        <time>2019-11-21T17:28:19Z</time>
      </trkpt>
      <trkpt lat="43.29321635" lon="-2.95631317">
        <ele>115.91614</ele>
        <time>2019-11-21T17:28:20Z</time>
      </trkpt>
      <trkpt lat="43.29318124" lon="-2.95649848">
        <ele>116.616516</ele>
        <time>2019-11-21T17:28:21Z</time>
      </trkpt>
      <trkpt lat="43.2931507" lon="-2.95669206">
        <ele>117.82666</ele>
        <time>2019-11-21T17:28:22Z</time>
      </trkpt>
      <trkpt lat="43.29312084" lon="-2.95689038">
        <ele>117.803894</ele>
        <time>2019-11-21T17:28:23Z</time>
      </trkpt>
      <trkpt lat="43.29309106" lon="-2.95709536">
        <ele>118.18738</ele>
        <time>2019-11-21T17:28:24Z</time>
      </trkpt>
      <trkpt lat="43.293062" lon="-2.9572979">
        <ele>118.83649</ele>
        <time>2019-11-21T17:28:25Z</time>
      </trkpt>
      <trkpt lat="43.29303342" lon="-2.957496">
        <ele>119.02692</ele>
        <time>2019-11-21T17:28:26Z</time>
      </trkpt>
      <trkpt lat="43.29296198" lon="-2.95787912">
        <ele>119.70953</ele>
        <time>2019-11-21T17:28:28Z</time>
      </trkpt>
      <trkpt lat="43.29291688" lon="-2.95807389">
        <ele>120.09778</ele>
        <time>2019-11-21T17:28:29Z</time>
      </trkpt>
      <trkpt lat="43.29286614" lon="-2.95825084">
        <ele>120.8512</ele>
        <time>2019-11-21T17:28:30Z</time>
      </trkpt>
      <trkpt lat="43.29274852" lon="-2.95856182">
        <ele>125.01373</ele>
        <time>2019-11-21T17:28:32Z</time>
      </trkpt>
      <trkpt lat="43.29261168" lon="-2.95886387">
        <ele>128.13751</ele>
        <time>2019-11-21T17:28:35Z</time>
      </trkpt>
      <trkpt lat="43.29245789" lon="-2.95914193">
        <ele>131.50415</ele>
        <time>2019-11-21T17:28:37Z</time>
      </trkpt>
      <trkpt lat="43.29230791" lon="-2.95936329">
        <ele>134.44385</ele>
        <time>2019-11-21T17:28:39Z</time>
      </trkpt>
      <trkpt lat="43.2921553" lon="-2.9595723">
        <ele>135.82013</ele>
        <time>2019-11-21T17:28:41Z</time>
      </trkpt>
      <trkpt lat="43.29201903" lon="-2.95978822">
        <ele>134.586</ele>
        <time>2019-11-21T17:28:43Z</time>
      </trkpt>
      <trkpt lat="43.29189136" lon="-2.95998128">
        <ele>134.90497</ele>
        <time>2019-11-21T17:28:45Z</time>
      </trkpt>
      <trkpt lat="43.29176286" lon="-2.96016634">
        <ele>137.13995</ele>
        <time>2019-11-21T17:28:47Z</time>
      </trkpt>
      <trkpt lat="43.29162403" lon="-2.96034163">
        <ele>113.06201</ele>
        <time>2019-11-21T17:28:49Z</time>
      </trkpt>
      <trkpt lat="43.29139128" lon="-2.9605826">
        <ele>128.11584</ele>
        <time>2019-11-21T17:28:51Z</time>
      </trkpt>
      <trkpt lat="43.29120335" lon="-2.96067579">
        <ele>132.84412</ele>
        <time>2019-11-21T17:28:53Z</time>
      </trkpt>
      <trkpt lat="43.29103189" lon="-2.96073139">
        <ele>135.08228</ele>
        <time>2019-11-21T17:28:55Z</time>
      </trkpt>
      <trkpt lat="43.29089875" lon="-2.96079005">
        <ele>135.48071</ele>
        <time>2019-11-21T17:28:57Z</time>
      </trkpt>
      <trkpt lat="43.29079381" lon="-2.96101044">
        <ele>136.91876</ele>
        <time>2019-11-21T17:29:00Z</time>
      </trkpt>
      <trkpt lat="43.2908753" lon="-2.96118071">
        <ele>137.836</ele>
        <time>2019-11-21T17:29:04Z</time>
      </trkpt>
      <trkpt lat="43.29103372" lon="-2.96123487">
        <ele>138.95721</ele>
        <time>2019-11-21T17:29:08Z</time>
      </trkpt>
      <trkpt lat="43.29117102" lon="-2.96115642">
        <ele>139.20233</ele>
        <time>2019-11-21T17:29:13Z</time>
      </trkpt>
      <trkpt lat="43.29127832" lon="-2.96100847">
        <ele>139.2262</ele>
        <time>2019-11-21T17:29:16Z</time>
      </trkpt>
      <trkpt lat="43.29142179" lon="-2.96084046">
        <ele>139.18512</ele>
        <time>2019-11-21T17:29:19Z</time>
      </trkpt>
      <trkpt lat="43.2915421" lon="-2.96066945">
        <ele>138.15009</ele>
        <time>2019-11-21T17:29:21Z</time>
      </trkpt>
      <trkpt lat="43.29167425" lon="-2.96046478">
        <ele>137.7337</ele>
        <time>2019-11-21T17:29:25Z</time>
      </trkpt>
      <trkpt lat="43.29181534" lon="-2.96027422">
        <ele>137.07275</ele>
        <time>2019-11-21T17:29:28Z</time>
      </trkpt>
      <trkpt lat="43.29192894" lon="-2.96015385">
        <ele>137.8916</ele>
        <time>2019-11-21T17:29:32Z</time>
      </trkpt>
      <trkpt lat="43.29205152" lon="-2.95996808">
        <ele>137.77917</ele>
        <time>2019-11-21T17:29:42Z</time>
      </trkpt>
      <trkpt lat="43.2921821" lon="-2.95990385">
        <ele>137.31213</ele>
        <time>2019-11-21T17:29:48Z</time>
      </trkpt>
      <trkpt lat="43.29228851" lon="-2.96004885">
        <ele>137.23438</ele>
        <time>2019-11-21T17:29:54Z</time>
      </trkpt>
      <trkpt lat="43.29237385" lon="-2.9601928">
        <ele>131.3186</ele>
        <time>2019-11-21T17:30:03Z</time>
      </trkpt>
      <trkpt lat="43.29242261" lon="-2.96037545">
        <ele>132.51678</ele>
        <time>2019-11-21T17:30:28Z</time>
      </trkpt>
      <trkpt lat="43.29241991043091" lon="-2.960761785507202">
        <ele>149.74316</ele>
        <time>2019-11-21T17:36:43Z</time>
      </trkpt>
      <trkpt lat="43.29232908" lon="-2.9606157">
        <ele>152.17102</ele>
        <time>2019-11-21T17:36:55Z</time>
      </trkpt>
      <trkpt lat="43.29218218" lon="-2.96062496">
        <ele>137.50323</ele>
        <time>2019-11-21T17:40:10Z</time>
      </trkpt>
      <trkpt lat="43.29215425" lon="-2.960111">
        <ele>145.4621</ele>
        <time>2019-11-21T18:46:42Z</time>
      </trkpt>
      <trkpt lat="43.29205016" lon="-2.9599893">
        <ele>143.97375</ele>
        <time>2019-11-21T19:27:57Z</time>
      </trkpt>
      <trkpt lat="43.29226318" lon="-2.96016016">
        <ele>134.91125</ele>
        <time>2019-11-21T19:28:06Z</time>
      </trkpt>
      <trkpt lat="43.29208461" lon="-2.96011638">
        <ele>134.0451</ele>
        <time>2019-11-21T19:29:43Z</time>
      </trkpt>
      <trkpt lat="43.292264342308044" lon="-2.960160970687866">
        <ele>0.0</ele>
        <time>2019-11-21T19:29:44Z</time>
      </trkpt>
      <trkpt lat="43.29252498" lon="-2.96027589">
        <ele>129.5614</ele>
        <time>2019-11-21T19:46:54Z</time>
      </trkpt>
      <trkpt lat="43.29226216" lon="-2.96015973">
        <ele>137.2666</ele>
        <time>2019-11-21T19:46:55Z</time>
      </trkpt>
      <trkpt lat="43.29254377" lon="-2.9602789">
        <ele>130.20221</ele>
        <time>2019-11-21T19:46:57Z</time>
      </trkpt>
      <trkpt lat="43.29226216" lon="-2.96015973">
        <ele>136.9768</ele>
        <time>2019-11-21T19:46:58Z</time>
      </trkpt>
      <trkpt lat="43.29206357" lon="-2.96021534">
        <ele>137.9303</ele>
        <time>2019-11-21T19:49:50Z</time>
      </trkpt>
      <trkpt lat="43.292264342308044" lon="-2.960160970687866">
        <ele>0.0</ele>
        <time>2019-11-21T19:49:51Z</time>
      </trkpt>
      <trkpt lat="43.29238112" lon="-2.96036196">
        <ele>137.07617</ele>
        <time>2019-11-21T20:10:43Z</time>
      </trkpt>
      <trkpt lat="43.292263" lon="-2.96015905">
        <ele>137.0166</ele>
        <time>2019-11-21T20:10:45Z</time>
      </trkpt>
      <trkpt lat="43.29229942" lon="-2.96033901">
        <ele>135.70337</ele>
        <time>2019-11-21T20:18:44Z</time>
      </trkpt>
      <trkpt lat="43.29234799" lon="-2.96053412">
        <ele>140.02222</ele>
        <time>2019-11-21T20:19:05Z</time>
      </trkpt>
      <trkpt lat="43.29220887" lon="-2.96059393">
        <ele>142.43713</ele>
        <time>2019-11-21T20:19:10Z</time>
      </trkpt>
      <trkpt lat="43.29207085" lon="-2.96051507">
        <ele>143.04272</ele>
        <time>2019-11-21T20:19:24Z</time>
      </trkpt>
      <trkpt lat="43.29198691" lon="-2.96035521">
        <ele>141.56854</ele>
        <time>2019-11-21T20:19:35Z</time>
      </trkpt>
      <trkpt lat="43.29196266" lon="-2.96017123">
        <ele>140.40063</ele>
        <time>2019-11-21T20:19:57Z</time>
      </trkpt>
      <trkpt lat="43.29196992" lon="-2.95996887">
        <ele>144.28717</ele>
        <time>2019-11-21T20:20:51Z</time>
      </trkpt>
      <trkpt lat="43.29199947" lon="-2.95990413">
        <ele>145.20276</ele>
        <time>2019-11-21T20:21:00Z</time>
      </trkpt>
      <trkpt lat="43.29200641" lon="-2.95991865">
        <ele>145.79944</ele>
        <time>2019-11-21T20:21:09Z</time>
      </trkpt>
      <trkpt lat="43.29214572" lon="-2.95977185">
        <ele>139.30621</ele>
        <time>2019-11-21T20:22:21Z</time>
      </trkpt>
      <trkpt lat="43.2922675" lon="-2.95963292">
        <ele>142.7041</ele>
        <time>2019-11-21T20:22:25Z</time>
      </trkpt>
      <trkpt lat="43.29239025" lon="-2.95949481">
        <ele>140.99939</ele>
        <time>2019-11-21T20:22:29Z</time>
      </trkpt>
      <trkpt lat="43.29256537" lon="-2.95952875">
        <ele>137.12921</ele>
        <time>2019-11-21T20:22:34Z</time>
      </trkpt>
      <trkpt lat="43.29270523" lon="-2.95971342">
        <ele>138.33008</ele>
        <time>2019-11-21T20:22:37Z</time>
      </trkpt>
      <trkpt lat="43.29278686" lon="-2.95989815">
        <ele>135.99597</ele>
        <time>2019-11-21T20:22:41Z</time>
      </trkpt>
      <trkpt lat="43.29278912" lon="-2.96010256">
        <ele>136.0852</ele>
        <time>2019-11-21T20:22:44Z</time>
      </trkpt>
      <trkpt lat="43.29277943" lon="-2.96029564">
        <ele>131.89746</ele>
        <time>2019-11-21T20:22:48Z</time>
      </trkpt>
      <trkpt lat="43.29272544" lon="-2.96051213">
        <ele>133.16785</ele>
        <time>2019-11-21T20:22:50Z</time>
      </trkpt>
      <trkpt lat="43.2926001" lon="-2.9607449">
        <ele>133.76544</ele>
        <time>2019-11-21T20:22:53Z</time>
      </trkpt>
      <trkpt lat="43.29247967" lon="-2.96094042">
        <ele>137.4657</ele>
        <time>2019-11-21T20:22:56Z</time>
      </trkpt>
      <trkpt lat="43.29235612" lon="-2.96112442">
        <ele>134.59772</ele>
        <time>2019-11-21T20:22:59Z</time>
      </trkpt>
      <trkpt lat="43.29222165" lon="-2.96131078">
        <ele>133.33856</ele>
        <time>2019-11-21T20:23:02Z</time>
      </trkpt>
      <trkpt lat="43.29211896" lon="-2.96143095">
        <ele>114.40332</ele>
        <time>2019-11-21T20:23:04Z</time>
      </trkpt>
      <trkpt lat="43.29199299" lon="-2.96155321">
        <ele>122.10217</ele>
        <time>2019-11-21T20:23:06Z</time>
      </trkpt>
      <trkpt lat="43.2918263" lon="-2.96167883">
        <ele>126.657166</ele>
        <time>2019-11-21T20:23:09Z</time>
      </trkpt>
      <trkpt lat="43.29166299" lon="-2.96179419">
        <ele>129.84412</ele>
        <time>2019-11-21T20:23:13Z</time>
      </trkpt>
      <trkpt lat="43.2915194" lon="-2.96185599">
        <ele>130.63354</ele>
        <time>2019-11-21T20:23:15Z</time>
      </trkpt>
      <trkpt lat="43.29136456" lon="-2.961891">
        <ele>135.89252</ele>
        <time>2019-11-21T20:23:18Z</time>
      </trkpt>
      <trkpt lat="43.29122619" lon="-2.96187181">
        <ele>134.06793</ele>
        <time>2019-11-21T20:23:21Z</time>
      </trkpt>
      <trkpt lat="43.29108347" lon="-2.96176129">
        <ele>135.32422</ele>
        <time>2019-11-21T20:23:23Z</time>
      </trkpt>
      <trkpt lat="43.290973" lon="-2.96162435">
        <ele>139.92084</ele>
        <time>2019-11-21T20:23:26Z</time>
      </trkpt>
      <trkpt lat="43.29093615" lon="-2.96141771">
        <ele>140.12732</ele>
        <time>2019-11-21T20:23:29Z</time>
      </trkpt>
      <trkpt lat="43.29085972" lon="-2.96125658">
        <ele>140.12909</ele>
        <time>2019-11-21T20:23:32Z</time>
      </trkpt>
      <trkpt lat="43.29077626" lon="-2.96108699">
        <ele>139.1997</ele>
        <time>2019-11-21T20:23:35Z</time>
      </trkpt>
      <trkpt lat="43.29067052" lon="-2.96092553">
        <ele>137.36584</ele>
        <time>2019-11-21T20:23:38Z</time>
      </trkpt>
      <trkpt lat="43.29049576" lon="-2.96090788">
        <ele>137.91394</ele>
        <time>2019-11-21T20:23:46Z</time>
      </trkpt>
      <trkpt lat="43.29037145" lon="-2.96101225">
        <ele>138.13513</ele>
        <time>2019-11-21T20:23:49Z</time>
      </trkpt>
      <trkpt lat="43.29017211" lon="-2.96128447">
        <ele>137.82751</ele>
        <time>2019-11-21T20:23:51Z</time>
      </trkpt>
      <trkpt lat="43.29006317" lon="-2.96140208">
        <ele>138.3194</ele>
        <time>2019-11-21T20:23:53Z</time>
      </trkpt>
      <trkpt lat="43.28993116" lon="-2.96152269">
        <ele>138.2826</ele>
        <time>2019-11-21T20:23:56Z</time>
      </trkpt>
      <trkpt lat="43.2897607" lon="-2.96151587">
        <ele>139.90747</ele>
        <time>2019-11-21T20:23:59Z</time>
      </trkpt>
      <trkpt lat="43.2897294" lon="-2.96132235">
        <ele>140.71204</ele>
        <time>2019-11-21T20:24:03Z</time>
      </trkpt>
      <trkpt lat="43.28978739" lon="-2.96106735">
        <ele>142.39899</ele>
        <time>2019-11-21T20:24:06Z</time>
      </trkpt>
      <trkpt lat="43.28985058" lon="-2.96081142">
        <ele>142.84918</ele>
        <time>2019-11-21T20:24:10Z</time>
      </trkpt>
      <trkpt lat="43.28988898" lon="-2.96062221">
        <ele>143.50934</ele>
        <time>2019-11-21T20:24:12Z</time>
      </trkpt>
      <trkpt lat="43.28991613" lon="-2.96041294">
        <ele>144.10468</ele>
        <time>2019-11-21T20:24:14Z</time>
      </trkpt>
      <trkpt lat="43.28990124" lon="-2.9601767">
        <ele>150.26312</ele>
        <time>2019-11-21T20:24:17Z</time>
      </trkpt>
      <trkpt lat="43.29001716" lon="-2.96000983">
        <ele>148.57092</ele>
        <time>2019-11-21T20:24:25Z</time>
      </trkpt>
      <trkpt lat="43.29017636" lon="-2.96000348">
        <ele>149.00592</ele>
        <time>2019-11-21T20:24:27Z</time>
      </trkpt>
      <trkpt lat="43.29035588" lon="-2.95994316">
        <ele>148.1582</ele>
        <time>2019-11-21T20:24:29Z</time>
      </trkpt>
      <trkpt lat="43.29047377" lon="-2.95977284">
        <ele>146.16138</ele>
        <time>2019-11-21T20:24:31Z</time>
      </trkpt>
      <trkpt lat="43.29064034" lon="-2.95958597">
        <ele>147.25647</ele>
        <time>2019-11-21T20:24:33Z</time>
      </trkpt>
      <trkpt lat="43.29085467" lon="-2.95951729">
        <ele>141.68427</ele>
        <time>2019-11-21T20:24:35Z</time>
      </trkpt>
      <trkpt lat="43.29105788" lon="-2.95950254">
        <ele>142.22046</ele>
        <time>2019-11-21T20:24:38Z</time>
      </trkpt>
      <trkpt lat="43.2912884" lon="-2.95950346">
        <ele>140.44092</ele>
        <time>2019-11-21T20:24:40Z</time>
      </trkpt>
      <trkpt lat="43.29152467" lon="-2.95945044">
        <ele>139.30792</ele>
        <time>2019-11-21T20:24:42Z</time>
      </trkpt>
      <trkpt lat="43.29172494" lon="-2.95933419">
        <ele>135.89905</ele>
        <time>2019-11-21T20:24:44Z</time>
      </trkpt>
      <trkpt lat="43.29195412" lon="-2.95918493">
        <ele>134.53394</ele>
        <time>2019-11-21T20:24:46Z</time>
      </trkpt>
      <trkpt lat="43.2921629" lon="-2.95898691">
        <ele>131.77423</ele>
        <time>2019-11-21T20:24:48Z</time>
      </trkpt>
      <trkpt lat="43.29234673" lon="-2.95874166">
        <ele>129.36566</ele>
        <time>2019-11-21T20:24:49Z</time>
      </trkpt>
      <trkpt lat="43.29243954" lon="-2.95860567">
        <ele>129.55957</ele>
        <time>2019-11-21T20:24:50Z</time>
      </trkpt>
      <trkpt lat="43.29257284" lon="-2.95829675">
        <ele>127.58209</ele>
        <time>2019-11-21T20:24:52Z</time>
      </trkpt>
      <trkpt lat="43.29269202" lon="-2.95797525">
        <ele>128.81378</ele>
        <time>2019-11-21T20:24:54Z</time>
      </trkpt>
      <trkpt lat="43.29277479" lon="-2.95762387">
        <ele>125.34479</ele>
        <time>2019-11-21T20:24:56Z</time>
      </trkpt>
      <trkpt lat="43.29282955" lon="-2.95726958">
        <ele>123.236206</ele>
        <time>2019-11-21T20:24:58Z</time>
      </trkpt>
      <trkpt lat="43.29285738" lon="-2.95706425">
        <ele>122.15369</ele>
        <time>2019-11-21T20:24:59Z</time>
      </trkpt>
      <trkpt lat="43.29289693" lon="-2.95687258">
        <ele>122.60834</ele>
        <time>2019-11-21T20:25:00Z</time>
      </trkpt>
      <trkpt lat="43.29293617" lon="-2.95667826">
        <ele>122.60846</ele>
        <time>2019-11-21T20:25:01Z</time>
      </trkpt>
      <trkpt lat="43.29297017" lon="-2.95648857">
        <ele>123.911316</ele>
        <time>2019-11-21T20:25:02Z</time>
      </trkpt>
      <trkpt lat="43.29301548" lon="-2.95629645">
        <ele>125.187195</ele>
        <time>2019-11-21T20:25:03Z</time>
      </trkpt>
      <trkpt lat="43.29304023" lon="-2.95609953">
        <ele>123.2074</ele>
        <time>2019-11-21T20:25:04Z</time>
      </trkpt>
      <trkpt lat="43.29308511" lon="-2.95591008">
        <ele>123.50513</ele>
        <time>2019-11-21T20:25:05Z</time>
      </trkpt>
      <trkpt lat="43.29314822" lon="-2.95573228">
        <ele>124.01654</ele>
        <time>2019-11-21T20:25:06Z</time>
      </trkpt>
      <trkpt lat="43.29320874" lon="-2.95554554">
        <ele>122.21063</ele>
        <time>2019-11-21T20:25:07Z</time>
      </trkpt>
      <trkpt lat="43.29326841" lon="-2.95535731">
        <ele>120.776794</ele>
        <time>2019-11-21T20:25:08Z</time>
      </trkpt>
      <trkpt lat="43.29333741" lon="-2.95517573">
        <ele>119.64612</ele>
        <time>2019-11-21T20:25:09Z</time>
      </trkpt>
      <trkpt lat="43.29341856" lon="-2.95500596">
        <ele>119.64282</ele>
        <time>2019-11-21T20:25:10Z</time>
      </trkpt>
      <trkpt lat="43.29350807" lon="-2.95483746">
        <ele>118.84772</ele>
        <time>2019-11-21T20:25:12Z</time>
      </trkpt>
      <trkpt lat="43.29361193" lon="-2.9546848">
        <ele>119.145874</ele>
        <time>2019-11-21T20:25:13Z</time>
      </trkpt>
      <trkpt lat="43.29372241" lon="-2.95452703">
        <ele>118.19238</ele>
        <time>2019-11-21T20:25:14Z</time>
      </trkpt>
      <trkpt lat="43.29382765" lon="-2.95435749">
        <ele>117.298706</ele>
        <time>2019-11-21T20:25:15Z</time>
      </trkpt>
      <trkpt lat="43.2939411" lon="-2.95420039">
        <ele>116.55676</ele>
        <time>2019-11-21T20:25:16Z</time>
      </trkpt>
      <trkpt lat="43.2940644" lon="-2.95406086">
        <ele>116.57202</ele>
        <time>2019-11-21T20:25:17Z</time>
      </trkpt>
      <trkpt lat="43.29418477" lon="-2.95393726">
        <ele>115.14282</ele>
        <time>2019-11-21T20:25:18Z</time>
      </trkpt>
      <trkpt lat="43.29431285" lon="-2.95381683">
        <ele>114.46692</ele>
        <time>2019-11-21T20:25:19Z</time>
      </trkpt>
      <trkpt lat="43.29444628" lon="-2.9537055">
        <ele>113.8764</ele>
        <time>2019-11-21T20:25:20Z</time>
      </trkpt>
      <trkpt lat="43.29458006" lon="-2.95360451">
        <ele>113.24365</ele>
        <time>2019-11-21T20:25:21Z</time>
      </trkpt>
      <trkpt lat="43.294864" lon="-2.95346322">
        <ele>106.79797</ele>
        <time>2019-11-21T20:25:22Z</time>
      </trkpt>
      <trkpt lat="43.29499474" lon="-2.95340466">
        <ele>104.901184</ele>
        <time>2019-11-21T20:25:23Z</time>
      </trkpt>
      <trkpt lat="43.29512776" lon="-2.95333157">
        <ele>103.93787</ele>
        <time>2019-11-21T20:25:24Z</time>
      </trkpt>
      <trkpt lat="43.29526576" lon="-2.95327035">
        <ele>103.333984</ele>
        <time>2019-11-21T20:25:25Z</time>
      </trkpt>
      <trkpt lat="43.29540072" lon="-2.95323318">
        <ele>102.237915</ele>
        <time>2019-11-21T20:25:26Z</time>
      </trkpt>
      <trkpt lat="43.29554137" lon="-2.95320773">
        <ele>101.79498</ele>
        <time>2019-11-21T20:25:27Z</time>
      </trkpt>
      <trkpt lat="43.29568105" lon="-2.95320534">
        <ele>100.7829</ele>
        <time>2019-11-21T20:25:28Z</time>
      </trkpt>
      <trkpt lat="43.29582088" lon="-2.95321187">
        <ele>100.82428</ele>
        <time>2019-11-21T20:25:29Z</time>
      </trkpt>
      <trkpt lat="43.29595665" lon="-2.95323045">
        <ele>100.51776</ele>
        <time>2019-11-21T20:25:30Z</time>
      </trkpt>
      <trkpt lat="43.29609108" lon="-2.95325781">
        <ele>99.7688</ele>
        <time>2019-11-21T20:25:31Z</time>
      </trkpt>
      <trkpt lat="43.29625901" lon="-2.95330327">
        <ele>99.33087</ele>
        <time>2019-11-21T20:25:32Z</time>
      </trkpt>
      <trkpt lat="43.29640489" lon="-2.95335237">
        <ele>98.513</ele>
        <time>2019-11-21T20:25:33Z</time>
      </trkpt>
      <trkpt lat="43.29655142" lon="-2.95339811">
        <ele>98.00433</ele>
        <time>2019-11-21T20:25:34Z</time>
      </trkpt>
      <trkpt lat="43.29680468" lon="-2.95346477">
        <ele>96.29413</ele>
        <time>2019-11-21T20:25:36Z</time>
      </trkpt>
      <trkpt lat="43.29704723" lon="-2.95350768">
        <ele>95.032776</ele>
        <time>2019-11-21T20:25:38Z</time>
      </trkpt>
      <trkpt lat="43.29728372" lon="-2.95353511">
        <ele>94.77588</ele>
        <time>2019-11-21T20:25:40Z</time>
      </trkpt>
      <trkpt lat="43.29749329" lon="-2.95355551">
        <ele>95.18518</ele>
        <time>2019-11-21T20:25:42Z</time>
      </trkpt>
      <trkpt lat="43.29772827" lon="-2.9535603">
        <ele>94.40881</ele>
        <time>2019-11-21T20:25:45Z</time>
      </trkpt>
      <trkpt lat="43.29788098" lon="-2.95347215">
        <ele>92.15332</ele>
        <time>2019-11-21T20:25:47Z</time>
      </trkpt>
      <trkpt lat="43.29808442" lon="-2.95334194">
        <ele>92.45868</ele>
        <time>2019-11-21T20:25:49Z</time>
      </trkpt>
      <trkpt lat="43.29821117" lon="-2.95309104">
        <ele>87.86963</ele>
        <time>2019-11-21T20:25:51Z</time>
      </trkpt>
      <trkpt lat="43.29829504" lon="-2.9528244">
        <ele>85.93695</ele>
        <time>2019-11-21T20:25:53Z</time>
      </trkpt>
      <trkpt lat="43.2983099" lon="-2.95250061">
        <ele>84.533936</ele>
        <time>2019-11-21T20:25:55Z</time>
      </trkpt>
      <trkpt lat="43.29827872" lon="-2.95214648">
        <ele>82.9646</ele>
        <time>2019-11-21T20:25:56Z</time>
      </trkpt>
      <trkpt lat="43.29820364" lon="-2.95179249">
        <ele>81.02521</ele>
        <time>2019-11-21T20:25:58Z</time>
      </trkpt>
      <trkpt lat="43.29815387" lon="-2.95157099">
        <ele>79.88251</ele>
        <time>2019-11-21T20:25:59Z</time>
      </trkpt>
      <trkpt lat="43.29810446" lon="-2.95138671">
        <ele>79.38757</ele>
        <time>2019-11-21T20:26:00Z</time>
      </trkpt>
      <trkpt lat="43.29799096" lon="-2.95098494">
        <ele>80.03436</ele>
        <time>2019-11-21T20:26:02Z</time>
      </trkpt>
      <trkpt lat="43.2979254" lon="-2.95077534">
        <ele>80.125</ele>
        <time>2019-11-21T20:26:03Z</time>
      </trkpt>
      <trkpt lat="43.29786574" lon="-2.95058516">
        <ele>80.321594</ele>
        <time>2019-11-21T20:26:04Z</time>
      </trkpt>
      <trkpt lat="43.29779933" lon="-2.95040075">
        <ele>79.62097</ele>
        <time>2019-11-21T20:26:05Z</time>
      </trkpt>
      <trkpt lat="43.29774144" lon="-2.95020963">
        <ele>79.28638</ele>
        <time>2019-11-21T20:26:06Z</time>
      </trkpt>
      <trkpt lat="43.29766604" lon="-2.950011">
        <ele>77.645386</ele>
        <time>2019-11-21T20:26:07Z</time>
      </trkpt>
      <trkpt lat="43.29757827" lon="-2.94980483">
        <ele>77.93005</ele>
        <time>2019-11-21T20:26:08Z</time>
      </trkpt>
      <trkpt lat="43.29749718" lon="-2.94960201">
        <ele>77.977905</ele>
        <time>2019-11-21T20:26:09Z</time>
      </trkpt>
      <trkpt lat="43.29741049" lon="-2.94940918">
        <ele>77.35486</ele>
        <time>2019-11-21T20:26:10Z</time>
      </trkpt>
      <trkpt lat="43.29730792" lon="-2.94920812">
        <ele>77.217285</ele>
        <time>2019-11-21T20:26:11Z</time>
      </trkpt>
      <trkpt lat="43.29720282" lon="-2.94900135">
        <ele>76.71912</ele>
        <time>2019-11-21T20:26:12Z</time>
      </trkpt>
      <trkpt lat="43.2971037" lon="-2.94881503">
        <ele>75.948975</ele>
        <time>2019-11-21T20:26:14Z</time>
      </trkpt>
      <trkpt lat="43.29700019" lon="-2.94862913">
        <ele>75.68756</ele>
        <time>2019-11-21T20:26:15Z</time>
      </trkpt>
      <trkpt lat="43.29688741" lon="-2.94842354">
        <ele>75.171326</ele>
        <time>2019-11-21T20:26:16Z</time>
      </trkpt>
      <trkpt lat="43.29678352" lon="-2.94826267">
        <ele>74.32446</ele>
        <time>2019-11-21T20:26:17Z</time>
      </trkpt>
      <trkpt lat="43.29665939" lon="-2.94807693">
        <ele>75.77472</ele>
        <time>2019-11-21T20:26:18Z</time>
      </trkpt>
      <trkpt lat="43.29654268" lon="-2.9478914">
        <ele>77.30243</ele>
        <time>2019-11-21T20:26:19Z</time>
      </trkpt>
      <trkpt lat="43.29639298" lon="-2.94767321">
        <ele>77.06482</ele>
        <time>2019-11-21T20:26:20Z</time>
      </trkpt>
      <trkpt lat="43.29630563" lon="-2.94752289">
        <ele>75.33899</ele>
        <time>2019-11-21T20:26:21Z</time>
      </trkpt>
      <trkpt lat="43.29619788" lon="-2.94735476">
        <ele>75.191956</ele>
        <time>2019-11-21T20:26:22Z</time>
      </trkpt>
      <trkpt lat="43.29607403" lon="-2.94717323">
        <ele>76.06543</ele>
        <time>2019-11-21T20:26:23Z</time>
      </trkpt>
      <trkpt lat="43.29595273" lon="-2.94700069">
        <ele>78.486084</ele>
        <time>2019-11-21T20:26:24Z</time>
      </trkpt>
      <trkpt lat="43.29569809" lon="-2.94669492">
        <ele>79.833496</ele>
        <time>2019-11-21T20:26:25Z</time>
      </trkpt>
      <trkpt lat="43.29556823" lon="-2.94651211">
        <ele>80.47412</ele>
        <time>2019-11-21T20:26:26Z</time>
      </trkpt>
      <trkpt lat="43.29543967" lon="-2.9463381">
        <ele>81.82086</ele>
        <time>2019-11-21T20:26:27Z</time>
      </trkpt>
      <trkpt lat="43.29530344" lon="-2.9461749">
        <ele>82.659424</ele>
        <time>2019-11-21T20:26:28Z</time>
      </trkpt>
      <trkpt lat="43.29513988" lon="-2.94599621">
        <ele>84.375305</ele>
        <time>2019-11-21T20:26:29Z</time>
      </trkpt>
      <trkpt lat="43.29501853" lon="-2.94585008">
        <ele>85.600464</ele>
        <time>2019-11-21T20:26:30Z</time>
      </trkpt>
      <trkpt lat="43.29488582" lon="-2.9456888">
        <ele>86.99121</ele>
        <time>2019-11-21T20:26:31Z</time>
      </trkpt>
      <trkpt lat="43.29473539" lon="-2.94551961">
        <ele>87.22302</ele>
        <time>2019-11-21T20:26:32Z</time>
      </trkpt>
      <trkpt lat="43.29460488" lon="-2.94538634">
        <ele>88.180786</ele>
        <time>2019-11-21T20:26:33Z</time>
      </trkpt>
      <trkpt lat="43.29446975" lon="-2.94523869">
        <ele>87.709595</ele>
        <time>2019-11-21T20:26:34Z</time>
      </trkpt>
      <trkpt lat="43.29433505" lon="-2.94508257">
        <ele>88.24292</ele>
        <time>2019-11-21T20:26:35Z</time>
      </trkpt>
      <trkpt lat="43.29419015" lon="-2.94494595">
        <ele>88.84241</ele>
        <time>2019-11-21T20:26:36Z</time>
      </trkpt>
      <trkpt lat="43.29405175" lon="-2.94481891">
        <ele>90.05029</ele>
        <time>2019-11-21T20:26:37Z</time>
      </trkpt>
      <trkpt lat="43.29390801" lon="-2.94467944">
        <ele>90.1366</ele>
        <time>2019-11-21T20:26:38Z</time>
      </trkpt>
      <trkpt lat="43.29375081" lon="-2.94455676">
        <ele>91.41675</ele>
        <time>2019-11-21T20:26:39Z</time>
      </trkpt>
      <trkpt lat="43.29359725" lon="-2.94445225">
        <ele>92.22766</ele>
        <time>2019-11-21T20:26:40Z</time>
      </trkpt>
      <trkpt lat="43.29343277" lon="-2.94435741">
        <ele>91.85675</ele>
        <time>2019-11-21T20:26:41Z</time>
      </trkpt>
      <trkpt lat="43.29327333" lon="-2.94426687">
        <ele>92.499084</ele>
        <time>2019-11-21T20:26:42Z</time>
      </trkpt>
      <trkpt lat="43.29310869" lon="-2.94418032">
        <ele>92.64514</ele>
        <time>2019-11-21T20:26:43Z</time>
      </trkpt>
      <trkpt lat="43.29294373" lon="-2.94408943">
        <ele>93.734375</ele>
        <time>2019-11-21T20:26:45Z</time>
      </trkpt>
      <trkpt lat="43.29277172" lon="-2.94400568">
        <ele>94.56311</ele>
        <time>2019-11-21T20:26:46Z</time>
      </trkpt>
      <trkpt lat="43.29260073" lon="-2.9439278">
        <ele>95.59039</ele>
        <time>2019-11-21T20:26:47Z</time>
      </trkpt>
      <trkpt lat="43.29243109" lon="-2.94385941">
        <ele>95.880554</ele>
        <time>2019-11-21T20:26:48Z</time>
      </trkpt>
      <trkpt lat="43.29226381" lon="-2.94378918">
        <ele>96.31348</ele>
        <time>2019-11-21T20:26:49Z</time>
      </trkpt>
      <trkpt lat="43.29209255" lon="-2.94371803">
        <ele>96.307495</ele>
        <time>2019-11-21T20:26:50Z</time>
      </trkpt>
      <trkpt lat="43.29192487" lon="-2.94364109">
        <ele>97.21869</ele>
        <time>2019-11-21T20:26:51Z</time>
      </trkpt>
      <trkpt lat="43.29174766" lon="-2.94357256">
        <ele>96.731384</ele>
        <time>2019-11-21T20:26:52Z</time>
      </trkpt>
      <trkpt lat="43.29157807" lon="-2.94349226">
        <ele>97.52814</ele>
        <time>2019-11-21T20:26:53Z</time>
      </trkpt>
      <trkpt lat="43.29140945" lon="-2.94340789">
        <ele>98.2865</ele>
        <time>2019-11-21T20:26:54Z</time>
      </trkpt>
      <trkpt lat="43.29106404" lon="-2.94321872">
        <ele>100.879456</ele>
        <time>2019-11-21T20:26:55Z</time>
      </trkpt>
      <trkpt lat="43.29089913" lon="-2.94312465">
        <ele>101.96875</ele>
        <time>2019-11-21T20:26:56Z</time>
      </trkpt>
      <trkpt lat="43.29073572" lon="-2.943029">
        <ele>102.97406</ele>
        <time>2019-11-21T20:26:57Z</time>
      </trkpt>
      <trkpt lat="43.29056903" lon="-2.9429336">
        <ele>103.528625</ele>
        <time>2019-11-21T20:26:58Z</time>
      </trkpt>
      <trkpt lat="43.29040774" lon="-2.94282455">
        <ele>104.598145</ele>
        <time>2019-11-21T20:26:59Z</time>
      </trkpt>
      <trkpt lat="43.29024976" lon="-2.9427183">
        <ele>104.65753</ele>
        <time>2019-11-21T20:27:00Z</time>
      </trkpt>
      <trkpt lat="43.29009053" lon="-2.94258966">
        <ele>106.12433</ele>
        <time>2019-11-21T20:27:01Z</time>
      </trkpt>
      <trkpt lat="43.28993258" lon="-2.94246673">
        <ele>105.86432</ele>
        <time>2019-11-21T20:27:02Z</time>
      </trkpt>
      <trkpt lat="43.28978237" lon="-2.94232593">
        <ele>105.806885</ele>
        <time>2019-11-21T20:27:03Z</time>
      </trkpt>
      <trkpt lat="43.28962499" lon="-2.94218366">
        <ele>104.923096</ele>
        <time>2019-11-21T20:27:04Z</time>
      </trkpt>
      <trkpt lat="43.28947662" lon="-2.94203517">
        <ele>104.96423</ele>
        <time>2019-11-21T20:27:05Z</time>
      </trkpt>
      <trkpt lat="43.28933961" lon="-2.94187467">
        <ele>107.71234</ele>
        <time>2019-11-21T20:27:06Z</time>
      </trkpt>
      <trkpt lat="43.28918919" lon="-2.94170639">
        <ele>108.78265</ele>
        <time>2019-11-21T20:27:07Z</time>
      </trkpt>
      <trkpt lat="43.28904545" lon="-2.9415464">
        <ele>109.176025</ele>
        <time>2019-11-21T20:27:08Z</time>
      </trkpt>
      <trkpt lat="43.28890327" lon="-2.94137508">
        <ele>109.451965</ele>
        <time>2019-11-21T20:27:09Z</time>
      </trkpt>
      <trkpt lat="43.28877773" lon="-2.94121161">
        <ele>111.905334</ele>
        <time>2019-11-21T20:27:10Z</time>
      </trkpt>
      <trkpt lat="43.28864395" lon="-2.9410504">
        <ele>111.79364</ele>
        <time>2019-11-21T20:27:11Z</time>
      </trkpt>
      <trkpt lat="43.28851718" lon="-2.94087421">
        <ele>112.56799</ele>
        <time>2019-11-21T20:27:12Z</time>
      </trkpt>
      <trkpt lat="43.28839629" lon="-2.94069667">
        <ele>111.986694</ele>
        <time>2019-11-21T20:27:13Z</time>
      </trkpt>
      <trkpt lat="43.28827577" lon="-2.94050199">
        <ele>112.949646</ele>
        <time>2019-11-21T20:27:15Z</time>
      </trkpt>
      <trkpt lat="43.28814607" lon="-2.94030447">
        <ele>114.22003</ele>
        <time>2019-11-21T20:27:16Z</time>
      </trkpt>
      <trkpt lat="43.28802918" lon="-2.94010026">
        <ele>114.61749</ele>
        <time>2019-11-21T20:27:17Z</time>
      </trkpt>
      <trkpt lat="43.28791456" lon="-2.93988734">
        <ele>115.23004</ele>
        <time>2019-11-21T20:27:18Z</time>
      </trkpt>
      <trkpt lat="43.28780356" lon="-2.93968825">
        <ele>115.532715</ele>
        <time>2019-11-21T20:27:19Z</time>
      </trkpt>
      <trkpt lat="43.28769546" lon="-2.93948713">
        <ele>114.60895</ele>
        <time>2019-11-21T20:27:20Z</time>
      </trkpt>
      <trkpt lat="43.28760126" lon="-2.93928722">
        <ele>114.46594</ele>
        <time>2019-11-21T20:27:21Z</time>
      </trkpt>
      <trkpt lat="43.28749887" lon="-2.93906507">
        <ele>115.11743</ele>
        <time>2019-11-21T20:27:22Z</time>
      </trkpt>
      <trkpt lat="43.28739321" lon="-2.93883767">
        <ele>114.23883</ele>
        <time>2019-11-21T20:27:23Z</time>
      </trkpt>
      <trkpt lat="43.28729486" lon="-2.93859281">
        <ele>114.67334</ele>
        <time>2019-11-21T20:27:24Z</time>
      </trkpt>
      <trkpt lat="43.28720127" lon="-2.93835044">
        <ele>113.85126</ele>
        <time>2019-11-21T20:27:25Z</time>
      </trkpt>
      <trkpt lat="43.28702504" lon="-2.93785008">
        <ele>116.05609</ele>
        <time>2019-11-21T20:27:26Z</time>
      </trkpt>
      <trkpt lat="43.28694086" lon="-2.93760133">
        <ele>115.51648</ele>
        <time>2019-11-21T20:27:27Z</time>
      </trkpt>
      <trkpt lat="43.28686517" lon="-2.93733742">
        <ele>114.84064</ele>
        <time>2019-11-21T20:27:28Z</time>
      </trkpt>
      <trkpt lat="43.2867965" lon="-2.93706256">
        <ele>114.24121</ele>
        <time>2019-11-21T20:27:29Z</time>
      </trkpt>
      <trkpt lat="43.28673205" lon="-2.93679537">
        <ele>113.94879</ele>
        <time>2019-11-21T20:27:30Z</time>
      </trkpt>
      <trkpt lat="43.28667019" lon="-2.93653107">
        <ele>112.898315</ele>
        <time>2019-11-21T20:27:31Z</time>
      </trkpt>
      <trkpt lat="43.28660434" lon="-2.93625845">
        <ele>113.85663</ele>
        <time>2019-11-21T20:27:32Z</time>
      </trkpt>
      <trkpt lat="43.28654159" lon="-2.9360063">
        <ele>113.63989</ele>
        <time>2019-11-21T20:27:33Z</time>
      </trkpt>
      <trkpt lat="43.28647854" lon="-2.93572862">
        <ele>112.24567</ele>
        <time>2019-11-21T20:27:34Z</time>
      </trkpt>
      <trkpt lat="43.28641969" lon="-2.93545101">
        <ele>111.88312</ele>
        <time>2019-11-21T20:27:35Z</time>
      </trkpt>
      <trkpt lat="43.2863594" lon="-2.9351816">
        <ele>110.82733</ele>
        <time>2019-11-21T20:27:36Z</time>
      </trkpt>
      <trkpt lat="43.28630107" lon="-2.93491666">
        <ele>110.01245</ele>
        <time>2019-11-21T20:27:37Z</time>
      </trkpt>
      <trkpt lat="43.28624477" lon="-2.93463807">
        <ele>108.62274</ele>
        <time>2019-11-21T20:27:38Z</time>
      </trkpt>
      <trkpt lat="43.28618693" lon="-2.93435201">
        <ele>107.32837</ele>
        <time>2019-11-21T20:27:39Z</time>
      </trkpt>
      <trkpt lat="43.28612605" lon="-2.93405155">
        <ele>107.24237</ele>
        <time>2019-11-21T20:27:40Z</time>
      </trkpt>
      <trkpt lat="43.28606801" lon="-2.93378118">
        <ele>105.04999</ele>
        <time>2019-11-21T20:27:41Z</time>
      </trkpt>
      <trkpt lat="43.2860161" lon="-2.93349944">
        <ele>104.110596</ele>
        <time>2019-11-21T20:27:42Z</time>
      </trkpt>
      <trkpt lat="43.28595828" lon="-2.93319974">
        <ele>103.60901</ele>
        <time>2019-11-21T20:27:43Z</time>
      </trkpt>
      <trkpt lat="43.28589596" lon="-2.9328986">
        <ele>103.87689</ele>
        <time>2019-11-21T20:27:45Z</time>
      </trkpt>
      <trkpt lat="43.28583506" lon="-2.93261421">
        <ele>104.28418</ele>
        <time>2019-11-21T20:27:46Z</time>
      </trkpt>
      <trkpt lat="43.28578244" lon="-2.93234408">
        <ele>104.256226</ele>
        <time>2019-11-21T20:27:47Z</time>
      </trkpt>
      <trkpt lat="43.28573243" lon="-2.93207221">
        <ele>102.53729</ele>
        <time>2019-11-21T20:27:48Z</time>
      </trkpt>
      <trkpt lat="43.2856851" lon="-2.93176849">
        <ele>101.37683</ele>
        <time>2019-11-21T20:27:49Z</time>
      </trkpt>
      <trkpt lat="43.28563306" lon="-2.93148249">
        <ele>101.684326</ele>
        <time>2019-11-21T20:27:50Z</time>
      </trkpt>
      <trkpt lat="43.28558341" lon="-2.93119377">
        <ele>100.416565</ele>
        <time>2019-11-21T20:27:51Z</time>
      </trkpt>
      <trkpt lat="43.28553565" lon="-2.93090246">
        <ele>101.8913</ele>
        <time>2019-11-21T20:27:52Z</time>
      </trkpt>
      <trkpt lat="43.28549145" lon="-2.93060449">
        <ele>101.509766</ele>
        <time>2019-11-21T20:27:53Z</time>
      </trkpt>
      <trkpt lat="43.28546401" lon="-2.93031215">
        <ele>99.10419</ele>
        <time>2019-11-21T20:27:54Z</time>
      </trkpt>
      <trkpt lat="43.28543332" lon="-2.93002311">
        <ele>98.28711</ele>
        <time>2019-11-21T20:27:55Z</time>
      </trkpt>
      <trkpt lat="43.28540764" lon="-2.9294644">
        <ele>96.8291</ele>
        <time>2019-11-21T20:27:56Z</time>
      </trkpt>
      <trkpt lat="43.2853996" lon="-2.92917029">
        <ele>107.36755</ele>
        <time>2019-11-21T20:27:57Z</time>
      </trkpt>
      <trkpt lat="43.28539856" lon="-2.92888846">
        <ele>102.7345</ele>
        <time>2019-11-21T20:27:58Z</time>
      </trkpt>
      <trkpt lat="43.28539714" lon="-2.92860675">
        <ele>100.170105</ele>
        <time>2019-11-21T20:27:59Z</time>
      </trkpt>
      <trkpt lat="43.28542432" lon="-2.92834184">
        <ele>97.123535</ele>
        <time>2019-11-21T20:28:00Z</time>
      </trkpt>
      <trkpt lat="43.28544759" lon="-2.92807966">
        <ele>93.88159</ele>
        <time>2019-11-21T20:28:01Z</time>
      </trkpt>
      <trkpt lat="43.28547901" lon="-2.92781566">
        <ele>93.42755</ele>
        <time>2019-11-21T20:28:02Z</time>
      </trkpt>
      <trkpt lat="43.28550094" lon="-2.92753929">
        <ele>90.773315</ele>
        <time>2019-11-21T20:28:03Z</time>
      </trkpt>
      <trkpt lat="43.28554636" lon="-2.92727256">
        <ele>90.00989</ele>
        <time>2019-11-21T20:28:04Z</time>
      </trkpt>
      <trkpt lat="43.28560023" lon="-2.92702073">
        <ele>88.72821</ele>
        <time>2019-11-21T20:28:05Z</time>
      </trkpt>
      <trkpt lat="43.28565657" lon="-2.9267677">
        <ele>86.78595</ele>
        <time>2019-11-21T20:28:06Z</time>
      </trkpt>
      <trkpt lat="43.28570976" lon="-2.92649733">
        <ele>85.155945</ele>
        <time>2019-11-21T20:28:07Z</time>
      </trkpt>
      <trkpt lat="43.28575961" lon="-2.92623116">
        <ele>82.028564</ele>
        <time>2019-11-21T20:28:08Z</time>
      </trkpt>
      <trkpt lat="43.28583285" lon="-2.92597953">
        <ele>81.33417</ele>
        <time>2019-11-21T20:28:09Z</time>
      </trkpt>
      <trkpt lat="43.28591875" lon="-2.92572628">
        <ele>80.44916</ele>
        <time>2019-11-21T20:28:10Z</time>
      </trkpt>
      <trkpt lat="43.28600782" lon="-2.92546819">
        <ele>79.67383</ele>
        <time>2019-11-21T20:28:11Z</time>
      </trkpt>
      <trkpt lat="43.28609343" lon="-2.92519766">
        <ele>80.62134</ele>
        <time>2019-11-21T20:28:12Z</time>
      </trkpt>
      <trkpt lat="43.2861853" lon="-2.92493477">
        <ele>80.19037</ele>
        <time>2019-11-21T20:28:13Z</time>
      </trkpt>
      <trkpt lat="43.2862886" lon="-2.92467975">
        <ele>79.77112</ele>
        <time>2019-11-21T20:28:14Z</time>
      </trkpt>
      <trkpt lat="43.28639554" lon="-2.92442691">
        <ele>78.823975</ele>
        <time>2019-11-21T20:28:16Z</time>
      </trkpt>
      <trkpt lat="43.28650797" lon="-2.92418178">
        <ele>79.22955</ele>
        <time>2019-11-21T20:28:17Z</time>
      </trkpt>
      <trkpt lat="43.28662424" lon="-2.92394148">
        <ele>79.70062</ele>
        <time>2019-11-21T20:28:18Z</time>
      </trkpt>
      <trkpt lat="43.2867509" lon="-2.92371659">
        <ele>80.41797</ele>
        <time>2019-11-21T20:28:19Z</time>
      </trkpt>
      <trkpt lat="43.28687936" lon="-2.9235043">
        <ele>80.661194</ele>
        <time>2019-11-21T20:28:20Z</time>
      </trkpt>
      <trkpt lat="43.28700795" lon="-2.92329405">
        <ele>81.040955</ele>
        <time>2019-11-21T20:28:21Z</time>
      </trkpt>
      <trkpt lat="43.28714757" lon="-2.92307711">
        <ele>82.44769</ele>
        <time>2019-11-21T20:28:22Z</time>
      </trkpt>
      <trkpt lat="43.28728313" lon="-2.9228885">
        <ele>81.421936</ele>
        <time>2019-11-21T20:28:23Z</time>
      </trkpt>
      <trkpt lat="43.28739753" lon="-2.92269395">
        <ele>80.76538</ele>
        <time>2019-11-21T20:28:24Z</time>
      </trkpt>
      <trkpt lat="43.28754781" lon="-2.92251156">
        <ele>81.67987</ele>
        <time>2019-11-21T20:28:25Z</time>
      </trkpt>
      <trkpt lat="43.28769666" lon="-2.92233203">
        <ele>82.236084</ele>
        <time>2019-11-21T20:28:26Z</time>
      </trkpt>
      <trkpt lat="43.28784625" lon="-2.92215632">
        <ele>82.18793</ele>
        <time>2019-11-21T20:28:27Z</time>
      </trkpt>
      <trkpt lat="43.2880032" lon="-2.92198885">
        <ele>81.86694</ele>
        <time>2019-11-21T20:28:28Z</time>
      </trkpt>
      <trkpt lat="43.28831034" lon="-2.92164967">
        <ele>80.8089</ele>
        <time>2019-11-21T20:28:29Z</time>
      </trkpt>
      <trkpt lat="43.28846063" lon="-2.92146851">
        <ele>79.82605</ele>
        <time>2019-11-21T20:28:30Z</time>
      </trkpt>
      <trkpt lat="43.2886127" lon="-2.92128356">
        <ele>79.807556</ele>
        <time>2019-11-21T20:28:31Z</time>
      </trkpt>
      <trkpt lat="43.288754" lon="-2.92107864">
        <ele>80.75275</ele>
        <time>2019-11-21T20:28:32Z</time>
      </trkpt>
      <trkpt lat="43.28887991" lon="-2.92087583">
        <ele>81.335815</ele>
        <time>2019-11-21T20:28:33Z</time>
      </trkpt>
      <trkpt lat="43.28899661" lon="-2.92064887">
        <ele>81.64392</ele>
        <time>2019-11-21T20:28:34Z</time>
      </trkpt>
      <trkpt lat="43.28911787" lon="-2.92041776">
        <ele>82.078674</ele>
        <time>2019-11-21T20:28:35Z</time>
      </trkpt>
      <trkpt lat="43.28922788" lon="-2.92017651">
        <ele>82.1275</ele>
        <time>2019-11-21T20:28:36Z</time>
      </trkpt>
      <trkpt lat="43.28933395" lon="-2.91992696">
        <ele>82.45337</ele>
        <time>2019-11-21T20:28:37Z</time>
      </trkpt>
      <trkpt lat="43.28942561" lon="-2.9196648">
        <ele>82.09119</ele>
        <time>2019-11-21T20:28:38Z</time>
      </trkpt>
      <trkpt lat="43.28950163" lon="-2.91940334">
        <ele>81.71649</ele>
        <time>2019-11-21T20:28:39Z</time>
      </trkpt>
      <trkpt lat="43.28957576" lon="-2.91914088">
        <ele>82.118225</ele>
        <time>2019-11-21T20:28:40Z</time>
      </trkpt>
      <trkpt lat="43.28964322" lon="-2.9188692">
        <ele>82.33649</ele>
        <time>2019-11-21T20:28:41Z</time>
      </trkpt>
      <trkpt lat="43.28969548" lon="-2.91860156">
        <ele>82.16968</ele>
        <time>2019-11-21T20:28:42Z</time>
      </trkpt>
      <trkpt lat="43.28973215" lon="-2.91832571">
        <ele>81.82092</ele>
        <time>2019-11-21T20:28:43Z</time>
      </trkpt>
      <trkpt lat="43.28976324" lon="-2.91804749">
        <ele>81.67578</ele>
        <time>2019-11-21T20:28:44Z</time>
      </trkpt>
      <trkpt lat="43.28978507" lon="-2.9177738">
        <ele>82.50049</ele>
        <time>2019-11-21T20:28:45Z</time>
      </trkpt>
      <trkpt lat="43.28978935" lon="-2.91751598">
        <ele>82.728516</ele>
        <time>2019-11-21T20:28:46Z</time>
      </trkpt>
      <trkpt lat="43.28980506" lon="-2.91716806">
        <ele>83.97266</ele>
        <time>2019-11-21T20:28:47Z</time>
      </trkpt>
      <trkpt lat="43.28980747" lon="-2.9169153">
        <ele>82.55682</ele>
        <time>2019-11-21T20:28:49Z</time>
      </trkpt>
      <trkpt lat="43.28978847" lon="-2.91666005">
        <ele>81.25134</ele>
        <time>2019-11-21T20:28:50Z</time>
      </trkpt>
      <trkpt lat="43.28975017" lon="-2.91640513">
        <ele>80.305664</ele>
        <time>2019-11-21T20:28:51Z</time>
      </trkpt>
      <trkpt lat="43.28970096" lon="-2.91610665">
        <ele>79.27588</ele>
        <time>2019-11-21T20:28:52Z</time>
      </trkpt>
      <trkpt lat="43.28964695" lon="-2.91580366">
        <ele>79.68164</ele>
        <time>2019-11-21T20:28:53Z</time>
      </trkpt>
      <trkpt lat="43.2896025" lon="-2.91554534">
        <ele>78.04193</ele>
        <time>2019-11-21T20:28:54Z</time>
      </trkpt>
      <trkpt lat="43.28955002" lon="-2.9152893">
        <ele>78.592896</ele>
        <time>2019-11-21T20:28:55Z</time>
      </trkpt>
      <trkpt lat="43.28949187" lon="-2.91498875">
        <ele>77.934326</ele>
        <time>2019-11-21T20:28:56Z</time>
      </trkpt>
      <trkpt lat="43.28942632" lon="-2.91471461">
        <ele>78.18463</ele>
        <time>2019-11-21T20:28:57Z</time>
      </trkpt>
      <trkpt lat="43.28936961" lon="-2.91445338">
        <ele>77.28552</ele>
        <time>2019-11-21T20:28:58Z</time>
      </trkpt>
      <trkpt lat="43.28931082" lon="-2.9141808">
        <ele>77.40698</ele>
        <time>2019-11-21T20:28:59Z</time>
      </trkpt>
      <trkpt lat="43.28921593" lon="-2.91361729">
        <ele>76.357605</ele>
        <time>2019-11-21T20:29:00Z</time>
      </trkpt>
      <trkpt lat="43.28917954" lon="-2.91333491">
        <ele>75.81152</ele>
        <time>2019-11-21T20:29:01Z</time>
      </trkpt>
      <trkpt lat="43.28915025" lon="-2.91305002">
        <ele>73.58014</ele>
        <time>2019-11-21T20:29:02Z</time>
      </trkpt>
      <trkpt lat="43.28912365" lon="-2.91276421">
        <ele>75.784485</ele>
        <time>2019-11-21T20:29:03Z</time>
      </trkpt>
      <trkpt lat="43.28910525" lon="-2.91247766">
        <ele>74.02844</ele>
        <time>2019-11-21T20:29:04Z</time>
      </trkpt>
      <trkpt lat="43.28908382" lon="-2.91218093">
        <ele>74.37256</ele>
        <time>2019-11-21T20:29:05Z</time>
      </trkpt>
      <trkpt lat="43.28907665" lon="-2.91188942">
        <ele>76.1048</ele>
        <time>2019-11-21T20:29:06Z</time>
      </trkpt>
      <trkpt lat="43.28906597" lon="-2.91158205">
        <ele>75.50989</ele>
        <time>2019-11-21T20:29:07Z</time>
      </trkpt>
      <trkpt lat="43.28907089" lon="-2.91129657">
        <ele>76.60474</ele>
        <time>2019-11-21T20:29:08Z</time>
      </trkpt>
      <trkpt lat="43.28907069" lon="-2.91098611">
        <ele>77.99127</ele>
        <time>2019-11-21T20:29:09Z</time>
      </trkpt>
      <trkpt lat="43.28908488" lon="-2.91071703">
        <ele>79.788086</ele>
        <time>2019-11-21T20:29:10Z</time>
      </trkpt>
      <trkpt lat="43.28910934" lon="-2.91044245">
        <ele>78.67621</ele>
        <time>2019-11-21T20:29:11Z</time>
      </trkpt>
      <trkpt lat="43.28912881" lon="-2.91016274">
        <ele>79.28961</ele>
        <time>2019-11-21T20:29:12Z</time>
      </trkpt>
      <trkpt lat="43.28914324" lon="-2.90987482">
        <ele>77.730774</ele>
        <time>2019-11-21T20:29:13Z</time>
      </trkpt>
      <trkpt lat="43.2891692" lon="-2.90959059">
        <ele>77.685425</ele>
        <time>2019-11-21T20:29:14Z</time>
      </trkpt>
      <trkpt lat="43.289187" lon="-2.90930377">
        <ele>79.55029</ele>
        <time>2019-11-21T20:29:15Z</time>
      </trkpt>
      <trkpt lat="43.28921046" lon="-2.90902078">
        <ele>79.69025</ele>
        <time>2019-11-21T20:29:16Z</time>
      </trkpt>
      <trkpt lat="43.28922751" lon="-2.90873031">
        <ele>79.95862</ele>
        <time>2019-11-21T20:29:17Z</time>
      </trkpt>
      <trkpt lat="43.28924112" lon="-2.90845265">
        <ele>80.15759</ele>
        <time>2019-11-21T20:29:18Z</time>
      </trkpt>
      <trkpt lat="43.28924707" lon="-2.90815783">
        <ele>79.95868</ele>
        <time>2019-11-21T20:29:19Z</time>
      </trkpt>
      <trkpt lat="43.28926034" lon="-2.90785877">
        <ele>81.28699</ele>
        <time>2019-11-21T20:29:21Z</time>
      </trkpt>
      <trkpt lat="43.28926109" lon="-2.90757232">
        <ele>81.100464</ele>
        <time>2019-11-21T20:29:22Z</time>
      </trkpt>
      <trkpt lat="43.28926228" lon="-2.9072732">
        <ele>82.16736</ele>
        <time>2019-11-21T20:29:23Z</time>
      </trkpt>
      <trkpt lat="43.28925881" lon="-2.90696484">
        <ele>80.40155</ele>
        <time>2019-11-21T20:29:24Z</time>
      </trkpt>
      <trkpt lat="43.28923902" lon="-2.90665464">
        <ele>78.42078</ele>
        <time>2019-11-21T20:29:25Z</time>
      </trkpt>
      <trkpt lat="43.28923625" lon="-2.90642757">
        <ele>78.224304</ele>
        <time>2019-11-21T20:29:26Z</time>
      </trkpt>
      <trkpt lat="43.28921628" lon="-2.90618484">
        <ele>77.97821</ele>
        <time>2019-11-21T20:29:27Z</time>
      </trkpt>
      <trkpt lat="43.28919881" lon="-2.90592216">
        <ele>78.14166</ele>
        <time>2019-11-21T20:29:28Z</time>
      </trkpt>
      <trkpt lat="43.28917268" lon="-2.90564584">
        <ele>78.41547</ele>
        <time>2019-11-21T20:29:29Z</time>
      </trkpt>
      <trkpt lat="43.28906205" lon="-2.90505324">
        <ele>78.160095</ele>
        <time>2019-11-21T20:29:30Z</time>
      </trkpt>
      <trkpt lat="43.2890363" lon="-2.90478498">
        <ele>77.352905</ele>
        <time>2019-11-21T20:29:31Z</time>
      </trkpt>
      <trkpt lat="43.28897536" lon="-2.90449582">
        <ele>77.48749</ele>
        <time>2019-11-21T20:29:32Z</time>
      </trkpt>
      <trkpt lat="43.28894221" lon="-2.90423877">
        <ele>79.31171</ele>
        <time>2019-11-21T20:29:33Z</time>
      </trkpt>
      <trkpt lat="43.28887822" lon="-2.90396551">
        <ele>79.98602</ele>
        <time>2019-11-21T20:29:34Z</time>
      </trkpt>
      <trkpt lat="43.28881696" lon="-2.90370001">
        <ele>81.40704</ele>
        <time>2019-11-21T20:29:35Z</time>
      </trkpt>
      <trkpt lat="43.28875643" lon="-2.90340788">
        <ele>81.40515</ele>
        <time>2019-11-21T20:29:36Z</time>
      </trkpt>
      <trkpt lat="43.28871139" lon="-2.90318743">
        <ele>82.2475</ele>
        <time>2019-11-21T20:29:37Z</time>
      </trkpt>
      <trkpt lat="43.28865057" lon="-2.90290437">
        <ele>83.8219</ele>
        <time>2019-11-21T20:29:38Z</time>
      </trkpt>
      <trkpt lat="43.28859577" lon="-2.90261688">
        <ele>84.22681</ele>
        <time>2019-11-21T20:29:39Z</time>
      </trkpt>
      <trkpt lat="43.28854891" lon="-2.90233025">
        <ele>83.89618</ele>
        <time>2019-11-21T20:29:40Z</time>
      </trkpt>
      <trkpt lat="43.28853195" lon="-2.90207891">
        <ele>85.36969</ele>
        <time>2019-11-21T20:29:41Z</time>
      </trkpt>
      <trkpt lat="43.28849994" lon="-2.90178452">
        <ele>85.69269</ele>
        <time>2019-11-21T20:29:42Z</time>
      </trkpt>
      <trkpt lat="43.28845761" lon="-2.90149209">
        <ele>84.50366</ele>
        <time>2019-11-21T20:29:43Z</time>
      </trkpt>
      <trkpt lat="43.2884477" lon="-2.90121514">
        <ele>86.88617</ele>
        <time>2019-11-21T20:29:44Z</time>
      </trkpt>
      <trkpt lat="43.2884385" lon="-2.90091602">
        <ele>87.34332</ele>
        <time>2019-11-21T20:29:45Z</time>
      </trkpt>
      <trkpt lat="43.28844658" lon="-2.90062536">
        <ele>87.84143</ele>
        <time>2019-11-21T20:29:46Z</time>
      </trkpt>
      <trkpt lat="43.2884694" lon="-2.90033699">
        <ele>88.76422</ele>
        <time>2019-11-21T20:29:47Z</time>
      </trkpt>
      <trkpt lat="43.28849201" lon="-2.90005976">
        <ele>88.23468</ele>
        <time>2019-11-21T20:29:48Z</time>
      </trkpt>
      <trkpt lat="43.28851913" lon="-2.89977634">
        <ele>89.2038</ele>
        <time>2019-11-21T20:29:49Z</time>
      </trkpt>
      <trkpt lat="43.28854936" lon="-2.89949783">
        <ele>89.947876</ele>
        <time>2019-11-21T20:29:51Z</time>
      </trkpt>
      <trkpt lat="43.28858004" lon="-2.89922956">
        <ele>91.082275</ele>
        <time>2019-11-21T20:29:52Z</time>
      </trkpt>
      <trkpt lat="43.28859506" lon="-2.89896295">
        <ele>90.8407</ele>
        <time>2019-11-21T20:29:53Z</time>
      </trkpt>
      <trkpt lat="43.28862976" lon="-2.89870599">
        <ele>90.785095</ele>
        <time>2019-11-21T20:29:54Z</time>
      </trkpt>
      <trkpt lat="43.28865821" lon="-2.89845044">
        <ele>91.26996</ele>
        <time>2019-11-21T20:29:55Z</time>
      </trkpt>
      <trkpt lat="43.28867809" lon="-2.89818438">
        <ele>91.44739</ele>
        <time>2019-11-21T20:29:56Z</time>
      </trkpt>
      <trkpt lat="43.28868755" lon="-2.89791529">
        <ele>92.45526</ele>
        <time>2019-11-21T20:29:57Z</time>
      </trkpt>
      <trkpt lat="43.28868588" lon="-2.89766801">
        <ele>91.88617</ele>
        <time>2019-11-21T20:29:58Z</time>
      </trkpt>
      <trkpt lat="43.28868426" lon="-2.89742005">
        <ele>91.8291</ele>
        <time>2019-11-21T20:29:59Z</time>
      </trkpt>
      <trkpt lat="43.28867457" lon="-2.8971692">
        <ele>92.35266</ele>
        <time>2019-11-21T20:30:00Z</time>
      </trkpt>
      <trkpt lat="43.2886464" lon="-2.89690167">
        <ele>92.050964</ele>
        <time>2019-11-21T20:30:01Z</time>
      </trkpt>
      <trkpt lat="43.28860833" lon="-2.89664382">
        <ele>92.44647</ele>
        <time>2019-11-21T20:30:02Z</time>
      </trkpt>
      <trkpt lat="43.28851407" lon="-2.89615362">
        <ele>91.82739</ele>
        <time>2019-11-21T20:30:03Z</time>
      </trkpt>
      <trkpt lat="43.28844544" lon="-2.89592208">
        <ele>93.07526</ele>
        <time>2019-11-21T20:30:04Z</time>
      </trkpt>
      <trkpt lat="43.28836777" lon="-2.89571821">
        <ele>93.91156</ele>
        <time>2019-11-21T20:30:05Z</time>
      </trkpt>
      <trkpt lat="43.28827572" lon="-2.89547476">
        <ele>95.34039</ele>
        <time>2019-11-21T20:30:06Z</time>
      </trkpt>
      <trkpt lat="43.28817876" lon="-2.89525597">
        <ele>94.10004</ele>
        <time>2019-11-21T20:30:07Z</time>
      </trkpt>
      <trkpt lat="43.28806901" lon="-2.89502411">
        <ele>94.92871</ele>
        <time>2019-11-21T20:30:08Z</time>
      </trkpt>
      <trkpt lat="43.28795999" lon="-2.89482651">
        <ele>94.1051</ele>
        <time>2019-11-21T20:30:09Z</time>
      </trkpt>
      <trkpt lat="43.28783663" lon="-2.8946155">
        <ele>93.46167</ele>
        <time>2019-11-21T20:30:10Z</time>
      </trkpt>
      <trkpt lat="43.2877019" lon="-2.89439867">
        <ele>93.32556</ele>
        <time>2019-11-21T20:30:11Z</time>
      </trkpt>
      <trkpt lat="43.28755759" lon="-2.89419308">
        <ele>93.34784</ele>
        <time>2019-11-21T20:30:12Z</time>
      </trkpt>
      <trkpt lat="43.28741625" lon="-2.89399424">
        <ele>95.58612</ele>
        <time>2019-11-21T20:30:13Z</time>
      </trkpt>
      <trkpt lat="43.28727695" lon="-2.8938202">
        <ele>96.4765</ele>
        <time>2019-11-21T20:30:14Z</time>
      </trkpt>
      <trkpt lat="43.28714081" lon="-2.8936368">
        <ele>96.15912</ele>
        <time>2019-11-21T20:30:15Z</time>
      </trkpt>
      <trkpt lat="43.28700217" lon="-2.89346006">
        <ele>95.21594</ele>
        <time>2019-11-21T20:30:16Z</time>
      </trkpt>
      <trkpt lat="43.28686128" lon="-2.89329206">
        <ele>94.50903</ele>
        <time>2019-11-21T20:30:17Z</time>
      </trkpt>
      <trkpt lat="43.28672677" lon="-2.89316915">
        <ele>93.651</ele>
        <time>2019-11-21T20:30:18Z</time>
      </trkpt>
      <trkpt lat="43.28660144" lon="-2.89304187">
        <ele>92.27338</ele>
        <time>2019-11-21T20:30:19Z</time>
      </trkpt>
      <trkpt lat="43.28646848" lon="-2.89288207">
        <ele>90.801636</ele>
        <time>2019-11-21T20:30:20Z</time>
      </trkpt>
      <trkpt lat="43.28633731" lon="-2.89270077">
        <ele>90.85089</ele>
        <time>2019-11-21T20:30:21Z</time>
      </trkpt>
      <trkpt lat="43.28619292" lon="-2.89250501">
        <ele>90.84918</ele>
        <time>2019-11-21T20:30:23Z</time>
      </trkpt>
      <trkpt lat="43.28605985" lon="-2.89229322">
        <ele>92.11133</ele>
        <time>2019-11-21T20:30:24Z</time>
      </trkpt>
      <trkpt lat="43.28592262" lon="-2.89207529">
        <ele>93.64368</ele>
        <time>2019-11-21T20:30:25Z</time>
      </trkpt>
      <trkpt lat="43.28579835" lon="-2.89185596">
        <ele>94.37189</ele>
        <time>2019-11-21T20:30:26Z</time>
      </trkpt>
      <trkpt lat="43.2856799" lon="-2.89161502">
        <ele>94.44183</ele>
        <time>2019-11-21T20:30:27Z</time>
      </trkpt>
      <trkpt lat="43.28556595" lon="-2.8913565">
        <ele>95.1994</ele>
        <time>2019-11-21T20:30:28Z</time>
      </trkpt>
      <trkpt lat="43.28545855" lon="-2.89109353">
        <ele>96.067566</ele>
        <time>2019-11-21T20:30:29Z</time>
      </trkpt>
      <trkpt lat="43.28535275" lon="-2.89082722">
        <ele>97.6546</ele>
        <time>2019-11-21T20:30:30Z</time>
      </trkpt>
      <trkpt lat="43.28525263" lon="-2.89056153">
        <ele>99.133484</ele>
        <time>2019-11-21T20:30:31Z</time>
      </trkpt>
      <trkpt lat="43.28516062" lon="-2.89029169">
        <ele>100.52161</ele>
        <time>2019-11-21T20:30:32Z</time>
      </trkpt>
      <trkpt lat="43.28507907" lon="-2.89004306">
        <ele>100.55322</ele>
        <time>2019-11-21T20:30:33Z</time>
      </trkpt>
      <trkpt lat="43.28489933" lon="-2.88952468">
        <ele>99.837036</ele>
        <time>2019-11-21T20:30:34Z</time>
      </trkpt>
      <trkpt lat="43.28479991" lon="-2.88925659">
        <ele>100.89984</ele>
        <time>2019-11-21T20:30:35Z</time>
      </trkpt>
      <trkpt lat="43.2847006" lon="-2.88901877">
        <ele>100.8927</ele>
        <time>2019-11-21T20:30:36Z</time>
      </trkpt>
      <trkpt lat="43.28459733" lon="-2.88877867">
        <ele>98.73193</ele>
        <time>2019-11-21T20:30:37Z</time>
      </trkpt>
      <trkpt lat="43.28448862" lon="-2.8885314">
        <ele>99.12134</ele>
        <time>2019-11-21T20:30:38Z</time>
      </trkpt>
      <trkpt lat="43.28436126" lon="-2.88828002">
        <ele>99.69867</ele>
        <time>2019-11-21T20:30:39Z</time>
      </trkpt>
      <trkpt lat="43.28422576" lon="-2.88802526">
        <ele>99.94513</ele>
        <time>2019-11-21T20:30:40Z</time>
      </trkpt>
      <trkpt lat="43.28409938" lon="-2.88779159">
        <ele>99.54993</ele>
        <time>2019-11-21T20:30:41Z</time>
      </trkpt>
      <trkpt lat="43.28396212" lon="-2.88756133">
        <ele>98.18457</ele>
        <time>2019-11-21T20:30:42Z</time>
      </trkpt>
      <trkpt lat="43.28383376" lon="-2.88730974">
        <ele>94.09619</ele>
        <time>2019-11-21T20:30:43Z</time>
      </trkpt>
      <trkpt lat="43.28368098" lon="-2.88707865">
        <ele>94.597595</ele>
        <time>2019-11-21T20:30:44Z</time>
      </trkpt>
      <trkpt lat="43.28354635" lon="-2.88687495">
        <ele>91.37494</ele>
        <time>2019-11-21T20:30:45Z</time>
      </trkpt>
      <trkpt lat="43.28338726" lon="-2.88662927">
        <ele>91.94299</ele>
        <time>2019-11-21T20:30:46Z</time>
      </trkpt>
      <trkpt lat="43.28323685" lon="-2.88637256">
        <ele>91.65527</ele>
        <time>2019-11-21T20:30:47Z</time>
      </trkpt>
      <trkpt lat="43.28309319" lon="-2.88613278">
        <ele>91.440796</ele>
        <time>2019-11-21T20:30:48Z</time>
      </trkpt>
      <trkpt lat="43.28295553" lon="-2.88586098">
        <ele>90.23047</ele>
        <time>2019-11-21T20:30:49Z</time>
      </trkpt>
      <trkpt lat="43.2828252" lon="-2.88558884">
        <ele>89.480286</ele>
        <time>2019-11-21T20:30:50Z</time>
      </trkpt>
      <trkpt lat="43.28269596" lon="-2.88531616">
        <ele>89.253784</ele>
        <time>2019-11-21T20:30:51Z</time>
      </trkpt>
      <trkpt lat="43.28257085" lon="-2.88501736">
        <ele>88.63544</ele>
        <time>2019-11-21T20:30:52Z</time>
      </trkpt>
      <trkpt lat="43.28244598" lon="-2.88472432">
        <ele>89.029175</ele>
        <time>2019-11-21T20:30:53Z</time>
      </trkpt>
      <trkpt lat="43.28234087" lon="-2.88444286">
        <ele>88.77106</ele>
        <time>2019-11-21T20:30:54Z</time>
      </trkpt>
      <trkpt lat="43.28224599" lon="-2.88416002">
        <ele>88.49646</ele>
        <time>2019-11-21T20:30:56Z</time>
      </trkpt>
      <trkpt lat="43.28215719" lon="-2.88386421">
        <ele>89.38818</ele>
        <time>2019-11-21T20:30:57Z</time>
      </trkpt>
      <trkpt lat="43.28206787" lon="-2.88356453">
        <ele>89.53735</ele>
        <time>2019-11-21T20:30:58Z</time>
      </trkpt>
      <trkpt lat="43.28199136" lon="-2.88325487">
        <ele>92.55847</ele>
        <time>2019-11-21T20:30:59Z</time>
      </trkpt>
      <trkpt lat="43.28192182" lon="-2.88294613">
        <ele>92.262085</ele>
        <time>2019-11-21T20:31:00Z</time>
      </trkpt>
      <trkpt lat="43.28186328" lon="-2.88267259">
        <ele>91.45746</ele>
        <time>2019-11-21T20:31:01Z</time>
      </trkpt>
      <trkpt lat="43.28178895" lon="-2.88234144">
        <ele>91.82654</ele>
        <time>2019-11-21T20:31:02Z</time>
      </trkpt>
      <trkpt lat="43.28172376" lon="-2.88201971">
        <ele>92.2829</ele>
        <time>2019-11-21T20:31:03Z</time>
      </trkpt>
      <trkpt lat="43.28164639" lon="-2.88165352">
        <ele>91.81323</ele>
        <time>2019-11-21T20:31:04Z</time>
      </trkpt>
      <trkpt lat="43.28156082" lon="-2.88131392">
        <ele>93.31677</ele>
        <time>2019-11-21T20:31:05Z</time>
      </trkpt>
      <trkpt lat="43.28139549" lon="-2.88066829">
        <ele>93.41852</ele>
        <time>2019-11-21T20:31:06Z</time>
      </trkpt>
      <trkpt lat="43.28131491" lon="-2.88038344">
        <ele>92.371765</ele>
        <time>2019-11-21T20:31:07Z</time>
      </trkpt>
      <trkpt lat="43.28121571" lon="-2.8800628">
        <ele>93.25922</ele>
        <time>2019-11-21T20:31:08Z</time>
      </trkpt>
      <trkpt lat="43.28111612" lon="-2.87976917">
        <ele>95.90411</ele>
        <time>2019-11-21T20:31:09Z</time>
      </trkpt>
      <trkpt lat="43.28099463" lon="-2.8794756">
        <ele>95.08917</ele>
        <time>2019-11-21T20:31:10Z</time>
      </trkpt>
      <trkpt lat="43.28088227" lon="-2.87919653">
        <ele>94.151184</ele>
        <time>2019-11-21T20:31:11Z</time>
      </trkpt>
      <trkpt lat="43.28076526" lon="-2.87889914">
        <ele>92.71576</ele>
        <time>2019-11-21T20:31:12Z</time>
      </trkpt>
      <trkpt lat="43.28063256" lon="-2.87861934">
        <ele>92.53107</ele>
        <time>2019-11-21T20:31:13Z</time>
      </trkpt>
      <trkpt lat="43.28049448" lon="-2.87834686">
        <ele>92.3725</ele>
        <time>2019-11-21T20:31:14Z</time>
      </trkpt>
      <trkpt lat="43.28035533428192" lon="-2.8780746459960938">
        <ele>0.0</ele>
        <time>2019-11-21T20:31:15Z</time>
      </trkpt>
      <trkpt lat="43.27893905" lon="-2.87613708">
        <ele>101.63141</ele>
        <time>2019-11-21T20:31:25Z</time>
      </trkpt>
      <trkpt lat="43.27873575" lon="-2.87587823">
        <ele>101.22211</ele>
        <time>2019-11-21T20:31:26Z</time>
      </trkpt>
      <trkpt lat="43.2785409" lon="-2.87551828">
        <ele>103.141174</ele>
        <time>2019-11-21T20:31:27Z</time>
      </trkpt>
      <trkpt lat="43.27838142" lon="-2.8752453">
        <ele>103.85101</ele>
        <time>2019-11-21T20:31:28Z</time>
      </trkpt>
      <trkpt lat="43.27821771" lon="-2.87493037">
        <ele>102.89105</ele>
        <time>2019-11-21T20:31:29Z</time>
      </trkpt>
      <trkpt lat="43.27806385" lon="-2.87461532">
        <ele>103.19226</ele>
        <time>2019-11-21T20:31:30Z</time>
      </trkpt>
      <trkpt lat="43.27789244" lon="-2.87427247">
        <ele>104.296875</ele>
        <time>2019-11-21T20:31:31Z</time>
      </trkpt>
      <trkpt lat="43.27773934" lon="-2.87393302">
        <ele>107.48755</ele>
        <time>2019-11-21T20:31:32Z</time>
      </trkpt>
      <trkpt lat="43.2774787" lon="-2.87327413">
        <ele>111.13855</ele>
        <time>2019-11-21T20:31:34Z</time>
      </trkpt>
      <trkpt lat="43.27735077" lon="-2.8729475">
        <ele>112.50946</ele>
        <time>2019-11-21T20:31:35Z</time>
      </trkpt>
      <trkpt lat="43.27723934" lon="-2.87261742">
        <ele>114.513245</ele>
        <time>2019-11-21T20:31:36Z</time>
      </trkpt>
      <trkpt lat="43.27713295" lon="-2.87227854">
        <ele>115.722046</ele>
        <time>2019-11-21T20:31:37Z</time>
      </trkpt>
      <trkpt lat="43.27704068" lon="-2.87193742">
        <ele>115.97528</ele>
        <time>2019-11-21T20:31:38Z</time>
      </trkpt>
      <trkpt lat="43.27694953" lon="-2.87160495">
        <ele>116.72601</ele>
        <time>2019-11-21T20:31:39Z</time>
      </trkpt>
      <trkpt lat="43.27686253" lon="-2.87125078">
        <ele>117.904175</ele>
        <time>2019-11-21T20:31:40Z</time>
      </trkpt>
      <trkpt lat="43.27669996" lon="-2.87056995">
        <ele>121.22662</ele>
        <time>2019-11-21T20:31:41Z</time>
      </trkpt>
      <trkpt lat="43.27663022" lon="-2.87024186">
        <ele>121.97583</ele>
        <time>2019-11-21T20:31:42Z</time>
      </trkpt>
      <trkpt lat="43.27655389" lon="-2.86989347">
        <ele>122.06683</ele>
        <time>2019-11-21T20:31:43Z</time>
      </trkpt>
      <trkpt lat="43.27646291" lon="-2.86954026">
        <ele>122.81885</ele>
        <time>2019-11-21T20:31:44Z</time>
      </trkpt>
      <trkpt lat="43.2763685" lon="-2.86919813">
        <ele>124.28534</ele>
        <time>2019-11-21T20:31:45Z</time>
      </trkpt>
      <trkpt lat="43.27627" lon="-2.86886554">
        <ele>125.58624</ele>
        <time>2019-11-21T20:31:46Z</time>
      </trkpt>
      <trkpt lat="43.27615439" lon="-2.8685223">
        <ele>126.681946</ele>
        <time>2019-11-21T20:31:47Z</time>
      </trkpt>
      <trkpt lat="43.2760314" lon="-2.8681775">
        <ele>127.04187</ele>
        <time>2019-11-21T20:31:48Z</time>
      </trkpt>
      <trkpt lat="43.27590039" lon="-2.86785074">
        <ele>127.31427</ele>
        <time>2019-11-21T20:31:49Z</time>
      </trkpt>
      <trkpt lat="43.27576898" lon="-2.86754832">
        <ele>127.0423</ele>
        <time>2019-11-21T20:31:50Z</time>
      </trkpt>
      <trkpt lat="43.27563134" lon="-2.86721382">
        <ele>128.45654</ele>
        <time>2019-11-21T20:31:51Z</time>
      </trkpt>
      <trkpt lat="43.2754845" lon="-2.86689768">
        <ele>128.74261</ele>
        <time>2019-11-21T20:31:52Z</time>
      </trkpt>
      <trkpt lat="43.27533198" lon="-2.86659111">
        <ele>128.75049</ele>
        <time>2019-11-21T20:31:53Z</time>
      </trkpt>
      <trkpt lat="43.27517867088318" lon="-2.8662890195846558">
        <ele>0.0</ele>
        <time>2019-11-21T20:31:54Z</time>
      </trkpt>
      <trkpt lat="43.27404037" lon="-2.86414002">
        <ele>129.93652</ele>
        <time>2019-11-21T20:32:02Z</time>
      </trkpt>
      <trkpt lat="43.27389586" lon="-2.86382155">
        <ele>129.29944</ele>
        <time>2019-11-21T20:32:03Z</time>
      </trkpt>
      <trkpt lat="43.27375538" lon="-2.86351613">
        <ele>129.94409</ele>
        <time>2019-11-21T20:32:04Z</time>
      </trkpt>
      <trkpt lat="43.2736328" lon="-2.86318366">
        <ele>129.97888</ele>
        <time>2019-11-21T20:32:05Z</time>
      </trkpt>
      <trkpt lat="43.27352301" lon="-2.86287179">
        <ele>130.53113</ele>
        <time>2019-11-21T20:32:06Z</time>
      </trkpt>
      <trkpt lat="43.27343244" lon="-2.86256411">
        <ele>128.30908</ele>
        <time>2019-11-21T20:32:07Z</time>
      </trkpt>
      <trkpt lat="43.27333724" lon="-2.86223975">
        <ele>130.47888</ele>
        <time>2019-11-21T20:32:08Z</time>
      </trkpt>
      <trkpt lat="43.27324419" lon="-2.86191189">
        <ele>130.57599</ele>
        <time>2019-11-21T20:32:09Z</time>
      </trkpt>
      <trkpt lat="43.27316515" lon="-2.86158174">
        <ele>131.53601</ele>
        <time>2019-11-21T20:32:10Z</time>
      </trkpt>
      <trkpt lat="43.27308773" lon="-2.86122412">
        <ele>133.08374</ele>
        <time>2019-11-21T20:32:11Z</time>
      </trkpt>
      <trkpt lat="43.27302456" lon="-2.86087529">
        <ele>134.05316</ele>
        <time>2019-11-21T20:32:12Z</time>
      </trkpt>
      <trkpt lat="43.27292486" lon="-2.86016878">
        <ele>134.58435</ele>
        <time>2019-11-21T20:32:14Z</time>
      </trkpt>
      <trkpt lat="43.27287883" lon="-2.85979618">
        <ele>137.15723</ele>
        <time>2019-11-21T20:32:15Z</time>
      </trkpt>
      <trkpt lat="43.27284946" lon="-2.85944203">
        <ele>136.9541</ele>
        <time>2019-11-21T20:32:16Z</time>
      </trkpt>
      <trkpt lat="43.27282752" lon="-2.85907741">
        <ele>135.80176</ele>
        <time>2019-11-21T20:32:17Z</time>
      </trkpt>
      <trkpt lat="43.27280985" lon="-2.85872204">
        <ele>135.53638</ele>
        <time>2019-11-21T20:32:18Z</time>
      </trkpt>
      <trkpt lat="43.27280289" lon="-2.85834798">
        <ele>137.05017</ele>
        <time>2019-11-21T20:32:19Z</time>
      </trkpt>
      <trkpt lat="43.2727982" lon="-2.85765209">
        <ele>136.92432</ele>
        <time>2019-11-21T20:32:20Z</time>
      </trkpt>
      <trkpt lat="43.2727899" lon="-2.85728949">
        <ele>136.94873</ele>
        <time>2019-11-21T20:32:21Z</time>
      </trkpt>
      <trkpt lat="43.27278406" lon="-2.85693017">
        <ele>137.31616</ele>
        <time>2019-11-21T20:32:22Z</time>
      </trkpt>
      <trkpt lat="43.27276457" lon="-2.8565486">
        <ele>136.52039</ele>
        <time>2019-11-21T20:32:23Z</time>
      </trkpt>
      <trkpt lat="43.27273986" lon="-2.85621534">
        <ele>135.66638</ele>
        <time>2019-11-21T20:32:24Z</time>
      </trkpt>
      <trkpt lat="43.27270268" lon="-2.85584948">
        <ele>135.84766</ele>
        <time>2019-11-21T20:32:25Z</time>
      </trkpt>
      <trkpt lat="43.27264817" lon="-2.8554974">
        <ele>136.15057</ele>
        <time>2019-11-21T20:32:26Z</time>
      </trkpt>
      <trkpt lat="43.27261137" lon="-2.85513449">
        <ele>134.62628</ele>
        <time>2019-11-21T20:32:27Z</time>
      </trkpt>
      <trkpt lat="43.2725512" lon="-2.85477921">
        <ele>133.76465</ele>
        <time>2019-11-21T20:32:28Z</time>
      </trkpt>
      <trkpt lat="43.27248154" lon="-2.85443954">
        <ele>133.0694</ele>
        <time>2019-11-21T20:32:29Z</time>
      </trkpt>
      <trkpt lat="43.27239317" lon="-2.85407921">
        <ele>133.52216</ele>
        <time>2019-11-21T20:32:30Z</time>
      </trkpt>
      <trkpt lat="43.27229873" lon="-2.8537441">
        <ele>135.75568</ele>
        <time>2019-11-21T20:32:31Z</time>
      </trkpt>
      <trkpt lat="43.27220271" lon="-2.85340819">
        <ele>136.49341</ele>
        <time>2019-11-21T20:32:32Z</time>
      </trkpt>
      <trkpt lat="43.27209793" lon="-2.85308067">
        <ele>138.09595</ele>
        <time>2019-11-21T20:32:33Z</time>
      </trkpt>
      <trkpt lat="43.27198607" lon="-2.85276151">
        <ele>139.44922</ele>
        <time>2019-11-21T20:32:34Z</time>
      </trkpt>
      <trkpt lat="43.2718645" lon="-2.85245318">
        <ele>140.49219</ele>
        <time>2019-11-21T20:32:36Z</time>
      </trkpt>
      <trkpt lat="43.2717357" lon="-2.85213669">
        <ele>141.27875</ele>
        <time>2019-11-21T20:32:37Z</time>
      </trkpt>
      <trkpt lat="43.27161309" lon="-2.85186001">
        <ele>138.82935</ele>
        <time>2019-11-21T20:32:38Z</time>
      </trkpt>
      <trkpt lat="43.27148834" lon="-2.85160265">
        <ele>136.61932</ele>
        <time>2019-11-21T20:32:39Z</time>
      </trkpt>
      <trkpt lat="43.2713498" lon="-2.8513152">
        <ele>134.50897</ele>
        <time>2019-11-21T20:32:40Z</time>
      </trkpt>
      <trkpt lat="43.27120462" lon="-2.8510463">
        <ele>134.31958</ele>
        <time>2019-11-21T20:32:41Z</time>
      </trkpt>
      <trkpt lat="43.27105015" lon="-2.85079129">
        <ele>133.9657</ele>
        <time>2019-11-21T20:32:42Z</time>
      </trkpt>
      <trkpt lat="43.27089664" lon="-2.85055388">
        <ele>133.83478</ele>
        <time>2019-11-21T20:32:43Z</time>
      </trkpt>
      <trkpt lat="43.27073653" lon="-2.85031468">
        <ele>133.60303</ele>
        <time>2019-11-21T20:32:44Z</time>
      </trkpt>
      <trkpt lat="43.27056849" lon="-2.85010585">
        <ele>134.55005</ele>
        <time>2019-11-21T20:32:45Z</time>
      </trkpt>
      <trkpt lat="43.27039736" lon="-2.8498843">
        <ele>137.18237</ele>
        <time>2019-11-21T20:32:46Z</time>
      </trkpt>
      <trkpt lat="43.27023556" lon="-2.8496813">
        <ele>137.65991</ele>
        <time>2019-11-21T20:32:47Z</time>
      </trkpt>
      <trkpt lat="43.27007211" lon="-2.84947098">
        <ele>137.74023</ele>
        <time>2019-11-21T20:32:48Z</time>
      </trkpt>
      <trkpt lat="43.26990372" lon="-2.84925508">
        <ele>139.0224</ele>
        <time>2019-11-21T20:32:49Z</time>
      </trkpt>
      <trkpt lat="43.26973196" lon="-2.8490356">
        <ele>140.18658</ele>
        <time>2019-11-21T20:32:50Z</time>
      </trkpt>
      <trkpt lat="43.26956847" lon="-2.84882071">
        <ele>143.54388</ele>
        <time>2019-11-21T20:32:51Z</time>
      </trkpt>
      <trkpt lat="43.26941443" lon="-2.84863462">
        <ele>142.20831</ele>
        <time>2019-11-21T20:32:52Z</time>
      </trkpt>
      <trkpt lat="43.26909537" lon="-2.8481742">
        <ele>148.8714</ele>
        <time>2019-11-21T20:32:53Z</time>
      </trkpt>
      <trkpt lat="43.26893822" lon="-2.84790792">
        <ele>146.79791</ele>
        <time>2019-11-21T20:32:54Z</time>
      </trkpt>
      <trkpt lat="43.26879099" lon="-2.84765355">
        <ele>145.69379</ele>
        <time>2019-11-21T20:32:55Z</time>
      </trkpt>
      <trkpt lat="43.26864943" lon="-2.84739656">
        <ele>145.01385</ele>
        <time>2019-11-21T20:32:56Z</time>
      </trkpt>
      <trkpt lat="43.268510699272156" lon="-2.8471380472183228">
        <ele>0.0</ele>
        <time>2019-11-21T20:32:57Z</time>
      </trkpt>
      <trkpt lat="43.26794585" lon="-2.84577729">
        <ele>143.82977</ele>
        <time>2019-11-21T20:33:02Z</time>
      </trkpt>
      <trkpt lat="43.26783794" lon="-2.84548289">
        <ele>143.58252</ele>
        <time>2019-11-21T20:33:03Z</time>
      </trkpt>
      <trkpt lat="43.26773569" lon="-2.84516834">
        <ele>145.27856</ele>
        <time>2019-11-21T20:33:04Z</time>
      </trkpt>
      <trkpt lat="43.26763595" lon="-2.84485007">
        <ele>145.66266</ele>
        <time>2019-11-21T20:33:05Z</time>
      </trkpt>
      <trkpt lat="43.2675436" lon="-2.84452932">
        <ele>146.40619</ele>
        <time>2019-11-21T20:33:07Z</time>
      </trkpt>
      <trkpt lat="43.26746089" lon="-2.84419408">
        <ele>147.26263</ele>
        <time>2019-11-21T20:33:08Z</time>
      </trkpt>
      <trkpt lat="43.26739181" lon="-2.84387918">
        <ele>147.24689</ele>
        <time>2019-11-21T20:33:09Z</time>
      </trkpt>
      <trkpt lat="43.26733023" lon="-2.843546">
        <ele>148.62323</ele>
        <time>2019-11-21T20:33:10Z</time>
      </trkpt>
      <trkpt lat="43.26727282" lon="-2.8432008">
        <ele>147.54114</ele>
        <time>2019-11-21T20:33:11Z</time>
      </trkpt>
      <trkpt lat="43.26721291" lon="-2.8428626">
        <ele>148.31433</ele>
        <time>2019-11-21T20:33:12Z</time>
      </trkpt>
      <trkpt lat="43.2671888" lon="-2.84260477">
        <ele>149.90894</ele>
        <time>2019-11-21T20:33:13Z</time>
      </trkpt>
      <trkpt lat="43.26714751" lon="-2.84229869">
        <ele>152.62738</ele>
        <time>2019-11-21T20:33:14Z</time>
      </trkpt>
      <trkpt lat="43.26710645" lon="-2.84198499">
        <ele>152.78864</ele>
        <time>2019-11-21T20:33:15Z</time>
      </trkpt>
      <trkpt lat="43.26706409" lon="-2.84165452">
        <ele>152.84033</ele>
        <time>2019-11-21T20:33:16Z</time>
      </trkpt>
      <trkpt lat="43.26702914" lon="-2.84130681">
        <ele>153.05505</ele>
        <time>2019-11-21T20:33:17Z</time>
      </trkpt>
      <trkpt lat="43.26698555" lon="-2.84097989">
        <ele>153.31384</ele>
        <time>2019-11-21T20:33:18Z</time>
      </trkpt>
      <trkpt lat="43.2669358" lon="-2.84063077">
        <ele>155.4397</ele>
        <time>2019-11-21T20:33:19Z</time>
      </trkpt>
      <trkpt lat="43.26687624" lon="-2.84029559">
        <ele>157.30786</ele>
        <time>2019-11-21T20:33:20Z</time>
      </trkpt>
      <trkpt lat="43.26681449" lon="-2.83995761">
        <ele>157.67151</ele>
        <time>2019-11-21T20:33:21Z</time>
      </trkpt>
      <trkpt lat="43.26675017" lon="-2.83961627">
        <ele>157.80176</ele>
        <time>2019-11-21T20:33:22Z</time>
      </trkpt>
      <trkpt lat="43.266675" lon="-2.83927317">
        <ele>158.78528</ele>
        <time>2019-11-21T20:33:23Z</time>
      </trkpt>
      <trkpt lat="43.26651356" lon="-2.83859278">
        <ele>159.81427</ele>
        <time>2019-11-21T20:33:24Z</time>
      </trkpt>
      <trkpt lat="43.2664175" lon="-2.83825753">
        <ele>160.4143</ele>
        <time>2019-11-21T20:33:25Z</time>
      </trkpt>
      <trkpt lat="43.26630162" lon="-2.83790778">
        <ele>160.79749</ele>
        <time>2019-11-21T20:33:26Z</time>
      </trkpt>
      <trkpt lat="43.26617976" lon="-2.83757079">
        <ele>160.95636</ele>
        <time>2019-11-21T20:33:27Z</time>
      </trkpt>
      <trkpt lat="43.26605567" lon="-2.83723105">
        <ele>161.67712</ele>
        <time>2019-11-21T20:33:28Z</time>
      </trkpt>
      <trkpt lat="43.26591883" lon="-2.83688232">
        <ele>161.70276</ele>
        <time>2019-11-21T20:33:29Z</time>
      </trkpt>
      <trkpt lat="43.26577825" lon="-2.83653523">
        <ele>161.60461</ele>
        <time>2019-11-21T20:33:30Z</time>
      </trkpt>
      <trkpt lat="43.2656315" lon="-2.83619276">
        <ele>161.53723</ele>
        <time>2019-11-21T20:33:31Z</time>
      </trkpt>
      <trkpt lat="43.2654828" lon="-2.83584111">
        <ele>162.31238</ele>
        <time>2019-11-21T20:33:32Z</time>
      </trkpt>
      <trkpt lat="43.26533681" lon="-2.83547949">
        <ele>162.27899</ele>
        <time>2019-11-21T20:33:33Z</time>
      </trkpt>
      <trkpt lat="43.26519236" lon="-2.83511968">
        <ele>162.86469</ele>
        <time>2019-11-21T20:33:34Z</time>
      </trkpt>
      <trkpt lat="43.26505933" lon="-2.8347778">
        <ele>163.67456</ele>
        <time>2019-11-21T20:33:36Z</time>
      </trkpt>
      <trkpt lat="43.26493319" lon="-2.83440231">
        <ele>164.46661</ele>
        <time>2019-11-21T20:33:37Z</time>
      </trkpt>
      <trkpt lat="43.26481613" lon="-2.83403479">
        <ele>163.21942</ele>
        <time>2019-11-21T20:33:38Z</time>
      </trkpt>
      <trkpt lat="43.26470796" lon="-2.83365981">
        <ele>162.94556</ele>
        <time>2019-11-21T20:33:39Z</time>
      </trkpt>
      <trkpt lat="43.26461498" lon="-2.83327388">
        <ele>164.00854</ele>
        <time>2019-11-21T20:33:40Z</time>
      </trkpt>
      <trkpt lat="43.2645294" lon="-2.83288738">
        <ele>163.5636</ele>
        <time>2019-11-21T20:33:41Z</time>
      </trkpt>
      <trkpt lat="43.26445834" lon="-2.8325001">
        <ele>162.53052</ele>
        <time>2019-11-21T20:33:42Z</time>
      </trkpt>
      <trkpt lat="43.26439826" lon="-2.8321116">
        <ele>161.05267</ele>
        <time>2019-11-21T20:33:43Z</time>
      </trkpt>
      <trkpt lat="43.26434236" lon="-2.83172623">
        <ele>160.97656</ele>
        <time>2019-11-21T20:33:44Z</time>
      </trkpt>
      <trkpt lat="43.26429806" lon="-2.83134589">
        <ele>160.85791</ele>
        <time>2019-11-21T20:33:45Z</time>
      </trkpt>
      <trkpt lat="43.26426712" lon="-2.83095849">
        <ele>159.90631</ele>
        <time>2019-11-21T20:33:46Z</time>
      </trkpt>
      <trkpt lat="43.26423576" lon="-2.83056921">
        <ele>161.23126</ele>
        <time>2019-11-21T20:33:47Z</time>
      </trkpt>
      <trkpt lat="43.2642328" lon="-2.83020451">
        <ele>158.52277</ele>
        <time>2019-11-21T20:33:48Z</time>
      </trkpt>
      <trkpt lat="43.26421427" lon="-2.82983973">
        <ele>159.23651</ele>
        <time>2019-11-21T20:33:49Z</time>
      </trkpt>
      <trkpt lat="43.26420735" lon="-2.8295044">
        <ele>159.93762</ele>
        <time>2019-11-21T20:33:50Z</time>
      </trkpt>
      <trkpt lat="43.26419235" lon="-2.82875">
        <ele>158.86627</ele>
        <time>2019-11-21T20:33:51Z</time>
      </trkpt>
      <trkpt lat="43.26419328" lon="-2.82839105">
        <ele>159.55743</ele>
        <time>2019-11-21T20:33:52Z</time>
      </trkpt>
      <trkpt lat="43.2641516" lon="-2.82804356">
        <ele>159.45251</ele>
        <time>2019-11-21T20:33:53Z</time>
      </trkpt>
      <trkpt lat="43.26412114" lon="-2.82767684">
        <ele>158.50171</ele>
        <time>2019-11-21T20:33:54Z</time>
      </trkpt>
      <trkpt lat="43.26408823" lon="-2.82733712">
        <ele>158.20349</ele>
        <time>2019-11-21T20:33:55Z</time>
      </trkpt>
      <trkpt lat="43.26404387" lon="-2.82700398">
        <ele>158.41895</ele>
        <time>2019-11-21T20:33:56Z</time>
      </trkpt>
      <trkpt lat="43.26397559" lon="-2.82669604">
        <ele>157.7909</ele>
        <time>2019-11-21T20:33:57Z</time>
      </trkpt>
      <trkpt lat="43.26391553" lon="-2.82635084">
        <ele>157.5149</ele>
        <time>2019-11-21T20:33:58Z</time>
      </trkpt>
      <trkpt lat="43.2638594" lon="-2.82595047">
        <ele>157.43396</ele>
        <time>2019-11-21T20:33:59Z</time>
      </trkpt>
      <trkpt lat="43.26378676" lon="-2.82559399">
        <ele>157.74011</ele>
        <time>2019-11-21T20:34:00Z</time>
      </trkpt>
      <trkpt lat="43.26370954" lon="-2.8252291">
        <ele>157.45624</ele>
        <time>2019-11-21T20:34:01Z</time>
      </trkpt>
      <trkpt lat="43.26360921" lon="-2.82487012">
        <ele>156.75842</ele>
        <time>2019-11-21T20:34:03Z</time>
      </trkpt>
      <trkpt lat="43.26351753" lon="-2.82452465">
        <ele>156.77753</ele>
        <time>2019-11-21T20:34:04Z</time>
      </trkpt>
      <trkpt lat="43.26342225" lon="-2.82419017">
        <ele>156.70624</ele>
        <time>2019-11-21T20:34:05Z</time>
      </trkpt>
      <trkpt lat="43.26332330703735" lon="-2.8238511085510254">
        <ele>0.0</ele>
        <time>2019-11-21T20:34:06Z</time>
      </trkpt>
      <trkpt lat="43.262770771980286" lon="-2.8208792209625244">
        <ele>159.49817</ele>
        <time>2019-11-21T20:34:15Z</time>
      </trkpt>
      <trkpt lat="43.26272991" lon="-2.82045175">
        <ele>158.36377</ele>
        <time>2019-11-21T20:34:16Z</time>
      </trkpt>
      <trkpt lat="43.26274454" lon="-2.82015277">
        <ele>157.9693</ele>
        <time>2019-11-21T20:34:17Z</time>
      </trkpt>
      <trkpt lat="43.26274159" lon="-2.8198342">
        <ele>157.20654</ele>
        <time>2019-11-21T20:34:18Z</time>
      </trkpt>
      <trkpt lat="43.26274689" lon="-2.81950466">
        <ele>155.74457</ele>
        <time>2019-11-21T20:34:19Z</time>
      </trkpt>
      <trkpt lat="43.26274575" lon="-2.81915452">
        <ele>156.6128</ele>
        <time>2019-11-21T20:34:20Z</time>
      </trkpt>
      <trkpt lat="43.26273768" lon="-2.81879551">
        <ele>155.4682</ele>
        <time>2019-11-21T20:34:21Z</time>
      </trkpt>
      <trkpt lat="43.2627927" lon="-2.81818141">
        <ele>153.74927</ele>
        <time>2019-11-21T20:34:22Z</time>
      </trkpt>
      <trkpt lat="43.26279008" lon="-2.81786929">
        <ele>153.69879</ele>
        <time>2019-11-21T20:34:23Z</time>
      </trkpt>
      <trkpt lat="43.26277878" lon="-2.81746254">
        <ele>153.93317</ele>
        <time>2019-11-21T20:34:24Z</time>
      </trkpt>
      <trkpt lat="43.26276813" lon="-2.81715895">
        <ele>153.7024</ele>
        <time>2019-11-21T20:34:25Z</time>
      </trkpt>
      <trkpt lat="43.2627421" lon="-2.81681962">
        <ele>152.48541</ele>
        <time>2019-11-21T20:34:26Z</time>
      </trkpt>
      <trkpt lat="43.26270415" lon="-2.81645507">
        <ele>153.02368</ele>
        <time>2019-11-21T20:34:27Z</time>
      </trkpt>
      <trkpt lat="43.26260751" lon="-2.81618832">
        <ele>148.11322</ele>
        <time>2019-11-21T20:34:28Z</time>
      </trkpt>
      <trkpt lat="43.26254807" lon="-2.81600467">
        <ele>144.7323</ele>
        <time>2019-11-21T20:34:29Z</time>
      </trkpt>
      <trkpt lat="43.26248793" lon="-2.81579637">
        <ele>143.27417</ele>
        <time>2019-11-21T20:34:30Z</time>
      </trkpt>
      <trkpt lat="43.26243116" lon="-2.81557914">
        <ele>142.77405</ele>
        <time>2019-11-21T20:34:31Z</time>
      </trkpt>
      <trkpt lat="43.26230518" lon="-2.81510445">
        <ele>140.8623</ele>
        <time>2019-11-21T20:34:32Z</time>
      </trkpt>
      <trkpt lat="43.26226788" lon="-2.81488142">
        <ele>141.29059</ele>
        <time>2019-11-21T20:34:33Z</time>
      </trkpt>
      <trkpt lat="43.26214337" lon="-2.81448965">
        <ele>138.33014</ele>
        <time>2019-11-21T20:34:35Z</time>
      </trkpt>
      <trkpt lat="43.26207315" lon="-2.81407409">
        <ele>131.39258</ele>
        <time>2019-11-21T20:34:37Z</time>
      </trkpt>
      <trkpt lat="43.26196052" lon="-2.81375253">
        <ele>132.26129</ele>
        <time>2019-11-21T20:34:38Z</time>
      </trkpt>
      <trkpt lat="43.26187247" lon="-2.81345306">
        <ele>131.78064</ele>
        <time>2019-11-21T20:34:39Z</time>
      </trkpt>
      <trkpt lat="43.26176737" lon="-2.8132187">
        <ele>130.52539</ele>
        <time>2019-11-21T20:34:40Z</time>
      </trkpt>
      <trkpt lat="43.26164081" lon="-2.81292069">
        <ele>130.97284</ele>
        <time>2019-11-21T20:34:41Z</time>
      </trkpt>
      <trkpt lat="43.26152784" lon="-2.81266561">
        <ele>130.43109</ele>
        <time>2019-11-21T20:34:42Z</time>
      </trkpt>
      <trkpt lat="43.26140355" lon="-2.81239894">
        <ele>129.3482</ele>
        <time>2019-11-21T20:34:43Z</time>
      </trkpt>
      <trkpt lat="43.26125497" lon="-2.81214968">
        <ele>128.41705</ele>
        <time>2019-11-21T20:34:44Z</time>
      </trkpt>
      <trkpt lat="43.26110289" lon="-2.81189121">
        <ele>128.20825</ele>
        <time>2019-11-21T20:34:45Z</time>
      </trkpt>
      <trkpt lat="43.2609486" lon="-2.81167414">
        <ele>126.47302</ele>
        <time>2019-11-21T20:34:46Z</time>
      </trkpt>
      <trkpt lat="43.26078247" lon="-2.81139635">
        <ele>124.61725</ele>
        <time>2019-11-21T20:34:47Z</time>
      </trkpt>
      <trkpt lat="43.2606218" lon="-2.81114752">
        <ele>124.91632</ele>
        <time>2019-11-21T20:34:48Z</time>
      </trkpt>
      <trkpt lat="43.26045128" lon="-2.81088194">
        <ele>126.65216</ele>
        <time>2019-11-21T20:34:49Z</time>
      </trkpt>
      <trkpt lat="43.2602628" lon="-2.8106179">
        <ele>126.441895</ele>
        <time>2019-11-21T20:34:50Z</time>
      </trkpt>
      <trkpt lat="43.2600692" lon="-2.81036645">
        <ele>126.37799</ele>
        <time>2019-11-21T20:34:51Z</time>
      </trkpt>
      <trkpt lat="43.25966976" lon="-2.80994373">
        <ele>117.803955</ele>
        <time>2019-11-21T20:34:52Z</time>
      </trkpt>
      <trkpt lat="43.25944312" lon="-2.80971543">
        <ele>118.37988</ele>
        <time>2019-11-21T20:34:53Z</time>
      </trkpt>
      <trkpt lat="43.25925261" lon="-2.80955398">
        <ele>118.82654</ele>
        <time>2019-11-21T20:34:54Z</time>
      </trkpt>
      <trkpt lat="43.25903987" lon="-2.80932072">
        <ele>120.08606</ele>
        <time>2019-11-21T20:34:55Z</time>
      </trkpt>
      <trkpt lat="43.25879927" lon="-2.80910853">
        <ele>124.558105</ele>
        <time>2019-11-21T20:34:56Z</time>
      </trkpt>
      <trkpt lat="43.25835712" lon="-2.8087587">
        <ele>125.727234</ele>
        <time>2019-11-21T20:34:58Z</time>
      </trkpt>
      <trkpt lat="43.25813662" lon="-2.80859584">
        <ele>125.216064</ele>
        <time>2019-11-21T20:34:59Z</time>
      </trkpt>
      <trkpt lat="43.2579069" lon="-2.80844668">
        <ele>126.035095</ele>
        <time>2019-11-21T20:35:00Z</time>
      </trkpt>
      <trkpt lat="43.25767201" lon="-2.80828335">
        <ele>126.53369</ele>
        <time>2019-11-21T20:35:01Z</time>
      </trkpt>
      <trkpt lat="43.25744236" lon="-2.8081308">
        <ele>127.50549</ele>
        <time>2019-11-21T20:35:02Z</time>
      </trkpt>
      <trkpt lat="43.25721108" lon="-2.80797991">
        <ele>127.448425</ele>
        <time>2019-11-21T20:35:04Z</time>
      </trkpt>
      <trkpt lat="43.25699517" lon="-2.80784879">
        <ele>127.306335</ele>
        <time>2019-11-21T20:35:05Z</time>
      </trkpt>
      <trkpt lat="43.25675922" lon="-2.80767743">
        <ele>126.920715</ele>
        <time>2019-11-21T20:35:06Z</time>
      </trkpt>
      <trkpt lat="43.25652399" lon="-2.80748936">
        <ele>126.75885</ele>
        <time>2019-11-21T20:35:07Z</time>
      </trkpt>
      <trkpt lat="43.25628511" lon="-2.80734837">
        <ele>126.8042</ele>
        <time>2019-11-21T20:35:08Z</time>
      </trkpt>
      <trkpt lat="43.25605714" lon="-2.80718484">
        <ele>127.20361</ele>
        <time>2019-11-21T20:35:09Z</time>
      </trkpt>
      <trkpt lat="43.25583324" lon="-2.80702465">
        <ele>127.37689</ele>
        <time>2019-11-21T20:35:10Z</time>
      </trkpt>
      <trkpt lat="43.2556245" lon="-2.8068919">
        <ele>127.4306</ele>
        <time>2019-11-21T20:35:11Z</time>
      </trkpt>
      <trkpt lat="43.25540319" lon="-2.80674918">
        <ele>127.79584</ele>
        <time>2019-11-21T20:35:12Z</time>
      </trkpt>
      <trkpt lat="43.2551792" lon="-2.80657516">
        <ele>127.89905</ele>
        <time>2019-11-21T20:35:13Z</time>
      </trkpt>
      <trkpt lat="43.2549473" lon="-2.80642522">
        <ele>127.5614</ele>
        <time>2019-11-21T20:35:14Z</time>
      </trkpt>
      <trkpt lat="43.25470786" lon="-2.80625753">
        <ele>128.14081</ele>
        <time>2019-11-21T20:35:15Z</time>
      </trkpt>
      <trkpt lat="43.25447509" lon="-2.80611642">
        <ele>126.83069</ele>
        <time>2019-11-21T20:35:16Z</time>
      </trkpt>
      <trkpt lat="43.25403102" lon="-2.80576792">
        <ele>126.70276</ele>
        <time>2019-11-21T20:35:17Z</time>
      </trkpt>
      <trkpt lat="43.25380616" lon="-2.80558831">
        <ele>126.98505</ele>
        <time>2019-11-21T20:35:18Z</time>
      </trkpt>
      <trkpt lat="43.25356661" lon="-2.8054515">
        <ele>125.74591</ele>
        <time>2019-11-21T20:35:19Z</time>
      </trkpt>
      <trkpt lat="43.2533462" lon="-2.8052623">
        <ele>124.46332</ele>
        <time>2019-11-21T20:35:20Z</time>
      </trkpt>
      <trkpt lat="43.25310525" lon="-2.8050799">
        <ele>124.35614</ele>
        <time>2019-11-21T20:35:21Z</time>
      </trkpt>
      <trkpt lat="43.25288462" lon="-2.80489696">
        <ele>123.89435</ele>
        <time>2019-11-21T20:35:22Z</time>
      </trkpt>
      <trkpt lat="43.25243308" lon="-2.8044982">
        <ele>122.92792</ele>
        <time>2019-11-21T20:35:24Z</time>
      </trkpt>
      <trkpt lat="43.25219974" lon="-2.804323">
        <ele>122.43976</ele>
        <time>2019-11-21T20:35:25Z</time>
      </trkpt>
      <trkpt lat="43.251969" lon="-2.80414134">
        <ele>121.17609</ele>
        <time>2019-11-21T20:35:27Z</time>
      </trkpt>
      <trkpt lat="43.25173015" lon="-2.80395669">
        <ele>119.21576</ele>
        <time>2019-11-21T20:35:28Z</time>
      </trkpt>
      <trkpt lat="43.25149272" lon="-2.8038022">
        <ele>119.7124</ele>
        <time>2019-11-21T20:35:29Z</time>
      </trkpt>
      <trkpt lat="43.25125952" lon="-2.80363438">
        <ele>118.62512</ele>
        <time>2019-11-21T20:35:30Z</time>
      </trkpt>
      <trkpt lat="43.25102914" lon="-2.80350854">
        <ele>119.44751</ele>
        <time>2019-11-21T20:35:31Z</time>
      </trkpt>
      <trkpt lat="43.25078658" lon="-2.80341522">
        <ele>119.25403</ele>
        <time>2019-11-21T20:35:32Z</time>
      </trkpt>
      <trkpt lat="43.25054795" lon="-2.80333116">
        <ele>118.98132</ele>
        <time>2019-11-21T20:35:33Z</time>
      </trkpt>
      <trkpt lat="43.25029003" lon="-2.80327873">
        <ele>118.805115</ele>
        <time>2019-11-21T20:35:34Z</time>
      </trkpt>
      <trkpt lat="43.25005368" lon="-2.80323997">
        <ele>118.40387</ele>
        <time>2019-11-21T20:35:35Z</time>
      </trkpt>
      <trkpt lat="43.24980593" lon="-2.80319687">
        <ele>118.27307</ele>
        <time>2019-11-21T20:35:36Z</time>
      </trkpt>
      <trkpt lat="43.24956089" lon="-2.80317519">
        <ele>118.043396</ele>
        <time>2019-11-21T20:35:37Z</time>
      </trkpt>
      <trkpt lat="43.24932694" lon="-2.80317832">
        <ele>117.64551</ele>
        <time>2019-11-21T20:35:38Z</time>
      </trkpt>
      <trkpt lat="43.24906824" lon="-2.80315195">
        <ele>117.66553</ele>
        <time>2019-11-21T20:35:39Z</time>
      </trkpt>
      <trkpt lat="43.24882499" lon="-2.80316788">
        <ele>117.89807</ele>
        <time>2019-11-21T20:35:40Z</time>
      </trkpt>
      <trkpt lat="43.24828037" lon="-2.80327287">
        <ele>117.335815</ele>
        <time>2019-11-21T20:35:41Z</time>
      </trkpt>
      <trkpt lat="43.24804886" lon="-2.80339179">
        <ele>117.685425</ele>
        <time>2019-11-21T20:35:42Z</time>
      </trkpt>
      <trkpt lat="43.24772674" lon="-2.80345389">
        <ele>116.71533</ele>
        <time>2019-11-21T20:35:43Z</time>
      </trkpt>
      <trkpt lat="43.24755287" lon="-2.80347928">
        <ele>116.8385</ele>
        <time>2019-11-21T20:35:44Z</time>
      </trkpt>
      <trkpt lat="43.24731586" lon="-2.80353039">
        <ele>116.99078</ele>
        <time>2019-11-21T20:35:45Z</time>
      </trkpt>
      <trkpt lat="43.24705189" lon="-2.80358619">
        <ele>121.85889</ele>
        <time>2019-11-21T20:35:46Z</time>
      </trkpt>
      <trkpt lat="43.24679237" lon="-2.80360493">
        <ele>121.36145</ele>
        <time>2019-11-21T20:35:47Z</time>
      </trkpt>
      <trkpt lat="43.24656974" lon="-2.80360611">
        <ele>120.67755</ele>
        <time>2019-11-21T20:35:49Z</time>
      </trkpt>
      <trkpt lat="43.24635605" lon="-2.8036371">
        <ele>118.579956</ele>
        <time>2019-11-21T20:35:50Z</time>
      </trkpt>
      <trkpt lat="43.24609117" lon="-2.80361308">
        <ele>118.771545</ele>
        <time>2019-11-21T20:35:51Z</time>
      </trkpt>
      <trkpt lat="43.24586444" lon="-2.80356522">
        <ele>119.66467</ele>
        <time>2019-11-21T20:35:52Z</time>
      </trkpt>
      <trkpt lat="43.24560958" lon="-2.80354506">
        <ele>118.95416</ele>
        <time>2019-11-21T20:35:53Z</time>
      </trkpt>
      <trkpt lat="43.24535944" lon="-2.8035384">
        <ele>118.53784</ele>
        <time>2019-11-21T20:35:54Z</time>
      </trkpt>
      <trkpt lat="43.24511474" lon="-2.80349936">
        <ele>117.28894</ele>
        <time>2019-11-21T20:35:55Z</time>
      </trkpt>
      <trkpt lat="43.24486084" lon="-2.80340995">
        <ele>118.648926</ele>
        <time>2019-11-21T20:35:56Z</time>
      </trkpt>
      <trkpt lat="43.24462902" lon="-2.80332665">
        <ele>118.64392</ele>
        <time>2019-11-21T20:35:57Z</time>
      </trkpt>
      <trkpt lat="43.24433014" lon="-2.80329455">
        <ele>121.983154</ele>
        <time>2019-11-21T20:35:58Z</time>
      </trkpt>
      <trkpt lat="43.24405986" lon="-2.80318092">
        <ele>121.79047</ele>
        <time>2019-11-21T20:35:59Z</time>
      </trkpt>
      <trkpt lat="43.24379432" lon="-2.80306731">
        <ele>121.56976</ele>
        <time>2019-11-21T20:36:00Z</time>
      </trkpt>
      <trkpt lat="43.24356298" lon="-2.80293369">
        <ele>121.01605</ele>
        <time>2019-11-21T20:36:01Z</time>
      </trkpt>
      <trkpt lat="43.24307157" lon="-2.80264369">
        <ele>119.55066</ele>
        <time>2019-11-21T20:36:02Z</time>
      </trkpt>
      <trkpt lat="43.24280177" lon="-2.80253143">
        <ele>119.71759</ele>
        <time>2019-11-21T20:36:03Z</time>
      </trkpt>
      <trkpt lat="43.24253878" lon="-2.80242574">
        <ele>120.0625</ele>
        <time>2019-11-21T20:36:04Z</time>
      </trkpt>
      <trkpt lat="43.2422732" lon="-2.80234995">
        <ele>118.85309</ele>
        <time>2019-11-21T20:36:05Z</time>
      </trkpt>
      <trkpt lat="43.2420083" lon="-2.80225849">
        <ele>118.430786</ele>
        <time>2019-11-21T20:36:06Z</time>
      </trkpt>
      <trkpt lat="43.2417413" lon="-2.80218103">
        <ele>117.83191</ele>
        <time>2019-11-21T20:36:07Z</time>
      </trkpt>
      <trkpt lat="43.24146464" lon="-2.80211057">
        <ele>117.122925</ele>
        <time>2019-11-21T20:36:08Z</time>
      </trkpt>
      <trkpt lat="43.24121679" lon="-2.80211112">
        <ele>117.01965</ele>
        <time>2019-11-21T20:36:09Z</time>
      </trkpt>
      <trkpt lat="43.24099623" lon="-2.80212257">
        <ele>115.4541</ele>
        <time>2019-11-21T20:36:10Z</time>
      </trkpt>
      <trkpt lat="43.24073727" lon="-2.80211549">
        <ele>115.39838</ele>
        <time>2019-11-21T20:36:11Z</time>
      </trkpt>
      <trkpt lat="43.24046074" lon="-2.80214703">
        <ele>115.62341</ele>
        <time>2019-11-21T20:36:13Z</time>
      </trkpt>
      <trkpt lat="43.24019086" lon="-2.80217408">
        <ele>115.47754</ele>
        <time>2019-11-21T20:36:14Z</time>
      </trkpt>
      <trkpt lat="43.23992354" lon="-2.80221939">
        <ele>115.231445</ele>
        <time>2019-11-21T20:36:15Z</time>
      </trkpt>
      <trkpt lat="43.23966762" lon="-2.80225737">
        <ele>115.43231</ele>
        <time>2019-11-21T20:36:16Z</time>
      </trkpt>
      <trkpt lat="43.23941341" lon="-2.80228662">
        <ele>115.32672</ele>
        <time>2019-11-21T20:36:17Z</time>
      </trkpt>
      <trkpt lat="43.23916542" lon="-2.80228422">
        <ele>115.38721</ele>
        <time>2019-11-21T20:36:18Z</time>
      </trkpt>
      <trkpt lat="43.23890981" lon="-2.8023348">
        <ele>115.17517</ele>
        <time>2019-11-21T20:36:19Z</time>
      </trkpt>
      <trkpt lat="43.2386575" lon="-2.80238735">
        <ele>115.81915</ele>
        <time>2019-11-21T20:36:20Z</time>
      </trkpt>
      <trkpt lat="43.23841863" lon="-2.80237418">
        <ele>116.58154</ele>
        <time>2019-11-21T20:36:21Z</time>
      </trkpt>
      <trkpt lat="43.23817503" lon="-2.8023544">
        <ele>116.41748</ele>
        <time>2019-11-21T20:36:22Z</time>
      </trkpt>
      <trkpt lat="43.23794571" lon="-2.80234336">
        <ele>117.69696</ele>
        <time>2019-11-21T20:36:23Z</time>
      </trkpt>
      <trkpt lat="43.23773472" lon="-2.80228651">
        <ele>117.50781</ele>
        <time>2019-11-21T20:36:24Z</time>
      </trkpt>
      <trkpt lat="43.23753301" lon="-2.80222619">
        <ele>116.53912</ele>
        <time>2019-11-21T20:36:25Z</time>
      </trkpt>
      <trkpt lat="43.23707395" lon="-2.80210951">
        <ele>116.35797</ele>
        <time>2019-11-21T20:36:26Z</time>
      </trkpt>
      <trkpt lat="43.23690022" lon="-2.80200801">
        <ele>115.933716</ele>
        <time>2019-11-21T20:36:27Z</time>
      </trkpt>
      <trkpt lat="43.23673447" lon="-2.80192057">
        <ele>115.353455</ele>
        <time>2019-11-21T20:36:28Z</time>
      </trkpt>
      <trkpt lat="43.23656746" lon="-2.80180839">
        <ele>115.68378</ele>
        <time>2019-11-21T20:36:29Z</time>
      </trkpt>
      <trkpt lat="43.23642648" lon="-2.80166673">
        <ele>115.66589</ele>
        <time>2019-11-21T20:36:30Z</time>
      </trkpt>
      <trkpt lat="43.23624639" lon="-2.80150402">
        <ele>116.12048</ele>
        <time>2019-11-21T20:36:31Z</time>
      </trkpt>
      <trkpt lat="43.23610003" lon="-2.80132223">
        <ele>117.38098</ele>
        <time>2019-11-21T20:36:32Z</time>
      </trkpt>
      <trkpt lat="43.23598551" lon="-2.80113197">
        <ele>117.393005</ele>
        <time>2019-11-21T20:36:33Z</time>
      </trkpt>
      <trkpt lat="43.23590066" lon="-2.80088023">
        <ele>117.69092</ele>
        <time>2019-11-21T20:36:34Z</time>
      </trkpt>
      <trkpt lat="43.23577868" lon="-2.80067302">
        <ele>117.72864</ele>
        <time>2019-11-21T20:36:35Z</time>
      </trkpt>
      <trkpt lat="43.23565858" lon="-2.80046355">
        <ele>118.002686</ele>
        <time>2019-11-21T20:36:37Z</time>
      </trkpt>
      <trkpt lat="43.23558574" lon="-2.8002208">
        <ele>116.82715</ele>
        <time>2019-11-21T20:36:38Z</time>
      </trkpt>
      <trkpt lat="43.23544841" lon="-2.80000489">
        <ele>117.290344</ele>
        <time>2019-11-21T20:36:39Z</time>
      </trkpt>
      <trkpt lat="43.23535193" lon="-2.79972501">
        <ele>115.61627</ele>
        <time>2019-11-21T20:36:40Z</time>
      </trkpt>
      <trkpt lat="43.23525693" lon="-2.79945345">
        <ele>114.19458</ele>
        <time>2019-11-21T20:36:41Z</time>
      </trkpt>
      <trkpt lat="43.23516178" lon="-2.79920286">
        <ele>114.490295</ele>
        <time>2019-11-21T20:36:42Z</time>
      </trkpt>
      <trkpt lat="43.23508415" lon="-2.79894853">
        <ele>114.64368</ele>
        <time>2019-11-21T20:36:43Z</time>
      </trkpt>
      <trkpt lat="43.23498224" lon="-2.79872616">
        <ele>116.26288</ele>
        <time>2019-11-21T20:36:44Z</time>
      </trkpt>
      <trkpt lat="43.23488263" lon="-2.79848607">
        <ele>116.80603</ele>
        <time>2019-11-21T20:36:45Z</time>
      </trkpt>
      <trkpt lat="43.23480096" lon="-2.7982214">
        <ele>116.63855</ele>
        <time>2019-11-21T20:36:46Z</time>
      </trkpt>
      <trkpt lat="43.23470997" lon="-2.79799997">
        <ele>117.61572</ele>
        <time>2019-11-21T20:36:47Z</time>
      </trkpt>
      <trkpt lat="43.23459036" lon="-2.79775377">
        <ele>117.37671</ele>
        <time>2019-11-21T20:36:48Z</time>
      </trkpt>
      <trkpt lat="43.23447956" lon="-2.79755215">
        <ele>117.37225</ele>
        <time>2019-11-21T20:36:49Z</time>
      </trkpt>
      <trkpt lat="43.23427387" lon="-2.79705081">
        <ele>117.82092</ele>
        <time>2019-11-21T20:36:50Z</time>
      </trkpt>
      <trkpt lat="43.23415924" lon="-2.79681186">
        <ele>119.02026</ele>
        <time>2019-11-21T20:36:51Z</time>
      </trkpt>
      <trkpt lat="43.2340475" lon="-2.79659061">
        <ele>120.26575</ele>
        <time>2019-11-21T20:36:52Z</time>
      </trkpt>
      <trkpt lat="43.23392814" lon="-2.79634792">
        <ele>120.30719</ele>
        <time>2019-11-21T20:36:53Z</time>
      </trkpt>
      <trkpt lat="43.23384127" lon="-2.79607441">
        <ele>119.97681</ele>
        <time>2019-11-21T20:36:54Z</time>
      </trkpt>
      <trkpt lat="43.2337209" lon="-2.79578876">
        <ele>119.721924</ele>
        <time>2019-11-21T20:36:55Z</time>
      </trkpt>
      <trkpt lat="43.23361177" lon="-2.7955045">
        <ele>120.19769</ele>
        <time>2019-11-21T20:36:56Z</time>
      </trkpt>
      <trkpt lat="43.23351171" lon="-2.79523608">
        <ele>120.42755</ele>
        <time>2019-11-21T20:36:57Z</time>
      </trkpt>
      <trkpt lat="43.23339328" lon="-2.7949787">
        <ele>120.45447</ele>
        <time>2019-11-21T20:36:58Z</time>
      </trkpt>
      <trkpt lat="43.23327535" lon="-2.79469656">
        <ele>119.64325</ele>
        <time>2019-11-21T20:36:59Z</time>
      </trkpt>
      <trkpt lat="43.23317247" lon="-2.79440757">
        <ele>119.20227</ele>
        <time>2019-11-21T20:37:01Z</time>
      </trkpt>
      <trkpt lat="43.23307203" lon="-2.79420101">
        <ele>120.38678</ele>
        <time>2019-11-21T20:37:02Z</time>
      </trkpt>
      <trkpt lat="43.23297175" lon="-2.79391076">
        <ele>119.87439</ele>
        <time>2019-11-21T20:37:03Z</time>
      </trkpt>
      <trkpt lat="43.23286995" lon="-2.79365516">
        <ele>119.3974</ele>
        <time>2019-11-21T20:37:04Z</time>
      </trkpt>
      <trkpt lat="43.23275921" lon="-2.79340399">
        <ele>119.55762</ele>
        <time>2019-11-21T20:37:05Z</time>
      </trkpt>
      <trkpt lat="43.23267099" lon="-2.79309297">
        <ele>119.22406</ele>
        <time>2019-11-21T20:37:06Z</time>
      </trkpt>
      <trkpt lat="43.23256175" lon="-2.79278907">
        <ele>118.695435</ele>
        <time>2019-11-21T20:37:07Z</time>
      </trkpt>
      <trkpt lat="43.23245325" lon="-2.79252202">
        <ele>119.105896</ele>
        <time>2019-11-21T20:37:08Z</time>
      </trkpt>
      <trkpt lat="43.23234166" lon="-2.79223252">
        <ele>119.079895</ele>
        <time>2019-11-21T20:37:09Z</time>
      </trkpt>
      <trkpt lat="43.23224465" lon="-2.79195144">
        <ele>119.02698</ele>
        <time>2019-11-21T20:37:10Z</time>
      </trkpt>
      <trkpt lat="43.23213552" lon="-2.79161242">
        <ele>119.26111</ele>
        <time>2019-11-21T20:37:11Z</time>
      </trkpt>
      <trkpt lat="43.23202226" lon="-2.79125303">
        <ele>121.053406</ele>
        <time>2019-11-21T20:37:12Z</time>
      </trkpt>
      <trkpt lat="43.23193452" lon="-2.79090612">
        <ele>120.9541</ele>
        <time>2019-11-21T20:37:13Z</time>
      </trkpt>
      <trkpt lat="43.23177261" lon="-2.79025852">
        <ele>123.38013</ele>
        <time>2019-11-21T20:37:14Z</time>
      </trkpt>
      <trkpt lat="43.23171294" lon="-2.78989197">
        <ele>124.50964</ele>
        <time>2019-11-21T20:37:15Z</time>
      </trkpt>
      <trkpt lat="43.23166647" lon="-2.78955855">
        <ele>124.51648</ele>
        <time>2019-11-21T20:37:16Z</time>
      </trkpt>
      <trkpt lat="43.23162654" lon="-2.78923585">
        <ele>125.041626</ele>
        <time>2019-11-21T20:37:17Z</time>
      </trkpt>
      <trkpt lat="43.23159131" lon="-2.78889821">
        <ele>124.55359</ele>
        <time>2019-11-21T20:37:18Z</time>
      </trkpt>
      <trkpt lat="43.23156817" lon="-2.78858065">
        <ele>124.81537</ele>
        <time>2019-11-21T20:37:19Z</time>
      </trkpt>
      <trkpt lat="43.23154893" lon="-2.78825628">
        <ele>125.21094</ele>
        <time>2019-11-21T20:37:20Z</time>
      </trkpt>
      <trkpt lat="43.23151987" lon="-2.78787926">
        <ele>125.93927</ele>
        <time>2019-11-21T20:37:21Z</time>
      </trkpt>
      <trkpt lat="43.2315227" lon="-2.78748732">
        <ele>125.46747</ele>
        <time>2019-11-21T20:37:22Z</time>
      </trkpt>
      <trkpt lat="43.23151435" lon="-2.7871627">
        <ele>126.13306</ele>
        <time>2019-11-21T20:37:24Z</time>
      </trkpt>
      <trkpt lat="43.23150614" lon="-2.78683159">
        <ele>126.27527</ele>
        <time>2019-11-21T20:37:25Z</time>
      </trkpt>
      <trkpt lat="43.23149384" lon="-2.78647957">
        <ele>125.83478</ele>
        <time>2019-11-21T20:37:26Z</time>
      </trkpt>
      <trkpt lat="43.23147805" lon="-2.78610425">
        <ele>125.55969</ele>
        <time>2019-11-21T20:37:27Z</time>
      </trkpt>
      <trkpt lat="43.23148111" lon="-2.78575925">
        <ele>125.33002</ele>
        <time>2019-11-21T20:37:28Z</time>
      </trkpt>
      <trkpt lat="43.23148818" lon="-2.785419">
        <ele>125.34033</ele>
        <time>2019-11-21T20:37:29Z</time>
      </trkpt>
      <trkpt lat="43.23148094" lon="-2.78507172">
        <ele>125.23816</ele>
        <time>2019-11-21T20:37:30Z</time>
      </trkpt>
      <trkpt lat="43.23148595" lon="-2.78474358">
        <ele>125.344604</ele>
        <time>2019-11-21T20:37:31Z</time>
      </trkpt>
      <trkpt lat="43.23148652" lon="-2.78440359">
        <ele>125.333984</ele>
        <time>2019-11-21T20:37:32Z</time>
      </trkpt>
      <trkpt lat="43.23149766" lon="-2.78403864">
        <ele>125.30774</ele>
        <time>2019-11-21T20:37:33Z</time>
      </trkpt>
      <trkpt lat="43.23150627" lon="-2.78369592">
        <ele>125.231384</ele>
        <time>2019-11-21T20:37:34Z</time>
      </trkpt>
      <trkpt lat="43.2315259" lon="-2.78330652">
        <ele>124.420654</ele>
        <time>2019-11-21T20:37:35Z</time>
      </trkpt>
      <trkpt lat="43.23153679" lon="-2.782975">
        <ele>123.768555</ele>
        <time>2019-11-21T20:37:36Z</time>
      </trkpt>
      <trkpt lat="43.23155284" lon="-2.78264128">
        <ele>123.65631</ele>
        <time>2019-11-21T20:37:37Z</time>
      </trkpt>
      <trkpt lat="43.23161976" lon="-2.78193322">
        <ele>124.72839</ele>
        <time>2019-11-21T20:37:38Z</time>
      </trkpt>
      <trkpt lat="43.23164721" lon="-2.78164514">
        <ele>125.253845</ele>
        <time>2019-11-21T20:37:39Z</time>
      </trkpt>
      <trkpt lat="43.23171691" lon="-2.78126959">
        <ele>123.22095</ele>
        <time>2019-11-21T20:37:40Z</time>
      </trkpt>
      <trkpt lat="43.2317315" lon="-2.78090932">
        <ele>124.86597</ele>
        <time>2019-11-21T20:37:41Z</time>
      </trkpt>
      <trkpt lat="43.23178528" lon="-2.78056828">
        <ele>126.47327</ele>
        <time>2019-11-21T20:37:42Z</time>
      </trkpt>
      <trkpt lat="43.23182594" lon="-2.7802258">
        <ele>126.18787</ele>
        <time>2019-11-21T20:37:43Z</time>
      </trkpt>
      <trkpt lat="43.23185017" lon="-2.77987795">
        <ele>126.588745</ele>
        <time>2019-11-21T20:37:44Z</time>
      </trkpt>
      <trkpt lat="43.23188205" lon="-2.77955974">
        <ele>127.23175</ele>
        <time>2019-11-21T20:37:45Z</time>
      </trkpt>
      <trkpt lat="43.23191534" lon="-2.7792138">
        <ele>127.053345</ele>
        <time>2019-11-21T20:37:46Z</time>
      </trkpt>
      <trkpt lat="43.23193809" lon="-2.77889628">
        <ele>127.475586</ele>
        <time>2019-11-21T20:37:48Z</time>
      </trkpt>
      <trkpt lat="43.231955" lon="-2.77853962">
        <ele>127.41443</ele>
        <time>2019-11-21T20:37:49Z</time>
      </trkpt>
      <trkpt lat="43.23197152" lon="-2.77821603">
        <ele>127.68591</ele>
        <time>2019-11-21T20:37:50Z</time>
      </trkpt>
      <trkpt lat="43.23196337" lon="-2.77785925">
        <ele>127.92383</ele>
        <time>2019-11-21T20:37:51Z</time>
      </trkpt>
      <trkpt lat="43.23194379" lon="-2.777516">
        <ele>127.49243</ele>
        <time>2019-11-21T20:37:52Z</time>
      </trkpt>
      <trkpt lat="43.23191859" lon="-2.77715817">
        <ele>127.4306</ele>
        <time>2019-11-21T20:37:53Z</time>
      </trkpt>
      <trkpt lat="43.2318918" lon="-2.77682558">
        <ele>127.05347</ele>
        <time>2019-11-21T20:37:54Z</time>
      </trkpt>
      <trkpt lat="43.23185629" lon="-2.7764731">
        <ele>127.25549</ele>
        <time>2019-11-21T20:37:55Z</time>
      </trkpt>
      <trkpt lat="43.23181377" lon="-2.77613251">
        <ele>127.266235</ele>
        <time>2019-11-21T20:37:56Z</time>
      </trkpt>
      <trkpt lat="43.23176516" lon="-2.77579939">
        <ele>127.37262</ele>
        <time>2019-11-21T20:37:57Z</time>
      </trkpt>
      <trkpt lat="43.231718" lon="-2.77549135">
        <ele>127.301636</ele>
        <time>2019-11-21T20:37:58Z</time>
      </trkpt>
      <trkpt lat="43.2316544" lon="-2.77519744">
        <ele>127.5885</ele>
        <time>2019-11-21T20:37:59Z</time>
      </trkpt>
      <trkpt lat="43.2315935" lon="-2.77488223">
        <ele>127.88507</ele>
        <time>2019-11-21T20:38:00Z</time>
      </trkpt>
      <trkpt lat="43.2314698" lon="-2.7742778">
        <ele>127.84033</ele>
        <time>2019-11-21T20:38:01Z</time>
      </trkpt>
      <trkpt lat="43.23141028" lon="-2.77394893">
        <ele>127.88721</ele>
        <time>2019-11-21T20:38:02Z</time>
      </trkpt>
      <trkpt lat="43.23134166" lon="-2.77362236">
        <ele>127.695496</ele>
        <time>2019-11-21T20:38:03Z</time>
      </trkpt>
      <trkpt lat="43.23129903" lon="-2.77331448">
        <ele>127.78357</ele>
        <time>2019-11-21T20:38:04Z</time>
      </trkpt>
      <trkpt lat="43.23128923" lon="-2.77299981">
        <ele>128.11047</ele>
        <time>2019-11-21T20:38:05Z</time>
      </trkpt>
      <trkpt lat="43.23124555" lon="-2.77265484">
        <ele>128.6908</ele>
        <time>2019-11-21T20:38:06Z</time>
      </trkpt>
      <trkpt lat="43.23121335" lon="-2.77231187">
        <ele>129.45544</ele>
        <time>2019-11-21T20:38:07Z</time>
      </trkpt>
      <trkpt lat="43.23119954" lon="-2.77199932">
        <ele>129.55225</ele>
        <time>2019-11-21T20:38:08Z</time>
      </trkpt>
      <trkpt lat="43.23119146" lon="-2.77162961">
        <ele>129.43384</ele>
        <time>2019-11-21T20:38:10Z</time>
      </trkpt>
      <trkpt lat="43.23118669" lon="-2.77128685">
        <ele>129.29639</ele>
        <time>2019-11-21T20:38:11Z</time>
      </trkpt>
      <trkpt lat="43.23119906" lon="-2.7709209">
        <ele>129.59448</ele>
        <time>2019-11-21T20:38:12Z</time>
      </trkpt>
      <trkpt lat="43.23120286" lon="-2.77057754">
        <ele>130.67139</ele>
        <time>2019-11-21T20:38:13Z</time>
      </trkpt>
      <trkpt lat="43.23121436" lon="-2.77025081">
        <ele>131.59058</ele>
        <time>2019-11-21T20:38:14Z</time>
      </trkpt>
      <trkpt lat="43.23124531" lon="-2.76991336">
        <ele>131.08704</ele>
        <time>2019-11-21T20:38:15Z</time>
      </trkpt>
      <trkpt lat="43.23130162" lon="-2.76953324">
        <ele>126.40442</ele>
        <time>2019-11-21T20:38:16Z</time>
      </trkpt>
      <trkpt lat="43.23132256" lon="-2.76919781">
        <ele>125.037476</ele>
        <time>2019-11-21T20:38:17Z</time>
      </trkpt>
      <trkpt lat="43.23134667" lon="-2.76886183">
        <ele>125.339355</ele>
        <time>2019-11-21T20:38:18Z</time>
      </trkpt>
      <trkpt lat="43.2313591" lon="-2.76852073">
        <ele>125.457214</ele>
        <time>2019-11-21T20:38:19Z</time>
      </trkpt>
      <trkpt lat="43.2313514" lon="-2.7681708">
        <ele>125.10254</ele>
        <time>2019-11-21T20:38:20Z</time>
      </trkpt>
      <trkpt lat="43.23135064" lon="-2.76781683">
        <ele>126.21588</ele>
        <time>2019-11-21T20:38:21Z</time>
      </trkpt>
      <trkpt lat="43.23133261" lon="-2.76712105">
        <ele>127.00592</ele>
        <time>2019-11-21T20:38:22Z</time>
      </trkpt>
      <trkpt lat="43.23129065" lon="-2.76676142">
        <ele>127.49927</ele>
        <time>2019-11-21T20:38:23Z</time>
      </trkpt>
      <trkpt lat="43.23126034" lon="-2.76641648">
        <ele>127.4671</ele>
        <time>2019-11-21T20:38:24Z</time>
      </trkpt>
      <trkpt lat="43.23123551" lon="-2.76607466">
        <ele>128.8877</ele>
        <time>2019-11-21T20:38:25Z</time>
      </trkpt>
      <trkpt lat="43.23118406" lon="-2.76570645">
        <ele>133.01111</ele>
        <time>2019-11-21T20:38:26Z</time>
      </trkpt>
      <trkpt lat="43.23114778" lon="-2.76538219">
        <ele>134.9884</ele>
        <time>2019-11-21T20:38:27Z</time>
      </trkpt>
      <trkpt lat="43.23110868" lon="-2.76507166">
        <ele>134.46545</ele>
        <time>2019-11-21T20:38:28Z</time>
      </trkpt>
      <trkpt lat="43.23106213" lon="-2.76473246">
        <ele>133.7243</ele>
        <time>2019-11-21T20:38:29Z</time>
      </trkpt>
      <trkpt lat="43.23103188" lon="-2.76441077">
        <ele>132.08466</ele>
        <time>2019-11-21T20:38:30Z</time>
      </trkpt>
      <trkpt lat="43.23099852" lon="-2.76406541">
        <ele>132.07422</ele>
        <time>2019-11-21T20:38:31Z</time>
      </trkpt>
      <trkpt lat="43.23097021" lon="-2.76369793">
        <ele>135.44629</ele>
        <time>2019-11-21T20:38:32Z</time>
      </trkpt>
      <trkpt lat="43.23094512" lon="-2.76339125">
        <ele>133.7124</ele>
        <time>2019-11-21T20:38:34Z</time>
      </trkpt>
      <trkpt lat="43.23092642" lon="-2.76302743">
        <ele>137.93304</ele>
        <time>2019-11-21T20:38:35Z</time>
      </trkpt>
      <trkpt lat="43.23090503" lon="-2.76270492">
        <ele>138.31525</ele>
        <time>2019-11-21T20:38:36Z</time>
      </trkpt>
      <trkpt lat="43.23087087" lon="-2.7623313">
        <ele>140.4314</ele>
        <time>2019-11-21T20:38:37Z</time>
      </trkpt>
      <trkpt lat="43.23085926" lon="-2.76200611">
        <ele>141.09033</ele>
        <time>2019-11-21T20:38:38Z</time>
      </trkpt>
      <trkpt lat="43.23084633" lon="-2.76161982">
        <ele>142.59802</ele>
        <time>2019-11-21T20:38:39Z</time>
      </trkpt>
      <trkpt lat="43.23081939" lon="-2.76122666">
        <ele>142.13855</ele>
        <time>2019-11-21T20:38:40Z</time>
      </trkpt>
      <trkpt lat="43.23080729" lon="-2.76085603">
        <ele>142.18585</ele>
        <time>2019-11-21T20:38:41Z</time>
      </trkpt>
      <trkpt lat="43.23081318" lon="-2.76048434">
        <ele>141.7799</ele>
        <time>2019-11-21T20:38:42Z</time>
      </trkpt>
      <trkpt lat="43.23080434" lon="-2.76008186">
        <ele>142.51733</ele>
        <time>2019-11-21T20:38:43Z</time>
      </trkpt>
      <trkpt lat="43.23081443" lon="-2.75969419">
        <ele>141.36627</ele>
        <time>2019-11-21T20:38:44Z</time>
      </trkpt>
      <trkpt lat="43.2308263" lon="-2.75930374">
        <ele>138.70813</ele>
        <time>2019-11-21T20:38:45Z</time>
      </trkpt>
      <trkpt lat="43.23081318" lon="-2.75893675">
        <ele>139.8761</ele>
        <time>2019-11-21T20:38:46Z</time>
      </trkpt>
      <trkpt lat="43.23082236" lon="-2.75857802">
        <ele>140.59692</ele>
        <time>2019-11-21T20:38:47Z</time>
      </trkpt>
      <trkpt lat="43.23084226" lon="-2.75821846">
        <ele>140.64764</ele>
        <time>2019-11-21T20:38:48Z</time>
      </trkpt>
      <trkpt lat="43.23084576" lon="-2.75742098">
        <ele>140.32489</ele>
        <time>2019-11-21T20:38:49Z</time>
      </trkpt>
      <trkpt lat="43.23085419" lon="-2.75699507">
        <ele>140.10468</ele>
        <time>2019-11-21T20:38:50Z</time>
      </trkpt>
      <trkpt lat="43.23086545" lon="-2.75661042">
        <ele>140.0763</ele>
        <time>2019-11-21T20:38:51Z</time>
      </trkpt>
      <trkpt lat="43.23087443" lon="-2.75623377">
        <ele>139.87305</ele>
        <time>2019-11-21T20:38:52Z</time>
      </trkpt>
      <trkpt lat="43.23088275" lon="-2.75583657">
        <ele>140.66803</ele>
        <time>2019-11-21T20:38:53Z</time>
      </trkpt>
      <trkpt lat="43.23086428" lon="-2.75544496">
        <ele>140.53052</ele>
        <time>2019-11-21T20:38:54Z</time>
      </trkpt>
      <trkpt lat="43.23086219" lon="-2.75504569">
        <ele>140.3031</ele>
        <time>2019-11-21T20:38:55Z</time>
      </trkpt>
      <trkpt lat="43.23085161" lon="-2.75460366">
        <ele>144.78839</ele>
        <time>2019-11-21T20:38:56Z</time>
      </trkpt>
      <trkpt lat="43.23084218" lon="-2.75422339">
        <ele>145.20233</ele>
        <time>2019-11-21T20:38:57Z</time>
      </trkpt>
      <trkpt lat="43.23080778" lon="-2.75382973">
        <ele>146.89813</ele>
        <time>2019-11-21T20:38:59Z</time>
      </trkpt>
      <trkpt lat="43.23079919" lon="-2.75360148">
        <ele>139.8794</ele>
        <time>2019-11-21T20:39:00Z</time>
      </trkpt>
      <trkpt lat="43.23075943" lon="-2.75324079">
        <ele>140.05017</ele>
        <time>2019-11-21T20:39:01Z</time>
      </trkpt>
      <trkpt lat="43.23069112" lon="-2.75289819">
        <ele>139.86499</ele>
        <time>2019-11-21T20:39:02Z</time>
      </trkpt>
      <trkpt lat="43.23063191" lon="-2.75253727">
        <ele>139.81073</ele>
        <time>2019-11-21T20:39:03Z</time>
      </trkpt>
      <trkpt lat="43.23054811" lon="-2.7521703">
        <ele>139.78632</ele>
        <time>2019-11-21T20:39:04Z</time>
      </trkpt>
      <trkpt lat="43.23045889" lon="-2.75182276">
        <ele>139.55273</ele>
        <time>2019-11-21T20:39:05Z</time>
      </trkpt>
      <trkpt lat="43.23035386" lon="-2.75145828">
        <ele>139.80835</ele>
        <time>2019-11-21T20:39:06Z</time>
      </trkpt>
      <trkpt lat="43.23024942" lon="-2.75109897">
        <ele>140.66382</ele>
        <time>2019-11-21T20:39:07Z</time>
      </trkpt>
      <trkpt lat="43.23016942" lon="-2.75074647">
        <ele>140.54681</ele>
        <time>2019-11-21T20:39:08Z</time>
      </trkpt>
      <trkpt lat="43.23005447" lon="-2.75034858">
        <ele>140.13885</ele>
        <time>2019-11-21T20:39:09Z</time>
      </trkpt>
      <trkpt lat="43.22992399" lon="-2.75000566">
        <ele>139.65405</ele>
        <time>2019-11-21T20:39:10Z</time>
      </trkpt>
      <trkpt lat="43.22977125" lon="-2.74960994">
        <ele>138.0617</ele>
        <time>2019-11-21T20:39:11Z</time>
      </trkpt>
      <trkpt lat="43.22943022" lon="-2.74895196">
        <ele>138.85767</ele>
        <time>2019-11-21T20:39:12Z</time>
      </trkpt>
      <trkpt lat="43.22925409" lon="-2.74867734">
        <ele>134.7345</ele>
        <time>2019-11-21T20:39:13Z</time>
      </trkpt>
      <trkpt lat="43.22910255" lon="-2.74836386">
        <ele>136.83331</ele>
        <time>2019-11-21T20:39:14Z</time>
      </trkpt>
      <trkpt lat="43.22894316" lon="-2.74808096">
        <ele>134.8689</ele>
        <time>2019-11-21T20:39:15Z</time>
      </trkpt>
      <trkpt lat="43.2287754" lon="-2.74776795">
        <ele>134.64368</ele>
        <time>2019-11-21T20:39:16Z</time>
      </trkpt>
      <trkpt lat="43.22859172" lon="-2.74744713">
        <ele>134.97675</ele>
        <time>2019-11-21T20:39:17Z</time>
      </trkpt>
      <trkpt lat="43.22842477" lon="-2.74715345">
        <ele>134.72577</ele>
        <time>2019-11-21T20:39:18Z</time>
      </trkpt>
      <trkpt lat="43.22825324" lon="-2.74683173">
        <ele>134.67969</ele>
        <time>2019-11-21T20:39:19Z</time>
      </trkpt>
      <trkpt lat="43.22808162" lon="-2.74653987">
        <ele>132.63538</ele>
        <time>2019-11-21T20:39:20Z</time>
      </trkpt>
      <trkpt lat="43.22793198" lon="-2.7462585">
        <ele>132.69202</ele>
        <time>2019-11-21T20:39:21Z</time>
      </trkpt>
      <trkpt lat="43.2278098" lon="-2.74602166">
        <ele>126.82007</ele>
        <time>2019-11-21T20:39:23Z</time>
      </trkpt>
      <trkpt lat="43.22765341" lon="-2.74567031">
        <ele>127.5199</ele>
        <time>2019-11-21T20:39:24Z</time>
      </trkpt>
      <trkpt lat="43.22752249" lon="-2.74531409">
        <ele>130.44537</ele>
        <time>2019-11-21T20:39:25Z</time>
      </trkpt>
      <trkpt lat="43.22738025" lon="-2.74495817">
        <ele>130.6026</ele>
        <time>2019-11-21T20:39:26Z</time>
      </trkpt>
      <trkpt lat="43.22726017" lon="-2.7446229">
        <ele>129.0857</ele>
        <time>2019-11-21T20:39:27Z</time>
      </trkpt>
      <trkpt lat="43.22713682" lon="-2.74425323">
        <ele>129.77124</ele>
        <time>2019-11-21T20:39:28Z</time>
      </trkpt>
      <trkpt lat="43.22703074" lon="-2.74383406">
        <ele>131.3844</ele>
        <time>2019-11-21T20:39:29Z</time>
      </trkpt>
      <trkpt lat="43.22693425" lon="-2.74344343">
        <ele>132.45203</ele>
        <time>2019-11-21T20:39:30Z</time>
      </trkpt>
      <trkpt lat="43.22684294" lon="-2.74304801">
        <ele>132.3642</ele>
        <time>2019-11-21T20:39:31Z</time>
      </trkpt>
      <trkpt lat="43.22676435" lon="-2.74264419">
        <ele>133.04419</ele>
        <time>2019-11-21T20:39:32Z</time>
      </trkpt>
      <trkpt lat="43.22668911" lon="-2.74225443">
        <ele>133.05481</ele>
        <time>2019-11-21T20:39:33Z</time>
      </trkpt>
      <trkpt lat="43.22663132" lon="-2.74187424">
        <ele>133.38867</ele>
        <time>2019-11-21T20:39:34Z</time>
      </trkpt>
      <trkpt lat="43.22650522" lon="-2.74111499">
        <ele>132.7121</ele>
        <time>2019-11-21T20:39:35Z</time>
      </trkpt>
      <trkpt lat="43.22645386" lon="-2.74072899">
        <ele>134.92664</ele>
        <time>2019-11-21T20:39:36Z</time>
      </trkpt>
      <trkpt lat="43.22640932" lon="-2.74036605">
        <ele>134.06177</ele>
        <time>2019-11-21T20:39:37Z</time>
      </trkpt>
      <trkpt lat="43.22636747" lon="-2.74002111">
        <ele>135.11713</ele>
        <time>2019-11-21T20:39:38Z</time>
      </trkpt>
      <trkpt lat="43.22630877" lon="-2.73969196">
        <ele>134.92389</ele>
        <time>2019-11-21T20:39:39Z</time>
      </trkpt>
      <trkpt lat="43.22623351" lon="-2.73933937">
        <ele>137.31366</ele>
        <time>2019-11-21T20:39:40Z</time>
      </trkpt>
      <trkpt lat="43.2261537" lon="-2.73900312">
        <ele>137.53546</ele>
        <time>2019-11-21T20:39:41Z</time>
      </trkpt>
      <trkpt lat="43.22606908" lon="-2.73866826">
        <ele>136.9787</ele>
        <time>2019-11-21T20:39:42Z</time>
      </trkpt>
      <trkpt lat="43.22598107" lon="-2.7383232">
        <ele>136.99976</ele>
        <time>2019-11-21T20:39:43Z</time>
      </trkpt>
      <trkpt lat="43.22587786" lon="-2.73797657">
        <ele>136.15765</ele>
        <time>2019-11-21T20:39:45Z</time>
      </trkpt>
      <trkpt lat="43.22576336" lon="-2.73767966">
        <ele>136.08557</ele>
        <time>2019-11-21T20:39:46Z</time>
      </trkpt>
      <trkpt lat="43.225649" lon="-2.73737015">
        <ele>135.60016</ele>
        <time>2019-11-21T20:39:47Z</time>
      </trkpt>
      <trkpt lat="43.22551052" lon="-2.73704943">
        <ele>135.68573</ele>
        <time>2019-11-21T20:39:48Z</time>
      </trkpt>
      <trkpt lat="43.2253838" lon="-2.73674635">
        <ele>135.7312</ele>
        <time>2019-11-21T20:39:49Z</time>
      </trkpt>
      <trkpt lat="43.22525054" lon="-2.73644867">
        <ele>135.5943</ele>
        <time>2019-11-21T20:39:50Z</time>
      </trkpt>
      <trkpt lat="43.2251252" lon="-2.73612561">
        <ele>135.8982</ele>
        <time>2019-11-21T20:39:51Z</time>
      </trkpt>
      <trkpt lat="43.22502611" lon="-2.7358184">
        <ele>137.41345</ele>
        <time>2019-11-21T20:39:52Z</time>
      </trkpt>
      <trkpt lat="43.22492515" lon="-2.7355827">
        <ele>131.24817</ele>
        <time>2019-11-21T20:39:53Z</time>
      </trkpt>
      <trkpt lat="43.22482458" lon="-2.73525737">
        <ele>131.35889</ele>
        <time>2019-11-21T20:39:54Z</time>
      </trkpt>
      <trkpt lat="43.22473855" lon="-2.73490916">
        <ele>132.9331</ele>
        <time>2019-11-21T20:39:55Z</time>
      </trkpt>
      <trkpt lat="43.2246428" lon="-2.73458167">
        <ele>133.10553</ele>
        <time>2019-11-21T20:39:56Z</time>
      </trkpt>
      <trkpt lat="43.22456726" lon="-2.73429636">
        <ele>131.49689</ele>
        <time>2019-11-21T20:39:57Z</time>
      </trkpt>
      <trkpt lat="43.22444823" lon="-2.73362941">
        <ele>133.70386</ele>
        <time>2019-11-21T20:39:58Z</time>
      </trkpt>
      <trkpt lat="43.22437108" lon="-2.73330704">
        <ele>135.30359</ele>
        <time>2019-11-21T20:39:59Z</time>
      </trkpt>
      <trkpt lat="43.22428914" lon="-2.73298278">
        <ele>136.80817</ele>
        <time>2019-11-21T20:40:00Z</time>
      </trkpt>
      <trkpt lat="43.22422745" lon="-2.73267828">
        <ele>135.6325</ele>
        <time>2019-11-21T20:40:01Z</time>
      </trkpt>
      <trkpt lat="43.22414113" lon="-2.73236413">
        <ele>135.97821</ele>
        <time>2019-11-21T20:40:02Z</time>
      </trkpt>
      <trkpt lat="43.22406364" lon="-2.73205648">
        <ele>136.76562</ele>
        <time>2019-11-21T20:40:03Z</time>
      </trkpt>
      <trkpt lat="43.22399603" lon="-2.73173397">
        <ele>137.0564</ele>
        <time>2019-11-21T20:40:04Z</time>
      </trkpt>
      <trkpt lat="43.22391203" lon="-2.73141874">
        <ele>136.92554</ele>
        <time>2019-11-21T20:40:05Z</time>
      </trkpt>
      <trkpt lat="43.22381905" lon="-2.73111633">
        <ele>136.25098</ele>
        <time>2019-11-21T20:40:06Z</time>
      </trkpt>
      <trkpt lat="43.22372337" lon="-2.73081783">
        <ele>136.55981</ele>
        <time>2019-11-21T20:40:08Z</time>
      </trkpt>
      <trkpt lat="43.2236173" lon="-2.73050696">
        <ele>136.33716</ele>
        <time>2019-11-21T20:40:09Z</time>
      </trkpt>
      <trkpt lat="43.22351367" lon="-2.7302103">
        <ele>136.15247</ele>
        <time>2019-11-21T20:40:10Z</time>
      </trkpt>
      <trkpt lat="43.22341347" lon="-2.72992388">
        <ele>136.11664</ele>
        <time>2019-11-21T20:40:11Z</time>
      </trkpt>
      <trkpt lat="43.2232704" lon="-2.72963007">
        <ele>134.57446</ele>
        <time>2019-11-21T20:40:12Z</time>
      </trkpt>
      <trkpt lat="43.22311318" lon="-2.72935707">
        <ele>134.46246</ele>
        <time>2019-11-21T20:40:13Z</time>
      </trkpt>
      <trkpt lat="43.22297078" lon="-2.72908312">
        <ele>134.70386</ele>
        <time>2019-11-21T20:40:14Z</time>
      </trkpt>
      <trkpt lat="43.22280625" lon="-2.72885097">
        <ele>134.83167</ele>
        <time>2019-11-21T20:40:15Z</time>
      </trkpt>
      <trkpt lat="43.22264532" lon="-2.72856508">
        <ele>134.78491</ele>
        <time>2019-11-21T20:40:16Z</time>
      </trkpt>
      <trkpt lat="43.22249351" lon="-2.72833037">
        <ele>134.05762</ele>
        <time>2019-11-21T20:40:17Z</time>
      </trkpt>
      <trkpt lat="43.22235864" lon="-2.72811742">
        <ele>130.75177</ele>
        <time>2019-11-21T20:40:18Z</time>
      </trkpt>
      <trkpt lat="43.22217915" lon="-2.7278959">
        <ele>130.15613</ele>
        <time>2019-11-21T20:40:19Z</time>
      </trkpt>
      <trkpt lat="43.2219869" lon="-2.72766018">
        <ele>130.30066</ele>
        <time>2019-11-21T20:40:20Z</time>
      </trkpt>
      <trkpt lat="43.22161109" lon="-2.72729746">
        <ele>128.82922</ele>
        <time>2019-11-21T20:40:21Z</time>
      </trkpt>
      <trkpt lat="43.2214194" lon="-2.72713963">
        <ele>128.55109</ele>
        <time>2019-11-21T20:40:22Z</time>
      </trkpt>
      <trkpt lat="43.22119482" lon="-2.72697341">
        <ele>128.20721</ele>
        <time>2019-11-21T20:40:23Z</time>
      </trkpt>
      <trkpt lat="43.22096143" lon="-2.72678671">
        <ele>128.07123</ele>
        <time>2019-11-21T20:40:24Z</time>
      </trkpt>
      <trkpt lat="43.2207408" lon="-2.72662995">
        <ele>127.929016</ele>
        <time>2019-11-21T20:40:25Z</time>
      </trkpt>
      <trkpt lat="43.22053515" lon="-2.72650526">
        <ele>127.94403</ele>
        <time>2019-11-21T20:40:26Z</time>
      </trkpt>
      <trkpt lat="43.22029888" lon="-2.72636553">
        <ele>127.841</ele>
        <time>2019-11-21T20:40:27Z</time>
      </trkpt>
      <trkpt lat="43.22007383" lon="-2.72624821">
        <ele>127.62036</ele>
        <time>2019-11-21T20:40:28Z</time>
      </trkpt>
      <trkpt lat="43.21985322" lon="-2.72610338">
        <ele>128.36554</ele>
        <time>2019-11-21T20:40:29Z</time>
      </trkpt>
      <trkpt lat="43.21963375" lon="-2.72598055">
        <ele>128.57715</ele>
        <time>2019-11-21T20:40:30Z</time>
      </trkpt>
      <trkpt lat="43.21939423" lon="-2.72589577">
        <ele>127.88458</ele>
        <time>2019-11-21T20:40:32Z</time>
      </trkpt>
      <trkpt lat="43.21913851" lon="-2.72582716">
        <ele>127.486084</ele>
        <time>2019-11-21T20:40:33Z</time>
      </trkpt>
      <trkpt lat="43.21890187" lon="-2.72574487">
        <ele>127.65704</ele>
        <time>2019-11-21T20:40:34Z</time>
      </trkpt>
      <trkpt lat="43.21865212" lon="-2.72563602">
        <ele>127.683716</ele>
        <time>2019-11-21T20:40:35Z</time>
      </trkpt>
      <trkpt lat="43.21841025" lon="-2.7256687">
        <ele>125.32623</ele>
        <time>2019-11-21T20:40:36Z</time>
      </trkpt>
      <trkpt lat="43.21818037" lon="-2.72557006">
        <ele>126.52185</ele>
        <time>2019-11-21T20:40:37Z</time>
      </trkpt>
      <trkpt lat="43.21794683" lon="-2.72547325">
        <ele>127.73529</ele>
        <time>2019-11-21T20:40:38Z</time>
      </trkpt>
      <trkpt lat="43.21769075" lon="-2.72546409">
        <ele>128.24298</ele>
        <time>2019-11-21T20:40:39Z</time>
      </trkpt>
      <trkpt lat="43.21745551" lon="-2.72541722">
        <ele>127.92993</ele>
        <time>2019-11-21T20:40:40Z</time>
      </trkpt>
      <trkpt lat="43.21721625" lon="-2.72538884">
        <ele>126.644226</ele>
        <time>2019-11-21T20:40:41Z</time>
      </trkpt>
      <trkpt lat="43.21697685" lon="-2.72533788">
        <ele>126.770874</ele>
        <time>2019-11-21T20:40:42Z</time>
      </trkpt>
      <trkpt lat="43.2167148" lon="-2.72529357">
        <ele>126.77191</ele>
        <time>2019-11-21T20:40:43Z</time>
      </trkpt>
      <trkpt lat="43.21647014" lon="-2.72515039">
        <ele>128.6947</ele>
        <time>2019-11-21T20:40:44Z</time>
      </trkpt>
      <trkpt lat="43.21623408" lon="-2.72504472">
        <ele>131.56592</ele>
        <time>2019-11-21T20:40:45Z</time>
      </trkpt>
      <trkpt lat="43.21576333" lon="-2.72483915">
        <ele>133.58643</ele>
        <time>2019-11-21T20:40:46Z</time>
      </trkpt>
      <trkpt lat="43.21553636" lon="-2.72471515">
        <ele>134.35242</ele>
        <time>2019-11-21T20:40:47Z</time>
      </trkpt>
      <trkpt lat="43.21531028" lon="-2.72458027">
        <ele>133.67401</ele>
        <time>2019-11-21T20:40:48Z</time>
      </trkpt>
      <trkpt lat="43.21509459" lon="-2.72443465">
        <ele>132.90466</ele>
        <time>2019-11-21T20:40:49Z</time>
      </trkpt>
      <trkpt lat="43.21487728" lon="-2.72427729">
        <ele>132.7323</ele>
        <time>2019-11-21T20:40:50Z</time>
      </trkpt>
      <trkpt lat="43.21466584" lon="-2.72411056">
        <ele>132.46521</ele>
        <time>2019-11-21T20:40:51Z</time>
      </trkpt>
      <trkpt lat="43.21445712" lon="-2.72394012">
        <ele>132.96838</ele>
        <time>2019-11-21T20:40:52Z</time>
      </trkpt>
      <trkpt lat="43.214256" lon="-2.72375755">
        <ele>132.74896</ele>
        <time>2019-11-21T20:40:53Z</time>
      </trkpt>
      <trkpt lat="43.21406414" lon="-2.72355163">
        <ele>132.1648</ele>
        <time>2019-11-21T20:40:54Z</time>
      </trkpt>
      <trkpt lat="43.21386125" lon="-2.72333952">
        <ele>130.11389</ele>
        <time>2019-11-21T20:40:55Z</time>
      </trkpt>
      <trkpt lat="43.21365395" lon="-2.72311343">
        <ele>129.78027</ele>
        <time>2019-11-21T20:40:56Z</time>
      </trkpt>
      <trkpt lat="43.21345618" lon="-2.72288227">
        <ele>130.02539</ele>
        <time>2019-11-21T20:40:57Z</time>
      </trkpt>
      <trkpt lat="43.21326643" lon="-2.72260821">
        <ele>130.17804</ele>
        <time>2019-11-21T20:41:02Z</time>
      </trkpt>
      <trkpt lat="43.21255242" lon="-2.7214585">
        <ele>128.70087</ele>
        <time>2019-11-21T20:41:03Z</time>
      </trkpt>
      <trkpt lat="43.21239492" lon="-2.72114546">
        <ele>128.61957</ele>
        <time>2019-11-21T20:41:04Z</time>
      </trkpt>
      <trkpt lat="43.21225374" lon="-2.72082273">
        <ele>129.72388</ele>
        <time>2019-11-21T20:41:05Z</time>
      </trkpt>
      <trkpt lat="43.21210567" lon="-2.72048222">
        <ele>130.1792</ele>
        <time>2019-11-21T20:41:06Z</time>
      </trkpt>
      <trkpt lat="43.21182999" lon="-2.71980208">
        <ele>129.70654</ele>
        <time>2019-11-21T20:41:08Z</time>
      </trkpt>
      <trkpt lat="43.21171376" lon="-2.71944545">
        <ele>129.44623</ele>
        <time>2019-11-21T20:41:09Z</time>
      </trkpt>
      <trkpt lat="43.21160455" lon="-2.71908163">
        <ele>128.75665</ele>
        <time>2019-11-21T20:41:10Z</time>
      </trkpt>
      <trkpt lat="43.21149685" lon="-2.71871918">
        <ele>128.69495</ele>
        <time>2019-11-21T20:41:11Z</time>
      </trkpt>
      <trkpt lat="43.21142097" lon="-2.71835337">
        <ele>129.47412</ele>
        <time>2019-11-21T20:41:12Z</time>
      </trkpt>
      <trkpt lat="43.2112848" lon="-2.71760781">
        <ele>132.19122</ele>
        <time>2019-11-21T20:41:13Z</time>
      </trkpt>
      <trkpt lat="43.21123499" lon="-2.71723901">
        <ele>131.96332</ele>
        <time>2019-11-21T20:41:14Z</time>
      </trkpt>
      <trkpt lat="43.21119614" lon="-2.71686411">
        <ele>132.66339</ele>
        <time>2019-11-21T20:41:15Z</time>
      </trkpt>
      <trkpt lat="43.21115881" lon="-2.71647804">
        <ele>132.71509</ele>
        <time>2019-11-21T20:41:16Z</time>
      </trkpt>
      <trkpt lat="43.21113398" lon="-2.7160932">
        <ele>132.0589</ele>
        <time>2019-11-21T20:41:17Z</time>
      </trkpt>
      <trkpt lat="43.21111447" lon="-2.71570419">
        <ele>131.96094</ele>
        <time>2019-11-21T20:41:18Z</time>
      </trkpt>
      <trkpt lat="43.21110804" lon="-2.7153224">
        <ele>132.22583</ele>
        <time>2019-11-21T20:41:19Z</time>
      </trkpt>
      <trkpt lat="43.21110365" lon="-2.71493568">
        <ele>133.11511</ele>
        <time>2019-11-21T20:41:20Z</time>
      </trkpt>
      <trkpt lat="43.21109293" lon="-2.71454829">
        <ele>133.9917</ele>
        <time>2019-11-21T20:41:21Z</time>
      </trkpt>
      <trkpt lat="43.21106281" lon="-2.71415793">
        <ele>134.76282</ele>
        <time>2019-11-21T20:41:22Z</time>
      </trkpt>
      <trkpt lat="43.21104013" lon="-2.71376631">
        <ele>135.42584</ele>
        <time>2019-11-21T20:41:24Z</time>
      </trkpt>
      <trkpt lat="43.21100062" lon="-2.71338073">
        <ele>135.79883</ele>
        <time>2019-11-21T20:41:25Z</time>
      </trkpt>
      <trkpt lat="43.21095031" lon="-2.71299783">
        <ele>135.815</ele>
        <time>2019-11-21T20:41:26Z</time>
      </trkpt>
      <trkpt lat="43.2108773" lon="-2.71261865">
        <ele>135.18579</ele>
        <time>2019-11-21T20:41:27Z</time>
      </trkpt>
      <trkpt lat="43.21080251" lon="-2.71224363">
        <ele>134.64508</ele>
        <time>2019-11-21T20:41:28Z</time>
      </trkpt>
      <trkpt lat="43.21072114" lon="-2.71187238">
        <ele>135.17542</ele>
        <time>2019-11-21T20:41:29Z</time>
      </trkpt>
      <trkpt lat="43.21062609" lon="-2.71151662">
        <ele>134.91486</ele>
        <time>2019-11-21T20:41:30Z</time>
      </trkpt>
      <trkpt lat="43.21052201" lon="-2.7111601">
        <ele>134.27576</ele>
        <time>2019-11-21T20:41:31Z</time>
      </trkpt>
      <trkpt lat="43.21040811" lon="-2.71080514">
        <ele>132.72302</ele>
        <time>2019-11-21T20:41:32Z</time>
      </trkpt>
      <trkpt lat="43.21027659" lon="-2.71046055">
        <ele>132.9126</ele>
        <time>2019-11-21T20:41:33Z</time>
      </trkpt>
      <trkpt lat="43.21014184" lon="-2.7101186">
        <ele>133.51044</ele>
        <time>2019-11-21T20:41:34Z</time>
      </trkpt>
      <trkpt lat="43.20999211" lon="-2.70979017">
        <ele>133.84528</ele>
        <time>2019-11-21T20:41:35Z</time>
      </trkpt>
      <trkpt lat="43.20983661" lon="-2.70946173">
        <ele>133.85217</ele>
        <time>2019-11-21T20:41:36Z</time>
      </trkpt>
      <trkpt lat="43.20967582" lon="-2.70914323">
        <ele>133.63977</ele>
        <time>2019-11-21T20:41:37Z</time>
      </trkpt>
      <trkpt lat="43.20932073" lon="-2.70853486">
        <ele>134.98926</ele>
        <time>2019-11-21T20:41:38Z</time>
      </trkpt>
      <trkpt lat="43.20913501" lon="-2.70826309">
        <ele>135.56195</ele>
        <time>2019-11-21T20:41:39Z</time>
      </trkpt>
      <trkpt lat="43.20893929" lon="-2.7079947">
        <ele>136.33093</ele>
        <time>2019-11-21T20:41:40Z</time>
      </trkpt>
      <trkpt lat="43.20873818" lon="-2.70773753">
        <ele>136.63177</ele>
        <time>2019-11-21T20:41:41Z</time>
      </trkpt>
      <trkpt lat="43.20853238" lon="-2.70749088">
        <ele>136.85577</ele>
        <time>2019-11-21T20:41:42Z</time>
      </trkpt>
      <trkpt lat="43.20831228" lon="-2.70724122">
        <ele>137.45886</ele>
        <time>2019-11-21T20:41:43Z</time>
      </trkpt>
      <trkpt lat="43.2080881" lon="-2.70702206">
        <ele>137.72217</ele>
        <time>2019-11-21T20:41:44Z</time>
      </trkpt>
      <trkpt lat="43.20786892" lon="-2.70679018">
        <ele>138.63794</ele>
        <time>2019-11-21T20:41:45Z</time>
      </trkpt>
      <trkpt lat="43.2076476" lon="-2.70655975">
        <ele>139.65198</ele>
        <time>2019-11-21T20:41:47Z</time>
      </trkpt>
      <trkpt lat="43.20742574" lon="-2.70632914">
        <ele>140.86401</ele>
        <time>2019-11-21T20:41:48Z</time>
      </trkpt>
      <trkpt lat="43.20720162" lon="-2.70609454">
        <ele>142.36682</ele>
        <time>2019-11-21T20:41:49Z</time>
      </trkpt>
      <trkpt lat="43.2069786" lon="-2.70586286">
        <ele>143.13641</ele>
        <time>2019-11-21T20:41:50Z</time>
      </trkpt>
      <trkpt lat="43.2067507" lon="-2.70563087">
        <ele>144.7774</ele>
        <time>2019-11-21T20:41:51Z</time>
      </trkpt>
      <trkpt lat="43.20653182" lon="-2.70540351">
        <ele>145.94305</ele>
        <time>2019-11-21T20:41:52Z</time>
      </trkpt>
      <trkpt lat="43.20631045" lon="-2.70516758">
        <ele>147.20038</ele>
        <time>2019-11-21T20:41:53Z</time>
      </trkpt>
      <trkpt lat="43.20609532" lon="-2.70491692">
        <ele>149.62115</ele>
        <time>2019-11-21T20:41:54Z</time>
      </trkpt>
      <trkpt lat="43.20587617" lon="-2.70467473">
        <ele>150.07593</ele>
        <time>2019-11-21T20:41:55Z</time>
      </trkpt>
      <trkpt lat="43.20566116" lon="-2.70442024">
        <ele>151.64789</ele>
        <time>2019-11-21T20:41:56Z</time>
      </trkpt>
      <trkpt lat="43.20544837" lon="-2.70416768">
        <ele>152.00458</ele>
        <time>2019-11-21T20:41:57Z</time>
      </trkpt>
      <trkpt lat="43.20524135" lon="-2.70390295">
        <ele>152.03699</ele>
        <time>2019-11-21T20:41:58Z</time>
      </trkpt>
      <trkpt lat="43.20503588" lon="-2.7036251">
        <ele>153.8938</ele>
        <time>2019-11-21T20:41:59Z</time>
      </trkpt>
      <trkpt lat="43.20463779" lon="-2.70305924">
        <ele>149.58606</ele>
        <time>2019-11-21T20:42:00Z</time>
      </trkpt>
      <trkpt lat="43.2044431" lon="-2.70277252">
        <ele>151.80988</ele>
        <time>2019-11-21T20:42:01Z</time>
      </trkpt>
      <trkpt lat="43.20423987" lon="-2.70248629">
        <ele>152.10504</ele>
        <time>2019-11-21T20:42:02Z</time>
      </trkpt>
      <trkpt lat="43.20405601" lon="-2.70219595">
        <ele>153.23987</ele>
        <time>2019-11-21T20:42:03Z</time>
      </trkpt>
      <trkpt lat="43.2038781" lon="-2.70190119">
        <ele>153.15436</ele>
        <time>2019-11-21T20:42:04Z</time>
      </trkpt>
      <trkpt lat="43.20370801" lon="-2.70159616">
        <ele>153.37982</ele>
        <time>2019-11-21T20:42:05Z</time>
      </trkpt>
      <trkpt lat="43.20353449" lon="-2.70128672">
        <ele>153.01288</ele>
        <time>2019-11-21T20:42:06Z</time>
      </trkpt>
      <trkpt lat="43.20335845" lon="-2.70097798">
        <ele>151.9812</ele>
        <time>2019-11-21T20:42:07Z</time>
      </trkpt>
      <trkpt lat="43.20318308" lon="-2.70064975">
        <ele>151.44897</ele>
        <time>2019-11-21T20:42:08Z</time>
      </trkpt>
      <trkpt lat="43.20302753" lon="-2.70032083">
        <ele>150.88947</ele>
        <time>2019-11-21T20:42:10Z</time>
      </trkpt>
      <trkpt lat="43.20287964" lon="-2.69999132">
        <ele>150.83923</ele>
        <time>2019-11-21T20:42:11Z</time>
      </trkpt>
      <trkpt lat="43.20273885" lon="-2.69965447">
        <ele>149.68567</ele>
        <time>2019-11-21T20:42:12Z</time>
      </trkpt>
      <trkpt lat="43.20258888" lon="-2.69931619">
        <ele>148.67438</ele>
        <time>2019-11-21T20:42:13Z</time>
      </trkpt>
      <trkpt lat="43.20244589" lon="-2.69898002">
        <ele>147.69696</ele>
        <time>2019-11-21T20:42:14Z</time>
      </trkpt>
      <trkpt lat="43.20230033" lon="-2.6986485">
        <ele>146.68854</ele>
        <time>2019-11-21T20:42:15Z</time>
      </trkpt>
      <trkpt lat="43.20216555" lon="-2.69832694">
        <ele>144.9718</ele>
        <time>2019-11-21T20:42:16Z</time>
      </trkpt>
      <trkpt lat="43.20202824" lon="-2.69799139">
        <ele>143.7326</ele>
        <time>2019-11-21T20:42:17Z</time>
      </trkpt>
      <trkpt lat="43.20188063" lon="-2.69765241">
        <ele>143.21136</ele>
        <time>2019-11-21T20:42:18Z</time>
      </trkpt>
      <trkpt lat="43.20173103" lon="-2.6973179">
        <ele>142.487</ele>
        <time>2019-11-21T20:42:19Z</time>
      </trkpt>
      <trkpt lat="43.20157738" lon="-2.6969895">
        <ele>142.35638</ele>
        <time>2019-11-21T20:42:20Z</time>
      </trkpt>
      <trkpt lat="43.20141685" lon="-2.69667589">
        <ele>140.91241</ele>
        <time>2019-11-21T20:42:21Z</time>
      </trkpt>
      <trkpt lat="43.20125335" lon="-2.69637278">
        <ele>139.46979</ele>
        <time>2019-11-21T20:42:22Z</time>
      </trkpt>
      <trkpt lat="43.20107816" lon="-2.69607287">
        <ele>139.08136</ele>
        <time>2019-11-21T20:42:23Z</time>
      </trkpt>
      <trkpt lat="43.20069655" lon="-2.69549">
        <ele>138.38885</ele>
        <time>2019-11-21T20:42:24Z</time>
      </trkpt>
      <trkpt lat="43.20049165" lon="-2.6952178">
        <ele>137.94336</ele>
        <time>2019-11-21T20:42:25Z</time>
      </trkpt>
      <trkpt lat="43.20028208" lon="-2.69495762">
        <ele>138.54224</ele>
        <time>2019-11-21T20:42:26Z</time>
      </trkpt>
      <trkpt lat="43.20006452" lon="-2.69471246">
        <ele>138.4093</ele>
        <time>2019-11-21T20:42:27Z</time>
      </trkpt>
      <trkpt lat="43.19984435" lon="-2.69447886">
        <ele>137.30096</ele>
        <time>2019-11-21T20:42:28Z</time>
      </trkpt>
      <trkpt lat="43.19961326" lon="-2.69425498">
        <ele>137.38544</ele>
        <time>2019-11-21T20:42:29Z</time>
      </trkpt>
      <trkpt lat="43.19938095" lon="-2.6940355">
        <ele>137.87128</ele>
        <time>2019-11-21T20:42:30Z</time>
      </trkpt>
      <trkpt lat="43.19913799" lon="-2.69383551">
        <ele>138.03265</ele>
        <time>2019-11-21T20:42:31Z</time>
      </trkpt>
      <trkpt lat="43.19889225" lon="-2.69364828">
        <ele>138.71722</ele>
        <time>2019-11-21T20:42:32Z</time>
      </trkpt>
      <trkpt lat="43.19864586" lon="-2.6934739">
        <ele>139.1449</ele>
        <time>2019-11-21T20:42:34Z</time>
      </trkpt>
      <trkpt lat="43.19838726" lon="-2.6933206">
        <ele>139.10901</ele>
        <time>2019-11-21T20:42:35Z</time>
      </trkpt>
      <trkpt lat="43.198116" lon="-2.69317748">
        <ele>141.698</ele>
        <time>2019-11-21T20:42:36Z</time>
      </trkpt>
      <trkpt lat="43.19785926" lon="-2.69304535">
        <ele>141.51984</ele>
        <time>2019-11-21T20:42:37Z</time>
      </trkpt>
      <trkpt lat="43.19759466" lon="-2.69292971">
        <ele>140.88715</ele>
        <time>2019-11-21T20:42:38Z</time>
      </trkpt>
      <trkpt lat="43.19732759" lon="-2.69282891">
        <ele>140.90863</ele>
        <time>2019-11-21T20:42:39Z</time>
      </trkpt>
      <trkpt lat="43.19705485" lon="-2.69273633">
        <ele>140.93005</ele>
        <time>2019-11-21T20:42:40Z</time>
      </trkpt>
      <trkpt lat="43.19677601" lon="-2.69266146">
        <ele>141.25122</ele>
        <time>2019-11-21T20:42:41Z</time>
      </trkpt>
      <trkpt lat="43.1964883" lon="-2.69260912">
        <ele>142.05096</ele>
        <time>2019-11-21T20:42:42Z</time>
      </trkpt>
      <trkpt lat="43.19620174" lon="-2.6925581">
        <ele>141.88538</ele>
        <time>2019-11-21T20:42:43Z</time>
      </trkpt>
      <trkpt lat="43.19590667" lon="-2.69251695">
        <ele>141.19702</ele>
        <time>2019-11-21T20:42:44Z</time>
      </trkpt>
      <trkpt lat="43.19563224" lon="-2.69248815">
        <ele>142.00244</ele>
        <time>2019-11-21T20:42:45Z</time>
      </trkpt>
      <trkpt lat="43.19536497" lon="-2.69245584">
        <ele>143.50146</ele>
        <time>2019-11-21T20:42:46Z</time>
      </trkpt>
      <trkpt lat="43.19507105" lon="-2.69241775">
        <ele>143.8529</ele>
        <time>2019-11-21T20:42:47Z</time>
      </trkpt>
      <trkpt lat="43.19479519" lon="-2.69235812">
        <ele>144.39575</ele>
        <time>2019-11-21T20:42:48Z</time>
      </trkpt>
      <trkpt lat="43.19425153" lon="-2.69220494">
        <ele>146.3888</ele>
        <time>2019-11-21T20:42:49Z</time>
      </trkpt>
      <trkpt lat="43.19398092" lon="-2.6921085">
        <ele>147.25183</ele>
        <time>2019-11-21T20:42:50Z</time>
      </trkpt>
      <trkpt lat="43.19370546" lon="-2.69200287">
        <ele>148.28052</ele>
        <time>2019-11-21T20:42:51Z</time>
      </trkpt>
      <trkpt lat="43.19343544" lon="-2.69189307">
        <ele>149.3924</ele>
        <time>2019-11-21T20:42:52Z</time>
      </trkpt>
      <trkpt lat="43.19315987" lon="-2.69177402">
        <ele>149.92084</ele>
        <time>2019-11-21T20:42:53Z</time>
      </trkpt>
      <trkpt lat="43.19289756" lon="-2.69163233">
        <ele>150.14197</ele>
        <time>2019-11-21T20:42:54Z</time>
      </trkpt>
      <trkpt lat="43.19262073" lon="-2.69147237">
        <ele>150.2649</ele>
        <time>2019-11-21T20:42:55Z</time>
      </trkpt>
      <trkpt lat="43.19236246" lon="-2.69129305">
        <ele>151.42273</ele>
        <time>2019-11-21T20:42:56Z</time>
      </trkpt>
      <trkpt lat="43.19212007" lon="-2.69111095">
        <ele>151.62836</ele>
        <time>2019-11-21T20:42:58Z</time>
      </trkpt>
      <trkpt lat="43.19188402" lon="-2.69091602">
        <ele>151.6886</ele>
        <time>2019-11-21T20:42:59Z</time>
      </trkpt>
      <trkpt lat="43.19165447" lon="-2.69070279">
        <ele>151.2959</ele>
        <time>2019-11-21T20:43:00Z</time>
      </trkpt>
      <trkpt lat="43.19142793" lon="-2.69047527">
        <ele>151.4737</ele>
        <time>2019-11-21T20:43:01Z</time>
      </trkpt>
      <trkpt lat="43.19119782" lon="-2.69023757">
        <ele>150.87665</ele>
        <time>2019-11-21T20:43:02Z</time>
      </trkpt>
      <trkpt lat="43.1909831" lon="-2.68998816">
        <ele>151.25317</ele>
        <time>2019-11-21T20:43:03Z</time>
      </trkpt>
      <trkpt lat="43.19077567" lon="-2.68972372">
        <ele>151.28516</ele>
        <time>2019-11-21T20:43:04Z</time>
      </trkpt>
      <trkpt lat="43.19057637" lon="-2.68944793">
        <ele>151.85498</ele>
        <time>2019-11-21T20:43:05Z</time>
      </trkpt>
      <trkpt lat="43.19037744" lon="-2.68917562">
        <ele>150.40973</ele>
        <time>2019-11-21T20:43:06Z</time>
      </trkpt>
      <trkpt lat="43.19019602" lon="-2.68887312">
        <ele>149.93726</ele>
        <time>2019-11-21T20:43:07Z</time>
      </trkpt>
      <trkpt lat="43.19001631" lon="-2.688575">
        <ele>150.13934</ele>
        <time>2019-11-21T20:43:08Z</time>
      </trkpt>
      <trkpt lat="43.18967845" lon="-2.68794144">
        <ele>150.57532</ele>
        <time>2019-11-21T20:43:09Z</time>
      </trkpt>
      <trkpt lat="43.18952347" lon="-2.68760701">
        <ele>151.52673</ele>
        <time>2019-11-21T20:43:10Z</time>
      </trkpt>
      <trkpt lat="43.18937958" lon="-2.68726623">
        <ele>152.63171</ele>
        <time>2019-11-21T20:43:11Z</time>
      </trkpt>
      <trkpt lat="43.18924761" lon="-2.68691538">
        <ele>151.83337</ele>
        <time>2019-11-21T20:43:12Z</time>
      </trkpt>
      <trkpt lat="43.1891231" lon="-2.68656127">
        <ele>151.80945</ele>
        <time>2019-11-21T20:43:13Z</time>
      </trkpt>
      <trkpt lat="43.18900895" lon="-2.68620847">
        <ele>152.24268</ele>
        <time>2019-11-21T20:43:14Z</time>
      </trkpt>
      <trkpt lat="43.18890175" lon="-2.68583692">
        <ele>151.6203</ele>
        <time>2019-11-21T20:43:15Z</time>
      </trkpt>
      <trkpt lat="43.18880382" lon="-2.68547314">
        <ele>150.72662</ele>
        <time>2019-11-21T20:43:16Z</time>
      </trkpt>
      <trkpt lat="43.18871273" lon="-2.68511585">
        <ele>150.23352</ele>
        <time>2019-11-21T20:43:17Z</time>
      </trkpt>
      <trkpt lat="43.18861078" lon="-2.68475777">
        <ele>149.87799</ele>
        <time>2019-11-21T20:43:19Z</time>
      </trkpt>
      <trkpt lat="43.18851738" lon="-2.68439237">
        <ele>149.5252</ele>
        <time>2019-11-21T20:43:20Z</time>
      </trkpt>
      <trkpt lat="43.18842466" lon="-2.68402668">
        <ele>149.45447</ele>
        <time>2019-11-21T20:43:21Z</time>
      </trkpt>
      <trkpt lat="43.18833854" lon="-2.68366203">
        <ele>150.09424</ele>
        <time>2019-11-21T20:43:22Z</time>
      </trkpt>
      <trkpt lat="43.18825921" lon="-2.68329532">
        <ele>150.00696</ele>
        <time>2019-11-21T20:43:23Z</time>
      </trkpt>
      <trkpt lat="43.18818443" lon="-2.68292144">
        <ele>149.9837</ele>
        <time>2019-11-21T20:43:24Z</time>
      </trkpt>
      <trkpt lat="43.18811304" lon="-2.68255199">
        <ele>150.05383</ele>
        <time>2019-11-21T20:43:25Z</time>
      </trkpt>
      <trkpt lat="43.1880459" lon="-2.6821811">
        <ele>149.72748</ele>
        <time>2019-11-21T20:43:26Z</time>
      </trkpt>
      <trkpt lat="43.1879809" lon="-2.68180871">
        <ele>150.19952</ele>
        <time>2019-11-21T20:43:27Z</time>
      </trkpt>
      <trkpt lat="43.18792597" lon="-2.68144077">
        <ele>150.32208</ele>
        <time>2019-11-21T20:43:28Z</time>
      </trkpt>
      <trkpt lat="43.18786242" lon="-2.68105824">
        <ele>151.04669</ele>
        <time>2019-11-21T20:43:29Z</time>
      </trkpt>
      <trkpt lat="43.18780567" lon="-2.68068073">
        <ele>150.41913</ele>
        <time>2019-11-21T20:43:30Z</time>
      </trkpt>
      <trkpt lat="43.18775655" lon="-2.68030561">
        <ele>150.47156</ele>
        <time>2019-11-21T20:43:31Z</time>
      </trkpt>
      <trkpt lat="43.18770842" lon="-2.67992669">
        <ele>150.60974</ele>
        <time>2019-11-21T20:43:32Z</time>
      </trkpt>
      <trkpt lat="43.18762091" lon="-2.679162">
        <ele>149.67383</ele>
        <time>2019-11-21T20:43:33Z</time>
      </trkpt>
      <trkpt lat="43.18758303" lon="-2.6787818">
        <ele>148.56812</ele>
        <time>2019-11-21T20:43:34Z</time>
      </trkpt>
      <trkpt lat="43.18755085" lon="-2.67841597">
        <ele>148.57953</ele>
        <time>2019-11-21T20:43:35Z</time>
      </trkpt>
      <trkpt lat="43.1875163" lon="-2.67803178">
        <ele>149.07404</ele>
        <time>2019-11-21T20:43:36Z</time>
      </trkpt>
      <trkpt lat="43.18747977" lon="-2.67764494">
        <ele>149.39221</ele>
        <time>2019-11-21T20:43:37Z</time>
      </trkpt>
      <trkpt lat="43.18745033" lon="-2.67725719">
        <ele>149.09668</ele>
        <time>2019-11-21T20:43:38Z</time>
      </trkpt>
      <trkpt lat="43.18741932" lon="-2.67686821">
        <ele>146.35596</ele>
        <time>2019-11-21T20:43:39Z</time>
      </trkpt>
      <trkpt lat="43.18738388" lon="-2.67647703">
        <ele>147.4621</ele>
        <time>2019-11-21T20:43:40Z</time>
      </trkpt>
      <trkpt lat="43.18736116" lon="-2.67610018">
        <ele>148.11194</ele>
        <time>2019-11-21T20:43:41Z</time>
      </trkpt>
      <trkpt lat="43.18732762" lon="-2.67571539">
        <ele>149.25024</ele>
        <time>2019-11-21T20:43:43Z</time>
      </trkpt>
      <trkpt lat="43.18729446" lon="-2.67532546">
        <ele>149.742</ele>
        <time>2019-11-21T20:43:44Z</time>
      </trkpt>
      <trkpt lat="43.18726288" lon="-2.67493066">
        <ele>150.2854</ele>
        <time>2019-11-21T20:43:45Z</time>
      </trkpt>
      <trkpt lat="43.18722459" lon="-2.67454689">
        <ele>149.91425</ele>
        <time>2019-11-21T20:43:46Z</time>
      </trkpt>
      <trkpt lat="43.18719331" lon="-2.67415077">
        <ele>150.28387</ele>
        <time>2019-11-21T20:43:47Z</time>
      </trkpt>
      <trkpt lat="43.18715884" lon="-2.67376063">
        <ele>150.05835</ele>
        <time>2019-11-21T20:43:48Z</time>
      </trkpt>
      <trkpt lat="43.18712461" lon="-2.67338403">
        <ele>149.89575</ele>
        <time>2019-11-21T20:43:49Z</time>
      </trkpt>
      <trkpt lat="43.1870836" lon="-2.67300382">
        <ele>149.60602</ele>
        <time>2019-11-21T20:43:50Z</time>
      </trkpt>
      <trkpt lat="43.1870523" lon="-2.67262691">
        <ele>149.3664</ele>
        <time>2019-11-21T20:43:51Z</time>
      </trkpt>
      <trkpt lat="43.18701431" lon="-2.67223837">
        <ele>149.19513</ele>
        <time>2019-11-21T20:43:52Z</time>
      </trkpt>
      <trkpt lat="43.18697345" lon="-2.6718577">
        <ele>147.8435</ele>
        <time>2019-11-21T20:43:53Z</time>
      </trkpt>
      <trkpt lat="43.1869356" lon="-2.67147955">
        <ele>147.60413</ele>
        <time>2019-11-21T20:43:54Z</time>
      </trkpt>
      <trkpt lat="43.18684682" lon="-2.6707246">
        <ele>146.38391</ele>
        <time>2019-11-21T20:43:55Z</time>
      </trkpt>
      <trkpt lat="43.18680756" lon="-2.67034327">
        <ele>145.96472</ele>
        <time>2019-11-21T20:43:56Z</time>
      </trkpt>
      <trkpt lat="43.18676176" lon="-2.66995912">
        <ele>145.43292</ele>
        <time>2019-11-21T20:43:57Z</time>
      </trkpt>
      <trkpt lat="43.18671771" lon="-2.66957578">
        <ele>145.4419</ele>
        <time>2019-11-21T20:43:58Z</time>
      </trkpt>
      <trkpt lat="43.18666868" lon="-2.66919702">
        <ele>145.64703</ele>
        <time>2019-11-21T20:43:59Z</time>
      </trkpt>
      <trkpt lat="43.18662026" lon="-2.66882137">
        <ele>145.33252</ele>
        <time>2019-11-21T20:44:00Z</time>
      </trkpt>
      <trkpt lat="43.18656915" lon="-2.66844507">
        <ele>145.54407</ele>
        <time>2019-11-21T20:44:01Z</time>
      </trkpt>
      <trkpt lat="43.18651318" lon="-2.66807208">
        <ele>145.88898</ele>
        <time>2019-11-21T20:44:02Z</time>
      </trkpt>
      <trkpt lat="43.1864613" lon="-2.66769367">
        <ele>146.2478</ele>
        <time>2019-11-21T20:44:03Z</time>
      </trkpt>
      <trkpt lat="43.18640762" lon="-2.66731912">
        <ele>146.659</ele>
        <time>2019-11-21T20:44:05Z</time>
      </trkpt>
      <trkpt lat="43.18634344" lon="-2.66694626">
        <ele>147.20325</ele>
        <time>2019-11-21T20:44:06Z</time>
      </trkpt>
      <trkpt lat="43.18628344" lon="-2.66656704">
        <ele>148.0968</ele>
        <time>2019-11-21T20:44:07Z</time>
      </trkpt>
      <trkpt lat="43.18621756" lon="-2.66620575">
        <ele>148.57153</ele>
        <time>2019-11-21T20:44:08Z</time>
      </trkpt>
      <trkpt lat="43.18614961" lon="-2.66583715">
        <ele>149.13702</ele>
        <time>2019-11-21T20:44:09Z</time>
      </trkpt>
      <trkpt lat="43.18607896" lon="-2.66545835">
        <ele>150.2865</ele>
        <time>2019-11-21T20:44:10Z</time>
      </trkpt>
      <trkpt lat="43.18601201" lon="-2.6650842">
        <ele>151.50745</ele>
        <time>2019-11-21T20:44:11Z</time>
      </trkpt>
      <trkpt lat="43.18594101" lon="-2.66471396">
        <ele>153.25183</ele>
        <time>2019-11-21T20:44:12Z</time>
      </trkpt>
      <trkpt lat="43.18586713" lon="-2.66433836">
        <ele>154.74854</ele>
        <time>2019-11-21T20:44:13Z</time>
      </trkpt>
      <trkpt lat="43.18578834" lon="-2.66396543">
        <ele>156.02008</ele>
        <time>2019-11-21T20:44:14Z</time>
      </trkpt>
      <trkpt lat="43.18570715" lon="-2.66360117">
        <ele>157.14679</ele>
        <time>2019-11-21T20:44:15Z</time>
      </trkpt>
      <trkpt lat="43.18562656" lon="-2.66322554">
        <ele>159.3006</ele>
        <time>2019-11-21T20:44:16Z</time>
      </trkpt>
      <trkpt lat="43.18554448" lon="-2.66285202">
        <ele>160.44452</ele>
        <time>2019-11-21T20:44:17Z</time>
      </trkpt>
      <trkpt lat="43.18536974" lon="-2.66210622">
        <ele>162.901</ele>
        <time>2019-11-21T20:44:18Z</time>
      </trkpt>
      <trkpt lat="43.18528211" lon="-2.66174365">
        <ele>163.09998</ele>
        <time>2019-11-21T20:44:19Z</time>
      </trkpt>
      <trkpt lat="43.18519211" lon="-2.66139451">
        <ele>162.83331</ele>
        <time>2019-11-21T20:44:20Z</time>
      </trkpt>
      <trkpt lat="43.18509819" lon="-2.66102684">
        <ele>163.75867</ele>
        <time>2019-11-21T20:44:21Z</time>
      </trkpt>
      <trkpt lat="43.18500756" lon="-2.66066457">
        <ele>163.91724</ele>
        <time>2019-11-21T20:44:22Z</time>
      </trkpt>
      <trkpt lat="43.18490295" lon="-2.66029589">
        <ele>164.15997</ele>
        <time>2019-11-21T20:44:23Z</time>
      </trkpt>
      <trkpt lat="43.18479784" lon="-2.65992837">
        <ele>165.18262</ele>
        <time>2019-11-21T20:44:24Z</time>
      </trkpt>
      <trkpt lat="43.18468448" lon="-2.65956788">
        <ele>165.53418</ele>
        <time>2019-11-21T20:44:25Z</time>
      </trkpt>
      <trkpt lat="43.18457417" lon="-2.65920455">
        <ele>165.91364</ele>
        <time>2019-11-21T20:44:26Z</time>
      </trkpt>
      <trkpt lat="43.18446237" lon="-2.65884374">
        <ele>166.35492</ele>
        <time>2019-11-21T20:44:28Z</time>
      </trkpt>
      <trkpt lat="43.18435657" lon="-2.65847676">
        <ele>166.07697</ele>
        <time>2019-11-21T20:44:29Z</time>
      </trkpt>
      <trkpt lat="43.18424823" lon="-2.65811969">
        <ele>165.23206</ele>
        <time>2019-11-21T20:44:30Z</time>
      </trkpt>
      <trkpt lat="43.18413704" lon="-2.65776448">
        <ele>165.51562</ele>
        <time>2019-11-21T20:44:31Z</time>
      </trkpt>
      <trkpt lat="43.18402009" lon="-2.65741077">
        <ele>165.30798</ele>
        <time>2019-11-21T20:44:32Z</time>
      </trkpt>
      <trkpt lat="43.18389868" lon="-2.65705457">
        <ele>165.45465</ele>
        <time>2019-11-21T20:44:33Z</time>
      </trkpt>
      <trkpt lat="43.18378028" lon="-2.65670085">
        <ele>165.3551</ele>
        <time>2019-11-21T20:44:34Z</time>
      </trkpt>
      <trkpt lat="43.18366486" lon="-2.65634382">
        <ele>165.62628</ele>
        <time>2019-11-21T20:44:35Z</time>
      </trkpt>
      <trkpt lat="43.18353828" lon="-2.65599366">
        <ele>165.81726</ele>
        <time>2019-11-21T20:44:36Z</time>
      </trkpt>
      <trkpt lat="43.18341482" lon="-2.6556421">
        <ele>166.37671</ele>
        <time>2019-11-21T20:44:37Z</time>
      </trkpt>
      <trkpt lat="43.18328142" lon="-2.65529354">
        <ele>166.44397</ele>
        <time>2019-11-21T20:44:38Z</time>
      </trkpt>
      <trkpt lat="43.18315272" lon="-2.65494499">
        <ele>166.01898</ele>
        <time>2019-11-21T20:44:39Z</time>
      </trkpt>
      <trkpt lat="43.18288903" lon="-2.65426762">
        <ele>165.76471</ele>
        <time>2019-11-21T20:44:40Z</time>
      </trkpt>
      <trkpt lat="43.18275585" lon="-2.65392121">
        <ele>166.59747</ele>
        <time>2019-11-21T20:44:41Z</time>
      </trkpt>
      <trkpt lat="43.18262339" lon="-2.65357795">
        <ele>166.56512</ele>
        <time>2019-11-21T20:44:42Z</time>
      </trkpt>
      <trkpt lat="43.18248975" lon="-2.65323391">
        <ele>166.35065</ele>
        <time>2019-11-21T20:44:43Z</time>
      </trkpt>
      <trkpt lat="43.18235908" lon="-2.65288573">
        <ele>166.17633</ele>
        <time>2019-11-21T20:44:44Z</time>
      </trkpt>
      <trkpt lat="43.18223218" lon="-2.65253053">
        <ele>166.26868</ele>
        <time>2019-11-21T20:44:45Z</time>
      </trkpt>
      <trkpt lat="43.18210211" lon="-2.65217993">
        <ele>165.7644</ele>
        <time>2019-11-21T20:44:46Z</time>
      </trkpt>
      <trkpt lat="43.18199607" lon="-2.65185792">
        <ele>163.47205</ele>
        <time>2019-11-21T20:44:47Z</time>
      </trkpt>
      <trkpt lat="43.18187538" lon="-2.65150225">
        <ele>163.51282</ele>
        <time>2019-11-21T20:44:48Z</time>
      </trkpt>
      <trkpt lat="43.18176607" lon="-2.65115676">
        <ele>159.50458</ele>
        <time>2019-11-21T20:44:50Z</time>
      </trkpt>
      <trkpt lat="43.18164949" lon="-2.65079754">
        <ele>161.23505</ele>
        <time>2019-11-21T20:44:51Z</time>
      </trkpt>
      <trkpt lat="43.1815399" lon="-2.65045266">
        <ele>162.13226</ele>
        <time>2019-11-21T20:44:52Z</time>
      </trkpt>
      <trkpt lat="43.18142615" lon="-2.65010655">
        <ele>162.2511</ele>
        <time>2019-11-21T20:44:53Z</time>
      </trkpt>
      <trkpt lat="43.18131701" lon="-2.64976151">
        <ele>162.22534</ele>
        <time>2019-11-21T20:44:54Z</time>
      </trkpt>
      <trkpt lat="43.18121285" lon="-2.64942161">
        <ele>162.5346</ele>
        <time>2019-11-21T20:44:55Z</time>
      </trkpt>
      <trkpt lat="43.1811108" lon="-2.64908358">
        <ele>162.62073</ele>
        <time>2019-11-21T20:44:56Z</time>
      </trkpt>
      <trkpt lat="43.18100916" lon="-2.64875495">
        <ele>162.31091</ele>
        <time>2019-11-21T20:44:57Z</time>
      </trkpt>
      <trkpt lat="43.18092888" lon="-2.64844938">
        <ele>160.81207</ele>
        <time>2019-11-21T20:44:58Z</time>
      </trkpt>
      <trkpt lat="43.18074113" lon="-2.6477776">
        <ele>160.15747</ele>
        <time>2019-11-21T20:44:59Z</time>
      </trkpt>
      <trkpt lat="43.18065673" lon="-2.64744168">
        <ele>160.64508</ele>
        <time>2019-11-21T20:45:00Z</time>
      </trkpt>
      <trkpt lat="43.18057722" lon="-2.64713249">
        <ele>160.09082</ele>
        <time>2019-11-21T20:45:01Z</time>
      </trkpt>
      <trkpt lat="43.18050982" lon="-2.64682856">
        <ele>159.7854</ele>
        <time>2019-11-21T20:45:03Z</time>
      </trkpt>
      <trkpt lat="43.18043726" lon="-2.6465097">
        <ele>161.00012</ele>
        <time>2019-11-21T20:45:04Z</time>
      </trkpt>
      <trkpt lat="43.18036898" lon="-2.64619046">
        <ele>163.09113</ele>
        <time>2019-11-21T20:45:05Z</time>
      </trkpt>
      <trkpt lat="43.18029962" lon="-2.64589693">
        <ele>163.57104</ele>
        <time>2019-11-21T20:45:06Z</time>
      </trkpt>
      <trkpt lat="43.18023603" lon="-2.64560614">
        <ele>164.95514</ele>
        <time>2019-11-21T20:45:07Z</time>
      </trkpt>
      <trkpt lat="43.18017255" lon="-2.64532922">
        <ele>165.96277</ele>
        <time>2019-11-21T20:45:08Z</time>
      </trkpt>
      <trkpt lat="43.18011806" lon="-2.64506972">
        <ele>166.80933</ele>
        <time>2019-11-21T20:45:09Z</time>
      </trkpt>
      <trkpt lat="43.18007072" lon="-2.64481362">
        <ele>168.08704</ele>
        <time>2019-11-21T20:45:10Z</time>
      </trkpt>
      <trkpt lat="43.18002287" lon="-2.64457585">
        <ele>168.27454</ele>
        <time>2019-11-21T20:45:11Z</time>
      </trkpt>
      <trkpt lat="43.17997785" lon="-2.64434612">
        <ele>168.73456</ele>
        <time>2019-11-21T20:45:12Z</time>
      </trkpt>
      <trkpt lat="43.17993727" lon="-2.644113">
        <ele>169.96619</ele>
        <time>2019-11-21T20:45:13Z</time>
      </trkpt>
      <trkpt lat="43.17989605" lon="-2.64390868">
        <ele>170.42535</ele>
        <time>2019-11-21T20:45:14Z</time>
      </trkpt>
      <trkpt lat="43.17986251" lon="-2.64372493">
        <ele>170.77911</ele>
        <time>2019-11-21T20:45:15Z</time>
      </trkpt>
      <trkpt lat="43.17980146" lon="-2.64340896">
        <ele>171.68677</ele>
        <time>2019-11-21T20:45:16Z</time>
      </trkpt>
      <trkpt lat="43.17974353" lon="-2.64314042">
        <ele>171.78088</ele>
        <time>2019-11-21T20:45:18Z</time>
      </trkpt>
      <trkpt lat="43.17970616" lon="-2.64295508">
        <ele>171.21216</ele>
        <time>2019-11-21T20:45:20Z</time>
      </trkpt>
      <trkpt lat="43.17967966" lon="-2.64274825">
        <ele>169.57489</ele>
        <time>2019-11-21T20:45:31Z</time>
      </trkpt>
      <trkpt lat="43.17965658" lon="-2.64256189">
        <ele>169.54688</ele>
        <time>2019-11-21T20:45:34Z</time>
      </trkpt>
      <trkpt lat="43.17962785" lon="-2.64236643">
        <ele>171.85236</ele>
        <time>2019-11-21T20:45:36Z</time>
      </trkpt>
      <trkpt lat="43.17958964" lon="-2.64209302">
        <ele>172.86377</ele>
        <time>2019-11-21T20:45:38Z</time>
      </trkpt>
      <trkpt lat="43.17953762" lon="-2.64176964">
        <ele>174.08667</ele>
        <time>2019-11-21T20:45:40Z</time>
      </trkpt>
      <trkpt lat="43.17945349" lon="-2.64119595">
        <ele>174.46362</ele>
        <time>2019-11-21T20:45:42Z</time>
      </trkpt>
      <trkpt lat="43.17942026" lon="-2.64098558">
        <ele>174.29968</ele>
        <time>2019-11-21T20:45:43Z</time>
      </trkpt>
      <trkpt lat="43.17939374" lon="-2.64076265">
        <ele>174.26312</ele>
        <time>2019-11-21T20:45:44Z</time>
      </trkpt>
      <trkpt lat="43.17936832" lon="-2.64052721">
        <ele>174.3388</ele>
        <time>2019-11-21T20:45:45Z</time>
      </trkpt>
      <trkpt lat="43.17933995" lon="-2.64028937">
        <ele>174.84229</ele>
        <time>2019-11-21T20:45:46Z</time>
      </trkpt>
      <trkpt lat="43.17930661" lon="-2.64004">
        <ele>175.36871</ele>
        <time>2019-11-21T20:45:47Z</time>
      </trkpt>
      <trkpt lat="43.17928003" lon="-2.63979401">
        <ele>175.33685</ele>
        <time>2019-11-21T20:45:48Z</time>
      </trkpt>
      <trkpt lat="43.17926055" lon="-2.63955736">
        <ele>175.22443</ele>
        <time>2019-11-21T20:45:49Z</time>
      </trkpt>
      <trkpt lat="43.17923098" lon="-2.63930434">
        <ele>175.2782</ele>
        <time>2019-11-21T20:45:51Z</time>
      </trkpt>
      <trkpt lat="43.17921257" lon="-2.6390368">
        <ele>175.79126</ele>
        <time>2019-11-21T20:45:52Z</time>
      </trkpt>
      <trkpt lat="43.17919506" lon="-2.63878325">
        <ele>175.73438</ele>
        <time>2019-11-21T20:45:53Z</time>
      </trkpt>
      <trkpt lat="43.17917046" lon="-2.63850917">
        <ele>175.99603</ele>
        <time>2019-11-21T20:45:54Z</time>
      </trkpt>
      <trkpt lat="43.17914899" lon="-2.63823689">
        <ele>176.23859</ele>
        <time>2019-11-21T20:45:55Z</time>
      </trkpt>
      <trkpt lat="43.17912544" lon="-2.63796449">
        <ele>176.68512</ele>
        <time>2019-11-21T20:45:56Z</time>
      </trkpt>
      <trkpt lat="43.17910959" lon="-2.63769202">
        <ele>177.24414</ele>
        <time>2019-11-21T20:45:57Z</time>
      </trkpt>
      <trkpt lat="43.17909115" lon="-2.6374059">
        <ele>177.23505</ele>
        <time>2019-11-21T20:45:58Z</time>
      </trkpt>
      <trkpt lat="43.17906942" lon="-2.63712661">
        <ele>177.13245</ele>
        <time>2019-11-21T20:45:59Z</time>
      </trkpt>
      <trkpt lat="43.17905254" lon="-2.63684407">
        <ele>177.23999</ele>
        <time>2019-11-21T20:46:00Z</time>
      </trkpt>
      <trkpt lat="43.17903986" lon="-2.63655219">
        <ele>177.27985</ele>
        <time>2019-11-21T20:46:01Z</time>
      </trkpt>
      <trkpt lat="43.17902706" lon="-2.63625996">
        <ele>177.67859</ele>
        <time>2019-11-21T20:46:02Z</time>
      </trkpt>
      <trkpt lat="43.17901201" lon="-2.63595296">
        <ele>173.95898</ele>
        <time>2019-11-21T20:46:03Z</time>
      </trkpt>
      <trkpt lat="43.17899597" lon="-2.63563245">
        <ele>175.83789</ele>
        <time>2019-11-21T20:46:04Z</time>
      </trkpt>
      <trkpt lat="43.17895942" lon="-2.63500208">
        <ele>176.22345</ele>
        <time>2019-11-21T20:46:05Z</time>
      </trkpt>
      <trkpt lat="43.178941" lon="-2.63468459">
        <ele>174.81909</ele>
        <time>2019-11-21T20:46:06Z</time>
      </trkpt>
      <trkpt lat="43.17893313" lon="-2.63437318">
        <ele>174.55139</ele>
        <time>2019-11-21T20:46:07Z</time>
      </trkpt>
      <trkpt lat="43.17892767" lon="-2.63403758">
        <ele>174.85767</ele>
        <time>2019-11-21T20:46:08Z</time>
      </trkpt>
      <trkpt lat="43.17891774" lon="-2.63371661">
        <ele>174.88397</ele>
        <time>2019-11-21T20:46:09Z</time>
      </trkpt>
      <trkpt lat="43.17891494" lon="-2.63338391">
        <ele>174.93915</ele>
        <time>2019-11-21T20:46:10Z</time>
      </trkpt>
      <trkpt lat="43.17891219" lon="-2.63303822">
        <ele>175.37207</ele>
        <time>2019-11-21T20:46:11Z</time>
      </trkpt>
      <trkpt lat="43.17890113" lon="-2.63269065">
        <ele>175.45691</ele>
        <time>2019-11-21T20:46:12Z</time>
      </trkpt>
      <trkpt lat="43.1788974" lon="-2.63233437">
        <ele>175.84998</ele>
        <time>2019-11-21T20:46:13Z</time>
      </trkpt>
      <trkpt lat="43.1788872" lon="-2.6319818">
        <ele>175.52441</ele>
        <time>2019-11-21T20:46:15Z</time>
      </trkpt>
      <trkpt lat="43.17887794" lon="-2.63162375">
        <ele>176.14014</ele>
        <time>2019-11-21T20:46:16Z</time>
      </trkpt>
      <trkpt lat="43.1788705" lon="-2.63126826">
        <ele>177.19159</ele>
        <time>2019-11-21T20:46:17Z</time>
      </trkpt>
      <trkpt lat="43.1788573" lon="-2.630914">
        <ele>177.41852</ele>
        <time>2019-11-21T20:46:18Z</time>
      </trkpt>
      <trkpt lat="43.17884107" lon="-2.63053909">
        <ele>177.5791</ele>
        <time>2019-11-21T20:46:19Z</time>
      </trkpt>
      <trkpt lat="43.17882597" lon="-2.63015861">
        <ele>178.49426</ele>
        <time>2019-11-21T20:46:20Z</time>
      </trkpt>
      <trkpt lat="43.17879814" lon="-2.62977926">
        <ele>178.13873</ele>
        <time>2019-11-21T20:46:21Z</time>
      </trkpt>
      <trkpt lat="43.17877257" lon="-2.62940265">
        <ele>178.81677</ele>
        <time>2019-11-21T20:46:22Z</time>
      </trkpt>
      <trkpt lat="43.17876125" lon="-2.62902969">
        <ele>179.86255</ele>
        <time>2019-11-21T20:46:23Z</time>
      </trkpt>
      <trkpt lat="43.17874091" lon="-2.62864266">
        <ele>180.6955</ele>
        <time>2019-11-21T20:46:24Z</time>
      </trkpt>
      <trkpt lat="43.17871355" lon="-2.62825836">
        <ele>181.79578</ele>
        <time>2019-11-21T20:46:25Z</time>
      </trkpt>
      <trkpt lat="43.17868043" lon="-2.62786733">
        <ele>183.13245</ele>
        <time>2019-11-21T20:46:26Z</time>
      </trkpt>
      <trkpt lat="43.17863129" lon="-2.62711555">
        <ele>185.61224</ele>
        <time>2019-11-21T20:46:27Z</time>
      </trkpt>
      <trkpt lat="43.17858433" lon="-2.6267418">
        <ele>184.60107</ele>
        <time>2019-11-21T20:46:28Z</time>
      </trkpt>
      <trkpt lat="43.17855366" lon="-2.62636576">
        <ele>185.3357</ele>
        <time>2019-11-21T20:46:29Z</time>
      </trkpt>
      <trkpt lat="43.17850882" lon="-2.62598762">
        <ele>185.92645</ele>
        <time>2019-11-21T20:46:30Z</time>
      </trkpt>
      <trkpt lat="43.178452" lon="-2.6256076">
        <ele>186.71838</ele>
        <time>2019-11-21T20:46:31Z</time>
      </trkpt>
      <trkpt lat="43.17838666" lon="-2.62521973">
        <ele>187.56763</ele>
        <time>2019-11-21T20:46:32Z</time>
      </trkpt>
      <trkpt lat="43.17831568" lon="-2.62484709">
        <ele>188.72107</ele>
        <time>2019-11-21T20:46:33Z</time>
      </trkpt>
      <trkpt lat="43.17823365" lon="-2.62448686">
        <ele>181.1861</ele>
        <time>2019-11-21T20:46:34Z</time>
      </trkpt>
      <trkpt lat="43.17813359" lon="-2.62411766">
        <ele>184.87708</ele>
        <time>2019-11-21T20:46:36Z</time>
      </trkpt>
      <trkpt lat="43.17802151" lon="-2.62375634">
        <ele>188.19464</ele>
        <time>2019-11-21T20:46:37Z</time>
      </trkpt>
      <trkpt lat="43.17790505" lon="-2.6234095">
        <ele>189.91992</ele>
        <time>2019-11-21T20:46:38Z</time>
      </trkpt>
      <trkpt lat="43.17777909" lon="-2.62305847">
        <ele>191.52698</ele>
        <time>2019-11-21T20:46:39Z</time>
      </trkpt>
      <trkpt lat="43.17763238" lon="-2.62271009">
        <ele>191.91602</ele>
        <time>2019-11-21T20:46:40Z</time>
      </trkpt>
      <trkpt lat="43.17750659" lon="-2.62238419">
        <ele>192.30426</ele>
        <time>2019-11-21T20:46:41Z</time>
      </trkpt>
      <trkpt lat="43.17736097" lon="-2.6220346">
        <ele>192.91919</ele>
        <time>2019-11-21T20:46:42Z</time>
      </trkpt>
      <trkpt lat="43.17721768" lon="-2.62170126">
        <ele>193.07678</ele>
        <time>2019-11-21T20:46:43Z</time>
      </trkpt>
      <trkpt lat="43.17707908" lon="-2.62135997">
        <ele>194.22168</ele>
        <time>2019-11-21T20:46:44Z</time>
      </trkpt>
      <trkpt lat="43.17694825" lon="-2.62103645">
        <ele>194.94</ele>
        <time>2019-11-21T20:46:45Z</time>
      </trkpt>
      <trkpt lat="43.17678638" lon="-2.62069907">
        <ele>195.79205</ele>
        <time>2019-11-21T20:46:46Z</time>
      </trkpt>
      <trkpt lat="43.17663686" lon="-2.62037597">
        <ele>196.53699</ele>
        <time>2019-11-21T20:46:46Z</time>
      </trkpt>
      <trkpt lat="43.17648189" lon="-2.62004838">
        <ele>198.0813</ele>
        <time>2019-11-21T20:46:47Z</time>
      </trkpt>
      <trkpt lat="43.17631895" lon="-2.61972943">
        <ele>194.06744</ele>
        <time>2019-11-21T20:46:48Z</time>
      </trkpt>
      <trkpt lat="43.17616667" lon="-2.6194212">
        <ele>195.46973</ele>
        <time>2019-11-21T20:46:49Z</time>
      </trkpt>
      <trkpt lat="43.17600104" lon="-2.61910454">
        <ele>196.86157</ele>
        <time>2019-11-21T20:46:50Z</time>
      </trkpt>
      <trkpt lat="43.17565862" lon="-2.61846711">
        <ele>198.14648</ele>
        <time>2019-11-21T20:46:51Z</time>
      </trkpt>
      <trkpt lat="43.17548722" lon="-2.61815352">
        <ele>198.36499</ele>
        <time>2019-11-21T20:46:52Z</time>
      </trkpt>
      <trkpt lat="43.17530074" lon="-2.61785651">
        <ele>197.7331</ele>
        <time>2019-11-21T20:46:53Z</time>
      </trkpt>
      <trkpt lat="43.17512185" lon="-2.61756268">
        <ele>197.89319</ele>
        <time>2019-11-21T20:46:54Z</time>
      </trkpt>
      <trkpt lat="43.17494701" lon="-2.61726223">
        <ele>197.84253</ele>
        <time>2019-11-21T20:46:55Z</time>
      </trkpt>
      <trkpt lat="43.17476604" lon="-2.61696801">
        <ele>198.11499</ele>
        <time>2019-11-21T20:46:56Z</time>
      </trkpt>
      <trkpt lat="43.17457828" lon="-2.61666247">
        <ele>197.45654</ele>
        <time>2019-11-21T20:46:58Z</time>
      </trkpt>
      <trkpt lat="43.17438041" lon="-2.61636394">
        <ele>196.2273</ele>
        <time>2019-11-21T20:46:59Z</time>
      </trkpt>
      <trkpt lat="43.17420385" lon="-2.61605545">
        <ele>195.5227</ele>
        <time>2019-11-21T20:47:00Z</time>
      </trkpt>
      <trkpt lat="43.17404489" lon="-2.6157465">
        <ele>195.42249</ele>
        <time>2019-11-21T20:47:01Z</time>
      </trkpt>
      <trkpt lat="43.17388031" lon="-2.61542895">
        <ele>195.0155</ele>
        <time>2019-11-21T20:47:02Z</time>
      </trkpt>
      <trkpt lat="43.17371688" lon="-2.61509891">
        <ele>192.82935</ele>
        <time>2019-11-21T20:47:03Z</time>
      </trkpt>
      <trkpt lat="43.17357252" lon="-2.61476306">
        <ele>191.69324</ele>
        <time>2019-11-21T20:47:04Z</time>
      </trkpt>
      <trkpt lat="43.17342865" lon="-2.6144159">
        <ele>191.00891</ele>
        <time>2019-11-21T20:47:05Z</time>
      </trkpt>
      <trkpt lat="43.1733103" lon="-2.61407045">
        <ele>189.45398</ele>
        <time>2019-11-21T20:47:06Z</time>
      </trkpt>
      <trkpt lat="43.17318761" lon="-2.6137105">
        <ele>188.5321</ele>
        <time>2019-11-21T20:47:07Z</time>
      </trkpt>
      <trkpt lat="43.17307803" lon="-2.61336447">
        <ele>187.03418</ele>
        <time>2019-11-21T20:47:08Z</time>
      </trkpt>
      <trkpt lat="43.17295827" lon="-2.61300917">
        <ele>185.5979</ele>
        <time>2019-11-21T20:47:09Z</time>
      </trkpt>
      <trkpt lat="43.17272506" lon="-2.6123276">
        <ele>183.04315</ele>
        <time>2019-11-21T20:47:10Z</time>
      </trkpt>
      <trkpt lat="43.17261167" lon="-2.61200147">
        <ele>182.22168</ele>
        <time>2019-11-21T20:47:11Z</time>
      </trkpt>
      <trkpt lat="43.17249202" lon="-2.61167109">
        <ele>182.1333</ele>
        <time>2019-11-21T20:47:12Z</time>
      </trkpt>
      <trkpt lat="43.17236995" lon="-2.61135621">
        <ele>182.64172</ele>
        <time>2019-11-21T20:47:13Z</time>
      </trkpt>
      <trkpt lat="43.17223953" lon="-2.61104354">
        <ele>183.1463</ele>
        <time>2019-11-21T20:47:14Z</time>
      </trkpt>
      <trkpt lat="43.17210203" lon="-2.61074751">
        <ele>182.89795</ele>
        <time>2019-11-21T20:47:15Z</time>
      </trkpt>
      <trkpt lat="43.17196161" lon="-2.61045113">
        <ele>184.48163</ele>
        <time>2019-11-21T20:47:16Z</time>
      </trkpt>
      <trkpt lat="43.17181723" lon="-2.61016252">
        <ele>185.49744</ele>
        <time>2019-11-21T20:47:17Z</time>
      </trkpt>
      <trkpt lat="43.17166277" lon="-2.60987552">
        <ele>186.7091</ele>
        <time>2019-11-21T20:47:18Z</time>
      </trkpt>
      <trkpt lat="43.17150518" lon="-2.60959222">
        <ele>187.94653</ele>
        <time>2019-11-21T20:47:20Z</time>
      </trkpt>
      <trkpt lat="43.17132641" lon="-2.60931006">
        <ele>188.77618</ele>
        <time>2019-11-21T20:47:21Z</time>
      </trkpt>
      <trkpt lat="43.17115074" lon="-2.6090319">
        <ele>189.39526</ele>
        <time>2019-11-21T20:47:22Z</time>
      </trkpt>
      <trkpt lat="43.17097076" lon="-2.60876495">
        <ele>190.17072</ele>
        <time>2019-11-21T20:47:23Z</time>
      </trkpt>
      <trkpt lat="43.17079666" lon="-2.6085063">
        <ele>190.2666</ele>
        <time>2019-11-21T20:47:24Z</time>
      </trkpt>
      <trkpt lat="43.17062677" lon="-2.60827389">
        <ele>190.48389</ele>
        <time>2019-11-21T20:47:25Z</time>
      </trkpt>
      <trkpt lat="43.17044209" lon="-2.60802299">
        <ele>192.66766</ele>
        <time>2019-11-21T20:47:26Z</time>
      </trkpt>
      <trkpt lat="43.17027238" lon="-2.60777295">
        <ele>192.8888</ele>
        <time>2019-11-21T20:47:27Z</time>
      </trkpt>
      <trkpt lat="43.17009731" lon="-2.60750973">
        <ele>194.1836</ele>
        <time>2019-11-21T20:47:28Z</time>
      </trkpt>
      <trkpt lat="43.1699441" lon="-2.60725835">
        <ele>195.54614</ele>
        <time>2019-11-21T20:47:29Z</time>
      </trkpt>
      <trkpt lat="43.16979158" lon="-2.60696954">
        <ele>197.39178</ele>
        <time>2019-11-21T20:47:30Z</time>
      </trkpt>
      <trkpt lat="43.16950791" lon="-2.60641689">
        <ele>198.67566</ele>
        <time>2019-11-21T20:47:31Z</time>
      </trkpt>
      <trkpt lat="43.16935947" lon="-2.60610009">
        <ele>197.88507</ele>
        <time>2019-11-21T20:47:32Z</time>
      </trkpt>
      <trkpt lat="43.16922872" lon="-2.60579061">
        <ele>197.74664</ele>
        <time>2019-11-21T20:47:33Z</time>
      </trkpt>
      <trkpt lat="43.16910792" lon="-2.60546746">
        <ele>197.93689</ele>
        <time>2019-11-21T20:47:34Z</time>
      </trkpt>
      <trkpt lat="43.16898142" lon="-2.60514449">
        <ele>197.83295</ele>
        <time>2019-11-21T20:47:35Z</time>
      </trkpt>
      <trkpt lat="43.16887613" lon="-2.60483039">
        <ele>197.72827</ele>
        <time>2019-11-21T20:47:36Z</time>
      </trkpt>
      <trkpt lat="43.16876834" lon="-2.60449092">
        <ele>197.18536</ele>
        <time>2019-11-21T20:47:37Z</time>
      </trkpt>
      <trkpt lat="43.16866795" lon="-2.60416832">
        <ele>197.03906</ele>
        <time>2019-11-21T20:47:38Z</time>
      </trkpt>
      <trkpt lat="43.16857917" lon="-2.60383383">
        <ele>196.24146</ele>
        <time>2019-11-21T20:47:39Z</time>
      </trkpt>
      <trkpt lat="43.16848049" lon="-2.60347806">
        <ele>195.91644</ele>
        <time>2019-11-21T20:47:41Z</time>
      </trkpt>
      <trkpt lat="43.16838634" lon="-2.60311411">
        <ele>195.28229</ele>
        <time>2019-11-21T20:47:42Z</time>
      </trkpt>
      <trkpt lat="43.16830441" lon="-2.6027567">
        <ele>194.10791</ele>
        <time>2019-11-21T20:47:43Z</time>
      </trkpt>
      <trkpt lat="43.16822706" lon="-2.60240441">
        <ele>193.08984</ele>
        <time>2019-11-21T20:47:44Z</time>
      </trkpt>
      <trkpt lat="43.16814732" lon="-2.60203941">
        <ele>191.32117</ele>
        <time>2019-11-21T20:47:45Z</time>
      </trkpt>
      <trkpt lat="43.16807062" lon="-2.60167761">
        <ele>190.0307</ele>
        <time>2019-11-21T20:47:46Z</time>
      </trkpt>
      <trkpt lat="43.16799828" lon="-2.60131517">
        <ele>189.09937</ele>
        <time>2019-11-21T20:47:47Z</time>
      </trkpt>
      <trkpt lat="43.16793662" lon="-2.60095596">
        <ele>188.56287</ele>
        <time>2019-11-21T20:47:48Z</time>
      </trkpt>
      <trkpt lat="43.16788094" lon="-2.60060018">
        <ele>188.25928</ele>
        <time>2019-11-21T20:47:49Z</time>
      </trkpt>
      <trkpt lat="43.16783944" lon="-2.60023844">
        <ele>187.48523</ele>
        <time>2019-11-21T20:47:50Z</time>
      </trkpt>
      <trkpt lat="43.16779894" lon="-2.59987458">
        <ele>186.80762</ele>
        <time>2019-11-21T20:47:51Z</time>
      </trkpt>
      <trkpt lat="43.16775902" lon="-2.59951602">
        <ele>186.41486</ele>
        <time>2019-11-21T20:47:52Z</time>
      </trkpt>
      <trkpt lat="43.16770511" lon="-2.59877933">
        <ele>186.5589</ele>
        <time>2019-11-21T20:47:53Z</time>
      </trkpt>
      <trkpt lat="43.16768223" lon="-2.59840412">
        <ele>186.48273</ele>
        <time>2019-11-21T20:47:54Z</time>
      </trkpt>
      <trkpt lat="43.16767166" lon="-2.59803627">
        <ele>186.54626</ele>
        <time>2019-11-21T20:47:55Z</time>
      </trkpt>
      <trkpt lat="43.16766704" lon="-2.59766469">
        <ele>186.67499</ele>
        <time>2019-11-21T20:47:56Z</time>
      </trkpt>
      <trkpt lat="43.16765933" lon="-2.59730723">
        <ele>185.66833</ele>
        <time>2019-11-21T20:47:57Z</time>
      </trkpt>
      <trkpt lat="43.16765553" lon="-2.59694134">
        <ele>185.03357</ele>
        <time>2019-11-21T20:47:58Z</time>
      </trkpt>
      <trkpt lat="43.16766646" lon="-2.59656595">
        <ele>185.32068</ele>
        <time>2019-11-21T20:47:59Z</time>
      </trkpt>
      <trkpt lat="43.16768695" lon="-2.59621606">
        <ele>184.90857</ele>
        <time>2019-11-21T20:48:00Z</time>
      </trkpt>
      <trkpt lat="43.16770231" lon="-2.5958241">
        <ele>185.63696</ele>
        <time>2019-11-21T20:48:02Z</time>
      </trkpt>
      <trkpt lat="43.1677305" lon="-2.59544732">
        <ele>187.5929</ele>
        <time>2019-11-21T20:48:03Z</time>
      </trkpt>
      <trkpt lat="43.16776201" lon="-2.59506475">
        <ele>188.06946</ele>
        <time>2019-11-21T20:48:04Z</time>
      </trkpt>
      <trkpt lat="43.16780191" lon="-2.5946915">
        <ele>190.2439</ele>
        <time>2019-11-21T20:48:05Z</time>
      </trkpt>
      <trkpt lat="43.16784204" lon="-2.59431056">
        <ele>191.6836</ele>
        <time>2019-11-21T20:48:06Z</time>
      </trkpt>
      <trkpt lat="43.16788501" lon="-2.59392732">
        <ele>192.3432</ele>
        <time>2019-11-21T20:48:07Z</time>
      </trkpt>
      <trkpt lat="43.16793696" lon="-2.59355799">
        <ele>193.03992</ele>
        <time>2019-11-21T20:48:08Z</time>
      </trkpt>
      <trkpt lat="43.16800224" lon="-2.59319752">
        <ele>194.70007</ele>
        <time>2019-11-21T20:48:09Z</time>
      </trkpt>
      <trkpt lat="43.1681426" lon="-2.59246801">
        <ele>197.23224</ele>
        <time>2019-11-21T20:48:11Z</time>
      </trkpt>
      <trkpt lat="43.16820717" lon="-2.59211088">
        <ele>198.29358</ele>
        <time>2019-11-21T20:48:12Z</time>
      </trkpt>
      <trkpt lat="43.16835339" lon="-2.59139086">
        <ele>198.66785</ele>
        <time>2019-11-21T20:48:13Z</time>
      </trkpt>
      <trkpt lat="43.16843307" lon="-2.59103478">
        <ele>198.69446</ele>
        <time>2019-11-21T20:48:14Z</time>
      </trkpt>
      <trkpt lat="43.1685131" lon="-2.59065753">
        <ele>198.65472</ele>
        <time>2019-11-21T20:48:15Z</time>
      </trkpt>
      <trkpt lat="43.16860546" lon="-2.59029528">
        <ele>200.2409</ele>
        <time>2019-11-21T20:48:16Z</time>
      </trkpt>
      <trkpt lat="43.168693" lon="-2.58991877">
        <ele>200.97559</ele>
        <time>2019-11-21T20:48:17Z</time>
      </trkpt>
      <trkpt lat="43.16877319" lon="-2.58953826">
        <ele>202.13232</ele>
        <time>2019-11-21T20:48:18Z</time>
      </trkpt>
      <trkpt lat="43.16884608" lon="-2.58916068">
        <ele>202.05524</ele>
        <time>2019-11-21T20:48:19Z</time>
      </trkpt>
      <trkpt lat="43.16891274" lon="-2.58878471">
        <ele>202.54169</ele>
        <time>2019-11-21T20:48:20Z</time>
      </trkpt>
      <trkpt lat="43.16897343" lon="-2.58840752">
        <ele>202.12585</ele>
        <time>2019-11-21T20:48:22Z</time>
      </trkpt>
      <trkpt lat="43.16903455" lon="-2.58804093">
        <ele>202.40381</ele>
        <time>2019-11-21T20:48:23Z</time>
      </trkpt>
      <trkpt lat="43.16908231" lon="-2.58766865">
        <ele>201.9035</ele>
        <time>2019-11-21T20:48:24Z</time>
      </trkpt>
      <trkpt lat="43.16912434" lon="-2.58729057">
        <ele>202.94025</ele>
        <time>2019-11-21T20:48:25Z</time>
      </trkpt>
      <trkpt lat="43.16915808" lon="-2.58691225">
        <ele>203.3855</ele>
        <time>2019-11-21T20:48:26Z</time>
      </trkpt>
      <trkpt lat="43.16918088" lon="-2.58653226">
        <ele>203.54175</ele>
        <time>2019-11-21T20:48:27Z</time>
      </trkpt>
      <trkpt lat="43.16919164" lon="-2.58613723">
        <ele>202.38184</ele>
        <time>2019-11-21T20:48:28Z</time>
      </trkpt>
      <trkpt lat="43.16920617" lon="-2.58574679">
        <ele>201.07812</ele>
        <time>2019-11-21T20:48:29Z</time>
      </trkpt>
      <trkpt lat="43.16918421" lon="-2.58535671">
        <ele>201.23352</ele>
        <time>2019-11-21T20:48:30Z</time>
      </trkpt>
      <trkpt lat="43.16916768" lon="-2.58498243">
        <ele>201.7251</ele>
        <time>2019-11-21T20:48:31Z</time>
      </trkpt>
      <trkpt lat="43.16912572" lon="-2.58459574">
        <ele>203.19104</ele>
        <time>2019-11-21T20:48:32Z</time>
      </trkpt>
      <trkpt lat="43.16907832" lon="-2.58422128">
        <ele>203.02216</ele>
        <time>2019-11-21T20:48:33Z</time>
      </trkpt>
      <trkpt lat="43.16900682" lon="-2.58383525">
        <ele>203.40259</ele>
        <time>2019-11-21T20:48:34Z</time>
      </trkpt>
      <trkpt lat="43.16886159" lon="-2.58310346">
        <ele>204.5534</ele>
        <time>2019-11-21T20:48:35Z</time>
      </trkpt>
      <trkpt lat="43.16878134" lon="-2.58273523">
        <ele>205.40002</ele>
        <time>2019-11-21T20:48:36Z</time>
      </trkpt>
      <trkpt lat="43.16869005" lon="-2.58236922">
        <ele>206.89893</ele>
        <time>2019-11-21T20:48:37Z</time>
      </trkpt>
      <trkpt lat="43.16859824" lon="-2.58201029">
        <ele>207.90375</ele>
        <time>2019-11-21T20:48:38Z</time>
      </trkpt>
      <trkpt lat="43.16850345" lon="-2.58165008">
        <ele>209.43555</ele>
        <time>2019-11-21T20:48:39Z</time>
      </trkpt>
      <trkpt lat="43.16840811" lon="-2.58129049">
        <ele>210.90454</ele>
        <time>2019-11-21T20:48:40Z</time>
      </trkpt>
      <trkpt lat="43.16830354" lon="-2.58092941">
        <ele>211.86078</ele>
        <time>2019-11-21T20:48:41Z</time>
      </trkpt>
      <trkpt lat="43.16819881" lon="-2.58056717">
        <ele>213.07141</ele>
        <time>2019-11-21T20:48:42Z</time>
      </trkpt>
      <trkpt lat="43.1681005" lon="-2.58020905">
        <ele>214.1781</ele>
        <time>2019-11-21T20:48:44Z</time>
      </trkpt>
      <trkpt lat="43.1680063" lon="-2.57984494">
        <ele>215.38824</ele>
        <time>2019-11-21T20:48:45Z</time>
      </trkpt>
      <trkpt lat="43.16791451" lon="-2.57948107">
        <ele>216.305</ele>
        <time>2019-11-21T20:48:46Z</time>
      </trkpt>
      <trkpt lat="43.16783189" lon="-2.57912205">
        <ele>217.04095</ele>
        <time>2019-11-21T20:48:47Z</time>
      </trkpt>
      <trkpt lat="43.16775864" lon="-2.57874572">
        <ele>217.55566</ele>
        <time>2019-11-21T20:48:48Z</time>
      </trkpt>
      <trkpt lat="43.16768915" lon="-2.57836431">
        <ele>219.10864</ele>
        <time>2019-11-21T20:48:49Z</time>
      </trkpt>
      <trkpt lat="43.16762908" lon="-2.57799652">
        <ele>219.2154</ele>
        <time>2019-11-21T20:48:50Z</time>
      </trkpt>
      <trkpt lat="43.16758948" lon="-2.57760681">
        <ele>219.7074</ele>
        <time>2019-11-21T20:48:51Z</time>
      </trkpt>
      <trkpt lat="43.16755532" lon="-2.57722447">
        <ele>219.92053</ele>
        <time>2019-11-21T20:48:52Z</time>
      </trkpt>
      <trkpt lat="43.16753584" lon="-2.57682724">
        <ele>220.40161</ele>
        <time>2019-11-21T20:48:53Z</time>
      </trkpt>
      <trkpt lat="43.16752393" lon="-2.5764398">
        <ele>220.62256</ele>
        <time>2019-11-21T20:48:54Z</time>
      </trkpt>
      <trkpt lat="43.16751955" lon="-2.57566047">
        <ele>220.85431</ele>
        <time>2019-11-21T20:48:55Z</time>
      </trkpt>
      <trkpt lat="43.16754034" lon="-2.57528119">
        <ele>220.15314</ele>
        <time>2019-11-21T20:48:56Z</time>
      </trkpt>
      <trkpt lat="43.16757375" lon="-2.57488963">
        <ele>221.11682</ele>
        <time>2019-11-21T20:48:57Z</time>
      </trkpt>
      <trkpt lat="43.16762445" lon="-2.574495">
        <ele>221.69666</ele>
        <time>2019-11-21T20:48:58Z</time>
      </trkpt>
      <trkpt lat="43.16767763" lon="-2.57409375">
        <ele>221.9126</ele>
        <time>2019-11-21T20:48:59Z</time>
      </trkpt>
      <trkpt lat="43.16772693" lon="-2.57369197">
        <ele>221.56396</ele>
        <time>2019-11-21T20:49:00Z</time>
      </trkpt>
      <trkpt lat="43.16779224" lon="-2.57328727">
        <ele>221.4903</ele>
        <time>2019-11-21T20:49:01Z</time>
      </trkpt>
      <trkpt lat="43.16785204" lon="-2.57289809">
        <ele>220.62787</ele>
        <time>2019-11-21T20:49:02Z</time>
      </trkpt>
      <trkpt lat="43.16792445" lon="-2.57253084">
        <ele>219.91724</ele>
        <time>2019-11-21T20:49:03Z</time>
      </trkpt>
      <trkpt lat="43.1679959" lon="-2.57215465">
        <ele>219.87555</ele>
        <time>2019-11-21T20:49:05Z</time>
      </trkpt>
      <trkpt lat="43.16807047" lon="-2.5717795">
        <ele>219.46411</ele>
        <time>2019-11-21T20:49:06Z</time>
      </trkpt>
      <trkpt lat="43.1681482" lon="-2.57139071">
        <ele>218.04163</ele>
        <time>2019-11-21T20:49:07Z</time>
      </trkpt>
      <trkpt lat="43.16821717" lon="-2.5709973">
        <ele>215.79626</ele>
        <time>2019-11-21T20:49:08Z</time>
      </trkpt>
      <trkpt lat="43.16828484" lon="-2.57061091">
        <ele>215.72571</ele>
        <time>2019-11-21T20:49:09Z</time>
      </trkpt>
      <trkpt lat="43.16834913" lon="-2.57022566">
        <ele>216.1773</ele>
        <time>2019-11-21T20:49:10Z</time>
      </trkpt>
      <trkpt lat="43.16840556" lon="-2.56984608">
        <ele>216.75732</ele>
        <time>2019-11-21T20:49:11Z</time>
      </trkpt>
      <trkpt lat="43.16844512" lon="-2.56946884">
        <ele>216.60822</ele>
        <time>2019-11-21T20:49:12Z</time>
      </trkpt>
      <trkpt lat="43.16848952" lon="-2.56907091">
        <ele>215.64154</ele>
        <time>2019-11-21T20:49:13Z</time>
      </trkpt>
      <trkpt lat="43.16850749" lon="-2.56868792">
        <ele>216.00812</ele>
        <time>2019-11-21T20:49:14Z</time>
      </trkpt>
      <trkpt lat="43.16852442" lon="-2.56831558">
        <ele>216.77087</ele>
        <time>2019-11-21T20:49:15Z</time>
      </trkpt>
      <trkpt lat="43.1685525" lon="-2.56791707">
        <ele>216.23096</ele>
        <time>2019-11-21T20:49:16Z</time>
      </trkpt>
      <trkpt lat="43.16851809" lon="-2.56716101">
        <ele>217.12</ele>
        <time>2019-11-21T20:49:17Z</time>
      </trkpt>
      <trkpt lat="43.16848197" lon="-2.56680941">
        <ele>217.31555</ele>
        <time>2019-11-21T20:49:18Z</time>
      </trkpt>
      <trkpt lat="43.16845381" lon="-2.56646664">
        <ele>217.9801</ele>
        <time>2019-11-21T20:49:19Z</time>
      </trkpt>
      <trkpt lat="43.16839913" lon="-2.56611592">
        <ele>219.62152</ele>
        <time>2019-11-21T20:49:20Z</time>
      </trkpt>
      <trkpt lat="43.16833593" lon="-2.56578959">
        <ele>220.10455</ele>
        <time>2019-11-21T20:49:21Z</time>
      </trkpt>
      <trkpt lat="43.16828201" lon="-2.56546864">
        <ele>220.90692</ele>
        <time>2019-11-21T20:49:22Z</time>
      </trkpt>
      <trkpt lat="43.16821486" lon="-2.56516344">
        <ele>221.30554</ele>
        <time>2019-11-21T20:49:23Z</time>
      </trkpt>
      <trkpt lat="43.16814838" lon="-2.56484656">
        <ele>221.521</ele>
        <time>2019-11-21T20:49:24Z</time>
      </trkpt>
      <trkpt lat="43.16807497" lon="-2.56453187">
        <ele>221.33374</ele>
        <time>2019-11-21T20:49:26Z</time>
      </trkpt>
      <trkpt lat="43.16798772" lon="-2.56420104">
        <ele>222.32977</ele>
        <time>2019-11-21T20:49:27Z</time>
      </trkpt>
      <trkpt lat="43.16789468" lon="-2.56386909">
        <ele>223.09515</ele>
        <time>2019-11-21T20:49:28Z</time>
      </trkpt>
      <trkpt lat="43.16779821" lon="-2.56353615">
        <ele>223.33734</ele>
        <time>2019-11-21T20:49:29Z</time>
      </trkpt>
      <trkpt lat="43.16770842" lon="-2.56319801">
        <ele>224.28058</ele>
        <time>2019-11-21T20:49:30Z</time>
      </trkpt>
      <trkpt lat="43.1676118" lon="-2.56284174">
        <ele>224.4909</ele>
        <time>2019-11-21T20:49:31Z</time>
      </trkpt>
      <trkpt lat="43.16752408" lon="-2.56249082">
        <ele>224.80084</ele>
        <time>2019-11-21T20:49:32Z</time>
      </trkpt>
      <trkpt lat="43.16744993" lon="-2.56212329">
        <ele>225.30994</ele>
        <time>2019-11-21T20:49:33Z</time>
      </trkpt>
      <trkpt lat="43.16737907" lon="-2.56174072">
        <ele>226.49933</ele>
        <time>2019-11-21T20:49:34Z</time>
      </trkpt>
      <trkpt lat="43.16732455" lon="-2.56135994">
        <ele>226.78143</ele>
        <time>2019-11-21T20:49:35Z</time>
      </trkpt>
      <trkpt lat="43.16726891" lon="-2.56097043">
        <ele>226.04065</ele>
        <time>2019-11-21T20:49:36Z</time>
      </trkpt>
      <trkpt lat="43.16719122" lon="-2.56019577">
        <ele>226.25232</ele>
        <time>2019-11-21T20:49:37Z</time>
      </trkpt>
      <trkpt lat="43.16718052" lon="-2.55981166">
        <ele>225.59308</ele>
        <time>2019-11-21T20:49:38Z</time>
      </trkpt>
      <trkpt lat="43.16718829" lon="-2.55943979">
        <ele>225.28198</ele>
        <time>2019-11-21T20:49:39Z</time>
      </trkpt>
      <trkpt lat="43.16720048" lon="-2.55903861">
        <ele>225.43726</ele>
        <time>2019-11-21T20:49:40Z</time>
      </trkpt>
      <trkpt lat="43.16722225" lon="-2.55865114">
        <ele>225.76526</ele>
        <time>2019-11-21T20:49:41Z</time>
      </trkpt>
      <trkpt lat="43.16724651" lon="-2.55824844">
        <ele>227.4129</ele>
        <time>2019-11-21T20:49:42Z</time>
      </trkpt>
      <trkpt lat="43.16727065" lon="-2.55786632">
        <ele>227.15405</ele>
        <time>2019-11-21T20:49:43Z</time>
      </trkpt>
      <trkpt lat="43.16730115" lon="-2.55747846">
        <ele>228.72388</ele>
        <time>2019-11-21T20:49:44Z</time>
      </trkpt>
      <trkpt lat="43.16732523" lon="-2.55709972">
        <ele>229.08112</ele>
        <time>2019-11-21T20:49:46Z</time>
      </trkpt>
      <trkpt lat="43.16734115" lon="-2.55670951">
        <ele>229.38464</ele>
        <time>2019-11-21T20:49:47Z</time>
      </trkpt>
      <trkpt lat="43.16735119" lon="-2.55631331">
        <ele>227.90204</ele>
        <time>2019-11-21T20:49:48Z</time>
      </trkpt>
      <trkpt lat="43.16734573" lon="-2.55590965">
        <ele>229.02673</ele>
        <time>2019-11-21T20:49:49Z</time>
      </trkpt>
      <trkpt lat="43.16733372" lon="-2.55552547">
        <ele>230.74365</ele>
        <time>2019-11-21T20:49:50Z</time>
      </trkpt>
      <trkpt lat="43.167325" lon="-2.55514454">
        <ele>232.96832</ele>
        <time>2019-11-21T20:49:51Z</time>
      </trkpt>
      <trkpt lat="43.16730828" lon="-2.55477086">
        <ele>234.70917</ele>
        <time>2019-11-21T20:49:52Z</time>
      </trkpt>
      <trkpt lat="43.16729005" lon="-2.5543754">
        <ele>236.19861</ele>
        <time>2019-11-21T20:49:53Z</time>
      </trkpt>
      <trkpt lat="43.16727278" lon="-2.5539842">
        <ele>236.87671</ele>
        <time>2019-11-21T20:49:54Z</time>
      </trkpt>
      <trkpt lat="43.16724678" lon="-2.55359204">
        <ele>236.78833</ele>
        <time>2019-11-21T20:49:55Z</time>
      </trkpt>
      <trkpt lat="43.16724952" lon="-2.55321055">
        <ele>237.30322</ele>
        <time>2019-11-21T20:49:56Z</time>
      </trkpt>
      <trkpt lat="43.16727747" lon="-2.55241364">
        <ele>235.56775</ele>
        <time>2019-11-21T20:49:57Z</time>
      </trkpt>
      <trkpt lat="43.16730962" lon="-2.55202467">
        <ele>236.6665</ele>
        <time>2019-11-21T20:49:58Z</time>
      </trkpt>
      <trkpt lat="43.167351" lon="-2.55162932">
        <ele>238.16455</ele>
        <time>2019-11-21T20:49:59Z</time>
      </trkpt>
      <trkpt lat="43.16739385" lon="-2.55123646">
        <ele>238.9325</ele>
        <time>2019-11-21T20:50:00Z</time>
      </trkpt>
      <trkpt lat="43.16745089" lon="-2.55085638">
        <ele>239.57507</ele>
        <time>2019-11-21T20:50:01Z</time>
      </trkpt>
      <trkpt lat="43.16750287" lon="-2.55046916">
        <ele>240.87848</ele>
        <time>2019-11-21T20:50:02Z</time>
      </trkpt>
      <trkpt lat="43.16754945" lon="-2.55007502">
        <ele>242.74835</ele>
        <time>2019-11-21T20:50:03Z</time>
      </trkpt>
      <trkpt lat="43.16760864" lon="-2.5496787">
        <ele>243.36499</ele>
        <time>2019-11-21T20:50:04Z</time>
      </trkpt>
      <trkpt lat="43.16765467" lon="-2.54930187">
        <ele>244.01416</ele>
        <time>2019-11-21T20:50:06Z</time>
      </trkpt>
      <trkpt lat="43.16768077" lon="-2.54891737">
        <ele>245.07776</ele>
        <time>2019-11-21T20:50:07Z</time>
      </trkpt>
      <trkpt lat="43.16770114" lon="-2.54854237">
        <ele>245.38531</ele>
        <time>2019-11-21T20:50:08Z</time>
      </trkpt>
      <trkpt lat="43.16770552" lon="-2.54818649">
        <ele>246.54779</ele>
        <time>2019-11-21T20:50:09Z</time>
      </trkpt>
      <trkpt lat="43.16771671" lon="-2.54783724">
        <ele>245.07208</ele>
        <time>2019-11-21T20:50:10Z</time>
      </trkpt>
      <trkpt lat="43.16772183" lon="-2.54751341">
        <ele>245.6576</ele>
        <time>2019-11-21T20:50:11Z</time>
      </trkpt>
      <trkpt lat="43.1677021" lon="-2.54718569">
        <ele>247.08777</ele>
        <time>2019-11-21T20:50:12Z</time>
      </trkpt>
      <trkpt lat="43.16770298" lon="-2.54686793">
        <ele>248.60712</ele>
        <time>2019-11-21T20:50:13Z</time>
      </trkpt>
      <trkpt lat="43.1677129" lon="-2.54654961">
        <ele>249.74603</ele>
        <time>2019-11-21T20:50:14Z</time>
      </trkpt>
      <trkpt lat="43.16773357" lon="-2.54624515">
        <ele>251.23975</ele>
        <time>2019-11-21T20:50:15Z</time>
      </trkpt>
      <trkpt lat="43.16780496" lon="-2.54564409">
        <ele>254.56335</ele>
        <time>2019-11-21T20:50:16Z</time>
      </trkpt>
      <trkpt lat="43.16787572" lon="-2.54535081">
        <ele>256.4389</ele>
        <time>2019-11-21T20:50:17Z</time>
      </trkpt>
      <trkpt lat="43.16794908" lon="-2.54506153">
        <ele>258.18408</ele>
        <time>2019-11-21T20:50:18Z</time>
      </trkpt>
      <trkpt lat="43.16802326" lon="-2.54477563">
        <ele>258.9729</ele>
        <time>2019-11-21T20:50:19Z</time>
      </trkpt>
      <trkpt lat="43.16810805" lon="-2.54448828">
        <ele>260.58887</ele>
        <time>2019-11-21T20:50:20Z</time>
      </trkpt>
      <trkpt lat="43.16822665" lon="-2.54424282">
        <ele>260.82104</ele>
        <time>2019-11-21T20:50:21Z</time>
      </trkpt>
      <trkpt lat="43.16835028" lon="-2.5439596">
        <ele>261.6471</ele>
        <time>2019-11-21T20:50:22Z</time>
      </trkpt>
      <trkpt lat="43.16847945" lon="-2.54372024">
        <ele>262.7047</ele>
        <time>2019-11-21T20:50:23Z</time>
      </trkpt>
      <trkpt lat="43.16862013" lon="-2.54347459">
        <ele>264.4436</ele>
        <time>2019-11-21T20:50:24Z</time>
      </trkpt>
      <trkpt lat="43.16877127" lon="-2.54322249">
        <ele>265.81183</ele>
        <time>2019-11-21T20:50:26Z</time>
      </trkpt>
      <trkpt lat="43.16892694" lon="-2.5429908">
        <ele>266.5116</ele>
        <time>2019-11-21T20:50:27Z</time>
      </trkpt>
      <trkpt lat="43.16908795" lon="-2.54276277">
        <ele>267.8429</ele>
        <time>2019-11-21T20:50:28Z</time>
      </trkpt>
      <trkpt lat="43.16924504" lon="-2.54251914">
        <ele>269.4944</ele>
        <time>2019-11-21T20:50:29Z</time>
      </trkpt>
      <trkpt lat="43.16940867" lon="-2.54228882">
        <ele>269.6223</ele>
        <time>2019-11-21T20:50:30Z</time>
      </trkpt>
      <trkpt lat="43.16957175" lon="-2.54205541">
        <ele>271.7633</ele>
        <time>2019-11-21T20:50:31Z</time>
      </trkpt>
      <trkpt lat="43.16973351" lon="-2.54182439">
        <ele>273.10602</ele>
        <time>2019-11-21T20:50:32Z</time>
      </trkpt>
      <trkpt lat="43.16990029" lon="-2.54158729">
        <ele>274.4845</ele>
        <time>2019-11-21T20:50:33Z</time>
      </trkpt>
      <trkpt lat="43.17005775" lon="-2.54134107">
        <ele>275.88318</ele>
        <time>2019-11-21T20:50:34Z</time>
      </trkpt>
      <trkpt lat="43.17020933" lon="-2.5410848">
        <ele>276.59326</ele>
        <time>2019-11-21T20:50:35Z</time>
      </trkpt>
      <trkpt lat="43.17048698" lon="-2.54056473">
        <ele>277.94775</ele>
        <time>2019-11-21T20:50:36Z</time>
      </trkpt>
      <trkpt lat="43.17061202" lon="-2.54028891">
        <ele>278.6142</ele>
        <time>2019-11-21T20:50:37Z</time>
      </trkpt>
      <trkpt lat="43.17073337" lon="-2.54002047">
        <ele>278.96252</ele>
        <time>2019-11-21T20:50:38Z</time>
      </trkpt>
      <trkpt lat="43.17088264" lon="-2.53980248">
        <ele>278.42883</ele>
        <time>2019-11-21T20:50:39Z</time>
      </trkpt>
      <trkpt lat="43.17099294" lon="-2.53955465">
        <ele>279.66504</ele>
        <time>2019-11-21T20:50:40Z</time>
      </trkpt>
      <trkpt lat="43.17101231" lon="-2.53927769">
        <ele>281.4015</ele>
        <time>2019-11-21T20:50:41Z</time>
      </trkpt>
      <trkpt lat="43.17107458" lon="-2.53900747">
        <ele>281.96155</ele>
        <time>2019-11-21T20:50:42Z</time>
      </trkpt>
      <trkpt lat="43.17113877" lon="-2.53875217">
        <ele>281.59088</ele>
        <time>2019-11-21T20:50:43Z</time>
      </trkpt>
      <trkpt lat="43.17120979" lon="-2.53848844">
        <ele>282.45337</ele>
        <time>2019-11-21T20:50:44Z</time>
      </trkpt>
      <trkpt lat="43.17122238" lon="-2.53820338">
        <ele>283.37158</ele>
        <time>2019-11-21T20:50:45Z</time>
      </trkpt>
      <trkpt lat="43.17125204" lon="-2.53794441">
        <ele>283.06024</ele>
        <time>2019-11-21T20:50:46Z</time>
      </trkpt>
      <trkpt lat="43.17123703" lon="-2.53766749">
        <ele>281.6427</ele>
        <time>2019-11-21T20:50:48Z</time>
      </trkpt>
      <trkpt lat="43.17124749" lon="-2.53740443">
        <ele>281.5769</ele>
        <time>2019-11-21T20:50:49Z</time>
      </trkpt>
      <trkpt lat="43.17124093" lon="-2.53715605">
        <ele>282.30377</ele>
        <time>2019-11-21T20:50:50Z</time>
      </trkpt>
      <trkpt lat="43.17124207" lon="-2.5369106">
        <ele>282.44287</ele>
        <time>2019-11-21T20:50:51Z</time>
      </trkpt>
      <trkpt lat="43.1712452" lon="-2.53665133">
        <ele>274.92078</ele>
        <time>2019-11-21T20:50:52Z</time>
      </trkpt>
      <trkpt lat="43.17124064" lon="-2.53639519">
        <ele>278.14148</ele>
        <time>2019-11-21T20:50:53Z</time>
      </trkpt>
      <trkpt lat="43.17121996" lon="-2.53614191">
        <ele>279.24744</ele>
        <time>2019-11-21T20:50:54Z</time>
      </trkpt>
      <trkpt lat="43.17120094" lon="-2.53588171">
        <ele>279.91028</ele>
        <time>2019-11-21T20:50:55Z</time>
      </trkpt>
      <trkpt lat="43.17119763" lon="-2.53563471">
        <ele>282.19733</ele>
        <time>2019-11-21T20:50:56Z</time>
      </trkpt>
      <trkpt lat="43.17120571" lon="-2.53536795">
        <ele>282.8471</ele>
        <time>2019-11-21T20:50:57Z</time>
      </trkpt>
      <trkpt lat="43.17122125" lon="-2.53509941">
        <ele>282.60278</ele>
        <time>2019-11-21T20:50:58Z</time>
      </trkpt>
      <trkpt lat="43.17124205" lon="-2.53482391">
        <ele>283.20123</ele>
        <time>2019-11-21T20:50:59Z</time>
      </trkpt>
      <trkpt lat="43.17129265" lon="-2.53455749">
        <ele>282.3963</ele>
        <time>2019-11-21T20:51:00Z</time>
      </trkpt>
      <trkpt lat="43.17134477" lon="-2.53428876">
        <ele>282.68335</ele>
        <time>2019-11-21T20:51:01Z</time>
      </trkpt>
      <trkpt lat="43.17141236" lon="-2.53403124">
        <ele>283.03174</ele>
        <time>2019-11-21T20:51:02Z</time>
      </trkpt>
      <trkpt lat="43.17165203" lon="-2.53362355">
        <ele>285.083</ele>
        <time>2019-11-21T20:51:03Z</time>
      </trkpt>
      <trkpt lat="43.17177346" lon="-2.53339202">
        <ele>286.73645</ele>
        <time>2019-11-21T20:51:04Z</time>
      </trkpt>
      <trkpt lat="43.17190234" lon="-2.53317206">
        <ele>286.7782</ele>
        <time>2019-11-21T20:51:05Z</time>
      </trkpt>
      <trkpt lat="43.17205424" lon="-2.5329669">
        <ele>287.5631</ele>
        <time>2019-11-21T20:51:06Z</time>
      </trkpt>
      <trkpt lat="43.17219956" lon="-2.53276997">
        <ele>287.75604</ele>
        <time>2019-11-21T20:51:07Z</time>
      </trkpt>
      <trkpt lat="43.17234865" lon="-2.53257945">
        <ele>287.94263</ele>
        <time>2019-11-21T20:51:08Z</time>
      </trkpt>
      <trkpt lat="43.17249647" lon="-2.53239065">
        <ele>287.93475</ele>
        <time>2019-11-21T20:51:09Z</time>
      </trkpt>
      <trkpt lat="43.172643184661865" lon="-2.532203793525696">
        <ele>0.0</ele>
        <time>2019-11-21T20:51:10Z</time>
      </trkpt>
      <trkpt lat="43.17654299" lon="-2.52753874">
        <ele>285.02887</ele>
        <time>2019-11-21T20:51:36Z</time>
      </trkpt>
      <trkpt lat="43.17666" lon="-2.52730917">
        <ele>288.15015</ele>
        <time>2019-11-21T20:51:37Z</time>
      </trkpt>
      <trkpt lat="43.17675557" lon="-2.52707033">
        <ele>289.07654</ele>
        <time>2019-11-21T20:51:38Z</time>
      </trkpt>
      <trkpt lat="43.17684576" lon="-2.52685915">
        <ele>289.75574</ele>
        <time>2019-11-21T20:51:39Z</time>
      </trkpt>
      <trkpt lat="43.17691617" lon="-2.52659677">
        <ele>291.0838</ele>
        <time>2019-11-21T20:51:40Z</time>
      </trkpt>
      <trkpt lat="43.17697691" lon="-2.52630293">
        <ele>293.05444</ele>
        <time>2019-11-21T20:51:41Z</time>
      </trkpt>
      <trkpt lat="43.17699076" lon="-2.52601363">
        <ele>293.27332</ele>
        <time>2019-11-21T20:51:42Z</time>
      </trkpt>
      <trkpt lat="43.17697938" lon="-2.52571533">
        <ele>292.52966</ele>
        <time>2019-11-21T20:51:43Z</time>
      </trkpt>
      <trkpt lat="43.17698438" lon="-2.5254301">
        <ele>294.026</ele>
        <time>2019-11-21T20:51:44Z</time>
      </trkpt>
      <trkpt lat="43.17694903" lon="-2.52514784">
        <ele>294.51624</ele>
        <time>2019-11-21T20:51:45Z</time>
      </trkpt>
      <trkpt lat="43.17689246" lon="-2.52485685">
        <ele>294.21698</ele>
        <time>2019-11-21T20:51:46Z</time>
      </trkpt>
      <trkpt lat="43.17680829" lon="-2.52455736">
        <ele>293.03918</ele>
        <time>2019-11-21T20:51:48Z</time>
      </trkpt>
      <trkpt lat="43.17673589" lon="-2.5242562">
        <ele>293.352</ele>
        <time>2019-11-21T20:51:49Z</time>
      </trkpt>
      <trkpt lat="43.17667763" lon="-2.52394967">
        <ele>292.9641</ele>
        <time>2019-11-21T20:51:50Z</time>
      </trkpt>
      <trkpt lat="43.17657151" lon="-2.5236026">
        <ele>291.78137</ele>
        <time>2019-11-21T20:51:51Z</time>
      </trkpt>
      <trkpt lat="43.1764681" lon="-2.52327335">
        <ele>290.82556</ele>
        <time>2019-11-21T20:51:52Z</time>
      </trkpt>
      <trkpt lat="43.17637969" lon="-2.52294968">
        <ele>289.83264</ele>
        <time>2019-11-21T20:51:53Z</time>
      </trkpt>
      <trkpt lat="43.17629733" lon="-2.52261385">
        <ele>287.70013</ele>
        <time>2019-11-21T20:51:54Z</time>
      </trkpt>
      <trkpt lat="43.17621851" lon="-2.52226377">
        <ele>286.90887</ele>
        <time>2019-11-21T20:51:55Z</time>
      </trkpt>
      <trkpt lat="43.1761254" lon="-2.52189918">
        <ele>285.8286</ele>
        <time>2019-11-21T20:51:56Z</time>
      </trkpt>
      <trkpt lat="43.17605296" lon="-2.5215323">
        <ele>284.63196</ele>
        <time>2019-11-21T20:51:57Z</time>
      </trkpt>
      <trkpt lat="43.17597981" lon="-2.52118194">
        <ele>283.448</ele>
        <time>2019-11-21T20:51:58Z</time>
      </trkpt>
      <trkpt lat="43.17590534" lon="-2.52082977">
        <ele>282.36084</ele>
        <time>2019-11-21T20:51:59Z</time>
      </trkpt>
      <trkpt lat="43.17583633" lon="-2.52045631">
        <ele>280.0423</ele>
        <time>2019-11-21T20:52:00Z</time>
      </trkpt>
      <trkpt lat="43.17572833" lon="-2.52004979">
        <ele>276.99634</ele>
        <time>2019-11-21T20:52:01Z</time>
      </trkpt>
      <trkpt lat="43.17567149" lon="-2.51967338">
        <ele>274.96997</ele>
        <time>2019-11-21T20:52:02Z</time>
      </trkpt>
      <trkpt lat="43.17561257" lon="-2.51929875">
        <ele>273.7271</ele>
        <time>2019-11-21T20:52:03Z</time>
      </trkpt>
      <trkpt lat="43.17555097" lon="-2.51891894">
        <ele>272.7705</ele>
        <time>2019-11-21T20:52:04Z</time>
      </trkpt>
      <trkpt lat="43.17548726" lon="-2.51853422">
        <ele>271.94995</ele>
        <time>2019-11-21T20:52:05Z</time>
      </trkpt>
      <trkpt lat="43.17538051" lon="-2.51775735">
        <ele>269.24945</ele>
        <time>2019-11-21T20:52:06Z</time>
      </trkpt>
      <trkpt lat="43.17532979" lon="-2.51735313">
        <ele>268.37213</ele>
        <time>2019-11-21T20:52:07Z</time>
      </trkpt>
      <trkpt lat="43.17526197" lon="-2.51695443">
        <ele>268.27808</ele>
        <time>2019-11-21T20:52:08Z</time>
      </trkpt>
      <trkpt lat="43.17523181" lon="-2.51656387">
        <ele>267.56396</ele>
        <time>2019-11-21T20:52:09Z</time>
      </trkpt>
      <trkpt lat="43.17518542" lon="-2.51616667">
        <ele>266.93542</ele>
        <time>2019-11-21T20:52:10Z</time>
      </trkpt>
      <trkpt lat="43.17514923" lon="-2.51575652">
        <ele>266.5688</ele>
        <time>2019-11-21T20:52:11Z</time>
      </trkpt>
      <trkpt lat="43.17511561" lon="-2.51536274">
        <ele>265.57324</ele>
        <time>2019-11-21T20:52:12Z</time>
      </trkpt>
      <trkpt lat="43.17508147" lon="-2.51496889">
        <ele>264.3905</ele>
        <time>2019-11-21T20:52:13Z</time>
      </trkpt>
      <trkpt lat="43.17505051" lon="-2.51458558">
        <ele>262.7127</ele>
        <time>2019-11-21T20:52:14Z</time>
      </trkpt>
      <trkpt lat="43.17501491" lon="-2.51420922">
        <ele>261.69434</ele>
        <time>2019-11-21T20:52:16Z</time>
      </trkpt>
      <trkpt lat="43.1749748" lon="-2.51382703">
        <ele>261.32227</ele>
        <time>2019-11-21T20:52:17Z</time>
      </trkpt>
      <trkpt lat="43.17494358" lon="-2.51346195">
        <ele>260.29224</ele>
        <time>2019-11-21T20:52:18Z</time>
      </trkpt>
      <trkpt lat="43.17491287" lon="-2.51308935">
        <ele>260.5047</ele>
        <time>2019-11-21T20:52:19Z</time>
      </trkpt>
      <trkpt lat="43.17485181" lon="-2.51236124">
        <ele>259.88647</ele>
        <time>2019-11-21T20:52:20Z</time>
      </trkpt>
      <trkpt lat="43.17482772" lon="-2.51201673">
        <ele>259.7246</ele>
        <time>2019-11-21T20:52:21Z</time>
      </trkpt>
      <trkpt lat="43.17477699" lon="-2.51165834">
        <ele>259.13037</ele>
        <time>2019-11-21T20:52:22Z</time>
      </trkpt>
      <trkpt lat="43.17473549" lon="-2.51128477">
        <ele>258.46643</ele>
        <time>2019-11-21T20:52:23Z</time>
      </trkpt>
      <trkpt lat="43.17470681" lon="-2.51093883">
        <ele>258.04462</ele>
        <time>2019-11-21T20:52:25Z</time>
      </trkpt>
      <trkpt lat="43.174651" lon="-2.51059497">
        <ele>256.8664</ele>
        <time>2019-11-21T20:52:26Z</time>
      </trkpt>
      <trkpt lat="43.17454777" lon="-2.50991299">
        <ele>255.46008</ele>
        <time>2019-11-21T20:52:28Z</time>
      </trkpt>
      <trkpt lat="43.17451264" lon="-2.50955481">
        <ele>253.84528</ele>
        <time>2019-11-21T20:52:29Z</time>
      </trkpt>
      <trkpt lat="43.17447964" lon="-2.50919466">
        <ele>252.41711</ele>
        <time>2019-11-21T20:52:30Z</time>
      </trkpt>
      <trkpt lat="43.17443312" lon="-2.50882779">
        <ele>252.23694</ele>
        <time>2019-11-21T20:52:31Z</time>
      </trkpt>
      <trkpt lat="43.17447053" lon="-2.50850648">
        <ele>251.83691</ele>
        <time>2019-11-21T20:52:32Z</time>
      </trkpt>
      <trkpt lat="43.17444571" lon="-2.50816801">
        <ele>249.7876</ele>
        <time>2019-11-21T20:52:33Z</time>
      </trkpt>
      <trkpt lat="43.17445864" lon="-2.50783869">
        <ele>249.81525</ele>
        <time>2019-11-21T20:52:34Z</time>
      </trkpt>
      <trkpt lat="43.17449326" lon="-2.50753348">
        <ele>248.8778</ele>
        <time>2019-11-21T20:52:35Z</time>
      </trkpt>
      <trkpt lat="43.1745691" lon="-2.50694243">
        <ele>244.80585</ele>
        <time>2019-11-21T20:52:36Z</time>
      </trkpt>
      <trkpt lat="43.17463738" lon="-2.50664616">
        <ele>243.50494</ele>
        <time>2019-11-21T20:52:37Z</time>
      </trkpt>
      <trkpt lat="43.17475512" lon="-2.50639191">
        <ele>243.50482</ele>
        <time>2019-11-21T20:52:38Z</time>
      </trkpt>
      <trkpt lat="43.17486248" lon="-2.50613882">
        <ele>243.00018</ele>
        <time>2019-11-21T20:52:39Z</time>
      </trkpt>
      <trkpt lat="43.17500133" lon="-2.5059043">
        <ele>241.07904</ele>
        <time>2019-11-21T20:52:40Z</time>
      </trkpt>
      <trkpt lat="43.1751375" lon="-2.50565955">
        <ele>239.82983</ele>
        <time>2019-11-21T20:52:41Z</time>
      </trkpt>
      <trkpt lat="43.17530494" lon="-2.50544637">
        <ele>239.6947</ele>
        <time>2019-11-21T20:52:42Z</time>
      </trkpt>
      <trkpt lat="43.17546567" lon="-2.50524235">
        <ele>237.84924</ele>
        <time>2019-11-21T20:52:43Z</time>
      </trkpt>
      <trkpt lat="43.17562519" lon="-2.50502656">
        <ele>237.59308</ele>
        <time>2019-11-21T20:52:44Z</time>
      </trkpt>
      <trkpt lat="43.17579469" lon="-2.50482711">
        <ele>236.72583</ele>
        <time>2019-11-21T20:52:45Z</time>
      </trkpt>
      <trkpt lat="43.17595215" lon="-2.50460511">
        <ele>236.29578</ele>
        <time>2019-11-21T20:52:47Z</time>
      </trkpt>
      <trkpt lat="43.17610263" lon="-2.50437613">
        <ele>235.83325</ele>
        <time>2019-11-21T20:52:48Z</time>
      </trkpt>
      <trkpt lat="43.17624543" lon="-2.50413915">
        <ele>235.4635</ele>
        <time>2019-11-21T20:52:49Z</time>
      </trkpt>
      <trkpt lat="43.17649274" lon="-2.50362948">
        <ele>234.77905</ele>
        <time>2019-11-21T20:52:50Z</time>
      </trkpt>
      <trkpt lat="43.17659333" lon="-2.5033403">
        <ele>234.23535</ele>
        <time>2019-11-21T20:52:51Z</time>
      </trkpt>
      <trkpt lat="43.17666526" lon="-2.50302212">
        <ele>233.67908</ele>
        <time>2019-11-21T20:52:52Z</time>
      </trkpt>
      <trkpt lat="43.17673138" lon="-2.50269926">
        <ele>233.22595</ele>
        <time>2019-11-21T20:52:53Z</time>
      </trkpt>
      <trkpt lat="43.17675886" lon="-2.50236828">
        <ele>230.62549</ele>
        <time>2019-11-21T20:52:54Z</time>
      </trkpt>
      <trkpt lat="43.17678233" lon="-2.5020426">
        <ele>230.22137</ele>
        <time>2019-11-21T20:52:55Z</time>
      </trkpt>
      <trkpt lat="43.17680174" lon="-2.50172964">
        <ele>230.63477</ele>
        <time>2019-11-21T20:52:56Z</time>
      </trkpt>
      <trkpt lat="43.17678123" lon="-2.50139979">
        <ele>230.44568</ele>
        <time>2019-11-21T20:52:57Z</time>
      </trkpt>
      <trkpt lat="43.17677011" lon="-2.50108779">
        <ele>230.12683</ele>
        <time>2019-11-21T20:52:58Z</time>
      </trkpt>
      <trkpt lat="43.17673718" lon="-2.50076831">
        <ele>229.98462</ele>
        <time>2019-11-21T20:52:59Z</time>
      </trkpt>
      <trkpt lat="43.17672128" lon="-2.50046045">
        <ele>230.25366</ele>
        <time>2019-11-21T20:53:00Z</time>
      </trkpt>
      <trkpt lat="43.17670746" lon="-2.50014356">
        <ele>230.20593</ele>
        <time>2019-11-21T20:53:01Z</time>
      </trkpt>
      <trkpt lat="43.17671077" lon="-2.49984321">
        <ele>227.83014</ele>
        <time>2019-11-21T20:53:02Z</time>
      </trkpt>
      <trkpt lat="43.17671276" lon="-2.49951817">
        <ele>207.21765</ele>
        <time>2019-11-21T20:53:04Z</time>
      </trkpt>
      <trkpt lat="43.1767569" lon="-2.49920303">
        <ele>213.34802</ele>
        <time>2019-11-21T20:53:05Z</time>
      </trkpt>
      <trkpt lat="43.17679655" lon="-2.49889707">
        <ele>217.29578</ele>
        <time>2019-11-21T20:53:06Z</time>
      </trkpt>
      <trkpt lat="43.17686383" lon="-2.49858142">
        <ele>219.56256</ele>
        <time>2019-11-21T20:53:07Z</time>
      </trkpt>
      <trkpt lat="43.17696808" lon="-2.4983078">
        <ele>221.1164</ele>
        <time>2019-11-21T20:53:08Z</time>
      </trkpt>
      <trkpt lat="43.17704551" lon="-2.49802473">
        <ele>220.08923</ele>
        <time>2019-11-21T20:53:09Z</time>
      </trkpt>
      <trkpt lat="43.17712797" lon="-2.49774391">
        <ele>220.0227</ele>
        <time>2019-11-21T20:53:10Z</time>
      </trkpt>
      <trkpt lat="43.1772285" lon="-2.49745483">
        <ele>221.38342</ele>
        <time>2019-11-21T20:53:11Z</time>
      </trkpt>
      <trkpt lat="43.17727368" lon="-2.49717967">
        <ele>217.28668</ele>
        <time>2019-11-21T20:53:12Z</time>
      </trkpt>
      <trkpt lat="43.17735152" lon="-2.49689474">
        <ele>218.31769</ele>
        <time>2019-11-21T20:53:13Z</time>
      </trkpt>
      <trkpt lat="43.17742202" lon="-2.49661712">
        <ele>218.60321</ele>
        <time>2019-11-21T20:53:14Z</time>
      </trkpt>
      <trkpt lat="43.17747353" lon="-2.4963321">
        <ele>219.30682</ele>
        <time>2019-11-21T20:53:15Z</time>
      </trkpt>
      <trkpt lat="43.17751025" lon="-2.49605512">
        <ele>219.42963</ele>
        <time>2019-11-21T20:53:16Z</time>
      </trkpt>
      <trkpt lat="43.17750411" lon="-2.49576014">
        <ele>218.63055</ele>
        <time>2019-11-21T20:53:17Z</time>
      </trkpt>
      <trkpt lat="43.17750051" lon="-2.49548161">
        <ele>218.97168</ele>
        <time>2019-11-21T20:53:18Z</time>
      </trkpt>
      <trkpt lat="43.17747891" lon="-2.49522559">
        <ele>215.54218</ele>
        <time>2019-11-21T20:53:19Z</time>
      </trkpt>
      <trkpt lat="43.17743229" lon="-2.49470926">
        <ele>217.94067</ele>
        <time>2019-11-21T20:53:20Z</time>
      </trkpt>
      <trkpt lat="43.17736682" lon="-2.49442241">
        <ele>218.81354</ele>
        <time>2019-11-21T20:53:21Z</time>
      </trkpt>
      <trkpt lat="43.1772669" lon="-2.49411291">
        <ele>218.91052</ele>
        <time>2019-11-21T20:53:22Z</time>
      </trkpt>
      <trkpt lat="43.17720705" lon="-2.49383507">
        <ele>219.4627</ele>
        <time>2019-11-21T20:53:23Z</time>
      </trkpt>
      <trkpt lat="43.17715264" lon="-2.49354976">
        <ele>219.97528</ele>
        <time>2019-11-21T20:53:24Z</time>
      </trkpt>
      <trkpt lat="43.17711956" lon="-2.49326388">
        <ele>220.87476</ele>
        <time>2019-11-21T20:53:25Z</time>
      </trkpt>
      <trkpt lat="43.17709358" lon="-2.4929607">
        <ele>221.24377</ele>
        <time>2019-11-21T20:53:26Z</time>
      </trkpt>
      <trkpt lat="43.17708881" lon="-2.49266643">
        <ele>221.18683</ele>
        <time>2019-11-21T20:53:27Z</time>
      </trkpt>
      <trkpt lat="43.17709877" lon="-2.49235768">
        <ele>220.7284</ele>
        <time>2019-11-21T20:53:28Z</time>
      </trkpt>
      <trkpt lat="43.17712696" lon="-2.49205162">
        <ele>220.25879</ele>
        <time>2019-11-21T20:53:29Z</time>
      </trkpt>
      <trkpt lat="43.17721262" lon="-2.49179043">
        <ele>220.83948</ele>
        <time>2019-11-21T20:53:30Z</time>
      </trkpt>
      <trkpt lat="43.17725308" lon="-2.49148143">
        <ele>220.27765</ele>
        <time>2019-11-21T20:53:31Z</time>
      </trkpt>
      <trkpt lat="43.17732643" lon="-2.49120018">
        <ele>218.13647</ele>
        <time>2019-11-21T20:53:32Z</time>
      </trkpt>
      <trkpt lat="43.17739406" lon="-2.49092406">
        <ele>216.09601</ele>
        <time>2019-11-21T20:53:34Z</time>
      </trkpt>
      <trkpt lat="43.17749454" lon="-2.49066019">
        <ele>215.89343</ele>
        <time>2019-11-21T20:53:35Z</time>
      </trkpt>
      <trkpt lat="43.17761251" lon="-2.49043187">
        <ele>215.07526</ele>
        <time>2019-11-21T20:53:36Z</time>
      </trkpt>
      <trkpt lat="43.17773419" lon="-2.49020545">
        <ele>213.25647</ele>
        <time>2019-11-21T20:53:37Z</time>
      </trkpt>
      <trkpt lat="43.17786529" lon="-2.48996024">
        <ele>213.74011</ele>
        <time>2019-11-21T20:53:38Z</time>
      </trkpt>
      <trkpt lat="43.17801438" lon="-2.48973">
        <ele>215.2201</ele>
        <time>2019-11-21T20:53:39Z</time>
      </trkpt>
      <trkpt lat="43.17814991" lon="-2.48947778">
        <ele>214.45343</ele>
        <time>2019-11-21T20:53:40Z</time>
      </trkpt>
      <trkpt lat="43.17828187" lon="-2.48924573">
        <ele>213.80359</ele>
        <time>2019-11-21T20:53:41Z</time>
      </trkpt>
      <trkpt lat="43.17840466" lon="-2.48899156">
        <ele>214.16193</ele>
        <time>2019-11-21T20:53:42Z</time>
      </trkpt>
      <trkpt lat="43.17851527" lon="-2.48873775">
        <ele>213.57098</ele>
        <time>2019-11-21T20:53:43Z</time>
      </trkpt>
      <trkpt lat="43.17862487" lon="-2.48845666">
        <ele>213.39258</ele>
        <time>2019-11-21T20:53:44Z</time>
      </trkpt>
      <trkpt lat="43.17871512" lon="-2.48818098">
        <ele>212.31018</ele>
        <time>2019-11-21T20:53:45Z</time>
      </trkpt>
      <trkpt lat="43.1788138" lon="-2.48788483">
        <ele>212.90344</ele>
        <time>2019-11-21T20:53:46Z</time>
      </trkpt>
      <trkpt lat="43.178894" lon="-2.4875854">
        <ele>213.06348</ele>
        <time>2019-11-21T20:53:47Z</time>
      </trkpt>
      <trkpt lat="43.17896277" lon="-2.48727894">
        <ele>212.96936</ele>
        <time>2019-11-21T20:53:48Z</time>
      </trkpt>
      <trkpt lat="43.17903042" lon="-2.48696133">
        <ele>213.2525</ele>
        <time>2019-11-21T20:53:49Z</time>
      </trkpt>
      <trkpt lat="43.17915645" lon="-2.48632058">
        <ele>213.23444</ele>
        <time>2019-11-21T20:53:50Z</time>
      </trkpt>
      <trkpt lat="43.17922616" lon="-2.48600685">
        <ele>212.64069</ele>
        <time>2019-11-21T20:53:51Z</time>
      </trkpt>
      <trkpt lat="43.17929797" lon="-2.48567745">
        <ele>212.17322</ele>
        <time>2019-11-21T20:53:52Z</time>
      </trkpt>
      <trkpt lat="43.17938959" lon="-2.48535274">
        <ele>213.51404</ele>
        <time>2019-11-21T20:53:53Z</time>
      </trkpt>
      <trkpt lat="43.17948485" lon="-2.48504407">
        <ele>213.43274</ele>
        <time>2019-11-21T20:53:54Z</time>
      </trkpt>
      <trkpt lat="43.1795934" lon="-2.48474047">
        <ele>213.83258</ele>
        <time>2019-11-21T20:53:55Z</time>
      </trkpt>
      <trkpt lat="43.17969871" lon="-2.48444695">
        <ele>213.36688</ele>
        <time>2019-11-21T20:53:56Z</time>
      </trkpt>
      <trkpt lat="43.17982096" lon="-2.484175">
        <ele>213.1748</ele>
        <time>2019-11-21T20:53:57Z</time>
      </trkpt>
      <trkpt lat="43.17994386" lon="-2.48391361">
        <ele>212.47736</ele>
        <time>2019-11-21T20:53:58Z</time>
      </trkpt>
      <trkpt lat="43.18006303" lon="-2.48365874">
        <ele>211.44</ele>
        <time>2019-11-21T20:53:59Z</time>
      </trkpt>
      <trkpt lat="43.18019496" lon="-2.4834197">
        <ele>212.30371</ele>
        <time>2019-11-21T20:54:00Z</time>
      </trkpt>
      <trkpt lat="43.18033742" lon="-2.4831562">
        <ele>213.1582</ele>
        <time>2019-11-21T20:54:01Z</time>
      </trkpt>
      <trkpt lat="43.18045912" lon="-2.48288466">
        <ele>213.10547</ele>
        <time>2019-11-21T20:54:02Z</time>
      </trkpt>
      <trkpt lat="43.18058868" lon="-2.48260487">
        <ele>214.30054</ele>
        <time>2019-11-21T20:54:04Z</time>
      </trkpt>
      <trkpt lat="43.18068974" lon="-2.48231418">
        <ele>214.7243</ele>
        <time>2019-11-21T20:54:05Z</time>
      </trkpt>
      <trkpt lat="43.18078851" lon="-2.48203358">
        <ele>215.47638</ele>
        <time>2019-11-21T20:54:06Z</time>
      </trkpt>
      <trkpt lat="43.18086997" lon="-2.48174348">
        <ele>215.58148</ele>
        <time>2019-11-21T20:54:07Z</time>
      </trkpt>
      <trkpt lat="43.18095598" lon="-2.48142661">
        <ele>217.51111</ele>
        <time>2019-11-21T20:54:08Z</time>
      </trkpt>
      <trkpt lat="43.18102104" lon="-2.48110264">
        <ele>218.5249</ele>
        <time>2019-11-21T20:54:09Z</time>
      </trkpt>
      <trkpt lat="43.18108506" lon="-2.48076753">
        <ele>220.38824</ele>
        <time>2019-11-21T20:54:10Z</time>
      </trkpt>
      <trkpt lat="43.18114092" lon="-2.48042118">
        <ele>222.04553</ele>
        <time>2019-11-21T20:54:11Z</time>
      </trkpt>
      <trkpt lat="43.18117908" lon="-2.48007541">
        <ele>223.83887</ele>
        <time>2019-11-21T20:54:12Z</time>
      </trkpt>
      <trkpt lat="43.18120457" lon="-2.47973975">
        <ele>224.57245</ele>
        <time>2019-11-21T20:54:13Z</time>
      </trkpt>
      <trkpt lat="43.18122943" lon="-2.47940345">
        <ele>226.34882</ele>
        <time>2019-11-21T20:54:14Z</time>
      </trkpt>
      <trkpt lat="43.18121871" lon="-2.47906601">
        <ele>225.74731</ele>
        <time>2019-11-21T20:54:15Z</time>
      </trkpt>
      <trkpt lat="43.18121243" lon="-2.47872296">
        <ele>226.04968</ele>
        <time>2019-11-21T20:54:16Z</time>
      </trkpt>
      <trkpt lat="43.18119519" lon="-2.47836394">
        <ele>227.33533</ele>
        <time>2019-11-21T20:54:17Z</time>
      </trkpt>
      <trkpt lat="43.18117162" lon="-2.47800858">
        <ele>228.17297</ele>
        <time>2019-11-21T20:54:18Z</time>
      </trkpt>
      <trkpt lat="43.18114729" lon="-2.47766049">
        <ele>230.47314</ele>
        <time>2019-11-21T20:54:19Z</time>
      </trkpt>
      <trkpt lat="43.18101753" lon="-2.47695545">
        <ele>229.5979</ele>
        <time>2019-11-21T20:54:20Z</time>
      </trkpt>
      <trkpt lat="43.18094034" lon="-2.4766079">
        <ele>229.01855</ele>
        <time>2019-11-21T20:54:21Z</time>
      </trkpt>
      <trkpt lat="43.18085283" lon="-2.47626547">
        <ele>228.90887</ele>
        <time>2019-11-21T20:54:22Z</time>
      </trkpt>
      <trkpt lat="43.18077916" lon="-2.47593793">
        <ele>230.1961</ele>
        <time>2019-11-21T20:54:23Z</time>
      </trkpt>
      <trkpt lat="43.18069172" lon="-2.47562995">
        <ele>231.74268</ele>
        <time>2019-11-21T20:54:24Z</time>
      </trkpt>
      <trkpt lat="43.18060401" lon="-2.47532711">
        <ele>233.00403</ele>
        <time>2019-11-21T20:54:25Z</time>
      </trkpt>
      <trkpt lat="43.1805092" lon="-2.4750347">
        <ele>233.94678</ele>
        <time>2019-11-21T20:54:26Z</time>
      </trkpt>
      <trkpt lat="43.18041344" lon="-2.47472511">
        <ele>234.83344</ele>
        <time>2019-11-21T20:54:27Z</time>
      </trkpt>
      <trkpt lat="43.18031647" lon="-2.47440763">
        <ele>234.88617</ele>
        <time>2019-11-21T20:54:28Z</time>
      </trkpt>
      <trkpt lat="43.18024331" lon="-2.47409296">
        <ele>235.21246</ele>
        <time>2019-11-21T20:54:29Z</time>
      </trkpt>
      <trkpt lat="43.18017151" lon="-2.47376921">
        <ele>235.8675</ele>
        <time>2019-11-21T20:54:30Z</time>
      </trkpt>
      <trkpt lat="43.18011173" lon="-2.47345138">
        <ele>235.1626</ele>
        <time>2019-11-21T20:54:31Z</time>
      </trkpt>
      <trkpt lat="43.18007431" lon="-2.47312186">
        <ele>235.49127</ele>
        <time>2019-11-21T20:54:32Z</time>
      </trkpt>
      <trkpt lat="43.18004914" lon="-2.47279228">
        <ele>235.73187</ele>
        <time>2019-11-21T20:54:34Z</time>
      </trkpt>
      <trkpt lat="43.18004057" lon="-2.47245658">
        <ele>236.6206</ele>
        <time>2019-11-21T20:54:35Z</time>
      </trkpt>
      <trkpt lat="43.18004137" lon="-2.472125">
        <ele>235.9638</ele>
        <time>2019-11-21T20:54:36Z</time>
      </trkpt>
      <trkpt lat="43.18005792" lon="-2.47179725">
        <ele>236.08026</ele>
        <time>2019-11-21T20:54:37Z</time>
      </trkpt>
      <trkpt lat="43.18009901" lon="-2.47147852">
        <ele>235.48749</ele>
        <time>2019-11-21T20:54:38Z</time>
      </trkpt>
      <trkpt lat="43.18015557" lon="-2.47116538">
        <ele>236.26117</ele>
        <time>2019-11-21T20:54:39Z</time>
      </trkpt>
      <trkpt lat="43.18022113" lon="-2.47084127">
        <ele>237.06982</ele>
        <time>2019-11-21T20:54:40Z</time>
      </trkpt>
      <trkpt lat="43.1802996" lon="-2.47052504">
        <ele>237.48724</ele>
        <time>2019-11-21T20:54:41Z</time>
      </trkpt>
      <trkpt lat="43.18039946" lon="-2.47023866">
        <ele>237.48541</ele>
        <time>2019-11-21T20:54:42Z</time>
      </trkpt>
      <trkpt lat="43.1805125" lon="-2.46994439">
        <ele>237.18933</ele>
        <time>2019-11-21T20:54:43Z</time>
      </trkpt>
      <trkpt lat="43.18064241" lon="-2.46965464">
        <ele>237.64587</ele>
        <time>2019-11-21T20:54:44Z</time>
      </trkpt>
      <trkpt lat="43.18078007" lon="-2.469376">
        <ele>236.68237</ele>
        <time>2019-11-21T20:54:45Z</time>
      </trkpt>
      <trkpt lat="43.1809304" lon="-2.46911415">
        <ele>235.63525</ele>
        <time>2019-11-21T20:54:46Z</time>
      </trkpt>
      <trkpt lat="43.18109753" lon="-2.4688652">
        <ele>235.59302</ele>
        <time>2019-11-21T20:54:47Z</time>
      </trkpt>
      <trkpt lat="43.1812721" lon="-2.46864387">
        <ele>235.24359</ele>
        <time>2019-11-21T20:54:48Z</time>
      </trkpt>
      <trkpt lat="43.18145924" lon="-2.46842616">
        <ele>234.93164</ele>
        <time>2019-11-21T20:54:49Z</time>
      </trkpt>
      <trkpt lat="43.18184901" lon="-2.468021">
        <ele>232.68591</ele>
        <time>2019-11-21T20:54:50Z</time>
      </trkpt>
      <trkpt lat="43.1820486" lon="-2.4678182">
        <ele>231.12769</ele>
        <time>2019-11-21T20:54:51Z</time>
      </trkpt>
      <trkpt lat="43.18224479" lon="-2.46762519">
        <ele>223.5127</ele>
        <time>2019-11-21T20:54:52Z</time>
      </trkpt>
      <trkpt lat="43.18242179" lon="-2.46742521">
        <ele>224.76776</ele>
        <time>2019-11-21T20:54:53Z</time>
      </trkpt>
      <trkpt lat="43.18258646" lon="-2.46720392">
        <ele>225.37701</ele>
        <time>2019-11-21T20:54:54Z</time>
      </trkpt>
      <trkpt lat="43.1827152" lon="-2.46698032">
        <ele>225.03699</ele>
        <time>2019-11-21T20:54:55Z</time>
      </trkpt>
      <trkpt lat="43.18286962" lon="-2.46671288">
        <ele>226.17444</ele>
        <time>2019-11-21T20:54:56Z</time>
      </trkpt>
      <trkpt lat="43.18299807" lon="-2.4664366">
        <ele>225.79303</ele>
        <time>2019-11-21T20:54:57Z</time>
      </trkpt>
      <trkpt lat="43.18311502" lon="-2.46612601">
        <ele>225.25409</ele>
        <time>2019-11-21T20:54:58Z</time>
      </trkpt>
      <trkpt lat="43.18319969" lon="-2.46582104">
        <ele>226.0495</ele>
        <time>2019-11-21T20:54:59Z</time>
      </trkpt>
      <trkpt lat="43.18327196" lon="-2.46552431">
        <ele>225.7157</ele>
        <time>2019-11-21T20:55:00Z</time>
      </trkpt>
      <trkpt lat="43.18333871" lon="-2.46522526">
        <ele>224.84259</ele>
        <time>2019-11-21T20:55:01Z</time>
      </trkpt>
      <trkpt lat="43.18338628" lon="-2.46489413">
        <ele>224.70215</ele>
        <time>2019-11-21T20:55:02Z</time>
      </trkpt>
      <trkpt lat="43.18345006" lon="-2.46462364">
        <ele>223.8377</ele>
        <time>2019-11-21T20:55:03Z</time>
      </trkpt>
      <trkpt lat="43.1835269" lon="-2.46432158">
        <ele>223.1084</ele>
        <time>2019-11-21T20:55:05Z</time>
      </trkpt>
      <trkpt lat="43.18361788" lon="-2.4640579">
        <ele>204.44043</ele>
        <time>2019-11-21T20:55:06Z</time>
      </trkpt>
      <trkpt lat="43.18370447" lon="-2.46379738">
        <ele>209.07153</ele>
        <time>2019-11-21T20:55:07Z</time>
      </trkpt>
      <trkpt lat="43.18380647" lon="-2.46354792">
        <ele>212.13055</ele>
        <time>2019-11-21T20:55:08Z</time>
      </trkpt>
      <trkpt lat="43.18391429" lon="-2.4633152">
        <ele>213.75781</ele>
        <time>2019-11-21T20:55:09Z</time>
      </trkpt>
      <trkpt lat="43.18403313" lon="-2.4631139">
        <ele>214.2323</ele>
        <time>2019-11-21T20:55:10Z</time>
      </trkpt>
      <trkpt lat="43.18413469" lon="-2.46289683">
        <ele>213.86597</ele>
        <time>2019-11-21T20:55:11Z</time>
      </trkpt>
      <trkpt lat="43.18425796" lon="-2.46270236">
        <ele>212.90417</ele>
        <time>2019-11-21T20:55:12Z</time>
      </trkpt>
      <trkpt lat="43.1843803" lon="-2.46249771">
        <ele>212.75531</ele>
        <time>2019-11-21T20:55:13Z</time>
      </trkpt>
      <trkpt lat="43.18452552" lon="-2.46230453">
        <ele>213.7439</ele>
        <time>2019-11-21T20:55:14Z</time>
      </trkpt>
      <trkpt lat="43.18467929" lon="-2.46211553">
        <ele>214.08301</ele>
        <time>2019-11-21T20:55:15Z</time>
      </trkpt>
      <trkpt lat="43.18485161" lon="-2.46190933">
        <ele>213.93713</ele>
        <time>2019-11-21T20:55:16Z</time>
      </trkpt>
      <trkpt lat="43.1850185" lon="-2.46174713">
        <ele>214.4306</ele>
        <time>2019-11-21T20:55:17Z</time>
      </trkpt>
      <trkpt lat="43.18518319" lon="-2.46157594">
        <ele>213.43036</ele>
        <time>2019-11-21T20:55:18Z</time>
      </trkpt>
      <trkpt lat="43.18535245" lon="-2.46142983">
        <ele>211.62164</ele>
        <time>2019-11-21T20:55:19Z</time>
      </trkpt>
      <trkpt lat="43.18553081" lon="-2.46127655">
        <ele>210.11725</ele>
        <time>2019-11-21T20:55:20Z</time>
      </trkpt>
      <trkpt lat="43.18571243" lon="-2.46114184">
        <ele>208.3382</ele>
        <time>2019-11-21T20:55:21Z</time>
      </trkpt>
      <trkpt lat="43.18605217" lon="-2.46086222">
        <ele>204.3515</ele>
        <time>2019-11-21T20:55:22Z</time>
      </trkpt>
      <trkpt lat="43.18622325" lon="-2.46071071">
        <ele>203.78003</ele>
        <time>2019-11-21T20:55:23Z</time>
      </trkpt>
      <trkpt lat="43.18640608" lon="-2.46054677">
        <ele>203.2237</ele>
        <time>2019-11-21T20:55:24Z</time>
      </trkpt>
      <trkpt lat="43.1865739" lon="-2.46039312">
        <ele>202.60388</ele>
        <time>2019-11-21T20:55:25Z</time>
      </trkpt>
      <trkpt lat="43.18674505" lon="-2.46021513">
        <ele>202.73059</ele>
        <time>2019-11-21T20:55:26Z</time>
      </trkpt>
      <trkpt lat="43.18690619" lon="-2.46004605">
        <ele>199.65808</ele>
        <time>2019-11-21T20:55:27Z</time>
      </trkpt>
      <trkpt lat="43.18706174" lon="-2.45986052">
        <ele>198.49268</ele>
        <time>2019-11-21T20:55:28Z</time>
      </trkpt>
      <trkpt lat="43.1872145" lon="-2.45965898">
        <ele>198.45245</ele>
        <time>2019-11-21T20:55:29Z</time>
      </trkpt>
      <trkpt lat="43.18736619" lon="-2.45946389">
        <ele>198.4721</ele>
        <time>2019-11-21T20:55:30Z</time>
      </trkpt>
      <trkpt lat="43.18750979" lon="-2.45924522">
        <ele>197.82947</ele>
        <time>2019-11-21T20:55:31Z</time>
      </trkpt>
      <trkpt lat="43.18763819" lon="-2.45903862">
        <ele>197.18384</ele>
        <time>2019-11-21T20:55:32Z</time>
      </trkpt>
      <trkpt lat="43.18776486" lon="-2.45882025">
        <ele>196.94543</ele>
        <time>2019-11-21T20:55:33Z</time>
      </trkpt>
      <trkpt lat="43.1878792" lon="-2.45859525">
        <ele>196.41516</ele>
        <time>2019-11-21T20:55:34Z</time>
      </trkpt>
      <trkpt lat="43.18801438" lon="-2.45837706">
        <ele>196.62842</ele>
        <time>2019-11-21T20:55:35Z</time>
      </trkpt>
      <trkpt lat="43.1881158" lon="-2.45813682">
        <ele>195.4173</ele>
        <time>2019-11-21T20:55:37Z</time>
      </trkpt>
      <trkpt lat="43.18822578" lon="-2.45789236">
        <ele>194.90204</ele>
        <time>2019-11-21T20:55:38Z</time>
      </trkpt>
      <trkpt lat="43.18834286" lon="-2.45763067">
        <ele>194.10645</ele>
        <time>2019-11-21T20:55:39Z</time>
      </trkpt>
      <trkpt lat="43.18843158" lon="-2.45735991">
        <ele>193.2099</ele>
        <time>2019-11-21T20:55:40Z</time>
      </trkpt>
      <trkpt lat="43.1885266" lon="-2.45708077">
        <ele>192.30829</ele>
        <time>2019-11-21T20:55:41Z</time>
      </trkpt>
      <trkpt lat="43.18860829" lon="-2.45680998">
        <ele>192.08691</ele>
        <time>2019-11-21T20:55:42Z</time>
      </trkpt>
      <trkpt lat="43.18868691" lon="-2.4565231">
        <ele>191.25879</ele>
        <time>2019-11-21T20:55:43Z</time>
      </trkpt>
      <trkpt lat="43.18876165" lon="-2.45623186">
        <ele>190.99304</ele>
        <time>2019-11-21T20:55:44Z</time>
      </trkpt>
      <trkpt lat="43.18882557" lon="-2.45596297">
        <ele>190.1612</ele>
        <time>2019-11-21T20:55:45Z</time>
      </trkpt>
      <trkpt lat="43.18886879" lon="-2.45567668">
        <ele>189.49316</ele>
        <time>2019-11-21T20:55:46Z</time>
      </trkpt>
      <trkpt lat="43.18889859" lon="-2.45538166">
        <ele>189.29333</ele>
        <time>2019-11-21T20:55:47Z</time>
      </trkpt>
      <trkpt lat="43.18891023" lon="-2.45509979">
        <ele>187.1648</ele>
        <time>2019-11-21T20:55:48Z</time>
      </trkpt>
      <trkpt lat="43.18892188" lon="-2.45480581">
        <ele>187.11853</ele>
        <time>2019-11-21T20:55:49Z</time>
      </trkpt>
      <trkpt lat="43.18892016" lon="-2.45451494">
        <ele>186.95099</ele>
        <time>2019-11-21T20:55:50Z</time>
      </trkpt>
      <trkpt lat="43.18890413" lon="-2.45422078">
        <ele>187.00732</ele>
        <time>2019-11-21T20:55:51Z</time>
      </trkpt>
      <trkpt lat="43.1888902" lon="-2.45393931">
        <ele>187.40625</ele>
        <time>2019-11-21T20:55:52Z</time>
      </trkpt>
      <trkpt lat="43.18888134" lon="-2.45365794">
        <ele>187.4148</ele>
        <time>2019-11-21T20:55:53Z</time>
      </trkpt>
      <trkpt lat="43.18886193" lon="-2.45309575">
        <ele>186.36072</ele>
        <time>2019-11-21T20:55:54Z</time>
      </trkpt>
      <trkpt lat="43.18886538" lon="-2.45279555">
        <ele>185.51276</ele>
        <time>2019-11-21T20:55:55Z</time>
      </trkpt>
      <trkpt lat="43.1888877" lon="-2.45250261">
        <ele>185.9851</ele>
        <time>2019-11-21T20:55:56Z</time>
      </trkpt>
      <trkpt lat="43.18891929" lon="-2.45222867">
        <ele>185.02667</ele>
        <time>2019-11-21T20:55:57Z</time>
      </trkpt>
      <trkpt lat="43.18897671" lon="-2.45195404">
        <ele>184.94446</ele>
        <time>2019-11-21T20:55:58Z</time>
      </trkpt>
      <trkpt lat="43.18897561" lon="-2.45166659">
        <ele>176.5929</ele>
        <time>2019-11-21T20:55:59Z</time>
      </trkpt>
      <trkpt lat="43.1890419" lon="-2.45139655">
        <ele>175.27234</ele>
        <time>2019-11-21T20:56:00Z</time>
      </trkpt>
      <trkpt lat="43.18912977" lon="-2.45111354">
        <ele>173.89948</ele>
        <time>2019-11-21T20:56:01Z</time>
      </trkpt>
      <trkpt lat="43.18922458" lon="-2.45084739">
        <ele>172.39282</ele>
        <time>2019-11-21T20:56:02Z</time>
      </trkpt>
      <trkpt lat="43.18933945" lon="-2.45058172">
        <ele>172.23523</ele>
        <time>2019-11-21T20:56:03Z</time>
      </trkpt>
      <trkpt lat="43.18946185" lon="-2.45032319">
        <ele>172.23889</ele>
        <time>2019-11-21T20:56:04Z</time>
      </trkpt>
      <trkpt lat="43.18958836" lon="-2.45004754">
        <ele>173.09503</ele>
        <time>2019-11-21T20:56:05Z</time>
      </trkpt>
      <trkpt lat="43.18971175" lon="-2.44979002">
        <ele>172.1911</ele>
        <time>2019-11-21T20:56:06Z</time>
      </trkpt>
      <trkpt lat="43.18982772" lon="-2.44951989">
        <ele>171.60992</ele>
        <time>2019-11-21T20:56:07Z</time>
      </trkpt>
      <trkpt lat="43.1899373" lon="-2.4492615">
        <ele>170.63855</ele>
        <time>2019-11-21T20:56:09Z</time>
      </trkpt>
      <trkpt lat="43.19002651" lon="-2.448973">
        <ele>169.72687</ele>
        <time>2019-11-21T20:56:10Z</time>
      </trkpt>
      <trkpt lat="43.1901176" lon="-2.44869344">
        <ele>168.7522</ele>
        <time>2019-11-21T20:56:11Z</time>
      </trkpt>
      <trkpt lat="43.1901801" lon="-2.44838539">
        <ele>168.43628</ele>
        <time>2019-11-21T20:56:12Z</time>
      </trkpt>
      <trkpt lat="43.19022004" lon="-2.44807139">
        <ele>167.6839</ele>
        <time>2019-11-21T20:56:13Z</time>
      </trkpt>
      <trkpt lat="43.19024003" lon="-2.44774146">
        <ele>165.33813</ele>
        <time>2019-11-21T20:56:14Z</time>
      </trkpt>
      <trkpt lat="43.1902545" lon="-2.44740181">
        <ele>166.26923</ele>
        <time>2019-11-21T20:56:15Z</time>
      </trkpt>
      <trkpt lat="43.19025108" lon="-2.44706749">
        <ele>166.60913</ele>
        <time>2019-11-21T20:56:16Z</time>
      </trkpt>
      <trkpt lat="43.19024708" lon="-2.44672121">
        <ele>165.9447</ele>
        <time>2019-11-21T20:56:17Z</time>
      </trkpt>
      <trkpt lat="43.19026708" lon="-2.44638539">
        <ele>165.63776</ele>
        <time>2019-11-21T20:56:18Z</time>
      </trkpt>
      <trkpt lat="43.190306" lon="-2.44605196">
        <ele>165.71863</ele>
        <time>2019-11-21T20:56:19Z</time>
      </trkpt>
      <trkpt lat="43.19036019" lon="-2.44573064">
        <ele>165.73303</ele>
        <time>2019-11-21T20:56:20Z</time>
      </trkpt>
      <trkpt lat="43.19044136" lon="-2.44540716">
        <ele>165.59515</ele>
        <time>2019-11-21T20:56:21Z</time>
      </trkpt>
      <trkpt lat="43.19052143" lon="-2.44509619">
        <ele>164.80573</ele>
        <time>2019-11-21T20:56:22Z</time>
      </trkpt>
      <trkpt lat="43.19060797" lon="-2.44478854">
        <ele>164.56152</ele>
        <time>2019-11-21T20:56:23Z</time>
      </trkpt>
      <trkpt lat="43.19070004" lon="-2.44447242">
        <ele>164.36633</ele>
        <time>2019-11-21T20:56:24Z</time>
      </trkpt>
      <trkpt lat="43.19079455" lon="-2.44414747">
        <ele>164.58179</ele>
        <time>2019-11-21T20:56:25Z</time>
      </trkpt>
      <trkpt lat="43.19097447" lon="-2.44350984">
        <ele>162.93378</ele>
        <time>2019-11-21T20:56:26Z</time>
      </trkpt>
      <trkpt lat="43.19107492" lon="-2.44319306">
        <ele>161.70172</ele>
        <time>2019-11-21T20:56:27Z</time>
      </trkpt>
      <trkpt lat="43.19118374" lon="-2.4428679">
        <ele>162.58643</ele>
        <time>2019-11-21T20:56:28Z</time>
      </trkpt>
      <trkpt lat="43.19128137" lon="-2.44257091">
        <ele>161.89813</ele>
        <time>2019-11-21T20:56:29Z</time>
      </trkpt>
      <trkpt lat="43.1913862" lon="-2.44228407">
        <ele>161.65863</ele>
        <time>2019-11-21T20:56:30Z</time>
      </trkpt>
      <trkpt lat="43.19147388" lon="-2.44203084">
        <ele>162.20166</ele>
        <time>2019-11-21T20:56:31Z</time>
      </trkpt>
      <trkpt lat="43.19156274" lon="-2.44179125">
        <ele>162.37646</ele>
        <time>2019-11-21T20:56:32Z</time>
      </trkpt>
      <trkpt lat="43.19166076" lon="-2.44155104">
        <ele>161.20612</ele>
        <time>2019-11-21T20:56:33Z</time>
      </trkpt>
      <trkpt lat="43.19174703" lon="-2.44128995">
        <ele>161.6654</ele>
        <time>2019-11-21T20:56:34Z</time>
      </trkpt>
      <trkpt lat="43.19184665" lon="-2.44104794">
        <ele>161.25159</ele>
        <time>2019-11-21T20:56:35Z</time>
      </trkpt>
      <trkpt lat="43.19194766" lon="-2.44079206">
        <ele>161.80438</ele>
        <time>2019-11-21T20:56:36Z</time>
      </trkpt>
      <trkpt lat="43.19205968" lon="-2.44052577">
        <ele>161.52881</ele>
        <time>2019-11-21T20:56:37Z</time>
      </trkpt>
      <trkpt lat="43.19216855" lon="-2.44026843">
        <ele>161.60388</ele>
        <time>2019-11-21T20:56:38Z</time>
      </trkpt>
      <trkpt lat="43.19228843" lon="-2.43999836">
        <ele>160.7052</ele>
        <time>2019-11-21T20:56:39Z</time>
      </trkpt>
      <trkpt lat="43.19240695" lon="-2.43973122">
        <ele>160.41187</ele>
        <time>2019-11-21T20:56:41Z</time>
      </trkpt>
      <trkpt lat="43.19251896" lon="-2.43947872">
        <ele>160.23901</ele>
        <time>2019-11-21T20:56:42Z</time>
      </trkpt>
      <trkpt lat="43.19264275" lon="-2.43924037">
        <ele>160.927</ele>
        <time>2019-11-21T20:56:43Z</time>
      </trkpt>
      <trkpt lat="43.19277384" lon="-2.43901525">
        <ele>161.03271</ele>
        <time>2019-11-21T20:56:44Z</time>
      </trkpt>
      <trkpt lat="43.19292032" lon="-2.43880249">
        <ele>159.70679</ele>
        <time>2019-11-21T20:56:45Z</time>
      </trkpt>
      <trkpt lat="43.19307544" lon="-2.43860327">
        <ele>159.56702</ele>
        <time>2019-11-21T20:56:46Z</time>
      </trkpt>
      <trkpt lat="43.19324402" lon="-2.4384375">
        <ele>159.87994</ele>
        <time>2019-11-21T20:56:47Z</time>
      </trkpt>
      <trkpt lat="43.19342302" lon="-2.43829291">
        <ele>159.75311</ele>
        <time>2019-11-21T20:56:48Z</time>
      </trkpt>
      <trkpt lat="43.19359512" lon="-2.43819034">
        <ele>158.18073</ele>
        <time>2019-11-21T20:56:49Z</time>
      </trkpt>
      <trkpt lat="43.193771" lon="-2.43808319">
        <ele>156.88904</ele>
        <time>2019-11-21T20:56:50Z</time>
      </trkpt>
      <trkpt lat="43.19396736" lon="-2.43797871">
        <ele>155.28827</ele>
        <time>2019-11-21T20:56:51Z</time>
      </trkpt>
      <trkpt lat="43.19414557" lon="-2.43787942">
        <ele>152.29858</ele>
        <time>2019-11-21T20:56:52Z</time>
      </trkpt>
      <trkpt lat="43.1943495" lon="-2.43777448">
        <ele>152.09119</ele>
        <time>2019-11-21T20:56:53Z</time>
      </trkpt>
      <trkpt lat="43.19454897" lon="-2.43766394">
        <ele>152.24805</ele>
        <time>2019-11-21T20:56:54Z</time>
      </trkpt>
      <trkpt lat="43.19473589" lon="-2.43753858">
        <ele>150.065</ele>
        <time>2019-11-21T20:56:55Z</time>
      </trkpt>
      <trkpt lat="43.19492724" lon="-2.4373988">
        <ele>151.75201</ele>
        <time>2019-11-21T20:56:56Z</time>
      </trkpt>
      <trkpt lat="43.19509398" lon="-2.43723877">
        <ele>150.34607</ele>
        <time>2019-11-21T20:56:57Z</time>
      </trkpt>
      <trkpt lat="43.19527624" lon="-2.43705928">
        <ele>150.76605</ele>
        <time>2019-11-21T20:56:58Z</time>
      </trkpt>
      <trkpt lat="43.19558804" lon="-2.43666507">
        <ele>150.08911</ele>
        <time>2019-11-21T20:56:59Z</time>
      </trkpt>
      <trkpt lat="43.19570386" lon="-2.43645881">
        <ele>149.82623</ele>
        <time>2019-11-21T20:57:00Z</time>
      </trkpt>
      <trkpt lat="43.19581764" lon="-2.43624491">
        <ele>149.77765</ele>
        <time>2019-11-21T20:57:01Z</time>
      </trkpt>
      <trkpt lat="43.19591872" lon="-2.43607168">
        <ele>149.08374</ele>
        <time>2019-11-21T20:57:02Z</time>
      </trkpt>
      <trkpt lat="43.19600849" lon="-2.43590553">
        <ele>147.81622</ele>
        <time>2019-11-21T20:57:03Z</time>
      </trkpt>
      <trkpt lat="43.19611722" lon="-2.4357596">
        <ele>145.98883</ele>
        <time>2019-11-21T20:57:04Z</time>
      </trkpt>
      <trkpt lat="43.19624413" lon="-2.43555982">
        <ele>145.95691</ele>
        <time>2019-11-21T20:57:05Z</time>
      </trkpt>
      <trkpt lat="43.19637599" lon="-2.43534038">
        <ele>144.29413</ele>
        <time>2019-11-21T20:57:06Z</time>
      </trkpt>
      <trkpt lat="43.1965254" lon="-2.43512229">
        <ele>144.1665</ele>
        <time>2019-11-21T20:57:07Z</time>
      </trkpt>
      <trkpt lat="43.1966687" lon="-2.43490075">
        <ele>142.76099</ele>
        <time>2019-11-21T20:57:08Z</time>
      </trkpt>
      <trkpt lat="43.19681681" lon="-2.4346671">
        <ele>140.95312</ele>
        <time>2019-11-21T20:57:09Z</time>
      </trkpt>
      <trkpt lat="43.19699418" lon="-2.434442">
        <ele>139.20947</ele>
        <time>2019-11-21T20:57:10Z</time>
      </trkpt>
      <trkpt lat="43.19717355" lon="-2.4342204">
        <ele>140.30731</ele>
        <time>2019-11-21T20:57:11Z</time>
      </trkpt>
      <trkpt lat="43.19739149" lon="-2.43404075">
        <ele>140.77118</ele>
        <time>2019-11-21T20:57:13Z</time>
      </trkpt>
      <trkpt lat="43.19760055" lon="-2.43384971">
        <ele>141.25696</ele>
        <time>2019-11-21T20:57:14Z</time>
      </trkpt>
      <trkpt lat="43.19781122" lon="-2.43367297">
        <ele>140.70789</ele>
        <time>2019-11-21T20:57:15Z</time>
      </trkpt>
      <trkpt lat="43.1980269" lon="-2.4335151">
        <ele>140.8252</ele>
        <time>2019-11-21T20:57:16Z</time>
      </trkpt>
      <trkpt lat="43.19825112" lon="-2.43335231">
        <ele>142.09045</ele>
        <time>2019-11-21T20:57:17Z</time>
      </trkpt>
      <trkpt lat="43.19849229" lon="-2.43319802">
        <ele>143.5285</ele>
        <time>2019-11-21T20:57:18Z</time>
      </trkpt>
      <trkpt lat="43.19874196" lon="-2.43305251">
        <ele>143.07544</ele>
        <time>2019-11-21T20:57:19Z</time>
      </trkpt>
      <trkpt lat="43.19899505" lon="-2.43289711">
        <ele>141.3659</ele>
        <time>2019-11-21T20:57:20Z</time>
      </trkpt>
      <trkpt lat="43.19920987" lon="-2.432756">
        <ele>140.18573</ele>
        <time>2019-11-21T20:57:21Z</time>
      </trkpt>
      <trkpt lat="43.19943336" lon="-2.43259875">
        <ele>140.68048</ele>
        <time>2019-11-21T20:57:22Z</time>
      </trkpt>
      <trkpt lat="43.19962618" lon="-2.43241354">
        <ele>137.43091</ele>
        <time>2019-11-21T20:57:23Z</time>
      </trkpt>
      <trkpt lat="43.19979939" lon="-2.43220458">
        <ele>134.02905</ele>
        <time>2019-11-21T20:57:24Z</time>
      </trkpt>
      <trkpt lat="43.19998108" lon="-2.43198429">
        <ele>133.60529</ele>
        <time>2019-11-21T20:57:25Z</time>
      </trkpt>
      <trkpt lat="43.20014423" lon="-2.43175919">
        <ele>133.70465</ele>
        <time>2019-11-21T20:57:26Z</time>
      </trkpt>
      <trkpt lat="43.2002804" lon="-2.43151068">
        <ele>134.33826</ele>
        <time>2019-11-21T20:57:27Z</time>
      </trkpt>
      <trkpt lat="43.20043255" lon="-2.43123018">
        <ele>135.15753</ele>
        <time>2019-11-21T20:57:28Z</time>
      </trkpt>
      <trkpt lat="43.20054336" lon="-2.43098565">
        <ele>136.7893</ele>
        <time>2019-11-21T20:57:29Z</time>
      </trkpt>
      <trkpt lat="43.20076992" lon="-2.43041434">
        <ele>136.86743</ele>
        <time>2019-11-21T20:57:30Z</time>
      </trkpt>
      <trkpt lat="43.20089467" lon="-2.43010678">
        <ele>137.77148</ele>
        <time>2019-11-21T20:57:31Z</time>
      </trkpt>
      <trkpt lat="43.2010106" lon="-2.42983175">
        <ele>137.08484</ele>
        <time>2019-11-21T20:57:32Z</time>
      </trkpt>
      <trkpt lat="43.20114402" lon="-2.42956429">
        <ele>137.14905</ele>
        <time>2019-11-21T20:57:33Z</time>
      </trkpt>
      <trkpt lat="43.20126906" lon="-2.42930956">
        <ele>149.08124</ele>
        <time>2019-11-21T20:57:34Z</time>
      </trkpt>
      <trkpt lat="43.20142572" lon="-2.42907523">
        <ele>147.74384</ele>
        <time>2019-11-21T20:57:35Z</time>
      </trkpt>
      <trkpt lat="43.2015895" lon="-2.42884478">
        <ele>145.89636</ele>
        <time>2019-11-21T20:57:36Z</time>
      </trkpt>
      <trkpt lat="43.20175398" lon="-2.42864849">
        <ele>143.89844</ele>
        <time>2019-11-21T20:57:37Z</time>
      </trkpt>
      <trkpt lat="43.20191451" lon="-2.42845459">
        <ele>142.84387</ele>
        <time>2019-11-21T20:57:38Z</time>
      </trkpt>
      <trkpt lat="43.20207744" lon="-2.42826182">
        <ele>142.35315</ele>
        <time>2019-11-21T20:57:39Z</time>
      </trkpt>
      <trkpt lat="43.20224243" lon="-2.42806391">
        <ele>142.6706</ele>
        <time>2019-11-21T20:57:40Z</time>
      </trkpt>
      <trkpt lat="43.20238964" lon="-2.42786751">
        <ele>141.80591</ele>
        <time>2019-11-21T20:57:41Z</time>
      </trkpt>
      <trkpt lat="43.20252569" lon="-2.42765232">
        <ele>142.08801</ele>
        <time>2019-11-21T20:57:42Z</time>
      </trkpt>
      <trkpt lat="43.20265159" lon="-2.42743804">
        <ele>139.77942</ele>
        <time>2019-11-21T20:57:43Z</time>
      </trkpt>
      <trkpt lat="43.20276202" lon="-2.4272143">
        <ele>136.51196</ele>
        <time>2019-11-21T20:57:44Z</time>
      </trkpt>
      <trkpt lat="43.20287726" lon="-2.42696045">
        <ele>135.45544</ele>
        <time>2019-11-21T20:57:46Z</time>
      </trkpt>
      <trkpt lat="43.20298534" lon="-2.42671128">
        <ele>135.24414</ele>
        <time>2019-11-21T20:57:47Z</time>
      </trkpt>
      <trkpt lat="43.20308587" lon="-2.42644089">
        <ele>133.38196</ele>
        <time>2019-11-21T20:57:48Z</time>
      </trkpt>
      <trkpt lat="43.20319137" lon="-2.42616619">
        <ele>132.28156</ele>
        <time>2019-11-21T20:57:49Z</time>
      </trkpt>
      <trkpt lat="43.20327715" lon="-2.42587902">
        <ele>131.04895</ele>
        <time>2019-11-21T20:57:50Z</time>
      </trkpt>
      <trkpt lat="43.20336379" lon="-2.42560034">
        <ele>129.78229</ele>
        <time>2019-11-21T20:57:51Z</time>
      </trkpt>
      <trkpt lat="43.20345979" lon="-2.42532734">
        <ele>128.41766</ele>
        <time>2019-11-21T20:57:52Z</time>
      </trkpt>
      <trkpt lat="43.20354403" lon="-2.42505198">
        <ele>127.5329</ele>
        <time>2019-11-21T20:57:53Z</time>
      </trkpt>
      <trkpt lat="43.20364191" lon="-2.42477458">
        <ele>128.48016</ele>
        <time>2019-11-21T20:57:54Z</time>
      </trkpt>
      <trkpt lat="43.20374634" lon="-2.42449873">
        <ele>129.0459</ele>
        <time>2019-11-21T20:57:55Z</time>
      </trkpt>
      <trkpt lat="43.20385304" lon="-2.42422689">
        <ele>134.78033</ele>
        <time>2019-11-21T20:57:56Z</time>
      </trkpt>
      <trkpt lat="43.20396837" lon="-2.42395685">
        <ele>133.68427</ele>
        <time>2019-11-21T20:57:57Z</time>
      </trkpt>
      <trkpt lat="43.20408687" lon="-2.42368565">
        <ele>132.51404</ele>
        <time>2019-11-21T20:57:58Z</time>
      </trkpt>
      <trkpt lat="43.20421214" lon="-2.42342817">
        <ele>132.07886</ele>
        <time>2019-11-21T20:57:59Z</time>
      </trkpt>
      <trkpt lat="43.20434239" lon="-2.42317437">
        <ele>132.07452</ele>
        <time>2019-11-21T20:58:00Z</time>
      </trkpt>
      <trkpt lat="43.2045847" lon="-2.42266782">
        <ele>128.3587</ele>
        <time>2019-11-21T20:58:01Z</time>
      </trkpt>
      <trkpt lat="43.20471986" lon="-2.42242035">
        <ele>127.61194</ele>
        <time>2019-11-21T20:58:02Z</time>
      </trkpt>
      <trkpt lat="43.2048648" lon="-2.4221912">
        <ele>126.63391</ele>
        <time>2019-11-21T20:58:03Z</time>
      </trkpt>
      <trkpt lat="43.20501297" lon="-2.42196683">
        <ele>126.491516</ele>
        <time>2019-11-21T20:58:04Z</time>
      </trkpt>
      <trkpt lat="43.20516578" lon="-2.4217552">
        <ele>125.67078</ele>
        <time>2019-11-21T20:58:05Z</time>
      </trkpt>
      <trkpt lat="43.20533432" lon="-2.42154968">
        <ele>125.16693</ele>
        <time>2019-11-21T20:58:06Z</time>
      </trkpt>
      <trkpt lat="43.20549577" lon="-2.42135992">
        <ele>124.40918</ele>
        <time>2019-11-21T20:58:07Z</time>
      </trkpt>
      <trkpt lat="43.20566433" lon="-2.42118454">
        <ele>124.670166</ele>
        <time>2019-11-21T20:58:08Z</time>
      </trkpt>
      <trkpt lat="43.20583333" lon="-2.4210035">
        <ele>124.524414</ele>
        <time>2019-11-21T20:58:09Z</time>
      </trkpt>
      <trkpt lat="43.20600381" lon="-2.42082135">
        <ele>124.88275</ele>
        <time>2019-11-21T20:58:10Z</time>
      </trkpt>
      <trkpt lat="43.20617146" lon="-2.42064141">
        <ele>125.55524</ele>
        <time>2019-11-21T20:58:11Z</time>
      </trkpt>
      <trkpt lat="43.20634096" lon="-2.42046537">
        <ele>125.89215</ele>
        <time>2019-11-21T20:58:12Z</time>
      </trkpt>
      <trkpt lat="43.20649651" lon="-2.42027781">
        <ele>125.6012</ele>
        <time>2019-11-21T20:58:14Z</time>
      </trkpt>
      <trkpt lat="43.20663499" lon="-2.42008529">
        <ele>125.37427</ele>
        <time>2019-11-21T20:58:15Z</time>
      </trkpt>
      <trkpt lat="43.20678491" lon="-2.41987655">
        <ele>126.65234</ele>
        <time>2019-11-21T20:58:16Z</time>
      </trkpt>
      <trkpt lat="43.20692204" lon="-2.41964777">
        <ele>127.28754</ele>
        <time>2019-11-21T20:58:17Z</time>
      </trkpt>
      <trkpt lat="43.2070436" lon="-2.41941667">
        <ele>126.033936</ele>
        <time>2019-11-21T20:58:18Z</time>
      </trkpt>
      <trkpt lat="43.20715858" lon="-2.41917263">
        <ele>126.77557</ele>
        <time>2019-11-21T20:58:19Z</time>
      </trkpt>
      <trkpt lat="43.20727269" lon="-2.41888931">
        <ele>127.64996</ele>
        <time>2019-11-21T20:58:20Z</time>
      </trkpt>
      <trkpt lat="43.20735768" lon="-2.41862357">
        <ele>127.635925</ele>
        <time>2019-11-21T20:58:21Z</time>
      </trkpt>
      <trkpt lat="43.20745012" lon="-2.41836241">
        <ele>128.41779</ele>
        <time>2019-11-21T20:58:22Z</time>
      </trkpt>
      <trkpt lat="43.2075472" lon="-2.4181014">
        <ele>128.89124</ele>
        <time>2019-11-21T20:58:23Z</time>
      </trkpt>
      <trkpt lat="43.20765726" lon="-2.41784703">
        <ele>129.15167</ele>
        <time>2019-11-21T20:58:24Z</time>
      </trkpt>
      <trkpt lat="43.20777052" lon="-2.41759865">
        <ele>129.85889</ele>
        <time>2019-11-21T20:58:25Z</time>
      </trkpt>
      <trkpt lat="43.20790039" lon="-2.41736207">
        <ele>130.78284</ele>
        <time>2019-11-21T20:58:26Z</time>
      </trkpt>
      <trkpt lat="43.20803066" lon="-2.4171471">
        <ele>131.1792</ele>
        <time>2019-11-21T20:58:27Z</time>
      </trkpt>
      <trkpt lat="43.20820795" lon="-2.41696362">
        <ele>132.23193</ele>
        <time>2019-11-21T20:58:28Z</time>
      </trkpt>
      <trkpt lat="43.20837419" lon="-2.41678917">
        <ele>131.58191</ele>
        <time>2019-11-21T20:58:29Z</time>
      </trkpt>
      <trkpt lat="43.20879172" lon="-2.41647561">
        <ele>130.91217</ele>
        <time>2019-11-21T20:58:30Z</time>
      </trkpt>
      <trkpt lat="43.20897977" lon="-2.41637204">
        <ele>130.00818</ele>
        <time>2019-11-21T20:58:31Z</time>
      </trkpt>
      <trkpt lat="43.20918688" lon="-2.41626895">
        <ele>128.85266</ele>
        <time>2019-11-21T20:58:32Z</time>
      </trkpt>
      <trkpt lat="43.20941343" lon="-2.41622432">
        <ele>129.14069</ele>
        <time>2019-11-21T20:58:33Z</time>
      </trkpt>
      <trkpt lat="43.20963139" lon="-2.41619656">
        <ele>128.71722</ele>
        <time>2019-11-21T20:58:34Z</time>
      </trkpt>
      <trkpt lat="43.20985442" lon="-2.41617451">
        <ele>129.59583</ele>
        <time>2019-11-21T20:58:35Z</time>
      </trkpt>
      <trkpt lat="43.21011596" lon="-2.41617624">
        <ele>129.52087</ele>
        <time>2019-11-21T20:58:36Z</time>
      </trkpt>
      <trkpt lat="43.21035254" lon="-2.41616389">
        <ele>129.13086</ele>
        <time>2019-11-21T20:58:37Z</time>
      </trkpt>
      <trkpt lat="43.2105721" lon="-2.41613257">
        <ele>129.36969</ele>
        <time>2019-11-21T20:58:38Z</time>
      </trkpt>
      <trkpt lat="43.21080051" lon="-2.41609816">
        <ele>128.52704</ele>
        <time>2019-11-21T20:58:39Z</time>
      </trkpt>
      <trkpt lat="43.21098344" lon="-2.41604524">
        <ele>127.416626</ele>
        <time>2019-11-21T20:58:40Z</time>
      </trkpt>
      <trkpt lat="43.21118923" lon="-2.41597024">
        <ele>129.00037</ele>
        <time>2019-11-21T20:58:41Z</time>
      </trkpt>
      <trkpt lat="43.2113951" lon="-2.41589328">
        <ele>130.75354</ele>
        <time>2019-11-21T20:58:42Z</time>
      </trkpt>
      <trkpt lat="43.21154739" lon="-2.4157994">
        <ele>131.25073</ele>
        <time>2019-11-21T20:58:44Z</time>
      </trkpt>
      <trkpt lat="43.21172908" lon="-2.41564163">
        <ele>131.97675</ele>
        <time>2019-11-21T20:58:45Z</time>
      </trkpt>
      <trkpt lat="43.21190554" lon="-2.41549038">
        <ele>134.94714</ele>
        <time>2019-11-21T20:58:46Z</time>
      </trkpt>
      <trkpt lat="43.21206014" lon="-2.41529887">
        <ele>133.70886</ele>
        <time>2019-11-21T20:58:47Z</time>
      </trkpt>
      <trkpt lat="43.21220308" lon="-2.4150772">
        <ele>133.08057</ele>
        <time>2019-11-21T20:58:48Z</time>
      </trkpt>
      <trkpt lat="43.21232687" lon="-2.41486307">
        <ele>133.0351</ele>
        <time>2019-11-21T20:58:49Z</time>
      </trkpt>
      <trkpt lat="43.21246074" lon="-2.41463133">
        <ele>134.04236</ele>
        <time>2019-11-21T20:58:50Z</time>
      </trkpt>
      <trkpt lat="43.21256382" lon="-2.414395">
        <ele>133.3252</ele>
        <time>2019-11-21T20:58:51Z</time>
      </trkpt>
      <trkpt lat="43.21266157" lon="-2.41414553">
        <ele>133.00165</ele>
        <time>2019-11-21T20:58:52Z</time>
      </trkpt>
      <trkpt lat="43.21273426" lon="-2.41386969">
        <ele>133.51892</ele>
        <time>2019-11-21T20:58:53Z</time>
      </trkpt>
      <trkpt lat="43.21277285" lon="-2.41361145">
        <ele>130.88562</ele>
        <time>2019-11-21T20:58:54Z</time>
      </trkpt>
      <trkpt lat="43.21282758" lon="-2.41330852">
        <ele>130.63684</ele>
        <time>2019-11-21T20:58:55Z</time>
      </trkpt>
      <trkpt lat="43.21285409" lon="-2.41301041">
        <ele>129.12872</ele>
        <time>2019-11-21T20:58:56Z</time>
      </trkpt>
      <trkpt lat="43.2128972" lon="-2.4127157">
        <ele>127.671875</ele>
        <time>2019-11-21T20:58:57Z</time>
      </trkpt>
      <trkpt lat="43.21295646" lon="-2.41241682">
        <ele>127.088745</ele>
        <time>2019-11-21T20:58:58Z</time>
      </trkpt>
      <trkpt lat="43.21309381" lon="-2.41184482">
        <ele>127.60535</ele>
        <time>2019-11-21T20:58:59Z</time>
      </trkpt>
      <trkpt lat="43.21317916" lon="-2.41155844">
        <ele>128.00726</ele>
        <time>2019-11-21T20:59:00Z</time>
      </trkpt>
      <trkpt lat="43.21327413" lon="-2.411288">
        <ele>127.503296</ele>
        <time>2019-11-21T20:59:01Z</time>
      </trkpt>
      <trkpt lat="43.21336405" lon="-2.4110212">
        <ele>126.34448</ele>
        <time>2019-11-21T20:59:02Z</time>
      </trkpt>
      <trkpt lat="43.2134557" lon="-2.41075289">
        <ele>124.87756</ele>
        <time>2019-11-21T20:59:03Z</time>
      </trkpt>
      <trkpt lat="43.21356406" lon="-2.41049307">
        <ele>124.38025</ele>
        <time>2019-11-21T20:59:04Z</time>
      </trkpt>
      <trkpt lat="43.21369613" lon="-2.41025018">
        <ele>124.38617</ele>
        <time>2019-11-21T20:59:05Z</time>
      </trkpt>
      <trkpt lat="43.21383002" lon="-2.41000932">
        <ele>124.76306</ele>
        <time>2019-11-21T20:59:06Z</time>
      </trkpt>
      <trkpt lat="43.21397833" lon="-2.40978919">
        <ele>125.279785</ele>
        <time>2019-11-21T20:59:07Z</time>
      </trkpt>
      <trkpt lat="43.21413747" lon="-2.40956137">
        <ele>125.63953</ele>
        <time>2019-11-21T20:59:08Z</time>
      </trkpt>
      <trkpt lat="43.21430728" lon="-2.40936091">
        <ele>125.49518</ele>
        <time>2019-11-21T20:59:09Z</time>
      </trkpt>
      <trkpt lat="43.21449021" lon="-2.40915493">
        <ele>125.4303</ele>
        <time>2019-11-21T20:59:10Z</time>
      </trkpt>
      <trkpt lat="43.21467796" lon="-2.40897285">
        <ele>125.934814</ele>
        <time>2019-11-21T20:59:12Z</time>
      </trkpt>
      <trkpt lat="43.21487726" lon="-2.40879264">
        <ele>125.366455</ele>
        <time>2019-11-21T20:59:13Z</time>
      </trkpt>
      <trkpt lat="43.21506953" lon="-2.40863189">
        <ele>125.222534</ele>
        <time>2019-11-21T20:59:14Z</time>
      </trkpt>
      <trkpt lat="43.21525963" lon="-2.408504">
        <ele>124.383484</ele>
        <time>2019-11-21T20:59:15Z</time>
      </trkpt>
      <trkpt lat="43.21545546" lon="-2.4083759">
        <ele>123.21704</ele>
        <time>2019-11-21T20:59:16Z</time>
      </trkpt>
      <trkpt lat="43.21567342" lon="-2.4082507">
        <ele>122.72412</ele>
        <time>2019-11-21T20:59:17Z</time>
      </trkpt>
      <trkpt lat="43.21588302" lon="-2.40812101">
        <ele>122.255615</ele>
        <time>2019-11-21T20:59:18Z</time>
      </trkpt>
      <trkpt lat="43.21609946" lon="-2.40798928">
        <ele>122.78259</ele>
        <time>2019-11-21T20:59:19Z</time>
      </trkpt>
      <trkpt lat="43.2163153" lon="-2.40785871">
        <ele>122.66992</ele>
        <time>2019-11-21T20:59:20Z</time>
      </trkpt>
      <trkpt lat="43.21652636" lon="-2.40771355">
        <ele>122.46985</ele>
        <time>2019-11-21T20:59:21Z</time>
      </trkpt>
      <trkpt lat="43.21674589" lon="-2.40755032">
        <ele>121.490906</ele>
        <time>2019-11-21T20:59:22Z</time>
      </trkpt>
      <trkpt lat="43.21694224" lon="-2.40738298">
        <ele>121.27136</ele>
        <time>2019-11-21T20:59:23Z</time>
      </trkpt>
      <trkpt lat="43.21714548" lon="-2.40717021">
        <ele>121.31824</ele>
        <time>2019-11-21T20:59:24Z</time>
      </trkpt>
      <trkpt lat="43.21734489" lon="-2.40695183">
        <ele>122.19318</ele>
        <time>2019-11-21T20:59:25Z</time>
      </trkpt>
      <trkpt lat="43.21752691" lon="-2.40673664">
        <ele>123.39636</ele>
        <time>2019-11-21T20:59:26Z</time>
      </trkpt>
      <trkpt lat="43.21769138" lon="-2.40651633">
        <ele>124.17529</ele>
        <time>2019-11-21T20:59:27Z</time>
      </trkpt>
      <trkpt lat="43.21802053" lon="-2.40601953">
        <ele>123.79376</ele>
        <time>2019-11-21T20:59:28Z</time>
      </trkpt>
      <trkpt lat="43.21817915" lon="-2.40576053">
        <ele>124.5105</ele>
        <time>2019-11-21T20:59:29Z</time>
      </trkpt>
      <trkpt lat="43.21833821" lon="-2.40549421">
        <ele>125.43335</ele>
        <time>2019-11-21T20:59:30Z</time>
      </trkpt>
      <trkpt lat="43.21845591" lon="-2.40522631">
        <ele>123.2337</ele>
        <time>2019-11-21T20:59:31Z</time>
      </trkpt>
      <trkpt lat="43.21860704" lon="-2.40496346">
        <ele>122.24982</ele>
        <time>2019-11-21T20:59:32Z</time>
      </trkpt>
      <trkpt lat="43.21875801" lon="-2.40471405">
        <ele>121.18237</ele>
        <time>2019-11-21T20:59:33Z</time>
      </trkpt>
      <trkpt lat="43.21891645" lon="-2.40448974">
        <ele>120.66931</ele>
        <time>2019-11-21T20:59:34Z</time>
      </trkpt>
      <trkpt lat="43.21908674" lon="-2.40427132">
        <ele>121.49432</ele>
        <time>2019-11-21T20:59:35Z</time>
      </trkpt>
      <trkpt lat="43.21927229" lon="-2.40406672">
        <ele>120.62549</ele>
        <time>2019-11-21T20:59:36Z</time>
      </trkpt>
      <trkpt lat="43.21947392" lon="-2.40383433">
        <ele>120.75244</ele>
        <time>2019-11-21T20:59:37Z</time>
      </trkpt>
      <trkpt lat="43.2196654" lon="-2.40366882">
        <ele>119.033325</ele>
        <time>2019-11-21T20:59:38Z</time>
      </trkpt>
      <trkpt lat="43.21984638" lon="-2.40351398">
        <ele>117.386475</ele>
        <time>2019-11-21T20:59:39Z</time>
      </trkpt>
      <trkpt lat="43.22004995" lon="-2.40336608">
        <ele>117.53345</ele>
        <time>2019-11-21T20:59:40Z</time>
      </trkpt>
      <trkpt lat="43.22024693" lon="-2.40321841">
        <ele>115.57037</ele>
        <time>2019-11-21T20:59:41Z</time>
      </trkpt>
      <trkpt lat="43.22045557" lon="-2.40308667">
        <ele>115.324646</ele>
        <time>2019-11-21T20:59:43Z</time>
      </trkpt>
      <trkpt lat="43.22067637" lon="-2.4029667">
        <ele>115.88385</ele>
        <time>2019-11-21T20:59:44Z</time>
      </trkpt>
      <trkpt lat="43.2208889" lon="-2.40288404">
        <ele>115.50696</ele>
        <time>2019-11-21T20:59:45Z</time>
      </trkpt>
      <trkpt lat="43.22110124" lon="-2.40280102">
        <ele>115.086914</ele>
        <time>2019-11-21T20:59:46Z</time>
      </trkpt>
      <trkpt lat="43.22130466" lon="-2.40274353">
        <ele>114.68103</ele>
        <time>2019-11-21T20:59:47Z</time>
      </trkpt>
      <trkpt lat="43.22152006" lon="-2.40269545">
        <ele>114.858826</ele>
        <time>2019-11-21T20:59:48Z</time>
      </trkpt>
      <trkpt lat="43.22173095" lon="-2.40266161">
        <ele>114.099365</ele>
        <time>2019-11-21T20:59:49Z</time>
      </trkpt>
      <trkpt lat="43.22195526" lon="-2.40263695">
        <ele>113.57794</ele>
        <time>2019-11-21T20:59:50Z</time>
      </trkpt>
      <trkpt lat="43.22216781" lon="-2.40262343">
        <ele>113.40216</ele>
        <time>2019-11-21T20:59:51Z</time>
      </trkpt>
      <trkpt lat="43.22238437" lon="-2.40260094">
        <ele>112.53717</ele>
        <time>2019-11-21T20:59:52Z</time>
      </trkpt>
      <trkpt lat="43.22261149" lon="-2.40260737">
        <ele>112.93335</ele>
        <time>2019-11-21T20:59:53Z</time>
      </trkpt>
      <trkpt lat="43.22283454" lon="-2.40262176">
        <ele>112.914795</ele>
        <time>2019-11-21T20:59:54Z</time>
      </trkpt>
      <trkpt lat="43.22306844" lon="-2.40263716">
        <ele>114.06604</ele>
        <time>2019-11-21T20:59:55Z</time>
      </trkpt>
      <trkpt lat="43.22330998" lon="-2.40266622">
        <ele>114.97247</ele>
        <time>2019-11-21T20:59:56Z</time>
      </trkpt>
      <trkpt lat="43.22355895" lon="-2.40269784">
        <ele>115.388794</ele>
        <time>2019-11-21T20:59:57Z</time>
      </trkpt>
      <trkpt lat="43.22379067" lon="-2.40274548">
        <ele>114.68616</ele>
        <time>2019-11-21T20:59:58Z</time>
      </trkpt>
      <trkpt lat="43.22404102" lon="-2.40279154">
        <ele>116.10675</ele>
        <time>2019-11-21T20:59:59Z</time>
      </trkpt>
      <trkpt lat="43.22452556" lon="-2.40286829">
        <ele>116.94165</ele>
        <time>2019-11-21T21:00:00Z</time>
      </trkpt>
      <trkpt lat="43.22477141" lon="-2.40291145">
        <ele>120.138245</ele>
        <time>2019-11-21T21:00:01Z</time>
      </trkpt>
      <trkpt lat="43.22501414" lon="-2.40291898">
        <ele>117.49744</ele>
        <time>2019-11-21T21:00:02Z</time>
      </trkpt>
      <trkpt lat="43.22526668" lon="-2.40292707">
        <ele>114.91693</ele>
        <time>2019-11-21T21:00:03Z</time>
      </trkpt>
      <trkpt lat="43.22551742" lon="-2.40293404">
        <ele>114.078125</ele>
        <time>2019-11-21T21:00:04Z</time>
      </trkpt>
      <trkpt lat="43.22576905" lon="-2.40293171">
        <ele>113.30896</ele>
        <time>2019-11-21T21:00:05Z</time>
      </trkpt>
      <trkpt lat="43.22601002" lon="-2.40292514">
        <ele>111.75836</ele>
        <time>2019-11-21T21:00:06Z</time>
      </trkpt>
      <trkpt lat="43.22625448" lon="-2.40291463">
        <ele>110.43628</ele>
        <time>2019-11-21T21:00:07Z</time>
      </trkpt>
      <trkpt lat="43.22651166" lon="-2.40289488">
        <ele>109.8952</ele>
        <time>2019-11-21T21:00:08Z</time>
      </trkpt>
      <trkpt lat="43.22675454" lon="-2.40288032">
        <ele>108.851685</ele>
        <time>2019-11-21T21:00:09Z</time>
      </trkpt>
      <trkpt lat="43.22700521" lon="-2.40286187">
        <ele>108.02252</ele>
        <time>2019-11-21T21:00:10Z</time>
      </trkpt>
      <trkpt lat="43.22724941" lon="-2.40285267">
        <ele>107.84607</ele>
        <time>2019-11-21T21:00:12Z</time>
      </trkpt>
      <trkpt lat="43.22750375" lon="-2.40283777">
        <ele>107.449036</ele>
        <time>2019-11-21T21:00:13Z</time>
      </trkpt>
      <trkpt lat="43.22775509" lon="-2.40282404">
        <ele>106.194336</ele>
        <time>2019-11-21T21:00:14Z</time>
      </trkpt>
      <trkpt lat="43.22800385" lon="-2.40282331">
        <ele>105.229126</ele>
        <time>2019-11-21T21:00:15Z</time>
      </trkpt>
      <trkpt lat="43.2282492" lon="-2.40283357">
        <ele>105.1994</ele>
        <time>2019-11-21T21:00:16Z</time>
      </trkpt>
      <trkpt lat="43.22850092" lon="-2.40284762">
        <ele>104.42529</ele>
        <time>2019-11-21T21:00:17Z</time>
      </trkpt>
      <trkpt lat="43.2287526" lon="-2.40288888">
        <ele>103.13757</ele>
        <time>2019-11-21T21:00:18Z</time>
      </trkpt>
      <trkpt lat="43.228993" lon="-2.40293974">
        <ele>101.81659</ele>
        <time>2019-11-21T21:00:19Z</time>
      </trkpt>
      <trkpt lat="43.22924544" lon="-2.40299458">
        <ele>102.156555</ele>
        <time>2019-11-21T21:00:20Z</time>
      </trkpt>
      <trkpt lat="43.22949571" lon="-2.4030596">
        <ele>101.52777</ele>
        <time>2019-11-21T21:00:21Z</time>
      </trkpt>
      <trkpt lat="43.22974873" lon="-2.40313327">
        <ele>101.04346</ele>
        <time>2019-11-21T21:00:22Z</time>
      </trkpt>
      <trkpt lat="43.23000352" lon="-2.40322173">
        <ele>100.79004</ele>
        <time>2019-11-21T21:00:23Z</time>
      </trkpt>
      <trkpt lat="43.23025844" lon="-2.4033229">
        <ele>99.96332</ele>
        <time>2019-11-21T21:00:24Z</time>
      </trkpt>
      <trkpt lat="43.23050513" lon="-2.40343228">
        <ele>99.27948</ele>
        <time>2019-11-21T21:00:25Z</time>
      </trkpt>
      <trkpt lat="43.23075174" lon="-2.40356382">
        <ele>98.94336</ele>
        <time>2019-11-21T21:00:26Z</time>
      </trkpt>
      <trkpt lat="43.23099792" lon="-2.40369863">
        <ele>97.97485</ele>
        <time>2019-11-21T21:00:27Z</time>
      </trkpt>
      <trkpt lat="43.23146567" lon="-2.40397701">
        <ele>93.72327</ele>
        <time>2019-11-21T21:00:28Z</time>
      </trkpt>
      <trkpt lat="43.23170363" lon="-2.40411485">
        <ele>92.7522</ele>
        <time>2019-11-21T21:00:29Z</time>
      </trkpt>
      <trkpt lat="43.23195094" lon="-2.40426333">
        <ele>92.09235</ele>
        <time>2019-11-21T21:00:30Z</time>
      </trkpt>
      <trkpt lat="43.23219589" lon="-2.40439175">
        <ele>91.15924</ele>
        <time>2019-11-21T21:00:31Z</time>
      </trkpt>
      <trkpt lat="43.23243595" lon="-2.404504">
        <ele>90.53607</ele>
        <time>2019-11-21T21:00:32Z</time>
      </trkpt>
      <trkpt lat="43.23268577" lon="-2.40458297">
        <ele>89.31311</ele>
        <time>2019-11-21T21:00:33Z</time>
      </trkpt>
      <trkpt lat="43.23294435" lon="-2.40462485">
        <ele>88.00519</ele>
        <time>2019-11-21T21:00:34Z</time>
      </trkpt>
      <trkpt lat="43.2331967" lon="-2.40464096">
        <ele>88.297</ele>
        <time>2019-11-21T21:00:35Z</time>
      </trkpt>
      <trkpt lat="43.23344561" lon="-2.40461642">
        <ele>85.1582</ele>
        <time>2019-11-21T21:00:36Z</time>
      </trkpt>
      <trkpt lat="43.23370586" lon="-2.40457904">
        <ele>85.7406</ele>
        <time>2019-11-21T21:00:37Z</time>
      </trkpt>
      <trkpt lat="43.23395393" lon="-2.40451416">
        <ele>85.9491</ele>
        <time>2019-11-21T21:00:38Z</time>
      </trkpt>
      <trkpt lat="43.23419802" lon="-2.40440607">
        <ele>85.24402</ele>
        <time>2019-11-21T21:00:39Z</time>
      </trkpt>
      <trkpt lat="43.23443131" lon="-2.40427856">
        <ele>85.5014</ele>
        <time>2019-11-21T21:00:41Z</time>
      </trkpt>
      <trkpt lat="43.2346393" lon="-2.40413276">
        <ele>85.26947</ele>
        <time>2019-11-21T21:00:42Z</time>
      </trkpt>
      <trkpt lat="43.23484257" lon="-2.40395953">
        <ele>84.77893</ele>
        <time>2019-11-21T21:00:43Z</time>
      </trkpt>
      <trkpt lat="43.23504744" lon="-2.40376247">
        <ele>84.90631</ele>
        <time>2019-11-21T21:00:44Z</time>
      </trkpt>
      <trkpt lat="43.23525237" lon="-2.40351896">
        <ele>84.74426</ele>
        <time>2019-11-21T21:00:45Z</time>
      </trkpt>
      <trkpt lat="43.2354456" lon="-2.4032837">
        <ele>85.63745</ele>
        <time>2019-11-21T21:00:46Z</time>
      </trkpt>
      <trkpt lat="43.23562944" lon="-2.40303139">
        <ele>87.538574</ele>
        <time>2019-11-21T21:00:47Z</time>
      </trkpt>
      <trkpt lat="43.23579749" lon="-2.40278292">
        <ele>87.20404</ele>
        <time>2019-11-21T21:00:48Z</time>
      </trkpt>
      <trkpt lat="43.23595019" lon="-2.40255036">
        <ele>95.01483</ele>
        <time>2019-11-21T21:00:49Z</time>
      </trkpt>
      <trkpt lat="43.23610035" lon="-2.40232586">
        <ele>92.96857</ele>
        <time>2019-11-21T21:00:50Z</time>
      </trkpt>
      <trkpt lat="43.23623879" lon="-2.40209758">
        <ele>91.342896</ele>
        <time>2019-11-21T21:00:51Z</time>
      </trkpt>
      <trkpt lat="43.23637913" lon="-2.4018569">
        <ele>91.74011</ele>
        <time>2019-11-21T21:00:52Z</time>
      </trkpt>
      <trkpt lat="43.23651541" lon="-2.40160708">
        <ele>91.68384</ele>
        <time>2019-11-21T21:00:53Z</time>
      </trkpt>
      <trkpt lat="43.23665018" lon="-2.40135955">
        <ele>92.12714</ele>
        <time>2019-11-21T21:00:54Z</time>
      </trkpt>
      <trkpt lat="43.23678319" lon="-2.40111081">
        <ele>93.26355</ele>
        <time>2019-11-21T21:00:55Z</time>
      </trkpt>
      <trkpt lat="43.23691066" lon="-2.40086813">
        <ele>93.28601</ele>
        <time>2019-11-21T21:00:56Z</time>
      </trkpt>
      <trkpt lat="43.23705683" lon="-2.40062738">
        <ele>93.18738</ele>
        <time>2019-11-21T21:00:57Z</time>
      </trkpt>
      <trkpt lat="43.2371944" lon="-2.40039202">
        <ele>94.03186</ele>
        <time>2019-11-21T21:00:58Z</time>
      </trkpt>
      <trkpt lat="43.23749727" lon="-2.39995087">
        <ele>94.61664</ele>
        <time>2019-11-21T21:00:59Z</time>
      </trkpt>
      <trkpt lat="43.23766311" lon="-2.39974693">
        <ele>95.201965</ele>
        <time>2019-11-21T21:01:00Z</time>
      </trkpt>
      <trkpt lat="43.23783909" lon="-2.39956535">
        <ele>95.9787</ele>
        <time>2019-11-21T21:01:01Z</time>
      </trkpt>
      <trkpt lat="43.23802149" lon="-2.39940722">
        <ele>96.62897</ele>
        <time>2019-11-21T21:01:02Z</time>
      </trkpt>
      <trkpt lat="43.23822005" lon="-2.39926285">
        <ele>97.29248</ele>
        <time>2019-11-21T21:01:03Z</time>
      </trkpt>
      <trkpt lat="43.23841369" lon="-2.39914691">
        <ele>97.64197</ele>
        <time>2019-11-21T21:01:04Z</time>
      </trkpt>
      <trkpt lat="43.23865033" lon="-2.3990369">
        <ele>96.50116</ele>
        <time>2019-11-21T21:01:05Z</time>
      </trkpt>
      <trkpt lat="43.23887271" lon="-2.39895292">
        <ele>97.15271</ele>
        <time>2019-11-21T21:01:06Z</time>
      </trkpt>
      <trkpt lat="43.23910821" lon="-2.39889409">
        <ele>96.89551</ele>
        <time>2019-11-21T21:01:07Z</time>
      </trkpt>
      <trkpt lat="43.23933893" lon="-2.39886956">
        <ele>95.91321</ele>
        <time>2019-11-21T21:01:08Z</time>
      </trkpt>
      <trkpt lat="43.23958707" lon="-2.39887501">
        <ele>96.53088</ele>
        <time>2019-11-21T21:01:09Z</time>
      </trkpt>
      <trkpt lat="43.23980501" lon="-2.39891228">
        <ele>95.79138</ele>
        <time>2019-11-21T21:01:10Z</time>
      </trkpt>
      <trkpt lat="43.24004156" lon="-2.3989702">
        <ele>95.068726</ele>
        <time>2019-11-21T21:01:11Z</time>
      </trkpt>
      <trkpt lat="43.24026504" lon="-2.399034">
        <ele>92.94928</ele>
        <time>2019-11-21T21:01:12Z</time>
      </trkpt>
      <trkpt lat="43.24050943" lon="-2.39910399">
        <ele>91.6687</ele>
        <time>2019-11-21T21:01:14Z</time>
      </trkpt>
      <trkpt lat="43.24075697" lon="-2.39916261">
        <ele>90.80957</ele>
        <time>2019-11-21T21:01:15Z</time>
      </trkpt>
      <trkpt lat="43.24100977" lon="-2.39920074">
        <ele>90.55524</ele>
        <time>2019-11-21T21:01:16Z</time>
      </trkpt>
      <trkpt lat="43.24125127" lon="-2.39921642">
        <ele>88.543335</ele>
        <time>2019-11-21T21:01:17Z</time>
      </trkpt>
      <trkpt lat="43.24148899" lon="-2.39919778">
        <ele>86.810974</ele>
        <time>2019-11-21T21:01:18Z</time>
      </trkpt>
      <trkpt lat="43.24172025" lon="-2.39916329">
        <ele>85.89789</ele>
        <time>2019-11-21T21:01:19Z</time>
      </trkpt>
      <trkpt lat="43.24196087" lon="-2.39908946">
        <ele>85.84296</ele>
        <time>2019-11-21T21:01:20Z</time>
      </trkpt>
      <trkpt lat="43.24218861" lon="-2.39898206">
        <ele>85.71179</ele>
        <time>2019-11-21T21:01:21Z</time>
      </trkpt>
      <trkpt lat="43.24240724" lon="-2.39885399">
        <ele>85.77295</ele>
        <time>2019-11-21T21:01:22Z</time>
      </trkpt>
      <trkpt lat="43.24260544" lon="-2.39869264">
        <ele>84.91516</ele>
        <time>2019-11-21T21:01:23Z</time>
      </trkpt>
      <trkpt lat="43.24281211" lon="-2.39850932">
        <ele>85.58661</ele>
        <time>2019-11-21T21:01:24Z</time>
      </trkpt>
      <trkpt lat="43.24298739" lon="-2.39830476">
        <ele>83.7334</ele>
        <time>2019-11-21T21:01:25Z</time>
      </trkpt>
      <trkpt lat="43.24315889" lon="-2.39808078">
        <ele>84.62109</ele>
        <time>2019-11-21T21:01:26Z</time>
      </trkpt>
      <trkpt lat="43.24331474" lon="-2.39784267">
        <ele>83.55005</ele>
        <time>2019-11-21T21:01:27Z</time>
      </trkpt>
      <trkpt lat="43.24347209" lon="-2.39762059">
        <ele>82.16229</ele>
        <time>2019-11-21T21:01:28Z</time>
      </trkpt>
      <trkpt lat="43.24364285" lon="-2.39737051">
        <ele>82.13867</ele>
        <time>2019-11-21T21:01:29Z</time>
      </trkpt>
      <trkpt lat="43.24398948" lon="-2.39689197">
        <ele>81.24963</ele>
        <time>2019-11-21T21:01:30Z</time>
      </trkpt>
      <trkpt lat="43.24416692" lon="-2.39666118">
        <ele>80.13245</ele>
        <time>2019-11-21T21:01:31Z</time>
      </trkpt>
      <trkpt lat="43.24434507" lon="-2.39642881">
        <ele>79.288574</ele>
        <time>2019-11-21T21:01:32Z</time>
      </trkpt>
      <trkpt lat="43.24453699" lon="-2.39620813">
        <ele>79.27112</ele>
        <time>2019-11-21T21:01:33Z</time>
      </trkpt>
      <trkpt lat="43.24473093" lon="-2.39599835">
        <ele>78.605774</ele>
        <time>2019-11-21T21:01:34Z</time>
      </trkpt>
      <trkpt lat="43.2449244" lon="-2.39580703">
        <ele>78.20715</ele>
        <time>2019-11-21T21:01:35Z</time>
      </trkpt>
      <trkpt lat="43.24512653" lon="-2.39561743">
        <ele>77.51013</ele>
        <time>2019-11-21T21:01:36Z</time>
      </trkpt>
      <trkpt lat="43.24533687" lon="-2.39543532">
        <ele>76.24353</ele>
        <time>2019-11-21T21:01:37Z</time>
      </trkpt>
      <trkpt lat="43.24556061" lon="-2.3952636">
        <ele>76.97412</ele>
        <time>2019-11-21T21:01:38Z</time>
      </trkpt>
      <trkpt lat="43.24577977" lon="-2.3950953">
        <ele>77.84589</ele>
        <time>2019-11-21T21:01:39Z</time>
      </trkpt>
      <trkpt lat="43.24597259" lon="-2.39494236">
        <ele>76.62103</ele>
        <time>2019-11-21T21:01:40Z</time>
      </trkpt>
      <trkpt lat="43.24616884" lon="-2.39481892">
        <ele>73.41205</ele>
        <time>2019-11-21T21:01:41Z</time>
      </trkpt>
      <trkpt lat="43.24640472" lon="-2.39466789">
        <ele>74.21991</ele>
        <time>2019-11-21T21:01:42Z</time>
      </trkpt>
      <trkpt lat="43.24663284" lon="-2.39452097">
        <ele>74.1001</ele>
        <time>2019-11-21T21:01:44Z</time>
      </trkpt>
      <trkpt lat="43.24687509" lon="-2.39438461">
        <ele>73.93347</ele>
        <time>2019-11-21T21:01:45Z</time>
      </trkpt>
      <trkpt lat="43.24709023" lon="-2.39426354">
        <ele>73.401855</ele>
        <time>2019-11-21T21:01:46Z</time>
      </trkpt>
      <trkpt lat="43.247313" lon="-2.3941664">
        <ele>73.31189</ele>
        <time>2019-11-21T21:01:47Z</time>
      </trkpt>
      <trkpt lat="43.24753242" lon="-2.39407207">
        <ele>73.8219</ele>
        <time>2019-11-21T21:01:48Z</time>
      </trkpt>
      <trkpt lat="43.24773847" lon="-2.39400286">
        <ele>73.66101</ele>
        <time>2019-11-21T21:01:49Z</time>
      </trkpt>
      <trkpt lat="43.24797369" lon="-2.3939136">
        <ele>73.82031</ele>
        <time>2019-11-21T21:01:50Z</time>
      </trkpt>
      <trkpt lat="43.2481586" lon="-2.39384303">
        <ele>71.38507</ele>
        <time>2019-11-21T21:01:51Z</time>
      </trkpt>
      <trkpt lat="43.24837758" lon="-2.39376981">
        <ele>71.75763</ele>
        <time>2019-11-21T21:01:52Z</time>
      </trkpt>
      <trkpt lat="43.24862717" lon="-2.39366032">
        <ele>71.16058</ele>
        <time>2019-11-21T21:01:53Z</time>
      </trkpt>
      <trkpt lat="43.24886506" lon="-2.39354336">
        <ele>72.57745</ele>
        <time>2019-11-21T21:01:54Z</time>
      </trkpt>
      <trkpt lat="43.2490846" lon="-2.39347298">
        <ele>74.05548</ele>
        <time>2019-11-21T21:01:55Z</time>
      </trkpt>
      <trkpt lat="43.24929354" lon="-2.39337233">
        <ele>74.03467</ele>
        <time>2019-11-21T21:01:56Z</time>
      </trkpt>
      <trkpt lat="43.24949841" lon="-2.39325491">
        <ele>76.14606</ele>
        <time>2019-11-21T21:01:57Z</time>
      </trkpt>
      <trkpt lat="43.24969164" lon="-2.39312883">
        <ele>78.42163</ele>
        <time>2019-11-21T21:01:58Z</time>
      </trkpt>
      <trkpt lat="43.25005242" lon="-2.39279656">
        <ele>78.240845</ele>
        <time>2019-11-21T21:01:59Z</time>
      </trkpt>
      <trkpt lat="43.25022075" lon="-2.39262049">
        <ele>79.70935</ele>
        <time>2019-11-21T21:02:00Z</time>
      </trkpt>
      <trkpt lat="43.2503925" lon="-2.39242313">
        <ele>78.97363</ele>
        <time>2019-11-21T21:02:01Z</time>
      </trkpt>
      <trkpt lat="43.25053497" lon="-2.39221398">
        <ele>77.25525</ele>
        <time>2019-11-21T21:02:02Z</time>
      </trkpt>
      <trkpt lat="43.25069379" lon="-2.39198011">
        <ele>74.89453</ele>
        <time>2019-11-21T21:02:03Z</time>
      </trkpt>
      <trkpt lat="43.25085602" lon="-2.39174366">
        <ele>75.545105</ele>
        <time>2019-11-21T21:02:04Z</time>
      </trkpt>
      <trkpt lat="43.2510177" lon="-2.39149315">
        <ele>78.326904</ele>
        <time>2019-11-21T21:02:05Z</time>
      </trkpt>
      <trkpt lat="43.25118384" lon="-2.39123266">
        <ele>81.27167</ele>
        <time>2019-11-21T21:02:06Z</time>
      </trkpt>
      <trkpt lat="43.25133627" lon="-2.39100257">
        <ele>88.87744</ele>
        <time>2019-11-21T21:02:07Z</time>
      </trkpt>
      <trkpt lat="43.2515105" lon="-2.39077631">
        <ele>86.21527</ele>
        <time>2019-11-21T21:02:08Z</time>
      </trkpt>
      <trkpt lat="43.2516935" lon="-2.39057437">
        <ele>85.410645</ele>
        <time>2019-11-21T21:02:09Z</time>
      </trkpt>
      <trkpt lat="43.25188055" lon="-2.39040638">
        <ele>85.32263</ele>
        <time>2019-11-21T21:02:10Z</time>
      </trkpt>
      <trkpt lat="43.25207875" lon="-2.39026522">
        <ele>84.58679</ele>
        <time>2019-11-21T21:02:12Z</time>
      </trkpt>
      <trkpt lat="43.25226795" lon="-2.39015291">
        <ele>84.1228</ele>
        <time>2019-11-21T21:02:13Z</time>
      </trkpt>
      <trkpt lat="43.25248703" lon="-2.39004282">
        <ele>84.5921</ele>
        <time>2019-11-21T21:02:14Z</time>
      </trkpt>
      <trkpt lat="43.2527153" lon="-2.389963">
        <ele>85.55536</ele>
        <time>2019-11-21T21:02:15Z</time>
      </trkpt>
      <trkpt lat="43.25294835" lon="-2.38990688">
        <ele>85.220276</ele>
        <time>2019-11-21T21:02:16Z</time>
      </trkpt>
      <trkpt lat="43.25322184" lon="-2.38986405">
        <ele>84.99957</ele>
        <time>2019-11-21T21:02:17Z</time>
      </trkpt>
      <trkpt lat="43.25345925" lon="-2.38987083">
        <ele>84.88635</ele>
        <time>2019-11-21T21:02:18Z</time>
      </trkpt>
      <trkpt lat="43.25370809" lon="-2.38987208">
        <ele>85.795654</ele>
        <time>2019-11-21T21:02:19Z</time>
      </trkpt>
      <trkpt lat="43.25396629" lon="-2.38988544">
        <ele>86.211</ele>
        <time>2019-11-21T21:02:20Z</time>
      </trkpt>
      <trkpt lat="43.2541928" lon="-2.38989635">
        <ele>85.64935</ele>
        <time>2019-11-21T21:02:21Z</time>
      </trkpt>
      <trkpt lat="43.25444543" lon="-2.38989481">
        <ele>85.49994</ele>
        <time>2019-11-21T21:02:22Z</time>
      </trkpt>
      <trkpt lat="43.25469176" lon="-2.38987413">
        <ele>86.46912</ele>
        <time>2019-11-21T21:02:23Z</time>
      </trkpt>
      <trkpt lat="43.25516021" lon="-2.38971932">
        <ele>87.99585</ele>
        <time>2019-11-21T21:02:24Z</time>
      </trkpt>
      <trkpt lat="43.25538831" lon="-2.38959349">
        <ele>88.73309</ele>
        <time>2019-11-21T21:02:25Z</time>
      </trkpt>
      <trkpt lat="43.25561448" lon="-2.38945737">
        <ele>89.97504</ele>
        <time>2019-11-21T21:02:26Z</time>
      </trkpt>
      <trkpt lat="43.25582739" lon="-2.38927939">
        <ele>90.51044</ele>
        <time>2019-11-21T21:02:27Z</time>
      </trkpt>
      <trkpt lat="43.25599366" lon="-2.38911073">
        <ele>90.29492</ele>
        <time>2019-11-21T21:02:28Z</time>
      </trkpt>
      <trkpt lat="43.25617456" lon="-2.38889014">
        <ele>90.6604</ele>
        <time>2019-11-21T21:02:29Z</time>
      </trkpt>
      <trkpt lat="43.25633212" lon="-2.38864253">
        <ele>91.14819</ele>
        <time>2019-11-21T21:02:30Z</time>
      </trkpt>
      <trkpt lat="43.25647135" lon="-2.38838784">
        <ele>91.00226</ele>
        <time>2019-11-21T21:02:31Z</time>
      </trkpt>
      <trkpt lat="43.25659848" lon="-2.38810972">
        <ele>91.43585</ele>
        <time>2019-11-21T21:02:32Z</time>
      </trkpt>
      <trkpt lat="43.25669407" lon="-2.38782253">
        <ele>90.83905</ele>
        <time>2019-11-21T21:02:33Z</time>
      </trkpt>
      <trkpt lat="43.2567916" lon="-2.38751908">
        <ele>90.121704</ele>
        <time>2019-11-21T21:02:34Z</time>
      </trkpt>
      <trkpt lat="43.25686333" lon="-2.38718339">
        <ele>90.27942</ele>
        <time>2019-11-21T21:02:35Z</time>
      </trkpt>
      <trkpt lat="43.25693237" lon="-2.38685662">
        <ele>89.8172</ele>
        <time>2019-11-21T21:02:36Z</time>
      </trkpt>
      <trkpt lat="43.25700637" lon="-2.38649904">
        <ele>89.16107</ele>
        <time>2019-11-21T21:02:38Z</time>
      </trkpt>
      <trkpt lat="43.25708156" lon="-2.38615312">
        <ele>89.12933</ele>
        <time>2019-11-21T21:02:39Z</time>
      </trkpt>
      <trkpt lat="43.25718622" lon="-2.38587789">
        <ele>88.47687</ele>
        <time>2019-11-21T21:02:40Z</time>
      </trkpt>
      <trkpt lat="43.25729341" lon="-2.38556298">
        <ele>88.88904</ele>
        <time>2019-11-21T21:02:41Z</time>
      </trkpt>
      <trkpt lat="43.2574146" lon="-2.38524768">
        <ele>87.39575</ele>
        <time>2019-11-21T21:02:42Z</time>
      </trkpt>
      <trkpt lat="43.25756559" lon="-2.38494181">
        <ele>87.340576</ele>
        <time>2019-11-21T21:02:43Z</time>
      </trkpt>
      <trkpt lat="43.2576975" lon="-2.38463597">
        <ele>86.585754</ele>
        <time>2019-11-21T21:02:44Z</time>
      </trkpt>
      <trkpt lat="43.25784683" lon="-2.38438531">
        <ele>86.21002</ele>
        <time>2019-11-21T21:02:45Z</time>
      </trkpt>
      <trkpt lat="43.25799171" lon="-2.3841323">
        <ele>82.65588</ele>
        <time>2019-11-21T21:02:46Z</time>
      </trkpt>
      <trkpt lat="43.2581532" lon="-2.38385394">
        <ele>82.453</ele>
        <time>2019-11-21T21:02:47Z</time>
      </trkpt>
      <trkpt lat="43.25831446" lon="-2.383588">
        <ele>81.398926</ele>
        <time>2019-11-21T21:02:48Z</time>
      </trkpt>
      <trkpt lat="43.25844638" lon="-2.38328974">
        <ele>79.798584</ele>
        <time>2019-11-21T21:02:49Z</time>
      </trkpt>
      <trkpt lat="43.25862155" lon="-2.38304132">
        <ele>78.43994</ele>
        <time>2019-11-21T21:02:50Z</time>
      </trkpt>
      <trkpt lat="43.25879147" lon="-2.38275172">
        <ele>77.29492</ele>
        <time>2019-11-21T21:02:51Z</time>
      </trkpt>
      <trkpt lat="43.2589453" lon="-2.38243781">
        <ele>76.308105</ele>
        <time>2019-11-21T21:02:52Z</time>
      </trkpt>
      <trkpt lat="43.25909831" lon="-2.38212679">
        <ele>77.63373</ele>
        <time>2019-11-21T21:02:53Z</time>
      </trkpt>
      <trkpt lat="43.25937181" lon="-2.38152602">
        <ele>77.320984</ele>
        <time>2019-11-21T21:02:54Z</time>
      </trkpt>
      <trkpt lat="43.25951386" lon="-2.38119418">
        <ele>75.42407</ele>
        <time>2019-11-21T21:02:55Z</time>
      </trkpt>
      <trkpt lat="43.25963745" lon="-2.3808347">
        <ele>73.833496</ele>
        <time>2019-11-21T21:02:56Z</time>
      </trkpt>
      <trkpt lat="43.25975108" lon="-2.38050246">
        <ele>71.81384</ele>
        <time>2019-11-21T21:02:57Z</time>
      </trkpt>
      <trkpt lat="43.25987751" lon="-2.38018481">
        <ele>72.19739</ele>
        <time>2019-11-21T21:02:58Z</time>
      </trkpt>
      <trkpt lat="43.26002781" lon="-2.37988894">
        <ele>70.66382</ele>
        <time>2019-11-21T21:02:59Z</time>
      </trkpt>
      <trkpt lat="43.26013967" lon="-2.37960322">
        <ele>70.90204</ele>
        <time>2019-11-21T21:03:00Z</time>
      </trkpt>
      <trkpt lat="43.26028967" lon="-2.37936118">
        <ele>70.078735</ele>
        <time>2019-11-21T21:03:01Z</time>
      </trkpt>
      <trkpt lat="43.26043315" lon="-2.37910177">
        <ele>70.49689</ele>
        <time>2019-11-21T21:03:02Z</time>
      </trkpt>
      <trkpt lat="43.2605722" lon="-2.37883493">
        <ele>70.694885</ele>
        <time>2019-11-21T21:03:03Z</time>
      </trkpt>
      <trkpt lat="43.26073712" lon="-2.37859345">
        <ele>71.61279</ele>
        <time>2019-11-21T21:03:04Z</time>
      </trkpt>
      <trkpt lat="43.26090187" lon="-2.37835049">
        <ele>73.36621</ele>
        <time>2019-11-21T21:03:05Z</time>
      </trkpt>
      <trkpt lat="43.26106783" lon="-2.37811932">
        <ele>73.07196</ele>
        <time>2019-11-21T21:03:06Z</time>
      </trkpt>
      <trkpt lat="43.26125047" lon="-2.37788108">
        <ele>73.15369</ele>
        <time>2019-11-21T21:03:08Z</time>
      </trkpt>
      <trkpt lat="43.26142921" lon="-2.37763823">
        <ele>73.11432</ele>
        <time>2019-11-21T21:03:09Z</time>
      </trkpt>
      <trkpt lat="43.26162447" lon="-2.37743589">
        <ele>73.99951</ele>
        <time>2019-11-21T21:03:10Z</time>
      </trkpt>
      <trkpt lat="43.261826" lon="-2.3772238">
        <ele>73.92505</ele>
        <time>2019-11-21T21:03:11Z</time>
      </trkpt>
      <trkpt lat="43.26202031" lon="-2.37703008">
        <ele>74.56384</ele>
        <time>2019-11-21T21:03:12Z</time>
      </trkpt>
      <trkpt lat="43.26222126" lon="-2.37683705">
        <ele>75.26874</ele>
        <time>2019-11-21T21:03:13Z</time>
      </trkpt>
      <trkpt lat="43.26242392" lon="-2.37664429">
        <ele>75.092224</ele>
        <time>2019-11-21T21:03:14Z</time>
      </trkpt>
      <trkpt lat="43.26261502" lon="-2.37645339">
        <ele>75.59039</ele>
        <time>2019-11-21T21:03:15Z</time>
      </trkpt>
      <trkpt lat="43.26280267" lon="-2.37623673">
        <ele>76.008606</ele>
        <time>2019-11-21T21:03:16Z</time>
      </trkpt>
      <trkpt lat="43.26295602" lon="-2.37603128">
        <ele>77.12396</ele>
        <time>2019-11-21T21:03:17Z</time>
      </trkpt>
      <trkpt lat="43.26309938" lon="-2.37578396">
        <ele>77.16101</ele>
        <time>2019-11-21T21:03:18Z</time>
      </trkpt>
      <trkpt lat="43.26322713" lon="-2.37551753">
        <ele>76.359436</ele>
        <time>2019-11-21T21:03:19Z</time>
      </trkpt>
      <trkpt lat="43.26333509" lon="-2.37525428">
        <ele>76.29889</ele>
        <time>2019-11-21T21:03:20Z</time>
      </trkpt>
      <trkpt lat="43.26344813" lon="-2.37497468">
        <ele>77.72229</ele>
        <time>2019-11-21T21:03:21Z</time>
      </trkpt>
      <trkpt lat="43.26354777" lon="-2.37469683">
        <ele>77.775696</ele>
        <time>2019-11-21T21:03:22Z</time>
      </trkpt>
      <trkpt lat="43.26365684" lon="-2.37440359">
        <ele>83.476135</ele>
        <time>2019-11-21T21:03:23Z</time>
      </trkpt>
      <trkpt lat="43.26388364" lon="-2.37384037">
        <ele>83.68884</ele>
        <time>2019-11-21T21:03:24Z</time>
      </trkpt>
      <trkpt lat="43.26402136" lon="-2.37356911">
        <ele>84.40845</ele>
        <time>2019-11-21T21:03:25Z</time>
      </trkpt>
      <trkpt lat="43.26415279" lon="-2.37328207">
        <ele>84.51782</ele>
        <time>2019-11-21T21:03:26Z</time>
      </trkpt>
      <trkpt lat="43.26428366" lon="-2.37303603">
        <ele>84.71735</ele>
        <time>2019-11-21T21:03:27Z</time>
      </trkpt>
      <trkpt lat="43.26446206" lon="-2.37283001">
        <ele>85.36255</ele>
        <time>2019-11-21T21:03:28Z</time>
      </trkpt>
      <trkpt lat="43.26463973" lon="-2.37260716">
        <ele>86.22644</ele>
        <time>2019-11-21T21:03:29Z</time>
      </trkpt>
      <trkpt lat="43.26482863" lon="-2.37242349">
        <ele>86.356384</ele>
        <time>2019-11-21T21:03:30Z</time>
      </trkpt>
      <trkpt lat="43.26500598" lon="-2.37221215">
        <ele>88.1745</ele>
        <time>2019-11-21T21:03:31Z</time>
      </trkpt>
      <trkpt lat="43.2652377" lon="-2.3720557">
        <ele>88.75592</ele>
        <time>2019-11-21T21:03:32Z</time>
      </trkpt>
      <trkpt lat="43.26544358" lon="-2.37190828">
        <ele>88.88544</ele>
        <time>2019-11-21T21:03:33Z</time>
      </trkpt>
      <trkpt lat="43.265675" lon="-2.37178198">
        <ele>89.23035</ele>
        <time>2019-11-21T21:03:34Z</time>
      </trkpt>
      <trkpt lat="43.26589278" lon="-2.37163376">
        <ele>89.77423</ele>
        <time>2019-11-21T21:03:35Z</time>
      </trkpt>
      <trkpt lat="43.26611485" lon="-2.37152354">
        <ele>89.95813</ele>
        <time>2019-11-21T21:03:37Z</time>
      </trkpt>
      <trkpt lat="43.2663619" lon="-2.37142375">
        <ele>91.12012</ele>
        <time>2019-11-21T21:03:38Z</time>
      </trkpt>
      <trkpt lat="43.2666202" lon="-2.37134901">
        <ele>93.164734</ele>
        <time>2019-11-21T21:03:39Z</time>
      </trkpt>
      <trkpt lat="43.26686749" lon="-2.37129221">
        <ele>93.62921</ele>
        <time>2019-11-21T21:03:40Z</time>
      </trkpt>
      <trkpt lat="43.26709778" lon="-2.37125107">
        <ele>94.98364</ele>
        <time>2019-11-21T21:03:41Z</time>
      </trkpt>
      <trkpt lat="43.2673413" lon="-2.37123003">
        <ele>96.42145</ele>
        <time>2019-11-21T21:03:42Z</time>
      </trkpt>
      <trkpt lat="43.26757657" lon="-2.37121746">
        <ele>97.91705</ele>
        <time>2019-11-21T21:03:43Z</time>
      </trkpt>
      <trkpt lat="43.2678152" lon="-2.37120879">
        <ele>98.712036</ele>
        <time>2019-11-21T21:03:44Z</time>
      </trkpt>
      <trkpt lat="43.26805727" lon="-2.37121408">
        <ele>99.88983</ele>
        <time>2019-11-21T21:03:45Z</time>
      </trkpt>
      <trkpt lat="43.26829705" lon="-2.37121579">
        <ele>101.11743</ele>
        <time>2019-11-21T21:03:46Z</time>
      </trkpt>
      <trkpt lat="43.2685193" lon="-2.37120551">
        <ele>97.64313</ele>
        <time>2019-11-21T21:03:47Z</time>
      </trkpt>
      <trkpt lat="43.26874484" lon="-2.37117399">
        <ele>99.57703</ele>
        <time>2019-11-21T21:03:48Z</time>
      </trkpt>
      <trkpt lat="43.26896355" lon="-2.37110581">
        <ele>99.92755</ele>
        <time>2019-11-21T21:03:49Z</time>
      </trkpt>
      <trkpt lat="43.26916738" lon="-2.37101524">
        <ele>100.196045</ele>
        <time>2019-11-21T21:03:50Z</time>
      </trkpt>
      <trkpt lat="43.26937956" lon="-2.37089516">
        <ele>100.62958</ele>
        <time>2019-11-21T21:03:51Z</time>
      </trkpt>
      <trkpt lat="43.26959053" lon="-2.37076134">
        <ele>102.61627</ele>
        <time>2019-11-21T21:03:52Z</time>
      </trkpt>
      <trkpt lat="43.26978477" lon="-2.37060245">
        <ele>104.78339</ele>
        <time>2019-11-21T21:03:53Z</time>
      </trkpt>
      <trkpt lat="43.27012422" lon="-2.37020985">
        <ele>106.50183</ele>
        <time>2019-11-21T21:03:54Z</time>
      </trkpt>
      <trkpt lat="43.27026859" lon="-2.36999597">
        <ele>108.54785</ele>
        <time>2019-11-21T21:03:55Z</time>
      </trkpt>
      <trkpt lat="43.27041588" lon="-2.36975712">
        <ele>110.32123</ele>
        <time>2019-11-21T21:03:56Z</time>
      </trkpt>
      <trkpt lat="43.27055171" lon="-2.36952837">
        <ele>111.0777</ele>
        <time>2019-11-21T21:03:57Z</time>
      </trkpt>
      <trkpt lat="43.27069364" lon="-2.36928986">
        <ele>112.72009</ele>
        <time>2019-11-21T21:03:58Z</time>
      </trkpt>
      <trkpt lat="43.27083643" lon="-2.36907499">
        <ele>114.22864</ele>
        <time>2019-11-21T21:03:59Z</time>
      </trkpt>
      <trkpt lat="43.27100556" lon="-2.3688571">
        <ele>114.91058</ele>
        <time>2019-11-21T21:04:00Z</time>
      </trkpt>
      <trkpt lat="43.271182" lon="-2.3686493">
        <ele>115.644775</ele>
        <time>2019-11-21T21:04:01Z</time>
      </trkpt>
      <trkpt lat="43.27136374" lon="-2.3684663">
        <ele>116.33179</ele>
        <time>2019-11-21T21:04:02Z</time>
      </trkpt>
      <trkpt lat="43.2715527" lon="-2.36831017">
        <ele>116.22009</ele>
        <time>2019-11-21T21:04:03Z</time>
      </trkpt>
      <trkpt lat="43.27175356" lon="-2.3681656">
        <ele>116.157104</ele>
        <time>2019-11-21T21:04:04Z</time>
      </trkpt>
      <trkpt lat="43.27195997" lon="-2.36804123">
        <ele>115.51355</ele>
        <time>2019-11-21T21:04:05Z</time>
      </trkpt>
      <trkpt lat="43.27214738" lon="-2.36793282">
        <ele>116.48993</ele>
        <time>2019-11-21T21:04:07Z</time>
      </trkpt>
      <trkpt lat="43.27235963" lon="-2.36780082">
        <ele>117.64917</ele>
        <time>2019-11-21T21:04:08Z</time>
      </trkpt>
      <trkpt lat="43.27255947" lon="-2.36768358">
        <ele>119.43555</ele>
        <time>2019-11-21T21:04:09Z</time>
      </trkpt>
      <trkpt lat="43.27274477" lon="-2.36755807">
        <ele>123.210815</ele>
        <time>2019-11-21T21:04:10Z</time>
      </trkpt>
      <trkpt lat="43.27291788" lon="-2.36740157">
        <ele>124.50568</ele>
        <time>2019-11-21T21:04:11Z</time>
      </trkpt>
      <trkpt lat="43.27306852" lon="-2.36724054">
        <ele>123.26172</ele>
        <time>2019-11-21T21:04:12Z</time>
      </trkpt>
      <trkpt lat="43.27321937" lon="-2.3670457">
        <ele>123.37378</ele>
        <time>2019-11-21T21:04:13Z</time>
      </trkpt>
      <trkpt lat="43.273382" lon="-2.36683795">
        <ele>124.68713</ele>
        <time>2019-11-21T21:04:14Z</time>
      </trkpt>
      <trkpt lat="43.27355297" lon="-2.36662593">
        <ele>127.168274</ele>
        <time>2019-11-21T21:04:15Z</time>
      </trkpt>
      <trkpt lat="43.27372305" lon="-2.36640653">
        <ele>129.28644</ele>
        <time>2019-11-21T21:04:16Z</time>
      </trkpt>
      <trkpt lat="43.27388273" lon="-2.36618543">
        <ele>130.38007</ele>
        <time>2019-11-21T21:04:17Z</time>
      </trkpt>
      <trkpt lat="43.27405704" lon="-2.36600997">
        <ele>131.93317</ele>
        <time>2019-11-21T21:04:18Z</time>
      </trkpt>
      <trkpt lat="43.27424559" lon="-2.36583472">
        <ele>133.63928</ele>
        <time>2019-11-21T21:04:19Z</time>
      </trkpt>
      <trkpt lat="43.2744284" lon="-2.36569393">
        <ele>134.29065</ele>
        <time>2019-11-21T21:04:20Z</time>
      </trkpt>
      <trkpt lat="43.27462547" lon="-2.36555097">
        <ele>134.6253</ele>
        <time>2019-11-21T21:04:21Z</time>
      </trkpt>
      <trkpt lat="43.27502381" lon="-2.36530916">
        <ele>136.5144</ele>
        <time>2019-11-21T21:04:22Z</time>
      </trkpt>
      <trkpt lat="43.27524199" lon="-2.36520254">
        <ele>137.5935</ele>
        <time>2019-11-21T21:04:23Z</time>
      </trkpt>
      <trkpt lat="43.27545776" lon="-2.36510149">
        <ele>138.5658</ele>
        <time>2019-11-21T21:04:24Z</time>
      </trkpt>
      <trkpt lat="43.27565578" lon="-2.36501872">
        <ele>139.4035</ele>
        <time>2019-11-21T21:04:25Z</time>
      </trkpt>
      <trkpt lat="43.27584569" lon="-2.36493826">
        <ele>140.13934</ele>
        <time>2019-11-21T21:04:26Z</time>
      </trkpt>
      <trkpt lat="43.27603106" lon="-2.36484199">
        <ele>141.271</ele>
        <time>2019-11-21T21:04:27Z</time>
      </trkpt>
      <trkpt lat="43.27624135" lon="-2.36472146">
        <ele>142.42285</ele>
        <time>2019-11-21T21:04:28Z</time>
      </trkpt>
      <trkpt lat="43.27641933" lon="-2.36459628">
        <ele>142.21606</ele>
        <time>2019-11-21T21:04:29Z</time>
      </trkpt>
      <trkpt lat="43.27660067" lon="-2.36446059">
        <ele>142.37085</ele>
        <time>2019-11-21T21:04:30Z</time>
      </trkpt>
      <trkpt lat="43.27677761" lon="-2.36431602">
        <ele>142.46716</ele>
        <time>2019-11-21T21:04:31Z</time>
      </trkpt>
      <trkpt lat="43.27695429325104" lon="-2.3641741275787354">
        <ele>0.0</ele>
        <time>2019-11-21T21:04:32Z</time>
      </trkpt>
      <trkpt lat="43.278273940086365" lon="-2.3627740144729614">
        <ele>131.65875</ele>
        <time>2019-11-21T21:04:42Z</time>
      </trkpt>
      <trkpt lat="43.27849408" lon="-2.36250791">
        <ele>129.42285</ele>
        <time>2019-11-21T21:04:43Z</time>
      </trkpt>
      <trkpt lat="43.27870895" lon="-2.36233865">
        <ele>133.33228</ele>
        <time>2019-11-21T21:04:44Z</time>
      </trkpt>
      <trkpt lat="43.27885539" lon="-2.36217364">
        <ele>136.15143</ele>
        <time>2019-11-21T21:04:45Z</time>
      </trkpt>
      <trkpt lat="43.27903275" lon="-2.3619807">
        <ele>139.5393</ele>
        <time>2019-11-21T21:04:46Z</time>
      </trkpt>
      <trkpt lat="43.27917942" lon="-2.36181476">
        <ele>140.1687</ele>
        <time>2019-11-21T21:04:47Z</time>
      </trkpt>
      <trkpt lat="43.27936724" lon="-2.36163043">
        <ele>142.0329</ele>
        <time>2019-11-21T21:04:48Z</time>
      </trkpt>
      <trkpt lat="43.27956239" lon="-2.36142337">
        <ele>143.15991</ele>
        <time>2019-11-21T21:04:49Z</time>
      </trkpt>
      <trkpt lat="43.27974741" lon="-2.36122774">
        <ele>143.76782</ele>
        <time>2019-11-21T21:04:50Z</time>
      </trkpt>
      <trkpt lat="43.27993335" lon="-2.36102996">
        <ele>146.98975</ele>
        <time>2019-11-21T21:04:51Z</time>
      </trkpt>
      <trkpt lat="43.28010643" lon="-2.36083672">
        <ele>149.56061</ele>
        <time>2019-11-21T21:04:52Z</time>
      </trkpt>
      <trkpt lat="43.28025287" lon="-2.36064767">
        <ele>150.08948</ele>
        <time>2019-11-21T21:04:53Z</time>
      </trkpt>
      <trkpt lat="43.28042496" lon="-2.36047085">
        <ele>150.42487</ele>
        <time>2019-11-21T21:04:54Z</time>
      </trkpt>
      <trkpt lat="43.28079557" lon="-2.36008438">
        <ele>153.08264</ele>
        <time>2019-11-21T21:04:55Z</time>
      </trkpt>
      <trkpt lat="43.28097959" lon="-2.35988425">
        <ele>153.71088</ele>
        <time>2019-11-21T21:04:56Z</time>
      </trkpt>
      <trkpt lat="43.28116228" lon="-2.35967831">
        <ele>153.73657</ele>
        <time>2019-11-21T21:04:57Z</time>
      </trkpt>
      <trkpt lat="43.28135763" lon="-2.35950816">
        <ele>154.1145</ele>
        <time>2019-11-21T21:04:59Z</time>
      </trkpt>
      <trkpt lat="43.28172085" lon="-2.35914544">
        <ele>156.64307</ele>
        <time>2019-11-21T21:05:00Z</time>
      </trkpt>
      <trkpt lat="43.28189624" lon="-2.35897308">
        <ele>158.28296</ele>
        <time>2019-11-21T21:05:01Z</time>
      </trkpt>
      <trkpt lat="43.28214483" lon="-2.35875179">
        <ele>159.1311</ele>
        <time>2019-11-21T21:05:02Z</time>
      </trkpt>
      <trkpt lat="43.28229984" lon="-2.35861349">
        <ele>157.71094</ele>
        <time>2019-11-21T21:05:03Z</time>
      </trkpt>
      <trkpt lat="43.28250357" lon="-2.35844629">
        <ele>159.07031</ele>
        <time>2019-11-21T21:05:04Z</time>
      </trkpt>
      <trkpt lat="43.28270104" lon="-2.35827063">
        <ele>158.45886</ele>
        <time>2019-11-21T21:05:05Z</time>
      </trkpt>
      <trkpt lat="43.28290907" lon="-2.35809842">
        <ele>158.2608</ele>
        <time>2019-11-21T21:05:06Z</time>
      </trkpt>
      <trkpt lat="43.28314939" lon="-2.35791433">
        <ele>159.3971</ele>
        <time>2019-11-21T21:05:07Z</time>
      </trkpt>
      <trkpt lat="43.28335989" lon="-2.35777563">
        <ele>160.16644</ele>
        <time>2019-11-21T21:05:08Z</time>
      </trkpt>
      <trkpt lat="43.28358374" lon="-2.35759296">
        <ele>161.11261</ele>
        <time>2019-11-21T21:05:09Z</time>
      </trkpt>
      <trkpt lat="43.28379945" lon="-2.35743227">
        <ele>161.03223</ele>
        <time>2019-11-21T21:05:11Z</time>
      </trkpt>
      <trkpt lat="43.28400477" lon="-2.35730578">
        <ele>162.92126</ele>
        <time>2019-11-21T21:05:12Z</time>
      </trkpt>
      <trkpt lat="43.28421183" lon="-2.3571595">
        <ele>165.39264</ele>
        <time>2019-11-21T21:05:13Z</time>
      </trkpt>
      <trkpt lat="43.2844214" lon="-2.3569943">
        <ele>167.25244</ele>
        <time>2019-11-21T21:05:14Z</time>
      </trkpt>
      <trkpt lat="43.28462395" lon="-2.35682029">
        <ele>168.9834</ele>
        <time>2019-11-21T21:05:15Z</time>
      </trkpt>
      <trkpt lat="43.28483589" lon="-2.35663096">
        <ele>169.3966</ele>
        <time>2019-11-21T21:05:16Z</time>
      </trkpt>
      <trkpt lat="43.28502456" lon="-2.35643999">
        <ele>170.45795</ele>
        <time>2019-11-21T21:05:17Z</time>
      </trkpt>
      <trkpt lat="43.28520135" lon="-2.35622097">
        <ele>172.51086</ele>
        <time>2019-11-21T21:05:18Z</time>
      </trkpt>
      <trkpt lat="43.28534726" lon="-2.35598758">
        <ele>172.55621</ele>
        <time>2019-11-21T21:05:19Z</time>
      </trkpt>
      <trkpt lat="43.28548199" lon="-2.35573822">
        <ele>174.66724</ele>
        <time>2019-11-21T21:05:20Z</time>
      </trkpt>
      <trkpt lat="43.2856228" lon="-2.35548303">
        <ele>176.50037</ele>
        <time>2019-11-21T21:05:21Z</time>
      </trkpt>
      <trkpt lat="43.28575181" lon="-2.35520434">
        <ele>178.948</ele>
        <time>2019-11-21T21:05:22Z</time>
      </trkpt>
      <trkpt lat="43.28585331" lon="-2.35492505">
        <ele>181.0094</ele>
        <time>2019-11-21T21:05:23Z</time>
      </trkpt>
      <trkpt lat="43.28594409" lon="-2.35463426">
        <ele>182.99976</ele>
        <time>2019-11-21T21:05:24Z</time>
      </trkpt>
      <trkpt lat="43.2860159" lon="-2.35432606">
        <ele>184.72522</ele>
        <time>2019-11-21T21:05:25Z</time>
      </trkpt>
      <trkpt lat="43.2860638" lon="-2.35399642">
        <ele>187.55951</ele>
        <time>2019-11-21T21:05:26Z</time>
      </trkpt>
      <trkpt lat="43.28610212" lon="-2.35366644">
        <ele>190.29022</ele>
        <time>2019-11-21T21:05:27Z</time>
      </trkpt>
      <trkpt lat="43.2861035" lon="-2.35332805">
        <ele>189.3454</ele>
        <time>2019-11-21T21:05:28Z</time>
      </trkpt>
      <trkpt lat="43.28608444" lon="-2.35300571">
        <ele>189.4815</ele>
        <time>2019-11-21T21:05:29Z</time>
      </trkpt>
      <trkpt lat="43.28603943" lon="-2.35268972">
        <ele>188.73834</ele>
        <time>2019-11-21T21:05:30Z</time>
      </trkpt>
      <trkpt lat="43.2858855" lon="-2.35206637">
        <ele>189.8233</ele>
        <time>2019-11-21T21:05:31Z</time>
      </trkpt>
      <trkpt lat="43.28579864" lon="-2.35176711">
        <ele>190.39862</ele>
        <time>2019-11-21T21:05:32Z</time>
      </trkpt>
      <trkpt lat="43.28570402" lon="-2.35147292">
        <ele>190.22803</ele>
        <time>2019-11-21T21:05:33Z</time>
      </trkpt>
      <trkpt lat="43.28563141" lon="-2.35118204">
        <ele>189.83667</ele>
        <time>2019-11-21T21:05:34Z</time>
      </trkpt>
      <trkpt lat="43.28553973" lon="-2.35089906">
        <ele>190.24866</ele>
        <time>2019-11-21T21:05:35Z</time>
      </trkpt>
      <trkpt lat="43.28545652" lon="-2.35059045">
        <ele>189.67004</ele>
        <time>2019-11-21T21:05:36Z</time>
      </trkpt>
      <trkpt lat="43.28537814" lon="-2.35027142">
        <ele>188.80444</ele>
        <time>2019-11-21T21:05:37Z</time>
      </trkpt>
      <trkpt lat="43.28533155" lon="-2.34992664">
        <ele>190.1706</ele>
        <time>2019-11-21T21:05:38Z</time>
      </trkpt>
      <trkpt lat="43.28531821" lon="-2.34961397">
        <ele>191.08392</ele>
        <time>2019-11-21T21:05:39Z</time>
      </trkpt>
      <trkpt lat="43.28530089" lon="-2.34927182">
        <ele>190.3805</ele>
        <time>2019-11-21T21:05:40Z</time>
      </trkpt>
      <trkpt lat="43.28531421" lon="-2.34897549">
        <ele>189.2976</ele>
        <time>2019-11-21T21:05:41Z</time>
      </trkpt>
      <trkpt lat="43.28531163" lon="-2.34862479">
        <ele>189.51611</ele>
        <time>2019-11-21T21:05:43Z</time>
      </trkpt>
      <trkpt lat="43.28530628" lon="-2.3482949">
        <ele>188.44916</ele>
        <time>2019-11-21T21:05:44Z</time>
      </trkpt>
      <trkpt lat="43.28530042" lon="-2.34797669">
        <ele>189.76215</ele>
        <time>2019-11-21T21:05:45Z</time>
      </trkpt>
      <trkpt lat="43.28528105" lon="-2.3476454">
        <ele>190.16473</ele>
        <time>2019-11-21T21:05:46Z</time>
      </trkpt>
      <trkpt lat="43.28523456" lon="-2.3473154">
        <ele>190.77466</ele>
        <time>2019-11-21T21:05:47Z</time>
      </trkpt>
      <trkpt lat="43.28515883" lon="-2.34702566">
        <ele>190.50299</ele>
        <time>2019-11-21T21:05:48Z</time>
      </trkpt>
      <trkpt lat="43.28506819" lon="-2.34672641">
        <ele>190.7898</ele>
        <time>2019-11-21T21:05:49Z</time>
      </trkpt>
      <trkpt lat="43.28496456" lon="-2.34643048">
        <ele>192.00598</ele>
        <time>2019-11-21T21:05:50Z</time>
      </trkpt>
      <trkpt lat="43.28484771" lon="-2.3461465">
        <ele>191.57605</ele>
        <time>2019-11-21T21:05:51Z</time>
      </trkpt>
      <trkpt lat="43.28474111" lon="-2.34586419">
        <ele>190.61273</ele>
        <time>2019-11-21T21:05:52Z</time>
      </trkpt>
      <trkpt lat="43.28461999" lon="-2.34557578">
        <ele>191.25085</ele>
        <time>2019-11-21T21:05:53Z</time>
      </trkpt>
      <trkpt lat="43.2844903" lon="-2.34532899">
        <ele>187.74335</ele>
        <time>2019-11-21T21:05:54Z</time>
      </trkpt>
      <trkpt lat="43.28439337" lon="-2.34504131">
        <ele>188.22968</ele>
        <time>2019-11-21T21:05:55Z</time>
      </trkpt>
      <trkpt lat="43.28433332" lon="-2.3447733">
        <ele>187.86798</ele>
        <time>2019-11-21T21:05:56Z</time>
      </trkpt>
      <trkpt lat="43.28425472" lon="-2.34448724">
        <ele>187.84778</ele>
        <time>2019-11-21T21:05:57Z</time>
      </trkpt>
      <trkpt lat="43.28420398" lon="-2.34419986">
        <ele>189.23273</ele>
        <time>2019-11-21T21:05:58Z</time>
      </trkpt>
      <trkpt lat="43.28414902" lon="-2.3439256">
        <ele>189.01562</ele>
        <time>2019-11-21T21:05:59Z</time>
      </trkpt>
      <trkpt lat="43.28409844" lon="-2.34365319">
        <ele>187.87628</ele>
        <time>2019-11-21T21:06:00Z</time>
      </trkpt>
      <trkpt lat="43.28405051" lon="-2.34338093">
        <ele>187.72131</ele>
        <time>2019-11-21T21:06:01Z</time>
      </trkpt>
      <trkpt lat="43.28400558" lon="-2.34285846">
        <ele>190.0299</ele>
        <time>2019-11-21T21:06:02Z</time>
      </trkpt>
      <trkpt lat="43.28396919" lon="-2.34259198">
        <ele>188.86456</ele>
        <time>2019-11-21T21:06:03Z</time>
      </trkpt>
      <trkpt lat="43.28392772" lon="-2.34231231">
        <ele>187.6792</ele>
        <time>2019-11-21T21:06:04Z</time>
      </trkpt>
      <trkpt lat="43.28391395" lon="-2.34204356">
        <ele>187.56091</ele>
        <time>2019-11-21T21:06:05Z</time>
      </trkpt>
      <trkpt lat="43.28390809" lon="-2.34177567">
        <ele>187.49402</ele>
        <time>2019-11-21T21:06:06Z</time>
      </trkpt>
      <trkpt lat="43.28390657901764" lon="-2.341509461402893">
        <ele>0.0</ele>
        <time>2019-11-21T21:06:07Z</time>
      </trkpt>
      <trkpt lat="43.28434525" lon="-2.33589232">
        <ele>193.56622</ele>
        <time>2019-11-21T21:06:30Z</time>
      </trkpt>
      <trkpt lat="43.28434622" lon="-2.33527823">
        <ele>193.90985</ele>
        <time>2019-11-21T21:06:31Z</time>
      </trkpt>
      <trkpt lat="43.28434" lon="-2.3349914">
        <ele>193.62036</ele>
        <time>2019-11-21T21:06:32Z</time>
      </trkpt>
      <trkpt lat="43.28432645" lon="-2.33468823">
        <ele>196.17273</ele>
        <time>2019-11-21T21:06:33Z</time>
      </trkpt>
      <trkpt lat="43.28434488" lon="-2.33440236">
        <ele>195.86572</ele>
        <time>2019-11-21T21:06:34Z</time>
      </trkpt>
      <trkpt lat="43.28436625" lon="-2.33410538">
        <ele>195.78851</ele>
        <time>2019-11-21T21:06:35Z</time>
      </trkpt>
      <trkpt lat="43.28439165" lon="-2.33381332">
        <ele>195.26819</ele>
        <time>2019-11-21T21:06:36Z</time>
      </trkpt>
      <trkpt lat="43.28440625" lon="-2.33349992">
        <ele>195.1369</ele>
        <time>2019-11-21T21:06:37Z</time>
      </trkpt>
      <trkpt lat="43.28443167" lon="-2.33319645">
        <ele>195.51685</ele>
        <time>2019-11-21T21:06:38Z</time>
      </trkpt>
      <trkpt lat="43.28445795" lon="-2.33288419">
        <ele>195.82654</ele>
        <time>2019-11-21T21:06:39Z</time>
      </trkpt>
      <trkpt lat="43.28448498" lon="-2.33256514">
        <ele>196.57703</ele>
        <time>2019-11-21T21:06:40Z</time>
      </trkpt>
      <trkpt lat="43.28450527" lon="-2.3322464">
        <ele>197.88904</ele>
        <time>2019-11-21T21:06:42Z</time>
      </trkpt>
      <trkpt lat="43.28452934" lon="-2.33193434">
        <ele>198.60052</ele>
        <time>2019-11-21T21:06:43Z</time>
      </trkpt>
      <trkpt lat="43.28455792" lon="-2.33163361">
        <ele>198.62646</ele>
        <time>2019-11-21T21:06:44Z</time>
      </trkpt>
      <trkpt lat="43.28458414" lon="-2.33132595">
        <ele>199.78912</ele>
        <time>2019-11-21T21:06:45Z</time>
      </trkpt>
      <trkpt lat="43.28460016" lon="-2.3310214">
        <ele>200.2503</ele>
        <time>2019-11-21T21:06:46Z</time>
      </trkpt>
      <trkpt lat="43.28461548" lon="-2.33072079">
        <ele>200.7638</ele>
        <time>2019-11-21T21:06:47Z</time>
      </trkpt>
      <trkpt lat="43.28462911" lon="-2.33042179">
        <ele>200.41626</ele>
        <time>2019-11-21T21:06:48Z</time>
      </trkpt>
      <trkpt lat="43.2846377" lon="-2.33011549">
        <ele>199.92957</ele>
        <time>2019-11-21T21:06:49Z</time>
      </trkpt>
      <trkpt lat="43.28462688" lon="-2.32981748">
        <ele>198.92377</ele>
        <time>2019-11-21T21:06:50Z</time>
      </trkpt>
      <trkpt lat="43.28463657" lon="-2.32952331">
        <ele>200.32312</ele>
        <time>2019-11-21T21:06:51Z</time>
      </trkpt>
      <trkpt lat="43.28463312" lon="-2.32921906">
        <ele>201.57178</ele>
        <time>2019-11-21T21:06:52Z</time>
      </trkpt>
      <trkpt lat="43.28462177" lon="-2.3289069">
        <ele>201.22327</ele>
        <time>2019-11-21T21:06:53Z</time>
      </trkpt>
      <trkpt lat="43.28461705" lon="-2.32860007">
        <ele>202.18036</ele>
        <time>2019-11-21T21:06:54Z</time>
      </trkpt>
      <trkpt lat="43.28460197" lon="-2.32828941">
        <ele>200.77191</ele>
        <time>2019-11-21T21:06:55Z</time>
      </trkpt>
      <trkpt lat="43.28458142" lon="-2.32798204">
        <ele>201.15546</ele>
        <time>2019-11-21T21:06:56Z</time>
      </trkpt>
      <trkpt lat="43.28455956" lon="-2.32767416">
        <ele>201.6377</ele>
        <time>2019-11-21T21:06:57Z</time>
      </trkpt>
      <trkpt lat="43.28454636" lon="-2.32736904">
        <ele>202.97748</ele>
        <time>2019-11-21T21:06:58Z</time>
      </trkpt>
      <trkpt lat="43.28448917" lon="-2.32672898">
        <ele>204.39984</ele>
        <time>2019-11-21T21:06:59Z</time>
      </trkpt>
      <trkpt lat="43.28446054" lon="-2.32641774">
        <ele>204.33417</ele>
        <time>2019-11-21T21:07:00Z</time>
      </trkpt>
      <trkpt lat="43.284427" lon="-2.32610734">
        <ele>205.13934</ele>
        <time>2019-11-21T21:07:01Z</time>
      </trkpt>
      <trkpt lat="43.28438273" lon="-2.32578276">
        <ele>205.81158</ele>
        <time>2019-11-21T21:07:02Z</time>
      </trkpt>
      <trkpt lat="43.28433816" lon="-2.32546678">
        <ele>205.88867</ele>
        <time>2019-11-21T21:07:03Z</time>
      </trkpt>
      <trkpt lat="43.28429177" lon="-2.32515207">
        <ele>206.25195</ele>
        <time>2019-11-21T21:07:04Z</time>
      </trkpt>
      <trkpt lat="43.28424369" lon="-2.32484428">
        <ele>206.53497</ele>
        <time>2019-11-21T21:07:05Z</time>
      </trkpt>
      <trkpt lat="43.28418748" lon="-2.32452463">
        <ele>204.54596</ele>
        <time>2019-11-21T21:07:06Z</time>
      </trkpt>
      <trkpt lat="43.28413005" lon="-2.32421523">
        <ele>204.5531</ele>
        <time>2019-11-21T21:07:07Z</time>
      </trkpt>
      <trkpt lat="43.28406532" lon="-2.32389721">
        <ele>204.71094</ele>
        <time>2019-11-21T21:07:08Z</time>
      </trkpt>
      <trkpt lat="43.28399696" lon="-2.32357347">
        <ele>204.94177</ele>
        <time>2019-11-21T21:07:10Z</time>
      </trkpt>
      <trkpt lat="43.28392392" lon="-2.32325019">
        <ele>205.14038</ele>
        <time>2019-11-21T21:07:11Z</time>
      </trkpt>
      <trkpt lat="43.28384521" lon="-2.32293291">
        <ele>205.0794</ele>
        <time>2019-11-21T21:07:12Z</time>
      </trkpt>
      <trkpt lat="43.28376213" lon="-2.32260255">
        <ele>204.86877</ele>
        <time>2019-11-21T21:07:13Z</time>
      </trkpt>
      <trkpt lat="43.28367335" lon="-2.32227696">
        <ele>204.80798</ele>
        <time>2019-11-21T21:07:14Z</time>
      </trkpt>
      <trkpt lat="43.28357739" lon="-2.32194184">
        <ele>204.68079</ele>
        <time>2019-11-21T21:07:15Z</time>
      </trkpt>
      <trkpt lat="43.28347618" lon="-2.32160876">
        <ele>204.26007</ele>
        <time>2019-11-21T21:07:16Z</time>
      </trkpt>
      <trkpt lat="43.28336369" lon="-2.32127521">
        <ele>204.41736</ele>
        <time>2019-11-21T21:07:17Z</time>
      </trkpt>
      <trkpt lat="43.28324216" lon="-2.32094036">
        <ele>203.90137</ele>
        <time>2019-11-21T21:07:18Z</time>
      </trkpt>
      <trkpt lat="43.28311892" lon="-2.32060423">
        <ele>203.5675</ele>
        <time>2019-11-21T21:07:19Z</time>
      </trkpt>
      <trkpt lat="43.2829894" lon="-2.32026454">
        <ele>203.11633</ele>
        <time>2019-11-21T21:07:20Z</time>
      </trkpt>
      <trkpt lat="43.28285261" lon="-2.3199311">
        <ele>202.56921</ele>
        <time>2019-11-21T21:07:21Z</time>
      </trkpt>
      <trkpt lat="43.28277885" lon="-2.31963845">
        <ele>201.09387</ele>
        <time>2019-11-21T21:07:22Z</time>
      </trkpt>
      <trkpt lat="43.28268534" lon="-2.31933621">
        <ele>200.01074</ele>
        <time>2019-11-21T21:07:23Z</time>
      </trkpt>
      <trkpt lat="43.28257322" lon="-2.31902618">
        <ele>198.19287</ele>
        <time>2019-11-21T21:07:24Z</time>
      </trkpt>
      <trkpt lat="43.2824273" lon="-2.31871906">
        <ele>197.22363</ele>
        <time>2019-11-21T21:07:25Z</time>
      </trkpt>
      <trkpt lat="43.28228822" lon="-2.31841453">
        <ele>195.7992</ele>
        <time>2019-11-21T21:07:26Z</time>
      </trkpt>
      <trkpt lat="43.28214386" lon="-2.31810282">
        <ele>195.2561</ele>
        <time>2019-11-21T21:07:27Z</time>
      </trkpt>
      <trkpt lat="43.28185602" lon="-2.31749734">
        <ele>193.53467</ele>
        <time>2019-11-21T21:07:28Z</time>
      </trkpt>
      <trkpt lat="43.2817256" lon="-2.31720109">
        <ele>191.48926</ele>
        <time>2019-11-21T21:07:29Z</time>
      </trkpt>
      <trkpt lat="43.28157384" lon="-2.31689229">
        <ele>189.49011</ele>
        <time>2019-11-21T21:07:30Z</time>
      </trkpt>
      <trkpt lat="43.2814276" lon="-2.31657154">
        <ele>188.82086</ele>
        <time>2019-11-21T21:07:31Z</time>
      </trkpt>
      <trkpt lat="43.28127735" lon="-2.31625527">
        <ele>188.37256</ele>
        <time>2019-11-21T21:07:32Z</time>
      </trkpt>
      <trkpt lat="43.2811463" lon="-2.31594303">
        <ele>186.4585</ele>
        <time>2019-11-21T21:07:33Z</time>
      </trkpt>
      <trkpt lat="43.2810017" lon="-2.31563265">
        <ele>186.42035</ele>
        <time>2019-11-21T21:07:34Z</time>
      </trkpt>
      <trkpt lat="43.28085652" lon="-2.31531841">
        <ele>185.79382</ele>
        <time>2019-11-21T21:07:35Z</time>
      </trkpt>
      <trkpt lat="43.28071094" lon="-2.31500521">
        <ele>184.91809</ele>
        <time>2019-11-21T21:07:36Z</time>
      </trkpt>
      <trkpt lat="43.28056251" lon="-2.31469937">
        <ele>183.52173</ele>
        <time>2019-11-21T21:07:37Z</time>
      </trkpt>
      <trkpt lat="43.28040589" lon="-2.31439437">
        <ele>182.57312</ele>
        <time>2019-11-21T21:07:38Z</time>
      </trkpt>
      <trkpt lat="43.28025484" lon="-2.31409539">
        <ele>181.05719</ele>
        <time>2019-11-21T21:07:40Z</time>
      </trkpt>
      <trkpt lat="43.28008945" lon="-2.31380618">
        <ele>180.58661</ele>
        <time>2019-11-21T21:07:41Z</time>
      </trkpt>
      <trkpt lat="43.27991763" lon="-2.31352116">
        <ele>179.95056</ele>
        <time>2019-11-21T21:07:42Z</time>
      </trkpt>
      <trkpt lat="43.27974564" lon="-2.31324245">
        <ele>179.16571</ele>
        <time>2019-11-21T21:07:43Z</time>
      </trkpt>
      <trkpt lat="43.2795596" lon="-2.31297533">
        <ele>178.81982</ele>
        <time>2019-11-21T21:07:44Z</time>
      </trkpt>
      <trkpt lat="43.27936542" lon="-2.31272322">
        <ele>179.11066</ele>
        <time>2019-11-21T21:07:45Z</time>
      </trkpt>
      <trkpt lat="43.27916973" lon="-2.31247734">
        <ele>178.99329</ele>
        <time>2019-11-21T21:07:46Z</time>
      </trkpt>
      <trkpt lat="43.27895492" lon="-2.31224611">
        <ele>177.50482</ele>
        <time>2019-11-21T21:07:47Z</time>
      </trkpt>
      <trkpt lat="43.27873837" lon="-2.31201559">
        <ele>176.77167</ele>
        <time>2019-11-21T21:07:48Z</time>
      </trkpt>
      <trkpt lat="43.27852459" lon="-2.31182248">
        <ele>175.52783</ele>
        <time>2019-11-21T21:07:49Z</time>
      </trkpt>
      <trkpt lat="43.27830289" lon="-2.31162438">
        <ele>175.05682</ele>
        <time>2019-11-21T21:07:50Z</time>
      </trkpt>
      <trkpt lat="43.27807542" lon="-2.31144087">
        <ele>172.04504</ele>
        <time>2019-11-21T21:07:51Z</time>
      </trkpt>
      <trkpt lat="43.27783757" lon="-2.31128038">
        <ele>170.61102</ele>
        <time>2019-11-21T21:07:52Z</time>
      </trkpt>
      <trkpt lat="43.27761433" lon="-2.3111163">
        <ele>170.03558</ele>
        <time>2019-11-21T21:07:53Z</time>
      </trkpt>
      <trkpt lat="43.27736218" lon="-2.31097144">
        <ele>168.93372</ele>
        <time>2019-11-21T21:07:54Z</time>
      </trkpt>
      <trkpt lat="43.27712071" lon="-2.31082641">
        <ele>168.99304</ele>
        <time>2019-11-21T21:07:55Z</time>
      </trkpt>
      <trkpt lat="43.27688778" lon="-2.31070125">
        <ele>167.38141</ele>
        <time>2019-11-21T21:07:56Z</time>
      </trkpt>
      <trkpt lat="43.27661338" lon="-2.31056295">
        <ele>166.56976</ele>
        <time>2019-11-21T21:07:57Z</time>
      </trkpt>
      <trkpt lat="43.27611692" lon="-2.31031966">
        <ele>164.98828</ele>
        <time>2019-11-21T21:07:58Z</time>
      </trkpt>
      <trkpt lat="43.27584315" lon="-2.31019222">
        <ele>162.35962</ele>
        <time>2019-11-21T21:07:59Z</time>
      </trkpt>
      <trkpt lat="43.2755825" lon="-2.31006851">
        <ele>160.7987</ele>
        <time>2019-11-21T21:08:00Z</time>
      </trkpt>
      <trkpt lat="43.27531447" lon="-2.30995717">
        <ele>171.79163</ele>
        <time>2019-11-21T21:08:01Z</time>
      </trkpt>
      <trkpt lat="43.27505197" lon="-2.3098481">
        <ele>168.15686</ele>
        <time>2019-11-21T21:08:02Z</time>
      </trkpt>
      <trkpt lat="43.27478827" lon="-2.30977763">
        <ele>166.2528</ele>
        <time>2019-11-21T21:08:03Z</time>
      </trkpt>
      <trkpt lat="43.27453649" lon="-2.30965622">
        <ele>163.83496</ele>
        <time>2019-11-21T21:08:04Z</time>
      </trkpt>
      <trkpt lat="43.27429208" lon="-2.30954693">
        <ele>160.59314</ele>
        <time>2019-11-21T21:08:05Z</time>
      </trkpt>
      <trkpt lat="43.2740311" lon="-2.30942292">
        <ele>157.04907</ele>
        <time>2019-11-21T21:08:06Z</time>
      </trkpt>
      <trkpt lat="43.2737601" lon="-2.30932302">
        <ele>156.30505</ele>
        <time>2019-11-21T21:08:07Z</time>
      </trkpt>
      <trkpt lat="43.2735047" lon="-2.30921288">
        <ele>155.40161</ele>
        <time>2019-11-21T21:08:08Z</time>
      </trkpt>
      <trkpt lat="43.27325779" lon="-2.30908241">
        <ele>154.58691</ele>
        <time>2019-11-21T21:08:10Z</time>
      </trkpt>
      <trkpt lat="43.27302659" lon="-2.30894494">
        <ele>152.7815</ele>
        <time>2019-11-21T21:08:11Z</time>
      </trkpt>
      <trkpt lat="43.2727782" lon="-2.30878739">
        <ele>152.10632</ele>
        <time>2019-11-21T21:08:12Z</time>
      </trkpt>
      <trkpt lat="43.2725355" lon="-2.30861877">
        <ele>151.4375</ele>
        <time>2019-11-21T21:08:13Z</time>
      </trkpt>
      <trkpt lat="43.27232284" lon="-2.30842063">
        <ele>148.2013</ele>
        <time>2019-11-21T21:08:14Z</time>
      </trkpt>
      <trkpt lat="43.27209661" lon="-2.30822848">
        <ele>147.62097</ele>
        <time>2019-11-21T21:08:15Z</time>
      </trkpt>
      <trkpt lat="43.27188079" lon="-2.30801733">
        <ele>147.5</ele>
        <time>2019-11-21T21:08:16Z</time>
      </trkpt>
      <trkpt lat="43.27166737" lon="-2.30780647">
        <ele>145.60309</ele>
        <time>2019-11-21T21:08:17Z</time>
      </trkpt>
      <trkpt lat="43.27145647" lon="-2.30758156">
        <ele>143.55347</ele>
        <time>2019-11-21T21:08:18Z</time>
      </trkpt>
      <trkpt lat="43.27126526" lon="-2.3073262">
        <ele>141.15717</ele>
        <time>2019-11-21T21:08:19Z</time>
      </trkpt>
      <trkpt lat="43.27106555" lon="-2.30707141">
        <ele>140.4555</ele>
        <time>2019-11-21T21:08:20Z</time>
      </trkpt>
      <trkpt lat="43.27087742" lon="-2.3068112">
        <ele>139.08398</ele>
        <time>2019-11-21T21:08:21Z</time>
      </trkpt>
      <trkpt lat="43.27069564" lon="-2.30653146">
        <ele>137.30615</ele>
        <time>2019-11-21T21:08:22Z</time>
      </trkpt>
      <trkpt lat="43.27052388" lon="-2.30625348">
        <ele>135.9248</ele>
        <time>2019-11-21T21:08:23Z</time>
      </trkpt>
      <trkpt lat="43.27034272" lon="-2.30597607">
        <ele>132.75812</ele>
        <time>2019-11-21T21:08:24Z</time>
      </trkpt>
      <trkpt lat="43.27017497" lon="-2.30568752">
        <ele>131.89874</ele>
        <time>2019-11-21T21:08:25Z</time>
      </trkpt>
      <trkpt lat="43.27001097" lon="-2.30539559">
        <ele>130.34082</ele>
        <time>2019-11-21T21:08:26Z</time>
      </trkpt>
      <trkpt lat="43.2698489" lon="-2.30510512">
        <ele>129.15485</ele>
        <time>2019-11-21T21:08:27Z</time>
      </trkpt>
      <trkpt lat="43.26967905" lon="-2.30481631">
        <ele>128.52222</ele>
        <time>2019-11-21T21:08:28Z</time>
      </trkpt>
      <trkpt lat="43.26934901" lon="-2.30424193">
        <ele>125.06915</ele>
        <time>2019-11-21T21:08:29Z</time>
      </trkpt>
      <trkpt lat="43.26917565" lon="-2.30396142">
        <ele>124.32135</ele>
        <time>2019-11-21T21:08:30Z</time>
      </trkpt>
      <trkpt lat="43.26901074" lon="-2.30367823">
        <ele>121.76666</ele>
        <time>2019-11-21T21:08:31Z</time>
      </trkpt>
      <trkpt lat="43.26883635" lon="-2.3034085">
        <ele>121.48364</ele>
        <time>2019-11-21T21:08:32Z</time>
      </trkpt>
      <trkpt lat="43.2686619" lon="-2.30312819">
        <ele>120.69861</ele>
        <time>2019-11-21T21:08:33Z</time>
      </trkpt>
      <trkpt lat="43.26848989" lon="-2.30285036">
        <ele>119.39618</ele>
        <time>2019-11-21T21:08:34Z</time>
      </trkpt>
      <trkpt lat="43.26830971" lon="-2.30258167">
        <ele>119.52722</ele>
        <time>2019-11-21T21:08:35Z</time>
      </trkpt>
      <trkpt lat="43.26813503" lon="-2.30230476">
        <ele>118.55005</ele>
        <time>2019-11-21T21:08:36Z</time>
      </trkpt>
      <trkpt lat="43.26794774" lon="-2.30203735">
        <ele>118.4538</ele>
        <time>2019-11-21T21:08:37Z</time>
      </trkpt>
      <trkpt lat="43.26776717" lon="-2.30175866">
        <ele>118.03302</ele>
        <time>2019-11-21T21:08:38Z</time>
      </trkpt>
      <trkpt lat="43.26757448" lon="-2.30149812">
        <ele>117.49548</ele>
        <time>2019-11-21T21:08:39Z</time>
      </trkpt>
      <trkpt lat="43.26738751" lon="-2.30124027">
        <ele>116.90222</ele>
        <time>2019-11-21T21:08:41Z</time>
      </trkpt>
      <trkpt lat="43.2671974" lon="-2.30097688">
        <ele>116.6413</ele>
        <time>2019-11-21T21:08:42Z</time>
      </trkpt>
      <trkpt lat="43.26701787" lon="-2.30070916">
        <ele>114.1181</ele>
        <time>2019-11-21T21:08:43Z</time>
      </trkpt>
      <trkpt lat="43.26684025" lon="-2.30044056">
        <ele>112.74243</ele>
        <time>2019-11-21T21:08:44Z</time>
      </trkpt>
      <trkpt lat="43.26666593" lon="-2.30016534">
        <ele>111.98059</ele>
        <time>2019-11-21T21:08:45Z</time>
      </trkpt>
      <trkpt lat="43.266486" lon="-2.29990061">
        <ele>111.254456</ele>
        <time>2019-11-21T21:08:46Z</time>
      </trkpt>
      <trkpt lat="43.26630903" lon="-2.29961749">
        <ele>110.58563</ele>
        <time>2019-11-21T21:08:47Z</time>
      </trkpt>
      <trkpt lat="43.26614768" lon="-2.29933581">
        <ele>110.28302</ele>
        <time>2019-11-21T21:08:48Z</time>
      </trkpt>
      <trkpt lat="43.26599443" lon="-2.29903773">
        <ele>109.89276</ele>
        <time>2019-11-21T21:08:49Z</time>
      </trkpt>
      <trkpt lat="43.26584039" lon="-2.29873772">
        <ele>109.71478</ele>
        <time>2019-11-21T21:08:50Z</time>
      </trkpt>
      <trkpt lat="43.26569409" lon="-2.29842376">
        <ele>108.99744</ele>
        <time>2019-11-21T21:08:51Z</time>
      </trkpt>
      <trkpt lat="43.26553343" lon="-2.2981115">
        <ele>107.679504</ele>
        <time>2019-11-21T21:08:52Z</time>
      </trkpt>
      <trkpt lat="43.26539385" lon="-2.29780544">
        <ele>105.6629</ele>
        <time>2019-11-21T21:08:53Z</time>
      </trkpt>
      <trkpt lat="43.26524776" lon="-2.29749341">
        <ele>105.41565</ele>
        <time>2019-11-21T21:08:54Z</time>
      </trkpt>
      <trkpt lat="43.26510034" lon="-2.297185">
        <ele>104.89227</ele>
        <time>2019-11-21T21:08:55Z</time>
      </trkpt>
      <trkpt lat="43.2649505" lon="-2.29687942">
        <ele>104.7442</ele>
        <time>2019-11-21T21:08:56Z</time>
      </trkpt>
      <trkpt lat="43.26479549" lon="-2.29657616">
        <ele>104.70581</ele>
        <time>2019-11-21T21:08:57Z</time>
      </trkpt>
      <trkpt lat="43.26463418" lon="-2.29628095">
        <ele>104.26691</ele>
        <time>2019-11-21T21:08:58Z</time>
      </trkpt>
      <trkpt lat="43.26428385" lon="-2.29571742">
        <ele>104.741516</ele>
        <time>2019-11-21T21:08:59Z</time>
      </trkpt>
      <trkpt lat="43.26409423" lon="-2.29545355">
        <ele>104.775024</ele>
        <time>2019-11-21T21:09:00Z</time>
      </trkpt>
      <trkpt lat="43.26390964" lon="-2.29520054">
        <ele>104.41937</ele>
        <time>2019-11-21T21:09:01Z</time>
      </trkpt>
      <trkpt lat="43.26372063" lon="-2.29495033">
        <ele>104.367615</ele>
        <time>2019-11-21T21:09:02Z</time>
      </trkpt>
      <trkpt lat="43.26350282" lon="-2.29471796">
        <ele>104.6615</ele>
        <time>2019-11-21T21:09:03Z</time>
      </trkpt>
      <trkpt lat="43.26327591" lon="-2.29450135">
        <ele>103.9256</ele>
        <time>2019-11-21T21:09:04Z</time>
      </trkpt>
      <trkpt lat="43.26304893" lon="-2.29429831">
        <ele>104.56238</ele>
        <time>2019-11-21T21:09:05Z</time>
      </trkpt>
      <trkpt lat="43.26282251" lon="-2.29409709">
        <ele>104.63635</ele>
        <time>2019-11-21T21:09:06Z</time>
      </trkpt>
      <trkpt lat="43.26261026" lon="-2.29391209">
        <ele>102.67963</ele>
        <time>2019-11-21T21:09:07Z</time>
      </trkpt>
      <trkpt lat="43.26238791" lon="-2.29371736">
        <ele>99.85309</ele>
        <time>2019-11-21T21:09:08Z</time>
      </trkpt>
      <trkpt lat="43.26216465" lon="-2.2935153">
        <ele>98.66339</ele>
        <time>2019-11-21T21:09:09Z</time>
      </trkpt>
      <trkpt lat="43.26194879" lon="-2.29329837">
        <ele>98.66583</ele>
        <time>2019-11-21T21:09:10Z</time>
      </trkpt>
      <trkpt lat="43.2617417" lon="-2.29306573">
        <ele>97.9574</ele>
        <time>2019-11-21T21:09:12Z</time>
      </trkpt>
      <trkpt lat="43.26153422" lon="-2.29282766">
        <ele>96.81317</ele>
        <time>2019-11-21T21:09:13Z</time>
      </trkpt>
      <trkpt lat="43.2613358" lon="-2.29257156">
        <ele>96.81665</ele>
        <time>2019-11-21T21:09:14Z</time>
      </trkpt>
      <trkpt lat="43.26115084" lon="-2.29230293">
        <ele>97.30231</ele>
        <time>2019-11-21T21:09:15Z</time>
      </trkpt>
      <trkpt lat="43.26098198" lon="-2.29202387">
        <ele>96.46118</ele>
        <time>2019-11-21T21:09:16Z</time>
      </trkpt>
      <trkpt lat="43.26083032" lon="-2.29172117">
        <ele>95.965454</ele>
        <time>2019-11-21T21:09:17Z</time>
      </trkpt>
      <trkpt lat="43.26068818" lon="-2.2914186">
        <ele>95.40857</ele>
        <time>2019-11-21T21:09:18Z</time>
      </trkpt>
      <trkpt lat="43.26054434" lon="-2.29110779">
        <ele>94.96362</ele>
        <time>2019-11-21T21:09:19Z</time>
      </trkpt>
      <trkpt lat="43.2604058" lon="-2.2907835">
        <ele>94.82526</ele>
        <time>2019-11-21T21:09:20Z</time>
      </trkpt>
      <trkpt lat="43.26028554" lon="-2.29045739">
        <ele>93.9046</ele>
        <time>2019-11-21T21:09:21Z</time>
      </trkpt>
      <trkpt lat="43.26017576" lon="-2.29012997">
        <ele>93.58472</ele>
        <time>2019-11-21T21:09:22Z</time>
      </trkpt>
      <trkpt lat="43.26005491" lon="-2.28979421">
        <ele>93.94092</ele>
        <time>2019-11-21T21:09:23Z</time>
      </trkpt>
      <trkpt lat="43.25994022" lon="-2.28945657">
        <ele>94.03241</ele>
        <time>2019-11-21T21:09:24Z</time>
      </trkpt>
      <trkpt lat="43.25983021" lon="-2.28912561">
        <ele>94.749695</ele>
        <time>2019-11-21T21:09:25Z</time>
      </trkpt>
      <trkpt lat="43.25973084" lon="-2.2887976">
        <ele>93.8103</ele>
        <time>2019-11-21T21:09:26Z</time>
      </trkpt>
      <trkpt lat="43.25963495" lon="-2.28845572">
        <ele>93.35852</ele>
        <time>2019-11-21T21:09:27Z</time>
      </trkpt>
      <trkpt lat="43.25954521" lon="-2.28810843">
        <ele>93.629944</ele>
        <time>2019-11-21T21:09:28Z</time>
      </trkpt>
      <trkpt lat="43.25946499" lon="-2.28775539">
        <ele>94.016785</ele>
        <time>2019-11-21T21:09:29Z</time>
      </trkpt>
      <trkpt lat="43.25935092" lon="-2.28704222">
        <ele>94.05133</ele>
        <time>2019-11-21T21:09:30Z</time>
      </trkpt>
      <trkpt lat="43.25931827" lon="-2.28667901">
        <ele>92.33563</ele>
        <time>2019-11-21T21:09:31Z</time>
      </trkpt>
      <trkpt lat="43.25931077" lon="-2.28631379">
        <ele>91.71289</ele>
        <time>2019-11-21T21:09:32Z</time>
      </trkpt>
      <trkpt lat="43.25930489" lon="-2.28594407">
        <ele>91.63745</ele>
        <time>2019-11-21T21:09:33Z</time>
      </trkpt>
      <trkpt lat="43.25930062" lon="-2.28557274">
        <ele>90.88141</ele>
        <time>2019-11-21T21:09:34Z</time>
      </trkpt>
      <trkpt lat="43.25930964" lon="-2.28523107">
        <ele>88.29022</ele>
        <time>2019-11-21T21:09:35Z</time>
      </trkpt>
      <trkpt lat="43.25935813" lon="-2.28486931">
        <ele>88.44324</ele>
        <time>2019-11-21T21:09:36Z</time>
      </trkpt>
      <trkpt lat="43.25941722" lon="-2.28451706">
        <ele>88.013855</ele>
        <time>2019-11-21T21:09:37Z</time>
      </trkpt>
      <trkpt lat="43.25949132" lon="-2.28416647">
        <ele>88.37781</ele>
        <time>2019-11-21T21:09:38Z</time>
      </trkpt>
      <trkpt lat="43.25958059" lon="-2.28382302">
        <ele>88.69324</ele>
        <time>2019-11-21T21:09:39Z</time>
      </trkpt>
      <trkpt lat="43.25968285" lon="-2.2834794">
        <ele>89.15991</ele>
        <time>2019-11-21T21:09:41Z</time>
      </trkpt>
      <trkpt lat="43.2598006" lon="-2.28314181">
        <ele>89.19708</ele>
        <time>2019-11-21T21:09:42Z</time>
      </trkpt>
      <trkpt lat="43.25994164" lon="-2.28282878">
        <ele>88.90985</ele>
        <time>2019-11-21T21:09:43Z</time>
      </trkpt>
      <trkpt lat="43.26007559" lon="-2.28250248">
        <ele>87.93384</ele>
        <time>2019-11-21T21:09:44Z</time>
      </trkpt>
      <trkpt lat="43.26022212" lon="-2.28219127">
        <ele>87.863525</ele>
        <time>2019-11-21T21:09:45Z</time>
      </trkpt>
      <trkpt lat="43.26038817" lon="-2.28188028">
        <ele>88.28601</ele>
        <time>2019-11-21T21:09:46Z</time>
      </trkpt>
      <trkpt lat="43.26055784" lon="-2.28159705">
        <ele>88.00433</ele>
        <time>2019-11-21T21:09:47Z</time>
      </trkpt>
      <trkpt lat="43.26072995" lon="-2.28131848">
        <ele>88.46924</ele>
        <time>2019-11-21T21:09:48Z</time>
      </trkpt>
      <trkpt lat="43.26091161" lon="-2.28104342">
        <ele>87.19519</ele>
        <time>2019-11-21T21:09:49Z</time>
      </trkpt>
      <trkpt lat="43.26109227" lon="-2.28077878">
        <ele>87.63696</ele>
        <time>2019-11-21T21:09:50Z</time>
      </trkpt>
      <trkpt lat="43.26126857" lon="-2.28052261">
        <ele>87.29077</ele>
        <time>2019-11-21T21:09:51Z</time>
      </trkpt>
      <trkpt lat="43.26145059" lon="-2.2802534">
        <ele>86.25952</ele>
        <time>2019-11-21T21:09:52Z</time>
      </trkpt>
      <trkpt lat="43.26163384" lon="-2.2799814">
        <ele>87.07562</ele>
        <time>2019-11-21T21:09:53Z</time>
      </trkpt>
      <trkpt lat="43.26180658" lon="-2.27969804">
        <ele>87.800415</ele>
        <time>2019-11-21T21:09:54Z</time>
      </trkpt>
      <trkpt lat="43.26196652" lon="-2.27940982">
        <ele>87.530334</ele>
        <time>2019-11-21T21:09:55Z</time>
      </trkpt>
      <trkpt lat="43.2621282" lon="-2.27911342">
        <ele>87.84564</ele>
        <time>2019-11-21T21:09:56Z</time>
      </trkpt>
      <trkpt lat="43.26243752" lon="-2.27850631">
        <ele>85.36731</ele>
        <time>2019-11-21T21:09:57Z</time>
      </trkpt>
      <trkpt lat="43.26257648" lon="-2.27820077">
        <ele>86.306885</ele>
        <time>2019-11-21T21:09:58Z</time>
      </trkpt>
      <trkpt lat="43.26272081" lon="-2.27789372">
        <ele>85.41046</ele>
        <time>2019-11-21T21:09:59Z</time>
      </trkpt>
      <trkpt lat="43.26284584" lon="-2.2775741">
        <ele>85.44855</ele>
        <time>2019-11-21T21:10:00Z</time>
      </trkpt>
      <trkpt lat="43.26298066" lon="-2.2772501">
        <ele>85.21503</ele>
        <time>2019-11-21T21:10:01Z</time>
      </trkpt>
      <trkpt lat="43.26309406" lon="-2.27692484">
        <ele>84.25983</ele>
        <time>2019-11-21T21:10:02Z</time>
      </trkpt>
      <trkpt lat="43.26320866" lon="-2.2765879">
        <ele>84.07776</ele>
        <time>2019-11-21T21:10:03Z</time>
      </trkpt>
      <trkpt lat="43.26332917" lon="-2.27625971">
        <ele>83.18652</ele>
        <time>2019-11-21T21:10:04Z</time>
      </trkpt>
      <trkpt lat="43.26345624" lon="-2.27594465">
        <ele>82.88153</ele>
        <time>2019-11-21T21:10:05Z</time>
      </trkpt>
      <trkpt lat="43.26359235" lon="-2.27562871">
        <ele>83.00586</ele>
        <time>2019-11-21T21:10:06Z</time>
      </trkpt>
      <trkpt lat="43.26372892" lon="-2.27530733">
        <ele>82.81683</ele>
        <time>2019-11-21T21:10:08Z</time>
      </trkpt>
      <trkpt lat="43.26387125" lon="-2.2749925">
        <ele>83.37988</ele>
        <time>2019-11-21T21:10:09Z</time>
      </trkpt>
      <trkpt lat="43.26401869" lon="-2.27468116">
        <ele>82.50195</ele>
        <time>2019-11-21T21:10:10Z</time>
      </trkpt>
      <trkpt lat="43.26416749" lon="-2.27437766">
        <ele>82.758484</ele>
        <time>2019-11-21T21:10:11Z</time>
      </trkpt>
      <trkpt lat="43.26432307" lon="-2.27407645">
        <ele>82.66693</ele>
        <time>2019-11-21T21:10:12Z</time>
      </trkpt>
      <trkpt lat="43.26448377" lon="-2.27379338">
        <ele>83.05884</ele>
        <time>2019-11-21T21:10:13Z</time>
      </trkpt>
      <trkpt lat="43.26464799" lon="-2.27350384">
        <ele>83.785645</ele>
        <time>2019-11-21T21:10:14Z</time>
      </trkpt>
      <trkpt lat="43.2648112" lon="-2.27322097">
        <ele>84.07141</ele>
        <time>2019-11-21T21:10:15Z</time>
      </trkpt>
      <trkpt lat="43.26497966" lon="-2.27294517">
        <ele>83.813965</ele>
        <time>2019-11-21T21:10:16Z</time>
      </trkpt>
      <trkpt lat="43.26516467" lon="-2.27267373">
        <ele>83.89368</ele>
        <time>2019-11-21T21:10:17Z</time>
      </trkpt>
      <trkpt lat="43.26534564" lon="-2.27241203">
        <ele>84.483765</ele>
        <time>2019-11-21T21:10:18Z</time>
      </trkpt>
      <trkpt lat="43.26552687" lon="-2.27216677">
        <ele>84.959045</ele>
        <time>2019-11-21T21:10:19Z</time>
      </trkpt>
      <trkpt lat="43.26572381" lon="-2.27192804">
        <ele>85.19861</ele>
        <time>2019-11-21T21:10:20Z</time>
      </trkpt>
      <trkpt lat="43.26592479" lon="-2.2716869">
        <ele>85.91272</ele>
        <time>2019-11-21T21:10:21Z</time>
      </trkpt>
      <trkpt lat="43.26613543" lon="-2.27145863">
        <ele>85.35724</ele>
        <time>2019-11-21T21:10:22Z</time>
      </trkpt>
      <trkpt lat="43.26633447" lon="-2.27122183">
        <ele>85.28247</ele>
        <time>2019-11-21T21:10:23Z</time>
      </trkpt>
      <trkpt lat="43.26654271" lon="-2.27101083">
        <ele>85.78296</ele>
        <time>2019-11-21T21:10:24Z</time>
      </trkpt>
      <trkpt lat="43.26699667" lon="-2.27061821">
        <ele>85.58539</ele>
        <time>2019-11-21T21:10:25Z</time>
      </trkpt>
      <trkpt lat="43.26721742" lon="-2.27041737">
        <ele>84.68829</ele>
        <time>2019-11-21T21:10:26Z</time>
      </trkpt>
      <trkpt lat="43.26745061" lon="-2.27022661">
        <ele>85.80182</ele>
        <time>2019-11-21T21:10:27Z</time>
      </trkpt>
      <trkpt lat="43.2676865" lon="-2.27004961">
        <ele>87.3501</ele>
        <time>2019-11-21T21:10:28Z</time>
      </trkpt>
      <trkpt lat="43.26792219" lon="-2.26987257">
        <ele>88.289246</ele>
        <time>2019-11-21T21:10:29Z</time>
      </trkpt>
      <trkpt lat="43.26815166" lon="-2.26969474">
        <ele>88.94141</ele>
        <time>2019-11-21T21:10:30Z</time>
      </trkpt>
      <trkpt lat="43.26837087" lon="-2.26951028">
        <ele>88.71246</ele>
        <time>2019-11-21T21:10:31Z</time>
      </trkpt>
      <trkpt lat="43.26858679" lon="-2.2693305">
        <ele>88.99359</ele>
        <time>2019-11-21T21:10:32Z</time>
      </trkpt>
      <trkpt lat="43.26879571" lon="-2.26914924">
        <ele>89.57971</ele>
        <time>2019-11-21T21:10:33Z</time>
      </trkpt>
      <trkpt lat="43.26899617" lon="-2.26897566">
        <ele>90.26941</ele>
        <time>2019-11-21T21:10:34Z</time>
      </trkpt>
      <trkpt lat="43.26920475" lon="-2.26876847">
        <ele>104.81213</ele>
        <time>2019-11-21T21:10:35Z</time>
      </trkpt>
      <trkpt lat="43.26939751" lon="-2.26855639">
        <ele>102.65503</ele>
        <time>2019-11-21T21:10:36Z</time>
      </trkpt>
      <trkpt lat="43.26958227" lon="-2.26833687">
        <ele>101.20349</ele>
        <time>2019-11-21T21:10:38Z</time>
      </trkpt>
      <trkpt lat="43.2697588" lon="-2.26811085">
        <ele>99.73364</ele>
        <time>2019-11-21T21:10:39Z</time>
      </trkpt>
      <trkpt lat="43.26992131" lon="-2.26788816">
        <ele>99.17914</ele>
        <time>2019-11-21T21:10:40Z</time>
      </trkpt>
      <trkpt lat="43.27007645" lon="-2.26763817">
        <ele>99.15967</ele>
        <time>2019-11-21T21:10:41Z</time>
      </trkpt>
      <trkpt lat="43.27021791" lon="-2.26739151">
        <ele>98.94324</ele>
        <time>2019-11-21T21:10:42Z</time>
      </trkpt>
      <trkpt lat="43.27035838" lon="-2.26713563">
        <ele>99.05463</ele>
        <time>2019-11-21T21:10:43Z</time>
      </trkpt>
      <trkpt lat="43.27048988" lon="-2.26688991">
        <ele>97.88428</ele>
        <time>2019-11-21T21:10:44Z</time>
      </trkpt>
      <trkpt lat="43.27062673" lon="-2.2666222">
        <ele>97.447266</ele>
        <time>2019-11-21T21:10:45Z</time>
      </trkpt>
      <trkpt lat="43.27074776" lon="-2.26634996">
        <ele>98.81903</ele>
        <time>2019-11-21T21:10:46Z</time>
      </trkpt>
      <trkpt lat="43.27084491" lon="-2.26607051">
        <ele>99.96307</ele>
        <time>2019-11-21T21:10:47Z</time>
      </trkpt>
      <trkpt lat="43.27093069" lon="-2.26579145">
        <ele>100.39282</ele>
        <time>2019-11-21T21:10:48Z</time>
      </trkpt>
      <trkpt lat="43.27101428" lon="-2.26550656">
        <ele>100.74182</ele>
        <time>2019-11-21T21:10:49Z</time>
      </trkpt>
      <trkpt lat="43.27110136" lon="-2.26520562">
        <ele>101.11267</ele>
        <time>2019-11-21T21:10:50Z</time>
      </trkpt>
      <trkpt lat="43.27117415" lon="-2.26491207">
        <ele>101.237</ele>
        <time>2019-11-21T21:10:51Z</time>
      </trkpt>
      <trkpt lat="43.27122037" lon="-2.26460779">
        <ele>99.69006</ele>
        <time>2019-11-21T21:10:52Z</time>
      </trkpt>
      <trkpt lat="43.27125594" lon="-2.26429719">
        <ele>99.63214</ele>
        <time>2019-11-21T21:10:53Z</time>
      </trkpt>
      <trkpt lat="43.27131131" lon="-2.26399863">
        <ele>102.65881</ele>
        <time>2019-11-21T21:10:54Z</time>
      </trkpt>
      <trkpt lat="43.27134316" lon="-2.26369077">
        <ele>104.08746</ele>
        <time>2019-11-21T21:10:55Z</time>
      </trkpt>
      <trkpt lat="43.2713607" lon="-2.26338289">
        <ele>105.355896</ele>
        <time>2019-11-21T21:10:56Z</time>
      </trkpt>
      <trkpt lat="43.27137609" lon="-2.26277129">
        <ele>103.38501</ele>
        <time>2019-11-21T21:10:57Z</time>
      </trkpt>
      <trkpt lat="43.2713811" lon="-2.26245884">
        <ele>104.54431</ele>
        <time>2019-11-21T21:10:58Z</time>
      </trkpt>
      <trkpt lat="43.27138307" lon="-2.26214512">
        <ele>103.677185</ele>
        <time>2019-11-21T21:10:59Z</time>
      </trkpt>
      <trkpt lat="43.27139383" lon="-2.26184987">
        <ele>104.21637</ele>
        <time>2019-11-21T21:11:00Z</time>
      </trkpt>
      <trkpt lat="43.27140899" lon="-2.26152749">
        <ele>105.89789</ele>
        <time>2019-11-21T21:11:01Z</time>
      </trkpt>
      <trkpt lat="43.27142097" lon="-2.26122784">
        <ele>106.25311</ele>
        <time>2019-11-21T21:11:02Z</time>
      </trkpt>
      <trkpt lat="43.27144579" lon="-2.26093146">
        <ele>106.128235</ele>
        <time>2019-11-21T21:11:03Z</time>
      </trkpt>
      <trkpt lat="43.27147799" lon="-2.26062741">
        <ele>106.79138</ele>
        <time>2019-11-21T21:11:04Z</time>
      </trkpt>
      <trkpt lat="43.27150851" lon="-2.26032212">
        <ele>106.8551</ele>
        <time>2019-11-21T21:11:05Z</time>
      </trkpt>
      <trkpt lat="43.27155897" lon="-2.2600169">
        <ele>107.73401</ele>
        <time>2019-11-21T21:11:06Z</time>
      </trkpt>
      <trkpt lat="43.2716106" lon="-2.25973234">
        <ele>107.85669</ele>
        <time>2019-11-21T21:11:07Z</time>
      </trkpt>
      <trkpt lat="43.27167442" lon="-2.2594497">
        <ele>107.64838</ele>
        <time>2019-11-21T21:11:08Z</time>
      </trkpt>
      <trkpt lat="43.27175256" lon="-2.25916598">
        <ele>106.64758</ele>
        <time>2019-11-21T21:11:10Z</time>
      </trkpt>
      <trkpt lat="43.27183822" lon="-2.25887989">
        <ele>107.013</ele>
        <time>2019-11-21T21:11:11Z</time>
      </trkpt>
      <trkpt lat="43.27192823" lon="-2.25859533">
        <ele>107.701416</ele>
        <time>2019-11-21T21:11:12Z</time>
      </trkpt>
      <trkpt lat="43.27202865" lon="-2.25831532">
        <ele>107.918335</ele>
        <time>2019-11-21T21:11:13Z</time>
      </trkpt>
      <trkpt lat="43.27214215" lon="-2.25805501">
        <ele>107.54645</ele>
        <time>2019-11-21T21:11:14Z</time>
      </trkpt>
      <trkpt lat="43.27226085" lon="-2.25778387">
        <ele>108.590454</ele>
        <time>2019-11-21T21:11:15Z</time>
      </trkpt>
      <trkpt lat="43.27238551" lon="-2.25753394">
        <ele>109.47339</ele>
        <time>2019-11-21T21:11:16Z</time>
      </trkpt>
      <trkpt lat="43.27251035" lon="-2.25728083">
        <ele>108.9317</ele>
        <time>2019-11-21T21:11:17Z</time>
      </trkpt>
      <trkpt lat="43.2726684" lon="-2.25704879">
        <ele>109.06714</ele>
        <time>2019-11-21T21:11:18Z</time>
      </trkpt>
      <trkpt lat="43.27282166" lon="-2.25678996">
        <ele>110.53772</ele>
        <time>2019-11-21T21:11:19Z</time>
      </trkpt>
      <trkpt lat="43.27299599" lon="-2.25658304">
        <ele>111.43207</ele>
        <time>2019-11-21T21:11:20Z</time>
      </trkpt>
      <trkpt lat="43.27317151" lon="-2.25637628">
        <ele>112.127075</ele>
        <time>2019-11-21T21:11:21Z</time>
      </trkpt>
      <trkpt lat="43.27335442" lon="-2.25618887">
        <ele>111.29285</ele>
        <time>2019-11-21T21:11:22Z</time>
      </trkpt>
      <trkpt lat="43.27353545" lon="-2.25602452">
        <ele>111.29468</ele>
        <time>2019-11-21T21:11:23Z</time>
      </trkpt>
      <trkpt lat="43.27372929" lon="-2.25588453">
        <ele>111.64661</ele>
        <time>2019-11-21T21:11:24Z</time>
      </trkpt>
      <trkpt lat="43.27392755" lon="-2.25577102">
        <ele>110.934265</ele>
        <time>2019-11-21T21:11:25Z</time>
      </trkpt>
      <trkpt lat="43.2741185" lon="-2.25566764">
        <ele>111.09723</ele>
        <time>2019-11-21T21:11:26Z</time>
      </trkpt>
      <trkpt lat="43.27427405" lon="-2.2555658">
        <ele>112.743286</ele>
        <time>2019-11-21T21:11:27Z</time>
      </trkpt>
      <trkpt lat="43.27468428" lon="-2.25537527">
        <ele>110.75281</ele>
        <time>2019-11-21T21:11:28Z</time>
      </trkpt>
      <trkpt lat="43.27488315" lon="-2.25529429">
        <ele>110.30481</ele>
        <time>2019-11-21T21:11:29Z</time>
      </trkpt>
      <trkpt lat="43.27508162" lon="-2.2552473">
        <ele>110.47571</ele>
        <time>2019-11-21T21:11:30Z</time>
      </trkpt>
      <trkpt lat="43.27521706" lon="-2.25521828">
        <ele>111.99298</ele>
        <time>2019-11-21T21:11:31Z</time>
      </trkpt>
      <trkpt lat="43.27542832" lon="-2.25517465">
        <ele>111.55017</ele>
        <time>2019-11-21T21:11:32Z</time>
      </trkpt>
      <trkpt lat="43.27563446" lon="-2.25513737">
        <ele>112.304504</ele>
        <time>2019-11-21T21:11:33Z</time>
      </trkpt>
      <trkpt lat="43.27583529" lon="-2.25508032">
        <ele>111.10266</ele>
        <time>2019-11-21T21:11:34Z</time>
      </trkpt>
      <trkpt lat="43.27604467" lon="-2.25499241">
        <ele>108.09033</ele>
        <time>2019-11-21T21:11:35Z</time>
      </trkpt>
      <trkpt lat="43.27627055" lon="-2.25488396">
        <ele>106.37909</ele>
        <time>2019-11-21T21:11:36Z</time>
      </trkpt>
      <trkpt lat="43.27646159" lon="-2.25475529">
        <ele>105.39703</ele>
        <time>2019-11-21T21:11:37Z</time>
      </trkpt>
      <trkpt lat="43.27663403" lon="-2.25460142">
        <ele>104.49182</ele>
        <time>2019-11-21T21:11:38Z</time>
      </trkpt>
      <trkpt lat="43.27684451" lon="-2.25440916">
        <ele>103.30737</ele>
        <time>2019-11-21T21:11:40Z</time>
      </trkpt>
      <trkpt lat="43.27702449" lon="-2.25419486">
        <ele>100.626465</ele>
        <time>2019-11-21T21:11:41Z</time>
      </trkpt>
      <trkpt lat="43.27718321" lon="-2.25395388">
        <ele>101.968506</ele>
        <time>2019-11-21T21:11:42Z</time>
      </trkpt>
      <trkpt lat="43.27732438" lon="-2.25370538">
        <ele>99.94885</ele>
        <time>2019-11-21T21:11:43Z</time>
      </trkpt>
      <trkpt lat="43.27743297" lon="-2.2534329">
        <ele>96.15222</ele>
        <time>2019-11-21T21:11:44Z</time>
      </trkpt>
      <trkpt lat="43.27754556" lon="-2.25315253">
        <ele>93.70026</ele>
        <time>2019-11-21T21:11:45Z</time>
      </trkpt>
      <trkpt lat="43.27763518" lon="-2.25286138">
        <ele>92.08447</ele>
        <time>2019-11-21T21:11:46Z</time>
      </trkpt>
      <trkpt lat="43.2777184" lon="-2.25256626">
        <ele>91.53192</ele>
        <time>2019-11-21T21:11:47Z</time>
      </trkpt>
      <trkpt lat="43.2777818" lon="-2.25225252">
        <ele>90.49341</ele>
        <time>2019-11-21T21:11:48Z</time>
      </trkpt>
      <trkpt lat="43.27782002" lon="-2.25193702">
        <ele>88.68164</ele>
        <time>2019-11-21T21:11:49Z</time>
      </trkpt>
      <trkpt lat="43.27783688" lon="-2.25164307">
        <ele>86.34021</ele>
        <time>2019-11-21T21:11:50Z</time>
      </trkpt>
      <trkpt lat="43.27781592" lon="-2.25128976">
        <ele>84.81305</ele>
        <time>2019-11-21T21:11:51Z</time>
      </trkpt>
      <trkpt lat="43.27778635" lon="-2.25096146">
        <ele>83.137695</ele>
        <time>2019-11-21T21:11:52Z</time>
      </trkpt>
      <trkpt lat="43.27775067" lon="-2.25062363">
        <ele>83.74701</ele>
        <time>2019-11-21T21:11:53Z</time>
      </trkpt>
      <trkpt lat="43.27771659" lon="-2.25028479">
        <ele>82.57318</ele>
        <time>2019-11-21T21:11:54Z</time>
      </trkpt>
      <trkpt lat="43.27767238" lon="-2.24994822">
        <ele>80.37036</ele>
        <time>2019-11-21T21:11:55Z</time>
      </trkpt>
      <trkpt lat="43.27764229" lon="-2.24961124">
        <ele>78.8833</ele>
        <time>2019-11-21T21:11:56Z</time>
      </trkpt>
      <trkpt lat="43.27762283" lon="-2.24928101">
        <ele>77.0874</ele>
        <time>2019-11-21T21:11:57Z</time>
      </trkpt>
      <trkpt lat="43.27760861" lon="-2.24894836">
        <ele>75.0788</ele>
        <time>2019-11-21T21:11:58Z</time>
      </trkpt>
      <trkpt lat="43.27759854" lon="-2.24861944">
        <ele>73.624146</ele>
        <time>2019-11-21T21:11:59Z</time>
      </trkpt>
      <trkpt lat="43.27759842" lon="-2.24826508">
        <ele>72.31598</ele>
        <time>2019-11-21T21:12:00Z</time>
      </trkpt>
      <trkpt lat="43.27760445" lon="-2.24758131">
        <ele>69.493835</ele>
        <time>2019-11-21T21:12:01Z</time>
      </trkpt>
      <trkpt lat="43.27762665" lon="-2.24723361">
        <ele>67.70386</ele>
        <time>2019-11-21T21:12:02Z</time>
      </trkpt>
      <trkpt lat="43.27765705" lon="-2.24688592">
        <ele>66.70648</ele>
        <time>2019-11-21T21:12:03Z</time>
      </trkpt>
      <trkpt lat="43.27769528" lon="-2.2465385">
        <ele>65.51831</ele>
        <time>2019-11-21T21:12:04Z</time>
      </trkpt>
      <trkpt lat="43.27774063" lon="-2.24619954">
        <ele>64.84491</ele>
        <time>2019-11-21T21:12:05Z</time>
      </trkpt>
      <trkpt lat="43.27779182" lon="-2.24586357">
        <ele>65.03992</ele>
        <time>2019-11-21T21:12:06Z</time>
      </trkpt>
      <trkpt lat="43.27784182" lon="-2.24552727">
        <ele>63.965332</ele>
        <time>2019-11-21T21:12:07Z</time>
      </trkpt>
      <trkpt lat="43.27789656" lon="-2.24518798">
        <ele>63.511963</ele>
        <time>2019-11-21T21:12:08Z</time>
      </trkpt>
      <trkpt lat="43.27795459" lon="-2.24484897">
        <ele>63.056152</ele>
        <time>2019-11-21T21:12:09Z</time>
      </trkpt>
      <trkpt lat="43.27801905" lon="-2.24451654">
        <ele>62.35382</ele>
        <time>2019-11-21T21:12:11Z</time>
      </trkpt>
      <trkpt lat="43.27809197" lon="-2.24419715">
        <ele>62.13501</ele>
        <time>2019-11-21T21:12:12Z</time>
      </trkpt>
      <trkpt lat="43.27817244" lon="-2.24383833">
        <ele>62.346985</ele>
        <time>2019-11-21T21:12:13Z</time>
      </trkpt>
      <trkpt lat="43.27825886" lon="-2.24353629">
        <ele>63.06079</ele>
        <time>2019-11-21T21:12:14Z</time>
      </trkpt>
      <trkpt lat="43.2783392" lon="-2.2432098">
        <ele>62.989197</ele>
        <time>2019-11-21T21:12:15Z</time>
      </trkpt>
      <trkpt lat="43.27842094" lon="-2.24290434">
        <ele>62.831055</ele>
        <time>2019-11-21T21:12:16Z</time>
      </trkpt>
      <trkpt lat="43.27849904" lon="-2.24261364">
        <ele>62.42926</ele>
        <time>2019-11-21T21:12:17Z</time>
      </trkpt>
      <trkpt lat="43.27859369" lon="-2.24229968">
        <ele>61.330933</ele>
        <time>2019-11-21T21:12:18Z</time>
      </trkpt>
      <trkpt lat="43.27870246" lon="-2.24200922">
        <ele>60.20172</ele>
        <time>2019-11-21T21:12:19Z</time>
      </trkpt>
      <trkpt lat="43.27880736" lon="-2.24169389">
        <ele>59.424133</ele>
        <time>2019-11-21T21:12:20Z</time>
      </trkpt>
      <trkpt lat="43.27893321" lon="-2.24140905">
        <ele>59.719666</ele>
        <time>2019-11-21T21:12:21Z</time>
      </trkpt>
      <trkpt lat="43.27907047" lon="-2.24110893">
        <ele>60.23706</ele>
        <time>2019-11-21T21:12:22Z</time>
      </trkpt>
      <trkpt lat="43.27921489" lon="-2.24083607">
        <ele>60.062256</ele>
        <time>2019-11-21T21:12:23Z</time>
      </trkpt>
      <trkpt lat="43.27937924" lon="-2.24058425">
        <ele>58.97119</ele>
        <time>2019-11-21T21:12:24Z</time>
      </trkpt>
      <trkpt lat="43.27953028" lon="-2.24028519">
        <ele>58.169983</ele>
        <time>2019-11-21T21:12:25Z</time>
      </trkpt>
      <trkpt lat="43.27970154" lon="-2.24001337">
        <ele>58.166565</ele>
        <time>2019-11-21T21:12:26Z</time>
      </trkpt>
      <trkpt lat="43.27988961" lon="-2.23976266">
        <ele>59.46222</ele>
        <time>2019-11-21T21:12:27Z</time>
      </trkpt>
      <trkpt lat="43.2800752" lon="-2.23951703">
        <ele>59.98816</ele>
        <time>2019-11-21T21:12:28Z</time>
      </trkpt>
      <trkpt lat="43.28026283" lon="-2.23928783">
        <ele>60.090332</ele>
        <time>2019-11-21T21:12:29Z</time>
      </trkpt>
      <trkpt lat="43.28063599" lon="-2.23884644">
        <ele>60.901062</ele>
        <time>2019-11-21T21:12:30Z</time>
      </trkpt>
      <trkpt lat="43.2808277" lon="-2.23862842">
        <ele>60.216248</ele>
        <time>2019-11-21T21:12:31Z</time>
      </trkpt>
      <trkpt lat="43.28101988" lon="-2.23842782">
        <ele>60.692444</ele>
        <time>2019-11-21T21:12:32Z</time>
      </trkpt>
      <trkpt lat="43.2812057" lon="-2.23822422">
        <ele>59.89209</ele>
        <time>2019-11-21T21:12:33Z</time>
      </trkpt>
      <trkpt lat="43.28140288" lon="-2.23802458">
        <ele>60.358887</ele>
        <time>2019-11-21T21:12:34Z</time>
      </trkpt>
      <trkpt lat="43.28159519" lon="-2.23782258">
        <ele>60.961243</ele>
        <time>2019-11-21T21:12:35Z</time>
      </trkpt>
      <trkpt lat="43.28178846" lon="-2.23762399">
        <ele>60.85028</ele>
        <time>2019-11-21T21:12:36Z</time>
      </trkpt>
      <trkpt lat="43.28198327" lon="-2.23742666">
        <ele>60.88263</ele>
        <time>2019-11-21T21:12:37Z</time>
      </trkpt>
      <trkpt lat="43.28216244" lon="-2.23722416">
        <ele>59.56134</ele>
        <time>2019-11-21T21:12:38Z</time>
      </trkpt>
      <trkpt lat="43.28233902" lon="-2.23699875">
        <ele>58.59326</ele>
        <time>2019-11-21T21:12:39Z</time>
      </trkpt>
      <trkpt lat="43.28252713" lon="-2.23676115">
        <ele>58.427795</ele>
        <time>2019-11-21T21:12:41Z</time>
      </trkpt>
      <trkpt lat="43.28270474" lon="-2.23651199">
        <ele>58.622437</ele>
        <time>2019-11-21T21:12:42Z</time>
      </trkpt>
      <trkpt lat="43.28288532" lon="-2.23626225">
        <ele>58.876038</ele>
        <time>2019-11-21T21:12:43Z</time>
      </trkpt>
      <trkpt lat="43.283052" lon="-2.23600145">
        <ele>59.5542</ele>
        <time>2019-11-21T21:12:44Z</time>
      </trkpt>
      <trkpt lat="43.28322403" lon="-2.23572796">
        <ele>60.665283</ele>
        <time>2019-11-21T21:12:45Z</time>
      </trkpt>
      <trkpt lat="43.28338518" lon="-2.23544426">
        <ele>61.232788</ele>
        <time>2019-11-21T21:12:46Z</time>
      </trkpt>
      <trkpt lat="43.28352929" lon="-2.23515984">
        <ele>59.735535</ele>
        <time>2019-11-21T21:12:47Z</time>
      </trkpt>
      <trkpt lat="43.28367784" lon="-2.23486325">
        <ele>59.588745</ele>
        <time>2019-11-21T21:12:48Z</time>
      </trkpt>
      <trkpt lat="43.28382043" lon="-2.23455149">
        <ele>59.69757</ele>
        <time>2019-11-21T21:12:49Z</time>
      </trkpt>
      <trkpt lat="43.28395565" lon="-2.23423709">
        <ele>60.229065</ele>
        <time>2019-11-21T21:12:50Z</time>
      </trkpt>
      <trkpt lat="43.28408429" lon="-2.23391435">
        <ele>61.108887</ele>
        <time>2019-11-21T21:12:51Z</time>
      </trkpt>
      <trkpt lat="43.28421301" lon="-2.23359711">
        <ele>60.97815</ele>
        <time>2019-11-21T21:12:52Z</time>
      </trkpt>
      <trkpt lat="43.28432665" lon="-2.23327572">
        <ele>60.584778</ele>
        <time>2019-11-21T21:12:53Z</time>
      </trkpt>
      <trkpt lat="43.28442673" lon="-2.23293401">
        <ele>59.503845</ele>
        <time>2019-11-21T21:12:54Z</time>
      </trkpt>
      <trkpt lat="43.28453198" lon="-2.23258853">
        <ele>59.543274</ele>
        <time>2019-11-21T21:12:55Z</time>
      </trkpt>
      <trkpt lat="43.28462055" lon="-2.232242">
        <ele>59.84436</ele>
        <time>2019-11-21T21:12:56Z</time>
      </trkpt>
      <trkpt lat="43.28470063" lon="-2.23188812">
        <ele>60.950012</ele>
        <time>2019-11-21T21:12:57Z</time>
      </trkpt>
      <trkpt lat="43.28477221" lon="-2.2315476">
        <ele>60.821228</ele>
        <time>2019-11-21T21:12:58Z</time>
      </trkpt>
      <trkpt lat="43.2848315" lon="-2.23119352">
        <ele>60.811157</ele>
        <time>2019-11-21T21:12:59Z</time>
      </trkpt>
      <trkpt lat="43.28493775" lon="-2.23044497">
        <ele>61.495667</ele>
        <time>2019-11-21T21:13:00Z</time>
      </trkpt>
      <trkpt lat="43.28497731" lon="-2.23006782">
        <ele>62.10376</ele>
        <time>2019-11-21T21:13:01Z</time>
      </trkpt>
      <trkpt lat="43.28500458" lon="-2.22969595">
        <ele>62.558716</ele>
        <time>2019-11-21T21:13:02Z</time>
      </trkpt>
      <trkpt lat="43.28502005" lon="-2.22931843">
        <ele>63.68274</ele>
        <time>2019-11-21T21:13:03Z</time>
      </trkpt>
      <trkpt lat="43.28503203" lon="-2.22892782">
        <ele>63.852417</ele>
        <time>2019-11-21T21:13:04Z</time>
      </trkpt>
      <trkpt lat="43.28503952" lon="-2.22853404">
        <ele>63.58667</ele>
        <time>2019-11-21T21:13:05Z</time>
      </trkpt>
      <trkpt lat="43.28504713" lon="-2.22814211">
        <ele>64.27014</ele>
        <time>2019-11-21T21:13:06Z</time>
      </trkpt>
      <trkpt lat="43.2850533" lon="-2.22775886">
        <ele>65.036865</ele>
        <time>2019-11-21T21:13:07Z</time>
      </trkpt>
      <trkpt lat="43.28507598" lon="-2.22736065">
        <ele>67.62421</ele>
        <time>2019-11-21T21:13:08Z</time>
      </trkpt>
      <trkpt lat="43.28509234" lon="-2.2269772">
        <ele>68.331055</ele>
        <time>2019-11-21T21:13:09Z</time>
      </trkpt>
      <trkpt lat="43.28511342" lon="-2.22660379">
        <ele>66.04712</ele>
        <time>2019-11-21T21:13:10Z</time>
      </trkpt>
      <trkpt lat="43.28513607" lon="-2.22622017">
        <ele>67.59033</ele>
        <time>2019-11-21T21:13:12Z</time>
      </trkpt>
      <trkpt lat="43.28516636" lon="-2.22583814">
        <ele>68.25403</ele>
        <time>2019-11-21T21:13:13Z</time>
      </trkpt>
      <trkpt lat="43.28520602" lon="-2.22546367">
        <ele>69.95093</ele>
        <time>2019-11-21T21:13:14Z</time>
      </trkpt>
      <trkpt lat="43.2852563" lon="-2.22508411">
        <ele>71.683655</ele>
        <time>2019-11-21T21:13:15Z</time>
      </trkpt>
      <trkpt lat="43.28531126" lon="-2.22471492">
        <ele>73.19037</ele>
        <time>2019-11-21T21:13:16Z</time>
      </trkpt>
      <trkpt lat="43.28536256" lon="-2.22434118">
        <ele>73.717896</ele>
        <time>2019-11-21T21:13:17Z</time>
      </trkpt>
      <trkpt lat="43.28542651" lon="-2.22395763">
        <ele>73.57428</ele>
        <time>2019-11-21T21:13:18Z</time>
      </trkpt>
      <trkpt lat="43.28549029" lon="-2.22357148">
        <ele>75.22186</ele>
        <time>2019-11-21T21:13:19Z</time>
      </trkpt>
      <trkpt lat="43.28555209" lon="-2.22320013">
        <ele>77.07495</ele>
        <time>2019-11-21T21:13:20Z</time>
      </trkpt>
      <trkpt lat="43.28559905" lon="-2.22281757">
        <ele>79.88599</ele>
        <time>2019-11-21T21:13:21Z</time>
      </trkpt>
      <trkpt lat="43.28562334" lon="-2.22243125">
        <ele>81.777405</ele>
        <time>2019-11-21T21:13:22Z</time>
      </trkpt>
      <trkpt lat="43.28563865" lon="-2.22203952">
        <ele>82.67316</ele>
        <time>2019-11-21T21:13:23Z</time>
      </trkpt>
      <trkpt lat="43.28563875" lon="-2.2216648">
        <ele>82.87579</ele>
        <time>2019-11-21T21:13:24Z</time>
      </trkpt>
      <trkpt lat="43.28561744" lon="-2.22127318">
        <ele>85.26373</ele>
        <time>2019-11-21T21:13:25Z</time>
      </trkpt>
      <trkpt lat="43.28556816" lon="-2.220888">
        <ele>85.9906</ele>
        <time>2019-11-21T21:13:26Z</time>
      </trkpt>
      <trkpt lat="43.28550209" lon="-2.22051464">
        <ele>86.66351</ele>
        <time>2019-11-21T21:13:27Z</time>
      </trkpt>
      <trkpt lat="43.28541996" lon="-2.22014344">
        <ele>87.98645</ele>
        <time>2019-11-21T21:13:28Z</time>
      </trkpt>
      <trkpt lat="43.28521094" lon="-2.21942291">
        <ele>89.472534</ele>
        <time>2019-11-21T21:13:29Z</time>
      </trkpt>
      <trkpt lat="43.2850736" lon="-2.21907677">
        <ele>90.29321</ele>
        <time>2019-11-21T21:13:30Z</time>
      </trkpt>
      <trkpt lat="43.2849188" lon="-2.21874761">
        <ele>90.73151</ele>
        <time>2019-11-21T21:13:31Z</time>
      </trkpt>
      <trkpt lat="43.28474612" lon="-2.21844117">
        <ele>90.87421</ele>
        <time>2019-11-21T21:13:32Z</time>
      </trkpt>
      <trkpt lat="43.28455912" lon="-2.21814922">
        <ele>91.088196</ele>
        <time>2019-11-21T21:13:33Z</time>
      </trkpt>
      <trkpt lat="43.28436093" lon="-2.21785592">
        <ele>91.23096</ele>
        <time>2019-11-21T21:13:34Z</time>
      </trkpt>
      <trkpt lat="43.28416259" lon="-2.2175723">
        <ele>90.91565</ele>
        <time>2019-11-21T21:13:35Z</time>
      </trkpt>
      <trkpt lat="43.28397118" lon="-2.21729207">
        <ele>91.699036</ele>
        <time>2019-11-21T21:13:36Z</time>
      </trkpt>
      <trkpt lat="43.28378929" lon="-2.21701433">
        <ele>93.202576</ele>
        <time>2019-11-21T21:13:37Z</time>
      </trkpt>
      <trkpt lat="43.28362413" lon="-2.21673705">
        <ele>94.47333</ele>
        <time>2019-11-21T21:13:38Z</time>
      </trkpt>
      <trkpt lat="43.28347087" lon="-2.21645828">
        <ele>95.6012</ele>
        <time>2019-11-21T21:13:39Z</time>
      </trkpt>
      <trkpt lat="43.28332179" lon="-2.21617066">
        <ele>96.27698</ele>
        <time>2019-11-21T21:13:40Z</time>
      </trkpt>
      <trkpt lat="43.28320615" lon="-2.21588515">
        <ele>98.95691</ele>
        <time>2019-11-21T21:13:42Z</time>
      </trkpt>
      <trkpt lat="43.28309156" lon="-2.21558978">
        <ele>100.26776</ele>
        <time>2019-11-21T21:13:43Z</time>
      </trkpt>
      <trkpt lat="43.28299811" lon="-2.21530418">
        <ele>101.888306</ele>
        <time>2019-11-21T21:13:44Z</time>
      </trkpt>
      <trkpt lat="43.28290132" lon="-2.21500876">
        <ele>101.82727</ele>
        <time>2019-11-21T21:13:45Z</time>
      </trkpt>
      <trkpt lat="43.28281867" lon="-2.21471302">
        <ele>102.84186</ele>
        <time>2019-11-21T21:13:46Z</time>
      </trkpt>
      <trkpt lat="43.28272906" lon="-2.21440964">
        <ele>105.13733</ele>
        <time>2019-11-21T21:13:47Z</time>
      </trkpt>
      <trkpt lat="43.28262151" lon="-2.2141068">
        <ele>105.276</ele>
        <time>2019-11-21T21:13:48Z</time>
      </trkpt>
      <trkpt lat="43.28249878" lon="-2.21381478">
        <ele>105.5235</ele>
        <time>2019-11-21T21:13:49Z</time>
      </trkpt>
      <trkpt lat="43.28237555" lon="-2.2135348">
        <ele>106.63617</ele>
        <time>2019-11-21T21:13:50Z</time>
      </trkpt>
      <trkpt lat="43.28224" lon="-2.21325774">
        <ele>107.94031</ele>
        <time>2019-11-21T21:13:51Z</time>
      </trkpt>
      <trkpt lat="43.28209295" lon="-2.21299133">
        <ele>108.23999</ele>
        <time>2019-11-21T21:13:52Z</time>
      </trkpt>
      <trkpt lat="43.28195647" lon="-2.21272948">
        <ele>107.374695</ele>
        <time>2019-11-21T21:13:53Z</time>
      </trkpt>
      <trkpt lat="43.28181666" lon="-2.21247473">
        <ele>108.883484</ele>
        <time>2019-11-21T21:13:54Z</time>
      </trkpt>
      <trkpt lat="43.28168368" lon="-2.21222646">
        <ele>110.31592</ele>
        <time>2019-11-21T21:13:55Z</time>
      </trkpt>
      <trkpt lat="43.2815547" lon="-2.21197925">
        <ele>111.35535</ele>
        <time>2019-11-21T21:13:56Z</time>
      </trkpt>
      <trkpt lat="43.28144018" lon="-2.21173826">
        <ele>112.43921</ele>
        <time>2019-11-21T21:13:57Z</time>
      </trkpt>
      <trkpt lat="43.28132662" lon="-2.2114845">
        <ele>112.47351</ele>
        <time>2019-11-21T21:13:58Z</time>
      </trkpt>
      <trkpt lat="43.28112244606018" lon="-2.2109663486480713">
        <ele>0.0</ele>
        <time>2019-11-21T21:13:59Z</time>
      </trkpt>
      <trkpt lat="43.28072869" lon="-2.20595822">
        <ele>103.45398</ele>
        <time>2019-11-21T21:14:17Z</time>
      </trkpt>
      <trkpt lat="43.28078484" lon="-2.20567785">
        <ele>108.19165</ele>
        <time>2019-11-21T21:14:18Z</time>
      </trkpt>
      <trkpt lat="43.28086541" lon="-2.20538579">
        <ele>107.23108</ele>
        <time>2019-11-21T21:14:19Z</time>
      </trkpt>
      <trkpt lat="43.28091527" lon="-2.20508844">
        <ele>108.13568</ele>
        <time>2019-11-21T21:14:20Z</time>
      </trkpt>
      <trkpt lat="43.28097126" lon="-2.2047691">
        <ele>109.12988</ele>
        <time>2019-11-21T21:14:21Z</time>
      </trkpt>
      <trkpt lat="43.28102787" lon="-2.20444858">
        <ele>110.50873</ele>
        <time>2019-11-21T21:14:22Z</time>
      </trkpt>
      <trkpt lat="43.28107163" lon="-2.20411795">
        <ele>110.553345</ele>
        <time>2019-11-21T21:14:23Z</time>
      </trkpt>
      <trkpt lat="43.2811101" lon="-2.20379576">
        <ele>110.42749</ele>
        <time>2019-11-21T21:14:24Z</time>
      </trkpt>
      <trkpt lat="43.28115642" lon="-2.2034674">
        <ele>111.74658</ele>
        <time>2019-11-21T21:14:25Z</time>
      </trkpt>
      <trkpt lat="43.28119036" lon="-2.20313619">
        <ele>111.6004</ele>
        <time>2019-11-21T21:14:26Z</time>
      </trkpt>
      <trkpt lat="43.28122016" lon="-2.20279162">
        <ele>111.44684</ele>
        <time>2019-11-21T21:14:27Z</time>
      </trkpt>
      <trkpt lat="43.28126438" lon="-2.20246941">
        <ele>111.81415</ele>
        <time>2019-11-21T21:14:28Z</time>
      </trkpt>
      <trkpt lat="43.28127646" lon="-2.20212429">
        <ele>110.45465</ele>
        <time>2019-11-21T21:14:29Z</time>
      </trkpt>
      <trkpt lat="43.28129178" lon="-2.20147325">
        <ele>108.42047</ele>
        <time>2019-11-21T21:14:30Z</time>
      </trkpt>
      <trkpt lat="43.28131182" lon="-2.20114552">
        <ele>108.210205</ele>
        <time>2019-11-21T21:14:31Z</time>
      </trkpt>
      <trkpt lat="43.28131993" lon="-2.20081383">
        <ele>109.29108</ele>
        <time>2019-11-21T21:14:32Z</time>
      </trkpt>
      <trkpt lat="43.28131718" lon="-2.20046876">
        <ele>108.51044</ele>
        <time>2019-11-21T21:14:33Z</time>
      </trkpt>
      <trkpt lat="43.281317" lon="-2.20014999">
        <ele>108.62201</ele>
        <time>2019-11-21T21:14:34Z</time>
      </trkpt>
      <trkpt lat="43.28132297" lon="-2.19982606">
        <ele>108.55939</ele>
        <time>2019-11-21T21:14:35Z</time>
      </trkpt>
      <trkpt lat="43.2813276" lon="-2.19950747">
        <ele>109.638245</ele>
        <time>2019-11-21T21:14:36Z</time>
      </trkpt>
      <trkpt lat="43.28132081" lon="-2.19918066">
        <ele>108.58472</ele>
        <time>2019-11-21T21:14:37Z</time>
      </trkpt>
      <trkpt lat="43.28132797" lon="-2.19886023">
        <ele>108.04462</ele>
        <time>2019-11-21T21:14:38Z</time>
      </trkpt>
      <trkpt lat="43.2813192" lon="-2.19851767">
        <ele>106.715454</ele>
        <time>2019-11-21T21:14:39Z</time>
      </trkpt>
      <trkpt lat="43.28129567" lon="-2.1981725">
        <ele>106.870605</ele>
        <time>2019-11-21T21:14:40Z</time>
      </trkpt>
      <trkpt lat="43.28127582" lon="-2.19784835">
        <ele>105.23236</ele>
        <time>2019-11-21T21:14:41Z</time>
      </trkpt>
      <trkpt lat="43.28125833" lon="-2.19753164">
        <ele>103.09711</ele>
        <time>2019-11-21T21:14:43Z</time>
      </trkpt>
      <trkpt lat="43.28123588" lon="-2.19722055">
        <ele>102.65918</ele>
        <time>2019-11-21T21:14:44Z</time>
      </trkpt>
      <trkpt lat="43.28118335" lon="-2.19688021">
        <ele>101.75653</ele>
        <time>2019-11-21T21:14:45Z</time>
      </trkpt>
      <trkpt lat="43.28117521" lon="-2.19656389">
        <ele>101.69269</ele>
        <time>2019-11-21T21:14:46Z</time>
      </trkpt>
      <trkpt lat="43.28113774" lon="-2.19623501">
        <ele>99.34393</ele>
        <time>2019-11-21T21:14:47Z</time>
      </trkpt>
      <trkpt lat="43.28110702" lon="-2.1958986">
        <ele>101.56348</ele>
        <time>2019-11-21T21:14:48Z</time>
      </trkpt>
      <trkpt lat="43.28107735" lon="-2.19557006">
        <ele>100.03534</ele>
        <time>2019-11-21T21:14:49Z</time>
      </trkpt>
      <trkpt lat="43.28104715" lon="-2.19522312">
        <ele>98.59241</ele>
        <time>2019-11-21T21:14:50Z</time>
      </trkpt>
      <trkpt lat="43.28103063" lon="-2.19487752">
        <ele>97.57843</ele>
        <time>2019-11-21T21:14:51Z</time>
      </trkpt>
      <trkpt lat="43.2810325" lon="-2.19454458">
        <ele>96.3797</ele>
        <time>2019-11-21T21:14:52Z</time>
      </trkpt>
      <trkpt lat="43.28102672" lon="-2.19419109">
        <ele>95.28284</ele>
        <time>2019-11-21T21:14:53Z</time>
      </trkpt>
      <trkpt lat="43.28102199" lon="-2.19384451">
        <ele>93.293335</ele>
        <time>2019-11-21T21:14:54Z</time>
      </trkpt>
      <trkpt lat="43.2810237" lon="-2.19348504">
        <ele>90.93646</ele>
        <time>2019-11-21T21:14:55Z</time>
      </trkpt>
      <trkpt lat="43.28104515" lon="-2.19312998">
        <ele>92.10156</ele>
        <time>2019-11-21T21:14:56Z</time>
      </trkpt>
      <trkpt lat="43.28108204" lon="-2.19276868">
        <ele>92.474976</ele>
        <time>2019-11-21T21:14:57Z</time>
      </trkpt>
      <trkpt lat="43.28112202" lon="-2.19245339">
        <ele>91.861755</ele>
        <time>2019-11-21T21:14:58Z</time>
      </trkpt>
      <trkpt lat="43.28115129" lon="-2.19210605">
        <ele>91.93219</ele>
        <time>2019-11-21T21:14:59Z</time>
      </trkpt>
      <trkpt lat="43.28118208" lon="-2.19176251">
        <ele>90.37964</ele>
        <time>2019-11-21T21:15:00Z</time>
      </trkpt>
      <trkpt lat="43.28123351" lon="-2.19106054">
        <ele>88.634094</ele>
        <time>2019-11-21T21:15:01Z</time>
      </trkpt>
      <trkpt lat="43.28125928" lon="-2.19070342">
        <ele>87.73932</ele>
        <time>2019-11-21T21:15:02Z</time>
      </trkpt>
      <trkpt lat="43.28127425" lon="-2.19035356">
        <ele>87.47626</ele>
        <time>2019-11-21T21:15:03Z</time>
      </trkpt>
      <trkpt lat="43.28126919" lon="-2.18999379">
        <ele>85.95856</ele>
        <time>2019-11-21T21:15:04Z</time>
      </trkpt>
      <trkpt lat="43.2812571" lon="-2.18963557">
        <ele>85.78467</ele>
        <time>2019-11-21T21:15:05Z</time>
      </trkpt>
      <trkpt lat="43.28124089" lon="-2.18928406">
        <ele>84.010315</ele>
        <time>2019-11-21T21:15:06Z</time>
      </trkpt>
      <trkpt lat="43.28121763" lon="-2.18892036">
        <ele>83.80682</ele>
        <time>2019-11-21T21:15:07Z</time>
      </trkpt>
      <trkpt lat="43.28118591" lon="-2.18856014">
        <ele>82.969666</ele>
        <time>2019-11-21T21:15:08Z</time>
      </trkpt>
      <trkpt lat="43.28116151" lon="-2.18820931">
        <ele>82.86029</ele>
        <time>2019-11-21T21:15:09Z</time>
      </trkpt>
      <trkpt lat="43.28113522" lon="-2.18784953">
        <ele>81.72534</ele>
        <time>2019-11-21T21:15:10Z</time>
      </trkpt>
      <trkpt lat="43.28111608" lon="-2.18749436">
        <ele>80.54669</ele>
        <time>2019-11-21T21:15:11Z</time>
      </trkpt>
      <trkpt lat="43.28112447" lon="-2.18713798">
        <ele>80.411865</ele>
        <time>2019-11-21T21:15:13Z</time>
      </trkpt>
      <trkpt lat="43.28115973" lon="-2.18678971">
        <ele>81.034485</ele>
        <time>2019-11-21T21:15:14Z</time>
      </trkpt>
      <trkpt lat="43.28119397" lon="-2.18644263">
        <ele>80.579285</ele>
        <time>2019-11-21T21:15:15Z</time>
      </trkpt>
      <trkpt lat="43.28125616" lon="-2.18610414">
        <ele>81.018616</ele>
        <time>2019-11-21T21:15:16Z</time>
      </trkpt>
      <trkpt lat="43.28132429" lon="-2.18577481">
        <ele>80.64813</ele>
        <time>2019-11-21T21:15:17Z</time>
      </trkpt>
      <trkpt lat="43.28140118" lon="-2.18544011">
        <ele>80.377075</ele>
        <time>2019-11-21T21:15:18Z</time>
      </trkpt>
      <trkpt lat="43.28148601" lon="-2.18513821">
        <ele>80.337036</ele>
        <time>2019-11-21T21:15:19Z</time>
      </trkpt>
      <trkpt lat="43.28159512" lon="-2.18480715">
        <ele>80.22339</ele>
        <time>2019-11-21T21:15:20Z</time>
      </trkpt>
      <trkpt lat="43.2816966" lon="-2.18449044">
        <ele>81.65588</ele>
        <time>2019-11-21T21:15:21Z</time>
      </trkpt>
      <trkpt lat="43.28179153" lon="-2.18419131">
        <ele>80.48584</ele>
        <time>2019-11-21T21:15:22Z</time>
      </trkpt>
      <trkpt lat="43.28187444" lon="-2.18386834">
        <ele>79.98218</ele>
        <time>2019-11-21T21:15:23Z</time>
      </trkpt>
      <trkpt lat="43.28193992" lon="-2.18354064">
        <ele>78.61401</ele>
        <time>2019-11-21T21:15:24Z</time>
      </trkpt>
      <trkpt lat="43.28200638" lon="-2.18319703">
        <ele>78.94702</ele>
        <time>2019-11-21T21:15:25Z</time>
      </trkpt>
      <trkpt lat="43.28206636" lon="-2.18287361">
        <ele>78.65198</ele>
        <time>2019-11-21T21:15:26Z</time>
      </trkpt>
      <trkpt lat="43.2821021" lon="-2.18253517">
        <ele>77.710144</ele>
        <time>2019-11-21T21:15:27Z</time>
      </trkpt>
      <trkpt lat="43.28212503" lon="-2.18218697">
        <ele>76.27362</ele>
        <time>2019-11-21T21:15:28Z</time>
      </trkpt>
      <trkpt lat="43.28213578" lon="-2.18184668">
        <ele>75.332825</ele>
        <time>2019-11-21T21:15:29Z</time>
      </trkpt>
      <trkpt lat="43.28212872" lon="-2.18149029">
        <ele>74.50989</ele>
        <time>2019-11-21T21:15:30Z</time>
      </trkpt>
      <trkpt lat="43.28211309" lon="-2.18113325">
        <ele>74.05237</ele>
        <time>2019-11-21T21:15:31Z</time>
      </trkpt>
      <trkpt lat="43.28206544" lon="-2.18077169">
        <ele>73.51318</ele>
        <time>2019-11-21T21:15:32Z</time>
      </trkpt>
      <trkpt lat="43.28192687" lon="-2.18007426">
        <ele>73.15485</ele>
        <time>2019-11-21T21:15:33Z</time>
      </trkpt>
      <trkpt lat="43.28183623" lon="-2.17972424">
        <ele>72.09265</ele>
        <time>2019-11-21T21:15:34Z</time>
      </trkpt>
      <trkpt lat="43.28172475" lon="-2.17939113">
        <ele>71.43872</ele>
        <time>2019-11-21T21:15:35Z</time>
      </trkpt>
      <trkpt lat="43.28159721" lon="-2.17906959">
        <ele>71.385925</ele>
        <time>2019-11-21T21:15:36Z</time>
      </trkpt>
      <trkpt lat="43.28145841" lon="-2.17877559">
        <ele>71.22772</ele>
        <time>2019-11-21T21:15:37Z</time>
      </trkpt>
      <trkpt lat="43.28130566" lon="-2.17848815">
        <ele>70.65973</ele>
        <time>2019-11-21T21:15:38Z</time>
      </trkpt>
      <trkpt lat="43.2811389" lon="-2.17821896">
        <ele>70.9491</ele>
        <time>2019-11-21T21:15:39Z</time>
      </trkpt>
      <trkpt lat="43.28095942" lon="-2.1779572">
        <ele>71.15686</ele>
        <time>2019-11-21T21:15:40Z</time>
      </trkpt>
      <trkpt lat="43.28077323" lon="-2.17770502">
        <ele>71.90979</ele>
        <time>2019-11-21T21:15:41Z</time>
      </trkpt>
      <trkpt lat="43.28059229" lon="-2.17746043">
        <ele>71.85101</ele>
        <time>2019-11-21T21:15:42Z</time>
      </trkpt>
      <trkpt lat="43.28042022" lon="-2.17721597">
        <ele>72.550415</ele>
        <time>2019-11-21T21:15:43Z</time>
      </trkpt>
      <trkpt lat="43.28024485" lon="-2.17697286">
        <ele>72.61713</ele>
        <time>2019-11-21T21:15:44Z</time>
      </trkpt>
      <trkpt lat="43.28008386" lon="-2.17672414">
        <ele>72.3421</ele>
        <time>2019-11-21T21:15:46Z</time>
      </trkpt>
      <trkpt lat="43.27993033" lon="-2.17647327">
        <ele>71.96472</ele>
        <time>2019-11-21T21:15:47Z</time>
      </trkpt>
      <trkpt lat="43.27978378" lon="-2.17621582">
        <ele>71.99866</ele>
        <time>2019-11-21T21:15:48Z</time>
      </trkpt>
      <trkpt lat="43.27964536" lon="-2.17595538">
        <ele>72.21051</ele>
        <time>2019-11-21T21:15:49Z</time>
      </trkpt>
      <trkpt lat="43.2795093" lon="-2.17568603">
        <ele>71.69153</ele>
        <time>2019-11-21T21:15:50Z</time>
      </trkpt>
      <trkpt lat="43.27936506" lon="-2.17540796">
        <ele>70.62457</ele>
        <time>2019-11-21T21:15:51Z</time>
      </trkpt>
      <trkpt lat="43.27923888" lon="-2.17511488">
        <ele>70.832886</ele>
        <time>2019-11-21T21:15:52Z</time>
      </trkpt>
      <trkpt lat="43.27912647" lon="-2.1748219">
        <ele>69.863525</ele>
        <time>2019-11-21T21:15:53Z</time>
      </trkpt>
      <trkpt lat="43.27902072" lon="-2.17451878">
        <ele>68.680176</ele>
        <time>2019-11-21T21:15:54Z</time>
      </trkpt>
      <trkpt lat="43.27891513" lon="-2.17420488">
        <ele>67.33563</ele>
        <time>2019-11-21T21:15:55Z</time>
      </trkpt>
      <trkpt lat="43.2788202" lon="-2.17388383">
        <ele>65.92523</ele>
        <time>2019-11-21T21:15:56Z</time>
      </trkpt>
      <trkpt lat="43.27872489" lon="-2.17354581">
        <ele>65.09027</ele>
        <time>2019-11-21T21:15:57Z</time>
      </trkpt>
      <trkpt lat="43.2786349" lon="-2.1732024">
        <ele>64.29944</ele>
        <time>2019-11-21T21:15:58Z</time>
      </trkpt>
      <trkpt lat="43.27855564" lon="-2.17284618">
        <ele>63.318665</ele>
        <time>2019-11-21T21:15:59Z</time>
      </trkpt>
      <trkpt lat="43.2784826" lon="-2.17249186">
        <ele>63.003418</ele>
        <time>2019-11-21T21:16:00Z</time>
      </trkpt>
      <trkpt lat="43.27842131" lon="-2.17212479">
        <ele>62.690735</ele>
        <time>2019-11-21T21:16:01Z</time>
      </trkpt>
      <trkpt lat="43.27837054" lon="-2.17174849">
        <ele>60.75995</ele>
        <time>2019-11-21T21:16:02Z</time>
      </trkpt>
      <trkpt lat="43.27830291" lon="-2.17098479">
        <ele>58.770813</ele>
        <time>2019-11-21T21:16:03Z</time>
      </trkpt>
      <trkpt lat="43.27829481" lon="-2.17060335">
        <ele>57.496826</ele>
        <time>2019-11-21T21:16:04Z</time>
      </trkpt>
      <trkpt lat="43.27829735" lon="-2.17022725">
        <ele>57.02466</ele>
        <time>2019-11-21T21:16:05Z</time>
      </trkpt>
      <trkpt lat="43.27829643" lon="-2.16984569">
        <ele>56.265747</ele>
        <time>2019-11-21T21:16:06Z</time>
      </trkpt>
      <trkpt lat="43.27831309" lon="-2.1694744">
        <ele>56.86389</ele>
        <time>2019-11-21T21:16:07Z</time>
      </trkpt>
      <trkpt lat="43.278339" lon="-2.16911266">
        <ele>56.774353</ele>
        <time>2019-11-21T21:16:08Z</time>
      </trkpt>
      <trkpt lat="43.27836785" lon="-2.16874718">
        <ele>56.11206</ele>
        <time>2019-11-21T21:16:09Z</time>
      </trkpt>
      <trkpt lat="43.27841576" lon="-2.16839389">
        <ele>56.443542</ele>
        <time>2019-11-21T21:16:10Z</time>
      </trkpt>
      <trkpt lat="43.27847293" lon="-2.16804028">
        <ele>56.92871</ele>
        <time>2019-11-21T21:16:11Z</time>
      </trkpt>
      <trkpt lat="43.27853032" lon="-2.16769141">
        <ele>57.13562</ele>
        <time>2019-11-21T21:16:12Z</time>
      </trkpt>
      <trkpt lat="43.27859732" lon="-2.16734524">
        <ele>58.049866</ele>
        <time>2019-11-21T21:16:13Z</time>
      </trkpt>
      <trkpt lat="43.27867417" lon="-2.16700696">
        <ele>60.686584</ele>
        <time>2019-11-21T21:16:15Z</time>
      </trkpt>
      <trkpt lat="43.27875114" lon="-2.16666974">
        <ele>59.278625</ele>
        <time>2019-11-21T21:16:16Z</time>
      </trkpt>
      <trkpt lat="43.27883994" lon="-2.16633544">
        <ele>59.748352</ele>
        <time>2019-11-21T21:16:17Z</time>
      </trkpt>
      <trkpt lat="43.27893437" lon="-2.1660162">
        <ele>59.22876</ele>
        <time>2019-11-21T21:16:18Z</time>
      </trkpt>
      <trkpt lat="43.27903074" lon="-2.16569609">
        <ele>58.748474</ele>
        <time>2019-11-21T21:16:19Z</time>
      </trkpt>
      <trkpt lat="43.2791354" lon="-2.16539233">
        <ele>57.666504</ele>
        <time>2019-11-21T21:16:20Z</time>
      </trkpt>
      <trkpt lat="43.27923528" lon="-2.16510102">
        <ele>58.081116</ele>
        <time>2019-11-21T21:16:21Z</time>
      </trkpt>
      <trkpt lat="43.27932101" lon="-2.16481048">
        <ele>58.513428</ele>
        <time>2019-11-21T21:16:22Z</time>
      </trkpt>
      <trkpt lat="43.27940392" lon="-2.1645014">
        <ele>58.645508</ele>
        <time>2019-11-21T21:16:23Z</time>
      </trkpt>
      <trkpt lat="43.27947812" lon="-2.16419236">
        <ele>58.9032</ele>
        <time>2019-11-21T21:16:24Z</time>
      </trkpt>
      <trkpt lat="43.2795505" lon="-2.16389293">
        <ele>59.79077</ele>
        <time>2019-11-21T21:16:25Z</time>
      </trkpt>
      <trkpt lat="43.27960772" lon="-2.16360355">
        <ele>59.675354</ele>
        <time>2019-11-21T21:16:26Z</time>
      </trkpt>
      <trkpt lat="43.27964767" lon="-2.16333268">
        <ele>59.50293</ele>
        <time>2019-11-21T21:16:27Z</time>
      </trkpt>
      <trkpt lat="43.27970455" lon="-2.16305585">
        <ele>58.42871</ele>
        <time>2019-11-21T21:16:28Z</time>
      </trkpt>
      <trkpt lat="43.27972531" lon="-2.16275954">
        <ele>57.97229</ele>
        <time>2019-11-21T21:16:29Z</time>
      </trkpt>
      <trkpt lat="43.27975641" lon="-2.16249206">
        <ele>59.187805</ele>
        <time>2019-11-21T21:16:30Z</time>
      </trkpt>
      <trkpt lat="43.27976167" lon="-2.16218909">
        <ele>58.558228</ele>
        <time>2019-11-21T21:16:31Z</time>
      </trkpt>
      <trkpt lat="43.27976846" lon="-2.16193094">
        <ele>59.250977</ele>
        <time>2019-11-21T21:16:32Z</time>
      </trkpt>
      <trkpt lat="43.27976801" lon="-2.16143362">
        <ele>60.2677</ele>
        <time>2019-11-21T21:16:33Z</time>
      </trkpt>
      <trkpt lat="43.27976156" lon="-2.16120954">
        <ele>60.59308</ele>
        <time>2019-11-21T21:16:34Z</time>
      </trkpt>
      <trkpt lat="43.27973841" lon="-2.16097787">
        <ele>60.2453</ele>
        <time>2019-11-21T21:16:35Z</time>
      </trkpt>
      <trkpt lat="43.27971196" lon="-2.1607651">
        <ele>60.876953</ele>
        <time>2019-11-21T21:16:36Z</time>
      </trkpt>
      <trkpt lat="43.27969018" lon="-2.1605488">
        <ele>61.38916</ele>
        <time>2019-11-21T21:16:37Z</time>
      </trkpt>
      <trkpt lat="43.27967552" lon="-2.16034588">
        <ele>61.35309</ele>
        <time>2019-11-21T21:16:38Z</time>
      </trkpt>
      <trkpt lat="43.27965698" lon="-2.16015722">
        <ele>61.09503</ele>
        <time>2019-11-21T21:16:39Z</time>
      </trkpt>
      <trkpt lat="43.27961859" lon="-2.159835">
        <ele>61.717712</ele>
        <time>2019-11-21T21:16:41Z</time>
      </trkpt>
      <trkpt lat="43.27958467" lon="-2.15957116">
        <ele>61.737305</ele>
        <time>2019-11-21T21:16:43Z</time>
      </trkpt>
      <trkpt lat="43.27954913" lon="-2.15934284">
        <ele>62.735535</ele>
        <time>2019-11-21T21:16:46Z</time>
      </trkpt>
      <trkpt lat="43.27951255" lon="-2.15914914">
        <ele>63.03357</ele>
        <time>2019-11-21T21:16:51Z</time>
      </trkpt>
      <trkpt lat="43.27954204" lon="-2.15890416">
        <ele>64.3504</ele>
        <time>2019-11-21T21:17:47Z</time>
      </trkpt>
      <trkpt lat="43.27949113" lon="-2.15860781">
        <ele>62.332153</ele>
        <time>2019-11-21T21:17:50Z</time>
      </trkpt>
      <trkpt lat="43.27945985" lon="-2.15823823">
        <ele>64.19446</ele>
        <time>2019-11-21T21:17:52Z</time>
      </trkpt>
      <trkpt lat="43.27944287" lon="-2.15803845">
        <ele>63.718384</ele>
        <time>2019-11-21T21:17:53Z</time>
      </trkpt>
      <trkpt lat="43.27942391" lon="-2.15784034">
        <ele>64.562744</ele>
        <time>2019-11-21T21:17:54Z</time>
      </trkpt>
      <trkpt lat="43.27939758" lon="-2.15762477">
        <ele>64.48291</ele>
        <time>2019-11-21T21:17:55Z</time>
      </trkpt>
      <trkpt lat="43.2793638" lon="-2.15739133">
        <ele>65.013</ele>
        <time>2019-11-21T21:17:56Z</time>
      </trkpt>
      <trkpt lat="43.279316" lon="-2.15711827">
        <ele>63.314087</ele>
        <time>2019-11-21T21:17:57Z</time>
      </trkpt>
      <trkpt lat="43.27927627" lon="-2.15684551">
        <ele>63.4317</ele>
        <time>2019-11-21T21:17:58Z</time>
      </trkpt>
      <trkpt lat="43.27924256" lon="-2.15657117">
        <ele>63.535583</ele>
        <time>2019-11-21T21:17:59Z</time>
      </trkpt>
      <trkpt lat="43.27920423" lon="-2.15629705">
        <ele>62.527832</ele>
        <time>2019-11-21T21:18:00Z</time>
      </trkpt>
      <trkpt lat="43.2791299" lon="-2.1557242">
        <ele>61.47876</ele>
        <time>2019-11-21T21:18:01Z</time>
      </trkpt>
      <trkpt lat="43.27910145" lon="-2.15544071">
        <ele>60.985657</ele>
        <time>2019-11-21T21:18:02Z</time>
      </trkpt>
      <trkpt lat="43.27906834" lon="-2.15513068">
        <ele>60.015076</ele>
        <time>2019-11-21T21:18:03Z</time>
      </trkpt>
      <trkpt lat="43.2790465" lon="-2.15481659">
        <ele>60.18457</ele>
        <time>2019-11-21T21:18:04Z</time>
      </trkpt>
      <trkpt lat="43.2790271" lon="-2.15449295">
        <ele>60.638916</ele>
        <time>2019-11-21T21:18:05Z</time>
      </trkpt>
      <trkpt lat="43.27901426" lon="-2.15416868">
        <ele>59.80475</ele>
        <time>2019-11-21T21:18:06Z</time>
      </trkpt>
      <trkpt lat="43.27899043" lon="-2.15382986">
        <ele>60.10907</ele>
        <time>2019-11-21T21:18:07Z</time>
      </trkpt>
      <trkpt lat="43.27898281" lon="-2.15350231">
        <ele>60.479614</ele>
        <time>2019-11-21T21:18:08Z</time>
      </trkpt>
      <trkpt lat="43.27898086" lon="-2.15318636">
        <ele>61.117004</ele>
        <time>2019-11-21T21:18:09Z</time>
      </trkpt>
      <trkpt lat="43.27898742" lon="-2.15285727">
        <ele>61.343872</ele>
        <time>2019-11-21T21:18:10Z</time>
      </trkpt>
      <trkpt lat="43.27898255" lon="-2.15250329">
        <ele>62.2865</ele>
        <time>2019-11-21T21:18:12Z</time>
      </trkpt>
      <trkpt lat="43.27897393" lon="-2.15213915">
        <ele>62.54254</ele>
        <time>2019-11-21T21:18:13Z</time>
      </trkpt>
      <trkpt lat="43.27897948" lon="-2.15178883">
        <ele>61.523743</ele>
        <time>2019-11-21T21:18:14Z</time>
      </trkpt>
      <trkpt lat="43.27899428" lon="-2.151442">
        <ele>62.06378</ele>
        <time>2019-11-21T21:18:15Z</time>
      </trkpt>
      <trkpt lat="43.2790144" lon="-2.15109538">
        <ele>62.989807</ele>
        <time>2019-11-21T21:18:16Z</time>
      </trkpt>
      <trkpt lat="43.27903715" lon="-2.15073812">
        <ele>63.286926</ele>
        <time>2019-11-21T21:18:17Z</time>
      </trkpt>
      <trkpt lat="43.27906924" lon="-2.15038882">
        <ele>63.21869</ele>
        <time>2019-11-21T21:18:18Z</time>
      </trkpt>
      <trkpt lat="43.27911717" lon="-2.15004072">
        <ele>63.838562</ele>
        <time>2019-11-21T21:18:19Z</time>
      </trkpt>
      <trkpt lat="43.27916534" lon="-2.14969401">
        <ele>63.773315</ele>
        <time>2019-11-21T21:18:20Z</time>
      </trkpt>
      <trkpt lat="43.27924704" lon="-2.14935429">
        <ele>64.58093</ele>
        <time>2019-11-21T21:18:21Z</time>
      </trkpt>
      <trkpt lat="43.27932439" lon="-2.14901254">
        <ele>64.53223</ele>
        <time>2019-11-21T21:18:22Z</time>
      </trkpt>
      <trkpt lat="43.27942072" lon="-2.14867423">
        <ele>64.70941</ele>
        <time>2019-11-21T21:18:23Z</time>
      </trkpt>
      <trkpt lat="43.27952628" lon="-2.14835383">
        <ele>64.79285</ele>
        <time>2019-11-21T21:18:24Z</time>
      </trkpt>
      <trkpt lat="43.2796467" lon="-2.14804375">
        <ele>63.85608</ele>
        <time>2019-11-21T21:18:25Z</time>
      </trkpt>
      <trkpt lat="43.27979076" lon="-2.14774414">
        <ele>64.905396</ele>
        <time>2019-11-21T21:18:26Z</time>
      </trkpt>
      <trkpt lat="43.27995082" lon="-2.14744049">
        <ele>66.81006</ele>
        <time>2019-11-21T21:18:27Z</time>
      </trkpt>
      <trkpt lat="43.28011483" lon="-2.14715063">
        <ele>67.31787</ele>
        <time>2019-11-21T21:18:28Z</time>
      </trkpt>
      <trkpt lat="43.28028998" lon="-2.14687576">
        <ele>67.41754</ele>
        <time>2019-11-21T21:18:29Z</time>
      </trkpt>
      <trkpt lat="43.28070789" lon="-2.1463603">
        <ele>69.22345</ele>
        <time>2019-11-21T21:18:30Z</time>
      </trkpt>
      <trkpt lat="43.28093114" lon="-2.14613075">
        <ele>69.25354</ele>
        <time>2019-11-21T21:18:31Z</time>
      </trkpt>
      <trkpt lat="43.28115838" lon="-2.14590101">
        <ele>70.06195</ele>
        <time>2019-11-21T21:18:32Z</time>
      </trkpt>
      <trkpt lat="43.28138735" lon="-2.14568548">
        <ele>69.50305</ele>
        <time>2019-11-21T21:18:33Z</time>
      </trkpt>
      <trkpt lat="43.28160849" lon="-2.14546646">
        <ele>70.16345</ele>
        <time>2019-11-21T21:18:34Z</time>
      </trkpt>
      <trkpt lat="43.28182879" lon="-2.14522751">
        <ele>72.01672</ele>
        <time>2019-11-21T21:18:35Z</time>
      </trkpt>
      <trkpt lat="43.28205583" lon="-2.14496517">
        <ele>71.542114</ele>
        <time>2019-11-21T21:18:36Z</time>
      </trkpt>
      <trkpt lat="43.28226783" lon="-2.14471457">
        <ele>72.032104</ele>
        <time>2019-11-21T21:18:37Z</time>
      </trkpt>
      <trkpt lat="43.28245355" lon="-2.14444274">
        <ele>72.385864</ele>
        <time>2019-11-21T21:18:38Z</time>
      </trkpt>
      <trkpt lat="43.28262472" lon="-2.14414473">
        <ele>74.16199</ele>
        <time>2019-11-21T21:18:39Z</time>
      </trkpt>
      <trkpt lat="43.2827715" lon="-2.14384888">
        <ele>76.57416</ele>
        <time>2019-11-21T21:18:41Z</time>
      </trkpt>
      <trkpt lat="43.28290735" lon="-2.14352446">
        <ele>77.40466</ele>
        <time>2019-11-21T21:18:42Z</time>
      </trkpt>
      <trkpt lat="43.28303108" lon="-2.14318535">
        <ele>77.07147</ele>
        <time>2019-11-21T21:18:43Z</time>
      </trkpt>
      <trkpt lat="43.28313112" lon="-2.14281678">
        <ele>78.21655</ele>
        <time>2019-11-21T21:18:44Z</time>
      </trkpt>
      <trkpt lat="43.28322427" lon="-2.142458">
        <ele>74.429565</ele>
        <time>2019-11-21T21:18:45Z</time>
      </trkpt>
      <trkpt lat="43.28329972" lon="-2.14207469">
        <ele>76.77576</ele>
        <time>2019-11-21T21:18:46Z</time>
      </trkpt>
      <trkpt lat="43.28335165" lon="-2.141683">
        <ele>78.4884</ele>
        <time>2019-11-21T21:18:47Z</time>
      </trkpt>
      <trkpt lat="43.28338269" lon="-2.14129471">
        <ele>79.12738</ele>
        <time>2019-11-21T21:18:48Z</time>
      </trkpt>
      <trkpt lat="43.28340622" lon="-2.14090894">
        <ele>80.83429</ele>
        <time>2019-11-21T21:18:49Z</time>
      </trkpt>
      <trkpt lat="43.28339606" lon="-2.14051767">
        <ele>81.2171</ele>
        <time>2019-11-21T21:18:50Z</time>
      </trkpt>
      <trkpt lat="43.28336302" lon="-2.14012319">
        <ele>81.72894</ele>
        <time>2019-11-21T21:18:51Z</time>
      </trkpt>
      <trkpt lat="43.28332334" lon="-2.13973292">
        <ele>80.860535</ele>
        <time>2019-11-21T21:18:52Z</time>
      </trkpt>
      <trkpt lat="43.28327014" lon="-2.13935226">
        <ele>80.634705</ele>
        <time>2019-11-21T21:18:53Z</time>
      </trkpt>
      <trkpt lat="43.28321351" lon="-2.13897532">
        <ele>80.391846</ele>
        <time>2019-11-21T21:18:54Z</time>
      </trkpt>
      <trkpt lat="43.28315553" lon="-2.13858779">
        <ele>78.509094</ele>
        <time>2019-11-21T21:18:55Z</time>
      </trkpt>
      <trkpt lat="43.28311639" lon="-2.13820206">
        <ele>78.57489</ele>
        <time>2019-11-21T21:18:56Z</time>
      </trkpt>
      <trkpt lat="43.28309563" lon="-2.13780917">
        <ele>79.035034</ele>
        <time>2019-11-21T21:18:57Z</time>
      </trkpt>
      <trkpt lat="43.28308704" lon="-2.13741683">
        <ele>79.06421</ele>
        <time>2019-11-21T21:18:58Z</time>
      </trkpt>
      <trkpt lat="43.28310681" lon="-2.13663295">
        <ele>77.76538</ele>
        <time>2019-11-21T21:18:59Z</time>
      </trkpt>
      <trkpt lat="43.28311517" lon="-2.13623995">
        <ele>77.13739</ele>
        <time>2019-11-21T21:19:00Z</time>
      </trkpt>
      <trkpt lat="43.28312905" lon="-2.13584378">
        <ele>75.973145</ele>
        <time>2019-11-21T21:19:01Z</time>
      </trkpt>
      <trkpt lat="43.28314439" lon="-2.13544919">
        <ele>75.28064</ele>
        <time>2019-11-21T21:19:02Z</time>
      </trkpt>
      <trkpt lat="43.28314005" lon="-2.13505715">
        <ele>74.46442</ele>
        <time>2019-11-21T21:19:03Z</time>
      </trkpt>
      <trkpt lat="43.28312737" lon="-2.13468554">
        <ele>73.74701</ele>
        <time>2019-11-21T21:19:04Z</time>
      </trkpt>
      <trkpt lat="43.28310936" lon="-2.13428667">
        <ele>73.25433</ele>
        <time>2019-11-21T21:19:05Z</time>
      </trkpt>
      <trkpt lat="43.28308432" lon="-2.13390271">
        <ele>73.06763</ele>
        <time>2019-11-21T21:19:06Z</time>
      </trkpt>
      <trkpt lat="43.28304937" lon="-2.13351921">
        <ele>72.725586</ele>
        <time>2019-11-21T21:19:07Z</time>
      </trkpt>
      <trkpt lat="43.2830158" lon="-2.13314065">
        <ele>72.78284</ele>
        <time>2019-11-21T21:19:08Z</time>
      </trkpt>
      <trkpt lat="43.28297902" lon="-2.13275774">
        <ele>72.31317</ele>
        <time>2019-11-21T21:19:09Z</time>
      </trkpt>
      <trkpt lat="43.28293492" lon="-2.13236863">
        <ele>71.5459</ele>
        <time>2019-11-21T21:19:10Z</time>
      </trkpt>
      <trkpt lat="43.28289906" lon="-2.13198606">
        <ele>70.65863</ele>
        <time>2019-11-21T21:19:12Z</time>
      </trkpt>
      <trkpt lat="43.28285738" lon="-2.131601">
        <ele>69.933105</ele>
        <time>2019-11-21T21:19:13Z</time>
      </trkpt>
      <trkpt lat="43.2828024" lon="-2.13122241">
        <ele>68.6629</ele>
        <time>2019-11-21T21:19:14Z</time>
      </trkpt>
      <trkpt lat="43.28274249" lon="-2.13082631">
        <ele>67.912476</ele>
        <time>2019-11-21T21:19:15Z</time>
      </trkpt>
      <trkpt lat="43.28269806" lon="-2.13043851">
        <ele>67.46332</ele>
        <time>2019-11-21T21:19:16Z</time>
      </trkpt>
      <trkpt lat="43.28264714" lon="-2.13004573">
        <ele>66.52142</ele>
        <time>2019-11-21T21:19:17Z</time>
      </trkpt>
      <trkpt lat="43.28261446" lon="-2.12966439">
        <ele>65.134155</ele>
        <time>2019-11-21T21:19:18Z</time>
      </trkpt>
      <trkpt lat="43.28258895" lon="-2.12928394">
        <ele>64.24646</ele>
        <time>2019-11-21T21:19:19Z</time>
      </trkpt>
      <trkpt lat="43.2825497" lon="-2.12889957">
        <ele>63.996643</ele>
        <time>2019-11-21T21:19:20Z</time>
      </trkpt>
      <trkpt lat="43.28251884" lon="-2.12851954">
        <ele>63.923706</ele>
        <time>2019-11-21T21:19:21Z</time>
      </trkpt>
      <trkpt lat="43.28247937" lon="-2.12813822">
        <ele>63.793213</ele>
        <time>2019-11-21T21:19:22Z</time>
      </trkpt>
      <trkpt lat="43.28244648" lon="-2.1277526">
        <ele>64.421814</ele>
        <time>2019-11-21T21:19:23Z</time>
      </trkpt>
      <trkpt lat="43.28240411" lon="-2.12737384">
        <ele>64.08612</ele>
        <time>2019-11-21T21:19:24Z</time>
      </trkpt>
      <trkpt lat="43.28236193" lon="-2.12699009">
        <ele>64.29584</ele>
        <time>2019-11-21T21:19:25Z</time>
      </trkpt>
      <trkpt lat="43.28232183" lon="-2.12660921">
        <ele>64.50867</ele>
        <time>2019-11-21T21:19:26Z</time>
      </trkpt>
      <trkpt lat="43.28227583" lon="-2.12622962">
        <ele>65.49713</ele>
        <time>2019-11-21T21:19:27Z</time>
      </trkpt>
      <trkpt lat="43.28223338" lon="-2.12583953">
        <ele>67.28552</ele>
        <time>2019-11-21T21:19:28Z</time>
      </trkpt>
      <trkpt lat="43.28219755" lon="-2.12546777">
        <ele>67.51233</ele>
        <time>2019-11-21T21:19:29Z</time>
      </trkpt>
      <trkpt lat="43.28215839" lon="-2.12510418">
        <ele>67.84772</ele>
        <time>2019-11-21T21:19:30Z</time>
      </trkpt>
      <trkpt lat="43.28211345" lon="-2.12434474">
        <ele>70.34711</ele>
        <time>2019-11-21T21:19:31Z</time>
      </trkpt>
      <trkpt lat="43.28209949" lon="-2.12396157">
        <ele>71.752075</ele>
        <time>2019-11-21T21:19:32Z</time>
      </trkpt>
      <trkpt lat="43.28210267" lon="-2.12357409">
        <ele>72.248474</ele>
        <time>2019-11-21T21:19:33Z</time>
      </trkpt>
      <trkpt lat="43.282118" lon="-2.12319823">
        <ele>71.96814</ele>
        <time>2019-11-21T21:19:34Z</time>
      </trkpt>
      <trkpt lat="43.28213849" lon="-2.12282148">
        <ele>71.40735</ele>
        <time>2019-11-21T21:19:35Z</time>
      </trkpt>
      <trkpt lat="43.28217473" lon="-2.12245192">
        <ele>71.95282</ele>
        <time>2019-11-21T21:19:36Z</time>
      </trkpt>
      <trkpt lat="43.28219208" lon="-2.12205295">
        <ele>73.79065</ele>
        <time>2019-11-21T21:19:37Z</time>
      </trkpt>
      <trkpt lat="43.28221829" lon="-2.12165971">
        <ele>75.53552</ele>
        <time>2019-11-21T21:19:38Z</time>
      </trkpt>
      <trkpt lat="43.28225661" lon="-2.1212865">
        <ele>76.68317</ele>
        <time>2019-11-21T21:19:39Z</time>
      </trkpt>
      <trkpt lat="43.28228024" lon="-2.12089297">
        <ele>77.297424</ele>
        <time>2019-11-21T21:19:40Z</time>
      </trkpt>
      <trkpt lat="43.28228212" lon="-2.12050105">
        <ele>77.98694</ele>
        <time>2019-11-21T21:19:41Z</time>
      </trkpt>
      <trkpt lat="43.28228849" lon="-2.12011637">
        <ele>79.63843</ele>
        <time>2019-11-21T21:19:43Z</time>
      </trkpt>
      <trkpt lat="43.28226854" lon="-2.11973854">
        <ele>80.593994</ele>
        <time>2019-11-21T21:19:44Z</time>
      </trkpt>
      <trkpt lat="43.28223976" lon="-2.11936019">
        <ele>83.08551</ele>
        <time>2019-11-21T21:19:45Z</time>
      </trkpt>
      <trkpt lat="43.28218483" lon="-2.11898537">
        <ele>83.47577</ele>
        <time>2019-11-21T21:19:46Z</time>
      </trkpt>
      <trkpt lat="43.28210543" lon="-2.11861386">
        <ele>84.085144</ele>
        <time>2019-11-21T21:19:47Z</time>
      </trkpt>
      <trkpt lat="43.28201403" lon="-2.11825899">
        <ele>84.57922</ele>
        <time>2019-11-21T21:19:48Z</time>
      </trkpt>
      <trkpt lat="43.28190339" lon="-2.11789892">
        <ele>85.0202</ele>
        <time>2019-11-21T21:19:49Z</time>
      </trkpt>
      <trkpt lat="43.28178582" lon="-2.11755177">
        <ele>85.645996</ele>
        <time>2019-11-21T21:19:50Z</time>
      </trkpt>
      <trkpt lat="43.28166533" lon="-2.11720427">
        <ele>85.6781</ele>
        <time>2019-11-21T21:19:51Z</time>
      </trkpt>
      <trkpt lat="43.28154672" lon="-2.11685905">
        <ele>86.395996</ele>
        <time>2019-11-21T21:19:52Z</time>
      </trkpt>
      <trkpt lat="43.28143942" lon="-2.11649817">
        <ele>88.85443</ele>
        <time>2019-11-21T21:19:53Z</time>
      </trkpt>
      <trkpt lat="43.28136049" lon="-2.11613137">
        <ele>90.59094</ele>
        <time>2019-11-21T21:19:54Z</time>
      </trkpt>
      <trkpt lat="43.28127721" lon="-2.11576201">
        <ele>92.146545</ele>
        <time>2019-11-21T21:19:55Z</time>
      </trkpt>
      <trkpt lat="43.28121474" lon="-2.11538423">
        <ele>93.54382</ele>
        <time>2019-11-21T21:19:56Z</time>
      </trkpt>
      <trkpt lat="43.28116184" lon="-2.11500138">
        <ele>94.64624</ele>
        <time>2019-11-21T21:19:57Z</time>
      </trkpt>
      <trkpt lat="43.28111685" lon="-2.11424053">
        <ele>86.203125</ele>
        <time>2019-11-21T21:19:58Z</time>
      </trkpt>
      <trkpt lat="43.28110445" lon="-2.11386107">
        <ele>88.98218</ele>
        <time>2019-11-21T21:19:59Z</time>
      </trkpt>
      <trkpt lat="43.28110789" lon="-2.11349185">
        <ele>90.77002</ele>
        <time>2019-11-21T21:20:00Z</time>
      </trkpt>
      <trkpt lat="43.28111849" lon="-2.11307705">
        <ele>93.54523</ele>
        <time>2019-11-21T21:20:01Z</time>
      </trkpt>
      <trkpt lat="43.28114318" lon="-2.11268628">
        <ele>97.26868</ele>
        <time>2019-11-21T21:20:02Z</time>
      </trkpt>
      <trkpt lat="43.28118036" lon="-2.11231178">
        <ele>98.15631</ele>
        <time>2019-11-21T21:20:03Z</time>
      </trkpt>
      <trkpt lat="43.28121837" lon="-2.11191898">
        <ele>99.036865</ele>
        <time>2019-11-21T21:20:04Z</time>
      </trkpt>
      <trkpt lat="43.2812722" lon="-2.11154407">
        <ele>101.135925</ele>
        <time>2019-11-21T21:20:05Z</time>
      </trkpt>
      <trkpt lat="43.28130592" lon="-2.11115311">
        <ele>102.5744</ele>
        <time>2019-11-21T21:20:06Z</time>
      </trkpt>
      <trkpt lat="43.28135413" lon="-2.11076086">
        <ele>103.5766</ele>
        <time>2019-11-21T21:20:07Z</time>
      </trkpt>
      <trkpt lat="43.28141639" lon="-2.11038084">
        <ele>103.4043</ele>
        <time>2019-11-21T21:20:08Z</time>
      </trkpt>
      <trkpt lat="43.28148356" lon="-2.11001132">
        <ele>103.54498</ele>
        <time>2019-11-21T21:20:09Z</time>
      </trkpt>
      <trkpt lat="43.28156189" lon="-2.10963734">
        <ele>105.15485</ele>
        <time>2019-11-21T21:20:11Z</time>
      </trkpt>
      <trkpt lat="43.28163987" lon="-2.10926978">
        <ele>106.46301</ele>
        <time>2019-11-21T21:20:12Z</time>
      </trkpt>
      <trkpt lat="43.28171823" lon="-2.10890195">
        <ele>105.6897</ele>
        <time>2019-11-21T21:20:13Z</time>
      </trkpt>
      <trkpt lat="43.281818" lon="-2.10854224">
        <ele>106.394165</ele>
        <time>2019-11-21T21:20:14Z</time>
      </trkpt>
      <trkpt lat="43.28191899" lon="-2.10817675">
        <ele>107.17517</ele>
        <time>2019-11-21T21:20:15Z</time>
      </trkpt>
      <trkpt lat="43.28201726" lon="-2.10781725">
        <ele>106.93561</ele>
        <time>2019-11-21T21:20:16Z</time>
      </trkpt>
      <trkpt lat="43.28214074" lon="-2.10746359">
        <ele>110.2735</ele>
        <time>2019-11-21T21:20:17Z</time>
      </trkpt>
      <trkpt lat="43.28224729" lon="-2.10712078">
        <ele>110.81195</ele>
        <time>2019-11-21T21:20:18Z</time>
      </trkpt>
      <trkpt lat="43.28236267" lon="-2.10676272">
        <ele>113.69617</ele>
        <time>2019-11-21T21:20:19Z</time>
      </trkpt>
      <trkpt lat="43.28247513" lon="-2.10640114">
        <ele>114.007935</ele>
        <time>2019-11-21T21:20:20Z</time>
      </trkpt>
      <trkpt lat="43.28259621" lon="-2.10604357">
        <ele>116.92468</ele>
        <time>2019-11-21T21:20:21Z</time>
      </trkpt>
      <trkpt lat="43.28269312" lon="-2.10567155">
        <ele>118.1062</ele>
        <time>2019-11-21T21:20:22Z</time>
      </trkpt>
      <trkpt lat="43.28279418" lon="-2.10532255">
        <ele>120.99597</ele>
        <time>2019-11-21T21:20:23Z</time>
      </trkpt>
      <trkpt lat="43.28287425" lon="-2.10495326">
        <ele>121.90222</ele>
        <time>2019-11-21T21:20:24Z</time>
      </trkpt>
      <trkpt lat="43.28295762" lon="-2.10458129">
        <ele>122.24432</ele>
        <time>2019-11-21T21:20:25Z</time>
      </trkpt>
      <trkpt lat="43.2830286" lon="-2.10421956">
        <ele>122.88196</ele>
        <time>2019-11-21T21:20:26Z</time>
      </trkpt>
      <trkpt lat="43.28310309" lon="-2.1038559">
        <ele>123.0744</ele>
        <time>2019-11-21T21:20:27Z</time>
      </trkpt>
      <trkpt lat="43.2832805" lon="-2.10312249">
        <ele>123.08417</ele>
        <time>2019-11-21T21:20:28Z</time>
      </trkpt>
      <trkpt lat="43.28339767" lon="-2.10276952">
        <ele>124.79779</ele>
        <time>2019-11-21T21:20:29Z</time>
      </trkpt>
      <trkpt lat="43.28351835" lon="-2.10242488">
        <ele>125.237915</ele>
        <time>2019-11-21T21:20:30Z</time>
      </trkpt>
      <trkpt lat="43.28364347" lon="-2.10208113">
        <ele>126.828735</ele>
        <time>2019-11-21T21:20:31Z</time>
      </trkpt>
      <trkpt lat="43.28376258" lon="-2.10173008">
        <ele>126.47034</ele>
        <time>2019-11-21T21:20:32Z</time>
      </trkpt>
      <trkpt lat="43.28389669" lon="-2.10138141">
        <ele>128.66138</ele>
        <time>2019-11-21T21:20:33Z</time>
      </trkpt>
      <trkpt lat="43.28402474" lon="-2.10102613">
        <ele>129.51074</ele>
        <time>2019-11-21T21:20:34Z</time>
      </trkpt>
      <trkpt lat="43.28416172" lon="-2.10068046">
        <ele>131.54742</ele>
        <time>2019-11-21T21:20:35Z</time>
      </trkpt>
      <trkpt lat="43.28429296" lon="-2.10032794">
        <ele>132.87262</ele>
        <time>2019-11-21T21:20:36Z</time>
      </trkpt>
      <trkpt lat="43.28442844" lon="-2.09999">
        <ele>135.58997</ele>
        <time>2019-11-21T21:20:37Z</time>
      </trkpt>
      <trkpt lat="43.28455445" lon="-2.09965596">
        <ele>136.95795</ele>
        <time>2019-11-21T21:20:38Z</time>
      </trkpt>
      <trkpt lat="43.28464945" lon="-2.09931854">
        <ele>138.3899</ele>
        <time>2019-11-21T21:20:40Z</time>
      </trkpt>
      <trkpt lat="43.28474158" lon="-2.09899176">
        <ele>139.41559</ele>
        <time>2019-11-21T21:20:41Z</time>
      </trkpt>
      <trkpt lat="43.28483337" lon="-2.09867784">
        <ele>141.5094</ele>
        <time>2019-11-21T21:20:42Z</time>
      </trkpt>
      <trkpt lat="43.28492977" lon="-2.09836832">
        <ele>141.66211</ele>
        <time>2019-11-21T21:20:43Z</time>
      </trkpt>
      <trkpt lat="43.2850173" lon="-2.09804081">
        <ele>142.9895</ele>
        <time>2019-11-21T21:20:44Z</time>
      </trkpt>
      <trkpt lat="43.28509473" lon="-2.09770979">
        <ele>142.7973</ele>
        <time>2019-11-21T21:20:45Z</time>
      </trkpt>
      <trkpt lat="43.28519767" lon="-2.09739496">
        <ele>142.45764</ele>
        <time>2019-11-21T21:20:46Z</time>
      </trkpt>
      <trkpt lat="43.28530597" lon="-2.09707438">
        <ele>143.58667</ele>
        <time>2019-11-21T21:20:47Z</time>
      </trkpt>
      <trkpt lat="43.28542785" lon="-2.09676737">
        <ele>143.88483</ele>
        <time>2019-11-21T21:20:48Z</time>
      </trkpt>
      <trkpt lat="43.28555504" lon="-2.09647152">
        <ele>144.479</ele>
        <time>2019-11-21T21:20:49Z</time>
      </trkpt>
      <trkpt lat="43.28571689" lon="-2.09617674">
        <ele>146.21436</ele>
        <time>2019-11-21T21:20:50Z</time>
      </trkpt>
      <trkpt lat="43.2858638" lon="-2.0958618">
        <ele>146.36273</ele>
        <time>2019-11-21T21:20:51Z</time>
      </trkpt>
      <trkpt lat="43.28601822" lon="-2.09556193">
        <ele>146.53467</ele>
        <time>2019-11-21T21:20:52Z</time>
      </trkpt>
      <trkpt lat="43.28617193" lon="-2.09524833">
        <ele>146.54712</ele>
        <time>2019-11-21T21:20:53Z</time>
      </trkpt>
      <trkpt lat="43.28630434" lon="-2.09493008">
        <ele>145.72388</ele>
        <time>2019-11-21T21:20:54Z</time>
      </trkpt>
      <trkpt lat="43.28641677" lon="-2.09458194">
        <ele>146.9961</ele>
        <time>2019-11-21T21:20:55Z</time>
      </trkpt>
      <trkpt lat="43.28652218" lon="-2.09422153">
        <ele>148.22339</ele>
        <time>2019-11-21T21:20:56Z</time>
      </trkpt>
      <trkpt lat="43.28660877" lon="-2.09385674">
        <ele>149.70471</ele>
        <time>2019-11-21T21:20:57Z</time>
      </trkpt>
      <trkpt lat="43.28666862" lon="-2.09348728">
        <ele>150.4939</ele>
        <time>2019-11-21T21:20:58Z</time>
      </trkpt>
      <trkpt lat="43.28671562" lon="-2.09310631">
        <ele>152.27826</ele>
        <time>2019-11-21T21:20:59Z</time>
      </trkpt>
      <trkpt lat="43.28675342" lon="-2.09234721">
        <ele>153.71545</ele>
        <time>2019-11-21T21:21:00Z</time>
      </trkpt>
      <trkpt lat="43.2867449" lon="-2.09195672">
        <ele>154.04797</ele>
        <time>2019-11-21T21:21:01Z</time>
      </trkpt>
      <trkpt lat="43.28670571" lon="-2.09156446">
        <ele>155.297</ele>
        <time>2019-11-21T21:21:02Z</time>
      </trkpt>
      <trkpt lat="43.28665818" lon="-2.09118354">
        <ele>156.46338</ele>
        <time>2019-11-21T21:21:03Z</time>
      </trkpt>
      <trkpt lat="43.28660068" lon="-2.09081081">
        <ele>157.54785</ele>
        <time>2019-11-21T21:21:04Z</time>
      </trkpt>
      <trkpt lat="43.28654814" lon="-2.090433">
        <ele>159.85431</ele>
        <time>2019-11-21T21:21:05Z</time>
      </trkpt>
      <trkpt lat="43.28651171" lon="-2.0900572">
        <ele>161.35974</ele>
        <time>2019-11-21T21:21:06Z</time>
      </trkpt>
      <trkpt lat="43.28648482" lon="-2.089684">
        <ele>161.77393</ele>
        <time>2019-11-21T21:21:07Z</time>
      </trkpt>
      <trkpt lat="43.28647734" lon="-2.08930153">
        <ele>161.72742</ele>
        <time>2019-11-21T21:21:08Z</time>
      </trkpt>
      <trkpt lat="43.28648685" lon="-2.08891515">
        <ele>163.47614</ele>
        <time>2019-11-21T21:21:09Z</time>
      </trkpt>
      <trkpt lat="43.28651299" lon="-2.08852679">
        <ele>164.5586</ele>
        <time>2019-11-21T21:21:11Z</time>
      </trkpt>
      <trkpt lat="43.28655433" lon="-2.08814286">
        <ele>165.88611</ele>
        <time>2019-11-21T21:21:12Z</time>
      </trkpt>
      <trkpt lat="43.28661316" lon="-2.08775799">
        <ele>166.64612</ele>
        <time>2019-11-21T21:21:13Z</time>
      </trkpt>
      <trkpt lat="43.28668498" lon="-2.08738189">
        <ele>166.16626</ele>
        <time>2019-11-21T21:21:14Z</time>
      </trkpt>
      <trkpt lat="43.2867658" lon="-2.08701362">
        <ele>167.52722</ele>
        <time>2019-11-21T21:21:15Z</time>
      </trkpt>
      <trkpt lat="43.28686138" lon="-2.08665404">
        <ele>168.53644</ele>
        <time>2019-11-21T21:21:16Z</time>
      </trkpt>
      <trkpt lat="43.28696523" lon="-2.08630266">
        <ele>169.63422</ele>
        <time>2019-11-21T21:21:17Z</time>
      </trkpt>
      <trkpt lat="43.28706574" lon="-2.08596219">
        <ele>170.81879</ele>
        <time>2019-11-21T21:21:18Z</time>
      </trkpt>
      <trkpt lat="43.2871629" lon="-2.08558913">
        <ele>171.15521</ele>
        <time>2019-11-21T21:21:19Z</time>
      </trkpt>
      <trkpt lat="43.28728454" lon="-2.08522885">
        <ele>175.39642</ele>
        <time>2019-11-21T21:21:20Z</time>
      </trkpt>
      <trkpt lat="43.28737125" lon="-2.08486496">
        <ele>175.89392</ele>
        <time>2019-11-21T21:21:21Z</time>
      </trkpt>
      <trkpt lat="43.2874503" lon="-2.08450578">
        <ele>175.20831</ele>
        <time>2019-11-21T21:21:22Z</time>
      </trkpt>
      <trkpt lat="43.28752054" lon="-2.0841197">
        <ele>175.53961</ele>
        <time>2019-11-21T21:21:23Z</time>
      </trkpt>
      <trkpt lat="43.28758574" lon="-2.08373721">
        <ele>175.27185</ele>
        <time>2019-11-21T21:21:24Z</time>
      </trkpt>
      <trkpt lat="43.28764886" lon="-2.08336445">
        <ele>175.61609</ele>
        <time>2019-11-21T21:21:25Z</time>
      </trkpt>
      <trkpt lat="43.28771388" lon="-2.08297785">
        <ele>178.72626</ele>
        <time>2019-11-21T21:21:26Z</time>
      </trkpt>
      <trkpt lat="43.28776702" lon="-2.08259439">
        <ele>180.97113</ele>
        <time>2019-11-21T21:21:27Z</time>
      </trkpt>
      <trkpt lat="43.28788728" lon="-2.08182897">
        <ele>181.8421</ele>
        <time>2019-11-21T21:21:28Z</time>
      </trkpt>
      <trkpt lat="43.2879391" lon="-2.08145445">
        <ele>182.02832</ele>
        <time>2019-11-21T21:21:29Z</time>
      </trkpt>
      <trkpt lat="43.28800071" lon="-2.08110718">
        <ele>180.27783</ele>
        <time>2019-11-21T21:21:30Z</time>
      </trkpt>
      <trkpt lat="43.28806953" lon="-2.0807388">
        <ele>180.56274</ele>
        <time>2019-11-21T21:21:31Z</time>
      </trkpt>
      <trkpt lat="43.28815223" lon="-2.08035295">
        <ele>181.0387</ele>
        <time>2019-11-21T21:21:32Z</time>
      </trkpt>
      <trkpt lat="43.28824107" lon="-2.07999171">
        <ele>182.47815</ele>
        <time>2019-11-21T21:21:33Z</time>
      </trkpt>
      <trkpt lat="43.2883361" lon="-2.07961765">
        <ele>183.94666</ele>
        <time>2019-11-21T21:21:34Z</time>
      </trkpt>
      <trkpt lat="43.28844302" lon="-2.07925368">
        <ele>184.49896</ele>
        <time>2019-11-21T21:21:35Z</time>
      </trkpt>
      <trkpt lat="43.28855643" lon="-2.07890219">
        <ele>185.21375</ele>
        <time>2019-11-21T21:21:36Z</time>
      </trkpt>
      <trkpt lat="43.28868706" lon="-2.07855229">
        <ele>188.42041</ele>
        <time>2019-11-21T21:21:37Z</time>
      </trkpt>
      <trkpt lat="43.28880008" lon="-2.07819838">
        <ele>188.62744</ele>
        <time>2019-11-21T21:21:38Z</time>
      </trkpt>
      <trkpt lat="43.28893264" lon="-2.07786147">
        <ele>189.00427</ele>
        <time>2019-11-21T21:21:40Z</time>
      </trkpt>
      <trkpt lat="43.28905405" lon="-2.07752344">
        <ele>188.85486</ele>
        <time>2019-11-21T21:21:41Z</time>
      </trkpt>
      <trkpt lat="43.28920738" lon="-2.07719753">
        <ele>191.50464</ele>
        <time>2019-11-21T21:21:42Z</time>
      </trkpt>
      <trkpt lat="43.28934379" lon="-2.07684843">
        <ele>192.91333</ele>
        <time>2019-11-21T21:21:43Z</time>
      </trkpt>
      <trkpt lat="43.2894933" lon="-2.07651695">
        <ele>194.87921</ele>
        <time>2019-11-21T21:21:44Z</time>
      </trkpt>
      <trkpt lat="43.28965553" lon="-2.07618321">
        <ele>197.36377</ele>
        <time>2019-11-21T21:21:45Z</time>
      </trkpt>
      <trkpt lat="43.28980684" lon="-2.07585315">
        <ele>199.04413</ele>
        <time>2019-11-21T21:21:46Z</time>
      </trkpt>
      <trkpt lat="43.28996856" lon="-2.07550297">
        <ele>200.94788</ele>
        <time>2019-11-21T21:21:47Z</time>
      </trkpt>
      <trkpt lat="43.29011646" lon="-2.07515368">
        <ele>201.57458</ele>
        <time>2019-11-21T21:21:48Z</time>
      </trkpt>
      <trkpt lat="43.29023243" lon="-2.07480181">
        <ele>203.92737</ele>
        <time>2019-11-21T21:21:49Z</time>
      </trkpt>
      <trkpt lat="43.29035283" lon="-2.07446221">
        <ele>204.31458</ele>
        <time>2019-11-21T21:21:50Z</time>
      </trkpt>
      <trkpt lat="43.29047684" lon="-2.07411796">
        <ele>205.61536</ele>
        <time>2019-11-21T21:21:51Z</time>
      </trkpt>
      <trkpt lat="43.29059282" lon="-2.07376489">
        <ele>207.41394</ele>
        <time>2019-11-21T21:21:52Z</time>
      </trkpt>
      <trkpt lat="43.29070628" lon="-2.0734066">
        <ele>210.50787</ele>
        <time>2019-11-21T21:21:53Z</time>
      </trkpt>
      <trkpt lat="43.2908209" lon="-2.07306013">
        <ele>212.6828</ele>
        <time>2019-11-21T21:21:54Z</time>
      </trkpt>
      <trkpt lat="43.29091921" lon="-2.07269435">
        <ele>214.60492</ele>
        <time>2019-11-21T21:21:55Z</time>
      </trkpt>
      <trkpt lat="43.29102273" lon="-2.07233361">
        <ele>216.82043</ele>
        <time>2019-11-21T21:21:56Z</time>
      </trkpt>
      <trkpt lat="43.29110389" lon="-2.0719667">
        <ele>217.17792</ele>
        <time>2019-11-21T21:21:57Z</time>
      </trkpt>
      <trkpt lat="43.29118465" lon="-2.07160435">
        <ele>218.92883</ele>
        <time>2019-11-21T21:21:58Z</time>
      </trkpt>
      <trkpt lat="43.29132437" lon="-2.07086401">
        <ele>220.8775</ele>
        <time>2019-11-21T21:21:59Z</time>
      </trkpt>
      <trkpt lat="43.29139012" lon="-2.07049097">
        <ele>221.8302</ele>
        <time>2019-11-21T21:22:00Z</time>
      </trkpt>
      <trkpt lat="43.29145172" lon="-2.0701178">
        <ele>223.03186</ele>
        <time>2019-11-21T21:22:01Z</time>
      </trkpt>
      <trkpt lat="43.29153288" lon="-2.06975007">
        <ele>225.64648</ele>
        <time>2019-11-21T21:22:02Z</time>
      </trkpt>
      <trkpt lat="43.29161507" lon="-2.06937707">
        <ele>226.52905</ele>
        <time>2019-11-21T21:22:03Z</time>
      </trkpt>
      <trkpt lat="43.29169039" lon="-2.06902253">
        <ele>227.34534</ele>
        <time>2019-11-21T21:22:04Z</time>
      </trkpt>
      <trkpt lat="43.29177765" lon="-2.06865724">
        <ele>229.05536</ele>
        <time>2019-11-21T21:22:05Z</time>
      </trkpt>
      <trkpt lat="43.29187024" lon="-2.06828399">
        <ele>230.04907</ele>
        <time>2019-11-21T21:22:06Z</time>
      </trkpt>
      <trkpt lat="43.29197579" lon="-2.06792245">
        <ele>230.39075</ele>
        <time>2019-11-21T21:22:07Z</time>
      </trkpt>
      <trkpt lat="43.29208534" lon="-2.06756122">
        <ele>232.23016</ele>
        <time>2019-11-21T21:22:08Z</time>
      </trkpt>
      <trkpt lat="43.29221334" lon="-2.06722618">
        <ele>233.0711</ele>
        <time>2019-11-21T21:22:10Z</time>
      </trkpt>
      <trkpt lat="43.29233047" lon="-2.06688019">
        <ele>234.07214</ele>
        <time>2019-11-21T21:22:11Z</time>
      </trkpt>
      <trkpt lat="43.29245404" lon="-2.06652842">
        <ele>234.46869</ele>
        <time>2019-11-21T21:22:12Z</time>
      </trkpt>
      <trkpt lat="43.29259233" lon="-2.06619892">
        <ele>232.94781</ele>
        <time>2019-11-21T21:22:13Z</time>
      </trkpt>
      <trkpt lat="43.29277033" lon="-2.06584468">
        <ele>235.76831</ele>
        <time>2019-11-21T21:22:14Z</time>
      </trkpt>
      <trkpt lat="43.29293333" lon="-2.06552233">
        <ele>237.27332</ele>
        <time>2019-11-21T21:22:15Z</time>
      </trkpt>
      <trkpt lat="43.2931004" lon="-2.06521192">
        <ele>238.29895</ele>
        <time>2019-11-21T21:22:16Z</time>
      </trkpt>
      <trkpt lat="43.29328342" lon="-2.06488773">
        <ele>240.0935</ele>
        <time>2019-11-21T21:22:17Z</time>
      </trkpt>
      <trkpt lat="43.29345744" lon="-2.06457948">
        <ele>240.62445</ele>
        <time>2019-11-21T21:22:18Z</time>
      </trkpt>
      <trkpt lat="43.29362292" lon="-2.06428516">
        <ele>240.81122</ele>
        <time>2019-11-21T21:22:19Z</time>
      </trkpt>
      <trkpt lat="43.29379427" lon="-2.06400706">
        <ele>240.84778</ele>
        <time>2019-11-21T21:22:20Z</time>
      </trkpt>
      <trkpt lat="43.29394191" lon="-2.06373567">
        <ele>239.50543</ele>
        <time>2019-11-21T21:22:21Z</time>
      </trkpt>
      <trkpt lat="43.29409177" lon="-2.06341423">
        <ele>239.7846</ele>
        <time>2019-11-21T21:22:22Z</time>
      </trkpt>
      <trkpt lat="43.29424788" lon="-2.06309917">
        <ele>239.40552</ele>
        <time>2019-11-21T21:22:23Z</time>
      </trkpt>
      <trkpt lat="43.29438869" lon="-2.06276741">
        <ele>228.50183</ele>
        <time>2019-11-21T21:22:24Z</time>
      </trkpt>
      <trkpt lat="43.29450558" lon="-2.06242554">
        <ele>232.7002</ele>
        <time>2019-11-21T21:22:25Z</time>
      </trkpt>
      <trkpt lat="43.29460429" lon="-2.06207386">
        <ele>236.12573</ele>
        <time>2019-11-21T21:22:26Z</time>
      </trkpt>
      <trkpt lat="43.29477264" lon="-2.06136369">
        <ele>239.89929</ele>
        <time>2019-11-21T21:22:27Z</time>
      </trkpt>
      <trkpt lat="43.29484665" lon="-2.06099859">
        <ele>240.46118</ele>
        <time>2019-11-21T21:22:28Z</time>
      </trkpt>
      <trkpt lat="43.29490377" lon="-2.06061883">
        <ele>240.83514</ele>
        <time>2019-11-21T21:22:29Z</time>
      </trkpt>
      <trkpt lat="43.29494753" lon="-2.06024312">
        <ele>241.00085</ele>
        <time>2019-11-21T21:22:30Z</time>
      </trkpt>
      <trkpt lat="43.29498313" lon="-2.05986707">
        <ele>241.82697</ele>
        <time>2019-11-21T21:22:31Z</time>
      </trkpt>
      <trkpt lat="43.29499516" lon="-2.05947817">
        <ele>241.61469</ele>
        <time>2019-11-21T21:22:32Z</time>
      </trkpt>
      <trkpt lat="43.29500165" lon="-2.05911582">
        <ele>241.16864</ele>
        <time>2019-11-21T21:22:33Z</time>
      </trkpt>
      <trkpt lat="43.29498554" lon="-2.05876036">
        <ele>241.56415</ele>
        <time>2019-11-21T21:22:34Z</time>
      </trkpt>
      <trkpt lat="43.29495666" lon="-2.05841099">
        <ele>240.75232</ele>
        <time>2019-11-21T21:22:35Z</time>
      </trkpt>
      <trkpt lat="43.29492819" lon="-2.05805232">
        <ele>240.28699</ele>
        <time>2019-11-21T21:22:36Z</time>
      </trkpt>
      <trkpt lat="43.2948996" lon="-2.05770473">
        <ele>238.75763</ele>
        <time>2019-11-21T21:22:37Z</time>
      </trkpt>
      <trkpt lat="43.29488092" lon="-2.05735207">
        <ele>238.42773</ele>
        <time>2019-11-21T21:22:38Z</time>
      </trkpt>
      <trkpt lat="43.29485214" lon="-2.0570011">
        <ele>237.58759</ele>
        <time>2019-11-21T21:22:40Z</time>
      </trkpt>
      <trkpt lat="43.29483999" lon="-2.05664036">
        <ele>236.94</ele>
        <time>2019-11-21T21:22:41Z</time>
      </trkpt>
      <trkpt lat="43.2948357" lon="-2.05628001">
        <ele>237.20215</ele>
        <time>2019-11-21T21:22:42Z</time>
      </trkpt>
      <trkpt lat="43.29484648" lon="-2.05592453">
        <ele>237.3518</ele>
        <time>2019-11-21T21:22:43Z</time>
      </trkpt>
      <trkpt lat="43.29485943" lon="-2.05555014">
        <ele>236.57861</ele>
        <time>2019-11-21T21:22:44Z</time>
      </trkpt>
      <trkpt lat="43.2948805" lon="-2.05516942">
        <ele>235.21497</ele>
        <time>2019-11-21T21:22:45Z</time>
      </trkpt>
      <trkpt lat="43.29490687" lon="-2.05478991">
        <ele>235.87769</ele>
        <time>2019-11-21T21:22:46Z</time>
      </trkpt>
      <trkpt lat="43.29491268" lon="-2.05441029">
        <ele>234.349</ele>
        <time>2019-11-21T21:22:47Z</time>
      </trkpt>
      <trkpt lat="43.29489756" lon="-2.05402465">
        <ele>231.9751</ele>
        <time>2019-11-21T21:22:48Z</time>
      </trkpt>
      <trkpt lat="43.29487392" lon="-2.05364808">
        <ele>231.18384</ele>
        <time>2019-11-21T21:22:49Z</time>
      </trkpt>
      <trkpt lat="43.29480431" lon="-2.05326084">
        <ele>229.91895</ele>
        <time>2019-11-21T21:22:50Z</time>
      </trkpt>
      <trkpt lat="43.29472918" lon="-2.05289396">
        <ele>229.849</ele>
        <time>2019-11-21T21:22:51Z</time>
      </trkpt>
      <trkpt lat="43.29461861" lon="-2.05254555">
        <ele>228.92096</ele>
        <time>2019-11-21T21:22:52Z</time>
      </trkpt>
      <trkpt lat="43.29447509" lon="-2.0521971">
        <ele>227.03491</ele>
        <time>2019-11-21T21:22:53Z</time>
      </trkpt>
      <trkpt lat="43.29433072" lon="-2.05186817">
        <ele>225.73285</ele>
        <time>2019-11-21T21:22:54Z</time>
      </trkpt>
      <trkpt lat="43.29418852" lon="-2.05152975">
        <ele>224.89203</ele>
        <time>2019-11-21T21:22:55Z</time>
      </trkpt>
      <trkpt lat="43.29406969" lon="-2.05118883">
        <ele>223.75592</ele>
        <time>2019-11-21T21:22:56Z</time>
      </trkpt>
      <trkpt lat="43.29395649" lon="-2.05083179">
        <ele>222.50464</ele>
        <time>2019-11-21T21:22:57Z</time>
      </trkpt>
      <trkpt lat="43.29386324" lon="-2.05046472">
        <ele>220.75732</ele>
        <time>2019-11-21T21:22:58Z</time>
      </trkpt>
      <trkpt lat="43.29373163" lon="-2.04971807">
        <ele>218.25305</ele>
        <time>2019-11-21T21:22:59Z</time>
      </trkpt>
      <trkpt lat="43.29369057" lon="-2.04932033">
        <ele>216.53833</ele>
        <time>2019-11-21T21:23:00Z</time>
      </trkpt>
      <trkpt lat="43.29368965" lon="-2.04892546">
        <ele>216.58344</ele>
        <time>2019-11-21T21:23:01Z</time>
      </trkpt>
      <trkpt lat="43.29370895" lon="-2.04855571">
        <ele>216.18439</ele>
        <time>2019-11-21T21:23:02Z</time>
      </trkpt>
      <trkpt lat="43.2937276" lon="-2.04816679">
        <ele>216.45355</ele>
        <time>2019-11-21T21:23:03Z</time>
      </trkpt>
      <trkpt lat="43.29376772" lon="-2.04781597">
        <ele>215.84406</ele>
        <time>2019-11-21T21:23:04Z</time>
      </trkpt>
      <trkpt lat="43.29379636" lon="-2.04745269">
        <ele>214.33563</ele>
        <time>2019-11-21T21:23:05Z</time>
      </trkpt>
      <trkpt lat="43.29378775" lon="-2.0470882">
        <ele>212.716</ele>
        <time>2019-11-21T21:23:06Z</time>
      </trkpt>
      <trkpt lat="43.29377604" lon="-2.04671698">
        <ele>211.14502</ele>
        <time>2019-11-21T21:23:07Z</time>
      </trkpt>
      <trkpt lat="43.29374048" lon="-2.04634987">
        <ele>210.8128</ele>
        <time>2019-11-21T21:23:09Z</time>
      </trkpt>
      <trkpt lat="43.29367619" lon="-2.04599843">
        <ele>209.51685</ele>
        <time>2019-11-21T21:23:10Z</time>
      </trkpt>
      <trkpt lat="43.29359506" lon="-2.04564388">
        <ele>207.6897</ele>
        <time>2019-11-21T21:23:11Z</time>
      </trkpt>
      <trkpt lat="43.29350529" lon="-2.04529024">
        <ele>207.44202</ele>
        <time>2019-11-21T21:23:12Z</time>
      </trkpt>
      <trkpt lat="43.29340714" lon="-2.04493849">
        <ele>206.96637</ele>
        <time>2019-11-21T21:23:13Z</time>
      </trkpt>
      <trkpt lat="43.29330136" lon="-2.04459082">
        <ele>205.69153</ele>
        <time>2019-11-21T21:23:14Z</time>
      </trkpt>
      <trkpt lat="43.29320729" lon="-2.04425004">
        <ele>204.91504</ele>
        <time>2019-11-21T21:23:15Z</time>
      </trkpt>
      <trkpt lat="43.29311464" lon="-2.04391446">
        <ele>203.69885</ele>
        <time>2019-11-21T21:23:16Z</time>
      </trkpt>
      <trkpt lat="43.29303509" lon="-2.04355856">
        <ele>203.505</ele>
        <time>2019-11-21T21:23:17Z</time>
      </trkpt>
      <trkpt lat="43.29297129" lon="-2.04318869">
        <ele>202.9873</ele>
        <time>2019-11-21T21:23:18Z</time>
      </trkpt>
      <trkpt lat="43.29292531" lon="-2.04282284">
        <ele>201.53296</ele>
        <time>2019-11-21T21:23:19Z</time>
      </trkpt>
      <trkpt lat="43.29288611" lon="-2.04246502">
        <ele>199.88037</ele>
        <time>2019-11-21T21:23:20Z</time>
      </trkpt>
      <trkpt lat="43.29285116" lon="-2.04209549">
        <ele>198.67688</ele>
        <time>2019-11-21T21:23:21Z</time>
      </trkpt>
      <trkpt lat="43.29282309" lon="-2.04173109">
        <ele>197.02179</ele>
        <time>2019-11-21T21:23:22Z</time>
      </trkpt>
      <trkpt lat="43.29278385" lon="-2.04136681">
        <ele>195.01471</ele>
        <time>2019-11-21T21:23:23Z</time>
      </trkpt>
      <trkpt lat="43.29273714" lon="-2.04101108">
        <ele>194.3443</ele>
        <time>2019-11-21T21:23:24Z</time>
      </trkpt>
      <trkpt lat="43.29268492" lon="-2.04066505">
        <ele>194.06921</ele>
        <time>2019-11-21T21:23:25Z</time>
      </trkpt>
      <trkpt lat="43.29261972" lon="-2.04032807">
        <ele>193.54681</ele>
        <time>2019-11-21T21:23:26Z</time>
      </trkpt>
      <trkpt lat="43.29252056" lon="-2.04000245">
        <ele>190.99371</ele>
        <time>2019-11-21T21:23:27Z</time>
      </trkpt>
      <trkpt lat="43.29243084" lon="-2.03969543">
        <ele>189.70856</ele>
        <time>2019-11-21T21:23:28Z</time>
      </trkpt>
      <trkpt lat="43.29220289" lon="-2.03909188">
        <ele>188.36823</ele>
        <time>2019-11-21T21:23:29Z</time>
      </trkpt>
      <trkpt lat="43.29205125" lon="-2.03882113">
        <ele>187.00903</ele>
        <time>2019-11-21T21:23:30Z</time>
      </trkpt>
      <trkpt lat="43.29190053" lon="-2.03855395">
        <ele>185.76837</ele>
        <time>2019-11-21T21:23:31Z</time>
      </trkpt>
      <trkpt lat="43.29173634" lon="-2.03831723">
        <ele>190.39862</ele>
        <time>2019-11-21T21:23:32Z</time>
      </trkpt>
      <trkpt lat="43.29156094" lon="-2.0380936">
        <ele>189.04962</ele>
        <time>2019-11-21T21:23:33Z</time>
      </trkpt>
      <trkpt lat="43.29138105" lon="-2.03789451">
        <ele>188.38843</ele>
        <time>2019-11-21T21:23:34Z</time>
      </trkpt>
      <trkpt lat="43.29117418" lon="-2.03770616">
        <ele>186.40381</ele>
        <time>2019-11-21T21:23:35Z</time>
      </trkpt>
      <trkpt lat="43.29096891" lon="-2.03755541">
        <ele>184.39636</ele>
        <time>2019-11-21T21:23:36Z</time>
      </trkpt>
      <trkpt lat="43.29072793" lon="-2.03745704">
        <ele>181.72656</ele>
        <time>2019-11-21T21:23:37Z</time>
      </trkpt>
      <trkpt lat="43.29049269" lon="-2.03734714">
        <ele>180.78766</ele>
        <time>2019-11-21T21:23:38Z</time>
      </trkpt>
      <trkpt lat="43.29026587" lon="-2.0372414">
        <ele>179.39008</ele>
        <time>2019-11-21T21:23:39Z</time>
      </trkpt>
      <trkpt lat="43.2900329" lon="-2.03715001">
        <ele>178.29932</ele>
        <time>2019-11-21T21:23:41Z</time>
      </trkpt>
      <trkpt lat="43.28980182" lon="-2.03706684">
        <ele>176.76459</ele>
        <time>2019-11-21T21:23:42Z</time>
      </trkpt>
      <trkpt lat="43.28957135" lon="-2.03697036">
        <ele>175.64417</ele>
        <time>2019-11-21T21:23:43Z</time>
      </trkpt>
      <trkpt lat="43.28934909" lon="-2.03685495">
        <ele>176.05939</ele>
        <time>2019-11-21T21:23:44Z</time>
      </trkpt>
      <trkpt lat="43.28913044" lon="-2.03671948">
        <ele>175.50024</ele>
        <time>2019-11-21T21:23:45Z</time>
      </trkpt>
      <trkpt lat="43.28890949" lon="-2.03656244">
        <ele>175.3274</ele>
        <time>2019-11-21T21:23:46Z</time>
      </trkpt>
      <trkpt lat="43.28870435" lon="-2.03639968">
        <ele>174.84412</ele>
        <time>2019-11-21T21:23:47Z</time>
      </trkpt>
      <trkpt lat="43.28850685" lon="-2.03621646">
        <ele>174.5813</ele>
        <time>2019-11-21T21:23:48Z</time>
      </trkpt>
      <trkpt lat="43.28831008" lon="-2.03601451">
        <ele>173.7793</ele>
        <time>2019-11-21T21:23:49Z</time>
      </trkpt>
      <trkpt lat="43.28813231" lon="-2.03579568">
        <ele>173.36768</ele>
        <time>2019-11-21T21:23:50Z</time>
      </trkpt>
      <trkpt lat="43.28796677" lon="-2.03557344">
        <ele>172.44702</ele>
        <time>2019-11-21T21:23:51Z</time>
      </trkpt>
      <trkpt lat="43.28781609" lon="-2.03532806">
        <ele>172.01575</ele>
        <time>2019-11-21T21:23:52Z</time>
      </trkpt>
      <trkpt lat="43.28765831" lon="-2.03508351">
        <ele>172.65973</ele>
        <time>2019-11-21T21:23:53Z</time>
      </trkpt>
      <trkpt lat="43.28750748" lon="-2.03483023">
        <ele>173.71912</ele>
        <time>2019-11-21T21:23:54Z</time>
      </trkpt>
      <trkpt lat="43.28736131" lon="-2.03457569">
        <ele>174.36102</ele>
        <time>2019-11-21T21:23:55Z</time>
      </trkpt>
      <trkpt lat="43.2872256" lon="-2.03431173">
        <ele>174.89886</ele>
        <time>2019-11-21T21:23:56Z</time>
      </trkpt>
      <trkpt lat="43.28709961" lon="-2.03405984">
        <ele>174.22986</ele>
        <time>2019-11-21T21:23:57Z</time>
      </trkpt>
      <trkpt lat="43.28697707" lon="-2.03379302">
        <ele>175.18951</ele>
        <time>2019-11-21T21:23:58Z</time>
      </trkpt>
      <trkpt lat="43.28684956" lon="-2.03352631">
        <ele>175.755</ele>
        <time>2019-11-21T21:23:59Z</time>
      </trkpt>
      <trkpt lat="43.28661897" lon="-2.03297425">
        <ele>177.08905</ele>
        <time>2019-11-21T21:24:00Z</time>
      </trkpt>
      <trkpt lat="43.2865056" lon="-2.03269655">
        <ele>177.72565</ele>
        <time>2019-11-21T21:24:01Z</time>
      </trkpt>
      <trkpt lat="43.28640525" lon="-2.03240175">
        <ele>178.08826</ele>
        <time>2019-11-21T21:24:02Z</time>
      </trkpt>
      <trkpt lat="43.28631776" lon="-2.03210494">
        <ele>178.06982</ele>
        <time>2019-11-21T21:24:03Z</time>
      </trkpt>
      <trkpt lat="43.2862318" lon="-2.03179709">
        <ele>178.25476</ele>
        <time>2019-11-21T21:24:04Z</time>
      </trkpt>
      <trkpt lat="43.28614638" lon="-2.0314865">
        <ele>178.46484</ele>
        <time>2019-11-21T21:24:05Z</time>
      </trkpt>
      <trkpt lat="43.28606836" lon="-2.03117303">
        <ele>178.74792</ele>
        <time>2019-11-21T21:24:06Z</time>
      </trkpt>
      <trkpt lat="43.28599419" lon="-2.03084847">
        <ele>178.87988</ele>
        <time>2019-11-21T21:24:07Z</time>
      </trkpt>
      <trkpt lat="43.28592522" lon="-2.03051542">
        <ele>179.40564</ele>
        <time>2019-11-21T21:24:08Z</time>
      </trkpt>
      <trkpt lat="43.28585156" lon="-2.030181">
        <ele>179.81091</ele>
        <time>2019-11-21T21:24:09Z</time>
      </trkpt>
      <trkpt lat="43.28579275" lon="-2.02984332">
        <ele>180.29602</ele>
        <time>2019-11-21T21:24:10Z</time>
      </trkpt>
      <trkpt lat="43.28574092" lon="-2.0294997">
        <ele>179.87683</ele>
        <time>2019-11-21T21:24:12Z</time>
      </trkpt>
      <trkpt lat="43.28570271" lon="-2.02916422">
        <ele>179.54944</ele>
        <time>2019-11-21T21:24:13Z</time>
      </trkpt>
      <trkpt lat="43.28566766" lon="-2.02882563">
        <ele>179.54626</ele>
        <time>2019-11-21T21:24:14Z</time>
      </trkpt>
      <trkpt lat="43.28565389" lon="-2.02849059">
        <ele>179.67236</ele>
        <time>2019-11-21T21:24:15Z</time>
      </trkpt>
      <trkpt lat="43.28564317" lon="-2.0281572">
        <ele>180.18982</ele>
        <time>2019-11-21T21:24:16Z</time>
      </trkpt>
      <trkpt lat="43.28564702" lon="-2.02781648">
        <ele>180.28662</ele>
        <time>2019-11-21T21:24:17Z</time>
      </trkpt>
      <trkpt lat="43.28566894" lon="-2.02748601">
        <ele>179.63757</ele>
        <time>2019-11-21T21:24:18Z</time>
      </trkpt>
      <trkpt lat="43.28570109" lon="-2.02715054">
        <ele>179.46204</ele>
        <time>2019-11-21T21:24:19Z</time>
      </trkpt>
      <trkpt lat="43.28575563" lon="-2.02680337">
        <ele>179.40662</ele>
        <time>2019-11-21T21:24:20Z</time>
      </trkpt>
      <trkpt lat="43.28581216" lon="-2.02645174">
        <ele>178.65314</ele>
        <time>2019-11-21T21:24:21Z</time>
      </trkpt>
      <trkpt lat="43.28586965" lon="-2.02610256">
        <ele>176.65845</ele>
        <time>2019-11-21T21:24:22Z</time>
      </trkpt>
      <trkpt lat="43.28598686" lon="-2.02577021">
        <ele>176.521</ele>
        <time>2019-11-21T21:24:23Z</time>
      </trkpt>
      <trkpt lat="43.28611431" lon="-2.02546278">
        <ele>175.11224</ele>
        <time>2019-11-21T21:24:24Z</time>
      </trkpt>
      <trkpt lat="43.28624712" lon="-2.02514775">
        <ele>174.44763</ele>
        <time>2019-11-21T21:24:25Z</time>
      </trkpt>
      <trkpt lat="43.28638639" lon="-2.02483716">
        <ele>173.71722</ele>
        <time>2019-11-21T21:24:26Z</time>
      </trkpt>
      <trkpt lat="43.28653492" lon="-2.02453682">
        <ele>172.38318</ele>
        <time>2019-11-21T21:24:27Z</time>
      </trkpt>
      <trkpt lat="43.28670835" lon="-2.02426176">
        <ele>172.57959</ele>
        <time>2019-11-21T21:24:28Z</time>
      </trkpt>
      <trkpt lat="43.28687745" lon="-2.02400617">
        <ele>171.93048</ele>
        <time>2019-11-21T21:24:29Z</time>
      </trkpt>
      <trkpt lat="43.28723247" lon="-2.0235598">
        <ele>169.92163</ele>
        <time>2019-11-21T21:24:30Z</time>
      </trkpt>
      <trkpt lat="43.28745324" lon="-2.02337077">
        <ele>170.59131</ele>
        <time>2019-11-21T21:24:31Z</time>
      </trkpt>
      <trkpt lat="43.2876443" lon="-2.02316097">
        <ele>171.36938</ele>
        <time>2019-11-21T21:24:32Z</time>
      </trkpt>
      <trkpt lat="43.28780622" lon="-2.02293381">
        <ele>170.75397</ele>
        <time>2019-11-21T21:24:33Z</time>
      </trkpt>
      <trkpt lat="43.28797403" lon="-2.02272429">
        <ele>169.82745</ele>
        <time>2019-11-21T21:24:34Z</time>
      </trkpt>
      <trkpt lat="43.28812058" lon="-2.02248087">
        <ele>170.03546</ele>
        <time>2019-11-21T21:24:35Z</time>
      </trkpt>
      <trkpt lat="43.28825885" lon="-2.02224779">
        <ele>170.03125</ele>
        <time>2019-11-21T21:24:36Z</time>
      </trkpt>
      <trkpt lat="43.28837029" lon="-2.0220054">
        <ele>171.29126</ele>
        <time>2019-11-21T21:24:37Z</time>
      </trkpt>
      <trkpt lat="43.28848655" lon="-2.02177543">
        <ele>173.00952</ele>
        <time>2019-11-21T21:24:38Z</time>
      </trkpt>
      <trkpt lat="43.28858175" lon="-2.02157269">
        <ele>172.13672</ele>
        <time>2019-11-21T21:24:39Z</time>
      </trkpt>
      <trkpt lat="43.28866423" lon="-2.02136149">
        <ele>172.61499</ele>
        <time>2019-11-21T21:24:40Z</time>
      </trkpt>
      <trkpt lat="43.2887337" lon="-2.02114249">
        <ele>172.02722</ele>
        <time>2019-11-21T21:24:42Z</time>
      </trkpt>
      <trkpt lat="43.2887861" lon="-2.02092106">
        <ele>168.53394</ele>
        <time>2019-11-21T21:24:43Z</time>
      </trkpt>
      <trkpt lat="43.2888322" lon="-2.02071488">
        <ele>167.41187</ele>
        <time>2019-11-21T21:24:44Z</time>
      </trkpt>
      <trkpt lat="43.28884875" lon="-2.0205136">
        <ele>167.43921</ele>
        <time>2019-11-21T21:24:45Z</time>
      </trkpt>
      <trkpt lat="43.28885798" lon="-2.02032223">
        <ele>167.19495</ele>
        <time>2019-11-21T21:24:46Z</time>
      </trkpt>
      <trkpt lat="43.2888189" lon="-2.0200066">
        <ele>167.97095</ele>
        <time>2019-11-21T21:24:48Z</time>
      </trkpt>
      <trkpt lat="43.28873543" lon="-2.0197632">
        <ele>168.10052</ele>
        <time>2019-11-21T21:24:50Z</time>
      </trkpt>
      <trkpt lat="43.28859234" lon="-2.01959248">
        <ele>166.71375</ele>
        <time>2019-11-21T21:24:52Z</time>
      </trkpt>
      <trkpt lat="43.28844332" lon="-2.01950419">
        <ele>165.40631</ele>
        <time>2019-11-21T21:24:54Z</time>
      </trkpt>
      <trkpt lat="43.28825919" lon="-2.01947718">
        <ele>165.23157</ele>
        <time>2019-11-21T21:24:56Z</time>
      </trkpt>
      <trkpt lat="43.28806829" lon="-2.01944008">
        <ele>164.7456</ele>
        <time>2019-11-21T21:24:57Z</time>
      </trkpt>
      <trkpt lat="43.28791388" lon="-2.01941778">
        <ele>165.57892</ele>
        <time>2019-11-21T21:24:58Z</time>
      </trkpt>
      <trkpt lat="43.28775299" lon="-2.01939066">
        <ele>165.24048</ele>
        <time>2019-11-21T21:24:59Z</time>
      </trkpt>
      <trkpt lat="43.28744173" lon="-2.01933894">
        <ele>164.76526</ele>
        <time>2019-11-21T21:25:00Z</time>
      </trkpt>
      <trkpt lat="43.28728566" lon="-2.01930933">
        <ele>169.9541</ele>
        <time>2019-11-21T21:25:01Z</time>
      </trkpt>
      <trkpt lat="43.28712977" lon="-2.01927846">
        <ele>168.56696</ele>
        <time>2019-11-21T21:25:02Z</time>
      </trkpt>
      <trkpt lat="43.286975026130676" lon="-2.0192474126815796">
        <ele>0.0</ele>
        <time>2019-11-21T21:25:03Z</time>
      </trkpt>
      <trkpt lat="43.28575246" lon="-2.01898513">
        <ele>163.99792</ele>
        <time>2019-11-21T21:25:07Z</time>
      </trkpt>
      <trkpt lat="43.28556003" lon="-2.01892779">
        <ele>163.75922</ele>
        <time>2019-11-21T21:25:08Z</time>
      </trkpt>
      <trkpt lat="43.28535084" lon="-2.01886992">
        <ele>163.31927</ele>
        <time>2019-11-21T21:25:09Z</time>
      </trkpt>
      <trkpt lat="43.28517187" lon="-2.01875906">
        <ele>161.06299</ele>
        <time>2019-11-21T21:25:10Z</time>
      </trkpt>
      <trkpt lat="43.28494635" lon="-2.01871468">
        <ele>160.55603</ele>
        <time>2019-11-21T21:25:11Z</time>
      </trkpt>
      <trkpt lat="43.28471337" lon="-2.0186596">
        <ele>160.81555</ele>
        <time>2019-11-21T21:25:12Z</time>
      </trkpt>
      <trkpt lat="43.28445545" lon="-2.0186421">
        <ele>160.64062</ele>
        <time>2019-11-21T21:25:13Z</time>
      </trkpt>
      <trkpt lat="43.2842606" lon="-2.01857647">
        <ele>157.94061</ele>
        <time>2019-11-21T21:25:14Z</time>
      </trkpt>
      <trkpt lat="43.28403042" lon="-2.01854553">
        <ele>156.63727</ele>
        <time>2019-11-21T21:25:15Z</time>
      </trkpt>
      <trkpt lat="43.28381627" lon="-2.01851592">
        <ele>156.09552</ele>
        <time>2019-11-21T21:25:16Z</time>
      </trkpt>
      <trkpt lat="43.28360359" lon="-2.01850184">
        <ele>154.88208</ele>
        <time>2019-11-21T21:25:17Z</time>
      </trkpt>
      <trkpt lat="43.28340666" lon="-2.01850765">
        <ele>151.8269</ele>
        <time>2019-11-21T21:25:18Z</time>
      </trkpt>
      <trkpt lat="43.28319763" lon="-2.01851069">
        <ele>150.72717</ele>
        <time>2019-11-21T21:25:19Z</time>
      </trkpt>
      <trkpt lat="43.28301597" lon="-2.01852175">
        <ele>147.0008</ele>
        <time>2019-11-21T21:25:20Z</time>
      </trkpt>
      <trkpt lat="43.28282194" lon="-2.01854433">
        <ele>145.7395</ele>
        <time>2019-11-21T21:25:22Z</time>
      </trkpt>
      <trkpt lat="43.28262304" lon="-2.01856444">
        <ele>145.56873</ele>
        <time>2019-11-21T21:25:23Z</time>
      </trkpt>
      <trkpt lat="43.28241928" lon="-2.01860092">
        <ele>144.25842</ele>
        <time>2019-11-21T21:25:24Z</time>
      </trkpt>
      <trkpt lat="43.28222078" lon="-2.01864118">
        <ele>143.9187</ele>
        <time>2019-11-21T21:25:25Z</time>
      </trkpt>
      <trkpt lat="43.28203054" lon="-2.01867997">
        <ele>142.38892</ele>
        <time>2019-11-21T21:25:26Z</time>
      </trkpt>
      <trkpt lat="43.28184018" lon="-2.0187046">
        <ele>140.48962</ele>
        <time>2019-11-21T21:25:27Z</time>
      </trkpt>
      <trkpt lat="43.2816477" lon="-2.01873802">
        <ele>137.30646</ele>
        <time>2019-11-21T21:25:28Z</time>
      </trkpt>
      <trkpt lat="43.28144783" lon="-2.01876311">
        <ele>135.40808</ele>
        <time>2019-11-21T21:25:29Z</time>
      </trkpt>
      <trkpt lat="43.28123914" lon="-2.01877879">
        <ele>134.88965</ele>
        <time>2019-11-21T21:25:30Z</time>
      </trkpt>
      <trkpt lat="43.28103826" lon="-2.01877686">
        <ele>134.69635</ele>
        <time>2019-11-21T21:25:31Z</time>
      </trkpt>
      <trkpt lat="43.28063154" lon="-2.01869705">
        <ele>131.82288</ele>
        <time>2019-11-21T21:25:32Z</time>
      </trkpt>
      <trkpt lat="43.28043438" lon="-2.01863039">
        <ele>130.26208</ele>
        <time>2019-11-21T21:25:33Z</time>
      </trkpt>
      <trkpt lat="43.28024584" lon="-2.01854149">
        <ele>130.53717</ele>
        <time>2019-11-21T21:25:34Z</time>
      </trkpt>
      <trkpt lat="43.28005828" lon="-2.01843276">
        <ele>129.02649</ele>
        <time>2019-11-21T21:25:35Z</time>
      </trkpt>
      <trkpt lat="43.27988112" lon="-2.01830661">
        <ele>128.38538</ele>
        <time>2019-11-21T21:25:36Z</time>
      </trkpt>
      <trkpt lat="43.2797097" lon="-2.01816707">
        <ele>127.83447</ele>
        <time>2019-11-21T21:25:37Z</time>
      </trkpt>
      <trkpt lat="43.27955145" lon="-2.01801531">
        <ele>127.31824</ele>
        <time>2019-11-21T21:25:38Z</time>
      </trkpt>
      <trkpt lat="43.27940294" lon="-2.01784369">
        <ele>126.36279</ele>
        <time>2019-11-21T21:25:39Z</time>
      </trkpt>
      <trkpt lat="43.27926591" lon="-2.01766422">
        <ele>125.71405</ele>
        <time>2019-11-21T21:25:40Z</time>
      </trkpt>
      <trkpt lat="43.2791404" lon="-2.01748147">
        <ele>124.48822</ele>
        <time>2019-11-21T21:25:41Z</time>
      </trkpt>
      <trkpt lat="43.279002" lon="-2.01730013">
        <ele>123.85553</ele>
        <time>2019-11-21T21:25:42Z</time>
      </trkpt>
      <trkpt lat="43.27885664" lon="-2.01711516">
        <ele>121.643555</ele>
        <time>2019-11-21T21:25:43Z</time>
      </trkpt>
      <trkpt lat="43.27871197" lon="-2.01695005">
        <ele>120.95947</ele>
        <time>2019-11-21T21:25:44Z</time>
      </trkpt>
      <trkpt lat="43.27855184" lon="-2.01680032">
        <ele>127.80066</ele>
        <time>2019-11-21T21:25:45Z</time>
      </trkpt>
      <trkpt lat="43.27837905" lon="-2.01666716">
        <ele>125.55817</ele>
        <time>2019-11-21T21:25:46Z</time>
      </trkpt>
      <trkpt lat="43.27820842" lon="-2.01656124">
        <ele>124.3385</ele>
        <time>2019-11-21T21:25:47Z</time>
      </trkpt>
      <trkpt lat="43.27804164" lon="-2.01645517">
        <ele>123.24829</ele>
        <time>2019-11-21T21:25:48Z</time>
      </trkpt>
      <trkpt lat="43.27784175" lon="-2.01636695">
        <ele>122.174866</ele>
        <time>2019-11-21T21:25:49Z</time>
      </trkpt>
      <trkpt lat="43.27764834" lon="-2.0162901">
        <ele>121.53833</ele>
        <time>2019-11-21T21:25:50Z</time>
      </trkpt>
      <trkpt lat="43.27747092" lon="-2.0162261">
        <ele>120.71161</ele>
        <time>2019-11-21T21:25:51Z</time>
      </trkpt>
      <trkpt lat="43.27727001" lon="-2.01622379">
        <ele>119.65106</ele>
        <time>2019-11-21T21:25:52Z</time>
      </trkpt>
      <trkpt lat="43.27705744" lon="-2.01625166">
        <ele>125.02722</ele>
        <time>2019-11-21T21:25:53Z</time>
      </trkpt>
      <trkpt lat="43.27685835" lon="-2.01629511">
        <ele>120.56763</ele>
        <time>2019-11-21T21:25:54Z</time>
      </trkpt>
      <trkpt lat="43.27666861" lon="-2.01635382">
        <ele>117.23822</ele>
        <time>2019-11-21T21:25:56Z</time>
      </trkpt>
      <trkpt lat="43.27645537" lon="-2.01642042">
        <ele>114.85474</ele>
        <time>2019-11-21T21:25:57Z</time>
      </trkpt>
      <trkpt lat="43.27625706" lon="-2.01647938">
        <ele>112.41339</ele>
        <time>2019-11-21T21:25:58Z</time>
      </trkpt>
      <trkpt lat="43.2760541" lon="-2.01653114">
        <ele>110.68799</ele>
        <time>2019-11-21T21:25:59Z</time>
      </trkpt>
      <trkpt lat="43.27585138" lon="-2.01656371">
        <ele>109.6629</ele>
        <time>2019-11-21T21:26:00Z</time>
      </trkpt>
      <trkpt lat="43.27565166" lon="-2.01657321">
        <ele>109.784546</ele>
        <time>2019-11-21T21:26:01Z</time>
      </trkpt>
      <trkpt lat="43.27543188" lon="-2.01656404">
        <ele>108.05499</ele>
        <time>2019-11-21T21:26:02Z</time>
      </trkpt>
      <trkpt lat="43.27522458" lon="-2.01652034">
        <ele>107.25348</ele>
        <time>2019-11-21T21:26:03Z</time>
      </trkpt>
      <trkpt lat="43.27480486" lon="-2.0164361">
        <ele>104.85144</ele>
        <time>2019-11-21T21:26:04Z</time>
      </trkpt>
      <trkpt lat="43.27460192" lon="-2.01639261">
        <ele>103.72888</ele>
        <time>2019-11-21T21:26:05Z</time>
      </trkpt>
      <trkpt lat="43.27439563" lon="-2.01634685">
        <ele>101.55963</ele>
        <time>2019-11-21T21:26:06Z</time>
      </trkpt>
      <trkpt lat="43.27418168" lon="-2.01632686">
        <ele>100.19232</ele>
        <time>2019-11-21T21:26:07Z</time>
      </trkpt>
      <trkpt lat="43.27396395" lon="-2.01632414">
        <ele>98.25769</ele>
        <time>2019-11-21T21:26:08Z</time>
      </trkpt>
      <trkpt lat="43.27372167" lon="-2.01633559">
        <ele>97.87787</ele>
        <time>2019-11-21T21:26:09Z</time>
      </trkpt>
      <trkpt lat="43.27348886" lon="-2.0163662">
        <ele>95.80121</ele>
        <time>2019-11-21T21:26:10Z</time>
      </trkpt>
      <trkpt lat="43.27327077" lon="-2.0164063">
        <ele>94.32672</ele>
        <time>2019-11-21T21:26:11Z</time>
      </trkpt>
      <trkpt lat="43.27304211" lon="-2.0164566">
        <ele>93.713135</ele>
        <time>2019-11-21T21:26:12Z</time>
      </trkpt>
      <trkpt lat="43.27283253" lon="-2.01650015">
        <ele>90.725464</ele>
        <time>2019-11-21T21:26:13Z</time>
      </trkpt>
      <trkpt lat="43.27259985" lon="-2.01654375">
        <ele>90.34314</ele>
        <time>2019-11-21T21:26:14Z</time>
      </trkpt>
      <trkpt lat="43.27236042" lon="-2.0165837">
        <ele>89.02612</ele>
        <time>2019-11-21T21:26:15Z</time>
      </trkpt>
      <trkpt lat="43.2721218" lon="-2.01661601">
        <ele>88.45911</ele>
        <time>2019-11-21T21:26:16Z</time>
      </trkpt>
      <trkpt lat="43.27188256" lon="-2.01664249">
        <ele>87.610535</ele>
        <time>2019-11-21T21:26:17Z</time>
      </trkpt>
      <trkpt lat="43.27163663" lon="-2.01665441">
        <ele>87.75952</ele>
        <time>2019-11-21T21:26:18Z</time>
      </trkpt>
      <trkpt lat="43.27139804" lon="-2.01666829">
        <ele>88.76306</ele>
        <time>2019-11-21T21:26:19Z</time>
      </trkpt>
      <trkpt lat="43.27116345" lon="-2.01667799">
        <ele>88.35278</ele>
        <time>2019-11-21T21:26:20Z</time>
      </trkpt>
      <trkpt lat="43.2709239" lon="-2.01668508">
        <ele>89.12244</ele>
        <time>2019-11-21T21:26:21Z</time>
      </trkpt>
      <trkpt lat="43.2706906" lon="-2.0166881">
        <ele>89.39673</ele>
        <time>2019-11-21T21:26:22Z</time>
      </trkpt>
      <trkpt lat="43.2704658" lon="-2.01669369">
        <ele>88.64624</ele>
        <time>2019-11-21T21:26:23Z</time>
      </trkpt>
      <trkpt lat="43.27023339" lon="-2.01669523">
        <ele>88.691345</ele>
        <time>2019-11-21T21:26:24Z</time>
      </trkpt>
      <trkpt lat="43.27000607" lon="-2.01670887">
        <ele>88.61029</ele>
        <time>2019-11-21T21:26:25Z</time>
      </trkpt>
      <trkpt lat="43.26978118" lon="-2.01672556">
        <ele>89.21863</ele>
        <time>2019-11-21T21:26:26Z</time>
      </trkpt>
      <trkpt lat="43.26956002" lon="-2.0167525">
        <ele>104.560974</ele>
        <time>2019-11-21T21:26:28Z</time>
      </trkpt>
      <trkpt lat="43.26934401" lon="-2.01678218">
        <ele>100.70459</ele>
        <time>2019-11-21T21:26:29Z</time>
      </trkpt>
      <trkpt lat="43.2691303" lon="-2.01681866">
        <ele>98.73779</ele>
        <time>2019-11-21T21:26:30Z</time>
      </trkpt>
      <trkpt lat="43.26892006" lon="-2.01685321">
        <ele>97.666016</ele>
        <time>2019-11-21T21:26:31Z</time>
      </trkpt>
      <trkpt lat="43.26870433" lon="-2.01689327">
        <ele>97.77814</ele>
        <time>2019-11-21T21:26:32Z</time>
      </trkpt>
      <trkpt lat="43.26849877" lon="-2.01694528">
        <ele>98.03491</ele>
        <time>2019-11-21T21:26:33Z</time>
      </trkpt>
      <trkpt lat="43.26829741" lon="-2.01698153">
        <ele>96.361755</ele>
        <time>2019-11-21T21:26:34Z</time>
      </trkpt>
      <trkpt lat="43.26807948" lon="-2.01701979">
        <ele>96.36951</ele>
        <time>2019-11-21T21:26:35Z</time>
      </trkpt>
      <trkpt lat="43.26786658" lon="-2.01704664">
        <ele>95.26312</ele>
        <time>2019-11-21T21:26:36Z</time>
      </trkpt>
      <trkpt lat="43.26743509" lon="-2.01708836">
        <ele>92.81854</ele>
        <time>2019-11-21T21:26:37Z</time>
      </trkpt>
      <trkpt lat="43.26722252" lon="-2.01710584">
        <ele>92.15607</ele>
        <time>2019-11-21T21:26:38Z</time>
      </trkpt>
      <trkpt lat="43.26700955" lon="-2.01712101">
        <ele>90.86487</ele>
        <time>2019-11-21T21:26:39Z</time>
      </trkpt>
      <trkpt lat="43.26679337" lon="-2.01713094">
        <ele>89.93707</ele>
        <time>2019-11-21T21:26:40Z</time>
      </trkpt>
      <trkpt lat="43.26658194" lon="-2.01714281">
        <ele>88.1875</ele>
        <time>2019-11-21T21:26:41Z</time>
      </trkpt>
      <trkpt lat="43.26636694" lon="-2.0171634">
        <ele>86.69177</ele>
        <time>2019-11-21T21:26:42Z</time>
      </trkpt>
      <trkpt lat="43.26614169" lon="-2.0171923">
        <ele>85.53662</ele>
        <time>2019-11-21T21:26:43Z</time>
      </trkpt>
      <trkpt lat="43.26591515" lon="-2.01721763">
        <ele>85.06476</ele>
        <time>2019-11-21T21:26:44Z</time>
      </trkpt>
      <trkpt lat="43.2656945" lon="-2.01725702">
        <ele>84.80054</ele>
        <time>2019-11-21T21:26:45Z</time>
      </trkpt>
      <trkpt lat="43.26546872" lon="-2.01729349">
        <ele>84.78308</ele>
        <time>2019-11-21T21:26:46Z</time>
      </trkpt>
      <trkpt lat="43.26524082" lon="-2.01734882">
        <ele>84.18408</ele>
        <time>2019-11-21T21:26:47Z</time>
      </trkpt>
      <trkpt lat="43.26501312" lon="-2.01741265">
        <ele>84.737915</ele>
        <time>2019-11-21T21:26:48Z</time>
      </trkpt>
      <trkpt lat="43.26478878" lon="-2.01747279">
        <ele>83.385925</ele>
        <time>2019-11-21T21:26:49Z</time>
      </trkpt>
      <trkpt lat="43.26455474" lon="-2.01754265">
        <ele>83.00305</ele>
        <time>2019-11-21T21:26:50Z</time>
      </trkpt>
      <trkpt lat="43.26433948" lon="-2.01760685">
        <ele>81.87891</ele>
        <time>2019-11-21T21:26:51Z</time>
      </trkpt>
      <trkpt lat="43.26411921" lon="-2.01767183">
        <ele>81.065735</ele>
        <time>2019-11-21T21:26:52Z</time>
      </trkpt>
      <trkpt lat="43.26393986" lon="-2.01773317">
        <ele>80.14801</ele>
        <time>2019-11-21T21:26:53Z</time>
      </trkpt>
      <trkpt lat="43.26373576" lon="-2.01777517">
        <ele>79.17346</ele>
        <time>2019-11-21T21:26:54Z</time>
      </trkpt>
      <trkpt lat="43.26349831" lon="-2.01779004">
        <ele>79.875244</ele>
        <time>2019-11-21T21:26:55Z</time>
      </trkpt>
      <trkpt lat="43.26331338" lon="-2.01778213">
        <ele>78.15753</ele>
        <time>2019-11-21T21:26:56Z</time>
      </trkpt>
      <trkpt lat="43.26312225" lon="-2.01776419">
        <ele>77.77136</ele>
        <time>2019-11-21T21:26:57Z</time>
      </trkpt>
      <trkpt lat="43.26292092" lon="-2.01774395">
        <ele>76.47803</ele>
        <time>2019-11-21T21:26:59Z</time>
      </trkpt>
      <trkpt lat="43.26272363" lon="-2.01770508">
        <ele>76.3573</ele>
        <time>2019-11-21T21:27:00Z</time>
      </trkpt>
      <trkpt lat="43.26254341" lon="-2.01765733">
        <ele>74.6358</ele>
        <time>2019-11-21T21:27:01Z</time>
      </trkpt>
      <trkpt lat="43.26234538" lon="-2.01761035">
        <ele>74.719055</ele>
        <time>2019-11-21T21:27:02Z</time>
      </trkpt>
      <trkpt lat="43.26216541" lon="-2.01758791">
        <ele>75.20331</ele>
        <time>2019-11-21T21:27:03Z</time>
      </trkpt>
      <trkpt lat="43.26196775" lon="-2.01757897">
        <ele>75.518555</ele>
        <time>2019-11-21T21:27:04Z</time>
      </trkpt>
      <trkpt lat="43.26179458" lon="-2.01756774">
        <ele>74.4776</ele>
        <time>2019-11-21T21:27:05Z</time>
      </trkpt>
      <trkpt lat="43.2616252" lon="-2.01758289">
        <ele>71.11865</ele>
        <time>2019-11-21T21:27:06Z</time>
      </trkpt>
      <trkpt lat="43.26126792" lon="-2.01769082">
        <ele>70.22766</ele>
        <time>2019-11-21T21:27:07Z</time>
      </trkpt>
      <trkpt lat="43.2611009" lon="-2.01775887">
        <ele>69.55188</ele>
        <time>2019-11-21T21:27:08Z</time>
      </trkpt>
      <trkpt lat="43.26093808" lon="-2.01786114">
        <ele>69.28613</ele>
        <time>2019-11-21T21:27:09Z</time>
      </trkpt>
      <trkpt lat="43.26077993" lon="-2.01797473">
        <ele>69.84326</ele>
        <time>2019-11-21T21:27:10Z</time>
      </trkpt>
      <trkpt lat="43.26062396" lon="-2.01811445">
        <ele>68.0968</ele>
        <time>2019-11-21T21:27:11Z</time>
      </trkpt>
      <trkpt lat="43.2604864" lon="-2.01826906">
        <ele>67.91589</ele>
        <time>2019-11-21T21:27:12Z</time>
      </trkpt>
      <trkpt lat="43.26035631" lon="-2.01843365">
        <ele>83.46179</ele>
        <time>2019-11-21T21:27:13Z</time>
      </trkpt>
      <trkpt lat="43.26022269" lon="-2.01861828">
        <ele>79.03241</ele>
        <time>2019-11-21T21:27:14Z</time>
      </trkpt>
      <trkpt lat="43.26009732" lon="-2.01882081">
        <ele>76.69208</ele>
        <time>2019-11-21T21:27:15Z</time>
      </trkpt>
      <trkpt lat="43.25996508" lon="-2.0190215">
        <ele>73.903015</ele>
        <time>2019-11-21T21:27:16Z</time>
      </trkpt>
      <trkpt lat="43.2598367" lon="-2.01921745">
        <ele>73.00415</ele>
        <time>2019-11-21T21:27:17Z</time>
      </trkpt>
      <trkpt lat="43.2597078" lon="-2.0193999">
        <ele>72.523254</ele>
        <time>2019-11-21T21:27:18Z</time>
      </trkpt>
      <trkpt lat="43.25956921" lon="-2.01957702">
        <ele>71.92767</ele>
        <time>2019-11-21T21:27:19Z</time>
      </trkpt>
      <trkpt lat="43.25941067" lon="-2.01972354">
        <ele>71.68964</ele>
        <time>2019-11-21T21:27:20Z</time>
      </trkpt>
      <trkpt lat="43.25924845" lon="-2.0198649">
        <ele>71.5556</ele>
        <time>2019-11-21T21:27:21Z</time>
      </trkpt>
      <trkpt lat="43.25907706" lon="-2.01998491">
        <ele>71.65546</ele>
        <time>2019-11-21T21:27:22Z</time>
      </trkpt>
      <trkpt lat="43.25890521" lon="-2.02008576">
        <ele>71.408264</ele>
        <time>2019-11-21T21:27:23Z</time>
      </trkpt>
      <trkpt lat="43.25872599" lon="-2.02016847">
        <ele>71.81116</ele>
        <time>2019-11-21T21:27:24Z</time>
      </trkpt>
      <trkpt lat="43.25855229" lon="-2.02022295">
        <ele>71.566284</ele>
        <time>2019-11-21T21:27:25Z</time>
      </trkpt>
      <trkpt lat="43.25839137" lon="-2.02025506">
        <ele>71.346375</ele>
        <time>2019-11-21T21:27:26Z</time>
      </trkpt>
      <trkpt lat="43.25821894" lon="-2.02029815">
        <ele>70.15039</ele>
        <time>2019-11-21T21:27:27Z</time>
      </trkpt>
      <trkpt lat="43.25804102" lon="-2.02033369">
        <ele>69.97644</ele>
        <time>2019-11-21T21:27:28Z</time>
      </trkpt>
      <trkpt lat="43.25786499" lon="-2.0203608">
        <ele>69.40448</ele>
        <time>2019-11-21T21:27:30Z</time>
      </trkpt>
      <trkpt lat="43.25768736" lon="-2.02039622">
        <ele>66.920105</ele>
        <time>2019-11-21T21:27:31Z</time>
      </trkpt>
      <trkpt lat="43.25750538" lon="-2.02042837">
        <ele>66.10889</ele>
        <time>2019-11-21T21:27:32Z</time>
      </trkpt>
      <trkpt lat="43.25733193" lon="-2.02046817">
        <ele>66.073425</ele>
        <time>2019-11-21T21:27:33Z</time>
      </trkpt>
      <trkpt lat="43.25715169" lon="-2.02050061">
        <ele>66.679565</ele>
        <time>2019-11-21T21:27:34Z</time>
      </trkpt>
      <trkpt lat="43.25698405" lon="-2.02053958">
        <ele>66.258484</ele>
        <time>2019-11-21T21:27:35Z</time>
      </trkpt>
      <trkpt lat="43.25678743" lon="-2.02058795">
        <ele>65.79974</ele>
        <time>2019-11-21T21:27:36Z</time>
      </trkpt>
      <trkpt lat="43.25660198" lon="-2.02063834">
        <ele>65.52307</ele>
        <time>2019-11-21T21:27:37Z</time>
      </trkpt>
      <trkpt lat="43.25622929" lon="-2.02073534">
        <ele>67.31836</ele>
        <time>2019-11-21T21:27:38Z</time>
      </trkpt>
      <trkpt lat="43.25606129" lon="-2.02079357">
        <ele>67.10486</ele>
        <time>2019-11-21T21:27:39Z</time>
      </trkpt>
      <trkpt lat="43.25588827" lon="-2.02083767">
        <ele>66.14276</ele>
        <time>2019-11-21T21:27:40Z</time>
      </trkpt>
      <trkpt lat="43.25571924" lon="-2.02090391">
        <ele>67.51233</ele>
        <time>2019-11-21T21:27:41Z</time>
      </trkpt>
      <trkpt lat="43.25555219" lon="-2.02096706">
        <ele>67.73224</ele>
        <time>2019-11-21T21:27:42Z</time>
      </trkpt>
      <trkpt lat="43.25537503" lon="-2.02104194">
        <ele>66.3407</ele>
        <time>2019-11-21T21:27:43Z</time>
      </trkpt>
      <trkpt lat="43.25519444" lon="-2.02112282">
        <ele>66.44391</ele>
        <time>2019-11-21T21:27:44Z</time>
      </trkpt>
      <trkpt lat="43.25502932" lon="-2.02120378">
        <ele>65.8031</ele>
        <time>2019-11-21T21:27:45Z</time>
      </trkpt>
      <trkpt lat="43.25485882" lon="-2.02128376">
        <ele>64.23743</ele>
        <time>2019-11-21T21:27:46Z</time>
      </trkpt>
      <trkpt lat="43.25468266" lon="-2.02135851">
        <ele>64.85675</ele>
        <time>2019-11-21T21:27:47Z</time>
      </trkpt>
      <trkpt lat="43.25449861" lon="-2.02145022">
        <ele>66.100525</ele>
        <time>2019-11-21T21:27:48Z</time>
      </trkpt>
      <trkpt lat="43.2543157" lon="-2.02155493">
        <ele>66.22223</ele>
        <time>2019-11-21T21:27:49Z</time>
      </trkpt>
      <trkpt lat="43.25413443" lon="-2.02165313">
        <ele>64.90271</ele>
        <time>2019-11-21T21:27:50Z</time>
      </trkpt>
      <trkpt lat="43.25393909" lon="-2.02174812">
        <ele>65.508606</ele>
        <time>2019-11-21T21:27:51Z</time>
      </trkpt>
      <trkpt lat="43.25375318" lon="-2.02185011">
        <ele>65.00079</ele>
        <time>2019-11-21T21:27:52Z</time>
      </trkpt>
      <trkpt lat="43.25355758" lon="-2.02193813">
        <ele>66.408875</ele>
        <time>2019-11-21T21:27:53Z</time>
      </trkpt>
      <trkpt lat="43.25336505" lon="-2.02203428">
        <ele>66.61572</ele>
        <time>2019-11-21T21:27:54Z</time>
      </trkpt>
      <trkpt lat="43.25318313" lon="-2.02213501">
        <ele>66.61194</ele>
        <time>2019-11-21T21:27:55Z</time>
      </trkpt>
      <trkpt lat="43.25300894" lon="-2.02222019">
        <ele>66.505005</ele>
        <time>2019-11-21T21:27:57Z</time>
      </trkpt>
      <trkpt lat="43.25283431" lon="-2.02229909">
        <ele>66.06799</ele>
        <time>2019-11-21T21:27:58Z</time>
      </trkpt>
      <trkpt lat="43.25265795" lon="-2.02238865">
        <ele>66.46924</ele>
        <time>2019-11-21T21:27:59Z</time>
      </trkpt>
      <trkpt lat="43.25248287" lon="-2.02247166">
        <ele>66.100464</ele>
        <time>2019-11-21T21:28:00Z</time>
      </trkpt>
      <trkpt lat="43.25230553" lon="-2.0225635">
        <ele>66.335815</ele>
        <time>2019-11-21T21:28:01Z</time>
      </trkpt>
      <trkpt lat="43.25212312" lon="-2.02265377">
        <ele>66.66376</ele>
        <time>2019-11-21T21:28:02Z</time>
      </trkpt>
      <trkpt lat="43.25193037" lon="-2.02275175">
        <ele>68.024414</ele>
        <time>2019-11-21T21:28:03Z</time>
      </trkpt>
      <trkpt lat="43.2517373" lon="-2.02284777">
        <ele>69.255066</ele>
        <time>2019-11-21T21:28:04Z</time>
      </trkpt>
      <trkpt lat="43.25153695" lon="-2.02295008">
        <ele>69.353455</ele>
        <time>2019-11-21T21:28:05Z</time>
      </trkpt>
      <trkpt lat="43.25113734" lon="-2.02315059">
        <ele>69.984436</ele>
        <time>2019-11-21T21:28:06Z</time>
      </trkpt>
      <trkpt lat="43.2509359" lon="-2.02325436">
        <ele>70.371704</ele>
        <time>2019-11-21T21:28:07Z</time>
      </trkpt>
      <trkpt lat="43.25074644" lon="-2.02335289">
        <ele>70.68671</ele>
        <time>2019-11-21T21:28:08Z</time>
      </trkpt>
      <trkpt lat="43.25055185" lon="-2.02346157">
        <ele>70.467834</ele>
        <time>2019-11-21T21:28:09Z</time>
      </trkpt>
      <trkpt lat="43.25035313" lon="-2.0235688">
        <ele>70.52173</ele>
        <time>2019-11-21T21:28:10Z</time>
      </trkpt>
      <trkpt lat="43.2501499" lon="-2.02367274">
        <ele>70.641785</ele>
        <time>2019-11-21T21:28:11Z</time>
      </trkpt>
      <trkpt lat="43.24996095" lon="-2.02377749">
        <ele>70.40558</ele>
        <time>2019-11-21T21:28:12Z</time>
      </trkpt>
      <trkpt lat="43.24974941" lon="-2.0238927">
        <ele>70.48871</ele>
        <time>2019-11-21T21:28:13Z</time>
      </trkpt>
      <trkpt lat="43.24955582" lon="-2.02399117">
        <ele>70.37317</ele>
        <time>2019-11-21T21:28:14Z</time>
      </trkpt>
      <trkpt lat="43.24935112" lon="-2.0240906">
        <ele>70.750916</ele>
        <time>2019-11-21T21:28:15Z</time>
      </trkpt>
      <trkpt lat="43.24913822" lon="-2.02418736">
        <ele>71.11627</ele>
        <time>2019-11-21T21:28:16Z</time>
      </trkpt>
      <trkpt lat="43.24891481" lon="-2.02430137">
        <ele>71.23303</ele>
        <time>2019-11-21T21:28:17Z</time>
      </trkpt>
      <trkpt lat="43.24870626" lon="-2.02440097">
        <ele>71.34546</ele>
        <time>2019-11-21T21:28:18Z</time>
      </trkpt>
      <trkpt lat="43.24848313" lon="-2.02450048">
        <ele>72.491455</ele>
        <time>2019-11-21T21:28:19Z</time>
      </trkpt>
      <trkpt lat="43.24825494" lon="-2.02460203">
        <ele>73.50409</ele>
        <time>2019-11-21T21:28:20Z</time>
      </trkpt>
      <trkpt lat="43.24804468" lon="-2.0246813">
        <ele>72.356384</ele>
        <time>2019-11-21T21:28:21Z</time>
      </trkpt>
      <trkpt lat="43.24782805" lon="-2.02475449">
        <ele>71.283264</ele>
        <time>2019-11-21T21:28:22Z</time>
      </trkpt>
      <trkpt lat="43.24759712" lon="-2.02483644">
        <ele>71.54712</ele>
        <time>2019-11-21T21:28:23Z</time>
      </trkpt>
      <trkpt lat="43.24736943" lon="-2.02491288">
        <ele>70.528564</ele>
        <time>2019-11-21T21:28:24Z</time>
      </trkpt>
      <trkpt lat="43.24714051" lon="-2.02499189">
        <ele>70.26483</ele>
        <time>2019-11-21T21:28:25Z</time>
      </trkpt>
      <trkpt lat="43.24691732" lon="-2.02505968">
        <ele>70.63934</ele>
        <time>2019-11-21T21:28:26Z</time>
      </trkpt>
      <trkpt lat="43.24670346" lon="-2.02509789">
        <ele>70.19458</ele>
        <time>2019-11-21T21:28:27Z</time>
      </trkpt>
      <trkpt lat="43.24647444" lon="-2.02514835">
        <ele>70.56152</ele>
        <time>2019-11-21T21:28:29Z</time>
      </trkpt>
      <trkpt lat="43.24624782" lon="-2.02518313">
        <ele>70.82495</ele>
        <time>2019-11-21T21:28:30Z</time>
      </trkpt>
      <trkpt lat="43.24602346" lon="-2.02522227">
        <ele>71.49164</ele>
        <time>2019-11-21T21:28:31Z</time>
      </trkpt>
      <trkpt lat="43.24580129" lon="-2.02526512">
        <ele>72.50806</ele>
        <time>2019-11-21T21:28:32Z</time>
      </trkpt>
      <trkpt lat="43.24558354" lon="-2.02531889">
        <ele>74.243774</ele>
        <time>2019-11-21T21:28:33Z</time>
      </trkpt>
      <trkpt lat="43.24537425" lon="-2.02538056">
        <ele>73.940674</ele>
        <time>2019-11-21T21:28:34Z</time>
      </trkpt>
      <trkpt lat="43.24516878" lon="-2.02545454">
        <ele>73.53888</ele>
        <time>2019-11-21T21:28:35Z</time>
      </trkpt>
      <trkpt lat="43.24476531" lon="-2.02565952">
        <ele>73.66345</ele>
        <time>2019-11-21T21:28:36Z</time>
      </trkpt>
      <trkpt lat="43.24458136" lon="-2.02579056">
        <ele>72.34149</ele>
        <time>2019-11-21T21:28:37Z</time>
      </trkpt>
      <trkpt lat="43.24439701" lon="-2.02595337">
        <ele>72.939575</ele>
        <time>2019-11-21T21:28:38Z</time>
      </trkpt>
      <trkpt lat="43.2442397" lon="-2.02611767">
        <ele>70.61304</ele>
        <time>2019-11-21T21:28:39Z</time>
      </trkpt>
      <trkpt lat="43.24407417" lon="-2.02632603">
        <ele>70.86688</ele>
        <time>2019-11-21T21:28:40Z</time>
      </trkpt>
      <trkpt lat="43.24391571" lon="-2.02656029">
        <ele>71.71106</ele>
        <time>2019-11-21T21:28:41Z</time>
      </trkpt>
      <trkpt lat="43.243769" lon="-2.02680459">
        <ele>72.524536</ele>
        <time>2019-11-21T21:28:42Z</time>
      </trkpt>
      <trkpt lat="43.24365237" lon="-2.02708553">
        <ele>71.8006</ele>
        <time>2019-11-21T21:28:43Z</time>
      </trkpt>
      <trkpt lat="43.24352903" lon="-2.02738695">
        <ele>72.91766</ele>
        <time>2019-11-21T21:28:44Z</time>
      </trkpt>
      <trkpt lat="43.24341641" lon="-2.02767603">
        <ele>70.97766</ele>
        <time>2019-11-21T21:28:45Z</time>
      </trkpt>
      <trkpt lat="43.24330389" lon="-2.02797461">
        <ele>70.86456</ele>
        <time>2019-11-21T21:28:46Z</time>
      </trkpt>
      <trkpt lat="43.24318594" lon="-2.02827104">
        <ele>71.41754</ele>
        <time>2019-11-21T21:28:47Z</time>
      </trkpt>
      <trkpt lat="43.2430725" lon="-2.02855834">
        <ele>71.87323</ele>
        <time>2019-11-21T21:28:48Z</time>
      </trkpt>
      <trkpt lat="43.24295543" lon="-2.02883641">
        <ele>73.018555</ele>
        <time>2019-11-21T21:28:49Z</time>
      </trkpt>
      <trkpt lat="43.24283166" lon="-2.02909619">
        <ele>74.076355</ele>
        <time>2019-11-21T21:28:50Z</time>
      </trkpt>
      <trkpt lat="43.2426918" lon="-2.02934196">
        <ele>75.288025</ele>
        <time>2019-11-21T21:28:51Z</time>
      </trkpt>
      <trkpt lat="43.24254213" lon="-2.02957791">
        <ele>76.08783</ele>
        <time>2019-11-21T21:28:52Z</time>
      </trkpt>
      <trkpt lat="43.24237428" lon="-2.02978628">
        <ele>76.7276</ele>
        <time>2019-11-21T21:28:53Z</time>
      </trkpt>
      <trkpt lat="43.24218127" lon="-2.02997716">
        <ele>77.59033</ele>
        <time>2019-11-21T21:28:54Z</time>
      </trkpt>
      <trkpt lat="43.24198908" lon="-2.03013543">
        <ele>78.74805</ele>
        <time>2019-11-21T21:28:56Z</time>
      </trkpt>
      <trkpt lat="43.24178436" lon="-2.03025904">
        <ele>79.13098</ele>
        <time>2019-11-21T21:28:57Z</time>
      </trkpt>
      <trkpt lat="43.24156569" lon="-2.03035935">
        <ele>79.01068</ele>
        <time>2019-11-21T21:28:58Z</time>
      </trkpt>
      <trkpt lat="43.24136508" lon="-2.03041803">
        <ele>78.50403</ele>
        <time>2019-11-21T21:28:59Z</time>
      </trkpt>
      <trkpt lat="43.24114477" lon="-2.03045129">
        <ele>78.98688</ele>
        <time>2019-11-21T21:29:00Z</time>
      </trkpt>
      <trkpt lat="43.24094905" lon="-2.03045714">
        <ele>77.39526</ele>
        <time>2019-11-21T21:29:01Z</time>
      </trkpt>
      <trkpt lat="43.24074307" lon="-2.0304576">
        <ele>77.06329</ele>
        <time>2019-11-21T21:29:02Z</time>
      </trkpt>
      <trkpt lat="43.24049267" lon="-2.03043896">
        <ele>77.56061</ele>
        <time>2019-11-21T21:29:03Z</time>
      </trkpt>
      <trkpt lat="43.24003234" lon="-2.0304339">
        <ele>78.06799</ele>
        <time>2019-11-21T21:29:04Z</time>
      </trkpt>
      <trkpt lat="43.23983529" lon="-2.03044301">
        <ele>76.70691</ele>
        <time>2019-11-21T21:29:05Z</time>
      </trkpt>
      <trkpt lat="43.23961391" lon="-2.03050552">
        <ele>75.47833</ele>
        <time>2019-11-21T21:29:06Z</time>
      </trkpt>
      <trkpt lat="43.23938795" lon="-2.03059237">
        <ele>77.76691</ele>
        <time>2019-11-21T21:29:07Z</time>
      </trkpt>
      <trkpt lat="43.23915942" lon="-2.03069713">
        <ele>79.78052</ele>
        <time>2019-11-21T21:29:08Z</time>
      </trkpt>
      <trkpt lat="43.23895375" lon="-2.0308125">
        <ele>81.62659</ele>
        <time>2019-11-21T21:29:09Z</time>
      </trkpt>
      <trkpt lat="43.23873421" lon="-2.03092273">
        <ele>82.98047</ele>
        <time>2019-11-21T21:29:10Z</time>
      </trkpt>
      <trkpt lat="43.23851878" lon="-2.0310118">
        <ele>82.453674</ele>
        <time>2019-11-21T21:29:11Z</time>
      </trkpt>
      <trkpt lat="43.23830414" lon="-2.0310722">
        <ele>81.56317</ele>
        <time>2019-11-21T21:29:12Z</time>
      </trkpt>
      <trkpt lat="43.2380884" lon="-2.03111232">
        <ele>76.54852</ele>
        <time>2019-11-21T21:29:13Z</time>
      </trkpt>
      <trkpt lat="43.23787609" lon="-2.03112956">
        <ele>75.54639</ele>
        <time>2019-11-21T21:29:14Z</time>
      </trkpt>
      <trkpt lat="43.23762594" lon="-2.03114155">
        <ele>76.89838</ele>
        <time>2019-11-21T21:29:15Z</time>
      </trkpt>
      <trkpt lat="43.23738164" lon="-2.03113667">
        <ele>77.80499</ele>
        <time>2019-11-21T21:29:16Z</time>
      </trkpt>
      <trkpt lat="43.23712667" lon="-2.03112668">
        <ele>77.913574</ele>
        <time>2019-11-21T21:29:17Z</time>
      </trkpt>
      <trkpt lat="43.23689377" lon="-2.03109874">
        <ele>78.27911</ele>
        <time>2019-11-21T21:29:18Z</time>
      </trkpt>
      <trkpt lat="43.23668094" lon="-2.03103791">
        <ele>77.697815</ele>
        <time>2019-11-21T21:29:19Z</time>
      </trkpt>
      <trkpt lat="43.23646463" lon="-2.03097334">
        <ele>77.60828</ele>
        <time>2019-11-21T21:29:20Z</time>
      </trkpt>
      <trkpt lat="43.23628724" lon="-2.0308387">
        <ele>75.558716</ele>
        <time>2019-11-21T21:29:21Z</time>
      </trkpt>
      <trkpt lat="43.23606298" lon="-2.03071028">
        <ele>76.98511</ele>
        <time>2019-11-21T21:29:22Z</time>
      </trkpt>
      <trkpt lat="43.23586215" lon="-2.03055399">
        <ele>78.04559</ele>
        <time>2019-11-21T21:29:23Z</time>
      </trkpt>
      <trkpt lat="43.2356633" lon="-2.03038564">
        <ele>79.2879</ele>
        <time>2019-11-21T21:29:24Z</time>
      </trkpt>
      <trkpt lat="43.23547744" lon="-2.03017943">
        <ele>79.276245</ele>
        <time>2019-11-21T21:29:25Z</time>
      </trkpt>
      <trkpt lat="43.23527134" lon="-2.02996344">
        <ele>79.69446</ele>
        <time>2019-11-21T21:29:27Z</time>
      </trkpt>
      <trkpt lat="43.23508126" lon="-2.0297462">
        <ele>80.06604</ele>
        <time>2019-11-21T21:29:28Z</time>
      </trkpt>
      <trkpt lat="43.2348937" lon="-2.02952227">
        <ele>81.04376</ele>
        <time>2019-11-21T21:29:29Z</time>
      </trkpt>
      <trkpt lat="43.23471428" lon="-2.02930766">
        <ele>80.25415</ele>
        <time>2019-11-21T21:29:30Z</time>
      </trkpt>
      <trkpt lat="43.23454479" lon="-2.0291033">
        <ele>80.48169</ele>
        <time>2019-11-21T21:29:31Z</time>
      </trkpt>
      <trkpt lat="43.23436602" lon="-2.02888666">
        <ele>81.36932</ele>
        <time>2019-11-21T21:29:32Z</time>
      </trkpt>
      <trkpt lat="43.23419828" lon="-2.02864812">
        <ele>81.324646</ele>
        <time>2019-11-21T21:29:33Z</time>
      </trkpt>
      <trkpt lat="43.23402313" lon="-2.02840369">
        <ele>80.73645</ele>
        <time>2019-11-21T21:29:34Z</time>
      </trkpt>
      <trkpt lat="43.23373156" lon="-2.0279016">
        <ele>81.20343</ele>
        <time>2019-11-21T21:29:35Z</time>
      </trkpt>
      <trkpt lat="43.233597" lon="-2.02764778">
        <ele>80.30145</ele>
        <time>2019-11-21T21:29:36Z</time>
      </trkpt>
      <trkpt lat="43.23345538" lon="-2.0273923">
        <ele>80.368286</ele>
        <time>2019-11-21T21:29:37Z</time>
      </trkpt>
      <trkpt lat="43.23330939" lon="-2.02718415">
        <ele>80.87189</ele>
        <time>2019-11-21T21:29:38Z</time>
      </trkpt>
      <trkpt lat="43.23315124" lon="-2.02700646">
        <ele>82.11536</ele>
        <time>2019-11-21T21:29:39Z</time>
      </trkpt>
      <trkpt lat="43.23298299" lon="-2.02683494">
        <ele>81.68811</ele>
        <time>2019-11-21T21:29:40Z</time>
      </trkpt>
      <trkpt lat="43.2327838" lon="-2.02671875">
        <ele>81.370605</ele>
        <time>2019-11-21T21:29:41Z</time>
      </trkpt>
      <trkpt lat="43.23258471" lon="-2.02663997">
        <ele>80.87036</ele>
        <time>2019-11-21T21:29:42Z</time>
      </trkpt>
      <trkpt lat="43.2323956" lon="-2.02658181">
        <ele>80.186035</ele>
        <time>2019-11-21T21:29:43Z</time>
      </trkpt>
      <trkpt lat="43.23218639" lon="-2.02650961">
        <ele>78.011536</ele>
        <time>2019-11-21T21:29:44Z</time>
      </trkpt>
      <trkpt lat="43.23195754" lon="-2.02647981">
        <ele>78.93042</ele>
        <time>2019-11-21T21:29:45Z</time>
      </trkpt>
      <trkpt lat="43.23171672" lon="-2.02645316">
        <ele>79.4917</ele>
        <time>2019-11-21T21:29:46Z</time>
      </trkpt>
      <trkpt lat="43.23149404" lon="-2.02646675">
        <ele>80.227295</ele>
        <time>2019-11-21T21:29:47Z</time>
      </trkpt>
      <trkpt lat="43.23128288" lon="-2.02649226">
        <ele>80.632324</ele>
        <time>2019-11-21T21:29:48Z</time>
      </trkpt>
      <trkpt lat="43.23102593" lon="-2.02654013">
        <ele>79.822754</ele>
        <time>2019-11-21T21:29:49Z</time>
      </trkpt>
      <trkpt lat="43.23077324" lon="-2.02661008">
        <ele>79.43872</ele>
        <time>2019-11-21T21:29:50Z</time>
      </trkpt>
      <trkpt lat="43.23054799" lon="-2.02665526">
        <ele>79.65704</ele>
        <time>2019-11-21T21:29:51Z</time>
      </trkpt>
      <trkpt lat="43.2303107" lon="-2.02669162">
        <ele>79.785095</ele>
        <time>2019-11-21T21:29:52Z</time>
      </trkpt>
      <trkpt lat="43.23008" lon="-2.02673722">
        <ele>78.63202</ele>
        <time>2019-11-21T21:29:53Z</time>
      </trkpt>
      <trkpt lat="43.22983814" lon="-2.02676418">
        <ele>76.883484</ele>
        <time>2019-11-21T21:29:54Z</time>
      </trkpt>
      <trkpt lat="43.22962969" lon="-2.02675707">
        <ele>73.25525</ele>
        <time>2019-11-21T21:29:56Z</time>
      </trkpt>
      <trkpt lat="43.229388" lon="-2.02673326">
        <ele>74.199585</ele>
        <time>2019-11-21T21:29:57Z</time>
      </trkpt>
      <trkpt lat="43.22914901" lon="-2.02669333">
        <ele>74.35968</ele>
        <time>2019-11-21T21:29:58Z</time>
      </trkpt>
      <trkpt lat="43.22890298" lon="-2.02665977">
        <ele>72.994934</ele>
        <time>2019-11-21T21:29:59Z</time>
      </trkpt>
      <trkpt lat="43.22867122" lon="-2.02660264">
        <ele>73.71564</ele>
        <time>2019-11-21T21:30:00Z</time>
      </trkpt>
      <trkpt lat="43.22844316" lon="-2.02653541">
        <ele>74.96765</ele>
        <time>2019-11-21T21:30:01Z</time>
      </trkpt>
      <trkpt lat="43.22821994" lon="-2.02647421">
        <ele>74.49646</ele>
        <time>2019-11-21T21:30:02Z</time>
      </trkpt>
      <trkpt lat="43.22800325" lon="-2.02640592">
        <ele>74.079834</ele>
        <time>2019-11-21T21:30:03Z</time>
      </trkpt>
      <trkpt lat="43.22755328" lon="-2.0262503">
        <ele>78.08264</ele>
        <time>2019-11-21T21:30:04Z</time>
      </trkpt>
      <trkpt lat="43.22732546" lon="-2.02616653">
        <ele>78.26428</ele>
        <time>2019-11-21T21:30:05Z</time>
      </trkpt>
      <trkpt lat="43.22710347" lon="-2.02609727">
        <ele>79.29797</ele>
        <time>2019-11-21T21:30:06Z</time>
      </trkpt>
      <trkpt lat="43.22688339" lon="-2.02603818">
        <ele>80.11145</ele>
        <time>2019-11-21T21:30:07Z</time>
      </trkpt>
      <trkpt lat="43.2266576" lon="-2.02600295">
        <ele>79.86151</ele>
        <time>2019-11-21T21:30:08Z</time>
      </trkpt>
      <trkpt lat="43.22643591" lon="-2.02597293">
        <ele>79.64545</ele>
        <time>2019-11-21T21:30:09Z</time>
      </trkpt>
      <trkpt lat="43.2262142" lon="-2.0259539">
        <ele>78.914734</ele>
        <time>2019-11-21T21:30:10Z</time>
      </trkpt>
      <trkpt lat="43.22600043" lon="-2.025942">
        <ele>77.55115</ele>
        <time>2019-11-21T21:30:11Z</time>
      </trkpt>
      <trkpt lat="43.22577893" lon="-2.02594494">
        <ele>76.76715</ele>
        <time>2019-11-21T21:30:12Z</time>
      </trkpt>
      <trkpt lat="43.22554908" lon="-2.02594801">
        <ele>76.34955</ele>
        <time>2019-11-21T21:30:13Z</time>
      </trkpt>
      <trkpt lat="43.22530665" lon="-2.02594887">
        <ele>77.43506</ele>
        <time>2019-11-21T21:30:14Z</time>
      </trkpt>
      <trkpt lat="43.22507212" lon="-2.0259288">
        <ele>77.680176</ele>
        <time>2019-11-21T21:30:15Z</time>
      </trkpt>
      <trkpt lat="43.22483656" lon="-2.02590689">
        <ele>77.66547</ele>
        <time>2019-11-21T21:30:16Z</time>
      </trkpt>
      <trkpt lat="43.22459832" lon="-2.02589957">
        <ele>77.00769</ele>
        <time>2019-11-21T21:30:17Z</time>
      </trkpt>
      <trkpt lat="43.22434868" lon="-2.02587333">
        <ele>76.87341</ele>
        <time>2019-11-21T21:30:18Z</time>
      </trkpt>
      <trkpt lat="43.22410981" lon="-2.02584677">
        <ele>77.341125</ele>
        <time>2019-11-21T21:30:19Z</time>
      </trkpt>
      <trkpt lat="43.22386853" lon="-2.02581146">
        <ele>77.937805</ele>
        <time>2019-11-21T21:30:20Z</time>
      </trkpt>
      <trkpt lat="43.22363086" lon="-2.02578281">
        <ele>77.94537</ele>
        <time>2019-11-21T21:30:21Z</time>
      </trkpt>
      <trkpt lat="43.22339117" lon="-2.02573436">
        <ele>78.75708</ele>
        <time>2019-11-21T21:30:22Z</time>
      </trkpt>
      <trkpt lat="43.22315468" lon="-2.02568617">
        <ele>79.66608</ele>
        <time>2019-11-21T21:30:23Z</time>
      </trkpt>
      <trkpt lat="43.22291397" lon="-2.02564439">
        <ele>79.66028</ele>
        <time>2019-11-21T21:30:24Z</time>
      </trkpt>
      <trkpt lat="43.22266844" lon="-2.02559533">
        <ele>80.52771</ele>
        <time>2019-11-21T21:30:26Z</time>
      </trkpt>
      <trkpt lat="43.2224301" lon="-2.02553142">
        <ele>81.553955</ele>
        <time>2019-11-21T21:30:27Z</time>
      </trkpt>
      <trkpt lat="43.22220997" lon="-2.02546006">
        <ele>81.37622</ele>
        <time>2019-11-21T21:30:28Z</time>
      </trkpt>
      <trkpt lat="43.22195735" lon="-2.02538687">
        <ele>81.534424</ele>
        <time>2019-11-21T21:30:29Z</time>
      </trkpt>
      <trkpt lat="43.2217157" lon="-2.02532429">
        <ele>81.4588</ele>
        <time>2019-11-21T21:30:30Z</time>
      </trkpt>
      <trkpt lat="43.22147576" lon="-2.02525108">
        <ele>81.6543</ele>
        <time>2019-11-21T21:30:31Z</time>
      </trkpt>
      <trkpt lat="43.22123334" lon="-2.02518122">
        <ele>83.378845</ele>
        <time>2019-11-21T21:30:32Z</time>
      </trkpt>
      <trkpt lat="43.22075743" lon="-2.02506914">
        <ele>85.53229</ele>
        <time>2019-11-21T21:30:33Z</time>
      </trkpt>
      <trkpt lat="43.22051197" lon="-2.02503154">
        <ele>85.25067</ele>
        <time>2019-11-21T21:30:34Z</time>
      </trkpt>
      <trkpt lat="43.22027686" lon="-2.02499331">
        <ele>85.85077</ele>
        <time>2019-11-21T21:30:35Z</time>
      </trkpt>
      <trkpt lat="43.22004575" lon="-2.02496625">
        <ele>86.27344</ele>
        <time>2019-11-21T21:30:36Z</time>
      </trkpt>
      <trkpt lat="43.21980876" lon="-2.02493347">
        <ele>86.0188</ele>
        <time>2019-11-21T21:30:37Z</time>
      </trkpt>
      <trkpt lat="43.21957699" lon="-2.0249037">
        <ele>86.20227</ele>
        <time>2019-11-21T21:30:38Z</time>
      </trkpt>
      <trkpt lat="43.21933162" lon="-2.02488783">
        <ele>86.67517</ele>
        <time>2019-11-21T21:30:39Z</time>
      </trkpt>
      <trkpt lat="43.21909149" lon="-2.02489132">
        <ele>87.14783</ele>
        <time>2019-11-21T21:30:40Z</time>
      </trkpt>
      <trkpt lat="43.21885927" lon="-2.02489862">
        <ele>86.78711</ele>
        <time>2019-11-21T21:30:41Z</time>
      </trkpt>
      <trkpt lat="43.21862014" lon="-2.02490389">
        <ele>84.96271</ele>
        <time>2019-11-21T21:30:42Z</time>
      </trkpt>
      <trkpt lat="43.21839482" lon="-2.02489344">
        <ele>84.79425</ele>
        <time>2019-11-21T21:30:43Z</time>
      </trkpt>
      <trkpt lat="43.21817528" lon="-2.02490558">
        <ele>85.148926</ele>
        <time>2019-11-21T21:30:44Z</time>
      </trkpt>
      <trkpt lat="43.2179459" lon="-2.02493247">
        <ele>86.08386</ele>
        <time>2019-11-21T21:30:45Z</time>
      </trkpt>
      <trkpt lat="43.21771949" lon="-2.02495336">
        <ele>86.84326</ele>
        <time>2019-11-21T21:30:46Z</time>
      </trkpt>
      <trkpt lat="43.21751956" lon="-2.02496848">
        <ele>88.37689</ele>
        <time>2019-11-21T21:30:47Z</time>
      </trkpt>
      <trkpt lat="43.21733446" lon="-2.02496619">
        <ele>88.19623</ele>
        <time>2019-11-21T21:30:48Z</time>
      </trkpt>
      <trkpt lat="43.21713512" lon="-2.0249508">
        <ele>88.65509</ele>
        <time>2019-11-21T21:30:49Z</time>
      </trkpt>
      <trkpt lat="43.21693232" lon="-2.0249147">
        <ele>89.20953</ele>
        <time>2019-11-21T21:30:50Z</time>
      </trkpt>
      <trkpt lat="43.21673824" lon="-2.02486603">
        <ele>88.81006</ele>
        <time>2019-11-21T21:30:51Z</time>
      </trkpt>
      <trkpt lat="43.21655092" lon="-2.0248023">
        <ele>88.66913</ele>
        <time>2019-11-21T21:30:52Z</time>
      </trkpt>
      <trkpt lat="43.21637228" lon="-2.02472272">
        <ele>89.513916</ele>
        <time>2019-11-21T21:30:53Z</time>
      </trkpt>
      <trkpt lat="43.21620254" lon="-2.0246371">
        <ele>89.49902</ele>
        <time>2019-11-21T21:30:55Z</time>
      </trkpt>
      <trkpt lat="43.21602092" lon="-2.02455471">
        <ele>88.8573</ele>
        <time>2019-11-21T21:30:56Z</time>
      </trkpt>
      <trkpt lat="43.21584764" lon="-2.02448721">
        <ele>88.341064</ele>
        <time>2019-11-21T21:30:57Z</time>
      </trkpt>
      <trkpt lat="43.215682" lon="-2.02444125">
        <ele>87.81824</ele>
        <time>2019-11-21T21:30:58Z</time>
      </trkpt>
      <trkpt lat="43.21549352" lon="-2.02441274">
        <ele>87.64484</ele>
        <time>2019-11-21T21:30:59Z</time>
      </trkpt>
      <trkpt lat="43.21534274" lon="-2.02441111">
        <ele>88.2782</ele>
        <time>2019-11-21T21:31:00Z</time>
      </trkpt>
      <trkpt lat="43.21516582" lon="-2.02445548">
        <ele>86.83026</ele>
        <time>2019-11-21T21:31:01Z</time>
      </trkpt>
      <trkpt lat="43.21485142" lon="-2.02457268">
        <ele>87.55371</ele>
        <time>2019-11-21T21:31:02Z</time>
      </trkpt>
      <trkpt lat="43.2147032" lon="-2.02467874">
        <ele>86.83826</ele>
        <time>2019-11-21T21:31:03Z</time>
      </trkpt>
      <trkpt lat="43.21452792" lon="-2.02484626">
        <ele>85.6864</ele>
        <time>2019-11-21T21:31:04Z</time>
      </trkpt>
      <trkpt lat="43.21437794" lon="-2.02501687">
        <ele>86.20453</ele>
        <time>2019-11-21T21:31:05Z</time>
      </trkpt>
      <trkpt lat="43.21425045" lon="-2.02519164">
        <ele>87.04248</ele>
        <time>2019-11-21T21:31:06Z</time>
      </trkpt>
      <trkpt lat="43.21413695" lon="-2.02540308">
        <ele>87.616455</ele>
        <time>2019-11-21T21:31:07Z</time>
      </trkpt>
      <trkpt lat="43.21406423" lon="-2.02561099">
        <ele>88.04822</ele>
        <time>2019-11-21T21:31:08Z</time>
      </trkpt>
      <trkpt lat="43.21399763" lon="-2.02584922">
        <ele>88.520325</ele>
        <time>2019-11-21T21:31:09Z</time>
      </trkpt>
      <trkpt lat="43.21394307" lon="-2.02611197">
        <ele>89.010864</ele>
        <time>2019-11-21T21:31:10Z</time>
      </trkpt>
      <trkpt lat="43.21388398" lon="-2.02635613">
        <ele>88.60773</ele>
        <time>2019-11-21T21:31:11Z</time>
      </trkpt>
      <trkpt lat="43.21380698" lon="-2.02661316">
        <ele>88.578735</ele>
        <time>2019-11-21T21:31:12Z</time>
      </trkpt>
      <trkpt lat="43.21375132" lon="-2.02687887">
        <ele>87.74115</ele>
        <time>2019-11-21T21:31:13Z</time>
      </trkpt>
      <trkpt lat="43.21368198" lon="-2.0271495">
        <ele>88.09766</ele>
        <time>2019-11-21T21:31:14Z</time>
      </trkpt>
      <trkpt lat="43.21361036" lon="-2.02740822">
        <ele>88.30206</ele>
        <time>2019-11-21T21:31:15Z</time>
      </trkpt>
      <trkpt lat="43.21354649" lon="-2.02765413">
        <ele>87.322205</ele>
        <time>2019-11-21T21:31:16Z</time>
      </trkpt>
      <trkpt lat="43.2134835" lon="-2.02788742">
        <ele>86.42755</ele>
        <time>2019-11-21T21:31:17Z</time>
      </trkpt>
      <trkpt lat="43.21340684" lon="-2.02814142">
        <ele>86.97089</ele>
        <time>2019-11-21T21:31:18Z</time>
      </trkpt>
      <trkpt lat="43.21333747" lon="-2.02837657">
        <ele>86.43573</ele>
        <time>2019-11-21T21:31:19Z</time>
      </trkpt>
      <trkpt lat="43.21326204" lon="-2.02861493">
        <ele>85.85968</ele>
        <time>2019-11-21T21:31:20Z</time>
      </trkpt>
      <trkpt lat="43.21318518" lon="-2.02886723">
        <ele>86.38983</ele>
        <time>2019-11-21T21:31:21Z</time>
      </trkpt>
      <trkpt lat="43.21310653" lon="-2.02909585">
        <ele>86.94049</ele>
        <time>2019-11-21T21:31:22Z</time>
      </trkpt>
      <trkpt lat="43.2130321" lon="-2.02932468">
        <ele>85.86188</ele>
        <time>2019-11-21T21:31:23Z</time>
      </trkpt>
      <trkpt lat="43.21295915" lon="-2.02957123">
        <ele>84.90411</ele>
        <time>2019-11-21T21:31:24Z</time>
      </trkpt>
      <trkpt lat="43.21287275" lon="-2.02983643">
        <ele>86.01233</ele>
        <time>2019-11-21T21:31:26Z</time>
      </trkpt>
      <trkpt lat="43.21279529" lon="-2.03009106">
        <ele>85.8053</ele>
        <time>2019-11-21T21:31:27Z</time>
      </trkpt>
      <trkpt lat="43.21270868" lon="-2.03033735">
        <ele>85.645996</ele>
        <time>2019-11-21T21:31:28Z</time>
      </trkpt>
      <trkpt lat="43.21261376" lon="-2.03055442">
        <ele>85.35608</ele>
        <time>2019-11-21T21:31:29Z</time>
      </trkpt>
      <trkpt lat="43.21251307" lon="-2.03078629">
        <ele>85.77307</ele>
        <time>2019-11-21T21:31:30Z</time>
      </trkpt>
      <trkpt lat="43.21241519" lon="-2.0309953">
        <ele>84.09918</ele>
        <time>2019-11-21T21:31:31Z</time>
      </trkpt>
      <trkpt lat="43.21230402" lon="-2.03123213">
        <ele>83.89453</ele>
        <time>2019-11-21T21:31:32Z</time>
      </trkpt>
      <trkpt lat="43.21209449" lon="-2.03171679">
        <ele>84.68524</ele>
        <time>2019-11-21T21:31:33Z</time>
      </trkpt>
      <trkpt lat="43.21198076" lon="-2.03194632">
        <ele>85.52344</ele>
        <time>2019-11-21T21:31:34Z</time>
      </trkpt>
      <trkpt lat="43.2118788" lon="-2.0321737">
        <ele>83.06738</ele>
        <time>2019-11-21T21:31:35Z</time>
      </trkpt>
      <trkpt lat="43.211767" lon="-2.03238918">
        <ele>82.24097</ele>
        <time>2019-11-21T21:31:36Z</time>
      </trkpt>
      <trkpt lat="43.21163446" lon="-2.0325934">
        <ele>82.29883</ele>
        <time>2019-11-21T21:31:37Z</time>
      </trkpt>
      <trkpt lat="43.21149054" lon="-2.03280084">
        <ele>83.69214</ele>
        <time>2019-11-21T21:31:38Z</time>
      </trkpt>
      <trkpt lat="43.21133463" lon="-2.03298862">
        <ele>84.599</ele>
        <time>2019-11-21T21:31:39Z</time>
      </trkpt>
      <trkpt lat="43.21117509" lon="-2.03316457">
        <ele>85.41406</ele>
        <time>2019-11-21T21:31:40Z</time>
      </trkpt>
      <trkpt lat="43.21103043" lon="-2.03334704">
        <ele>83.084656</ele>
        <time>2019-11-21T21:31:41Z</time>
      </trkpt>
      <trkpt lat="43.21086202" lon="-2.03351112">
        <ele>83.28107</ele>
        <time>2019-11-21T21:31:42Z</time>
      </trkpt>
      <trkpt lat="43.21068629" lon="-2.03367838">
        <ele>84.480225</ele>
        <time>2019-11-21T21:31:43Z</time>
      </trkpt>
      <trkpt lat="43.2105063" lon="-2.03383994">
        <ele>86.59039</ele>
        <time>2019-11-21T21:31:44Z</time>
      </trkpt>
      <trkpt lat="43.21032518" lon="-2.03397668">
        <ele>87.19653</ele>
        <time>2019-11-21T21:31:45Z</time>
      </trkpt>
      <trkpt lat="43.21013853" lon="-2.03411822">
        <ele>88.00769</ele>
        <time>2019-11-21T21:31:46Z</time>
      </trkpt>
      <trkpt lat="43.20995693" lon="-2.03425783">
        <ele>89.329346</ele>
        <time>2019-11-21T21:31:47Z</time>
      </trkpt>
      <trkpt lat="43.20978531" lon="-2.03439651">
        <ele>89.52399</ele>
        <time>2019-11-21T21:31:48Z</time>
      </trkpt>
      <trkpt lat="43.2096134" lon="-2.03453702">
        <ele>90.67798</ele>
        <time>2019-11-21T21:31:49Z</time>
      </trkpt>
      <trkpt lat="43.20944818" lon="-2.03467125">
        <ele>88.84985</ele>
        <time>2019-11-21T21:31:50Z</time>
      </trkpt>
      <trkpt lat="43.20926899" lon="-2.03480578">
        <ele>88.456116</ele>
        <time>2019-11-21T21:31:51Z</time>
      </trkpt>
      <trkpt lat="43.2090941" lon="-2.03492807">
        <ele>88.19891</ele>
        <time>2019-11-21T21:31:52Z</time>
      </trkpt>
      <trkpt lat="43.20890029" lon="-2.03507721">
        <ele>89.395386</ele>
        <time>2019-11-21T21:31:53Z</time>
      </trkpt>
      <trkpt lat="43.20871708" lon="-2.03521424">
        <ele>89.56464</ele>
        <time>2019-11-21T21:31:54Z</time>
      </trkpt>
      <trkpt lat="43.20852442" lon="-2.03536202">
        <ele>89.64636</ele>
        <time>2019-11-21T21:31:55Z</time>
      </trkpt>
      <trkpt lat="43.20834053" lon="-2.03549274">
        <ele>90.37439</ele>
        <time>2019-11-21T21:31:57Z</time>
      </trkpt>
      <trkpt lat="43.20816222" lon="-2.03562714">
        <ele>90.69476</ele>
        <time>2019-11-21T21:31:58Z</time>
      </trkpt>
      <trkpt lat="43.2079817" lon="-2.03575511">
        <ele>90.194214</ele>
        <time>2019-11-21T21:31:59Z</time>
      </trkpt>
      <trkpt lat="43.20780766" lon="-2.03589855">
        <ele>91.21161</ele>
        <time>2019-11-21T21:32:00Z</time>
      </trkpt>
      <trkpt lat="43.20761993" lon="-2.0360621">
        <ele>92.465576</ele>
        <time>2019-11-21T21:32:01Z</time>
      </trkpt>
      <trkpt lat="43.20743085" lon="-2.03620656">
        <ele>92.892456</ele>
        <time>2019-11-21T21:32:02Z</time>
      </trkpt>
      <trkpt lat="43.20726288" lon="-2.03630851">
        <ele>90.955444</ele>
        <time>2019-11-21T21:32:03Z</time>
      </trkpt>
      <trkpt lat="43.20707891" lon="-2.03643507">
        <ele>89.76007</ele>
        <time>2019-11-21T21:32:04Z</time>
      </trkpt>
      <trkpt lat="43.20687657" lon="-2.03654994">
        <ele>88.76843</ele>
        <time>2019-11-21T21:32:05Z</time>
      </trkpt>
      <trkpt lat="43.20666617" lon="-2.03658899">
        <ele>87.01654</ele>
        <time>2019-11-21T21:32:06Z</time>
      </trkpt>
      <trkpt lat="43.20623275" lon="-2.0366814">
        <ele>87.13806</ele>
        <time>2019-11-21T21:32:07Z</time>
      </trkpt>
      <trkpt lat="43.20600386" lon="-2.03671223">
        <ele>87.919495</ele>
        <time>2019-11-21T21:32:08Z</time>
      </trkpt>
      <trkpt lat="43.20578344" lon="-2.0367458">
        <ele>88.44385</ele>
        <time>2019-11-21T21:32:09Z</time>
      </trkpt>
      <trkpt lat="43.20556104" lon="-2.03677403">
        <ele>88.02026</ele>
        <time>2019-11-21T21:32:10Z</time>
      </trkpt>
      <trkpt lat="43.20532692" lon="-2.0368053">
        <ele>89.85669</ele>
        <time>2019-11-21T21:32:11Z</time>
      </trkpt>
      <trkpt lat="43.20510338" lon="-2.03684528">
        <ele>91.9834</ele>
        <time>2019-11-21T21:32:12Z</time>
      </trkpt>
      <trkpt lat="43.20486451" lon="-2.03689265">
        <ele>94.59412</ele>
        <time>2019-11-21T21:32:13Z</time>
      </trkpt>
      <trkpt lat="43.20464222" lon="-2.0369632">
        <ele>95.87738</ele>
        <time>2019-11-21T21:32:14Z</time>
      </trkpt>
      <trkpt lat="43.20442256" lon="-2.03703642">
        <ele>97.914185</ele>
        <time>2019-11-21T21:32:15Z</time>
      </trkpt>
      <trkpt lat="43.20420599" lon="-2.0371185">
        <ele>98.90692</ele>
        <time>2019-11-21T21:32:16Z</time>
      </trkpt>
      <trkpt lat="43.20397415" lon="-2.03722628">
        <ele>100.93396</ele>
        <time>2019-11-21T21:32:17Z</time>
      </trkpt>
      <trkpt lat="43.203743" lon="-2.03732438">
        <ele>101.10748</ele>
        <time>2019-11-21T21:32:18Z</time>
      </trkpt>
      <trkpt lat="43.20351263" lon="-2.03744408">
        <ele>103.38544</ele>
        <time>2019-11-21T21:32:19Z</time>
      </trkpt>
      <trkpt lat="43.20327064" lon="-2.03755057">
        <ele>104.57532</ele>
        <time>2019-11-21T21:32:20Z</time>
      </trkpt>
      <trkpt lat="43.20304318" lon="-2.03764212">
        <ele>105.57483</ele>
        <time>2019-11-21T21:32:21Z</time>
      </trkpt>
      <trkpt lat="43.20280967" lon="-2.03771247">
        <ele>106.171875</ele>
        <time>2019-11-21T21:32:22Z</time>
      </trkpt>
      <trkpt lat="43.20257572" lon="-2.03776588">
        <ele>107.090454</ele>
        <time>2019-11-21T21:32:23Z</time>
      </trkpt>
      <trkpt lat="43.2023375" lon="-2.03778816">
        <ele>109.12549</ele>
        <time>2019-11-21T21:32:24Z</time>
      </trkpt>
      <trkpt lat="43.2021013" lon="-2.03777685">
        <ele>110.15082</ele>
        <time>2019-11-21T21:32:25Z</time>
      </trkpt>
      <trkpt lat="43.20185695" lon="-2.03774754">
        <ele>111.199036</ele>
        <time>2019-11-21T21:32:26Z</time>
      </trkpt>
      <trkpt lat="43.2016132" lon="-2.03769093">
        <ele>113.74359</ele>
        <time>2019-11-21T21:32:27Z</time>
      </trkpt>
      <trkpt lat="43.20137201" lon="-2.03762056">
        <ele>115.10449</ele>
        <time>2019-11-21T21:32:28Z</time>
      </trkpt>
      <trkpt lat="43.20112623" lon="-2.03754168">
        <ele>116.283264</ele>
        <time>2019-11-21T21:32:29Z</time>
      </trkpt>
      <trkpt lat="43.20088289" lon="-2.03746828">
        <ele>116.85266</ele>
        <time>2019-11-21T21:32:30Z</time>
      </trkpt>
      <trkpt lat="43.20062549" lon="-2.03740735">
        <ele>117.77655</ele>
        <time>2019-11-21T21:32:32Z</time>
      </trkpt>
      <trkpt lat="43.20037215" lon="-2.03736445">
        <ele>118.41638</ele>
        <time>2019-11-21T21:32:33Z</time>
      </trkpt>
      <trkpt lat="43.20009829" lon="-2.0373232">
        <ele>118.56305</ele>
        <time>2019-11-21T21:32:34Z</time>
      </trkpt>
      <trkpt lat="43.19983659" lon="-2.03728148">
        <ele>118.40277</ele>
        <time>2019-11-21T21:32:35Z</time>
      </trkpt>
      <trkpt lat="43.199554" lon="-2.03725418">
        <ele>118.929504</ele>
        <time>2019-11-21T21:32:36Z</time>
      </trkpt>
      <trkpt lat="43.19928602" lon="-2.0372103">
        <ele>119.12695</ele>
        <time>2019-11-21T21:32:37Z</time>
      </trkpt>
      <trkpt lat="43.19902171" lon="-2.03714486">
        <ele>119.38104</ele>
        <time>2019-11-21T21:32:38Z</time>
      </trkpt>
      <trkpt lat="43.19876854" lon="-2.03707137">
        <ele>119.63977</ele>
        <time>2019-11-21T21:32:39Z</time>
      </trkpt>
      <trkpt lat="43.19853782" lon="-2.03698189">
        <ele>119.8418</ele>
        <time>2019-11-21T21:32:40Z</time>
      </trkpt>
      <trkpt lat="43.19824044" lon="-2.03685527">
        <ele>120.25238</ele>
        <time>2019-11-21T21:32:41Z</time>
      </trkpt>
      <trkpt lat="43.19773208" lon="-2.03656741">
        <ele>120.805725</ele>
        <time>2019-11-21T21:32:42Z</time>
      </trkpt>
      <trkpt lat="43.19747913" lon="-2.036366">
        <ele>121.01044</ele>
        <time>2019-11-21T21:32:43Z</time>
      </trkpt>
      <trkpt lat="43.19723867" lon="-2.03614803">
        <ele>121.41821</ele>
        <time>2019-11-21T21:32:44Z</time>
      </trkpt>
      <trkpt lat="43.19701885" lon="-2.03592409">
        <ele>121.898865</ele>
        <time>2019-11-21T21:32:45Z</time>
      </trkpt>
      <trkpt lat="43.19679811" lon="-2.03568383">
        <ele>122.08777</ele>
        <time>2019-11-21T21:32:46Z</time>
      </trkpt>
      <trkpt lat="43.19654455" lon="-2.03545419">
        <ele>123.32861</ele>
        <time>2019-11-21T21:32:47Z</time>
      </trkpt>
      <trkpt lat="43.19630114" lon="-2.03523235">
        <ele>125.0296</ele>
        <time>2019-11-21T21:32:48Z</time>
      </trkpt>
      <trkpt lat="43.19605159" lon="-2.03500574">
        <ele>127.407104</ele>
        <time>2019-11-21T21:32:49Z</time>
      </trkpt>
      <trkpt lat="43.19580765" lon="-2.03478646">
        <ele>128.69458</ele>
        <time>2019-11-21T21:32:50Z</time>
      </trkpt>
      <trkpt lat="43.19556616" lon="-2.03459551">
        <ele>119.85217</ele>
        <time>2019-11-21T21:32:51Z</time>
      </trkpt>
      <trkpt lat="43.19533306" lon="-2.03443162">
        <ele>123.86035</ele>
        <time>2019-11-21T21:32:52Z</time>
      </trkpt>
      <trkpt lat="43.19508762" lon="-2.03430796">
        <ele>127.57501</ele>
        <time>2019-11-21T21:32:53Z</time>
      </trkpt>
      <trkpt lat="43.19481904" lon="-2.03421036">
        <ele>131.4566</ele>
        <time>2019-11-21T21:32:54Z</time>
      </trkpt>
      <trkpt lat="43.1945489" lon="-2.03413096">
        <ele>134.44196</ele>
        <time>2019-11-21T21:32:55Z</time>
      </trkpt>
      <trkpt lat="43.19428181" lon="-2.03407261">
        <ele>137.8778</ele>
        <time>2019-11-21T21:32:56Z</time>
      </trkpt>
      <trkpt lat="43.19397642" lon="-2.03408503">
        <ele>143.41058</ele>
        <time>2019-11-21T21:32:57Z</time>
      </trkpt>
      <trkpt lat="43.19370905" lon="-2.03409249">
        <ele>145.21594</ele>
        <time>2019-11-21T21:32:58Z</time>
      </trkpt>
      <trkpt lat="43.19342068" lon="-2.03412399">
        <ele>146.67255</ele>
        <time>2019-11-21T21:32:59Z</time>
      </trkpt>
      <trkpt lat="43.19315025" lon="-2.03418236">
        <ele>148.04993</ele>
        <time>2019-11-21T21:33:00Z</time>
      </trkpt>
      <trkpt lat="43.19290843" lon="-2.03425331">
        <ele>147.50507</ele>
        <time>2019-11-21T21:33:01Z</time>
      </trkpt>
      <trkpt lat="43.19263962" lon="-2.03438774">
        <ele>149.73499</ele>
        <time>2019-11-21T21:33:02Z</time>
      </trkpt>
      <trkpt lat="43.19232956" lon="-2.03456221">
        <ele>148.4649</ele>
        <time>2019-11-21T21:33:04Z</time>
      </trkpt>
      <trkpt lat="43.19209508" lon="-2.03474681">
        <ele>148.88464</ele>
        <time>2019-11-21T21:33:05Z</time>
      </trkpt>
      <trkpt lat="43.1918498" lon="-2.03494667">
        <ele>150.44653</ele>
        <time>2019-11-21T21:33:06Z</time>
      </trkpt>
      <trkpt lat="43.1916517" lon="-2.03514053">
        <ele>152.19043</ele>
        <time>2019-11-21T21:33:07Z</time>
      </trkpt>
      <trkpt lat="43.19141244" lon="-2.0354117">
        <ele>152.96234</ele>
        <time>2019-11-21T21:33:08Z</time>
      </trkpt>
      <trkpt lat="43.19125271" lon="-2.03577698">
        <ele>155.32172</ele>
        <time>2019-11-21T21:33:09Z</time>
      </trkpt>
      <trkpt lat="43.1910815" lon="-2.03610398">
        <ele>156.71088</ele>
        <time>2019-11-21T21:33:10Z</time>
      </trkpt>
      <trkpt lat="43.19094971" lon="-2.03641792">
        <ele>156.83832</ele>
        <time>2019-11-21T21:33:11Z</time>
      </trkpt>
      <trkpt lat="43.19068789" lon="-2.03707533">
        <ele>159.23962</ele>
        <time>2019-11-21T21:33:12Z</time>
      </trkpt>
      <trkpt lat="43.1905449" lon="-2.03739368">
        <ele>160.0487</ele>
        <time>2019-11-21T21:33:13Z</time>
      </trkpt>
      <trkpt lat="43.1904116" lon="-2.0377153">
        <ele>160.70728</ele>
        <time>2019-11-21T21:33:14Z</time>
      </trkpt>
      <trkpt lat="43.19020956" lon="-2.03799996">
        <ele>161.60986</ele>
        <time>2019-11-21T21:33:15Z</time>
      </trkpt>
      <trkpt lat="43.19003577" lon="-2.03831432">
        <ele>163.34698</ele>
        <time>2019-11-21T21:33:16Z</time>
      </trkpt>
      <trkpt lat="43.18985445" lon="-2.03857754">
        <ele>164.76788</ele>
        <time>2019-11-21T21:33:17Z</time>
      </trkpt>
      <trkpt lat="43.18959327" lon="-2.03880674">
        <ele>165.10474</ele>
        <time>2019-11-21T21:33:18Z</time>
      </trkpt>
      <trkpt lat="43.18932996" lon="-2.03907737">
        <ele>167.61865</ele>
        <time>2019-11-21T21:33:19Z</time>
      </trkpt>
      <trkpt lat="43.18909171" lon="-2.03927445">
        <ele>169.44965</ele>
        <time>2019-11-21T21:33:20Z</time>
      </trkpt>
      <trkpt lat="43.18879408" lon="-2.0394282">
        <ele>170.63745</ele>
        <time>2019-11-21T21:33:21Z</time>
      </trkpt>
      <trkpt lat="43.18854086" lon="-2.03955465">
        <ele>172.84106</ele>
        <time>2019-11-21T21:33:22Z</time>
      </trkpt>
      <trkpt lat="43.18830741" lon="-2.03967727">
        <ele>175.22528</ele>
        <time>2019-11-21T21:33:23Z</time>
      </trkpt>
      <trkpt lat="43.18804323" lon="-2.03974697">
        <ele>177.74615</ele>
        <time>2019-11-21T21:33:24Z</time>
      </trkpt>
      <trkpt lat="43.18773785" lon="-2.0397431">
        <ele>180.83002</ele>
        <time>2019-11-21T21:33:25Z</time>
      </trkpt>
      <trkpt lat="43.18741575" lon="-2.03973369">
        <ele>180.255</ele>
        <time>2019-11-21T21:33:26Z</time>
      </trkpt>
      <trkpt lat="43.18715047" lon="-2.03969987">
        <ele>181.34442</ele>
        <time>2019-11-21T21:33:27Z</time>
      </trkpt>
      <trkpt lat="43.186885" lon="-2.03957916">
        <ele>182.4685</ele>
        <time>2019-11-21T21:33:28Z</time>
      </trkpt>
      <trkpt lat="43.1866025" lon="-2.03947673">
        <ele>183.55182</ele>
        <time>2019-11-21T21:33:29Z</time>
      </trkpt>
      <trkpt lat="43.18635798" lon="-2.0393457">
        <ele>184.89789</ele>
        <time>2019-11-21T21:33:30Z</time>
      </trkpt>
      <trkpt lat="43.1860893" lon="-2.03916107">
        <ele>187.56073</ele>
        <time>2019-11-21T21:33:31Z</time>
      </trkpt>
      <trkpt lat="43.18582971" lon="-2.038961">
        <ele>191.19653</ele>
        <time>2019-11-21T21:33:33Z</time>
      </trkpt>
      <trkpt lat="43.18556371" lon="-2.03877031">
        <ele>193.31628</ele>
        <time>2019-11-21T21:33:34Z</time>
      </trkpt>
      <trkpt lat="43.18533563" lon="-2.03852953">
        <ele>198.11853</ele>
        <time>2019-11-21T21:33:35Z</time>
      </trkpt>
      <trkpt lat="43.18509905" lon="-2.03829027">
        <ele>200.97314</ele>
        <time>2019-11-21T21:33:36Z</time>
      </trkpt>
      <trkpt lat="43.18488331" lon="-2.03804162">
        <ele>203.8175</ele>
        <time>2019-11-21T21:33:37Z</time>
      </trkpt>
      <trkpt lat="43.18466453" lon="-2.03778624">
        <ele>206.92621</ele>
        <time>2019-11-21T21:33:38Z</time>
      </trkpt>
      <trkpt lat="43.18446025" lon="-2.03752387">
        <ele>205.47375</ele>
        <time>2019-11-21T21:33:39Z</time>
      </trkpt>
      <trkpt lat="43.18425217" lon="-2.0372716">
        <ele>207.8855</ele>
        <time>2019-11-21T21:33:40Z</time>
      </trkpt>
      <trkpt lat="43.18384816" lon="-2.03674356">
        <ele>214.24243</ele>
        <time>2019-11-21T21:33:41Z</time>
      </trkpt>
      <trkpt lat="43.18366405" lon="-2.03646002">
        <ele>216.62634</ele>
        <time>2019-11-21T21:33:42Z</time>
      </trkpt>
      <trkpt lat="43.18347893" lon="-2.03616349">
        <ele>221.7373</ele>
        <time>2019-11-21T21:33:43Z</time>
      </trkpt>
      <trkpt lat="43.18332038" lon="-2.03584817">
        <ele>224.65991</ele>
        <time>2019-11-21T21:33:44Z</time>
      </trkpt>
      <trkpt lat="43.18318436" lon="-2.03550533">
        <ele>227.23389</ele>
        <time>2019-11-21T21:33:45Z</time>
      </trkpt>
      <trkpt lat="43.18306178" lon="-2.03515404">
        <ele>230.46155</ele>
        <time>2019-11-21T21:33:46Z</time>
      </trkpt>
      <trkpt lat="43.1829656" lon="-2.03479102">
        <ele>230.2757</ele>
        <time>2019-11-21T21:33:47Z</time>
      </trkpt>
      <trkpt lat="43.18289269" lon="-2.03443777">
        <ele>230.6543</ele>
        <time>2019-11-21T21:33:48Z</time>
      </trkpt>
      <trkpt lat="43.18283022" lon="-2.03404861">
        <ele>231.91895</ele>
        <time>2019-11-21T21:33:49Z</time>
      </trkpt>
      <trkpt lat="43.18281013" lon="-2.03365722">
        <ele>232.07074</ele>
        <time>2019-11-21T21:33:50Z</time>
      </trkpt>
      <trkpt lat="43.18280335" lon="-2.0332786">
        <ele>162.32233</ele>
        <time>2019-11-21T21:33:51Z</time>
      </trkpt>
      <trkpt lat="43.1828064" lon="-2.0329076">
        <ele>172.7829</ele>
        <time>2019-11-21T21:33:52Z</time>
      </trkpt>
      <trkpt lat="43.18282523" lon="-2.03252381">
        <ele>181.22833</ele>
        <time>2019-11-21T21:33:53Z</time>
      </trkpt>
      <trkpt lat="43.18287178" lon="-2.03215468">
        <ele>191.14142</ele>
        <time>2019-11-21T21:33:54Z</time>
      </trkpt>
      <trkpt lat="43.18292052" lon="-2.03178773">
        <ele>198.64948</ele>
        <time>2019-11-21T21:33:55Z</time>
      </trkpt>
      <trkpt lat="43.18301442" lon="-2.03142443">
        <ele>203.62451</ele>
        <time>2019-11-21T21:33:56Z</time>
      </trkpt>
      <trkpt lat="43.18314645" lon="-2.03107874">
        <ele>210.36066</ele>
        <time>2019-11-21T21:33:57Z</time>
      </trkpt>
      <trkpt lat="43.18329409" lon="-2.03075125">
        <ele>216.21075</ele>
        <time>2019-11-21T21:33:58Z</time>
      </trkpt>
      <trkpt lat="43.18347929" lon="-2.03044427">
        <ele>220.17639</ele>
        <time>2019-11-21T21:33:59Z</time>
      </trkpt>
      <trkpt lat="43.18365629" lon="-2.03014839">
        <ele>223.96521</ele>
        <time>2019-11-21T21:34:00Z</time>
      </trkpt>
      <trkpt lat="43.18389397" lon="-2.02988596">
        <ele>229.05469</ele>
        <time>2019-11-21T21:34:02Z</time>
      </trkpt>
      <trkpt lat="43.18412255" lon="-2.02964883">
        <ele>231.6825</ele>
        <time>2019-11-21T21:34:03Z</time>
      </trkpt>
      <trkpt lat="43.18441149" lon="-2.02947485">
        <ele>238.5672</ele>
        <time>2019-11-21T21:34:04Z</time>
      </trkpt>
      <trkpt lat="43.18467301" lon="-2.0292835">
        <ele>241.53906</ele>
        <time>2019-11-21T21:34:05Z</time>
      </trkpt>
      <trkpt lat="43.18491012" lon="-2.02912586">
        <ele>238.67407</ele>
        <time>2019-11-21T21:34:06Z</time>
      </trkpt>
      <trkpt lat="43.18520875" lon="-2.02896739">
        <ele>243.4292</ele>
        <time>2019-11-21T21:34:07Z</time>
      </trkpt>
      <trkpt lat="43.18548948" lon="-2.02884077">
        <ele>247.71698</ele>
        <time>2019-11-21T21:34:08Z</time>
      </trkpt>
      <trkpt lat="43.18601738" lon="-2.02858756">
        <ele>253.35162</ele>
        <time>2019-11-21T21:34:09Z</time>
      </trkpt>
      <trkpt lat="43.18627642" lon="-2.0284288">
        <ele>256.26166</ele>
        <time>2019-11-21T21:34:10Z</time>
      </trkpt>
      <trkpt lat="43.1865475" lon="-2.02824415">
        <ele>259.1886</ele>
        <time>2019-11-21T21:34:11Z</time>
      </trkpt>
      <trkpt lat="43.18677101" lon="-2.02801341">
        <ele>262.7345</ele>
        <time>2019-11-21T21:34:12Z</time>
      </trkpt>
      <trkpt lat="43.18699969" lon="-2.02777051">
        <ele>265.86584</ele>
        <time>2019-11-21T21:34:13Z</time>
      </trkpt>
      <trkpt lat="43.18720388" lon="-2.02751117">
        <ele>267.2271</ele>
        <time>2019-11-21T21:34:14Z</time>
      </trkpt>
      <trkpt lat="43.18737598" lon="-2.02724852">
        <ele>270.8105</ele>
        <time>2019-11-21T21:34:15Z</time>
      </trkpt>
      <trkpt lat="43.18754621" lon="-2.02695108">
        <ele>273.51447</ele>
        <time>2019-11-21T21:34:16Z</time>
      </trkpt>
      <trkpt lat="43.18768047" lon="-2.02661455">
        <ele>274.6565</ele>
        <time>2019-11-21T21:34:17Z</time>
      </trkpt>
      <trkpt lat="43.18778337" lon="-2.02628915">
        <ele>275.3075</ele>
        <time>2019-11-21T21:34:18Z</time>
      </trkpt>
      <trkpt lat="43.18787623" lon="-2.02594138">
        <ele>277.40076</ele>
        <time>2019-11-21T21:34:19Z</time>
      </trkpt>
      <trkpt lat="43.18793432" lon="-2.02561065">
        <ele>278.2127</ele>
        <time>2019-11-21T21:34:20Z</time>
      </trkpt>
      <trkpt lat="43.18797802" lon="-2.02525702">
        <ele>280.10632</ele>
        <time>2019-11-21T21:34:21Z</time>
      </trkpt>
      <trkpt lat="43.18800564" lon="-2.02489855">
        <ele>280.62048</ele>
        <time>2019-11-21T21:34:22Z</time>
      </trkpt>
      <trkpt lat="43.18801582" lon="-2.0245641">
        <ele>279.40222</ele>
        <time>2019-11-21T21:34:23Z</time>
      </trkpt>
      <trkpt lat="43.18802762" lon="-2.0242101">
        <ele>279.61737</ele>
        <time>2019-11-21T21:34:24Z</time>
      </trkpt>
      <trkpt lat="43.1880249" lon="-2.02386061">
        <ele>279.583</ele>
        <time>2019-11-21T21:34:25Z</time>
      </trkpt>
      <trkpt lat="43.18802297115326" lon="-2.023501396179199">
        <ele>0.0</ele>
        <time>2019-11-21T21:34:26Z</time>
      </trkpt>
      <trkpt lat="43.18556070327759" lon="-2.01848566532135">
        <ele>281.66565</ele>
        <time>2019-11-21T21:34:48Z</time>
      </trkpt>
      <trkpt lat="43.18533121" lon="-2.01836539">
        <ele>283.21338</ele>
        <time>2019-11-21T21:34:49Z</time>
      </trkpt>
      <trkpt lat="43.18512046" lon="-2.01826412">
        <ele>286.57056</ele>
        <time>2019-11-21T21:34:50Z</time>
      </trkpt>
      <trkpt lat="43.18486592" lon="-2.01817144">
        <ele>290.42206</ele>
        <time>2019-11-21T21:34:51Z</time>
      </trkpt>
      <trkpt lat="43.18460306" lon="-2.01809825">
        <ele>294.9441</ele>
        <time>2019-11-21T21:34:52Z</time>
      </trkpt>
      <trkpt lat="43.18434015" lon="-2.0179859">
        <ele>295.0869</ele>
        <time>2019-11-21T21:34:53Z</time>
      </trkpt>
      <trkpt lat="43.18411837" lon="-2.01790233">
        <ele>297.93555</ele>
        <time>2019-11-21T21:34:54Z</time>
      </trkpt>
      <trkpt lat="43.18388717" lon="-2.01782065">
        <ele>300.1438</ele>
        <time>2019-11-21T21:34:55Z</time>
      </trkpt>
      <trkpt lat="43.18362994" lon="-2.01776861">
        <ele>304.77515</ele>
        <time>2019-11-21T21:34:56Z</time>
      </trkpt>
      <trkpt lat="43.18339401" lon="-2.01771466">
        <ele>311.0503</ele>
        <time>2019-11-21T21:34:57Z</time>
      </trkpt>
      <trkpt lat="43.18313684" lon="-2.01767194">
        <ele>322.2898</ele>
        <time>2019-11-21T21:34:58Z</time>
      </trkpt>
      <trkpt lat="43.18285556" lon="-2.01763869">
        <ele>323.5103</ele>
        <time>2019-11-21T21:34:59Z</time>
      </trkpt>
      <trkpt lat="43.18259531" lon="-2.01761543">
        <ele>324.7904</ele>
        <time>2019-11-21T21:35:00Z</time>
      </trkpt>
      <trkpt lat="43.18239205" lon="-2.01758862">
        <ele>327.2588</ele>
        <time>2019-11-21T21:35:01Z</time>
      </trkpt>
      <trkpt lat="43.18214444" lon="-2.01756619">
        <ele>328.79022</ele>
        <time>2019-11-21T21:35:03Z</time>
      </trkpt>
      <trkpt lat="43.18187789" lon="-2.01755824">
        <ele>328.83508</ele>
        <time>2019-11-21T21:35:04Z</time>
      </trkpt>
      <trkpt lat="43.18162279" lon="-2.01754488">
        <ele>330.29523</ele>
        <time>2019-11-21T21:35:05Z</time>
      </trkpt>
      <trkpt lat="43.18137605" lon="-2.01746068">
        <ele>335.9248</ele>
        <time>2019-11-21T21:35:06Z</time>
      </trkpt>
      <trkpt lat="43.18108591" lon="-2.01739851">
        <ele>342.854</ele>
        <time>2019-11-21T21:35:07Z</time>
      </trkpt>
      <trkpt lat="43.18081414" lon="-2.01732359">
        <ele>347.5951</ele>
        <time>2019-11-21T21:35:08Z</time>
      </trkpt>
      <trkpt lat="43.18027714" lon="-2.01712227">
        <ele>353.10974</ele>
        <time>2019-11-21T21:35:09Z</time>
      </trkpt>
      <trkpt lat="43.17999393" lon="-2.01698679">
        <ele>355.6931</ele>
        <time>2019-11-21T21:35:10Z</time>
      </trkpt>
      <trkpt lat="43.17971375" lon="-2.01683101">
        <ele>361.1488</ele>
        <time>2019-11-21T21:35:11Z</time>
      </trkpt>
      <trkpt lat="43.17947898" lon="-2.01664762">
        <ele>363.77905</ele>
        <time>2019-11-21T21:35:12Z</time>
      </trkpt>
      <trkpt lat="43.1792422" lon="-2.01644946">
        <ele>366.02448</ele>
        <time>2019-11-21T21:35:13Z</time>
      </trkpt>
      <trkpt lat="43.17899218" lon="-2.01623777">
        <ele>369.58374</ele>
        <time>2019-11-21T21:35:14Z</time>
      </trkpt>
      <trkpt lat="43.17876013" lon="-2.01601446">
        <ele>371.9242</ele>
        <time>2019-11-21T21:35:15Z</time>
      </trkpt>
      <trkpt lat="43.17851743" lon="-2.01578916">
        <ele>375.26477</ele>
        <time>2019-11-21T21:35:16Z</time>
      </trkpt>
      <trkpt lat="43.17828933" lon="-2.01556404">
        <ele>377.135</ele>
        <time>2019-11-21T21:35:17Z</time>
      </trkpt>
      <trkpt lat="43.17804516" lon="-2.01533418">
        <ele>379.22815</ele>
        <time>2019-11-21T21:35:18Z</time>
      </trkpt>
      <trkpt lat="43.17780434" lon="-2.0151145">
        <ele>380.6112</ele>
        <time>2019-11-21T21:35:19Z</time>
      </trkpt>
      <trkpt lat="43.17756018" lon="-2.01489876">
        <ele>383.77478</ele>
        <time>2019-11-21T21:35:20Z</time>
      </trkpt>
      <trkpt lat="43.17731634" lon="-2.01469254">
        <ele>385.4923</ele>
        <time>2019-11-21T21:35:21Z</time>
      </trkpt>
      <trkpt lat="43.17707284" lon="-2.01448509">
        <ele>387.95123</ele>
        <time>2019-11-21T21:35:22Z</time>
      </trkpt>
      <trkpt lat="43.17681454" lon="-2.01428729">
        <ele>389.9359</ele>
        <time>2019-11-21T21:35:23Z</time>
      </trkpt>
      <trkpt lat="43.17655042" lon="-2.01409157">
        <ele>391.98242</ele>
        <time>2019-11-21T21:35:24Z</time>
      </trkpt>
      <trkpt lat="43.17630397" lon="-2.01391833">
        <ele>393.13495</ele>
        <time>2019-11-21T21:35:25Z</time>
      </trkpt>
      <trkpt lat="43.1760693" lon="-2.01375104">
        <ele>394.63806</ele>
        <time>2019-11-21T21:35:26Z</time>
      </trkpt>
      <trkpt lat="43.17582047" lon="-2.01359083">
        <ele>396.214</ele>
        <time>2019-11-21T21:35:27Z</time>
      </trkpt>
      <trkpt lat="43.17556116" lon="-2.01343589">
        <ele>399.3863</ele>
        <time>2019-11-21T21:35:28Z</time>
      </trkpt>
      <trkpt lat="43.17530862" lon="-2.01328367">
        <ele>401.75836</ele>
        <time>2019-11-21T21:35:29Z</time>
      </trkpt>
      <trkpt lat="43.1750496" lon="-2.01313823">
        <ele>404.1599</ele>
        <time>2019-11-21T21:35:31Z</time>
      </trkpt>
      <trkpt lat="43.17479873" lon="-2.01302362">
        <ele>405.95593</ele>
        <time>2019-11-21T21:35:32Z</time>
      </trkpt>
      <trkpt lat="43.17454409" lon="-2.01289673">
        <ele>406.6942</ele>
        <time>2019-11-21T21:35:33Z</time>
      </trkpt>
      <trkpt lat="43.17428283" lon="-2.01279441">
        <ele>406.82892</ele>
        <time>2019-11-21T21:35:34Z</time>
      </trkpt>
      <trkpt lat="43.17402535" lon="-2.01269382">
        <ele>407.94604</ele>
        <time>2019-11-21T21:35:35Z</time>
      </trkpt>
      <trkpt lat="43.1737717" lon="-2.01261374">
        <ele>409.09607</ele>
        <time>2019-11-21T21:35:36Z</time>
      </trkpt>
      <trkpt lat="43.17351963" lon="-2.01257079">
        <ele>409.19574</ele>
        <time>2019-11-21T21:35:37Z</time>
      </trkpt>
      <trkpt lat="43.17328215" lon="-2.01256096">
        <ele>409.68738</ele>
        <time>2019-11-21T21:35:38Z</time>
      </trkpt>
      <trkpt lat="43.17273791" lon="-2.01256224">
        <ele>410.4336</ele>
        <time>2019-11-21T21:35:39Z</time>
      </trkpt>
      <trkpt lat="43.17243454" lon="-2.01258763">
        <ele>411.87097</ele>
        <time>2019-11-21T21:35:40Z</time>
      </trkpt>
      <trkpt lat="43.1721208" lon="-2.01260474">
        <ele>411.40955</ele>
        <time>2019-11-21T21:35:41Z</time>
      </trkpt>
      <trkpt lat="43.17186638" lon="-2.01263581">
        <ele>411.8291</ele>
        <time>2019-11-21T21:35:42Z</time>
      </trkpt>
      <trkpt lat="43.17158124" lon="-2.01265617">
        <ele>411.55267</ele>
        <time>2019-11-21T21:35:43Z</time>
      </trkpt>
      <trkpt lat="43.17131228" lon="-2.0126559">
        <ele>411.7395</ele>
        <time>2019-11-21T21:35:44Z</time>
      </trkpt>
      <trkpt lat="43.1710548" lon="-2.01265451">
        <ele>412.1278</ele>
        <time>2019-11-21T21:35:45Z</time>
      </trkpt>
      <trkpt lat="43.17080767" lon="-2.01264108">
        <ele>412.74536</ele>
        <time>2019-11-21T21:35:46Z</time>
      </trkpt>
      <trkpt lat="43.17056852" lon="-2.0126146">
        <ele>413.46826</ele>
        <time>2019-11-21T21:35:47Z</time>
      </trkpt>
      <trkpt lat="43.1703641" lon="-2.01254594">
        <ele>412.86206</ele>
        <time>2019-11-21T21:35:48Z</time>
      </trkpt>
      <trkpt lat="43.17014352" lon="-2.01245828">
        <ele>414.57336</ele>
        <time>2019-11-21T21:35:49Z</time>
      </trkpt>
      <trkpt lat="43.16994116" lon="-2.01233584">
        <ele>414.51575</ele>
        <time>2019-11-21T21:35:50Z</time>
      </trkpt>
      <trkpt lat="43.16972669" lon="-2.01224842">
        <ele>415.49255</ele>
        <time>2019-11-21T21:35:51Z</time>
      </trkpt>
      <trkpt lat="43.16951792" lon="-2.01214831">
        <ele>416.56458</ele>
        <time>2019-11-21T21:35:52Z</time>
      </trkpt>
      <trkpt lat="43.16930618" lon="-2.01204237">
        <ele>417.04333</ele>
        <time>2019-11-21T21:35:53Z</time>
      </trkpt>
      <trkpt lat="43.16911072" lon="-2.01192108">
        <ele>417.0188</ele>
        <time>2019-11-21T21:35:54Z</time>
      </trkpt>
      <trkpt lat="43.168914914131165" lon="-2.011796236038208">
        <ele>0.0</ele>
        <time>2019-11-21T21:35:55Z</time>
      </trkpt>
      <trkpt lat="43.1532883644104" lon="-2.0045381784439087">
        <ele>423.0916</ele>
        <time>2019-11-21T21:37:20Z</time>
      </trkpt>
      <trkpt lat="43.15304439" lon="-2.00445466">
        <ele>428.46606</ele>
        <time>2019-11-21T21:37:21Z</time>
      </trkpt>
      <trkpt lat="43.15284868" lon="-2.00443934">
        <ele>431.5854</ele>
        <time>2019-11-21T21:37:22Z</time>
      </trkpt>
      <trkpt lat="43.15263095" lon="-2.00439826">
        <ele>434.9933</ele>
        <time>2019-11-21T21:37:23Z</time>
      </trkpt>
      <trkpt lat="43.1523892" lon="-2.00435913">
        <ele>439.54993</ele>
        <time>2019-11-21T21:37:24Z</time>
      </trkpt>
      <trkpt lat="43.15214151" lon="-2.004321">
        <ele>442.9148</ele>
        <time>2019-11-21T21:37:25Z</time>
      </trkpt>
      <trkpt lat="43.15190052" lon="-2.00427869">
        <ele>445.31152</ele>
        <time>2019-11-21T21:37:26Z</time>
      </trkpt>
      <trkpt lat="43.15165255" lon="-2.00422466">
        <ele>449.40527</ele>
        <time>2019-11-21T21:37:27Z</time>
      </trkpt>
      <trkpt lat="43.15141597" lon="-2.00415541">
        <ele>452.9297</ele>
        <time>2019-11-21T21:37:28Z</time>
      </trkpt>
      <trkpt lat="43.15117526" lon="-2.00408685">
        <ele>455.86096</ele>
        <time>2019-11-21T21:37:30Z</time>
      </trkpt>
      <trkpt lat="43.15066974" lon="-2.00388771">
        <ele>462.44135</ele>
        <time>2019-11-21T21:37:31Z</time>
      </trkpt>
      <trkpt lat="43.15041507" lon="-2.00379095">
        <ele>465.31445</ele>
        <time>2019-11-21T21:37:32Z</time>
      </trkpt>
      <trkpt lat="43.15016188" lon="-2.00365863">
        <ele>466.00476</ele>
        <time>2019-11-21T21:37:33Z</time>
      </trkpt>
      <trkpt lat="43.14990443" lon="-2.00350675">
        <ele>467.95728</ele>
        <time>2019-11-21T21:37:34Z</time>
      </trkpt>
      <trkpt lat="43.14964878" lon="-2.00333971">
        <ele>472.70068</ele>
        <time>2019-11-21T21:37:35Z</time>
      </trkpt>
      <trkpt lat="43.14941365" lon="-2.00314053">
        <ele>475.23376</ele>
        <time>2019-11-21T21:37:36Z</time>
      </trkpt>
      <trkpt lat="43.14920398" lon="-2.00291923">
        <ele>476.71448</ele>
        <time>2019-11-21T21:37:37Z</time>
      </trkpt>
      <trkpt lat="43.14901936" lon="-2.0026799">
        <ele>477.16882</ele>
        <time>2019-11-21T21:37:38Z</time>
      </trkpt>
      <trkpt lat="43.14885691" lon="-2.00237613">
        <ele>478.05774</ele>
        <time>2019-11-21T21:37:39Z</time>
      </trkpt>
      <trkpt lat="43.14871086" lon="-2.00205535">
        <ele>481.93884</ele>
        <time>2019-11-21T21:37:40Z</time>
      </trkpt>
      <trkpt lat="43.14861842" lon="-2.00174531">
        <ele>485.67596</ele>
        <time>2019-11-21T21:37:41Z</time>
      </trkpt>
      <trkpt lat="43.14851371" lon="-2.00131049">
        <ele>489.9193</ele>
        <time>2019-11-21T21:37:42Z</time>
      </trkpt>
      <trkpt lat="43.14849016" lon="-2.00083937">
        <ele>498.13348</ele>
        <time>2019-11-21T21:37:43Z</time>
      </trkpt>
      <trkpt lat="43.14844724" lon="-2.00040454">
        <ele>502.46423</ele>
        <time>2019-11-21T21:37:44Z</time>
      </trkpt>
      <trkpt lat="43.14838455" lon="-2.00000737">
        <ele>506.11133</ele>
        <time>2019-11-21T21:37:45Z</time>
      </trkpt>
      <trkpt lat="43.14830638" lon="-1.9996101">
        <ele>511.38306</ele>
        <time>2019-11-21T21:37:46Z</time>
      </trkpt>
      <trkpt lat="43.14821403" lon="-1.99922289">
        <ele>515.5148</ele>
        <time>2019-11-21T21:37:47Z</time>
      </trkpt>
      <trkpt lat="43.14810361" lon="-1.9988454">
        <ele>519.90674</ele>
        <time>2019-11-21T21:37:48Z</time>
      </trkpt>
      <trkpt lat="43.14799205" lon="-1.99849095">
        <ele>522.63434</ele>
        <time>2019-11-21T21:37:49Z</time>
      </trkpt>
      <trkpt lat="43.14785432" lon="-1.99815882">
        <ele>524.2837</ele>
        <time>2019-11-21T21:37:50Z</time>
      </trkpt>
      <trkpt lat="43.14769943" lon="-1.9978445">
        <ele>525.312</ele>
        <time>2019-11-21T21:37:51Z</time>
      </trkpt>
      <trkpt lat="43.14753927" lon="-1.99755513">
        <ele>526.2075</ele>
        <time>2019-11-21T21:37:52Z</time>
      </trkpt>
      <trkpt lat="43.1473528" lon="-1.99724483">
        <ele>526.8602</ele>
        <time>2019-11-21T21:37:53Z</time>
      </trkpt>
      <trkpt lat="43.14713398" lon="-1.99692476">
        <ele>528.17285</ele>
        <time>2019-11-21T21:37:54Z</time>
      </trkpt>
      <trkpt lat="43.14692182" lon="-1.99661621">
        <ele>529.2197</ele>
        <time>2019-11-21T21:37:55Z</time>
      </trkpt>
      <trkpt lat="43.14671797" lon="-1.9962926">
        <ele>528.4885</ele>
        <time>2019-11-21T21:37:57Z</time>
      </trkpt>
      <trkpt lat="43.14653038" lon="-1.99603655">
        <ele>529.2234</ele>
        <time>2019-11-21T21:37:58Z</time>
      </trkpt>
      <trkpt lat="43.14620596" lon="-1.99545022">
        <ele>530.3546</ele>
        <time>2019-11-21T21:37:59Z</time>
      </trkpt>
      <trkpt lat="43.14608054" lon="-1.99518067">
        <ele>531.1521</ele>
        <time>2019-11-21T21:38:00Z</time>
      </trkpt>
      <trkpt lat="43.14596371" lon="-1.99492085">
        <ele>532.876</ele>
        <time>2019-11-21T21:38:01Z</time>
      </trkpt>
      <trkpt lat="43.14586805" lon="-1.99463467">
        <ele>535.86084</ele>
        <time>2019-11-21T21:38:02Z</time>
      </trkpt>
      <trkpt lat="43.1457629" lon="-1.99437051">
        <ele>539.27734</ele>
        <time>2019-11-21T21:38:03Z</time>
      </trkpt>
      <trkpt lat="43.14566604" lon="-1.99411163">
        <ele>541.411</ele>
        <time>2019-11-21T21:38:04Z</time>
      </trkpt>
      <trkpt lat="43.14559396" lon="-1.99382682">
        <ele>545.32336</ele>
        <time>2019-11-21T21:38:05Z</time>
      </trkpt>
      <trkpt lat="43.1455017" lon="-1.99354121">
        <ele>546.7826</ele>
        <time>2019-11-21T21:38:06Z</time>
      </trkpt>
      <trkpt lat="43.1454407" lon="-1.99321832">
        <ele>545.8638</ele>
        <time>2019-11-21T21:38:07Z</time>
      </trkpt>
      <trkpt lat="43.14536477" lon="-1.99290665">
        <ele>547.3613</ele>
        <time>2019-11-21T21:38:08Z</time>
      </trkpt>
      <trkpt lat="43.1453068" lon="-1.99258961">
        <ele>550.1509</ele>
        <time>2019-11-21T21:38:09Z</time>
      </trkpt>
      <trkpt lat="43.14523804" lon="-1.992271">
        <ele>555.9778</ele>
        <time>2019-11-21T21:38:10Z</time>
      </trkpt>
      <trkpt lat="43.1451914" lon="-1.99194906">
        <ele>558.84375</ele>
        <time>2019-11-21T21:38:11Z</time>
      </trkpt>
      <trkpt lat="43.1451608" lon="-1.9916381">
        <ele>562.0156</ele>
        <time>2019-11-21T21:38:12Z</time>
      </trkpt>
      <trkpt lat="43.14513487" lon="-1.99130019">
        <ele>563.78296</ele>
        <time>2019-11-21T21:38:13Z</time>
      </trkpt>
      <trkpt lat="43.14511984" lon="-1.99097144">
        <ele>565.7141</ele>
        <time>2019-11-21T21:38:14Z</time>
      </trkpt>
      <trkpt lat="43.1450953" lon="-1.99064941">
        <ele>565.953</ele>
        <time>2019-11-21T21:38:15Z</time>
      </trkpt>
      <trkpt lat="43.14507839" lon="-1.99032761">
        <ele>568.53296</ele>
        <time>2019-11-21T21:38:16Z</time>
      </trkpt>
      <trkpt lat="43.14506038" lon="-1.99000588">
        <ele>571.2882</ele>
        <time>2019-11-21T21:38:17Z</time>
      </trkpt>
      <trkpt lat="43.14504308" lon="-1.98968698">
        <ele>574.239</ele>
        <time>2019-11-21T21:38:18Z</time>
      </trkpt>
      <trkpt lat="43.14502376" lon="-1.98938115">
        <ele>574.901</ele>
        <time>2019-11-21T21:38:19Z</time>
      </trkpt>
      <trkpt lat="43.14500495" lon="-1.98909623">
        <ele>575.6853</ele>
        <time>2019-11-21T21:38:20Z</time>
      </trkpt>
      <trkpt lat="43.14497668" lon="-1.9888167">
        <ele>577.61145</ele>
        <time>2019-11-21T21:38:21Z</time>
      </trkpt>
      <trkpt lat="43.1449378" lon="-1.98855593">
        <ele>577.52637</ele>
        <time>2019-11-21T21:38:22Z</time>
      </trkpt>
      <trkpt lat="43.14489665" lon="-1.98827875">
        <ele>580.24805</ele>
        <time>2019-11-21T21:38:23Z</time>
      </trkpt>
      <trkpt lat="43.14483664" lon="-1.98800059">
        <ele>582.30225</ele>
        <time>2019-11-21T21:38:25Z</time>
      </trkpt>
      <trkpt lat="43.1447198" lon="-1.98743485">
        <ele>585.5061</ele>
        <time>2019-11-21T21:38:26Z</time>
      </trkpt>
      <trkpt lat="43.14464573" lon="-1.98716825">
        <ele>585.1887</ele>
        <time>2019-11-21T21:38:27Z</time>
      </trkpt>
      <trkpt lat="43.14457106" lon="-1.98691266">
        <ele>586.6875</ele>
        <time>2019-11-21T21:38:28Z</time>
      </trkpt>
      <trkpt lat="43.1444992" lon="-1.98665661">
        <ele>586.0962</ele>
        <time>2019-11-21T21:38:29Z</time>
      </trkpt>
      <trkpt lat="43.1444084" lon="-1.98641927">
        <ele>586.84204</ele>
        <time>2019-11-21T21:38:30Z</time>
      </trkpt>
      <trkpt lat="43.14431885" lon="-1.98620715">
        <ele>587.5349</ele>
        <time>2019-11-21T21:38:31Z</time>
      </trkpt>
      <trkpt lat="43.14420532" lon="-1.98598112">
        <ele>587.71216</ele>
        <time>2019-11-21T21:38:32Z</time>
      </trkpt>
      <trkpt lat="43.14412383" lon="-1.98582558">
        <ele>589.234</ele>
        <time>2019-11-21T21:38:33Z</time>
      </trkpt>
      <trkpt lat="43.14403436" lon="-1.98567003">
        <ele>590.7942</ele>
        <time>2019-11-21T21:38:34Z</time>
      </trkpt>
      <trkpt lat="43.14393314" lon="-1.9855217">
        <ele>592.3037</ele>
        <time>2019-11-21T21:38:35Z</time>
      </trkpt>
      <trkpt lat="43.14382432" lon="-1.98539758">
        <ele>593.25757</ele>
        <time>2019-11-21T21:38:36Z</time>
      </trkpt>
      <trkpt lat="43.14371977" lon="-1.98524887">
        <ele>593.7665</ele>
        <time>2019-11-21T21:38:37Z</time>
      </trkpt>
      <trkpt lat="43.14360753" lon="-1.98509851">
        <ele>594.80676</ele>
        <time>2019-11-21T21:38:38Z</time>
      </trkpt>
      <trkpt lat="43.14350131" lon="-1.98494044">
        <ele>596.3318</ele>
        <time>2019-11-21T21:38:39Z</time>
      </trkpt>
      <trkpt lat="43.14337752" lon="-1.98479414">
        <ele>597.9595</ele>
        <time>2019-11-21T21:38:40Z</time>
      </trkpt>
      <trkpt lat="43.14325792" lon="-1.98463991">
        <ele>599.25146</ele>
        <time>2019-11-21T21:38:41Z</time>
      </trkpt>
      <trkpt lat="43.14314023" lon="-1.98448218">
        <ele>600.1731</ele>
        <time>2019-11-21T21:38:42Z</time>
      </trkpt>
      <trkpt lat="43.14301861" lon="-1.98432449">
        <ele>601.0558</ele>
        <time>2019-11-21T21:38:43Z</time>
      </trkpt>
      <trkpt lat="43.14290487" lon="-1.98418476">
        <ele>601.2644</ele>
        <time>2019-11-21T21:38:44Z</time>
      </trkpt>
      <trkpt lat="43.14279531" lon="-1.98402377">
        <ele>601.6947</ele>
        <time>2019-11-21T21:38:45Z</time>
      </trkpt>
      <trkpt lat="43.14268827" lon="-1.98386486">
        <ele>602.4751</ele>
        <time>2019-11-21T21:38:46Z</time>
      </trkpt>
      <trkpt lat="43.14259777" lon="-1.98370667">
        <ele>604.5679</ele>
        <time>2019-11-21T21:38:47Z</time>
      </trkpt>
      <trkpt lat="43.14250563" lon="-1.98352353">
        <ele>605.8661</ele>
        <time>2019-11-21T21:38:48Z</time>
      </trkpt>
      <trkpt lat="43.14233845" lon="-1.98323665">
        <ele>605.22925</ele>
        <time>2019-11-21T21:38:51Z</time>
      </trkpt>
      <trkpt lat="43.142194747924805" lon="-1.9829249382019043">
        <ele>0.0</ele>
        <time>2019-11-21T21:38:52Z</time>
      </trkpt>
      <trkpt lat="43.13943377" lon="-1.97369522">
        <ele>599.99634</ele>
        <time>2019-11-21T21:39:36Z</time>
      </trkpt>
      <trkpt lat="43.13920968" lon="-1.97325702">
        <ele>617.745</ele>
        <time>2019-11-21T21:39:37Z</time>
      </trkpt>
      <trkpt lat="43.13898185" lon="-1.97287896">
        <ele>629.9824</ele>
        <time>2019-11-21T21:39:38Z</time>
      </trkpt>
      <trkpt lat="43.13878582" lon="-1.97265977">
        <ele>636.05566</ele>
        <time>2019-11-21T21:39:39Z</time>
      </trkpt>
      <trkpt lat="43.13855301" lon="-1.97244465">
        <ele>639.9634</ele>
        <time>2019-11-21T21:39:40Z</time>
      </trkpt>
      <trkpt lat="43.13833866" lon="-1.97225724">
        <ele>641.77795</ele>
        <time>2019-11-21T21:39:41Z</time>
      </trkpt>
      <trkpt lat="43.13812509" lon="-1.97207981">
        <ele>645.5105</ele>
        <time>2019-11-21T21:39:42Z</time>
      </trkpt>
      <trkpt lat="43.13789889" lon="-1.97189504">
        <ele>645.31836</ele>
        <time>2019-11-21T21:39:43Z</time>
      </trkpt>
      <trkpt lat="43.13769784" lon="-1.9716871">
        <ele>646.85815</ele>
        <time>2019-11-21T21:39:44Z</time>
      </trkpt>
      <trkpt lat="43.13749943" lon="-1.97149309">
        <ele>647.6355</ele>
        <time>2019-11-21T21:39:45Z</time>
      </trkpt>
      <trkpt lat="43.1372849" lon="-1.9713044">
        <ele>648.7954</ele>
        <time>2019-11-21T21:39:47Z</time>
      </trkpt>
      <trkpt lat="43.13689084" lon="-1.97092845">
        <ele>650.93274</ele>
        <time>2019-11-21T21:39:48Z</time>
      </trkpt>
      <trkpt lat="43.13671625" lon="-1.97073621">
        <ele>651.77795</ele>
        <time>2019-11-21T21:39:49Z</time>
      </trkpt>
      <trkpt lat="43.13653245" lon="-1.97056472">
        <ele>652.15405</ele>
        <time>2019-11-21T21:39:50Z</time>
      </trkpt>
      <trkpt lat="43.13634613" lon="-1.97037261">
        <ele>653.7654</ele>
        <time>2019-11-21T21:39:51Z</time>
      </trkpt>
      <trkpt lat="43.13613607" lon="-1.97017117">
        <ele>655.00134</ele>
        <time>2019-11-21T21:39:52Z</time>
      </trkpt>
      <trkpt lat="43.13593271" lon="-1.96999498">
        <ele>655.31885</ele>
        <time>2019-11-21T21:39:53Z</time>
      </trkpt>
      <trkpt lat="43.13571084" lon="-1.9698444">
        <ele>655.8888</ele>
        <time>2019-11-21T21:39:54Z</time>
      </trkpt>
      <trkpt lat="43.13550686" lon="-1.96969891">
        <ele>656.3644</ele>
        <time>2019-11-21T21:39:55Z</time>
      </trkpt>
      <trkpt lat="43.13526777" lon="-1.96957371">
        <ele>656.76953</ele>
        <time>2019-11-21T21:39:56Z</time>
      </trkpt>
      <trkpt lat="43.13504153" lon="-1.96945165">
        <ele>656.0188</ele>
        <time>2019-11-21T21:39:57Z</time>
      </trkpt>
      <trkpt lat="43.13480947" lon="-1.9693663">
        <ele>655.646</ele>
        <time>2019-11-21T21:39:58Z</time>
      </trkpt>
      <trkpt lat="43.13457349" lon="-1.96927695">
        <ele>656.7832</ele>
        <time>2019-11-21T21:39:59Z</time>
      </trkpt>
      <trkpt lat="43.13435079" lon="-1.96920976">
        <ele>656.84863</ele>
        <time>2019-11-21T21:40:00Z</time>
      </trkpt>
      <trkpt lat="43.13412861" lon="-1.96915534">
        <ele>657.31836</ele>
        <time>2019-11-21T21:40:01Z</time>
      </trkpt>
      <trkpt lat="43.13388155" lon="-1.96909467">
        <ele>657.7429</ele>
        <time>2019-11-21T21:40:02Z</time>
      </trkpt>
      <trkpt lat="43.13363545" lon="-1.96907979">
        <ele>657.5962</ele>
        <time>2019-11-21T21:40:03Z</time>
      </trkpt>
      <trkpt lat="43.13339421" lon="-1.96908396">
        <ele>657.5093</ele>
        <time>2019-11-21T21:40:04Z</time>
      </trkpt>
      <trkpt lat="43.13315033912659" lon="-1.9690901041030884">
        <ele>0.0</ele>
        <time>2019-11-21T21:40:05Z</time>
      </trkpt>
      <trkpt lat="43.12864422798157" lon="-1.9676792621612549">
        <ele>650.9158</ele>
        <time>2019-11-21T21:40:25Z</time>
      </trkpt>
      <trkpt lat="43.1282493" lon="-1.96774758">
        <ele>642.86</ele>
        <time>2019-11-21T21:40:26Z</time>
      </trkpt>
      <trkpt lat="43.12800041" lon="-1.96754322">
        <ele>640.86707</ele>
        <time>2019-11-21T21:40:27Z</time>
      </trkpt>
      <trkpt lat="43.12782693" lon="-1.96737985">
        <ele>640.1957</ele>
        <time>2019-11-21T21:40:28Z</time>
      </trkpt>
      <trkpt lat="43.1275865" lon="-1.9671892">
        <ele>641.41016</ele>
        <time>2019-11-21T21:40:29Z</time>
      </trkpt>
      <trkpt lat="43.12737859" lon="-1.96700359">
        <ele>641.61426</ele>
        <time>2019-11-21T21:40:30Z</time>
      </trkpt>
      <trkpt lat="43.12713426" lon="-1.96685506">
        <ele>642.2656</ele>
        <time>2019-11-21T21:40:31Z</time>
      </trkpt>
      <trkpt lat="43.12689056" lon="-1.96672888">
        <ele>643.40234</ele>
        <time>2019-11-21T21:40:32Z</time>
      </trkpt>
      <trkpt lat="43.12668149" lon="-1.96659455">
        <ele>642.80054</ele>
        <time>2019-11-21T21:40:33Z</time>
      </trkpt>
      <trkpt lat="43.12647432" lon="-1.9664717">
        <ele>638.5017</ele>
        <time>2019-11-21T21:40:34Z</time>
      </trkpt>
      <trkpt lat="43.12622549" lon="-1.96641672">
        <ele>639.2771</ele>
        <time>2019-11-21T21:40:35Z</time>
      </trkpt>
      <trkpt lat="43.12598214" lon="-1.96637356">
        <ele>634.6277</ele>
        <time>2019-11-21T21:40:36Z</time>
      </trkpt>
      <trkpt lat="43.12572706" lon="-1.96635088">
        <ele>632.89624</ele>
        <time>2019-11-21T21:40:37Z</time>
      </trkpt>
      <trkpt lat="43.12547492" lon="-1.9663593">
        <ele>631.1221</ele>
        <time>2019-11-21T21:40:38Z</time>
      </trkpt>
      <trkpt lat="43.1252156" lon="-1.96637882">
        <ele>629.34155</ele>
        <time>2019-11-21T21:40:39Z</time>
      </trkpt>
      <trkpt lat="43.1249561" lon="-1.96639039">
        <ele>628.61816</ele>
        <time>2019-11-21T21:40:40Z</time>
      </trkpt>
      <trkpt lat="43.12470333" lon="-1.96641307">
        <ele>628.7395</ele>
        <time>2019-11-21T21:40:41Z</time>
      </trkpt>
      <trkpt lat="43.12445548" lon="-1.96639879">
        <ele>626.64185</ele>
        <time>2019-11-21T21:40:42Z</time>
      </trkpt>
      <trkpt lat="43.12421724" lon="-1.96637308">
        <ele>623.9967</ele>
        <time>2019-11-21T21:40:43Z</time>
      </trkpt>
      <trkpt lat="43.12397992" lon="-1.9663221">
        <ele>622.5322</ele>
        <time>2019-11-21T21:40:44Z</time>
      </trkpt>
      <trkpt lat="43.12374042" lon="-1.9662325">
        <ele>622.8773</ele>
        <time>2019-11-21T21:40:46Z</time>
      </trkpt>
      <trkpt lat="43.12351846" lon="-1.96612799">
        <ele>621.4741</ele>
        <time>2019-11-21T21:40:47Z</time>
      </trkpt>
      <trkpt lat="43.12313657" lon="-1.96586572">
        <ele>618.1211</ele>
        <time>2019-11-21T21:40:48Z</time>
      </trkpt>
      <trkpt lat="43.12288041" lon="-1.96569746">
        <ele>617.1289</ele>
        <time>2019-11-21T21:40:49Z</time>
      </trkpt>
      <trkpt lat="43.12261301" lon="-1.96551455">
        <ele>616.4685</ele>
        <time>2019-11-21T21:40:50Z</time>
      </trkpt>
      <trkpt lat="43.12241792" lon="-1.96529657">
        <ele>612.59045</ele>
        <time>2019-11-21T21:40:51Z</time>
      </trkpt>
      <trkpt lat="43.12216561" lon="-1.96513325">
        <ele>613.53406</ele>
        <time>2019-11-21T21:40:52Z</time>
      </trkpt>
      <trkpt lat="43.1219433" lon="-1.9650046">
        <ele>611.14294</ele>
        <time>2019-11-21T21:40:53Z</time>
      </trkpt>
      <trkpt lat="43.12168095" lon="-1.96487178">
        <ele>609.66565</ele>
        <time>2019-11-21T21:40:54Z</time>
      </trkpt>
      <trkpt lat="43.12143835" lon="-1.96476681">
        <ele>609.8396</ele>
        <time>2019-11-21T21:40:55Z</time>
      </trkpt>
      <trkpt lat="43.12119445" lon="-1.96469411">
        <ele>607.60815</ele>
        <time>2019-11-21T21:40:56Z</time>
      </trkpt>
      <trkpt lat="43.12093274" lon="-1.96465649">
        <ele>607.573</ele>
        <time>2019-11-21T21:40:57Z</time>
      </trkpt>
      <trkpt lat="43.12067516" lon="-1.9646485">
        <ele>605.4441</ele>
        <time>2019-11-21T21:40:58Z</time>
      </trkpt>
      <trkpt lat="43.12041171" lon="-1.96466676">
        <ele>606.28687</ele>
        <time>2019-11-21T21:40:59Z</time>
      </trkpt>
      <trkpt lat="43.12016046" lon="-1.96470447">
        <ele>604.5193</ele>
        <time>2019-11-21T21:41:01Z</time>
      </trkpt>
      <trkpt lat="43.11942299" lon="-1.96489357">
        <ele>601.40125</ele>
        <time>2019-11-21T21:41:03Z</time>
      </trkpt>
      <trkpt lat="43.11917324" lon="-1.96495208">
        <ele>599.26685</ele>
        <time>2019-11-21T21:41:04Z</time>
      </trkpt>
      <trkpt lat="43.11890499" lon="-1.96501041">
        <ele>599.5808</ele>
        <time>2019-11-21T21:41:05Z</time>
      </trkpt>
      <trkpt lat="43.11864406" lon="-1.9650357">
        <ele>597.843</ele>
        <time>2019-11-21T21:41:06Z</time>
      </trkpt>
      <trkpt lat="43.11837794" lon="-1.96503933">
        <ele>598.3248</ele>
        <time>2019-11-21T21:41:07Z</time>
      </trkpt>
      <trkpt lat="43.11812157" lon="-1.96499955">
        <ele>596.06055</ele>
        <time>2019-11-21T21:41:08Z</time>
      </trkpt>
      <trkpt lat="43.11787269" lon="-1.96494841">
        <ele>593.8727</ele>
        <time>2019-11-21T21:41:09Z</time>
      </trkpt>
      <trkpt lat="43.11761413" lon="-1.9648524">
        <ele>627.7848</ele>
        <time>2019-11-21T21:41:10Z</time>
      </trkpt>
      <trkpt lat="43.11737264" lon="-1.96473035">
        <ele>622.1316</ele>
        <time>2019-11-21T21:41:11Z</time>
      </trkpt>
      <trkpt lat="43.11715583" lon="-1.96459136">
        <ele>617.37036</ele>
        <time>2019-11-21T21:41:13Z</time>
      </trkpt>
      <trkpt lat="43.11692118" lon="-1.96442553">
        <ele>612.0614</ele>
        <time>2019-11-21T21:41:14Z</time>
      </trkpt>
      <trkpt lat="43.11647621" lon="-1.96401883">
        <ele>605.29614</ele>
        <time>2019-11-21T21:41:15Z</time>
      </trkpt>
      <trkpt lat="43.11627715" lon="-1.96376485">
        <ele>604.1327</ele>
        <time>2019-11-21T21:41:16Z</time>
      </trkpt>
      <trkpt lat="43.11609006" lon="-1.96349014">
        <ele>601.3574</ele>
        <time>2019-11-21T21:41:17Z</time>
      </trkpt>
      <trkpt lat="43.11592992" lon="-1.96321595">
        <ele>597.6134</ele>
        <time>2019-11-21T21:41:18Z</time>
      </trkpt>
      <trkpt lat="43.11576258" lon="-1.96292836">
        <ele>596.7687</ele>
        <time>2019-11-21T21:41:19Z</time>
      </trkpt>
      <trkpt lat="43.11558568" lon="-1.96263066">
        <ele>596.15967</ele>
        <time>2019-11-21T21:41:20Z</time>
      </trkpt>
      <trkpt lat="43.11542634" lon="-1.96235273">
        <ele>594.9641</ele>
        <time>2019-11-21T21:41:21Z</time>
      </trkpt>
      <trkpt lat="43.11526389" lon="-1.96207561">
        <ele>593.0502</ele>
        <time>2019-11-21T21:41:22Z</time>
      </trkpt>
      <trkpt lat="43.11509501" lon="-1.96180711">
        <ele>591.50793</ele>
        <time>2019-11-21T21:41:23Z</time>
      </trkpt>
      <trkpt lat="43.11491605" lon="-1.9615556">
        <ele>589.81616</ele>
        <time>2019-11-21T21:41:24Z</time>
      </trkpt>
      <trkpt lat="43.1147246" lon="-1.96131733">
        <ele>589.855</ele>
        <time>2019-11-21T21:41:25Z</time>
      </trkpt>
      <trkpt lat="43.11453048" lon="-1.96109173">
        <ele>589.7219</ele>
        <time>2019-11-21T21:41:26Z</time>
      </trkpt>
      <trkpt lat="43.11434008" lon="-1.96087381">
        <ele>589.0381</ele>
        <time>2019-11-21T21:41:27Z</time>
      </trkpt>
      <trkpt lat="43.11414985" lon="-1.96065347">
        <ele>588.8213</ele>
        <time>2019-11-21T21:41:28Z</time>
      </trkpt>
      <trkpt lat="43.11393575" lon="-1.96044118">
        <ele>587.8801</ele>
        <time>2019-11-21T21:41:29Z</time>
      </trkpt>
      <trkpt lat="43.11372454" lon="-1.96022085">
        <ele>585.70435</ele>
        <time>2019-11-21T21:41:30Z</time>
      </trkpt>
      <trkpt lat="43.1135361" lon="-1.95999846">
        <ele>583.7671</ele>
        <time>2019-11-21T21:41:31Z</time>
      </trkpt>
      <trkpt lat="43.11336659" lon="-1.95977576">
        <ele>582.3583</ele>
        <time>2019-11-21T21:41:32Z</time>
      </trkpt>
      <trkpt lat="43.11320232" lon="-1.95954134">
        <ele>581.1504</ele>
        <time>2019-11-21T21:41:33Z</time>
      </trkpt>
      <trkpt lat="43.11304038" lon="-1.95929991">
        <ele>579.86707</ele>
        <time>2019-11-21T21:41:34Z</time>
      </trkpt>
      <trkpt lat="43.11289311" lon="-1.959048">
        <ele>579.8679</ele>
        <time>2019-11-21T21:41:35Z</time>
      </trkpt>
      <trkpt lat="43.11274736" lon="-1.95878986">
        <ele>578.4016</ele>
        <time>2019-11-21T21:41:36Z</time>
      </trkpt>
      <trkpt lat="43.1126168" lon="-1.95853652">
        <ele>577.14026</ele>
        <time>2019-11-21T21:41:37Z</time>
      </trkpt>
      <trkpt lat="43.11247047" lon="-1.95829176">
        <ele>576.7427</ele>
        <time>2019-11-21T21:41:38Z</time>
      </trkpt>
      <trkpt lat="43.11232616" lon="-1.9580417">
        <ele>574.751</ele>
        <time>2019-11-21T21:41:39Z</time>
      </trkpt>
      <trkpt lat="43.11218761" lon="-1.95780433">
        <ele>573.3135</ele>
        <time>2019-11-21T21:41:40Z</time>
      </trkpt>
      <trkpt lat="43.11203598" lon="-1.95756719">
        <ele>571.2219</ele>
        <time>2019-11-21T21:41:41Z</time>
      </trkpt>
      <trkpt lat="43.11188261" lon="-1.95733615">
        <ele>569.68384</ele>
        <time>2019-11-21T21:41:43Z</time>
      </trkpt>
      <trkpt lat="43.11156849" lon="-1.95690325">
        <ele>569.5757</ele>
        <time>2019-11-21T21:41:44Z</time>
      </trkpt>
      <trkpt lat="43.11140195" lon="-1.95668261">
        <ele>570.30273</ele>
        <time>2019-11-21T21:41:45Z</time>
      </trkpt>
      <trkpt lat="43.11122245" lon="-1.95647519">
        <ele>570.5513</ele>
        <time>2019-11-21T21:41:46Z</time>
      </trkpt>
      <trkpt lat="43.11103936" lon="-1.95627482">
        <ele>569.88525</ele>
        <time>2019-11-21T21:41:47Z</time>
      </trkpt>
      <trkpt lat="43.11085727" lon="-1.9560854">
        <ele>568.9155</ele>
        <time>2019-11-21T21:41:48Z</time>
      </trkpt>
      <trkpt lat="43.11066982" lon="-1.9559099">
        <ele>565.27905</ele>
        <time>2019-11-21T21:41:49Z</time>
      </trkpt>
      <trkpt lat="43.11047196" lon="-1.95573181">
        <ele>563.31213</ele>
        <time>2019-11-21T21:41:50Z</time>
      </trkpt>
      <trkpt lat="43.11027027" lon="-1.95554519">
        <ele>562.6638</ele>
        <time>2019-11-21T21:41:51Z</time>
      </trkpt>
      <trkpt lat="43.11005689" lon="-1.95535925">
        <ele>560.5565</ele>
        <time>2019-11-21T21:41:52Z</time>
      </trkpt>
      <trkpt lat="43.10982544" lon="-1.95518532">
        <ele>558.7372</ele>
        <time>2019-11-21T21:41:53Z</time>
      </trkpt>
      <trkpt lat="43.10960257" lon="-1.95500196">
        <ele>556.90234</ele>
        <time>2019-11-21T21:41:54Z</time>
      </trkpt>
      <trkpt lat="43.10938045" lon="-1.95482385">
        <ele>555.91223</ele>
        <time>2019-11-21T21:41:55Z</time>
      </trkpt>
      <trkpt lat="43.10916658" lon="-1.95464399">
        <ele>553.6655</ele>
        <time>2019-11-21T21:41:56Z</time>
      </trkpt>
      <trkpt lat="43.10894838" lon="-1.95444984">
        <ele>551.5403</ele>
        <time>2019-11-21T21:41:57Z</time>
      </trkpt>
      <trkpt lat="43.10874159" lon="-1.95425068">
        <ele>548.2987</ele>
        <time>2019-11-21T21:41:58Z</time>
      </trkpt>
      <trkpt lat="43.10855273" lon="-1.95403507">
        <ele>546.3955</ele>
        <time>2019-11-21T21:41:59Z</time>
      </trkpt>
      <trkpt lat="43.10836446" lon="-1.95382002">
        <ele>545.09534</ele>
        <time>2019-11-21T21:42:00Z</time>
      </trkpt>
      <trkpt lat="43.10817622" lon="-1.95359677">
        <ele>544.17346</ele>
        <time>2019-11-21T21:42:01Z</time>
      </trkpt>
      <trkpt lat="43.10798454" lon="-1.95336494">
        <ele>544.3187</ele>
        <time>2019-11-21T21:42:02Z</time>
      </trkpt>
      <trkpt lat="43.10780363" lon="-1.95314055">
        <ele>544.17737</ele>
        <time>2019-11-21T21:42:03Z</time>
      </trkpt>
      <trkpt lat="43.10760322" lon="-1.95292832">
        <ele>556.416</ele>
        <time>2019-11-21T21:42:04Z</time>
      </trkpt>
      <trkpt lat="43.107421" lon="-1.95270771">
        <ele>551.29517</ele>
        <time>2019-11-21T21:42:05Z</time>
      </trkpt>
      <trkpt lat="43.10722614" lon="-1.95245251">
        <ele>547.34985</ele>
        <time>2019-11-21T21:42:06Z</time>
      </trkpt>
      <trkpt lat="43.10704358" lon="-1.95220972">
        <ele>544.07886</ele>
        <time>2019-11-21T21:42:07Z</time>
      </trkpt>
      <trkpt lat="43.10686388" lon="-1.95194315">
        <ele>542.1177</ele>
        <time>2019-11-21T21:42:08Z</time>
      </trkpt>
      <trkpt lat="43.10668266" lon="-1.95167221">
        <ele>551.1067</ele>
        <time>2019-11-21T21:42:09Z</time>
      </trkpt>
      <trkpt lat="43.10650501" lon="-1.9513906">
        <ele>546.4392</ele>
        <time>2019-11-21T21:42:10Z</time>
      </trkpt>
      <trkpt lat="43.10632855" lon="-1.95110605">
        <ele>543.5547</ele>
        <time>2019-11-21T21:42:12Z</time>
      </trkpt>
      <trkpt lat="43.10599468" lon="-1.95053386">
        <ele>538.69495</ele>
        <time>2019-11-21T21:42:13Z</time>
      </trkpt>
      <trkpt lat="43.10583451" lon="-1.95024079">
        <ele>536.7339</ele>
        <time>2019-11-21T21:42:14Z</time>
      </trkpt>
      <trkpt lat="43.10567371" lon="-1.94994457">
        <ele>536.41846</ele>
        <time>2019-11-21T21:42:15Z</time>
      </trkpt>
      <trkpt lat="43.10552568" lon="-1.94964669">
        <ele>535.14966</ele>
        <time>2019-11-21T21:42:16Z</time>
      </trkpt>
      <trkpt lat="43.10538836" lon="-1.94934255">
        <ele>534.57874</ele>
        <time>2019-11-21T21:42:17Z</time>
      </trkpt>
      <trkpt lat="43.10526872" lon="-1.94902799">
        <ele>534.27026</ele>
        <time>2019-11-21T21:42:18Z</time>
      </trkpt>
      <trkpt lat="43.105147" lon="-1.94871293">
        <ele>534.1311</ele>
        <time>2019-11-21T21:42:19Z</time>
      </trkpt>
      <trkpt lat="43.10504241" lon="-1.94839118">
        <ele>533.4442</ele>
        <time>2019-11-21T21:42:20Z</time>
      </trkpt>
      <trkpt lat="43.10491718" lon="-1.94806617">
        <ele>532.80225</ele>
        <time>2019-11-21T21:42:21Z</time>
      </trkpt>
      <trkpt lat="43.10477981" lon="-1.94775363">
        <ele>532.5454</ele>
        <time>2019-11-21T21:42:22Z</time>
      </trkpt>
      <trkpt lat="43.10464337" lon="-1.94744436">
        <ele>529.8639</ele>
        <time>2019-11-21T21:42:23Z</time>
      </trkpt>
      <trkpt lat="43.10449758" lon="-1.94714521">
        <ele>528.2551</ele>
        <time>2019-11-21T21:42:24Z</time>
      </trkpt>
      <trkpt lat="43.1043471" lon="-1.94684394">
        <ele>526.46704</ele>
        <time>2019-11-21T21:42:25Z</time>
      </trkpt>
      <trkpt lat="43.10418168" lon="-1.94656194">
        <ele>525.42114</ele>
        <time>2019-11-21T21:42:26Z</time>
      </trkpt>
      <trkpt lat="43.10401097" lon="-1.94629093">
        <ele>524.02783</ele>
        <time>2019-11-21T21:42:27Z</time>
      </trkpt>
      <trkpt lat="43.10382952" lon="-1.94603509">
        <ele>523.36554</ele>
        <time>2019-11-21T21:42:28Z</time>
      </trkpt>
      <trkpt lat="43.1036424" lon="-1.94579436">
        <ele>522.0597</ele>
        <time>2019-11-21T21:42:29Z</time>
      </trkpt>
      <trkpt lat="43.10342731" lon="-1.94558794">
        <ele>518.963</ele>
        <time>2019-11-21T21:42:30Z</time>
      </trkpt>
      <trkpt lat="43.10322105" lon="-1.94538883">
        <ele>516.26965</ele>
        <time>2019-11-21T21:42:31Z</time>
      </trkpt>
      <trkpt lat="43.10299801" lon="-1.94519385">
        <ele>515.1349</ele>
        <time>2019-11-21T21:42:32Z</time>
      </trkpt>
      <trkpt lat="43.10276782" lon="-1.94501706">
        <ele>514.04706</ele>
        <time>2019-11-21T21:42:33Z</time>
      </trkpt>
      <trkpt lat="43.10253384" lon="-1.94486573">
        <ele>513.17865</ele>
        <time>2019-11-21T21:42:34Z</time>
      </trkpt>
      <trkpt lat="43.10229218" lon="-1.94472819">
        <ele>511.76855</ele>
        <time>2019-11-21T21:42:35Z</time>
      </trkpt>
      <trkpt lat="43.10204842" lon="-1.94461528">
        <ele>509.78076</ele>
        <time>2019-11-21T21:42:36Z</time>
      </trkpt>
      <trkpt lat="43.10179825" lon="-1.94451946">
        <ele>509.51746</ele>
        <time>2019-11-21T21:42:38Z</time>
      </trkpt>
      <trkpt lat="43.10154861" lon="-1.9444411">
        <ele>508.8465</ele>
        <time>2019-11-21T21:42:39Z</time>
      </trkpt>
      <trkpt lat="43.1010295" lon="-1.94435227">
        <ele>505.72986</ele>
        <time>2019-11-21T21:42:40Z</time>
      </trkpt>
      <trkpt lat="43.10078554" lon="-1.94432509">
        <ele>504.9178</ele>
        <time>2019-11-21T21:42:41Z</time>
      </trkpt>
      <trkpt lat="43.10052496" lon="-1.94432386">
        <ele>504.29034</ele>
        <time>2019-11-21T21:42:42Z</time>
      </trkpt>
      <trkpt lat="43.10027926" lon="-1.94433906">
        <ele>502.81213</ele>
        <time>2019-11-21T21:42:43Z</time>
      </trkpt>
      <trkpt lat="43.10001104" lon="-1.94437241">
        <ele>502.36646</ele>
        <time>2019-11-21T21:42:44Z</time>
      </trkpt>
      <trkpt lat="43.0997549" lon="-1.94439978">
        <ele>502.25165</ele>
        <time>2019-11-21T21:42:45Z</time>
      </trkpt>
      <trkpt lat="43.09951064" lon="-1.94443377">
        <ele>500.04846</ele>
        <time>2019-11-21T21:42:46Z</time>
      </trkpt>
      <trkpt lat="43.09926735" lon="-1.94446028">
        <ele>501.49524</ele>
        <time>2019-11-21T21:42:47Z</time>
      </trkpt>
      <trkpt lat="43.09902625" lon="-1.94446981">
        <ele>502.19324</ele>
        <time>2019-11-21T21:42:48Z</time>
      </trkpt>
      <trkpt lat="43.09877454" lon="-1.9444678">
        <ele>501.69934</ele>
        <time>2019-11-21T21:42:49Z</time>
      </trkpt>
      <trkpt lat="43.0985259" lon="-1.94443701">
        <ele>502.07977</ele>
        <time>2019-11-21T21:42:50Z</time>
      </trkpt>
      <trkpt lat="43.09828648" lon="-1.94435339">
        <ele>502.10522</ele>
        <time>2019-11-21T21:42:51Z</time>
      </trkpt>
      <trkpt lat="43.09802357" lon="-1.94426866">
        <ele>502.05292</ele>
        <time>2019-11-21T21:42:52Z</time>
      </trkpt>
      <trkpt lat="43.09779701" lon="-1.94418487">
        <ele>500.53857</ele>
        <time>2019-11-21T21:42:53Z</time>
      </trkpt>
      <trkpt lat="43.09755494" lon="-1.94405853">
        <ele>500.6266</ele>
        <time>2019-11-21T21:42:54Z</time>
      </trkpt>
      <trkpt lat="43.09733529" lon="-1.9439063">
        <ele>501.18762</ele>
        <time>2019-11-21T21:42:55Z</time>
      </trkpt>
      <trkpt lat="43.09711131" lon="-1.94371976">
        <ele>499.85156</ele>
        <time>2019-11-21T21:42:56Z</time>
      </trkpt>
      <trkpt lat="43.09687662" lon="-1.94353359">
        <ele>500.0088</ele>
        <time>2019-11-21T21:42:57Z</time>
      </trkpt>
      <trkpt lat="43.09665257" lon="-1.94335467">
        <ele>501.35828</ele>
        <time>2019-11-21T21:42:58Z</time>
      </trkpt>
      <trkpt lat="43.09639875" lon="-1.94317872">
        <ele>501.91284</ele>
        <time>2019-11-21T21:42:59Z</time>
      </trkpt>
      <trkpt lat="43.0961515" lon="-1.94302218">
        <ele>501.28906</ele>
        <time>2019-11-21T21:43:00Z</time>
      </trkpt>
      <trkpt lat="43.09588217" lon="-1.94287803">
        <ele>502.87134</ele>
        <time>2019-11-21T21:43:01Z</time>
      </trkpt>
      <trkpt lat="43.09561964" lon="-1.94275228">
        <ele>503.2328</ele>
        <time>2019-11-21T21:43:02Z</time>
      </trkpt>
      <trkpt lat="43.09536047" lon="-1.9426367">
        <ele>502.5774</ele>
        <time>2019-11-21T21:43:03Z</time>
      </trkpt>
      <trkpt lat="43.0950832" lon="-1.94255149">
        <ele>505.51404</ele>
        <time>2019-11-21T21:43:04Z</time>
      </trkpt>
      <trkpt lat="43.09482693" lon="-1.94246678">
        <ele>502.96008</ele>
        <time>2019-11-21T21:43:05Z</time>
      </trkpt>
      <trkpt lat="43.09455221" lon="-1.94242168">
        <ele>501.2378</ele>
        <time>2019-11-21T21:43:06Z</time>
      </trkpt>
      <trkpt lat="43.09427776" lon="-1.94239799">
        <ele>500.64246</ele>
        <time>2019-11-21T21:43:08Z</time>
      </trkpt>
      <trkpt lat="43.09401943" lon="-1.94240377">
        <ele>498.21136</ele>
        <time>2019-11-21T21:43:09Z</time>
      </trkpt>
      <trkpt lat="43.09347162" lon="-1.94246695">
        <ele>497.4568</ele>
        <time>2019-11-21T21:43:10Z</time>
      </trkpt>
      <trkpt lat="43.09319277" lon="-1.94252766">
        <ele>498.31085</ele>
        <time>2019-11-21T21:43:11Z</time>
      </trkpt>
      <trkpt lat="43.09292136" lon="-1.94259166">
        <ele>497.91357</ele>
        <time>2019-11-21T21:43:12Z</time>
      </trkpt>
      <trkpt lat="43.09265424" lon="-1.94265555">
        <ele>497.45715</ele>
        <time>2019-11-21T21:43:13Z</time>
      </trkpt>
      <trkpt lat="43.09238775" lon="-1.94270918">
        <ele>497.385</ele>
        <time>2019-11-21T21:43:14Z</time>
      </trkpt>
      <trkpt lat="43.09215477" lon="-1.9427472">
        <ele>495.33118</ele>
        <time>2019-11-21T21:43:15Z</time>
      </trkpt>
      <trkpt lat="43.09190387" lon="-1.94274543">
        <ele>494.84045</ele>
        <time>2019-11-21T21:43:16Z</time>
      </trkpt>
      <trkpt lat="43.09163457" lon="-1.94272904">
        <ele>493.80762</ele>
        <time>2019-11-21T21:43:17Z</time>
      </trkpt>
      <trkpt lat="43.09135213" lon="-1.94268239">
        <ele>493.9806</ele>
        <time>2019-11-21T21:43:18Z</time>
      </trkpt>
      <trkpt lat="43.09108932" lon="-1.94263797">
        <ele>494.3463</ele>
        <time>2019-11-21T21:43:19Z</time>
      </trkpt>
      <trkpt lat="43.09084104" lon="-1.94257411">
        <ele>493.15137</ele>
        <time>2019-11-21T21:43:20Z</time>
      </trkpt>
      <trkpt lat="43.09058146" lon="-1.94248417">
        <ele>495.5398</ele>
        <time>2019-11-21T21:43:21Z</time>
      </trkpt>
      <trkpt lat="43.09031553" lon="-1.94242694">
        <ele>496.27832</ele>
        <time>2019-11-21T21:43:22Z</time>
      </trkpt>
      <trkpt lat="43.09004077" lon="-1.94236488">
        <ele>497.67487</ele>
        <time>2019-11-21T21:43:23Z</time>
      </trkpt>
      <trkpt lat="43.08976999" lon="-1.94233178">
        <ele>498.9463</ele>
        <time>2019-11-21T21:43:24Z</time>
      </trkpt>
      <trkpt lat="43.08948098" lon="-1.94232492">
        <ele>500.16602</ele>
        <time>2019-11-21T21:43:25Z</time>
      </trkpt>
      <trkpt lat="43.08922384" lon="-1.94235329">
        <ele>501.35736</ele>
        <time>2019-11-21T21:43:26Z</time>
      </trkpt>
      <trkpt lat="43.08895896" lon="-1.94240912">
        <ele>502.14215</ele>
        <time>2019-11-21T21:43:27Z</time>
      </trkpt>
      <trkpt lat="43.08873128" lon="-1.9424598">
        <ele>501.65503</ele>
        <time>2019-11-21T21:43:28Z</time>
      </trkpt>
      <trkpt lat="43.08850225" lon="-1.94253607">
        <ele>500.10986</ele>
        <time>2019-11-21T21:43:29Z</time>
      </trkpt>
      <trkpt lat="43.08825987" lon="-1.94262217">
        <ele>500.01672</ele>
        <time>2019-11-21T21:43:30Z</time>
      </trkpt>
      <trkpt lat="43.08795328" lon="-1.94273028">
        <ele>501.6543</ele>
        <time>2019-11-21T21:43:31Z</time>
      </trkpt>
      <trkpt lat="43.08767644" lon="-1.94281563">
        <ele>503.76416</ele>
        <time>2019-11-21T21:43:32Z</time>
      </trkpt>
      <trkpt lat="43.08739459" lon="-1.94288073">
        <ele>506.48633</ele>
        <time>2019-11-21T21:43:33Z</time>
      </trkpt>
      <trkpt lat="43.0871119" lon="-1.94292298">
        <ele>508.5188</ele>
        <time>2019-11-21T21:43:34Z</time>
      </trkpt>
      <trkpt lat="43.08686184" lon="-1.9429274">
        <ele>504.78375</ele>
        <time>2019-11-21T21:43:35Z</time>
      </trkpt>
      <trkpt lat="43.08660095" lon="-1.94289435">
        <ele>502.80066</ele>
        <time>2019-11-21T21:43:37Z</time>
      </trkpt>
      <trkpt lat="43.08604207" lon="-1.94277085">
        <ele>504.3097</ele>
        <time>2019-11-21T21:43:38Z</time>
      </trkpt>
      <trkpt lat="43.08575293" lon="-1.94267352">
        <ele>505.86975</ele>
        <time>2019-11-21T21:43:39Z</time>
      </trkpt>
      <trkpt lat="43.08548569" lon="-1.94255429">
        <ele>509.278</ele>
        <time>2019-11-21T21:43:40Z</time>
      </trkpt>
      <trkpt lat="43.08520773" lon="-1.94243963">
        <ele>510.9043</ele>
        <time>2019-11-21T21:43:41Z</time>
      </trkpt>
      <trkpt lat="43.08492315" lon="-1.94234458">
        <ele>513.9988</ele>
        <time>2019-11-21T21:43:42Z</time>
      </trkpt>
      <trkpt lat="43.08463604" lon="-1.94226478">
        <ele>517.4386</ele>
        <time>2019-11-21T21:43:43Z</time>
      </trkpt>
      <trkpt lat="43.08434408" lon="-1.94221189">
        <ele>519.711</ele>
        <time>2019-11-21T21:43:44Z</time>
      </trkpt>
      <trkpt lat="43.08405706" lon="-1.9421882">
        <ele>520.34766</ele>
        <time>2019-11-21T21:43:45Z</time>
      </trkpt>
      <trkpt lat="43.08376317" lon="-1.94218955">
        <ele>521.79443</ele>
        <time>2019-11-21T21:43:46Z</time>
      </trkpt>
      <trkpt lat="43.08348675" lon="-1.94222522">
        <ele>520.995</ele>
        <time>2019-11-21T21:43:47Z</time>
      </trkpt>
      <trkpt lat="43.08321516" lon="-1.94228741">
        <ele>521.88904</ele>
        <time>2019-11-21T21:43:48Z</time>
      </trkpt>
      <trkpt lat="43.08294909" lon="-1.94238321">
        <ele>521.9487</ele>
        <time>2019-11-21T21:43:49Z</time>
      </trkpt>
      <trkpt lat="43.08268759" lon="-1.94250522">
        <ele>522.7908</ele>
        <time>2019-11-21T21:43:50Z</time>
      </trkpt>
      <trkpt lat="43.08243443" lon="-1.94266636">
        <ele>522.39355</ele>
        <time>2019-11-21T21:43:51Z</time>
      </trkpt>
      <trkpt lat="43.0822038" lon="-1.94283949">
        <ele>521.8165</ele>
        <time>2019-11-21T21:43:52Z</time>
      </trkpt>
      <trkpt lat="43.08197519" lon="-1.94304253">
        <ele>522.46967</ele>
        <time>2019-11-21T21:43:53Z</time>
      </trkpt>
      <trkpt lat="43.0817659" lon="-1.94328865">
        <ele>522.66974</ele>
        <time>2019-11-21T21:43:54Z</time>
      </trkpt>
      <trkpt lat="43.08156393" lon="-1.94352239">
        <ele>520.9875</ele>
        <time>2019-11-21T21:43:55Z</time>
      </trkpt>
      <trkpt lat="43.08138272" lon="-1.94380365">
        <ele>521.2668</ele>
        <time>2019-11-21T21:43:56Z</time>
      </trkpt>
      <trkpt lat="43.081215" lon="-1.94409601">
        <ele>521.45264</ele>
        <time>2019-11-21T21:43:57Z</time>
      </trkpt>
      <trkpt lat="43.08105227" lon="-1.9444097">
        <ele>522.48517</ele>
        <time>2019-11-21T21:43:58Z</time>
      </trkpt>
      <trkpt lat="43.08087966" lon="-1.94473337">
        <ele>522.9989</ele>
        <time>2019-11-21T21:43:59Z</time>
      </trkpt>
      <trkpt lat="43.0807295" lon="-1.94505194">
        <ele>524.19006</ele>
        <time>2019-11-21T21:44:00Z</time>
      </trkpt>
      <trkpt lat="43.08053576" lon="-1.94536303">
        <ele>523.21234</ele>
        <time>2019-11-21T21:44:01Z</time>
      </trkpt>
      <trkpt lat="43.08034918" lon="-1.94563435">
        <ele>521.2589</ele>
        <time>2019-11-21T21:44:02Z</time>
      </trkpt>
      <trkpt lat="43.08017567" lon="-1.94590249">
        <ele>522.0448</ele>
        <time>2019-11-21T21:44:03Z</time>
      </trkpt>
      <trkpt lat="43.079988" lon="-1.94615986">
        <ele>522.7979</ele>
        <time>2019-11-21T21:44:05Z</time>
      </trkpt>
      <trkpt lat="43.07955892" lon="-1.9466213">
        <ele>524.1151</ele>
        <time>2019-11-21T21:44:06Z</time>
      </trkpt>
      <trkpt lat="43.07931719" lon="-1.94680207">
        <ele>524.6467</ele>
        <time>2019-11-21T21:44:07Z</time>
      </trkpt>
      <trkpt lat="43.07906854" lon="-1.94696583">
        <ele>525.3274</ele>
        <time>2019-11-21T21:44:08Z</time>
      </trkpt>
      <trkpt lat="43.07881461" lon="-1.94716631">
        <ele>526.66846</ele>
        <time>2019-11-21T21:44:09Z</time>
      </trkpt>
      <trkpt lat="43.07856493" lon="-1.9473672">
        <ele>525.536</ele>
        <time>2019-11-21T21:44:10Z</time>
      </trkpt>
      <trkpt lat="43.07830513" lon="-1.94752008">
        <ele>526.7068</ele>
        <time>2019-11-21T21:44:11Z</time>
      </trkpt>
      <trkpt lat="43.07804725" lon="-1.94767371">
        <ele>528.5105</ele>
        <time>2019-11-21T21:44:12Z</time>
      </trkpt>
      <trkpt lat="43.07779865" lon="-1.94782252">
        <ele>528.9376</ele>
        <time>2019-11-21T21:44:13Z</time>
      </trkpt>
      <trkpt lat="43.07754484" lon="-1.94797711">
        <ele>529.2999</ele>
        <time>2019-11-21T21:44:14Z</time>
      </trkpt>
      <trkpt lat="43.07729489" lon="-1.94813408">
        <ele>529.2648</ele>
        <time>2019-11-21T21:44:15Z</time>
      </trkpt>
      <trkpt lat="43.07704227" lon="-1.94829318">
        <ele>529.09424</ele>
        <time>2019-11-21T21:44:16Z</time>
      </trkpt>
      <trkpt lat="43.0767858" lon="-1.94845018">
        <ele>530.31226</ele>
        <time>2019-11-21T21:44:17Z</time>
      </trkpt>
      <trkpt lat="43.07652013" lon="-1.94860632">
        <ele>532.6356</ele>
        <time>2019-11-21T21:44:18Z</time>
      </trkpt>
      <trkpt lat="43.07625864" lon="-1.94875692">
        <ele>534.7439</ele>
        <time>2019-11-21T21:44:19Z</time>
      </trkpt>
      <trkpt lat="43.07599318" lon="-1.9489184">
        <ele>537.5781</ele>
        <time>2019-11-21T21:44:20Z</time>
      </trkpt>
      <trkpt lat="43.07572397" lon="-1.94907763">
        <ele>540.94617</ele>
        <time>2019-11-21T21:44:21Z</time>
      </trkpt>
      <trkpt lat="43.07545989" lon="-1.94924049">
        <ele>542.88574</ele>
        <time>2019-11-21T21:44:22Z</time>
      </trkpt>
      <trkpt lat="43.0752022" lon="-1.94940759">
        <ele>545.49854</ele>
        <time>2019-11-21T21:44:23Z</time>
      </trkpt>
      <trkpt lat="43.07494628" lon="-1.94957005">
        <ele>547.0537</ele>
        <time>2019-11-21T21:44:24Z</time>
      </trkpt>
      <trkpt lat="43.07470047" lon="-1.94973886">
        <ele>548.29517</ele>
        <time>2019-11-21T21:44:25Z</time>
      </trkpt>
      <trkpt lat="43.07445782" lon="-1.94990438">
        <ele>549.5979</ele>
        <time>2019-11-21T21:44:26Z</time>
      </trkpt>
      <trkpt lat="43.07419403" lon="-1.95007872">
        <ele>553.4823</ele>
        <time>2019-11-21T21:44:27Z</time>
      </trkpt>
      <trkpt lat="43.07394373" lon="-1.95024562">
        <ele>555.0017</ele>
        <time>2019-11-21T21:44:28Z</time>
      </trkpt>
      <trkpt lat="43.07368433" lon="-1.95041629">
        <ele>558.13965</ele>
        <time>2019-11-21T21:44:29Z</time>
      </trkpt>
      <trkpt lat="43.07342231" lon="-1.95058609">
        <ele>561.0154</ele>
        <time>2019-11-21T21:44:30Z</time>
      </trkpt>
      <trkpt lat="43.07315528" lon="-1.95074814">
        <ele>565.10693</ele>
        <time>2019-11-21T21:44:32Z</time>
      </trkpt>
      <trkpt lat="43.07289079" lon="-1.95091207">
        <ele>568.8949</ele>
        <time>2019-11-21T21:44:33Z</time>
      </trkpt>
      <trkpt lat="43.07238107" lon="-1.95125434">
        <ele>573.3423</ele>
        <time>2019-11-21T21:44:34Z</time>
      </trkpt>
      <trkpt lat="43.07211958" lon="-1.95142083">
        <ele>576.61743</ele>
        <time>2019-11-21T21:44:35Z</time>
      </trkpt>
      <trkpt lat="43.07184419" lon="-1.95156596">
        <ele>582.6814</ele>
        <time>2019-11-21T21:44:36Z</time>
      </trkpt>
      <trkpt lat="43.07157831" lon="-1.95171643">
        <ele>585.6908</ele>
        <time>2019-11-21T21:44:37Z</time>
      </trkpt>
      <trkpt lat="43.07132448" lon="-1.95186734">
        <ele>587.3948</ele>
        <time>2019-11-21T21:44:38Z</time>
      </trkpt>
      <trkpt lat="43.07106244" lon="-1.95203221">
        <ele>588.88184</ele>
        <time>2019-11-21T21:44:39Z</time>
      </trkpt>
      <trkpt lat="43.07080256" lon="-1.95218059">
        <ele>590.4358</ele>
        <time>2019-11-21T21:44:40Z</time>
      </trkpt>
      <trkpt lat="43.07055999" lon="-1.95235207">
        <ele>592.4241</ele>
        <time>2019-11-21T21:44:41Z</time>
      </trkpt>
      <trkpt lat="43.07033281" lon="-1.95253716">
        <ele>593.33716</ele>
        <time>2019-11-21T21:44:42Z</time>
      </trkpt>
      <trkpt lat="43.07010717" lon="-1.9527477">
        <ele>593.71704</ele>
        <time>2019-11-21T21:44:43Z</time>
      </trkpt>
      <trkpt lat="43.06990143" lon="-1.95295619">
        <ele>594.2965</ele>
        <time>2019-11-21T21:44:44Z</time>
      </trkpt>
      <trkpt lat="43.06968373" lon="-1.95320772">
        <ele>594.39526</ele>
        <time>2019-11-21T21:44:45Z</time>
      </trkpt>
      <trkpt lat="43.06947225" lon="-1.9534591">
        <ele>595.2633</ele>
        <time>2019-11-21T21:44:46Z</time>
      </trkpt>
      <trkpt lat="43.06926332" lon="-1.95375112">
        <ele>595.11145</ele>
        <time>2019-11-21T21:44:47Z</time>
      </trkpt>
      <trkpt lat="43.06907423" lon="-1.95403077">
        <ele>595.63135</ele>
        <time>2019-11-21T21:44:48Z</time>
      </trkpt>
      <trkpt lat="43.06889862" lon="-1.95432251">
        <ele>595.4857</ele>
        <time>2019-11-21T21:44:49Z</time>
      </trkpt>
      <trkpt lat="43.06870779" lon="-1.95460277">
        <ele>596.17224</ele>
        <time>2019-11-21T21:44:50Z</time>
      </trkpt>
      <trkpt lat="43.06850542" lon="-1.95487123">
        <ele>595.8993</ele>
        <time>2019-11-21T21:44:51Z</time>
      </trkpt>
      <trkpt lat="43.06829583" lon="-1.95512168">
        <ele>596.271</ele>
        <time>2019-11-21T21:44:52Z</time>
      </trkpt>
      <trkpt lat="43.06810778" lon="-1.95535444">
        <ele>597.2031</ele>
        <time>2019-11-21T21:44:53Z</time>
      </trkpt>
      <trkpt lat="43.06789654" lon="-1.95556656">
        <ele>598.9009</ele>
        <time>2019-11-21T21:44:54Z</time>
      </trkpt>
      <trkpt lat="43.06767093" lon="-1.95577163">
        <ele>597.39417</ele>
        <time>2019-11-21T21:44:55Z</time>
      </trkpt>
      <trkpt lat="43.06742558" lon="-1.95594739">
        <ele>597.5</ele>
        <time>2019-11-21T21:44:56Z</time>
      </trkpt>
      <trkpt lat="43.06716839" lon="-1.95609643">
        <ele>597.6494</ele>
        <time>2019-11-21T21:44:57Z</time>
      </trkpt>
      <trkpt lat="43.06689569" lon="-1.9561925">
        <ele>599.76685</ele>
        <time>2019-11-21T21:44:58Z</time>
      </trkpt>
      <trkpt lat="43.06661541" lon="-1.95627448">
        <ele>600.8386</ele>
        <time>2019-11-21T21:44:59Z</time>
      </trkpt>
      <trkpt lat="43.0663438" lon="-1.95634573">
        <ele>602.4409</ele>
        <time>2019-11-21T21:45:01Z</time>
      </trkpt>
      <trkpt lat="43.06606954" lon="-1.95636991">
        <ele>603.69946</ele>
        <time>2019-11-21T21:45:02Z</time>
      </trkpt>
      <trkpt lat="43.0657919" lon="-1.95637355">
        <ele>603.8613</ele>
        <time>2019-11-21T21:45:03Z</time>
      </trkpt>
      <trkpt lat="43.06525719" lon="-1.95624633">
        <ele>604.661</ele>
        <time>2019-11-21T21:45:04Z</time>
      </trkpt>
      <trkpt lat="43.06500808" lon="-1.95612817">
        <ele>603.20935</ele>
        <time>2019-11-21T21:45:05Z</time>
      </trkpt>
      <trkpt lat="43.06473275" lon="-1.95596428">
        <ele>604.91455</ele>
        <time>2019-11-21T21:45:06Z</time>
      </trkpt>
      <trkpt lat="43.06446588" lon="-1.95581293">
        <ele>607.28296</ele>
        <time>2019-11-21T21:45:07Z</time>
      </trkpt>
      <trkpt lat="43.06420427" lon="-1.95563207">
        <ele>607.8574</ele>
        <time>2019-11-21T21:45:08Z</time>
      </trkpt>
      <trkpt lat="43.06393796" lon="-1.95544739">
        <ele>610.0614</ele>
        <time>2019-11-21T21:45:09Z</time>
      </trkpt>
      <trkpt lat="43.06367562" lon="-1.95529502">
        <ele>611.478</ele>
        <time>2019-11-21T21:45:10Z</time>
      </trkpt>
      <trkpt lat="43.06340978" lon="-1.95513668">
        <ele>614.2947</ele>
        <time>2019-11-21T21:45:11Z</time>
      </trkpt>
      <trkpt lat="43.06314186" lon="-1.95500136">
        <ele>618.25037</ele>
        <time>2019-11-21T21:45:12Z</time>
      </trkpt>
      <trkpt lat="43.06286928" lon="-1.95489122">
        <ele>621.3125</ele>
        <time>2019-11-21T21:45:13Z</time>
      </trkpt>
      <trkpt lat="43.06260169" lon="-1.95482098">
        <ele>624.02466</ele>
        <time>2019-11-21T21:45:14Z</time>
      </trkpt>
      <trkpt lat="43.06232947" lon="-1.95477425">
        <ele>627.6477</ele>
        <time>2019-11-21T21:45:15Z</time>
      </trkpt>
      <trkpt lat="43.06204405" lon="-1.9547465">
        <ele>630.32434</ele>
        <time>2019-11-21T21:45:16Z</time>
      </trkpt>
      <trkpt lat="43.0617599" lon="-1.95475952">
        <ele>631.5039</ele>
        <time>2019-11-21T21:45:17Z</time>
      </trkpt>
      <trkpt lat="43.06148236" lon="-1.95481117">
        <ele>634.27527</ele>
        <time>2019-11-21T21:45:18Z</time>
      </trkpt>
      <trkpt lat="43.06121185" lon="-1.95489243">
        <ele>634.99585</ele>
        <time>2019-11-21T21:45:19Z</time>
      </trkpt>
      <trkpt lat="43.06094453" lon="-1.95502231">
        <ele>636.7964</ele>
        <time>2019-11-21T21:45:20Z</time>
      </trkpt>
      <trkpt lat="43.06068121" lon="-1.95516027">
        <ele>534.80615</ele>
        <time>2019-11-21T21:45:21Z</time>
      </trkpt>
      <trkpt lat="43.06041973" lon="-1.95533679">
        <ele>546.3169</ele>
        <time>2019-11-21T21:45:22Z</time>
      </trkpt>
      <trkpt lat="43.06018083" lon="-1.9555203">
        <ele>556.87915</ele>
        <time>2019-11-21T21:45:23Z</time>
      </trkpt>
      <trkpt lat="43.05995929" lon="-1.95573547">
        <ele>568.70166</ele>
        <time>2019-11-21T21:45:24Z</time>
      </trkpt>
      <trkpt lat="43.0597472" lon="-1.95595727">
        <ele>582.1543</ele>
        <time>2019-11-21T21:45:25Z</time>
      </trkpt>
      <trkpt lat="43.05953906" lon="-1.95621514">
        <ele>589.771</ele>
        <time>2019-11-21T21:45:26Z</time>
      </trkpt>
      <trkpt lat="43.05934582" lon="-1.95645611">
        <ele>598.7179</ele>
        <time>2019-11-21T21:45:27Z</time>
      </trkpt>
      <trkpt lat="43.0591345" lon="-1.95670826">
        <ele>604.2903</ele>
        <time>2019-11-21T21:45:28Z</time>
      </trkpt>
      <trkpt lat="43.05893611" lon="-1.95696136">
        <ele>607.5388</ele>
        <time>2019-11-21T21:45:30Z</time>
      </trkpt>
      <trkpt lat="43.05871112" lon="-1.95721299">
        <ele>613.2811</ele>
        <time>2019-11-21T21:45:31Z</time>
      </trkpt>
      <trkpt lat="43.05846722" lon="-1.95741476">
        <ele>616.90186</ele>
        <time>2019-11-21T21:45:32Z</time>
      </trkpt>
      <trkpt lat="43.05795303" lon="-1.95771599">
        <ele>622.34375</ele>
        <time>2019-11-21T21:45:33Z</time>
      </trkpt>
      <trkpt lat="43.05769666" lon="-1.95784493">
        <ele>624.6294</ele>
        <time>2019-11-21T21:45:34Z</time>
      </trkpt>
      <trkpt lat="43.05743666" lon="-1.95793323">
        <ele>625.603</ele>
        <time>2019-11-21T21:45:35Z</time>
      </trkpt>
      <trkpt lat="43.05715618" lon="-1.95799517">
        <ele>627.91565</ele>
        <time>2019-11-21T21:45:36Z</time>
      </trkpt>
      <trkpt lat="43.05687498" lon="-1.95804933">
        <ele>630.5476</ele>
        <time>2019-11-21T21:45:37Z</time>
      </trkpt>
      <trkpt lat="43.05659156" lon="-1.95806701">
        <ele>633.432</ele>
        <time>2019-11-21T21:45:38Z</time>
      </trkpt>
      <trkpt lat="43.0562916" lon="-1.95802341">
        <ele>635.22363</ele>
        <time>2019-11-21T21:45:39Z</time>
      </trkpt>
      <trkpt lat="43.05600336" lon="-1.95797012">
        <ele>639.7085</ele>
        <time>2019-11-21T21:45:40Z</time>
      </trkpt>
      <trkpt lat="43.05571614" lon="-1.9578982">
        <ele>642.3463</ele>
        <time>2019-11-21T21:45:41Z</time>
      </trkpt>
      <trkpt lat="43.05542755" lon="-1.95781465">
        <ele>645.4042</ele>
        <time>2019-11-21T21:45:42Z</time>
      </trkpt>
      <trkpt lat="43.055131" lon="-1.95771543">
        <ele>645.63135</ele>
        <time>2019-11-21T21:45:43Z</time>
      </trkpt>
      <trkpt lat="43.05484445" lon="-1.9576197">
        <ele>648.3242</ele>
        <time>2019-11-21T21:45:44Z</time>
      </trkpt>
      <trkpt lat="43.0545612" lon="-1.95752974">
        <ele>651.64453</ele>
        <time>2019-11-21T21:45:45Z</time>
      </trkpt>
      <trkpt lat="43.05426544" lon="-1.95744892">
        <ele>653.86475</ele>
        <time>2019-11-21T21:45:46Z</time>
      </trkpt>
      <trkpt lat="43.05397212" lon="-1.95737833">
        <ele>654.8334</ele>
        <time>2019-11-21T21:45:47Z</time>
      </trkpt>
      <trkpt lat="43.05368326" lon="-1.95732351">
        <ele>657.9309</ele>
        <time>2019-11-21T21:45:48Z</time>
      </trkpt>
      <trkpt lat="43.05338696" lon="-1.95727618">
        <ele>660.78687</ele>
        <time>2019-11-21T21:45:49Z</time>
      </trkpt>
      <trkpt lat="43.05308957" lon="-1.95725547">
        <ele>664.5403</ele>
        <time>2019-11-21T21:45:50Z</time>
      </trkpt>
      <trkpt lat="43.05278931" lon="-1.95724416">
        <ele>666.37195</ele>
        <time>2019-11-21T21:45:51Z</time>
      </trkpt>
      <trkpt lat="43.05250779" lon="-1.95723765">
        <ele>666.2317</ele>
        <time>2019-11-21T21:45:52Z</time>
      </trkpt>
      <trkpt lat="43.05223402" lon="-1.95724053">
        <ele>666.4479</ele>
        <time>2019-11-21T21:45:53Z</time>
      </trkpt>
      <trkpt lat="43.0519122" lon="-1.95724624">
        <ele>667.71436</ele>
        <time>2019-11-21T21:45:54Z</time>
      </trkpt>
      <trkpt lat="43.05155902" lon="-1.95726899">
        <ele>669.15967</ele>
        <time>2019-11-21T21:45:55Z</time>
      </trkpt>
      <trkpt lat="43.05125017" lon="-1.95731581">
        <ele>670.97107</ele>
        <time>2019-11-21T21:45:56Z</time>
      </trkpt>
      <trkpt lat="43.05099036" lon="-1.95735829">
        <ele>671.4044</ele>
        <time>2019-11-21T21:45:57Z</time>
      </trkpt>
      <trkpt lat="43.05072464" lon="-1.95739414">
        <ele>672.4657</ele>
        <time>2019-11-21T21:45:58Z</time>
      </trkpt>
      <trkpt lat="43.05039753" lon="-1.95744101">
        <ele>673.9695</ele>
        <time>2019-11-21T21:46:00Z</time>
      </trkpt>
      <trkpt lat="43.04987762" lon="-1.95745635">
        <ele>671.6864</ele>
        <time>2019-11-21T21:46:01Z</time>
      </trkpt>
      <trkpt lat="43.04958615" lon="-1.95746213">
        <ele>672.26196</ele>
        <time>2019-11-21T21:46:02Z</time>
      </trkpt>
      <trkpt lat="43.04930475" lon="-1.95744986">
        <ele>672.54834</ele>
        <time>2019-11-21T21:46:03Z</time>
      </trkpt>
      <trkpt lat="43.04899646" lon="-1.95741267">
        <ele>674.0525</ele>
        <time>2019-11-21T21:46:04Z</time>
      </trkpt>
      <trkpt lat="43.04873019" lon="-1.95733577">
        <ele>673.33813</ele>
        <time>2019-11-21T21:46:05Z</time>
      </trkpt>
      <trkpt lat="43.04847336" lon="-1.95721859">
        <ele>671.28955</ele>
        <time>2019-11-21T21:46:06Z</time>
      </trkpt>
      <trkpt lat="43.04820086" lon="-1.95706877">
        <ele>672.5554</ele>
        <time>2019-11-21T21:46:07Z</time>
      </trkpt>
      <trkpt lat="43.04793653" lon="-1.95689861">
        <ele>674.45276</ele>
        <time>2019-11-21T21:46:08Z</time>
      </trkpt>
      <trkpt lat="43.04769885" lon="-1.95671413">
        <ele>675.8264</ele>
        <time>2019-11-21T21:46:09Z</time>
      </trkpt>
      <trkpt lat="43.04746763" lon="-1.95650821">
        <ele>675.7302</ele>
        <time>2019-11-21T21:46:10Z</time>
      </trkpt>
      <trkpt lat="43.04723859" lon="-1.95629404">
        <ele>677.50586</ele>
        <time>2019-11-21T21:46:11Z</time>
      </trkpt>
      <trkpt lat="43.04701129" lon="-1.95607312">
        <ele>678.084</ele>
        <time>2019-11-21T21:46:12Z</time>
      </trkpt>
      <trkpt lat="43.04678036" lon="-1.95584145">
        <ele>678.5089</ele>
        <time>2019-11-21T21:46:13Z</time>
      </trkpt>
      <trkpt lat="43.04654116" lon="-1.95559685">
        <ele>679.6</ele>
        <time>2019-11-21T21:46:14Z</time>
      </trkpt>
      <trkpt lat="43.04629257" lon="-1.9553757">
        <ele>681.0315</ele>
        <time>2019-11-21T21:46:15Z</time>
      </trkpt>
      <trkpt lat="43.04603813" lon="-1.95517786">
        <ele>681.85864</ele>
        <time>2019-11-21T21:46:16Z</time>
      </trkpt>
      <trkpt lat="43.04578535" lon="-1.95501784">
        <ele>683.1974</ele>
        <time>2019-11-21T21:46:17Z</time>
      </trkpt>
      <trkpt lat="43.04553754" lon="-1.95490212">
        <ele>679.24084</ele>
        <time>2019-11-21T21:46:18Z</time>
      </trkpt>
      <trkpt lat="43.04526799" lon="-1.95478263">
        <ele>679.1731</ele>
        <time>2019-11-21T21:46:19Z</time>
      </trkpt>
      <trkpt lat="43.04498932" lon="-1.95467924">
        <ele>680.3264</ele>
        <time>2019-11-21T21:46:20Z</time>
      </trkpt>
      <trkpt lat="43.04470603" lon="-1.95457175">
        <ele>680.3174</ele>
        <time>2019-11-21T21:46:21Z</time>
      </trkpt>
      <trkpt lat="43.04444826" lon="-1.95445225">
        <ele>681.2551</ele>
        <time>2019-11-21T21:46:22Z</time>
      </trkpt>
      <trkpt lat="43.04419574" lon="-1.95429343">
        <ele>682.7334</ele>
        <time>2019-11-21T21:46:23Z</time>
      </trkpt>
      <trkpt lat="43.04393526" lon="-1.95413111">
        <ele>683.214</ele>
        <time>2019-11-21T21:46:24Z</time>
      </trkpt>
      <trkpt lat="43.04366247" lon="-1.95395033">
        <ele>682.7263</ele>
        <time>2019-11-21T21:46:25Z</time>
      </trkpt>
      <trkpt lat="43.0434073" lon="-1.95376285">
        <ele>682.5127</ele>
        <time>2019-11-21T21:46:27Z</time>
      </trkpt>
      <trkpt lat="43.04288872" lon="-1.9533866">
        <ele>685.31934</ele>
        <time>2019-11-21T21:46:28Z</time>
      </trkpt>
      <trkpt lat="43.04263988" lon="-1.95321268">
        <ele>687.2095</ele>
        <time>2019-11-21T21:46:29Z</time>
      </trkpt>
      <trkpt lat="43.04238123" lon="-1.95306648">
        <ele>686.864</ele>
        <time>2019-11-21T21:46:30Z</time>
      </trkpt>
      <trkpt lat="43.04212202" lon="-1.95293164">
        <ele>686.88745</ele>
        <time>2019-11-21T21:46:31Z</time>
      </trkpt>
      <trkpt lat="43.04185965" lon="-1.95282896">
        <ele>686.1456</ele>
        <time>2019-11-21T21:46:32Z</time>
      </trkpt>
      <trkpt lat="43.04158826" lon="-1.95273205">
        <ele>685.9486</ele>
        <time>2019-11-21T21:46:33Z</time>
      </trkpt>
      <trkpt lat="43.04130206" lon="-1.95264477">
        <ele>683.0996</ele>
        <time>2019-11-21T21:46:34Z</time>
      </trkpt>
      <trkpt lat="43.04101636" lon="-1.95256262">
        <ele>683.71924</ele>
        <time>2019-11-21T21:46:35Z</time>
      </trkpt>
      <trkpt lat="43.04073197" lon="-1.9524659">
        <ele>682.9839</ele>
        <time>2019-11-21T21:46:36Z</time>
      </trkpt>
      <trkpt lat="43.0404656" lon="-1.95233894">
        <ele>683.9043</ele>
        <time>2019-11-21T21:46:37Z</time>
      </trkpt>
      <trkpt lat="43.04020867" lon="-1.95216505">
        <ele>683.9623</ele>
        <time>2019-11-21T21:46:38Z</time>
      </trkpt>
      <trkpt lat="43.03994339" lon="-1.95199107">
        <ele>683.92993</ele>
        <time>2019-11-21T21:46:39Z</time>
      </trkpt>
      <trkpt lat="43.0397105" lon="-1.9517803">
        <ele>685.41406</ele>
        <time>2019-11-21T21:46:40Z</time>
      </trkpt>
      <trkpt lat="43.03947531" lon="-1.95155654">
        <ele>686.9585</ele>
        <time>2019-11-21T21:46:41Z</time>
      </trkpt>
      <trkpt lat="43.03926603" lon="-1.95131067">
        <ele>686.2175</ele>
        <time>2019-11-21T21:46:42Z</time>
      </trkpt>
      <trkpt lat="43.0390584" lon="-1.95105191">
        <ele>686.6011</ele>
        <time>2019-11-21T21:46:43Z</time>
      </trkpt>
      <trkpt lat="43.0388678" lon="-1.95078543">
        <ele>686.3323</ele>
        <time>2019-11-21T21:46:44Z</time>
      </trkpt>
      <trkpt lat="43.03868098" lon="-1.95051258">
        <ele>687.553</ele>
        <time>2019-11-21T21:46:45Z</time>
      </trkpt>
      <trkpt lat="43.03848903" lon="-1.95025159">
        <ele>687.7505</ele>
        <time>2019-11-21T21:46:46Z</time>
      </trkpt>
      <trkpt lat="43.03829782" lon="-1.94997946">
        <ele>688.4319</ele>
        <time>2019-11-21T21:46:47Z</time>
      </trkpt>
      <trkpt lat="43.03810942" lon="-1.94970159">
        <ele>688.8966</ele>
        <time>2019-11-21T21:46:48Z</time>
      </trkpt>
      <trkpt lat="43.03790199" lon="-1.94942401">
        <ele>688.92456</ele>
        <time>2019-11-21T21:46:49Z</time>
      </trkpt>
      <trkpt lat="43.03770207" lon="-1.94915311">
        <ele>690.31396</ele>
        <time>2019-11-21T21:46:50Z</time>
      </trkpt>
      <trkpt lat="43.03749746" lon="-1.94888841">
        <ele>691.53906</ele>
        <time>2019-11-21T21:46:51Z</time>
      </trkpt>
      <trkpt lat="43.03730225" lon="-1.94863273">
        <ele>693.5654</ele>
        <time>2019-11-21T21:46:52Z</time>
      </trkpt>
      <trkpt lat="43.03711232" lon="-1.94838635">
        <ele>694.5427</ele>
        <time>2019-11-21T21:46:53Z</time>
      </trkpt>
      <trkpt lat="43.03693707" lon="-1.94814534">
        <ele>694.6819</ele>
        <time>2019-11-21T21:46:54Z</time>
      </trkpt>
      <trkpt lat="43.03677536" lon="-1.94792573">
        <ele>695.2883</ele>
        <time>2019-11-21T21:46:55Z</time>
      </trkpt>
      <trkpt lat="43.03661049" lon="-1.94765476">
        <ele>695.3506</ele>
        <time>2019-11-21T21:46:56Z</time>
      </trkpt>
      <trkpt lat="43.0364672" lon="-1.94742601">
        <ele>693.126</ele>
        <time>2019-11-21T21:46:58Z</time>
      </trkpt>
      <trkpt lat="43.03632909" lon="-1.94715148">
        <ele>692.9784</ele>
        <time>2019-11-21T21:46:59Z</time>
      </trkpt>
      <trkpt lat="43.036081194877625" lon="-1.946602463722229">
        <ele>0.0</ele>
        <time>2019-11-21T21:47:00Z</time>
      </trkpt>
      <trkpt lat="43.03547122" lon="-1.94357229">
        <ele>691.80176</ele>
        <time>2019-11-21T21:47:09Z</time>
      </trkpt>
      <trkpt lat="43.03545666" lon="-1.94317569">
        <ele>693.8224</ele>
        <time>2019-11-21T21:47:10Z</time>
      </trkpt>
      <trkpt lat="43.03544712" lon="-1.94281722">
        <ele>695.4957</ele>
        <time>2019-11-21T21:47:11Z</time>
      </trkpt>
      <trkpt lat="43.03541944" lon="-1.9424899">
        <ele>693.4741</ele>
        <time>2019-11-21T21:47:12Z</time>
      </trkpt>
      <trkpt lat="43.03536878" lon="-1.94209501">
        <ele>691.8955</ele>
        <time>2019-11-21T21:47:13Z</time>
      </trkpt>
      <trkpt lat="43.03530152" lon="-1.94172562">
        <ele>692.3873</ele>
        <time>2019-11-21T21:47:15Z</time>
      </trkpt>
      <trkpt lat="43.03524279" lon="-1.94133626">
        <ele>691.33813</ele>
        <time>2019-11-21T21:47:16Z</time>
      </trkpt>
      <trkpt lat="43.03517459" lon="-1.94098499">
        <ele>691.8047</ele>
        <time>2019-11-21T21:47:17Z</time>
      </trkpt>
      <trkpt lat="43.03508193" lon="-1.94061415">
        <ele>692.85913</ele>
        <time>2019-11-21T21:47:18Z</time>
      </trkpt>
      <trkpt lat="43.03502057" lon="-1.94025055">
        <ele>693.03467</ele>
        <time>2019-11-21T21:47:19Z</time>
      </trkpt>
      <trkpt lat="43.03492442" lon="-1.93987813">
        <ele>693.12646</ele>
        <time>2019-11-21T21:47:20Z</time>
      </trkpt>
      <trkpt lat="43.03481329" lon="-1.93948681">
        <ele>695.5598</ele>
        <time>2019-11-21T21:47:21Z</time>
      </trkpt>
      <trkpt lat="43.03473339" lon="-1.93913084">
        <ele>694.96045</ele>
        <time>2019-11-21T21:47:22Z</time>
      </trkpt>
      <trkpt lat="43.03467601" lon="-1.93882443">
        <ele>693.22925</ele>
        <time>2019-11-21T21:47:23Z</time>
      </trkpt>
      <trkpt lat="43.03460663" lon="-1.93846241">
        <ele>692.3898</ele>
        <time>2019-11-21T21:47:24Z</time>
      </trkpt>
      <trkpt lat="43.03454677" lon="-1.93809368">
        <ele>691.22766</ele>
        <time>2019-11-21T21:47:25Z</time>
      </trkpt>
      <trkpt lat="43.03445434" lon="-1.93777326">
        <ele>690.16113</ele>
        <time>2019-11-21T21:47:26Z</time>
      </trkpt>
      <trkpt lat="43.03434064" lon="-1.93741506">
        <ele>693.84753</ele>
        <time>2019-11-21T21:47:27Z</time>
      </trkpt>
      <trkpt lat="43.03426681" lon="-1.93707504">
        <ele>694.9697</ele>
        <time>2019-11-21T21:47:28Z</time>
      </trkpt>
      <trkpt lat="43.0341871" lon="-1.93670521">
        <ele>694.94824</ele>
        <time>2019-11-21T21:47:29Z</time>
      </trkpt>
      <trkpt lat="43.03409659" lon="-1.93635469">
        <ele>695.50244</ele>
        <time>2019-11-21T21:47:30Z</time>
      </trkpt>
      <trkpt lat="43.03388784" lon="-1.93566067">
        <ele>699.1643</ele>
        <time>2019-11-21T21:47:31Z</time>
      </trkpt>
      <trkpt lat="43.033763" lon="-1.93530373">
        <ele>700.63</ele>
        <time>2019-11-21T21:47:32Z</time>
      </trkpt>
      <trkpt lat="43.03363632" lon="-1.93496068">
        <ele>701.6846</ele>
        <time>2019-11-21T21:47:33Z</time>
      </trkpt>
      <trkpt lat="43.03350167" lon="-1.93459858">
        <ele>702.6316</ele>
        <time>2019-11-21T21:47:34Z</time>
      </trkpt>
      <trkpt lat="43.03337458" lon="-1.93426384">
        <ele>701.978</ele>
        <time>2019-11-21T21:47:35Z</time>
      </trkpt>
      <trkpt lat="43.03324581" lon="-1.93393858">
        <ele>701.49146</ele>
        <time>2019-11-21T21:47:36Z</time>
      </trkpt>
      <trkpt lat="43.03307275" lon="-1.93360625">
        <ele>701.9796</ele>
        <time>2019-11-21T21:47:37Z</time>
      </trkpt>
      <trkpt lat="43.03293569" lon="-1.93330062">
        <ele>701.8347</ele>
        <time>2019-11-21T21:47:38Z</time>
      </trkpt>
      <trkpt lat="43.03277115" lon="-1.93298609">
        <ele>701.9729</ele>
        <time>2019-11-21T21:47:39Z</time>
      </trkpt>
      <trkpt lat="43.03257329" lon="-1.93266499">
        <ele>703.00635</ele>
        <time>2019-11-21T21:47:40Z</time>
      </trkpt>
      <trkpt lat="43.03240046" lon="-1.93236091">
        <ele>704.5852</ele>
        <time>2019-11-21T21:47:41Z</time>
      </trkpt>
      <trkpt lat="43.03223919" lon="-1.93206807">
        <ele>705.91125</ele>
        <time>2019-11-21T21:47:42Z</time>
      </trkpt>
      <trkpt lat="43.03207177" lon="-1.93177694">
        <ele>706.2051</ele>
        <time>2019-11-21T21:47:44Z</time>
      </trkpt>
      <trkpt lat="43.03189639" lon="-1.93148007">
        <ele>707.75085</ele>
        <time>2019-11-21T21:47:45Z</time>
      </trkpt>
      <trkpt lat="43.0317119" lon="-1.93118072">
        <ele>709.1959</ele>
        <time>2019-11-21T21:47:46Z</time>
      </trkpt>
      <trkpt lat="43.03152932" lon="-1.93089826">
        <ele>710.58484</ele>
        <time>2019-11-21T21:47:47Z</time>
      </trkpt>
      <trkpt lat="43.0313391" lon="-1.93061023">
        <ele>711.8489</ele>
        <time>2019-11-21T21:47:48Z</time>
      </trkpt>
      <trkpt lat="43.03114976" lon="-1.93034059">
        <ele>711.90283</ele>
        <time>2019-11-21T21:47:49Z</time>
      </trkpt>
      <trkpt lat="43.03095284" lon="-1.93006771">
        <ele>712.5408</ele>
        <time>2019-11-21T21:47:50Z</time>
      </trkpt>
      <trkpt lat="43.03074709" lon="-1.92978844">
        <ele>714.33594</ele>
        <time>2019-11-21T21:47:51Z</time>
      </trkpt>
      <trkpt lat="43.03054717" lon="-1.92951185">
        <ele>713.9088</ele>
        <time>2019-11-21T21:47:52Z</time>
      </trkpt>
      <trkpt lat="43.03034691" lon="-1.92922939">
        <ele>713.4093</ele>
        <time>2019-11-21T21:47:53Z</time>
      </trkpt>
      <trkpt lat="43.0301478" lon="-1.92895712">
        <ele>713.96106</ele>
        <time>2019-11-21T21:47:54Z</time>
      </trkpt>
      <trkpt lat="43.02995142" lon="-1.92868904">
        <ele>714.44775</ele>
        <time>2019-11-21T21:47:55Z</time>
      </trkpt>
      <trkpt lat="43.02975924" lon="-1.92841743">
        <ele>715.2046</ele>
        <time>2019-11-21T21:47:56Z</time>
      </trkpt>
      <trkpt lat="43.0295594" lon="-1.92813824">
        <ele>715.124</ele>
        <time>2019-11-21T21:47:57Z</time>
      </trkpt>
      <trkpt lat="43.02916904" lon="-1.92759681">
        <ele>714.67334</ele>
        <time>2019-11-21T21:47:58Z</time>
      </trkpt>
      <trkpt lat="43.02896967" lon="-1.92732403">
        <ele>714.6089</ele>
        <time>2019-11-21T21:47:59Z</time>
      </trkpt>
      <trkpt lat="43.02876604" lon="-1.92706551">
        <ele>713.3004</ele>
        <time>2019-11-21T21:48:00Z</time>
      </trkpt>
      <trkpt lat="43.02856189" lon="-1.92680146">
        <ele>712.2805</ele>
        <time>2019-11-21T21:48:01Z</time>
      </trkpt>
      <trkpt lat="43.02834161" lon="-1.92654349">
        <ele>711.58716</ele>
        <time>2019-11-21T21:48:02Z</time>
      </trkpt>
      <trkpt lat="43.02811595" lon="-1.92630143">
        <ele>713.0298</ele>
        <time>2019-11-21T21:48:03Z</time>
      </trkpt>
      <trkpt lat="43.02789537" lon="-1.92606271">
        <ele>713.01855</ele>
        <time>2019-11-21T21:48:04Z</time>
      </trkpt>
      <trkpt lat="43.02765794" lon="-1.92582513">
        <ele>714.03516</ele>
        <time>2019-11-21T21:48:05Z</time>
      </trkpt>
      <trkpt lat="43.02742524" lon="-1.92559843">
        <ele>714.3286</ele>
        <time>2019-11-21T21:48:06Z</time>
      </trkpt>
      <trkpt lat="43.02719048" lon="-1.92537282">
        <ele>714.55225</ele>
        <time>2019-11-21T21:48:07Z</time>
      </trkpt>
      <trkpt lat="43.02695577" lon="-1.92514454">
        <ele>714.6914</ele>
        <time>2019-11-21T21:48:08Z</time>
      </trkpt>
      <trkpt lat="43.02672025" lon="-1.9249176">
        <ele>714.9121</ele>
        <time>2019-11-21T21:48:09Z</time>
      </trkpt>
      <trkpt lat="43.02649535" lon="-1.92468973">
        <ele>714.2871</ele>
        <time>2019-11-21T21:48:11Z</time>
      </trkpt>
      <trkpt lat="43.02626546" lon="-1.92447145">
        <ele>713.3401</ele>
        <time>2019-11-21T21:48:12Z</time>
      </trkpt>
      <trkpt lat="43.02603673" lon="-1.92425044">
        <ele>712.64343</ele>
        <time>2019-11-21T21:48:13Z</time>
      </trkpt>
      <trkpt lat="43.02581448" lon="-1.92401643">
        <ele>711.8258</ele>
        <time>2019-11-21T21:48:14Z</time>
      </trkpt>
      <trkpt lat="43.02558424" lon="-1.92377848">
        <ele>713.8351</ele>
        <time>2019-11-21T21:48:15Z</time>
      </trkpt>
      <trkpt lat="43.02536111" lon="-1.92354266">
        <ele>712.6736</ele>
        <time>2019-11-21T21:48:16Z</time>
      </trkpt>
      <trkpt lat="43.02515035" lon="-1.92331124">
        <ele>711.47766</ele>
        <time>2019-11-21T21:48:17Z</time>
      </trkpt>
      <trkpt lat="43.02493935" lon="-1.92307864">
        <ele>710.52856</ele>
        <time>2019-11-21T21:48:18Z</time>
      </trkpt>
      <trkpt lat="43.02473225" lon="-1.92284736">
        <ele>709.98157</ele>
        <time>2019-11-21T21:48:19Z</time>
      </trkpt>
      <trkpt lat="43.02452456" lon="-1.92261331">
        <ele>709.511</ele>
        <time>2019-11-21T21:48:20Z</time>
      </trkpt>
      <trkpt lat="43.02431546" lon="-1.92237624">
        <ele>708.4061</ele>
        <time>2019-11-21T21:48:21Z</time>
      </trkpt>
      <trkpt lat="43.02411342" lon="-1.92213328">
        <ele>707.667</ele>
        <time>2019-11-21T21:48:22Z</time>
      </trkpt>
      <trkpt lat="43.02389689" lon="-1.92188428">
        <ele>707.96045</ele>
        <time>2019-11-21T21:48:23Z</time>
      </trkpt>
      <trkpt lat="43.02368965" lon="-1.92163551">
        <ele>708.4342</ele>
        <time>2019-11-21T21:48:24Z</time>
      </trkpt>
      <trkpt lat="43.02348626" lon="-1.92139354">
        <ele>708.1367</ele>
        <time>2019-11-21T21:48:25Z</time>
      </trkpt>
      <trkpt lat="43.02327002" lon="-1.92114263">
        <ele>708.854</ele>
        <time>2019-11-21T21:48:26Z</time>
      </trkpt>
      <trkpt lat="43.02283026" lon="-1.92062367">
        <ele>708.1278</ele>
        <time>2019-11-21T21:48:27Z</time>
      </trkpt>
      <trkpt lat="43.02259331" lon="-1.92036102">
        <ele>707.8396</ele>
        <time>2019-11-21T21:48:28Z</time>
      </trkpt>
      <trkpt lat="43.02240039" lon="-1.92012799">
        <ele>707.4966</ele>
        <time>2019-11-21T21:48:29Z</time>
      </trkpt>
      <trkpt lat="43.0221962" lon="-1.91987143">
        <ele>708.2345</ele>
        <time>2019-11-21T21:48:30Z</time>
      </trkpt>
      <trkpt lat="43.0219744" lon="-1.91960628">
        <ele>706.26025</ele>
        <time>2019-11-21T21:48:31Z</time>
      </trkpt>
      <trkpt lat="43.02175459" lon="-1.91933517">
        <ele>704.1178</ele>
        <time>2019-11-21T21:48:32Z</time>
      </trkpt>
      <trkpt lat="43.02153859" lon="-1.91908299">
        <ele>702.426</ele>
        <time>2019-11-21T21:48:33Z</time>
      </trkpt>
      <trkpt lat="43.02133686" lon="-1.91883808">
        <ele>699.7013</ele>
        <time>2019-11-21T21:48:34Z</time>
      </trkpt>
      <trkpt lat="43.02111474" lon="-1.918586">
        <ele>699.9713</ele>
        <time>2019-11-21T21:48:35Z</time>
      </trkpt>
      <trkpt lat="43.02091274" lon="-1.91832302">
        <ele>698.4851</ele>
        <time>2019-11-21T21:48:36Z</time>
      </trkpt>
      <trkpt lat="43.02070422" lon="-1.91806536">
        <ele>698.79834</ele>
        <time>2019-11-21T21:48:37Z</time>
      </trkpt>
      <trkpt lat="43.02048994" lon="-1.91779803">
        <ele>698.72107</ele>
        <time>2019-11-21T21:48:38Z</time>
      </trkpt>
      <trkpt lat="43.02028814" lon="-1.91751937">
        <ele>697.845</ele>
        <time>2019-11-21T21:48:39Z</time>
      </trkpt>
      <trkpt lat="43.02010177" lon="-1.91724155">
        <ele>696.27783</ele>
        <time>2019-11-21T21:48:41Z</time>
      </trkpt>
      <trkpt lat="43.01991101" lon="-1.91695172">
        <ele>696.0924</ele>
        <time>2019-11-21T21:48:42Z</time>
      </trkpt>
      <trkpt lat="43.0197312" lon="-1.91667413">
        <ele>695.2886</ele>
        <time>2019-11-21T21:48:43Z</time>
      </trkpt>
      <trkpt lat="43.01954421" lon="-1.91639067">
        <ele>694.11694</ele>
        <time>2019-11-21T21:48:44Z</time>
      </trkpt>
      <trkpt lat="43.01938167" lon="-1.91610446">
        <ele>692.3484</ele>
        <time>2019-11-21T21:48:45Z</time>
      </trkpt>
      <trkpt lat="43.01922909" lon="-1.91580835">
        <ele>690.5504</ele>
        <time>2019-11-21T21:48:46Z</time>
      </trkpt>
      <trkpt lat="43.01908737" lon="-1.91550882">
        <ele>689.1018</ele>
        <time>2019-11-21T21:48:47Z</time>
      </trkpt>
      <trkpt lat="43.01895702" lon="-1.91520094">
        <ele>686.4531</ele>
        <time>2019-11-21T21:48:48Z</time>
      </trkpt>
      <trkpt lat="43.01883127" lon="-1.9148852">
        <ele>685.735</ele>
        <time>2019-11-21T21:48:49Z</time>
      </trkpt>
      <trkpt lat="43.01872728" lon="-1.91455522">
        <ele>684.03784</ele>
        <time>2019-11-21T21:48:50Z</time>
      </trkpt>
      <trkpt lat="43.01863885" lon="-1.91421544">
        <ele>683.10767</ele>
        <time>2019-11-21T21:48:51Z</time>
      </trkpt>
      <trkpt lat="43.01855213" lon="-1.9138678">
        <ele>681.56384</ele>
        <time>2019-11-21T21:48:52Z</time>
      </trkpt>
      <trkpt lat="43.01848729" lon="-1.91351311">
        <ele>681.40625</ele>
        <time>2019-11-21T21:48:53Z</time>
      </trkpt>
      <trkpt lat="43.01842919" lon="-1.91314754">
        <ele>680.21326</ele>
        <time>2019-11-21T21:48:54Z</time>
      </trkpt>
      <trkpt lat="43.01832954" lon="-1.91241469">
        <ele>679.6482</ele>
        <time>2019-11-21T21:48:55Z</time>
      </trkpt>
      <trkpt lat="43.01828567" lon="-1.9120538">
        <ele>678.83594</ele>
        <time>2019-11-21T21:48:56Z</time>
      </trkpt>
      <trkpt lat="43.01823721" lon="-1.91167501">
        <ele>677.5049</ele>
        <time>2019-11-21T21:48:57Z</time>
      </trkpt>
      <trkpt lat="43.01819626" lon="-1.91131765">
        <ele>675.8594</ele>
        <time>2019-11-21T21:48:58Z</time>
      </trkpt>
      <trkpt lat="43.01814986" lon="-1.91098072">
        <ele>675.82446</ele>
        <time>2019-11-21T21:48:59Z</time>
      </trkpt>
      <trkpt lat="43.01811819" lon="-1.91060772">
        <ele>670.6831</ele>
        <time>2019-11-21T21:49:00Z</time>
      </trkpt>
      <trkpt lat="43.01808024" lon="-1.91026799">
        <ele>668.0094</ele>
        <time>2019-11-21T21:49:01Z</time>
      </trkpt>
      <trkpt lat="43.01804986" lon="-1.90994454">
        <ele>664.7256</ele>
        <time>2019-11-21T21:49:02Z</time>
      </trkpt>
      <trkpt lat="43.0180064" lon="-1.90959416">
        <ele>664.0408</ele>
        <time>2019-11-21T21:49:03Z</time>
      </trkpt>
      <trkpt lat="43.01796228" lon="-1.90926465">
        <ele>664.44885</ele>
        <time>2019-11-21T21:49:04Z</time>
      </trkpt>
      <trkpt lat="43.01792842" lon="-1.90893497">
        <ele>661.50073</ele>
        <time>2019-11-21T21:49:05Z</time>
      </trkpt>
      <trkpt lat="43.01789118" lon="-1.90861447">
        <ele>661.0305</ele>
        <time>2019-11-21T21:49:06Z</time>
      </trkpt>
      <trkpt lat="43.01783905" lon="-1.90826242">
        <ele>659.33374</ele>
        <time>2019-11-21T21:49:07Z</time>
      </trkpt>
      <trkpt lat="43.01779849" lon="-1.90795811">
        <ele>657.44434</ele>
        <time>2019-11-21T21:49:08Z</time>
      </trkpt>
      <trkpt lat="43.01776343" lon="-1.90768229">
        <ele>655.01196</ele>
        <time>2019-11-21T21:49:10Z</time>
      </trkpt>
      <trkpt lat="43.01773452" lon="-1.90742138">
        <ele>652.86694</ele>
        <time>2019-11-21T21:49:11Z</time>
      </trkpt>
      <trkpt lat="43.01770163" lon="-1.90714451">
        <ele>652.14</ele>
        <time>2019-11-21T21:49:12Z</time>
      </trkpt>
      <trkpt lat="43.01766728" lon="-1.90686881">
        <ele>648.7693</ele>
        <time>2019-11-21T21:49:13Z</time>
      </trkpt>
      <trkpt lat="43.01762738" lon="-1.90658321">
        <ele>646.4866</ele>
        <time>2019-11-21T21:49:14Z</time>
      </trkpt>
      <trkpt lat="43.01758041" lon="-1.90629027">
        <ele>645.3502</ele>
        <time>2019-11-21T21:49:15Z</time>
      </trkpt>
      <trkpt lat="43.01752631" lon="-1.90597737">
        <ele>644.9951</ele>
        <time>2019-11-21T21:49:16Z</time>
      </trkpt>
      <trkpt lat="43.01746429" lon="-1.90565543">
        <ele>645.7158</ele>
        <time>2019-11-21T21:49:17Z</time>
      </trkpt>
      <trkpt lat="43.01739599" lon="-1.90531443">
        <ele>642.3076</ele>
        <time>2019-11-21T21:49:16Z</time>
      </trkpt>
      <trkpt lat="43.01730099" lon="-1.90498063">
        <ele>674.9569</ele>
        <time>2019-11-21T21:49:17Z</time>
      </trkpt>
      <trkpt lat="43.01719028" lon="-1.90465293">
        <ele>666.771</ele>
        <time>2019-11-21T21:49:18Z</time>
      </trkpt>
      <trkpt lat="43.01706377" lon="-1.90432673">
        <ele>661.75024</ele>
        <time>2019-11-21T21:49:19Z</time>
      </trkpt>
      <trkpt lat="43.01691896" lon="-1.90401183">
        <ele>658.24854</ele>
        <time>2019-11-21T21:49:20Z</time>
      </trkpt>
      <trkpt lat="43.01675333" lon="-1.90371293">
        <ele>654.4027</ele>
        <time>2019-11-21T21:49:21Z</time>
      </trkpt>
      <trkpt lat="43.01656615" lon="-1.90344031">
        <ele>647.1</ele>
        <time>2019-11-21T21:49:22Z</time>
      </trkpt>
      <trkpt lat="43.016368" lon="-1.90317351">
        <ele>644.7224</ele>
        <time>2019-11-21T21:49:23Z</time>
      </trkpt>
      <trkpt lat="43.01615549" lon="-1.90292271">
        <ele>643.0646</ele>
        <time>2019-11-21T21:49:24Z</time>
      </trkpt>
      <trkpt lat="43.01567909" lon="-1.90250733">
        <ele>639.2855</ele>
        <time>2019-11-21T21:49:25Z</time>
      </trkpt>
      <trkpt lat="43.01543103" lon="-1.90234378">
        <ele>638.69714</ele>
        <time>2019-11-21T21:49:26Z</time>
      </trkpt>
      <trkpt lat="43.01517394" lon="-1.90219794">
        <ele>637.7168</ele>
        <time>2019-11-21T21:49:27Z</time>
      </trkpt>
      <trkpt lat="43.01490742" lon="-1.90208012">
        <ele>637.2063</ele>
        <time>2019-11-21T21:49:28Z</time>
      </trkpt>
      <trkpt lat="43.01464488" lon="-1.90199216">
        <ele>636.20654</ele>
        <time>2019-11-21T21:49:29Z</time>
      </trkpt>
      <trkpt lat="43.01436852" lon="-1.90193318">
        <ele>635.7258</ele>
        <time>2019-11-21T21:49:30Z</time>
      </trkpt>
      <trkpt lat="43.01409381" lon="-1.90189774">
        <ele>635.6599</ele>
        <time>2019-11-21T21:49:31Z</time>
      </trkpt>
      <trkpt lat="43.01382033" lon="-1.90186605">
        <ele>635.64453</ele>
        <time>2019-11-21T21:49:32Z</time>
      </trkpt>
      <trkpt lat="43.01355571" lon="-1.90182921">
        <ele>635.4807</ele>
        <time>2019-11-21T21:49:33Z</time>
      </trkpt>
      <trkpt lat="43.01325511" lon="-1.90179234">
        <ele>636.8561</ele>
        <time>2019-11-21T21:49:34Z</time>
      </trkpt>
      <trkpt lat="43.01298099" lon="-1.90171464">
        <ele>636.932</ele>
        <time>2019-11-21T21:49:36Z</time>
      </trkpt>
      <trkpt lat="43.01246141" lon="-1.90149041">
        <ele>637.75757</ele>
        <time>2019-11-21T21:49:37Z</time>
      </trkpt>
      <trkpt lat="43.01221542" lon="-1.90133772">
        <ele>637.90356</ele>
        <time>2019-11-21T21:49:38Z</time>
      </trkpt>
      <trkpt lat="43.01197155" lon="-1.90114749">
        <ele>637.4783</ele>
        <time>2019-11-21T21:49:39Z</time>
      </trkpt>
      <trkpt lat="43.01174645" lon="-1.90092864">
        <ele>636.8943</ele>
        <time>2019-11-21T21:49:40Z</time>
      </trkpt>
      <trkpt lat="43.01152092" lon="-1.90069872">
        <ele>636.323</ele>
        <time>2019-11-21T21:49:41Z</time>
      </trkpt>
      <trkpt lat="43.0113156" lon="-1.90044263">
        <ele>635.82446</ele>
        <time>2019-11-21T21:49:43Z</time>
      </trkpt>
      <trkpt lat="43.01111497" lon="-1.90014991">
        <ele>633.59753</ele>
        <time>2019-11-21T21:49:44Z</time>
      </trkpt>
      <trkpt lat="43.01095" lon="-1.89986141">
        <ele>633.97144</ele>
        <time>2019-11-21T21:49:45Z</time>
      </trkpt>
      <trkpt lat="43.01077897" lon="-1.89953803">
        <ele>633.61035</ele>
        <time>2019-11-21T21:49:46Z</time>
      </trkpt>
      <trkpt lat="43.01063594" lon="-1.89921351">
        <ele>633.98816</ele>
        <time>2019-11-21T21:49:47Z</time>
      </trkpt>
      <trkpt lat="43.0104983" lon="-1.89886366">
        <ele>635.5272</ele>
        <time>2019-11-21T21:49:48Z</time>
      </trkpt>
      <trkpt lat="43.01038932" lon="-1.89849973">
        <ele>634.6858</ele>
        <time>2019-11-21T21:49:49Z</time>
      </trkpt>
      <trkpt lat="43.01030329" lon="-1.89812112">
        <ele>633.9132</ele>
        <time>2019-11-21T21:49:50Z</time>
      </trkpt>
      <trkpt lat="43.01024624" lon="-1.89774583">
        <ele>632.89233</ele>
        <time>2019-11-21T21:49:51Z</time>
      </trkpt>
      <trkpt lat="43.01017512" lon="-1.89737">
        <ele>632.1636</ele>
        <time>2019-11-21T21:49:52Z</time>
      </trkpt>
      <trkpt lat="43.01011536" lon="-1.89698902">
        <ele>630.57043</ele>
        <time>2019-11-21T21:49:53Z</time>
      </trkpt>
      <trkpt lat="43.01004274" lon="-1.89661569">
        <ele>630.1394</ele>
        <time>2019-11-21T21:49:54Z</time>
      </trkpt>
      <trkpt lat="43.00995028" lon="-1.89624669">
        <ele>629.96704</ele>
        <time>2019-11-21T21:49:55Z</time>
      </trkpt>
      <trkpt lat="43.00984262" lon="-1.8958636">
        <ele>628.51636</ele>
        <time>2019-11-21T21:49:56Z</time>
      </trkpt>
      <trkpt lat="43.00972076" lon="-1.89551505">
        <ele>627.4606</ele>
        <time>2019-11-21T21:49:57Z</time>
      </trkpt>
      <trkpt lat="43.00957963" lon="-1.89517724">
        <ele>626.916</ele>
        <time>2019-11-21T21:49:58Z</time>
      </trkpt>
      <trkpt lat="43.00924124" lon="-1.89459986">
        <ele>626.7456</ele>
        <time>2019-11-21T21:49:59Z</time>
      </trkpt>
      <trkpt lat="43.00903981" lon="-1.89432585">
        <ele>626.50366</ele>
        <time>2019-11-21T21:50:00Z</time>
      </trkpt>
      <trkpt lat="43.00883099" lon="-1.89407161">
        <ele>627.147</ele>
        <time>2019-11-21T21:50:01Z</time>
      </trkpt>
      <trkpt lat="43.00861059" lon="-1.89384919">
        <ele>627.3364</ele>
        <time>2019-11-21T21:50:02Z</time>
      </trkpt>
      <trkpt lat="43.0083722" lon="-1.89365439">
        <ele>628.8545</ele>
        <time>2019-11-21T21:50:03Z</time>
      </trkpt>
      <trkpt lat="43.00812966" lon="-1.89347955">
        <ele>629.3179</ele>
        <time>2019-11-21T21:50:04Z</time>
      </trkpt>
      <trkpt lat="43.00786971" lon="-1.89333139">
        <ele>629.5676</ele>
        <time>2019-11-21T21:50:05Z</time>
      </trkpt>
      <trkpt lat="43.00760393" lon="-1.89320736">
        <ele>631.80005</ele>
        <time>2019-11-21T21:50:06Z</time>
      </trkpt>
      <trkpt lat="43.00733982" lon="-1.89309528">
        <ele>632.9984</ele>
        <time>2019-11-21T21:50:07Z</time>
      </trkpt>
      <trkpt lat="43.00707091" lon="-1.89298824">
        <ele>633.88257</ele>
        <time>2019-11-21T21:50:08Z</time>
      </trkpt>
      <trkpt lat="43.00679989" lon="-1.8928792">
        <ele>634.62646</ele>
        <time>2019-11-21T21:50:09Z</time>
      </trkpt>
      <trkpt lat="43.00652876" lon="-1.89276244">
        <ele>635.7738</ele>
        <time>2019-11-21T21:50:10Z</time>
      </trkpt>
      <trkpt lat="43.00626271" lon="-1.89262781">
        <ele>637.29395</ele>
        <time>2019-11-21T21:50:11Z</time>
      </trkpt>
      <trkpt lat="43.00600767" lon="-1.89246044">
        <ele>636.9949</ele>
        <time>2019-11-21T21:50:12Z</time>
      </trkpt>
      <trkpt lat="43.00575358" lon="-1.89227461">
        <ele>638.5659</ele>
        <time>2019-11-21T21:50:13Z</time>
      </trkpt>
      <trkpt lat="43.00550726" lon="-1.89206054">
        <ele>639.8346</ele>
        <time>2019-11-21T21:50:15Z</time>
      </trkpt>
      <trkpt lat="43.00529088" lon="-1.89182686">
        <ele>638.916</ele>
        <time>2019-11-21T21:50:16Z</time>
      </trkpt>
      <trkpt lat="43.00508481" lon="-1.89156304">
        <ele>637.92676</ele>
        <time>2019-11-21T21:50:17Z</time>
      </trkpt>
      <trkpt lat="43.00489433" lon="-1.89127353">
        <ele>637.2534</ele>
        <time>2019-11-21T21:50:18Z</time>
      </trkpt>
      <trkpt lat="43.00472321" lon="-1.89095179">
        <ele>635.8263</ele>
        <time>2019-11-21T21:50:19Z</time>
      </trkpt>
      <trkpt lat="43.00456939" lon="-1.89061772">
        <ele>633.04956</ele>
        <time>2019-11-21T21:50:20Z</time>
      </trkpt>
      <trkpt lat="43.00441832" lon="-1.89027802">
        <ele>633.2567</ele>
        <time>2019-11-21T21:50:21Z</time>
      </trkpt>
      <trkpt lat="43.00427521" lon="-1.8899276">
        <ele>632.82104</ele>
        <time>2019-11-21T21:50:22Z</time>
      </trkpt>
      <trkpt lat="43.0041376" lon="-1.88956898">
        <ele>632.1096</ele>
        <time>2019-11-21T21:50:23Z</time>
      </trkpt>
      <trkpt lat="43.00399645" lon="-1.88922015">
        <ele>632.41956</ele>
        <time>2019-11-21T21:50:24Z</time>
      </trkpt>
      <trkpt lat="43.00386367" lon="-1.88886768">
        <ele>633.6609</ele>
        <time>2019-11-21T21:50:25Z</time>
      </trkpt>
      <trkpt lat="43.00374246" lon="-1.88853741">
        <ele>634.3579</ele>
        <time>2019-11-21T21:50:26Z</time>
      </trkpt>
      <trkpt lat="43.00344959" lon="-1.8878825">
        <ele>632.8286</ele>
        <time>2019-11-21T21:50:27Z</time>
      </trkpt>
      <trkpt lat="43.00328707" lon="-1.88757382">
        <ele>632.7417</ele>
        <time>2019-11-21T21:50:28Z</time>
      </trkpt>
      <trkpt lat="43.00311831" lon="-1.88727293">
        <ele>632.2927</ele>
        <time>2019-11-21T21:50:29Z</time>
      </trkpt>
      <trkpt lat="43.00294172" lon="-1.88698306">
        <ele>632.75256</ele>
        <time>2019-11-21T21:50:30Z</time>
      </trkpt>
      <trkpt lat="43.00275171" lon="-1.88670174">
        <ele>633.2361</ele>
        <time>2019-11-21T21:50:31Z</time>
      </trkpt>
      <trkpt lat="43.00254924" lon="-1.88643994">
        <ele>633.0979</ele>
        <time>2019-11-21T21:50:32Z</time>
      </trkpt>
      <trkpt lat="43.00233546" lon="-1.88618387">
        <ele>633.82947</ele>
        <time>2019-11-21T21:50:33Z</time>
      </trkpt>
      <trkpt lat="43.00211997" lon="-1.88594179">
        <ele>633.6809</ele>
        <time>2019-11-21T21:50:34Z</time>
      </trkpt>
      <trkpt lat="43.00190423" lon="-1.88571432">
        <ele>633.83154</ele>
        <time>2019-11-21T21:50:35Z</time>
      </trkpt>
      <trkpt lat="43.00167081" lon="-1.88549477">
        <ele>634.0156</ele>
        <time>2019-11-21T21:50:36Z</time>
      </trkpt>
      <trkpt lat="43.0014223" lon="-1.88530117">
        <ele>636.0581</ele>
        <time>2019-11-21T21:50:37Z</time>
      </trkpt>
      <trkpt lat="43.00118015" lon="-1.88511578">
        <ele>636.35205</ele>
        <time>2019-11-21T21:50:38Z</time>
      </trkpt>
      <trkpt lat="43.00093162" lon="-1.88494392">
        <ele>636.9927</ele>
        <time>2019-11-21T21:50:39Z</time>
      </trkpt>
      <trkpt lat="43.00068066" lon="-1.88478383">
        <ele>637.9756</ele>
        <time>2019-11-21T21:50:40Z</time>
      </trkpt>
      <trkpt lat="43.0004155" lon="-1.88463252">
        <ele>637.93335</ele>
        <time>2019-11-21T21:50:41Z</time>
      </trkpt>
      <trkpt lat="43.00015849" lon="-1.88447375">
        <ele>638.54114</ele>
        <time>2019-11-21T21:50:42Z</time>
      </trkpt>
      <trkpt lat="42.99991216" lon="-1.88430222">
        <ele>639.6736</ele>
        <time>2019-11-21T21:50:43Z</time>
      </trkpt>
      <trkpt lat="42.99966893" lon="-1.88411166">
        <ele>640.42065</ele>
        <time>2019-11-21T21:50:45Z</time>
      </trkpt>
      <trkpt lat="42.99944842" lon="-1.88388692">
        <ele>641.1719</ele>
        <time>2019-11-21T21:50:46Z</time>
      </trkpt>
      <trkpt lat="42.9992368" lon="-1.88365542">
        <ele>640.15283</ele>
        <time>2019-11-21T21:50:47Z</time>
      </trkpt>
      <trkpt lat="42.99902064" lon="-1.88338671">
        <ele>641.97437</ele>
        <time>2019-11-21T21:50:48Z</time>
      </trkpt>
      <trkpt lat="42.99883168" lon="-1.88310899">
        <ele>641.4624</ele>
        <time>2019-11-21T21:50:49Z</time>
      </trkpt>
      <trkpt lat="42.99865627" lon="-1.88280328">
        <ele>642.4094</ele>
        <time>2019-11-21T21:50:50Z</time>
      </trkpt>
      <trkpt lat="42.99849536" lon="-1.88248021">
        <ele>643.32056</ele>
        <time>2019-11-21T21:50:51Z</time>
      </trkpt>
      <trkpt lat="42.99835253" lon="-1.88214554">
        <ele>643.7251</ele>
        <time>2019-11-21T21:50:52Z</time>
      </trkpt>
      <trkpt lat="42.99822151" lon="-1.88180109">
        <ele>644.0847</ele>
        <time>2019-11-21T21:50:53Z</time>
      </trkpt>
      <trkpt lat="42.998096" lon="-1.8814534">
        <ele>644.4354</ele>
        <time>2019-11-21T21:50:54Z</time>
      </trkpt>
      <trkpt lat="42.99798014" lon="-1.88109984">
        <ele>644.73193</ele>
        <time>2019-11-21T21:50:55Z</time>
      </trkpt>
      <trkpt lat="42.99786199" lon="-1.88074561">
        <ele>645.49854</ele>
        <time>2019-11-21T21:50:56Z</time>
      </trkpt>
      <trkpt lat="42.99774817" lon="-1.88037284">
        <ele>647.8146</ele>
        <time>2019-11-21T21:50:57Z</time>
      </trkpt>
      <trkpt lat="42.99752109" lon="-1.87966894">
        <ele>645.28955</ele>
        <time>2019-11-21T21:50:58Z</time>
      </trkpt>
      <trkpt lat="42.99740293" lon="-1.87931056">
        <ele>647.1482</ele>
        <time>2019-11-21T21:50:59Z</time>
      </trkpt>
      <trkpt lat="42.99727752" lon="-1.87895854">
        <ele>648.0575</ele>
        <time>2019-11-21T21:51:00Z</time>
      </trkpt>
      <trkpt lat="42.9971498" lon="-1.87861662">
        <ele>649.10767</ele>
        <time>2019-11-21T21:51:01Z</time>
      </trkpt>
      <trkpt lat="42.99701233" lon="-1.87828601">
        <ele>649.7888</ele>
        <time>2019-11-21T21:51:02Z</time>
      </trkpt>
      <trkpt lat="42.99685909" lon="-1.87796694">
        <ele>650.66846</ele>
        <time>2019-11-21T21:51:03Z</time>
      </trkpt>
      <trkpt lat="42.99668501" lon="-1.87765631">
        <ele>651.593</ele>
        <time>2019-11-21T21:51:04Z</time>
      </trkpt>
      <trkpt lat="42.99651399" lon="-1.87735891">
        <ele>653.2495</ele>
        <time>2019-11-21T21:51:05Z</time>
      </trkpt>
      <trkpt lat="42.9963317" lon="-1.87707112">
        <ele>653.6721</ele>
        <time>2019-11-21T21:51:06Z</time>
      </trkpt>
      <trkpt lat="42.99613142" lon="-1.87679842">
        <ele>654.1543</ele>
        <time>2019-11-21T21:51:07Z</time>
      </trkpt>
      <trkpt lat="42.9959262" lon="-1.87653762">
        <ele>654.92175</ele>
        <time>2019-11-21T21:51:08Z</time>
      </trkpt>
      <trkpt lat="42.99570207" lon="-1.87629197">
        <ele>655.90796</ele>
        <time>2019-11-21T21:51:09Z</time>
      </trkpt>
      <trkpt lat="42.99547697" lon="-1.87606455">
        <ele>655.7588</ele>
        <time>2019-11-21T21:51:10Z</time>
      </trkpt>
      <trkpt lat="42.99526595" lon="-1.87584349">
        <ele>652.80664</ele>
        <time>2019-11-21T21:51:11Z</time>
      </trkpt>
      <trkpt lat="42.99502883" lon="-1.8756396">
        <ele>653.046</ele>
        <time>2019-11-21T21:51:12Z</time>
      </trkpt>
      <trkpt lat="42.99479183" lon="-1.87543813">
        <ele>653.9348</ele>
        <time>2019-11-21T21:51:14Z</time>
      </trkpt>
      <trkpt lat="42.99454175" lon="-1.87523444">
        <ele>654.9009</ele>
        <time>2019-11-21T21:51:15Z</time>
      </trkpt>
      <trkpt lat="42.99430482" lon="-1.8750223">
        <ele>655.55396</ele>
        <time>2019-11-21T21:51:16Z</time>
      </trkpt>
      <trkpt lat="42.99406735" lon="-1.87480034">
        <ele>656.0497</ele>
        <time>2019-11-21T21:51:17Z</time>
      </trkpt>
      <trkpt lat="42.99385078" lon="-1.8745689">
        <ele>655.8313</ele>
        <time>2019-11-21T21:51:18Z</time>
      </trkpt>
      <trkpt lat="42.99362953" lon="-1.87431263">
        <ele>655.853</ele>
        <time>2019-11-21T21:51:19Z</time>
      </trkpt>
      <trkpt lat="42.99342069" lon="-1.87404254">
        <ele>655.7351</ele>
        <time>2019-11-21T21:51:20Z</time>
      </trkpt>
      <trkpt lat="42.99321942" lon="-1.87376786">
        <ele>655.9155</ele>
        <time>2019-11-21T21:51:21Z</time>
      </trkpt>
      <trkpt lat="42.99302277" lon="-1.87348324">
        <ele>656.7908</ele>
        <time>2019-11-21T21:51:22Z</time>
      </trkpt>
      <trkpt lat="42.99281838" lon="-1.87317999">
        <ele>657.26135</ele>
        <time>2019-11-21T21:51:23Z</time>
      </trkpt>
      <trkpt lat="42.99263131" lon="-1.87287673">
        <ele>655.8733</ele>
        <time>2019-11-21T21:51:24Z</time>
      </trkpt>
      <trkpt lat="42.99245592" lon="-1.87259581">
        <ele>654.1384</ele>
        <time>2019-11-21T21:51:25Z</time>
      </trkpt>
      <trkpt lat="42.99207032" lon="-1.8720294">
        <ele>653.3804</ele>
        <time>2019-11-21T21:51:26Z</time>
      </trkpt>
      <trkpt lat="42.99186295" lon="-1.87176918">
        <ele>652.292</ele>
        <time>2019-11-21T21:51:27Z</time>
      </trkpt>
      <trkpt lat="42.99165664" lon="-1.8715106">
        <ele>652.3584</ele>
        <time>2019-11-21T21:51:28Z</time>
      </trkpt>
      <trkpt lat="42.99143969" lon="-1.87126872">
        <ele>652.1013</ele>
        <time>2019-11-21T21:51:29Z</time>
      </trkpt>
      <trkpt lat="42.99120545" lon="-1.87103705">
        <ele>651.97876</ele>
        <time>2019-11-21T21:51:30Z</time>
      </trkpt>
      <trkpt lat="42.99097131" lon="-1.87083045">
        <ele>651.9426</ele>
        <time>2019-11-21T21:51:31Z</time>
      </trkpt>
      <trkpt lat="42.99073441" lon="-1.8706249">
        <ele>652.4513</ele>
        <time>2019-11-21T21:51:32Z</time>
      </trkpt>
      <trkpt lat="42.99049672" lon="-1.87041683">
        <ele>652.886</ele>
        <time>2019-11-21T21:51:33Z</time>
      </trkpt>
      <trkpt lat="42.99026889" lon="-1.87019799">
        <ele>653.0657</ele>
        <time>2019-11-21T21:51:34Z</time>
      </trkpt>
      <trkpt lat="42.99004803" lon="-1.86996262">
        <ele>652.9404</ele>
        <time>2019-11-21T21:51:35Z</time>
      </trkpt>
      <trkpt lat="42.98982551" lon="-1.86972069">
        <ele>652.7317</ele>
        <time>2019-11-21T21:51:36Z</time>
      </trkpt>
      <trkpt lat="42.98962325" lon="-1.86945631">
        <ele>652.58044</ele>
        <time>2019-11-21T21:51:37Z</time>
      </trkpt>
      <trkpt lat="42.9894333" lon="-1.8691691">
        <ele>652.1288</ele>
        <time>2019-11-21T21:51:38Z</time>
      </trkpt>
      <trkpt lat="42.98924628" lon="-1.86887847">
        <ele>652.1362</ele>
        <time>2019-11-21T21:51:39Z</time>
      </trkpt>
      <trkpt lat="42.9890745" lon="-1.86857052">
        <ele>652.3655</ele>
        <time>2019-11-21T21:51:40Z</time>
      </trkpt>
      <trkpt lat="42.98891918" lon="-1.86824897">
        <ele>652.40063</ele>
        <time>2019-11-21T21:51:41Z</time>
      </trkpt>
      <trkpt lat="42.98876313" lon="-1.86792587">
        <ele>652.6001</ele>
        <time>2019-11-21T21:51:43Z</time>
      </trkpt>
      <trkpt lat="42.98861407" lon="-1.86759758">
        <ele>651.7744</ele>
        <time>2019-11-21T21:51:44Z</time>
      </trkpt>
      <trkpt lat="42.98845934" lon="-1.86726931">
        <ele>652.66504</ele>
        <time>2019-11-21T21:51:45Z</time>
      </trkpt>
      <trkpt lat="42.98829388" lon="-1.8669395">
        <ele>653.0724</ele>
        <time>2019-11-21T21:51:46Z</time>
      </trkpt>
      <trkpt lat="42.98814539" lon="-1.86661085">
        <ele>653.63916</ele>
        <time>2019-11-21T21:51:47Z</time>
      </trkpt>
      <trkpt lat="42.98799206" lon="-1.8662869">
        <ele>653.3978</ele>
        <time>2019-11-21T21:51:48Z</time>
      </trkpt>
      <trkpt lat="42.98783302" lon="-1.86596454">
        <ele>653.8152</ele>
        <time>2019-11-21T21:51:49Z</time>
      </trkpt>
      <trkpt lat="42.98768244" lon="-1.86563836">
        <ele>653.0896</ele>
        <time>2019-11-21T21:51:50Z</time>
      </trkpt>
      <trkpt lat="42.98752734" lon="-1.86532316">
        <ele>652.6377</ele>
        <time>2019-11-21T21:51:51Z</time>
      </trkpt>
      <trkpt lat="42.9873731" lon="-1.86500466">
        <ele>652.364</ele>
        <time>2019-11-21T21:51:52Z</time>
      </trkpt>
      <trkpt lat="42.98722209" lon="-1.86468038">
        <ele>652.11487</ele>
        <time>2019-11-21T21:51:53Z</time>
      </trkpt>
      <trkpt lat="42.98706336" lon="-1.86436432">
        <ele>652.2283</ele>
        <time>2019-11-21T21:51:54Z</time>
      </trkpt>
      <trkpt lat="42.9869018" lon="-1.8640493">
        <ele>651.99194</ele>
        <time>2019-11-21T21:51:55Z</time>
      </trkpt>
      <trkpt lat="42.98656122" lon="-1.86343953">
        <ele>651.73096</ele>
        <time>2019-11-21T21:51:56Z</time>
      </trkpt>
      <trkpt lat="42.98638206" lon="-1.86314248">
        <ele>651.62366</ele>
        <time>2019-11-21T21:51:57Z</time>
      </trkpt>
      <trkpt lat="42.98619527" lon="-1.86284926">
        <ele>650.6643</ele>
        <time>2019-11-21T21:51:58Z</time>
      </trkpt>
      <trkpt lat="42.98600854" lon="-1.86255439">
        <ele>650.2073</ele>
        <time>2019-11-21T21:51:59Z</time>
      </trkpt>
      <trkpt lat="42.98582075" lon="-1.8622645">
        <ele>650.1345</ele>
        <time>2019-11-21T21:52:00Z</time>
      </trkpt>
      <trkpt lat="42.98563515" lon="-1.86198133">
        <ele>650.64856</ele>
        <time>2019-11-21T21:52:01Z</time>
      </trkpt>
      <trkpt lat="42.98544608" lon="-1.86169137">
        <ele>650.9574</ele>
        <time>2019-11-21T21:52:02Z</time>
      </trkpt>
      <trkpt lat="42.98524871" lon="-1.86140523">
        <ele>650.4929</ele>
        <time>2019-11-21T21:52:03Z</time>
      </trkpt>
      <trkpt lat="42.98506015" lon="-1.86111619">
        <ele>650.5061</ele>
        <time>2019-11-21T21:52:04Z</time>
      </trkpt>
      <trkpt lat="42.98487244" lon="-1.86082393">
        <ele>650.85913</ele>
        <time>2019-11-21T21:52:05Z</time>
      </trkpt>
      <trkpt lat="42.98467541" lon="-1.86053595">
        <ele>651.21277</ele>
        <time>2019-11-21T21:52:06Z</time>
      </trkpt>
      <trkpt lat="42.98448694" lon="-1.86024469">
        <ele>651.7036</ele>
        <time>2019-11-21T21:52:07Z</time>
      </trkpt>
      <trkpt lat="42.98429954" lon="-1.85994244">
        <ele>651.02686</ele>
        <time>2019-11-21T21:52:08Z</time>
      </trkpt>
      <trkpt lat="42.98411411" lon="-1.8596496">
        <ele>650.67676</ele>
        <time>2019-11-21T21:52:09Z</time>
      </trkpt>
      <trkpt lat="42.98393006" lon="-1.85935816">
        <ele>650.14233</ele>
        <time>2019-11-21T21:52:10Z</time>
      </trkpt>
      <trkpt lat="42.98373701" lon="-1.85907092">
        <ele>650.11597</ele>
        <time>2019-11-21T21:52:11Z</time>
      </trkpt>
      <trkpt lat="42.98354836" lon="-1.85878386">
        <ele>649.24414</ele>
        <time>2019-11-21T21:52:12Z</time>
      </trkpt>
      <trkpt lat="42.98334853" lon="-1.85851474">
        <ele>649.3489</ele>
        <time>2019-11-21T21:52:13Z</time>
      </trkpt>
      <trkpt lat="42.98313771" lon="-1.85825796">
        <ele>649.2451</ele>
        <time>2019-11-21T21:52:15Z</time>
      </trkpt>
      <trkpt lat="42.98291704" lon="-1.85801122">
        <ele>648.3562</ele>
        <time>2019-11-21T21:52:16Z</time>
      </trkpt>
      <trkpt lat="42.9826926" lon="-1.85777616">
        <ele>646.73926</ele>
        <time>2019-11-21T21:52:17Z</time>
      </trkpt>
      <trkpt lat="42.98245811" lon="-1.85757238">
        <ele>646.1582</ele>
        <time>2019-11-21T21:52:18Z</time>
      </trkpt>
      <trkpt lat="42.98220652" lon="-1.85739182">
        <ele>645.57983</ele>
        <time>2019-11-21T21:52:19Z</time>
      </trkpt>
      <trkpt lat="42.98195318" lon="-1.85722243">
        <ele>644.6975</ele>
        <time>2019-11-21T21:52:20Z</time>
      </trkpt>
      <trkpt lat="42.98169099" lon="-1.85706273">
        <ele>643.2683</ele>
        <time>2019-11-21T21:52:21Z</time>
      </trkpt>
      <trkpt lat="42.98142877" lon="-1.85691002">
        <ele>642.4614</ele>
        <time>2019-11-21T21:52:22Z</time>
      </trkpt>
      <trkpt lat="42.98116023" lon="-1.85676357">
        <ele>641.08813</ele>
        <time>2019-11-21T21:52:23Z</time>
      </trkpt>
      <trkpt lat="42.98088815" lon="-1.85661839">
        <ele>640.0239</ele>
        <time>2019-11-21T21:52:24Z</time>
      </trkpt>
      <trkpt lat="42.98035425" lon="-1.85630862">
        <ele>637.99817</ele>
        <time>2019-11-21T21:52:25Z</time>
      </trkpt>
      <trkpt lat="42.98008256" lon="-1.85616774">
        <ele>637.126</ele>
        <time>2019-11-21T21:52:26Z</time>
      </trkpt>
      <trkpt lat="42.97982357" lon="-1.85602923">
        <ele>636.2737</ele>
        <time>2019-11-21T21:52:27Z</time>
      </trkpt>
      <trkpt lat="42.97957061" lon="-1.8558861">
        <ele>635.9866</ele>
        <time>2019-11-21T21:52:28Z</time>
      </trkpt>
      <trkpt lat="42.97931208" lon="-1.8557191">
        <ele>635.2261</ele>
        <time>2019-11-21T21:52:29Z</time>
      </trkpt>
      <trkpt lat="42.97905924" lon="-1.85552429">
        <ele>634.6836</ele>
        <time>2019-11-21T21:52:30Z</time>
      </trkpt>
      <trkpt lat="42.97881456" lon="-1.85530709">
        <ele>633.833</ele>
        <time>2019-11-21T21:52:31Z</time>
      </trkpt>
      <trkpt lat="42.97858498" lon="-1.85506236">
        <ele>630.9706</ele>
        <time>2019-11-21T21:52:32Z</time>
      </trkpt>
      <trkpt lat="42.97836667" lon="-1.85480436">
        <ele>629.43164</ele>
        <time>2019-11-21T21:52:33Z</time>
      </trkpt>
      <trkpt lat="42.97817463" lon="-1.85452692">
        <ele>625.3655</ele>
        <time>2019-11-21T21:52:34Z</time>
      </trkpt>
      <trkpt lat="42.97799449" lon="-1.85422646">
        <ele>623.8108</ele>
        <time>2019-11-21T21:52:35Z</time>
      </trkpt>
      <trkpt lat="42.97783674" lon="-1.85390791">
        <ele>621.791</ele>
        <time>2019-11-21T21:52:36Z</time>
      </trkpt>
      <trkpt lat="42.97769579" lon="-1.85357559">
        <ele>618.895</ele>
        <time>2019-11-21T21:52:37Z</time>
      </trkpt>
      <trkpt lat="42.97756627" lon="-1.85323214">
        <ele>617.8467</ele>
        <time>2019-11-21T21:52:38Z</time>
      </trkpt>
      <trkpt lat="42.97744647" lon="-1.85286849">
        <ele>615.93677</ele>
        <time>2019-11-21T21:52:39Z</time>
      </trkpt>
      <trkpt lat="42.97736048" lon="-1.85249239">
        <ele>612.5664</ele>
        <time>2019-11-21T21:52:40Z</time>
      </trkpt>
      <trkpt lat="42.9772699" lon="-1.85213364">
        <ele>610.13477</ele>
        <time>2019-11-21T21:52:41Z</time>
      </trkpt>
      <trkpt lat="42.97716691" lon="-1.85177066">
        <ele>609.7134</ele>
        <time>2019-11-21T21:52:42Z</time>
      </trkpt>
      <trkpt lat="42.97707365" lon="-1.85139772">
        <ele>608.4795</ele>
        <time>2019-11-21T21:52:44Z</time>
      </trkpt>
      <trkpt lat="42.9769867" lon="-1.85103394">
        <ele>606.50684</ele>
        <time>2019-11-21T21:52:45Z</time>
      </trkpt>
      <trkpt lat="42.97689834" lon="-1.85067773">
        <ele>605.2031</ele>
        <time>2019-11-21T21:52:46Z</time>
      </trkpt>
      <trkpt lat="42.97680016" lon="-1.85030363">
        <ele>603.6367</ele>
        <time>2019-11-21T21:52:47Z</time>
      </trkpt>
      <trkpt lat="42.97669662" lon="-1.84995096">
        <ele>601.46277</ele>
        <time>2019-11-21T21:52:48Z</time>
      </trkpt>
      <trkpt lat="42.97658745" lon="-1.8495944">
        <ele>600.96484</ele>
        <time>2019-11-21T21:52:49Z</time>
      </trkpt>
      <trkpt lat="42.97647445" lon="-1.84923071">
        <ele>599.6426</ele>
        <time>2019-11-21T21:52:50Z</time>
      </trkpt>
      <trkpt lat="42.97635514" lon="-1.8488643">
        <ele>598.71265</ele>
        <time>2019-11-21T21:52:51Z</time>
      </trkpt>
      <trkpt lat="42.97623055" lon="-1.84850996">
        <ele>597.0194</ele>
        <time>2019-11-21T21:52:52Z</time>
      </trkpt>
      <trkpt lat="42.97609514" lon="-1.84817202">
        <ele>595.2527</ele>
        <time>2019-11-21T21:52:53Z</time>
      </trkpt>
      <trkpt lat="42.97596307" lon="-1.84785604">
        <ele>592.8535</ele>
        <time>2019-11-21T21:52:54Z</time>
      </trkpt>
      <trkpt lat="42.97580658" lon="-1.84754611">
        <ele>589.75574</ele>
        <time>2019-11-21T21:52:55Z</time>
      </trkpt>
      <trkpt lat="42.97546496" lon="-1.84695769">
        <ele>584.2344</ele>
        <time>2019-11-21T21:52:56Z</time>
      </trkpt>
      <trkpt lat="42.97525477" lon="-1.84668422">
        <ele>582.6218</ele>
        <time>2019-11-21T21:52:57Z</time>
      </trkpt>
      <trkpt lat="42.97504783" lon="-1.84642901">
        <ele>581.7528</ele>
        <time>2019-11-21T21:52:58Z</time>
      </trkpt>
      <trkpt lat="42.97481638" lon="-1.84619193">
        <ele>581.75073</ele>
        <time>2019-11-21T21:52:59Z</time>
      </trkpt>
      <trkpt lat="42.97458418" lon="-1.84598233">
        <ele>580.1018</ele>
        <time>2019-11-21T21:53:00Z</time>
      </trkpt>
      <trkpt lat="42.97433789" lon="-1.84579644">
        <ele>579.75964</ele>
        <time>2019-11-21T21:53:01Z</time>
      </trkpt>
      <trkpt lat="42.97407932" lon="-1.84563334">
        <ele>579.2396</ele>
        <time>2019-11-21T21:53:02Z</time>
      </trkpt>
      <trkpt lat="42.97381863" lon="-1.84549451">
        <ele>578.83594</ele>
        <time>2019-11-21T21:53:03Z</time>
      </trkpt>
      <trkpt lat="42.97355195" lon="-1.84537393">
        <ele>578.4271</ele>
        <time>2019-11-21T21:53:04Z</time>
      </trkpt>
      <trkpt lat="42.97328114" lon="-1.8452665">
        <ele>578.1708</ele>
        <time>2019-11-21T21:53:05Z</time>
      </trkpt>
      <trkpt lat="42.97301478" lon="-1.84517024">
        <ele>578.1609</ele>
        <time>2019-11-21T21:53:06Z</time>
      </trkpt>
      <trkpt lat="42.97275322" lon="-1.84507622">
        <ele>577.79736</ele>
        <time>2019-11-21T21:53:07Z</time>
      </trkpt>
      <trkpt lat="42.97249755" lon="-1.84498314">
        <ele>576.239</ele>
        <time>2019-11-21T21:53:08Z</time>
      </trkpt>
      <trkpt lat="42.9722401" lon="-1.84487181">
        <ele>575.4885</ele>
        <time>2019-11-21T21:53:09Z</time>
      </trkpt>
      <trkpt lat="42.97198335" lon="-1.84475675">
        <ele>575.91895</ele>
        <time>2019-11-21T21:53:10Z</time>
      </trkpt>
      <trkpt lat="42.97174169" lon="-1.8446177">
        <ele>575.55615</ele>
        <time>2019-11-21T21:53:12Z</time>
      </trkpt>
      <trkpt lat="42.97151117" lon="-1.84446225">
        <ele>573.9115</ele>
        <time>2019-11-21T21:53:13Z</time>
      </trkpt>
      <trkpt lat="42.97128074" lon="-1.84428363">
        <ele>572.8917</ele>
        <time>2019-11-21T21:53:14Z</time>
      </trkpt>
      <trkpt lat="42.97107126" lon="-1.84409076">
        <ele>570.8866</ele>
        <time>2019-11-21T21:53:15Z</time>
      </trkpt>
      <trkpt lat="42.97086707" lon="-1.84388174">
        <ele>568.68677</ele>
        <time>2019-11-21T21:53:16Z</time>
      </trkpt>
      <trkpt lat="42.97067046" lon="-1.8436518">
        <ele>568.5912</ele>
        <time>2019-11-21T21:53:17Z</time>
      </trkpt>
      <trkpt lat="42.97047547" lon="-1.84341051">
        <ele>568.06445</ele>
        <time>2019-11-21T21:53:18Z</time>
      </trkpt>
      <trkpt lat="42.97028328" lon="-1.84316905">
        <ele>568.03076</ele>
        <time>2019-11-21T21:53:19Z</time>
      </trkpt>
      <trkpt lat="42.97009231" lon="-1.84292561">
        <ele>565.8862</ele>
        <time>2019-11-21T21:53:20Z</time>
      </trkpt>
      <trkpt lat="42.96989246" lon="-1.84267438">
        <ele>564.60474</ele>
        <time>2019-11-21T21:53:21Z</time>
      </trkpt>
      <trkpt lat="42.9697013" lon="-1.84242297">
        <ele>562.8887</ele>
        <time>2019-11-21T21:53:22Z</time>
      </trkpt>
      <trkpt lat="42.96931394" lon="-1.84193184">
        <ele>560.4093</ele>
        <time>2019-11-21T21:53:23Z</time>
      </trkpt>
      <trkpt lat="42.96910183" lon="-1.84167541">
        <ele>559.1349</ele>
        <time>2019-11-21T21:53:24Z</time>
      </trkpt>
      <trkpt lat="42.96889808" lon="-1.84142036">
        <ele>557.2522</ele>
        <time>2019-11-21T21:53:25Z</time>
      </trkpt>
      <trkpt lat="42.96868802" lon="-1.84116502">
        <ele>557.063</ele>
        <time>2019-11-21T21:53:26Z</time>
      </trkpt>
      <trkpt lat="42.96847518" lon="-1.84090348">
        <ele>556.7383</ele>
        <time>2019-11-21T21:53:27Z</time>
      </trkpt>
      <trkpt lat="42.96827429" lon="-1.84064649">
        <ele>556.0884</ele>
        <time>2019-11-21T21:53:28Z</time>
      </trkpt>
      <trkpt lat="42.9680603" lon="-1.84037853">
        <ele>556.1803</ele>
        <time>2019-11-21T21:53:29Z</time>
      </trkpt>
      <trkpt lat="42.96785223" lon="-1.84012362">
        <ele>555.0596</ele>
        <time>2019-11-21T21:53:30Z</time>
      </trkpt>
      <trkpt lat="42.96763915" lon="-1.83985971">
        <ele>555.10156</ele>
        <time>2019-11-21T21:53:31Z</time>
      </trkpt>
      <trkpt lat="42.9674369" lon="-1.83960621">
        <ele>554.96313</ele>
        <time>2019-11-21T21:53:32Z</time>
      </trkpt>
      <trkpt lat="42.96723428" lon="-1.83936634">
        <ele>555.136</ele>
        <time>2019-11-21T21:53:33Z</time>
      </trkpt>
      <trkpt lat="42.96701789" lon="-1.83910924">
        <ele>555.1887</ele>
        <time>2019-11-21T21:53:34Z</time>
      </trkpt>
      <trkpt lat="42.96682378" lon="-1.83885036">
        <ele>554.92554</ele>
        <time>2019-11-21T21:53:35Z</time>
      </trkpt>
      <trkpt lat="42.96662158" lon="-1.8385958">
        <ele>554.76196</ele>
        <time>2019-11-21T21:53:36Z</time>
      </trkpt>
      <trkpt lat="42.96642314" lon="-1.83833146">
        <ele>554.6791</ele>
        <time>2019-11-21T21:53:37Z</time>
      </trkpt>
      <trkpt lat="42.96622241" lon="-1.83805068">
        <ele>554.905</ele>
        <time>2019-11-21T21:53:38Z</time>
      </trkpt>
      <trkpt lat="42.9660262" lon="-1.83777497">
        <ele>556.40576</ele>
        <time>2019-11-21T21:53:40Z</time>
      </trkpt>
      <trkpt lat="42.9658469" lon="-1.83748324">
        <ele>555.9896</ele>
        <time>2019-11-21T21:53:41Z</time>
      </trkpt>
      <trkpt lat="42.96569117" lon="-1.83719991">
        <ele>553.5111</ele>
        <time>2019-11-21T21:53:42Z</time>
      </trkpt>
      <trkpt lat="42.96554813" lon="-1.83691053">
        <ele>552.35986</ele>
        <time>2019-11-21T21:53:43Z</time>
      </trkpt>
      <trkpt lat="42.96540267" lon="-1.83662056">
        <ele>550.95483</ele>
        <time>2019-11-21T21:53:44Z</time>
      </trkpt>
      <trkpt lat="42.96525968" lon="-1.83632506">
        <ele>550.25183</ele>
        <time>2019-11-21T21:53:45Z</time>
      </trkpt>
      <trkpt lat="42.96511773" lon="-1.83603476">
        <ele>548.96497</ele>
        <time>2019-11-21T21:53:46Z</time>
      </trkpt>
      <trkpt lat="42.9649757" lon="-1.83574765">
        <ele>547.37134</ele>
        <time>2019-11-21T21:53:47Z</time>
      </trkpt>
      <trkpt lat="42.96483259" lon="-1.8354518">
        <ele>546.05176</ele>
        <time>2019-11-21T21:53:48Z</time>
      </trkpt>
      <trkpt lat="42.96469026" lon="-1.83516249">
        <ele>545.6245</ele>
        <time>2019-11-21T21:53:49Z</time>
      </trkpt>
      <trkpt lat="42.9645394" lon="-1.83486673">
        <ele>544.23584</ele>
        <time>2019-11-21T21:53:50Z</time>
      </trkpt>
      <trkpt lat="42.96438637" lon="-1.83457728">
        <ele>542.84265</ele>
        <time>2019-11-21T21:53:51Z</time>
      </trkpt>
      <trkpt lat="42.96422237" lon="-1.8342949">
        <ele>542.9856</ele>
        <time>2019-11-21T21:53:52Z</time>
      </trkpt>
      <trkpt lat="42.96388677" lon="-1.83375195">
        <ele>540.7405</ele>
        <time>2019-11-21T21:53:53Z</time>
      </trkpt>
      <trkpt lat="42.96371215" lon="-1.83348355">
        <ele>541.2656</ele>
        <time>2019-11-21T21:53:54Z</time>
      </trkpt>
      <trkpt lat="42.96353527" lon="-1.83322636">
        <ele>540.6782</ele>
        <time>2019-11-21T21:53:55Z</time>
      </trkpt>
      <trkpt lat="42.96334946" lon="-1.8329794">
        <ele>541.2798</ele>
        <time>2019-11-21T21:53:56Z</time>
      </trkpt>
      <trkpt lat="42.96316128" lon="-1.83274477">
        <ele>539.8999</ele>
        <time>2019-11-21T21:53:57Z</time>
      </trkpt>
      <trkpt lat="42.96296506" lon="-1.83252215">
        <ele>539.21094</ele>
        <time>2019-11-21T21:53:58Z</time>
      </trkpt>
      <trkpt lat="42.96276042" lon="-1.83228455">
        <ele>538.4813</ele>
        <time>2019-11-21T21:53:59Z</time>
      </trkpt>
      <trkpt lat="42.96256349" lon="-1.83208555">
        <ele>538.3904</ele>
        <time>2019-11-21T21:54:00Z</time>
      </trkpt>
      <trkpt lat="42.96235782" lon="-1.8318797">
        <ele>537.3562</ele>
        <time>2019-11-21T21:54:01Z</time>
      </trkpt>
      <trkpt lat="42.96214725" lon="-1.83167881">
        <ele>537.2927</ele>
        <time>2019-11-21T21:54:02Z</time>
      </trkpt>
      <trkpt lat="42.96193928" lon="-1.83148177">
        <ele>537.63525</ele>
        <time>2019-11-21T21:54:03Z</time>
      </trkpt>
      <trkpt lat="42.96173026" lon="-1.83129379">
        <ele>536.1836</ele>
        <time>2019-11-21T21:54:04Z</time>
      </trkpt>
      <trkpt lat="42.96153354" lon="-1.83109276">
        <ele>535.7317</ele>
        <time>2019-11-21T21:54:05Z</time>
      </trkpt>
      <trkpt lat="42.96133977" lon="-1.83087969">
        <ele>535.42505</ele>
        <time>2019-11-21T21:54:06Z</time>
      </trkpt>
      <trkpt lat="42.96115121" lon="-1.83065884">
        <ele>535.63745</ele>
        <time>2019-11-21T21:54:07Z</time>
      </trkpt>
      <trkpt lat="42.96096635" lon="-1.83042185">
        <ele>536.0315</ele>
        <time>2019-11-21T21:54:08Z</time>
      </trkpt>
      <trkpt lat="42.9608011" lon="-1.83016994">
        <ele>536.3484</ele>
        <time>2019-11-21T21:54:09Z</time>
      </trkpt>
      <trkpt lat="42.96065126" lon="-1.82990538">
        <ele>536.3484</ele>
        <time>2019-11-21T21:54:10Z</time>
      </trkpt>
      <trkpt lat="42.96050811" lon="-1.82962691">
        <ele>537.6034</ele>
        <time>2019-11-21T21:54:11Z</time>
      </trkpt>
      <trkpt lat="42.96036968" lon="-1.829333">
        <ele>538.1282</ele>
        <time>2019-11-21T21:54:13Z</time>
      </trkpt>
      <trkpt lat="42.96023657" lon="-1.82904463">
        <ele>583.6741</ele>
        <time>2019-11-21T21:54:14Z</time>
      </trkpt>
      <trkpt lat="42.96010352" lon="-1.82875983">
        <ele>572.3286</ele>
        <time>2019-11-21T21:54:15Z</time>
      </trkpt>
      <trkpt lat="42.95996619" lon="-1.82847827">
        <ele>566.09644</ele>
        <time>2019-11-21T21:54:16Z</time>
      </trkpt>
      <trkpt lat="42.95983135700226" lon="-1.828199028968811">
        <ele>0.0</ele>
        <time>2019-11-21T21:54:17Z</time>
      </trkpt>
      <trkpt lat="42.95832397" lon="-1.82652175">
        <ele>547.1394</ele>
        <time>2019-11-21T21:54:25Z</time>
      </trkpt>
      <trkpt lat="42.95789159" lon="-1.8262397">
        <ele>543.65967</ele>
        <time>2019-11-21T21:54:26Z</time>
      </trkpt>
      <trkpt lat="42.95767167" lon="-1.82613077">
        <ele>543.79614</ele>
        <time>2019-11-21T21:54:27Z</time>
      </trkpt>
      <trkpt lat="42.95742273" lon="-1.82602394">
        <ele>542.1323</ele>
        <time>2019-11-21T21:54:28Z</time>
      </trkpt>
      <trkpt lat="42.95716811" lon="-1.82595686">
        <ele>540.26953</ele>
        <time>2019-11-21T21:54:29Z</time>
      </trkpt>
      <trkpt lat="42.95691745" lon="-1.82589707">
        <ele>538.94653</ele>
        <time>2019-11-21T21:54:30Z</time>
      </trkpt>
      <trkpt lat="42.95665207" lon="-1.82584526">
        <ele>537.81775</ele>
        <time>2019-11-21T21:54:31Z</time>
      </trkpt>
      <trkpt lat="42.95638982" lon="-1.82580055">
        <ele>536.9486</ele>
        <time>2019-11-21T21:54:32Z</time>
      </trkpt>
      <trkpt lat="42.95612258" lon="-1.82576129">
        <ele>537.2373</ele>
        <time>2019-11-21T21:54:33Z</time>
      </trkpt>
      <trkpt lat="42.95584669" lon="-1.82572514">
        <ele>536.23706</ele>
        <time>2019-11-21T21:54:34Z</time>
      </trkpt>
      <trkpt lat="42.95557339" lon="-1.82566429">
        <ele>535.8342</ele>
        <time>2019-11-21T21:54:35Z</time>
      </trkpt>
      <trkpt lat="42.95530236" lon="-1.82557192">
        <ele>536.08813</ele>
        <time>2019-11-21T21:54:36Z</time>
      </trkpt>
      <trkpt lat="42.95503161" lon="-1.82547362">
        <ele>536.51685</ele>
        <time>2019-11-21T21:54:37Z</time>
      </trkpt>
      <trkpt lat="42.95476423" lon="-1.82535882">
        <ele>536.0095</ele>
        <time>2019-11-21T21:54:38Z</time>
      </trkpt>
      <trkpt lat="42.95448921" lon="-1.82523318">
        <ele>535.1741</ele>
        <time>2019-11-21T21:54:39Z</time>
      </trkpt>
      <trkpt lat="42.95421953" lon="-1.82510974">
        <ele>533.16504</ele>
        <time>2019-11-21T21:54:40Z</time>
      </trkpt>
      <trkpt lat="42.9539401" lon="-1.8250038">
        <ele>531.66907</ele>
        <time>2019-11-21T21:54:42Z</time>
      </trkpt>
      <trkpt lat="42.95367003" lon="-1.82493836">
        <ele>530.4016</ele>
        <time>2019-11-21T21:54:43Z</time>
      </trkpt>
      <trkpt lat="42.95338984" lon="-1.82488438">
        <ele>529.6814</ele>
        <time>2019-11-21T21:54:44Z</time>
      </trkpt>
      <trkpt lat="42.95311487" lon="-1.82486652">
        <ele>529.1177</ele>
        <time>2019-11-21T21:54:45Z</time>
      </trkpt>
      <trkpt lat="42.95284409" lon="-1.82486598">
        <ele>530.81934</ele>
        <time>2019-11-21T21:54:46Z</time>
      </trkpt>
      <trkpt lat="42.95256623" lon="-1.82491961">
        <ele>528.99817</ele>
        <time>2019-11-21T21:54:47Z</time>
      </trkpt>
      <trkpt lat="42.9522913" lon="-1.82498423">
        <ele>527.5581</ele>
        <time>2019-11-21T21:54:48Z</time>
      </trkpt>
      <trkpt lat="42.95202748" lon="-1.8250858">
        <ele>527.13586</ele>
        <time>2019-11-21T21:54:49Z</time>
      </trkpt>
      <trkpt lat="42.95177296" lon="-1.82522051">
        <ele>526.3733</ele>
        <time>2019-11-21T21:54:50Z</time>
      </trkpt>
      <trkpt lat="42.95151658" lon="-1.82539253">
        <ele>525.2217</ele>
        <time>2019-11-21T21:54:51Z</time>
      </trkpt>
      <trkpt lat="42.95125272" lon="-1.82557197">
        <ele>522.37854</ele>
        <time>2019-11-21T21:54:52Z</time>
      </trkpt>
      <trkpt lat="42.95100464" lon="-1.82575151">
        <ele>520.8519</ele>
        <time>2019-11-21T21:54:53Z</time>
      </trkpt>
      <trkpt lat="42.95051569" lon="-1.82608783">
        <ele>517.49457</ele>
        <time>2019-11-21T21:54:54Z</time>
      </trkpt>
      <trkpt lat="42.95025431" lon="-1.82626509">
        <ele>516.50104</ele>
        <time>2019-11-21T21:54:55Z</time>
      </trkpt>
      <trkpt lat="42.94999816" lon="-1.82644497">
        <ele>514.92426</ele>
        <time>2019-11-21T21:54:56Z</time>
      </trkpt>
      <trkpt lat="42.94975511" lon="-1.82662783">
        <ele>513.48694</ele>
        <time>2019-11-21T21:54:57Z</time>
      </trkpt>
      <trkpt lat="42.949495" lon="-1.8268004">
        <ele>513.0696</ele>
        <time>2019-11-21T21:54:58Z</time>
      </trkpt>
      <trkpt lat="42.94924183" lon="-1.82698544">
        <ele>512.6176</ele>
        <time>2019-11-21T21:54:59Z</time>
      </trkpt>
      <trkpt lat="42.9489937" lon="-1.82716381">
        <ele>511.79785</ele>
        <time>2019-11-21T21:55:00Z</time>
      </trkpt>
      <trkpt lat="42.94873361" lon="-1.82733266">
        <ele>511.72888</ele>
        <time>2019-11-21T21:55:01Z</time>
      </trkpt>
      <trkpt lat="42.94847304" lon="-1.8274949">
        <ele>511.16357</ele>
        <time>2019-11-21T21:55:02Z</time>
      </trkpt>
      <trkpt lat="42.94821301" lon="-1.82762795">
        <ele>509.72583</ele>
        <time>2019-11-21T21:55:03Z</time>
      </trkpt>
      <trkpt lat="42.94794224" lon="-1.82774623">
        <ele>509.40155</ele>
        <time>2019-11-21T21:55:04Z</time>
      </trkpt>
      <trkpt lat="42.94766356" lon="-1.82783863">
        <ele>509.31433</ele>
        <time>2019-11-21T21:55:05Z</time>
      </trkpt>
      <trkpt lat="42.94738805" lon="-1.8279285">
        <ele>508.4088</ele>
        <time>2019-11-21T21:55:06Z</time>
      </trkpt>
      <trkpt lat="42.94711771" lon="-1.82801605">
        <ele>507.70007</ele>
        <time>2019-11-21T21:55:07Z</time>
      </trkpt>
      <trkpt lat="42.94684188" lon="-1.82809524">
        <ele>507.92004</ele>
        <time>2019-11-21T21:55:08Z</time>
      </trkpt>
      <trkpt lat="42.94657737" lon="-1.82818152">
        <ele>507.3241</ele>
        <time>2019-11-21T21:55:09Z</time>
      </trkpt>
      <trkpt lat="42.94631504" lon="-1.82825399">
        <ele>507.59497</ele>
        <time>2019-11-21T21:55:10Z</time>
      </trkpt>
      <trkpt lat="42.94606156" lon="-1.82830162">
        <ele>507.23694</ele>
        <time>2019-11-21T21:55:12Z</time>
      </trkpt>
      <trkpt lat="42.94582437" lon="-1.82832278">
        <ele>507.1184</ele>
        <time>2019-11-21T21:55:13Z</time>
      </trkpt>
      <trkpt lat="42.94556129" lon="-1.82832845">
        <ele>507.1236</ele>
        <time>2019-11-21T21:55:14Z</time>
      </trkpt>
      <trkpt lat="42.94529714" lon="-1.8283053">
        <ele>508.23474</ele>
        <time>2019-11-21T21:55:15Z</time>
      </trkpt>
      <trkpt lat="42.94505777" lon="-1.82824804">
        <ele>509.40393</ele>
        <time>2019-11-21T21:55:16Z</time>
      </trkpt>
      <trkpt lat="42.94480167" lon="-1.82816884">
        <ele>509.73767</ele>
        <time>2019-11-21T21:55:17Z</time>
      </trkpt>
      <trkpt lat="42.94458042" lon="-1.82805958">
        <ele>509.91797</ele>
        <time>2019-11-21T21:55:18Z</time>
      </trkpt>
      <trkpt lat="42.94436207" lon="-1.82792884">
        <ele>510.19733</ele>
        <time>2019-11-21T21:55:19Z</time>
      </trkpt>
      <trkpt lat="42.94414852" lon="-1.82778069">
        <ele>510.59607</ele>
        <time>2019-11-21T21:55:20Z</time>
      </trkpt>
      <trkpt lat="42.94395334" lon="-1.82762064">
        <ele>510.685</ele>
        <time>2019-11-21T21:55:21Z</time>
      </trkpt>
      <trkpt lat="42.94375403" lon="-1.82742525">
        <ele>511.49524</ele>
        <time>2019-11-21T21:55:22Z</time>
      </trkpt>
      <trkpt lat="42.94341766" lon="-1.82698833">
        <ele>511.7704</ele>
        <time>2019-11-21T21:55:23Z</time>
      </trkpt>
      <trkpt lat="42.94324631" lon="-1.82674171">
        <ele>511.70093</ele>
        <time>2019-11-21T21:55:24Z</time>
      </trkpt>
      <trkpt lat="42.94308658" lon="-1.82647946">
        <ele>514.19556</ele>
        <time>2019-11-21T21:55:25Z</time>
      </trkpt>
      <trkpt lat="42.94293653" lon="-1.82623731">
        <ele>513.8523</ele>
        <time>2019-11-21T21:55:26Z</time>
      </trkpt>
      <trkpt lat="42.94277293" lon="-1.82599663">
        <ele>515.8353</ele>
        <time>2019-11-21T21:55:27Z</time>
      </trkpt>
      <trkpt lat="42.94259171" lon="-1.82577127">
        <ele>516.70264</ele>
        <time>2019-11-21T21:55:28Z</time>
      </trkpt>
      <trkpt lat="42.94240684" lon="-1.82555923">
        <ele>517.52435</ele>
        <time>2019-11-21T21:55:29Z</time>
      </trkpt>
      <trkpt lat="42.94220713" lon="-1.82536548">
        <ele>517.95575</ele>
        <time>2019-11-21T21:55:30Z</time>
      </trkpt>
      <trkpt lat="42.94200831" lon="-1.82520166">
        <ele>518.3614</ele>
        <time>2019-11-21T21:55:31Z</time>
      </trkpt>
      <trkpt lat="42.94180444" lon="-1.82507007">
        <ele>518.7934</ele>
        <time>2019-11-21T21:55:32Z</time>
      </trkpt>
      <trkpt lat="42.9415898" lon="-1.82496239">
        <ele>518.75867</ele>
        <time>2019-11-21T21:55:33Z</time>
      </trkpt>
      <trkpt lat="42.9413629" lon="-1.82486769">
        <ele>518.32574</ele>
        <time>2019-11-21T21:55:34Z</time>
      </trkpt>
      <trkpt lat="42.94113962" lon="-1.82480802">
        <ele>518.5821</ele>
        <time>2019-11-21T21:55:35Z</time>
      </trkpt>
      <trkpt lat="42.94090618" lon="-1.82476423">
        <ele>519.26154</ele>
        <time>2019-11-21T21:55:36Z</time>
      </trkpt>
      <trkpt lat="42.94066873" lon="-1.82474188">
        <ele>519.67236</ele>
        <time>2019-11-21T21:55:37Z</time>
      </trkpt>
      <trkpt lat="42.94041978" lon="-1.82474883">
        <ele>519.65735</ele>
        <time>2019-11-21T21:55:38Z</time>
      </trkpt>
      <trkpt lat="42.94018822" lon="-1.82479128">
        <ele>520.21545</ele>
        <time>2019-11-21T21:55:39Z</time>
      </trkpt>
      <trkpt lat="42.93996068" lon="-1.82485627">
        <ele>519.1705</ele>
        <time>2019-11-21T21:55:41Z</time>
      </trkpt>
      <trkpt lat="42.93973264" lon="-1.8249471">
        <ele>518.7064</ele>
        <time>2019-11-21T21:55:42Z</time>
      </trkpt>
      <trkpt lat="42.93950896" lon="-1.82505292">
        <ele>517.5039</ele>
        <time>2019-11-21T21:55:43Z</time>
      </trkpt>
      <trkpt lat="42.9392889" lon="-1.82516826">
        <ele>517.3972</ele>
        <time>2019-11-21T21:55:44Z</time>
      </trkpt>
      <trkpt lat="42.93907526" lon="-1.82529745">
        <ele>517.31213</ele>
        <time>2019-11-21T21:55:45Z</time>
      </trkpt>
      <trkpt lat="42.9388564825058" lon="-1.825430989265442">
        <ele>0.0</ele>
        <time>2019-11-21T21:55:46Z</time>
      </trkpt>
      <trkpt lat="42.93763092" lon="-1.82678847">
        <ele>516.2513</ele>
        <time>2019-11-21T21:55:52Z</time>
      </trkpt>
      <trkpt lat="42.93745492" lon="-1.82697833">
        <ele>515.4663</ele>
        <time>2019-11-21T21:55:53Z</time>
      </trkpt>
      <trkpt lat="42.9373035" lon="-1.82717123">
        <ele>512.05255</ele>
        <time>2019-11-21T21:55:54Z</time>
      </trkpt>
      <trkpt lat="42.93710067" lon="-1.82735768">
        <ele>513.8561</ele>
        <time>2019-11-21T21:55:55Z</time>
      </trkpt>
      <trkpt lat="42.93689602" lon="-1.82755036">
        <ele>513.8875</ele>
        <time>2019-11-21T21:55:56Z</time>
      </trkpt>
      <trkpt lat="42.9366874" lon="-1.82773148">
        <ele>513.8668</ele>
        <time>2019-11-21T21:55:57Z</time>
      </trkpt>
      <trkpt lat="42.936474680900574" lon="-1.8279147148132324">
        <ele>0.0</ele>
        <time>2019-11-21T21:55:58Z</time>
      </trkpt>
      <trkpt lat="42.93390067" lon="-1.82891573">
        <ele>514.5827</ele>
        <time>2019-11-21T21:56:10Z</time>
      </trkpt>
      <trkpt lat="42.93359517" lon="-1.82890289">
        <ele>515.0202</ele>
        <time>2019-11-21T21:56:11Z</time>
      </trkpt>
      <trkpt lat="42.93334147" lon="-1.82888671">
        <ele>514.7793</ele>
        <time>2019-11-21T21:56:12Z</time>
      </trkpt>
      <trkpt lat="42.9331033" lon="-1.82884487">
        <ele>513.13184</ele>
        <time>2019-11-21T21:56:13Z</time>
      </trkpt>
      <trkpt lat="42.93283058" lon="-1.82881367">
        <ele>512.9477</ele>
        <time>2019-11-21T21:56:14Z</time>
      </trkpt>
      <trkpt lat="42.93260052" lon="-1.82873699">
        <ele>510.77783</ele>
        <time>2019-11-21T21:56:15Z</time>
      </trkpt>
      <trkpt lat="42.93235234" lon="-1.82865902">
        <ele>510.81885</ele>
        <time>2019-11-21T21:56:16Z</time>
      </trkpt>
      <trkpt lat="42.93210606" lon="-1.82857056">
        <ele>510.25568</ele>
        <time>2019-11-21T21:56:17Z</time>
      </trkpt>
      <trkpt lat="42.93185857" lon="-1.8284696">
        <ele>509.98535</ele>
        <time>2019-11-21T21:56:18Z</time>
      </trkpt>
      <trkpt lat="42.93161994" lon="-1.82836004">
        <ele>507.08594</ele>
        <time>2019-11-21T21:56:19Z</time>
      </trkpt>
      <trkpt lat="42.93137112" lon="-1.82824429">
        <ele>505.64355</ele>
        <time>2019-11-21T21:56:20Z</time>
      </trkpt>
      <trkpt lat="42.93085319" lon="-1.82802154">
        <ele>504.57422</ele>
        <time>2019-11-21T21:56:21Z</time>
      </trkpt>
      <trkpt lat="42.93059218" lon="-1.82791886">
        <ele>504.88818</ele>
        <time>2019-11-21T21:56:22Z</time>
      </trkpt>
      <trkpt lat="42.93032806" lon="-1.82782019">
        <ele>503.5807</ele>
        <time>2019-11-21T21:56:23Z</time>
      </trkpt>
      <trkpt lat="42.93005347" lon="-1.82774646">
        <ele>503.59656</ele>
        <time>2019-11-21T21:56:24Z</time>
      </trkpt>
      <trkpt lat="42.92978271" lon="-1.82769684">
        <ele>503.16528</ele>
        <time>2019-11-21T21:56:25Z</time>
      </trkpt>
      <trkpt lat="42.92950584" lon="-1.82766891">
        <ele>502.4319</ele>
        <time>2019-11-21T21:56:26Z</time>
      </trkpt>
      <trkpt lat="42.92924534" lon="-1.82768634">
        <ele>503.03033</ele>
        <time>2019-11-21T21:56:27Z</time>
      </trkpt>
      <trkpt lat="42.92898329" lon="-1.82772826">
        <ele>503.2063</ele>
        <time>2019-11-21T21:56:28Z</time>
      </trkpt>
      <trkpt lat="42.92872441" lon="-1.82780074">
        <ele>503.09723</ele>
        <time>2019-11-21T21:56:29Z</time>
      </trkpt>
      <trkpt lat="42.92848197" lon="-1.82786912">
        <ele>502.69788</ele>
        <time>2019-11-21T21:56:30Z</time>
      </trkpt>
      <trkpt lat="42.92823337" lon="-1.82800146">
        <ele>502.0349</ele>
        <time>2019-11-21T21:56:31Z</time>
      </trkpt>
      <trkpt lat="42.92800424" lon="-1.82815054">
        <ele>501.34668</ele>
        <time>2019-11-21T21:56:32Z</time>
      </trkpt>
      <trkpt lat="42.9277747" lon="-1.82831519">
        <ele>500.08752</ele>
        <time>2019-11-21T21:56:33Z</time>
      </trkpt>
      <trkpt lat="42.92752563" lon="-1.82845924">
        <ele>500.45557</ele>
        <time>2019-11-21T21:56:34Z</time>
      </trkpt>
      <trkpt lat="42.92726429" lon="-1.82859857">
        <ele>500.07288</ele>
        <time>2019-11-21T21:56:35Z</time>
      </trkpt>
      <trkpt lat="42.92701049" lon="-1.82872515">
        <ele>497.33484</ele>
        <time>2019-11-21T21:56:36Z</time>
      </trkpt>
      <trkpt lat="42.92674498" lon="-1.82884493">
        <ele>496.1399</ele>
        <time>2019-11-21T21:56:37Z</time>
      </trkpt>
      <trkpt lat="42.92647945" lon="-1.82895574">
        <ele>495.35498</ele>
        <time>2019-11-21T21:56:39Z</time>
      </trkpt>
      <trkpt lat="42.92623338" lon="-1.82907904">
        <ele>491.8329</ele>
        <time>2019-11-21T21:56:40Z</time>
      </trkpt>
      <trkpt lat="42.92597793" lon="-1.82920305">
        <ele>489.78363</ele>
        <time>2019-11-21T21:56:41Z</time>
      </trkpt>
      <trkpt lat="42.92572994" lon="-1.82936753">
        <ele>487.78955</ele>
        <time>2019-11-21T21:56:42Z</time>
      </trkpt>
      <trkpt lat="42.925489" lon="-1.82956294">
        <ele>486.0749</ele>
        <time>2019-11-21T21:56:43Z</time>
      </trkpt>
      <trkpt lat="42.9252618" lon="-1.82977856">
        <ele>486.50433</ele>
        <time>2019-11-21T21:56:44Z</time>
      </trkpt>
      <trkpt lat="42.9250461" lon="-1.83002404">
        <ele>486.8247</ele>
        <time>2019-11-21T21:56:45Z</time>
      </trkpt>
      <trkpt lat="42.92485025" lon="-1.83028943">
        <ele>486.77374</ele>
        <time>2019-11-21T21:56:46Z</time>
      </trkpt>
      <trkpt lat="42.92466452" lon="-1.83055633">
        <ele>486.63788</ele>
        <time>2019-11-21T21:56:47Z</time>
      </trkpt>
      <trkpt lat="42.92448136" lon="-1.83084093">
        <ele>486.77673</ele>
        <time>2019-11-21T21:56:48Z</time>
      </trkpt>
      <trkpt lat="42.92430579" lon="-1.83113515">
        <ele>484.71497</ele>
        <time>2019-11-21T21:56:49Z</time>
      </trkpt>
      <trkpt lat="42.92411684" lon="-1.83141858">
        <ele>488.0652</ele>
        <time>2019-11-21T21:56:50Z</time>
      </trkpt>
      <trkpt lat="42.92391228" lon="-1.83167744">
        <ele>487.0633</ele>
        <time>2019-11-21T21:56:51Z</time>
      </trkpt>
      <trkpt lat="42.92370216" lon="-1.83194384">
        <ele>486.7434</ele>
        <time>2019-11-21T21:56:52Z</time>
      </trkpt>
      <trkpt lat="42.92327503" lon="-1.83247206">
        <ele>485.4823</ele>
        <time>2019-11-21T21:56:53Z</time>
      </trkpt>
      <trkpt lat="42.92305621" lon="-1.83273632">
        <ele>486.57007</ele>
        <time>2019-11-21T21:56:54Z</time>
      </trkpt>
      <trkpt lat="42.92284337" lon="-1.83301429">
        <ele>485.46014</ele>
        <time>2019-11-21T21:56:55Z</time>
      </trkpt>
      <trkpt lat="42.92263371" lon="-1.83324239">
        <ele>483.6344</ele>
        <time>2019-11-21T21:56:56Z</time>
      </trkpt>
      <trkpt lat="42.9224201" lon="-1.83350123">
        <ele>482.01672</ele>
        <time>2019-11-21T21:56:57Z</time>
      </trkpt>
      <trkpt lat="42.92220961" lon="-1.83376051">
        <ele>481.13013</ele>
        <time>2019-11-21T21:56:58Z</time>
      </trkpt>
      <trkpt lat="42.92198847" lon="-1.83401682">
        <ele>481.6183</ele>
        <time>2019-11-21T21:56:59Z</time>
      </trkpt>
      <trkpt lat="42.92176569" lon="-1.83428475">
        <ele>481.84192</ele>
        <time>2019-11-21T21:57:00Z</time>
      </trkpt>
      <trkpt lat="42.9215383" lon="-1.83454846">
        <ele>481.958</ele>
        <time>2019-11-21T21:57:01Z</time>
      </trkpt>
      <trkpt lat="42.92132139" lon="-1.83479276">
        <ele>481.47632</ele>
        <time>2019-11-21T21:57:02Z</time>
      </trkpt>
      <trkpt lat="42.9211" lon="-1.83503441">
        <ele>482.43872</ele>
        <time>2019-11-21T21:57:03Z</time>
      </trkpt>
      <trkpt lat="42.92089199" lon="-1.83529489">
        <ele>480.1444</ele>
        <time>2019-11-21T21:57:04Z</time>
      </trkpt>
      <trkpt lat="42.92067736" lon="-1.83555351">
        <ele>480.30518</ele>
        <time>2019-11-21T21:57:05Z</time>
      </trkpt>
      <trkpt lat="42.9204632" lon="-1.83580781">
        <ele>480.6006</ele>
        <time>2019-11-21T21:57:06Z</time>
      </trkpt>
      <trkpt lat="42.92025792" lon="-1.83605627">
        <ele>481.2212</ele>
        <time>2019-11-21T21:57:07Z</time>
      </trkpt>
      <trkpt lat="42.92005566" lon="-1.83630064">
        <ele>481.9502</ele>
        <time>2019-11-21T21:57:08Z</time>
      </trkpt>
      <trkpt lat="42.91984775" lon="-1.83654872">
        <ele>482.53125</ele>
        <time>2019-11-21T21:57:10Z</time>
      </trkpt>
      <trkpt lat="42.91964984" lon="-1.8367917">
        <ele>481.70227</ele>
        <time>2019-11-21T21:57:11Z</time>
      </trkpt>
      <trkpt lat="42.91943932" lon="-1.83703419">
        <ele>482.43683</ele>
        <time>2019-11-21T21:57:12Z</time>
      </trkpt>
      <trkpt lat="42.91922625" lon="-1.83726043">
        <ele>482.8678</ele>
        <time>2019-11-21T21:57:13Z</time>
      </trkpt>
      <trkpt lat="42.9190044" lon="-1.83747075">
        <ele>482.3833</ele>
        <time>2019-11-21T21:57:14Z</time>
      </trkpt>
      <trkpt lat="42.91876934" lon="-1.83766833">
        <ele>481.75024</ele>
        <time>2019-11-21T21:57:15Z</time>
      </trkpt>
      <trkpt lat="42.91851476" lon="-1.83784795">
        <ele>482.70355</ele>
        <time>2019-11-21T21:57:16Z</time>
      </trkpt>
      <trkpt lat="42.91825089" lon="-1.83800436">
        <ele>483.0265</ele>
        <time>2019-11-21T21:57:17Z</time>
      </trkpt>
      <trkpt lat="42.91798847" lon="-1.83813523">
        <ele>481.78845</ele>
        <time>2019-11-21T21:57:18Z</time>
      </trkpt>
      <trkpt lat="42.91771525" lon="-1.83824457">
        <ele>482.4159</ele>
        <time>2019-11-21T21:57:19Z</time>
      </trkpt>
      <trkpt lat="42.91743004" lon="-1.83832251">
        <ele>482.0758</ele>
        <time>2019-11-21T21:57:20Z</time>
      </trkpt>
      <trkpt lat="42.91714872" lon="-1.83837017">
        <ele>481.65692</ele>
        <time>2019-11-21T21:57:21Z</time>
      </trkpt>
      <trkpt lat="42.91657361" lon="-1.83840588">
        <ele>481.98083</ele>
        <time>2019-11-21T21:57:22Z</time>
      </trkpt>
      <trkpt lat="42.91628049" lon="-1.83838654">
        <ele>481.78906</ele>
        <time>2019-11-21T21:57:23Z</time>
      </trkpt>
      <trkpt lat="42.9159882" lon="-1.83833687">
        <ele>481.93127</ele>
        <time>2019-11-21T21:57:24Z</time>
      </trkpt>
      <trkpt lat="42.91569988" lon="-1.83826565">
        <ele>482.17297</ele>
        <time>2019-11-21T21:57:25Z</time>
      </trkpt>
      <trkpt lat="42.91543401" lon="-1.83816878">
        <ele>482.5155</ele>
        <time>2019-11-21T21:57:26Z</time>
      </trkpt>
      <trkpt lat="42.91515268" lon="-1.83806722">
        <ele>482.10327</ele>
        <time>2019-11-21T21:57:27Z</time>
      </trkpt>
      <trkpt lat="42.91487435" lon="-1.83794693">
        <ele>482.51227</ele>
        <time>2019-11-21T21:57:28Z</time>
      </trkpt>
      <trkpt lat="42.91461138" lon="-1.83780718">
        <ele>482.20557</ele>
        <time>2019-11-21T21:57:29Z</time>
      </trkpt>
      <trkpt lat="42.91435753" lon="-1.83766112">
        <ele>481.95435</ele>
        <time>2019-11-21T21:57:30Z</time>
      </trkpt>
      <trkpt lat="42.91409418" lon="-1.83749427">
        <ele>482.69757</ele>
        <time>2019-11-21T21:57:31Z</time>
      </trkpt>
      <trkpt lat="42.91384137" lon="-1.83731134">
        <ele>482.64758</ele>
        <time>2019-11-21T21:57:32Z</time>
      </trkpt>
      <trkpt lat="42.91358355" lon="-1.83712966">
        <ele>482.52753</ele>
        <time>2019-11-21T21:57:33Z</time>
      </trkpt>
      <trkpt lat="42.91335032" lon="-1.83692559">
        <ele>481.45874</ele>
        <time>2019-11-21T21:57:34Z</time>
      </trkpt>
      <trkpt lat="42.91311705" lon="-1.83669889">
        <ele>481.7484</ele>
        <time>2019-11-21T21:57:35Z</time>
      </trkpt>
      <trkpt lat="42.91289627" lon="-1.83646711">
        <ele>482.11853</ele>
        <time>2019-11-21T21:57:36Z</time>
      </trkpt>
      <trkpt lat="42.91268108" lon="-1.83622392">
        <ele>482.19507</ele>
        <time>2019-11-21T21:57:37Z</time>
      </trkpt>
      <trkpt lat="42.91247619" lon="-1.8359639">
        <ele>483.3473</ele>
        <time>2019-11-21T21:57:39Z</time>
      </trkpt>
      <trkpt lat="42.91227582" lon="-1.8356929">
        <ele>482.82324</ele>
        <time>2019-11-21T21:57:40Z</time>
      </trkpt>
      <trkpt lat="42.91208657" lon="-1.83540186">
        <ele>486.04675</ele>
        <time>2019-11-21T21:57:41Z</time>
      </trkpt>
      <trkpt lat="42.91190669" lon="-1.83511419">
        <ele>485.62677</ele>
        <time>2019-11-21T21:57:42Z</time>
      </trkpt>
      <trkpt lat="42.91172754" lon="-1.83481357">
        <ele>486.12732</ele>
        <time>2019-11-21T21:57:43Z</time>
      </trkpt>
      <trkpt lat="42.9115614" lon="-1.83451724">
        <ele>486.82043</ele>
        <time>2019-11-21T21:57:44Z</time>
      </trkpt>
      <trkpt lat="42.91139917" lon="-1.83420161">
        <ele>488.75323</ele>
        <time>2019-11-21T21:57:45Z</time>
      </trkpt>
      <trkpt lat="42.91125022" lon="-1.83388223">
        <ele>488.48712</ele>
        <time>2019-11-21T21:57:46Z</time>
      </trkpt>
      <trkpt lat="42.91110506" lon="-1.8335603">
        <ele>489.63733</ele>
        <time>2019-11-21T21:57:47Z</time>
      </trkpt>
      <trkpt lat="42.91096026" lon="-1.83322526">
        <ele>490.53882</ele>
        <time>2019-11-21T21:57:48Z</time>
      </trkpt>
      <trkpt lat="42.91081801" lon="-1.83289786">
        <ele>491.19214</ele>
        <time>2019-11-21T21:57:49Z</time>
      </trkpt>
      <trkpt lat="42.91068673" lon="-1.83257034">
        <ele>491.70862</ele>
        <time>2019-11-21T21:57:50Z</time>
      </trkpt>
      <trkpt lat="42.91040565" lon="-1.83190694">
        <ele>493.40033</ele>
        <time>2019-11-21T21:57:51Z</time>
      </trkpt>
      <trkpt lat="42.91025647" lon="-1.83156504">
        <ele>493.45813</ele>
        <time>2019-11-21T21:57:52Z</time>
      </trkpt>
      <trkpt lat="42.91010607" lon="-1.83124499">
        <ele>494.46564</ele>
        <time>2019-11-21T21:57:53Z</time>
      </trkpt>
      <trkpt lat="42.90993834" lon="-1.83094768">
        <ele>495.99304</ele>
        <time>2019-11-21T21:57:54Z</time>
      </trkpt>
      <trkpt lat="42.90975938" lon="-1.83064542">
        <ele>497.06445</ele>
        <time>2019-11-21T21:57:55Z</time>
      </trkpt>
      <trkpt lat="42.90956911" lon="-1.83034337">
        <ele>499.30603</ele>
        <time>2019-11-21T21:57:56Z</time>
      </trkpt>
      <trkpt lat="42.90937974" lon="-1.8300724">
        <ele>498.84387</ele>
        <time>2019-11-21T21:57:57Z</time>
      </trkpt>
      <trkpt lat="42.90918231" lon="-1.82980943">
        <ele>499.47498</ele>
        <time>2019-11-21T21:57:58Z</time>
      </trkpt>
      <trkpt lat="42.90897324" lon="-1.82955503">
        <ele>500.79895</ele>
        <time>2019-11-21T21:57:59Z</time>
      </trkpt>
      <trkpt lat="42.90875204" lon="-1.82930341">
        <ele>501.59766</ele>
        <time>2019-11-21T21:58:00Z</time>
      </trkpt>
      <trkpt lat="42.90852929" lon="-1.82907277">
        <ele>502.28088</ele>
        <time>2019-11-21T21:58:01Z</time>
      </trkpt>
      <trkpt lat="42.90829958" lon="-1.82884672">
        <ele>503.52606</ele>
        <time>2019-11-21T21:58:02Z</time>
      </trkpt>
      <trkpt lat="42.90806693" lon="-1.82863012">
        <ele>498.0786</ele>
        <time>2019-11-21T21:58:03Z</time>
      </trkpt>
      <trkpt lat="42.90783301" lon="-1.82842874">
        <ele>500.57324</ele>
        <time>2019-11-21T21:58:05Z</time>
      </trkpt>
      <trkpt lat="42.90760277" lon="-1.82822263">
        <ele>502.80627</ele>
        <time>2019-11-21T21:58:06Z</time>
      </trkpt>
      <trkpt lat="42.90736822" lon="-1.82801425">
        <ele>503.94165</ele>
        <time>2019-11-21T21:58:07Z</time>
      </trkpt>
      <trkpt lat="42.90713917" lon="-1.82779452">
        <ele>505.2832</ele>
        <time>2019-11-21T21:58:08Z</time>
      </trkpt>
      <trkpt lat="42.90691175" lon="-1.82756032">
        <ele>507.02148</ele>
        <time>2019-11-21T21:58:09Z</time>
      </trkpt>
      <trkpt lat="42.9066932" lon="-1.82731213">
        <ele>508.02307</ele>
        <time>2019-11-21T21:58:10Z</time>
      </trkpt>
      <trkpt lat="42.90647762" lon="-1.82706027">
        <ele>509.38367</ele>
        <time>2019-11-21T21:58:11Z</time>
      </trkpt>
      <trkpt lat="42.90627287" lon="-1.82680667">
        <ele>509.80878</ele>
        <time>2019-11-21T21:58:12Z</time>
      </trkpt>
      <trkpt lat="42.90607512" lon="-1.82652647">
        <ele>511.21338</ele>
        <time>2019-11-21T21:58:13Z</time>
      </trkpt>
      <trkpt lat="42.90587917" lon="-1.82624922">
        <ele>512.3197</ele>
        <time>2019-11-21T21:58:14Z</time>
      </trkpt>
      <trkpt lat="42.90568942" lon="-1.82596592">
        <ele>513.73956</ele>
        <time>2019-11-21T21:58:15Z</time>
      </trkpt>
      <trkpt lat="42.90551039" lon="-1.82566333">
        <ele>514.85895</ele>
        <time>2019-11-21T21:58:16Z</time>
      </trkpt>
      <trkpt lat="42.90533499" lon="-1.82535759">
        <ele>516.1353</ele>
        <time>2019-11-21T21:58:17Z</time>
      </trkpt>
      <trkpt lat="42.90501653" lon="-1.82472425">
        <ele>517.3392</ele>
        <time>2019-11-21T21:58:18Z</time>
      </trkpt>
      <trkpt lat="42.90486428" lon="-1.82440421">
        <ele>518.26416</ele>
        <time>2019-11-21T21:58:19Z</time>
      </trkpt>
      <trkpt lat="42.90471505" lon="-1.82407282">
        <ele>519.4916</ele>
        <time>2019-11-21T21:58:20Z</time>
      </trkpt>
      <trkpt lat="42.90457512" lon="-1.82373858">
        <ele>519.5608</ele>
        <time>2019-11-21T21:58:21Z</time>
      </trkpt>
      <trkpt lat="42.90445432" lon="-1.82339683">
        <ele>519.55365</ele>
        <time>2019-11-21T21:58:22Z</time>
      </trkpt>
      <trkpt lat="42.90433909" lon="-1.8230429">
        <ele>519.5767</ele>
        <time>2019-11-21T21:58:23Z</time>
      </trkpt>
      <trkpt lat="42.90423704" lon="-1.8226923">
        <ele>519.3771</ele>
        <time>2019-11-21T21:58:24Z</time>
      </trkpt>
      <trkpt lat="42.90414589" lon="-1.82232559">
        <ele>519.04816</ele>
        <time>2019-11-21T21:58:25Z</time>
      </trkpt>
      <trkpt lat="42.90405694" lon="-1.82196291">
        <ele>518.75006</ele>
        <time>2019-11-21T21:58:26Z</time>
      </trkpt>
      <trkpt lat="42.90397994" lon="-1.82159265">
        <ele>519.8047</ele>
        <time>2019-11-21T21:58:27Z</time>
      </trkpt>
      <trkpt lat="42.90390308" lon="-1.82121423">
        <ele>519.5269</ele>
        <time>2019-11-21T21:58:28Z</time>
      </trkpt>
      <trkpt lat="42.90383201" lon="-1.82085182">
        <ele>520.3807</ele>
        <time>2019-11-21T21:58:29Z</time>
      </trkpt>
      <trkpt lat="42.90375818" lon="-1.82047832">
        <ele>521.04974</ele>
        <time>2019-11-21T21:58:30Z</time>
      </trkpt>
      <trkpt lat="42.90369124" lon="-1.82011294">
        <ele>521.4564</ele>
        <time>2019-11-21T21:58:31Z</time>
      </trkpt>
      <trkpt lat="42.90361539" lon="-1.81973865">
        <ele>521.4042</ele>
        <time>2019-11-21T21:58:32Z</time>
      </trkpt>
      <trkpt lat="42.90354599" lon="-1.81937174">
        <ele>521.9854</ele>
        <time>2019-11-21T21:58:33Z</time>
      </trkpt>
      <trkpt lat="42.90346998" lon="-1.81900682">
        <ele>522.8856</ele>
        <time>2019-11-21T21:58:34Z</time>
      </trkpt>
      <trkpt lat="42.90339142" lon="-1.81864571">
        <ele>522.98566</ele>
        <time>2019-11-21T21:58:36Z</time>
      </trkpt>
      <trkpt lat="42.90330586" lon="-1.81828026">
        <ele>523.92255</ele>
        <time>2019-11-21T21:58:37Z</time>
      </trkpt>
      <trkpt lat="42.90321867" lon="-1.81792598">
        <ele>524.06506</ele>
        <time>2019-11-21T21:58:38Z</time>
      </trkpt>
      <trkpt lat="42.90312452" lon="-1.81756239">
        <ele>515.8829</ele>
        <time>2019-11-21T21:58:39Z</time>
      </trkpt>
      <trkpt lat="42.90302752" lon="-1.81722601">
        <ele>519.2259</ele>
        <time>2019-11-21T21:58:40Z</time>
      </trkpt>
      <trkpt lat="42.9029218" lon="-1.81685047">
        <ele>519.6199</ele>
        <time>2019-11-21T21:58:41Z</time>
      </trkpt>
      <trkpt lat="42.90279874" lon="-1.81647318">
        <ele>520.5905</ele>
        <time>2019-11-21T21:58:42Z</time>
      </trkpt>
      <trkpt lat="42.90268879" lon="-1.81613102">
        <ele>521.53876</ele>
        <time>2019-11-21T21:58:43Z</time>
      </trkpt>
      <trkpt lat="42.90256834" lon="-1.81578334">
        <ele>523.5161</ele>
        <time>2019-11-21T21:58:44Z</time>
      </trkpt>
      <trkpt lat="42.90244923" lon="-1.81543764">
        <ele>524.94775</ele>
        <time>2019-11-21T21:58:45Z</time>
      </trkpt>
      <trkpt lat="42.90230767" lon="-1.815078">
        <ele>526.4226</ele>
        <time>2019-11-21T21:58:46Z</time>
      </trkpt>
      <trkpt lat="42.90218652" lon="-1.8147392">
        <ele>526.7866</ele>
        <time>2019-11-21T21:58:47Z</time>
      </trkpt>
      <trkpt lat="42.90187386" lon="-1.814081">
        <ele>528.3685</ele>
        <time>2019-11-21T21:58:48Z</time>
      </trkpt>
      <trkpt lat="42.90172478" lon="-1.81374442">
        <ele>530.24255</ele>
        <time>2019-11-21T21:58:49Z</time>
      </trkpt>
      <trkpt lat="42.90157277" lon="-1.81341088">
        <ele>531.3425</ele>
        <time>2019-11-21T21:58:50Z</time>
      </trkpt>
      <trkpt lat="42.90141363" lon="-1.81308925">
        <ele>531.8884</ele>
        <time>2019-11-21T21:58:51Z</time>
      </trkpt>
      <trkpt lat="42.90125739" lon="-1.81276071">
        <ele>532.64453</ele>
        <time>2019-11-21T21:58:52Z</time>
      </trkpt>
      <trkpt lat="42.90109125" lon="-1.81244646">
        <ele>533.83496</ele>
        <time>2019-11-21T21:58:53Z</time>
      </trkpt>
      <trkpt lat="42.90093055" lon="-1.81213431">
        <ele>533.86475</ele>
        <time>2019-11-21T21:58:54Z</time>
      </trkpt>
      <trkpt lat="42.90075863" lon="-1.81181279">
        <ele>533.51245</ele>
        <time>2019-11-21T21:58:55Z</time>
      </trkpt>
      <trkpt lat="42.90058916" lon="-1.81150757">
        <ele>533.5061</ele>
        <time>2019-11-21T21:58:56Z</time>
      </trkpt>
      <trkpt lat="42.90041967" lon="-1.8111981">
        <ele>532.7916</ele>
        <time>2019-11-21T21:58:57Z</time>
      </trkpt>
      <trkpt lat="42.90024317" lon="-1.81088348">
        <ele>533.2938</ele>
        <time>2019-11-21T21:58:58Z</time>
      </trkpt>
      <trkpt lat="42.90006988" lon="-1.81056454">
        <ele>533.1885</ele>
        <time>2019-11-21T21:58:59Z</time>
      </trkpt>
      <trkpt lat="42.89990505" lon="-1.81024924">
        <ele>532.2062</ele>
        <time>2019-11-21T21:59:00Z</time>
      </trkpt>
      <trkpt lat="42.8997556" lon="-1.80994662">
        <ele>530.13806</ele>
        <time>2019-11-21T21:59:01Z</time>
      </trkpt>
      <trkpt lat="42.89959652" lon="-1.80961609">
        <ele>530.34436</ele>
        <time>2019-11-21T21:59:02Z</time>
      </trkpt>
      <trkpt lat="42.89944407" lon="-1.80927818">
        <ele>529.5459</ele>
        <time>2019-11-21T21:59:03Z</time>
      </trkpt>
      <trkpt lat="42.89931652" lon="-1.80896436">
        <ele>528.2919</ele>
        <time>2019-11-21T21:59:05Z</time>
      </trkpt>
      <trkpt lat="42.89917962" lon="-1.80862049">
        <ele>528.07324</ele>
        <time>2019-11-21T21:59:06Z</time>
      </trkpt>
      <trkpt lat="42.89906096" lon="-1.80826962">
        <ele>526.9032</ele>
        <time>2019-11-21T21:59:07Z</time>
      </trkpt>
      <trkpt lat="42.89894697" lon="-1.80790974">
        <ele>526.47095</ele>
        <time>2019-11-21T21:59:08Z</time>
      </trkpt>
      <trkpt lat="42.89883282" lon="-1.80753497">
        <ele>526.38965</ele>
        <time>2019-11-21T21:59:09Z</time>
      </trkpt>
      <trkpt lat="42.89873626" lon="-1.80717171">
        <ele>525.9031</ele>
        <time>2019-11-21T21:59:10Z</time>
      </trkpt>
      <trkpt lat="42.89864611" lon="-1.80680296">
        <ele>525.5292</ele>
        <time>2019-11-21T21:59:11Z</time>
      </trkpt>
      <trkpt lat="42.89857266" lon="-1.8064243">
        <ele>526.9169</ele>
        <time>2019-11-21T21:59:12Z</time>
      </trkpt>
      <trkpt lat="42.89849865" lon="-1.8060467">
        <ele>525.73413</ele>
        <time>2019-11-21T21:59:13Z</time>
      </trkpt>
      <trkpt lat="42.89844078" lon="-1.80567365">
        <ele>524.0509</ele>
        <time>2019-11-21T21:59:14Z</time>
      </trkpt>
      <trkpt lat="42.89840059" lon="-1.80530073">
        <ele>523.44385</ele>
        <time>2019-11-21T21:59:15Z</time>
      </trkpt>
      <trkpt lat="42.89836815" lon="-1.80492389">
        <ele>522.6605</ele>
        <time>2019-11-21T21:59:16Z</time>
      </trkpt>
      <trkpt lat="42.89834232" lon="-1.80418007">
        <ele>522.0111</ele>
        <time>2019-11-21T21:59:17Z</time>
      </trkpt>
      <trkpt lat="42.8983339" lon="-1.803809">
        <ele>522.8901</ele>
        <time>2019-11-21T21:59:18Z</time>
      </trkpt>
      <trkpt lat="42.89833012" lon="-1.80327774">
        <ele>520.30914</ele>
        <time>2019-11-21T21:59:19Z</time>
      </trkpt>
      <trkpt lat="42.89834543" lon="-1.80287307">
        <ele>520.01086</ele>
        <time>2019-11-21T21:59:20Z</time>
      </trkpt>
      <trkpt lat="42.89836475" lon="-1.8024816">
        <ele>518.4683</ele>
        <time>2019-11-21T21:59:21Z</time>
      </trkpt>
      <trkpt lat="42.89841324" lon="-1.80213718">
        <ele>519.2492</ele>
        <time>2019-11-21T21:59:22Z</time>
      </trkpt>
      <trkpt lat="42.89846234" lon="-1.80179919">
        <ele>520.40485</ele>
        <time>2019-11-21T21:59:23Z</time>
      </trkpt>
      <trkpt lat="42.89852706" lon="-1.80143987">
        <ele>520.18317</ele>
        <time>2019-11-21T21:59:24Z</time>
      </trkpt>
      <trkpt lat="42.89859776" lon="-1.80105977">
        <ele>520.4599</ele>
        <time>2019-11-21T21:59:25Z</time>
      </trkpt>
      <trkpt lat="42.89865222" lon="-1.80064736">
        <ele>521.07355</ele>
        <time>2019-11-21T21:59:26Z</time>
      </trkpt>
      <trkpt lat="42.89873626" lon="-1.80025594">
        <ele>520.40344</ele>
        <time>2019-11-21T21:59:27Z</time>
      </trkpt>
      <trkpt lat="42.89882378" lon="-1.7999101">
        <ele>519.63135</ele>
        <time>2019-11-21T21:59:28Z</time>
      </trkpt>
      <trkpt lat="42.89891509" lon="-1.79958488">
        <ele>519.6341</ele>
        <time>2019-11-21T21:59:29Z</time>
      </trkpt>
      <trkpt lat="42.89899941" lon="-1.79919509">
        <ele>519.65955</ele>
        <time>2019-11-21T21:59:30Z</time>
      </trkpt>
      <trkpt lat="42.89909288" lon="-1.79885154">
        <ele>518.56555</ele>
        <time>2019-11-21T21:59:31Z</time>
      </trkpt>
      <trkpt lat="42.89919905" lon="-1.79851941">
        <ele>515.5533</ele>
        <time>2019-11-21T21:59:33Z</time>
      </trkpt>
      <trkpt lat="42.89926343" lon="-1.79815071">
        <ele>515.58405</ele>
        <time>2019-11-21T21:59:34Z</time>
      </trkpt>
      <trkpt lat="42.89931724" lon="-1.79777534">
        <ele>515.565</ele>
        <time>2019-11-21T21:59:35Z</time>
      </trkpt>
      <trkpt lat="42.89936679" lon="-1.79740419">
        <ele>515.18884</ele>
        <time>2019-11-21T21:59:36Z</time>
      </trkpt>
      <trkpt lat="42.89940226" lon="-1.79701454">
        <ele>515.03015</ele>
        <time>2019-11-21T21:59:37Z</time>
      </trkpt>
      <trkpt lat="42.899428" lon="-1.79664051">
        <ele>515.25543</ele>
        <time>2019-11-21T21:59:38Z</time>
      </trkpt>
      <trkpt lat="42.89943903" lon="-1.79627597">
        <ele>514.8389</ele>
        <time>2019-11-21T21:59:39Z</time>
      </trkpt>
      <trkpt lat="42.89943533" lon="-1.79589563">
        <ele>516.00104</ele>
        <time>2019-11-21T21:59:40Z</time>
      </trkpt>
      <trkpt lat="42.89943661" lon="-1.79551162">
        <ele>514.79584</ele>
        <time>2019-11-21T21:59:41Z</time>
      </trkpt>
      <trkpt lat="42.89941896" lon="-1.79512723">
        <ele>515.44525</ele>
        <time>2019-11-21T21:59:42Z</time>
      </trkpt>
      <trkpt lat="42.89939293" lon="-1.7947479">
        <ele>517.80396</ele>
        <time>2019-11-21T21:59:43Z</time>
      </trkpt>
      <trkpt lat="42.89935189" lon="-1.79436802">
        <ele>519.7369</ele>
        <time>2019-11-21T21:59:44Z</time>
      </trkpt>
      <trkpt lat="42.89921348" lon="-1.79364153">
        <ele>520.57477</ele>
        <time>2019-11-21T21:59:45Z</time>
      </trkpt>
      <trkpt lat="42.89912723" lon="-1.79326633">
        <ele>522.16</ele>
        <time>2019-11-21T21:59:46Z</time>
      </trkpt>
      <trkpt lat="42.89903849" lon="-1.79291183">
        <ele>522.4206</ele>
        <time>2019-11-21T21:59:47Z</time>
      </trkpt>
      <trkpt lat="42.89893183" lon="-1.7925548">
        <ele>521.8598</ele>
        <time>2019-11-21T21:59:48Z</time>
      </trkpt>
      <trkpt lat="42.89881237" lon="-1.79220725">
        <ele>523.0142</ele>
        <time>2019-11-21T21:59:49Z</time>
      </trkpt>
      <trkpt lat="42.89869583" lon="-1.7918701">
        <ele>524.5637</ele>
        <time>2019-11-21T21:59:50Z</time>
      </trkpt>
      <trkpt lat="42.89856043" lon="-1.79152738">
        <ele>525.8612</ele>
        <time>2019-11-21T21:59:51Z</time>
      </trkpt>
      <trkpt lat="42.89840635" lon="-1.79119306">
        <ele>526.636</ele>
        <time>2019-11-21T21:59:52Z</time>
      </trkpt>
      <trkpt lat="42.89825353" lon="-1.79086629">
        <ele>528.5149</ele>
        <time>2019-11-21T21:59:53Z</time>
      </trkpt>
      <trkpt lat="42.89808822" lon="-1.7905454">
        <ele>529.3887</ele>
        <time>2019-11-21T21:59:54Z</time>
      </trkpt>
      <trkpt lat="42.89791443" lon="-1.79022944">
        <ele>530.57715</ele>
        <time>2019-11-21T21:59:55Z</time>
      </trkpt>
      <trkpt lat="42.89773412" lon="-1.78993663">
        <ele>531.5586</ele>
        <time>2019-11-21T21:59:56Z</time>
      </trkpt>
      <trkpt lat="42.89754398" lon="-1.78964745">
        <ele>532.21533</ele>
        <time>2019-11-21T21:59:57Z</time>
      </trkpt>
      <trkpt lat="42.89734408" lon="-1.78936808">
        <ele>534.28394</ele>
        <time>2019-11-21T21:59:58Z</time>
      </trkpt>
      <trkpt lat="42.89713661" lon="-1.78910519">
        <ele>535.1123</ele>
        <time>2019-11-21T22:00:00Z</time>
      </trkpt>
      <trkpt lat="42.89691437" lon="-1.78885511">
        <ele>537.0034</ele>
        <time>2019-11-21T22:00:01Z</time>
      </trkpt>
      <trkpt lat="42.89669308" lon="-1.78860874">
        <ele>538.15454</ele>
        <time>2019-11-21T22:00:02Z</time>
      </trkpt>
      <trkpt lat="42.89646844" lon="-1.78838177">
        <ele>538.82495</ele>
        <time>2019-11-21T22:00:03Z</time>
      </trkpt>
      <trkpt lat="42.8962364" lon="-1.78816053">
        <ele>540.0537</ele>
        <time>2019-11-21T22:00:04Z</time>
      </trkpt>
      <trkpt lat="42.89599635" lon="-1.78794928">
        <ele>541.44336</ele>
        <time>2019-11-21T22:00:05Z</time>
      </trkpt>
      <trkpt lat="42.89575953" lon="-1.78773385">
        <ele>541.8806</ele>
        <time>2019-11-21T22:00:06Z</time>
      </trkpt>
      <trkpt lat="42.89551819" lon="-1.78751584">
        <ele>543.56116</ele>
        <time>2019-11-21T22:00:07Z</time>
      </trkpt>
      <trkpt lat="42.89528516" lon="-1.78729207">
        <ele>544.77466</ele>
        <time>2019-11-21T22:00:08Z</time>
      </trkpt>
      <trkpt lat="42.89505614" lon="-1.78706722">
        <ele>545.5547</ele>
        <time>2019-11-21T22:00:09Z</time>
      </trkpt>
      <trkpt lat="42.89483234" lon="-1.78682991">
        <ele>547.083</ele>
        <time>2019-11-21T22:00:10Z</time>
      </trkpt>
      <trkpt lat="42.89460741" lon="-1.7865736">
        <ele>548.47485</ele>
        <time>2019-11-21T22:00:11Z</time>
      </trkpt>
      <trkpt lat="42.89418937" lon="-1.78603169">
        <ele>552.36646</ele>
        <time>2019-11-21T22:00:12Z</time>
      </trkpt>
      <trkpt lat="42.89398856" lon="-1.78574853">
        <ele>552.6301</ele>
        <time>2019-11-21T22:00:13Z</time>
      </trkpt>
      <trkpt lat="42.89379511" lon="-1.78546276">
        <ele>554.26025</ele>
        <time>2019-11-21T22:00:14Z</time>
      </trkpt>
      <trkpt lat="42.89360665" lon="-1.78516323">
        <ele>554.6979</ele>
        <time>2019-11-21T22:00:15Z</time>
      </trkpt>
      <trkpt lat="42.89342257" lon="-1.78484424">
        <ele>556.41016</ele>
        <time>2019-11-21T22:00:16Z</time>
      </trkpt>
      <trkpt lat="42.89325334" lon="-1.7845322">
        <ele>556.60364</ele>
        <time>2019-11-21T22:00:17Z</time>
      </trkpt>
      <trkpt lat="42.89308022" lon="-1.78421756">
        <ele>557.65393</ele>
        <time>2019-11-21T22:00:18Z</time>
      </trkpt>
      <trkpt lat="42.8929113" lon="-1.7838979">
        <ele>557.7263</ele>
        <time>2019-11-21T22:00:19Z</time>
      </trkpt>
      <trkpt lat="42.89274319" lon="-1.78356062">
        <ele>558.8093</ele>
        <time>2019-11-21T22:00:20Z</time>
      </trkpt>
      <trkpt lat="42.89258572" lon="-1.78322908">
        <ele>558.5476</ele>
        <time>2019-11-21T22:00:21Z</time>
      </trkpt>
      <trkpt lat="42.89244562" lon="-1.78288824">
        <ele>559.20337</ele>
        <time>2019-11-21T22:00:22Z</time>
      </trkpt>
      <trkpt lat="42.89230752" lon="-1.78253519">
        <ele>560.0486</ele>
        <time>2019-11-21T22:00:23Z</time>
      </trkpt>
      <trkpt lat="42.89217495" lon="-1.78219183">
        <ele>561.02954</ele>
        <time>2019-11-21T22:00:24Z</time>
      </trkpt>
      <trkpt lat="42.8920411" lon="-1.78184097">
        <ele>562.2506</ele>
        <time>2019-11-21T22:00:25Z</time>
      </trkpt>
      <trkpt lat="42.89192009" lon="-1.78148538">
        <ele>562.40125</ele>
        <time>2019-11-21T22:00:26Z</time>
      </trkpt>
      <trkpt lat="42.89179428" lon="-1.78112464">
        <ele>563.6981</ele>
        <time>2019-11-21T22:00:27Z</time>
      </trkpt>
      <trkpt lat="42.89167861" lon="-1.78076345">
        <ele>564.5414</ele>
        <time>2019-11-21T22:00:28Z</time>
      </trkpt>
      <trkpt lat="42.8915674" lon="-1.78038411">
        <ele>565.8048</ele>
        <time>2019-11-21T22:00:30Z</time>
      </trkpt>
      <trkpt lat="42.89147438" lon="-1.78001008">
        <ele>566.4719</ele>
        <time>2019-11-21T22:00:31Z</time>
      </trkpt>
      <trkpt lat="42.89139054" lon="-1.77962418">
        <ele>567.84985</ele>
        <time>2019-11-21T22:00:32Z</time>
      </trkpt>
      <trkpt lat="42.89131692" lon="-1.77923976">
        <ele>568.77954</ele>
        <time>2019-11-21T22:00:33Z</time>
      </trkpt>
      <trkpt lat="42.89124701" lon="-1.7788483">
        <ele>569.0182</ele>
        <time>2019-11-21T22:00:34Z</time>
      </trkpt>
      <trkpt lat="42.89119624" lon="-1.77846413">
        <ele>569.4431</ele>
        <time>2019-11-21T22:00:35Z</time>
      </trkpt>
      <trkpt lat="42.89115495" lon="-1.77807355">
        <ele>569.8341</ele>
        <time>2019-11-21T22:00:36Z</time>
      </trkpt>
      <trkpt lat="42.89111371" lon="-1.77768205">
        <ele>570.53845</ele>
        <time>2019-11-21T22:00:37Z</time>
      </trkpt>
      <trkpt lat="42.89107262" lon="-1.77727827">
        <ele>570.52026</ele>
        <time>2019-11-21T22:00:38Z</time>
      </trkpt>
      <trkpt lat="42.89103215" lon="-1.77688301">
        <ele>571.02</ele>
        <time>2019-11-21T22:00:39Z</time>
      </trkpt>
      <trkpt lat="42.8909887" lon="-1.77649575">
        <ele>571.34753</ele>
        <time>2019-11-21T22:00:40Z</time>
      </trkpt>
      <trkpt lat="42.89093988" lon="-1.77610755">
        <ele>570.7517</ele>
        <time>2019-11-21T22:00:41Z</time>
      </trkpt>
      <trkpt lat="42.89082762" lon="-1.7753176">
        <ele>569.76917</ele>
        <time>2019-11-21T22:00:42Z</time>
      </trkpt>
      <trkpt lat="42.89075087" lon="-1.77493037">
        <ele>570.0834</ele>
        <time>2019-11-21T22:00:43Z</time>
      </trkpt>
      <trkpt lat="42.89067043" lon="-1.77455563">
        <ele>570.63257</ele>
        <time>2019-11-21T22:00:44Z</time>
      </trkpt>
      <trkpt lat="42.89057935" lon="-1.77416877">
        <ele>556.952</ele>
        <time>2019-11-21T22:00:45Z</time>
      </trkpt>
      <trkpt lat="42.89049341" lon="-1.77379905">
        <ele>560.6538</ele>
        <time>2019-11-21T22:00:46Z</time>
      </trkpt>
      <trkpt lat="42.89039387" lon="-1.77344006">
        <ele>563.9724</ele>
        <time>2019-11-21T22:00:47Z</time>
      </trkpt>
      <trkpt lat="42.89027882" lon="-1.7730761">
        <ele>566.70825</ele>
        <time>2019-11-21T22:00:48Z</time>
      </trkpt>
      <trkpt lat="42.89016118" lon="-1.77273463">
        <ele>565.6996</ele>
        <time>2019-11-21T22:00:49Z</time>
      </trkpt>
      <trkpt lat="42.8900273" lon="-1.77238206">
        <ele>567.7012</ele>
        <time>2019-11-21T22:00:50Z</time>
      </trkpt>
      <trkpt lat="42.88989139" lon="-1.77204005">
        <ele>568.053</ele>
        <time>2019-11-21T22:00:51Z</time>
      </trkpt>
      <trkpt lat="42.88974483" lon="-1.77169807">
        <ele>567.7649</ele>
        <time>2019-11-21T22:00:52Z</time>
      </trkpt>
      <trkpt lat="42.88958598" lon="-1.77135233">
        <ele>568.1594</ele>
        <time>2019-11-21T22:00:53Z</time>
      </trkpt>
      <trkpt lat="42.88942115" lon="-1.77102412">
        <ele>567.9844</ele>
        <time>2019-11-21T22:00:54Z</time>
      </trkpt>
      <trkpt lat="42.88923188" lon="-1.77067162">
        <ele>567.2124</ele>
        <time>2019-11-21T22:00:55Z</time>
      </trkpt>
      <trkpt lat="42.88904219" lon="-1.77034684">
        <ele>567.0027</ele>
        <time>2019-11-21T22:00:56Z</time>
      </trkpt>
      <trkpt lat="42.88884679" lon="-1.77003181">
        <ele>565.62866</ele>
        <time>2019-11-21T22:00:57Z</time>
      </trkpt>
      <trkpt lat="42.88864194" lon="-1.76971766">
        <ele>565.93286</ele>
        <time>2019-11-21T22:00:58Z</time>
      </trkpt>
      <trkpt lat="42.88843609" lon="-1.76943479">
        <ele>564.6576</ele>
        <time>2019-11-21T22:00:59Z</time>
      </trkpt>
      <trkpt lat="42.88821194" lon="-1.76913774">
        <ele>563.8008</ele>
        <time>2019-11-21T22:01:01Z</time>
      </trkpt>
      <trkpt lat="42.88798445" lon="-1.76885311">
        <ele>563.20386</ele>
        <time>2019-11-21T22:01:02Z</time>
      </trkpt>
      <trkpt lat="42.88775168" lon="-1.76860061">
        <ele>562.3262</ele>
        <time>2019-11-21T22:01:03Z</time>
      </trkpt>
      <trkpt lat="42.88750472" lon="-1.7683551">
        <ele>561.9265</ele>
        <time>2019-11-21T22:01:04Z</time>
      </trkpt>
      <trkpt lat="42.88725032" lon="-1.76811057">
        <ele>560.9729</ele>
        <time>2019-11-21T22:01:05Z</time>
      </trkpt>
      <trkpt lat="42.88699929" lon="-1.76789873">
        <ele>559.9629</ele>
        <time>2019-11-21T22:01:06Z</time>
      </trkpt>
      <trkpt lat="42.88673041" lon="-1.76769459">
        <ele>559.9851</ele>
        <time>2019-11-21T22:01:07Z</time>
      </trkpt>
      <trkpt lat="42.88645317" lon="-1.7675057">
        <ele>560.2438</ele>
        <time>2019-11-21T22:01:08Z</time>
      </trkpt>
      <trkpt lat="42.88618931" lon="-1.76733624">
        <ele>560.3286</ele>
        <time>2019-11-21T22:01:09Z</time>
      </trkpt>
      <trkpt lat="42.88591395" lon="-1.76717803">
        <ele>559.7927</ele>
        <time>2019-11-21T22:01:10Z</time>
      </trkpt>
      <trkpt lat="42.88562771" lon="-1.76705019">
        <ele>558.923</ele>
        <time>2019-11-21T22:01:11Z</time>
      </trkpt>
      <trkpt lat="42.88534108" lon="-1.76692473">
        <ele>557.98157</ele>
        <time>2019-11-21T22:01:12Z</time>
      </trkpt>
      <trkpt lat="42.88475112" lon="-1.76667328">
        <ele>556.86804</ele>
        <time>2019-11-21T22:01:13Z</time>
      </trkpt>
      <trkpt lat="42.88446619" lon="-1.76655116">
        <ele>555.3115</ele>
        <time>2019-11-21T22:01:14Z</time>
      </trkpt>
      <trkpt lat="42.88416443" lon="-1.76640782">
        <ele>554.6931</ele>
        <time>2019-11-21T22:01:15Z</time>
      </trkpt>
      <trkpt lat="42.88387244" lon="-1.76624022">
        <ele>554.6111</ele>
        <time>2019-11-21T22:01:16Z</time>
      </trkpt>
      <trkpt lat="42.88359093" lon="-1.7660554">
        <ele>553.1655</ele>
        <time>2019-11-21T22:01:17Z</time>
      </trkpt>
      <trkpt lat="42.88330876" lon="-1.76585783">
        <ele>552.44165</ele>
        <time>2019-11-21T22:01:18Z</time>
      </trkpt>
      <trkpt lat="42.8830415" lon="-1.76565298">
        <ele>551.6504</ele>
        <time>2019-11-21T22:01:19Z</time>
      </trkpt>
      <trkpt lat="42.88278" lon="-1.76543581">
        <ele>557.3872</ele>
        <time>2019-11-21T22:01:20Z</time>
      </trkpt>
      <trkpt lat="42.88253072" lon="-1.76520982">
        <ele>554.7019</ele>
        <time>2019-11-21T22:01:21Z</time>
      </trkpt>
      <trkpt lat="42.882282" lon="-1.76497319">
        <ele>553.2285</ele>
        <time>2019-11-21T22:01:22Z</time>
      </trkpt>
      <trkpt lat="42.88204002" lon="-1.76471185">
        <ele>552.16895</ele>
        <time>2019-11-21T22:01:23Z</time>
      </trkpt>
      <trkpt lat="42.88182832" lon="-1.76444413">
        <ele>551.0945</ele>
        <time>2019-11-21T22:01:24Z</time>
      </trkpt>
      <trkpt lat="42.88162169" lon="-1.76417132">
        <ele>548.5845</ele>
        <time>2019-11-21T22:01:25Z</time>
      </trkpt>
      <trkpt lat="42.8814152" lon="-1.76388259">
        <ele>547.0115</ele>
        <time>2019-11-21T22:01:26Z</time>
      </trkpt>
      <trkpt lat="42.88121222" lon="-1.76358002">
        <ele>546.33203</ele>
        <time>2019-11-21T22:01:27Z</time>
      </trkpt>
      <trkpt lat="42.88102386" lon="-1.76328139">
        <ele>545.6267</ele>
        <time>2019-11-21T22:01:28Z</time>
      </trkpt>
      <trkpt lat="42.88083837" lon="-1.76295961">
        <ele>545.08984</ele>
        <time>2019-11-21T22:01:30Z</time>
      </trkpt>
      <trkpt lat="42.88066651" lon="-1.76265632">
        <ele>543.05054</ele>
        <time>2019-11-21T22:01:31Z</time>
      </trkpt>
      <trkpt lat="42.88048296" lon="-1.76234413">
        <ele>542.48425</ele>
        <time>2019-11-21T22:01:32Z</time>
      </trkpt>
      <trkpt lat="42.88030354" lon="-1.76202816">
        <ele>541.62305</ele>
        <time>2019-11-21T22:01:33Z</time>
      </trkpt>
      <trkpt lat="42.8801197" lon="-1.76172569">
        <ele>540.5343</ele>
        <time>2019-11-21T22:01:34Z</time>
      </trkpt>
      <trkpt lat="42.87993721" lon="-1.76143152">
        <ele>539.2108</ele>
        <time>2019-11-21T22:01:35Z</time>
      </trkpt>
      <trkpt lat="42.87974311" lon="-1.76113708">
        <ele>538.4756</ele>
        <time>2019-11-21T22:01:36Z</time>
      </trkpt>
      <trkpt lat="42.87953838" lon="-1.76084342">
        <ele>537.7412</ele>
        <time>2019-11-21T22:01:37Z</time>
      </trkpt>
      <trkpt lat="42.87932953" lon="-1.76056773">
        <ele>537.81445</ele>
        <time>2019-11-21T22:01:38Z</time>
      </trkpt>
      <trkpt lat="42.87911655" lon="-1.76030522">
        <ele>538.3799</ele>
        <time>2019-11-21T22:01:39Z</time>
      </trkpt>
      <trkpt lat="42.87890171" lon="-1.76007606">
        <ele>536.81335</ele>
        <time>2019-11-21T22:01:40Z</time>
      </trkpt>
      <trkpt lat="42.87867762" lon="-1.75985361">
        <ele>536.6311</ele>
        <time>2019-11-21T22:01:41Z</time>
      </trkpt>
      <trkpt lat="42.87844199" lon="-1.75964177">
        <ele>536.3811</ele>
        <time>2019-11-21T22:01:42Z</time>
      </trkpt>
      <trkpt lat="42.87795541" lon="-1.75924816">
        <ele>535.72864</ele>
        <time>2019-11-21T22:01:43Z</time>
      </trkpt>
      <trkpt lat="42.87770618" lon="-1.75906323">
        <ele>536.29565</ele>
        <time>2019-11-21T22:01:44Z</time>
      </trkpt>
      <trkpt lat="42.87744762" lon="-1.75887576">
        <ele>536.1216</ele>
        <time>2019-11-21T22:01:45Z</time>
      </trkpt>
      <trkpt lat="42.8771926" lon="-1.75868338">
        <ele>536.4983</ele>
        <time>2019-11-21T22:01:46Z</time>
      </trkpt>
      <trkpt lat="42.87693564" lon="-1.75849113">
        <ele>537.2905</ele>
        <time>2019-11-21T22:01:47Z</time>
      </trkpt>
      <trkpt lat="42.87667882" lon="-1.75828896">
        <ele>537.89685</ele>
        <time>2019-11-21T22:01:48Z</time>
      </trkpt>
      <trkpt lat="42.87642738" lon="-1.75807356">
        <ele>536.8065</ele>
        <time>2019-11-21T22:01:49Z</time>
      </trkpt>
      <trkpt lat="42.87618817" lon="-1.75783619">
        <ele>536.2727</ele>
        <time>2019-11-21T22:01:50Z</time>
      </trkpt>
      <trkpt lat="42.87594789" lon="-1.7575942">
        <ele>536.057</ele>
        <time>2019-11-21T22:01:51Z</time>
      </trkpt>
      <trkpt lat="42.87572085" lon="-1.75734896">
        <ele>534.7029</ele>
        <time>2019-11-21T22:01:52Z</time>
      </trkpt>
      <trkpt lat="42.8755028" lon="-1.75707612">
        <ele>535.0574</ele>
        <time>2019-11-21T22:01:53Z</time>
      </trkpt>
      <trkpt lat="42.87529828" lon="-1.75680356">
        <ele>535.312</ele>
        <time>2019-11-21T22:01:54Z</time>
      </trkpt>
      <trkpt lat="42.8750909" lon="-1.75651355">
        <ele>535.1643</ele>
        <time>2019-11-21T22:01:55Z</time>
      </trkpt>
      <trkpt lat="42.87490336" lon="-1.75621717">
        <ele>534.4094</ele>
        <time>2019-11-21T22:01:56Z</time>
      </trkpt>
      <trkpt lat="42.87471556" lon="-1.75591209">
        <ele>533.469</ele>
        <time>2019-11-21T22:01:57Z</time>
      </trkpt>
      <trkpt lat="42.87453709" lon="-1.75559818">
        <ele>533.04663</ele>
        <time>2019-11-21T22:01:58Z</time>
      </trkpt>
      <trkpt lat="42.87435413" lon="-1.75528756">
        <ele>531.91724</ele>
        <time>2019-11-21T22:02:00Z</time>
      </trkpt>
      <trkpt lat="42.8741773" lon="-1.75496643">
        <ele>531.2842</ele>
        <time>2019-11-21T22:02:01Z</time>
      </trkpt>
      <trkpt lat="42.87399858" lon="-1.754659">
        <ele>530.39</ele>
        <time>2019-11-21T22:02:02Z</time>
      </trkpt>
      <trkpt lat="42.87381898" lon="-1.75433843">
        <ele>529.59705</ele>
        <time>2019-11-21T22:02:03Z</time>
      </trkpt>
      <trkpt lat="42.87364419" lon="-1.7540319">
        <ele>528.76416</ele>
        <time>2019-11-21T22:02:04Z</time>
      </trkpt>
      <trkpt lat="42.87346428" lon="-1.75373448">
        <ele>528.0376</ele>
        <time>2019-11-21T22:02:05Z</time>
      </trkpt>
      <trkpt lat="42.87327417" lon="-1.75344557">
        <ele>527.2394</ele>
        <time>2019-11-21T22:02:06Z</time>
      </trkpt>
      <trkpt lat="42.87308299" lon="-1.75316547">
        <ele>526.0508</ele>
        <time>2019-11-21T22:02:07Z</time>
      </trkpt>
      <trkpt lat="42.87289266" lon="-1.752887">
        <ele>524.31104</ele>
        <time>2019-11-21T22:02:08Z</time>
      </trkpt>
      <trkpt lat="42.87269694" lon="-1.75261876">
        <ele>523.97687</ele>
        <time>2019-11-21T22:02:09Z</time>
      </trkpt>
      <trkpt lat="42.87250393" lon="-1.75234955">
        <ele>523.4891</ele>
        <time>2019-11-21T22:02:10Z</time>
      </trkpt>
      <trkpt lat="42.87230777" lon="-1.75208957">
        <ele>522.68774</ele>
        <time>2019-11-21T22:02:11Z</time>
      </trkpt>
      <trkpt lat="42.87211208" lon="-1.75184315">
        <ele>521.9354</ele>
        <time>2019-11-21T22:02:12Z</time>
      </trkpt>
      <trkpt lat="42.87191388" lon="-1.75162413">
        <ele>521.70996</ele>
        <time>2019-11-21T22:02:13Z</time>
      </trkpt>
      <trkpt lat="42.87153036" lon="-1.75118594">
        <ele>520.8423</ele>
        <time>2019-11-21T22:02:14Z</time>
      </trkpt>
      <trkpt lat="42.87133254" lon="-1.75097678">
        <ele>521.02795</ele>
        <time>2019-11-21T22:02:15Z</time>
      </trkpt>
      <trkpt lat="42.87113618" lon="-1.75076941">
        <ele>520.7208</ele>
        <time>2019-11-21T22:02:16Z</time>
      </trkpt>
      <trkpt lat="42.87094913" lon="-1.75057544">
        <ele>520.22064</ele>
        <time>2019-11-21T22:02:17Z</time>
      </trkpt>
      <trkpt lat="42.87075906" lon="-1.75039876">
        <ele>520.5084</ele>
        <time>2019-11-21T22:02:18Z</time>
      </trkpt>
      <trkpt lat="42.87056519" lon="-1.75022965">
        <ele>520.13135</ele>
        <time>2019-11-21T22:02:19Z</time>
      </trkpt>
      <trkpt lat="42.87036582" lon="-1.75006809">
        <ele>519.6948</ele>
        <time>2019-11-21T22:02:20Z</time>
      </trkpt>
      <trkpt lat="42.87018239" lon="-1.74993411">
        <ele>519.2703</ele>
        <time>2019-11-21T22:02:21Z</time>
      </trkpt>
      <trkpt lat="42.86998023" lon="-1.74978959">
        <ele>517.8652</ele>
        <time>2019-11-21T22:02:22Z</time>
      </trkpt>
      <trkpt lat="42.86977827" lon="-1.74967082">
        <ele>516.2828</ele>
        <time>2019-11-21T22:02:23Z</time>
      </trkpt>
      <trkpt lat="42.86957297" lon="-1.74956931">
        <ele>515.3826</ele>
        <time>2019-11-21T22:02:24Z</time>
      </trkpt>
      <trkpt lat="42.86937602" lon="-1.74946983">
        <ele>514.28455</ele>
        <time>2019-11-21T22:02:25Z</time>
      </trkpt>
      <trkpt lat="42.86917908" lon="-1.74938662">
        <ele>514.7546</ele>
        <time>2019-11-21T22:02:26Z</time>
      </trkpt>
      <trkpt lat="42.86898096" lon="-1.74931125">
        <ele>514.2366</ele>
        <time>2019-11-21T22:02:27Z</time>
      </trkpt>
      <trkpt lat="42.86879565" lon="-1.74923226">
        <ele>512.95135</ele>
        <time>2019-11-21T22:02:29Z</time>
      </trkpt>
      <trkpt lat="42.8686218" lon="-1.74916121">
        <ele>512.84326</ele>
        <time>2019-11-21T22:02:30Z</time>
      </trkpt>
      <trkpt lat="42.86845388" lon="-1.7490951">
        <ele>512.8238</ele>
        <time>2019-11-21T22:02:31Z</time>
      </trkpt>
      <trkpt lat="42.86831386" lon="-1.74904088">
        <ele>512.35846</ele>
        <time>2019-11-21T22:02:32Z</time>
      </trkpt>
      <trkpt lat="42.86809234" lon="-1.74895624">
        <ele>512.9519</ele>
        <time>2019-11-21T22:02:34Z</time>
      </trkpt>
      <trkpt lat="42.86792278" lon="-1.74887989">
        <ele>512.89856</ele>
        <time>2019-11-21T22:02:36Z</time>
      </trkpt>
      <trkpt lat="42.86778336" lon="-1.74881903">
        <ele>513.0694</ele>
        <time>2019-11-21T22:02:38Z</time>
      </trkpt>
      <trkpt lat="42.86764624" lon="-1.7487561">
        <ele>512.5441</ele>
        <time>2019-11-21T22:02:41Z</time>
      </trkpt>
      <trkpt lat="42.86746212" lon="-1.7486778">
        <ele>510.29846</ele>
        <time>2019-11-21T22:03:06Z</time>
      </trkpt>
      <trkpt lat="42.8673262" lon="-1.74860212">
        <ele>511.12085</ele>
        <time>2019-11-21T22:03:08Z</time>
      </trkpt>
      <trkpt lat="42.86705867" lon="-1.7484163">
        <ele>511.20972</ele>
        <time>2019-11-21T22:03:10Z</time>
      </trkpt>
      <trkpt lat="42.86685498" lon="-1.74827488">
        <ele>510.97467</ele>
        <time>2019-11-21T22:03:12Z</time>
      </trkpt>
      <trkpt lat="42.8666345" lon="-1.74812516">
        <ele>510.724</ele>
        <time>2019-11-21T22:03:14Z</time>
      </trkpt>
      <trkpt lat="42.86641696" lon="-1.74797547">
        <ele>511.07343</ele>
        <time>2019-11-21T22:03:16Z</time>
      </trkpt>
      <trkpt lat="42.86629713" lon="-1.7478836">
        <ele>512.5405</ele>
        <time>2019-11-21T22:03:17Z</time>
      </trkpt>
      <trkpt lat="42.86616946" lon="-1.7477967">
        <ele>513.93097</ele>
        <time>2019-11-21T22:03:18Z</time>
      </trkpt>
      <trkpt lat="42.86602591" lon="-1.74770914">
        <ele>514.7743</ele>
        <time>2019-11-21T22:03:19Z</time>
      </trkpt>
      <trkpt lat="42.86587838" lon="-1.74762918">
        <ele>514.97424</ele>
        <time>2019-11-21T22:03:20Z</time>
      </trkpt>
      <trkpt lat="42.86572179" lon="-1.74755458">
        <ele>515.4956</ele>
        <time>2019-11-21T22:03:21Z</time>
      </trkpt>
      <trkpt lat="42.86556082" lon="-1.74748861">
        <ele>515.77765</ele>
        <time>2019-11-21T22:03:22Z</time>
      </trkpt>
      <trkpt lat="42.86537188" lon="-1.74742246">
        <ele>515.18494</ele>
        <time>2019-11-21T22:03:23Z</time>
      </trkpt>
      <trkpt lat="42.86519275" lon="-1.74734694">
        <ele>516.0245</ele>
        <time>2019-11-21T22:03:24Z</time>
      </trkpt>
      <trkpt lat="42.8650082" lon="-1.74728124">
        <ele>516.69354</ele>
        <time>2019-11-21T22:03:25Z</time>
      </trkpt>
      <trkpt lat="42.86481535" lon="-1.74720275">
        <ele>517.96423</ele>
        <time>2019-11-21T22:03:26Z</time>
      </trkpt>
      <trkpt lat="42.86462424" lon="-1.74712034">
        <ele>518.271</ele>
        <time>2019-11-21T22:03:27Z</time>
      </trkpt>
      <trkpt lat="42.86442372" lon="-1.74702055">
        <ele>517.70654</ele>
        <time>2019-11-21T22:03:29Z</time>
      </trkpt>
      <trkpt lat="42.86423561" lon="-1.7469395">
        <ele>518.18964</ele>
        <time>2019-11-21T22:03:30Z</time>
      </trkpt>
      <trkpt lat="42.86402995" lon="-1.74685157">
        <ele>518.94244</ele>
        <time>2019-11-21T22:03:31Z</time>
      </trkpt>
      <trkpt lat="42.86383567" lon="-1.74675431">
        <ele>519.1758</ele>
        <time>2019-11-21T22:03:32Z</time>
      </trkpt>
      <trkpt lat="42.86363129" lon="-1.74665399">
        <ele>519.5034</ele>
        <time>2019-11-21T22:03:33Z</time>
      </trkpt>
      <trkpt lat="42.86342922" lon="-1.7465473">
        <ele>520.09393</ele>
        <time>2019-11-21T22:03:34Z</time>
      </trkpt>
      <trkpt lat="42.86322774" lon="-1.74643487">
        <ele>519.39404</ele>
        <time>2019-11-21T22:03:35Z</time>
      </trkpt>
      <trkpt lat="42.86302354" lon="-1.74632021">
        <ele>518.7574</ele>
        <time>2019-11-21T22:03:36Z</time>
      </trkpt>
      <trkpt lat="42.86281201" lon="-1.74618535">
        <ele>519.203</ele>
        <time>2019-11-21T22:03:37Z</time>
      </trkpt>
      <trkpt lat="42.86261197" lon="-1.74604745">
        <ele>519.37463</ele>
        <time>2019-11-21T22:03:38Z</time>
      </trkpt>
      <trkpt lat="42.86241526" lon="-1.74590913">
        <ele>519.7626</ele>
        <time>2019-11-21T22:03:39Z</time>
      </trkpt>
      <trkpt lat="42.86221538" lon="-1.74576599">
        <ele>520.3177</ele>
        <time>2019-11-21T22:03:40Z</time>
      </trkpt>
      <trkpt lat="42.8618098" lon="-1.74546608">
        <ele>520.2344</ele>
        <time>2019-11-21T22:03:41Z</time>
      </trkpt>
      <trkpt lat="42.86160858" lon="-1.74530372">
        <ele>521.1022</ele>
        <time>2019-11-21T22:03:42Z</time>
      </trkpt>
      <trkpt lat="42.86141042" lon="-1.74512884">
        <ele>520.4894</ele>
        <time>2019-11-21T22:03:43Z</time>
      </trkpt>
      <trkpt lat="42.86120998" lon="-1.74495485">
        <ele>519.82733</ele>
        <time>2019-11-21T22:03:44Z</time>
      </trkpt>
      <trkpt lat="42.86100933" lon="-1.74476929">
        <ele>519.4753</ele>
        <time>2019-11-21T22:03:45Z</time>
      </trkpt>
      <trkpt lat="42.86080689" lon="-1.74457236">
        <ele>519.994</ele>
        <time>2019-11-21T22:03:46Z</time>
      </trkpt>
      <trkpt lat="42.86061358" lon="-1.74437168">
        <ele>519.33704</ele>
        <time>2019-11-21T22:03:47Z</time>
      </trkpt>
      <trkpt lat="42.86041888" lon="-1.74417528">
        <ele>518.2154</ele>
        <time>2019-11-21T22:03:48Z</time>
      </trkpt>
      <trkpt lat="42.86021898" lon="-1.74397008">
        <ele>517.732</ele>
        <time>2019-11-21T22:03:49Z</time>
      </trkpt>
      <trkpt lat="42.8600238" lon="-1.743768">
        <ele>516.587</ele>
        <time>2019-11-21T22:03:50Z</time>
      </trkpt>
      <trkpt lat="42.85983558" lon="-1.74355839">
        <ele>516.06</ele>
        <time>2019-11-21T22:03:51Z</time>
      </trkpt>
      <trkpt lat="42.85964203" lon="-1.74331932">
        <ele>515.244</ele>
        <time>2019-11-21T22:03:52Z</time>
      </trkpt>
      <trkpt lat="42.85944776" lon="-1.7430697">
        <ele>514.5536</ele>
        <time>2019-11-21T22:03:53Z</time>
      </trkpt>
      <trkpt lat="42.85925599" lon="-1.74281736">
        <ele>513.99725</ele>
        <time>2019-11-21T22:03:54Z</time>
      </trkpt>
      <trkpt lat="42.85907021" lon="-1.74257149">
        <ele>514.307</ele>
        <time>2019-11-21T22:03:55Z</time>
      </trkpt>
      <trkpt lat="42.85887984" lon="-1.74230351">
        <ele>512.83984</ele>
        <time>2019-11-21T22:03:56Z</time>
      </trkpt>
      <trkpt lat="42.85868827" lon="-1.74201169">
        <ele>510.87195</ele>
        <time>2019-11-21T22:03:57Z</time>
      </trkpt>
      <trkpt lat="42.85849883" lon="-1.74173117">
        <ele>510.05237</ele>
        <time>2019-11-21T22:03:59Z</time>
      </trkpt>
      <trkpt lat="42.85831338" lon="-1.74144037">
        <ele>509.0561</ele>
        <time>2019-11-21T22:04:00Z</time>
      </trkpt>
      <trkpt lat="42.85813573" lon="-1.74114736">
        <ele>508.24292</ele>
        <time>2019-11-21T22:04:01Z</time>
      </trkpt>
      <trkpt lat="42.85796058" lon="-1.74084546">
        <ele>506.6958</ele>
        <time>2019-11-21T22:04:02Z</time>
      </trkpt>
      <trkpt lat="42.85779207" lon="-1.74053667">
        <ele>505.58356</ele>
        <time>2019-11-21T22:04:03Z</time>
      </trkpt>
      <trkpt lat="42.85762992" lon="-1.74022504">
        <ele>504.1438</ele>
        <time>2019-11-21T22:04:04Z</time>
      </trkpt>
      <trkpt lat="42.85747429" lon="-1.73989596">
        <ele>503.55408</ele>
        <time>2019-11-21T22:04:05Z</time>
      </trkpt>
      <trkpt lat="42.85732709" lon="-1.73957013">
        <ele>506.63818</ele>
        <time>2019-11-21T22:04:06Z</time>
      </trkpt>
      <trkpt lat="42.85718656" lon="-1.73923221">
        <ele>504.04395</ele>
        <time>2019-11-21T22:04:07Z</time>
      </trkpt>
      <trkpt lat="42.85704833" lon="-1.73888703">
        <ele>502.40845</ele>
        <time>2019-11-21T22:04:08Z</time>
      </trkpt>
      <trkpt lat="42.85692518" lon="-1.73853385">
        <ele>502.1601</ele>
        <time>2019-11-21T22:04:09Z</time>
      </trkpt>
      <trkpt lat="42.85679812" lon="-1.73816931">
        <ele>502.6953</ele>
        <time>2019-11-21T22:04:10Z</time>
      </trkpt>
      <trkpt lat="42.85659322" lon="-1.73745741">
        <ele>501.24878</ele>
        <time>2019-11-21T22:04:11Z</time>
      </trkpt>
      <trkpt lat="42.8565038" lon="-1.73709138">
        <ele>500.2707</ele>
        <time>2019-11-21T22:04:12Z</time>
      </trkpt>
      <trkpt lat="42.85642243" lon="-1.73672834">
        <ele>498.34216</ele>
        <time>2019-11-21T22:04:13Z</time>
      </trkpt>
      <trkpt lat="42.85635308" lon="-1.73635795">
        <ele>496.85632</ele>
        <time>2019-11-21T22:04:14Z</time>
      </trkpt>
      <trkpt lat="42.85628498" lon="-1.73597217">
        <ele>501.86328</ele>
        <time>2019-11-21T22:04:15Z</time>
      </trkpt>
      <trkpt lat="42.85622742" lon="-1.73560394">
        <ele>498.75317</ele>
        <time>2019-11-21T22:04:16Z</time>
      </trkpt>
      <trkpt lat="42.85617747" lon="-1.73522148">
        <ele>497.02948</ele>
        <time>2019-11-21T22:04:17Z</time>
      </trkpt>
      <trkpt lat="42.85613975" lon="-1.73483676">
        <ele>494.96606</ele>
        <time>2019-11-21T22:04:18Z</time>
      </trkpt>
      <trkpt lat="42.85610532" lon="-1.73445362">
        <ele>494.68573</ele>
        <time>2019-11-21T22:04:19Z</time>
      </trkpt>
      <trkpt lat="42.8560753" lon="-1.73406579">
        <ele>494.40576</ele>
        <time>2019-11-21T22:04:20Z</time>
      </trkpt>
      <trkpt lat="42.85605558" lon="-1.73368259">
        <ele>493.25775</ele>
        <time>2019-11-21T22:04:21Z</time>
      </trkpt>
      <trkpt lat="42.85603662" lon="-1.7332964">
        <ele>491.91626</ele>
        <time>2019-11-21T22:04:22Z</time>
      </trkpt>
      <trkpt lat="42.85602138" lon="-1.73292334">
        <ele>490.2234</ele>
        <time>2019-11-21T22:04:23Z</time>
      </trkpt>
      <trkpt lat="42.85599552" lon="-1.73253358">
        <ele>489.47913</ele>
        <time>2019-11-21T22:04:24Z</time>
      </trkpt>
      <trkpt lat="42.85596818" lon="-1.73215007">
        <ele>488.6068</ele>
        <time>2019-11-21T22:04:25Z</time>
      </trkpt>
      <trkpt lat="42.85593523" lon="-1.73177708">
        <ele>488.0099</ele>
        <time>2019-11-21T22:04:26Z</time>
      </trkpt>
      <trkpt lat="42.85589903" lon="-1.73139214">
        <ele>487.3922</ele>
        <time>2019-11-21T22:04:28Z</time>
      </trkpt>
      <trkpt lat="42.85586914" lon="-1.73102574">
        <ele>486.19897</ele>
        <time>2019-11-21T22:04:29Z</time>
      </trkpt>
      <trkpt lat="42.85582537" lon="-1.73064386">
        <ele>485.6671</ele>
        <time>2019-11-21T22:04:30Z</time>
      </trkpt>
      <trkpt lat="42.85576533" lon="-1.73026468">
        <ele>485.34106</ele>
        <time>2019-11-21T22:04:31Z</time>
      </trkpt>
      <trkpt lat="42.8556989" lon="-1.72986837">
        <ele>484.68835</ele>
        <time>2019-11-21T22:04:32Z</time>
      </trkpt>
      <trkpt lat="42.85564037" lon="-1.729504">
        <ele>483.67334</ele>
        <time>2019-11-21T22:04:33Z</time>
      </trkpt>
      <trkpt lat="42.85557626" lon="-1.72912769">
        <ele>483.0614</ele>
        <time>2019-11-21T22:04:34Z</time>
      </trkpt>
      <trkpt lat="42.85551197" lon="-1.72875568">
        <ele>481.83563</ele>
        <time>2019-11-21T22:04:35Z</time>
      </trkpt>
      <trkpt lat="42.8554381" lon="-1.72838844">
        <ele>480.80005</ele>
        <time>2019-11-21T22:04:36Z</time>
      </trkpt>
      <trkpt lat="42.85536192" lon="-1.72802448">
        <ele>479.5265</ele>
        <time>2019-11-21T22:04:37Z</time>
      </trkpt>
      <trkpt lat="42.85528975" lon="-1.72764732">
        <ele>478.24335</ele>
        <time>2019-11-21T22:04:38Z</time>
      </trkpt>
      <trkpt lat="42.85521622" lon="-1.72727309">
        <ele>477.5036</ele>
        <time>2019-11-21T22:04:39Z</time>
      </trkpt>
      <trkpt lat="42.85510981" lon="-1.7265289">
        <ele>475.98828</ele>
        <time>2019-11-21T22:04:40Z</time>
      </trkpt>
      <trkpt lat="42.85506322" lon="-1.72614722">
        <ele>475.5194</ele>
        <time>2019-11-21T22:04:41Z</time>
      </trkpt>
      <trkpt lat="42.85503085" lon="-1.72576367">
        <ele>474.6344</ele>
        <time>2019-11-21T22:04:42Z</time>
      </trkpt>
      <trkpt lat="42.85500652" lon="-1.72538553">
        <ele>474.37524</ele>
        <time>2019-11-21T22:04:43Z</time>
      </trkpt>
      <trkpt lat="42.85498884" lon="-1.72500146">
        <ele>474.28772</ele>
        <time>2019-11-21T22:04:44Z</time>
      </trkpt>
      <trkpt lat="42.85497631" lon="-1.72462379">
        <ele>474.43982</ele>
        <time>2019-11-21T22:04:45Z</time>
      </trkpt>
      <trkpt lat="42.85496525" lon="-1.72425689">
        <ele>474.35516</ele>
        <time>2019-11-21T22:04:46Z</time>
      </trkpt>
      <trkpt lat="42.85495085" lon="-1.72390045">
        <ele>475.02704</ele>
        <time>2019-11-21T22:04:47Z</time>
      </trkpt>
      <trkpt lat="42.85493003" lon="-1.72351435">
        <ele>474.37994</ele>
        <time>2019-11-21T22:04:48Z</time>
      </trkpt>
      <trkpt lat="42.85489968" lon="-1.72310256">
        <ele>473.3758</ele>
        <time>2019-11-21T22:04:49Z</time>
      </trkpt>
      <trkpt lat="42.85486043" lon="-1.72269547">
        <ele>474.31866</ele>
        <time>2019-11-21T22:04:50Z</time>
      </trkpt>
      <trkpt lat="42.8548161" lon="-1.72231315">
        <ele>473.60223</ele>
        <time>2019-11-21T22:04:51Z</time>
      </trkpt>
      <trkpt lat="42.85475268" lon="-1.7219482">
        <ele>473.65808</ele>
        <time>2019-11-21T22:04:52Z</time>
      </trkpt>
      <trkpt lat="42.85468202" lon="-1.72157409">
        <ele>472.281</ele>
        <time>2019-11-21T22:04:53Z</time>
      </trkpt>
      <trkpt lat="42.85461185" lon="-1.72122527">
        <ele>472.15735</ele>
        <time>2019-11-21T22:04:54Z</time>
      </trkpt>
      <trkpt lat="42.85452485" lon="-1.72085017">
        <ele>471.70068</ele>
        <time>2019-11-21T22:04:55Z</time>
      </trkpt>
      <trkpt lat="42.85444331" lon="-1.72049151">
        <ele>471.96997</ele>
        <time>2019-11-21T22:04:57Z</time>
      </trkpt>
      <trkpt lat="42.85436597" lon="-1.72013742">
        <ele>471.3659</ele>
        <time>2019-11-21T22:04:58Z</time>
      </trkpt>
      <trkpt lat="42.85428922" lon="-1.71977055">
        <ele>472.1975</ele>
        <time>2019-11-21T22:04:59Z</time>
      </trkpt>
      <trkpt lat="42.85421344" lon="-1.71938665">
        <ele>472.5691</ele>
        <time>2019-11-21T22:05:00Z</time>
      </trkpt>
      <trkpt lat="42.85415089" lon="-1.71901847">
        <ele>474.11536</ele>
        <time>2019-11-21T22:05:01Z</time>
      </trkpt>
      <trkpt lat="42.85408987" lon="-1.71863822">
        <ele>474.57788</ele>
        <time>2019-11-21T22:05:02Z</time>
      </trkpt>
      <trkpt lat="42.85403414" lon="-1.71825483">
        <ele>475.37805</ele>
        <time>2019-11-21T22:05:03Z</time>
      </trkpt>
      <trkpt lat="42.85399508" lon="-1.71787897">
        <ele>475.667</ele>
        <time>2019-11-21T22:05:04Z</time>
      </trkpt>
      <trkpt lat="42.85395926" lon="-1.717506">
        <ele>474.87268</ele>
        <time>2019-11-21T22:05:05Z</time>
      </trkpt>
      <trkpt lat="42.85393616" lon="-1.71713427">
        <ele>474.08252</ele>
        <time>2019-11-21T22:05:06Z</time>
      </trkpt>
      <trkpt lat="42.85390751" lon="-1.71675267">
        <ele>474.15918</ele>
        <time>2019-11-21T22:05:07Z</time>
      </trkpt>
      <trkpt lat="42.85386986" lon="-1.71637278">
        <ele>474.10345</ele>
        <time>2019-11-21T22:05:08Z</time>
      </trkpt>
      <trkpt lat="42.8538311" lon="-1.71599399">
        <ele>473.60583</ele>
        <time>2019-11-21T22:05:09Z</time>
      </trkpt>
      <trkpt lat="42.85377672" lon="-1.71562696">
        <ele>473.01074</ele>
        <time>2019-11-21T22:05:10Z</time>
      </trkpt>
      <trkpt lat="42.85363765" lon="-1.71487539">
        <ele>473.07495</ele>
        <time>2019-11-21T22:05:11Z</time>
      </trkpt>
      <trkpt lat="42.85355099" lon="-1.71450856">
        <ele>472.86853</ele>
        <time>2019-11-21T22:05:12Z</time>
      </trkpt>
      <trkpt lat="42.85346544" lon="-1.71414197">
        <ele>473.60736</ele>
        <time>2019-11-21T22:05:13Z</time>
      </trkpt>
      <trkpt lat="42.85337251" lon="-1.71378965">
        <ele>473.66956</ele>
        <time>2019-11-21T22:05:14Z</time>
      </trkpt>
      <trkpt lat="42.85326778" lon="-1.71343065">
        <ele>473.44666</ele>
        <time>2019-11-21T22:05:15Z</time>
      </trkpt>
      <trkpt lat="42.85315445" lon="-1.71307981">
        <ele>474.16138</ele>
        <time>2019-11-21T22:05:16Z</time>
      </trkpt>
      <trkpt lat="42.85301896" lon="-1.71273791">
        <ele>474.54724</ele>
        <time>2019-11-21T22:05:17Z</time>
      </trkpt>
      <trkpt lat="42.85287907" lon="-1.71239814">
        <ele>474.95203</ele>
        <time>2019-11-21T22:05:18Z</time>
      </trkpt>
      <trkpt lat="42.85273893" lon="-1.71206085">
        <ele>474.77954</ele>
        <time>2019-11-21T22:05:19Z</time>
      </trkpt>
      <trkpt lat="42.85259239" lon="-1.71174181">
        <ele>474.11688</ele>
        <time>2019-11-21T22:05:20Z</time>
      </trkpt>
      <trkpt lat="42.85242447" lon="-1.71141309">
        <ele>473.32385</ele>
        <time>2019-11-21T22:05:21Z</time>
      </trkpt>
      <trkpt lat="42.85226256" lon="-1.71110706">
        <ele>472.59106</ele>
        <time>2019-11-21T22:05:22Z</time>
      </trkpt>
      <trkpt lat="42.85208835" lon="-1.71081341">
        <ele>473.11536</ele>
        <time>2019-11-21T22:05:23Z</time>
      </trkpt>
      <trkpt lat="42.85190397" lon="-1.71052023">
        <ele>473.08478</ele>
        <time>2019-11-21T22:05:24Z</time>
      </trkpt>
      <trkpt lat="42.85171044" lon="-1.7102429">
        <ele>473.04303</ele>
        <time>2019-11-21T22:05:25Z</time>
      </trkpt>
      <trkpt lat="42.85151572" lon="-1.70995531">
        <ele>472.25732</ele>
        <time>2019-11-21T22:05:26Z</time>
      </trkpt>
      <trkpt lat="42.85131906" lon="-1.70968418">
        <ele>472.29108</ele>
        <time>2019-11-21T22:05:27Z</time>
      </trkpt>
      <trkpt lat="42.85112494" lon="-1.70940134">
        <ele>472.4845</ele>
        <time>2019-11-21T22:05:28Z</time>
      </trkpt>
      <trkpt lat="42.85093382" lon="-1.70912126">
        <ele>473.0144</ele>
        <time>2019-11-21T22:05:30Z</time>
      </trkpt>
      <trkpt lat="42.85075097" lon="-1.70883266">
        <ele>473.3792</ele>
        <time>2019-11-21T22:05:31Z</time>
      </trkpt>
      <trkpt lat="42.85057072" lon="-1.70853508">
        <ele>473.45898</ele>
        <time>2019-11-21T22:05:32Z</time>
      </trkpt>
      <trkpt lat="42.85039595" lon="-1.70823483">
        <ele>474.00574</ele>
        <time>2019-11-21T22:05:33Z</time>
      </trkpt>
      <trkpt lat="42.85022875" lon="-1.70792288">
        <ele>474.58508</ele>
        <time>2019-11-21T22:05:34Z</time>
      </trkpt>
      <trkpt lat="42.85007237" lon="-1.70760733">
        <ele>475.16162</ele>
        <time>2019-11-21T22:05:35Z</time>
      </trkpt>
      <trkpt lat="42.84992118" lon="-1.70727758">
        <ele>473.94385</ele>
        <time>2019-11-21T22:05:36Z</time>
      </trkpt>
      <trkpt lat="42.84977711" lon="-1.70694585">
        <ele>473.30536</ele>
        <time>2019-11-21T22:05:37Z</time>
      </trkpt>
      <trkpt lat="42.84963946" lon="-1.70661027">
        <ele>473.47906</ele>
        <time>2019-11-21T22:05:38Z</time>
      </trkpt>
      <trkpt lat="42.84951108" lon="-1.70626595">
        <ele>474.12524</ele>
        <time>2019-11-21T22:05:39Z</time>
      </trkpt>
      <trkpt lat="42.84938979" lon="-1.70591614">
        <ele>474.40332</ele>
        <time>2019-11-21T22:05:40Z</time>
      </trkpt>
      <trkpt lat="42.84928184" lon="-1.70557568">
        <ele>473.2434</ele>
        <time>2019-11-21T22:05:41Z</time>
      </trkpt>
      <trkpt lat="42.84907782" lon="-1.70485632">
        <ele>472.92822</ele>
        <time>2019-11-21T22:05:42Z</time>
      </trkpt>
      <trkpt lat="42.84897925" lon="-1.70448958">
        <ele>478.01294</ele>
        <time>2019-11-21T22:05:43Z</time>
      </trkpt>
      <trkpt lat="42.84888822" lon="-1.70412496">
        <ele>475.20862</ele>
        <time>2019-11-21T22:05:44Z</time>
      </trkpt>
      <trkpt lat="42.8487845" lon="-1.70375879">
        <ele>473.97168</ele>
        <time>2019-11-21T22:05:45Z</time>
      </trkpt>
      <trkpt lat="42.84868246" lon="-1.70339958">
        <ele>473.72644</ele>
        <time>2019-11-21T22:05:46Z</time>
      </trkpt>
      <trkpt lat="42.84857574" lon="-1.7030419">
        <ele>473.23712</ele>
        <time>2019-11-21T22:05:47Z</time>
      </trkpt>
      <trkpt lat="42.84846934" lon="-1.70269009">
        <ele>472.3269</ele>
        <time>2019-11-21T22:05:48Z</time>
      </trkpt>
      <trkpt lat="42.8483598" lon="-1.70233252">
        <ele>471.5658</ele>
        <time>2019-11-21T22:05:49Z</time>
      </trkpt>
      <trkpt lat="42.84824227" lon="-1.70198068">
        <ele>471.17578</ele>
        <time>2019-11-21T22:05:50Z</time>
      </trkpt>
      <trkpt lat="42.84811868" lon="-1.70164383">
        <ele>470.07178</ele>
        <time>2019-11-21T22:05:51Z</time>
      </trkpt>
      <trkpt lat="42.84799144" lon="-1.70130379">
        <ele>470.2481</ele>
        <time>2019-11-21T22:05:52Z</time>
      </trkpt>
      <trkpt lat="42.8478594" lon="-1.70096381">
        <ele>469.94116</ele>
        <time>2019-11-21T22:05:53Z</time>
      </trkpt>
      <trkpt lat="42.84772021" lon="-1.70062591">
        <ele>480.14062</ele>
        <time>2019-11-21T22:05:54Z</time>
      </trkpt>
      <trkpt lat="42.84757744" lon="-1.70029822">
        <ele>477.58606</ele>
        <time>2019-11-21T22:05:55Z</time>
      </trkpt>
      <trkpt lat="42.8474281" lon="-1.69996709">
        <ele>475.19678</ele>
        <time>2019-11-21T22:05:56Z</time>
      </trkpt>
      <trkpt lat="42.84727427" lon="-1.69964174">
        <ele>473.6657</ele>
        <time>2019-11-21T22:05:57Z</time>
      </trkpt>
      <trkpt lat="42.84711083" lon="-1.69931945">
        <ele>472.1408</ele>
        <time>2019-11-21T22:05:59Z</time>
      </trkpt>
      <trkpt lat="42.8469498" lon="-1.69899867">
        <ele>471.05908</ele>
        <time>2019-11-21T22:06:00Z</time>
      </trkpt>
      <trkpt lat="42.84678931" lon="-1.69869078">
        <ele>469.8485</ele>
        <time>2019-11-21T22:06:01Z</time>
      </trkpt>
      <trkpt lat="42.84662522" lon="-1.69838383">
        <ele>469.10144</ele>
        <time>2019-11-21T22:06:02Z</time>
      </trkpt>
      <trkpt lat="42.84645484" lon="-1.6980754">
        <ele>468.57715</ele>
        <time>2019-11-21T22:06:03Z</time>
      </trkpt>
      <trkpt lat="42.84628339" lon="-1.69776407">
        <ele>468.41382</ele>
        <time>2019-11-21T22:06:04Z</time>
      </trkpt>
      <trkpt lat="42.8461151" lon="-1.69745403">
        <ele>468.41772</ele>
        <time>2019-11-21T22:06:05Z</time>
      </trkpt>
      <trkpt lat="42.84594813" lon="-1.69713839">
        <ele>468.38135</ele>
        <time>2019-11-21T22:06:06Z</time>
      </trkpt>
      <trkpt lat="42.84578737" lon="-1.69681662">
        <ele>467.72205</ele>
        <time>2019-11-21T22:06:07Z</time>
      </trkpt>
      <trkpt lat="42.84562863" lon="-1.69649522">
        <ele>467.36438</ele>
        <time>2019-11-21T22:06:08Z</time>
      </trkpt>
      <trkpt lat="42.84548279" lon="-1.69617328">
        <ele>467.32343</ele>
        <time>2019-11-21T22:06:09Z</time>
      </trkpt>
      <trkpt lat="42.84534045" lon="-1.69584036">
        <ele>469.883</ele>
        <time>2019-11-21T22:06:10Z</time>
      </trkpt>
      <trkpt lat="42.84519828" lon="-1.6955045">
        <ele>468.80566</ele>
        <time>2019-11-21T22:06:11Z</time>
      </trkpt>
      <trkpt lat="42.84494283" lon="-1.69482568">
        <ele>467.69128</ele>
        <time>2019-11-21T22:06:12Z</time>
      </trkpt>
      <trkpt lat="42.84481974" lon="-1.69447834">
        <ele>467.82434</ele>
        <time>2019-11-21T22:06:13Z</time>
      </trkpt>
      <trkpt lat="42.84469528" lon="-1.69413444">
        <ele>467.8413</ele>
        <time>2019-11-21T22:06:14Z</time>
      </trkpt>
      <trkpt lat="42.84456258" lon="-1.69379794">
        <ele>467.3601</ele>
        <time>2019-11-21T22:06:15Z</time>
      </trkpt>
      <trkpt lat="42.84441924" lon="-1.69346972">
        <ele>466.58752</ele>
        <time>2019-11-21T22:06:16Z</time>
      </trkpt>
      <trkpt lat="42.8442623" lon="-1.69313738">
        <ele>466.56964</ele>
        <time>2019-11-21T22:06:17Z</time>
      </trkpt>
      <trkpt lat="42.84409931" lon="-1.69282638">
        <ele>466.47998</ele>
        <time>2019-11-21T22:06:18Z</time>
      </trkpt>
      <trkpt lat="42.84392709" lon="-1.69252335">
        <ele>467.4652</ele>
        <time>2019-11-21T22:06:19Z</time>
      </trkpt>
      <trkpt lat="42.84374622" lon="-1.69222738">
        <ele>466.74207</ele>
        <time>2019-11-21T22:06:20Z</time>
      </trkpt>
      <trkpt lat="42.84355074" lon="-1.6919516">
        <ele>466.20728</ele>
        <time>2019-11-21T22:06:21Z</time>
      </trkpt>
      <trkpt lat="42.84334147" lon="-1.69168857">
        <ele>466.0774</ele>
        <time>2019-11-21T22:06:22Z</time>
      </trkpt>
      <trkpt lat="42.84311824" lon="-1.69144047">
        <ele>465.71844</ele>
        <time>2019-11-21T22:06:23Z</time>
      </trkpt>
      <trkpt lat="42.84289049" lon="-1.69120739">
        <ele>465.22443</ele>
        <time>2019-11-21T22:06:24Z</time>
      </trkpt>
      <trkpt lat="42.84265721" lon="-1.69099184">
        <ele>464.7787</ele>
        <time>2019-11-21T22:06:26Z</time>
      </trkpt>
      <trkpt lat="42.84241448" lon="-1.69079039">
        <ele>464.26318</ele>
        <time>2019-11-21T22:06:27Z</time>
      </trkpt>
      <trkpt lat="42.84216707" lon="-1.6905991">
        <ele>463.5453</ele>
        <time>2019-11-21T22:06:28Z</time>
      </trkpt>
      <trkpt lat="42.84191324" lon="-1.69042875">
        <ele>463.11713</ele>
        <time>2019-11-21T22:06:29Z</time>
      </trkpt>
      <trkpt lat="42.84165635" lon="-1.69028118">
        <ele>462.36572</ele>
        <time>2019-11-21T22:06:30Z</time>
      </trkpt>
      <trkpt lat="42.84140806" lon="-1.69013954">
        <ele>461.4784</ele>
        <time>2019-11-21T22:06:31Z</time>
      </trkpt>
      <trkpt lat="42.84114947" lon="-1.69002175">
        <ele>461.0155</ele>
        <time>2019-11-21T22:06:32Z</time>
      </trkpt>
      <trkpt lat="42.84086843" lon="-1.68993426">
        <ele>460.82367</ele>
        <time>2019-11-21T22:06:33Z</time>
      </trkpt>
      <trkpt lat="42.84059331" lon="-1.68986087">
        <ele>460.7744</ele>
        <time>2019-11-21T22:06:34Z</time>
      </trkpt>
      <trkpt lat="42.84032464" lon="-1.68979583">
        <ele>460.85364</ele>
        <time>2019-11-21T22:06:35Z</time>
      </trkpt>
      <trkpt lat="42.84005779" lon="-1.68975236">
        <ele>460.34192</ele>
        <time>2019-11-21T22:06:36Z</time>
      </trkpt>
      <trkpt lat="42.83977152" lon="-1.68972674">
        <ele>460.7995</ele>
        <time>2019-11-21T22:06:37Z</time>
      </trkpt>
      <trkpt lat="42.83948713" lon="-1.68972942">
        <ele>461.45532</ele>
        <time>2019-11-21T22:06:38Z</time>
      </trkpt>
      <trkpt lat="42.83894568" lon="-1.68975887">
        <ele>463.53992</ele>
        <time>2019-11-21T22:06:39Z</time>
      </trkpt>
      <trkpt lat="42.83866152" lon="-1.68980461">
        <ele>463.85852</ele>
        <time>2019-11-21T22:06:40Z</time>
      </trkpt>
      <trkpt lat="42.83839594" lon="-1.68987019">
        <ele>464.1474</ele>
        <time>2019-11-21T22:06:41Z</time>
      </trkpt>
      <trkpt lat="42.83811971" lon="-1.68995695">
        <ele>464.53168</ele>
        <time>2019-11-21T22:06:42Z</time>
      </trkpt>
      <trkpt lat="42.83785214" lon="-1.69006021">
        <ele>464.94934</ele>
        <time>2019-11-21T22:06:43Z</time>
      </trkpt>
      <trkpt lat="42.83758136" lon="-1.6901813">
        <ele>465.25732</ele>
        <time>2019-11-21T22:06:44Z</time>
      </trkpt>
      <trkpt lat="42.83731076" lon="-1.69033322">
        <ele>466.65997</ele>
        <time>2019-11-21T22:06:45Z</time>
      </trkpt>
      <trkpt lat="42.83705422" lon="-1.69048623">
        <ele>467.94373</ele>
        <time>2019-11-21T22:06:46Z</time>
      </trkpt>
      <trkpt lat="42.8367979" lon="-1.69067074">
        <ele>468.83148</ele>
        <time>2019-11-21T22:06:47Z</time>
      </trkpt>
      <trkpt lat="42.83655643" lon="-1.6908764">
        <ele>467.7107</ele>
        <time>2019-11-21T22:06:48Z</time>
      </trkpt>
      <trkpt lat="42.8363174" lon="-1.69107681">
        <ele>466.63098</ele>
        <time>2019-11-21T22:06:49Z</time>
      </trkpt>
      <trkpt lat="42.83608713" lon="-1.69130483">
        <ele>467.63525</ele>
        <time>2019-11-21T22:06:50Z</time>
      </trkpt>
      <trkpt lat="42.83587336" lon="-1.69154423">
        <ele>465.25684</ele>
        <time>2019-11-21T22:06:51Z</time>
      </trkpt>
      <trkpt lat="42.83565942" lon="-1.69180404">
        <ele>464.16272</ele>
        <time>2019-11-21T22:06:52Z</time>
      </trkpt>
      <trkpt lat="42.8354497" lon="-1.69207134">
        <ele>463.62616</ele>
        <time>2019-11-21T22:06:53Z</time>
      </trkpt>
      <trkpt lat="42.83524515" lon="-1.6923454">
        <ele>463.3844</ele>
        <time>2019-11-21T22:06:54Z</time>
      </trkpt>
      <trkpt lat="42.83504738" lon="-1.692626">
        <ele>462.98608</ele>
        <time>2019-11-21T22:06:56Z</time>
      </trkpt>
      <trkpt lat="42.83484838" lon="-1.69290232">
        <ele>462.84802</ele>
        <time>2019-11-21T22:06:57Z</time>
      </trkpt>
      <trkpt lat="42.83465793" lon="-1.69317891">
        <ele>462.646</ele>
        <time>2019-11-21T22:06:58Z</time>
      </trkpt>
      <trkpt lat="42.83447017" lon="-1.69348635">
        <ele>463.31885</ele>
        <time>2019-11-21T22:06:59Z</time>
      </trkpt>
      <trkpt lat="42.8342889" lon="-1.69378537">
        <ele>463.89746</ele>
        <time>2019-11-21T22:07:00Z</time>
      </trkpt>
      <trkpt lat="42.83412193" lon="-1.69410059">
        <ele>464.167</ele>
        <time>2019-11-21T22:07:01Z</time>
      </trkpt>
      <trkpt lat="42.83396042" lon="-1.69441787">
        <ele>464.18665</ele>
        <time>2019-11-21T22:07:02Z</time>
      </trkpt>
      <trkpt lat="42.83381738" lon="-1.69473893">
        <ele>459.92572</ele>
        <time>2019-11-21T22:07:03Z</time>
      </trkpt>
      <trkpt lat="42.83367575" lon="-1.6950722">
        <ele>459.8584</ele>
        <time>2019-11-21T22:07:04Z</time>
      </trkpt>
      <trkpt lat="42.83353766" lon="-1.69541472">
        <ele>459.70874</ele>
        <time>2019-11-21T22:07:05Z</time>
      </trkpt>
      <trkpt lat="42.83340272" lon="-1.69574708">
        <ele>460.00604</ele>
        <time>2019-11-21T22:07:06Z</time>
      </trkpt>
      <trkpt lat="42.83326501" lon="-1.69608296">
        <ele>462.3694</ele>
        <time>2019-11-21T22:07:07Z</time>
      </trkpt>
      <trkpt lat="42.83313677" lon="-1.69643572">
        <ele>463.54565</ele>
        <time>2019-11-21T22:07:08Z</time>
      </trkpt>
      <trkpt lat="42.83292154" lon="-1.6971389">
        <ele>464.0423</ele>
        <time>2019-11-21T22:07:09Z</time>
      </trkpt>
      <trkpt lat="42.83282297" lon="-1.69749606">
        <ele>463.48035</ele>
        <time>2019-11-21T22:07:10Z</time>
      </trkpt>
      <trkpt lat="42.83272987" lon="-1.69786156">
        <ele>463.11963</ele>
        <time>2019-11-21T22:07:11Z</time>
      </trkpt>
      <trkpt lat="42.83264733" lon="-1.69822299">
        <ele>462.46094</ele>
        <time>2019-11-21T22:07:12Z</time>
      </trkpt>
      <trkpt lat="42.83256786" lon="-1.69859264">
        <ele>463.04938</ele>
        <time>2019-11-21T22:07:13Z</time>
      </trkpt>
      <trkpt lat="42.83249403" lon="-1.69896117">
        <ele>462.84613</ele>
        <time>2019-11-21T22:07:14Z</time>
      </trkpt>
      <trkpt lat="42.83242496" lon="-1.69933052">
        <ele>461.753</ele>
        <time>2019-11-21T22:07:15Z</time>
      </trkpt>
      <trkpt lat="42.83236484" lon="-1.69970728">
        <ele>461.76404</ele>
        <time>2019-11-21T22:07:16Z</time>
      </trkpt>
      <trkpt lat="42.83231452" lon="-1.70008638">
        <ele>461.73083</ele>
        <time>2019-11-21T22:07:17Z</time>
      </trkpt>
      <trkpt lat="42.83227331" lon="-1.70047011">
        <ele>461.58453</ele>
        <time>2019-11-21T22:07:18Z</time>
      </trkpt>
      <trkpt lat="42.83223673" lon="-1.70084548">
        <ele>476.33948</ele>
        <time>2019-11-21T22:07:19Z</time>
      </trkpt>
      <trkpt lat="42.83220841" lon="-1.70123603">
        <ele>472.22815</ele>
        <time>2019-11-21T22:07:20Z</time>
      </trkpt>
      <trkpt lat="42.83218431" lon="-1.70161156">
        <ele>469.094</ele>
        <time>2019-11-21T22:07:21Z</time>
      </trkpt>
      <trkpt lat="42.83216704" lon="-1.7019866">
        <ele>468.40002</ele>
        <time>2019-11-21T22:07:22Z</time>
      </trkpt>
      <trkpt lat="42.83216837" lon="-1.70238081">
        <ele>466.65527</ele>
        <time>2019-11-21T22:07:23Z</time>
      </trkpt>
      <trkpt lat="42.83217629" lon="-1.70277031">
        <ele>465.101</ele>
        <time>2019-11-21T22:07:24Z</time>
      </trkpt>
      <trkpt lat="42.83217517" lon="-1.7031601">
        <ele>463.49945</ele>
        <time>2019-11-21T22:07:26Z</time>
      </trkpt>
      <trkpt lat="42.83217578" lon="-1.70353784">
        <ele>463.77222</ele>
        <time>2019-11-21T22:07:27Z</time>
      </trkpt>
      <trkpt lat="42.83216916" lon="-1.70391805">
        <ele>463.14923</ele>
        <time>2019-11-21T22:07:28Z</time>
      </trkpt>
      <trkpt lat="42.83215798" lon="-1.70430504">
        <ele>463.32697</ele>
        <time>2019-11-21T22:07:29Z</time>
      </trkpt>
      <trkpt lat="42.83213566" lon="-1.7046922">
        <ele>463.24365</ele>
        <time>2019-11-21T22:07:30Z</time>
      </trkpt>
      <trkpt lat="42.83209735" lon="-1.70507913">
        <ele>463.02972</ele>
        <time>2019-11-21T22:07:31Z</time>
      </trkpt>
      <trkpt lat="42.83206065" lon="-1.70546049">
        <ele>462.27313</ele>
        <time>2019-11-21T22:07:32Z</time>
      </trkpt>
      <trkpt lat="42.83201558" lon="-1.70584501">
        <ele>462.28894</ele>
        <time>2019-11-21T22:07:33Z</time>
      </trkpt>
      <trkpt lat="42.83192409" lon="-1.70621287">
        <ele>464.05847</ele>
        <time>2019-11-21T22:07:34Z</time>
      </trkpt>
      <trkpt lat="42.83183537" lon="-1.70658355">
        <ele>464.81982</ele>
        <time>2019-11-21T22:07:35Z</time>
      </trkpt>
      <trkpt lat="42.83173171" lon="-1.70694244">
        <ele>465.58655</ele>
        <time>2019-11-21T22:07:36Z</time>
      </trkpt>
      <trkpt lat="42.83162645" lon="-1.70731739">
        <ele>464.59595</ele>
        <time>2019-11-21T22:07:37Z</time>
      </trkpt>
      <trkpt lat="42.8313735" lon="-1.70801346">
        <ele>462.47107</ele>
        <time>2019-11-21T22:07:38Z</time>
      </trkpt>
      <trkpt lat="42.83122606" lon="-1.70834374">
        <ele>461.69128</ele>
        <time>2019-11-21T22:07:39Z</time>
      </trkpt>
      <trkpt lat="42.83107289" lon="-1.70865897">
        <ele>461.27222</ele>
        <time>2019-11-21T22:07:40Z</time>
      </trkpt>
      <trkpt lat="42.83089448" lon="-1.7089629">
        <ele>462.32135</ele>
        <time>2019-11-21T22:07:41Z</time>
      </trkpt>
      <trkpt lat="42.83071463" lon="-1.70925766">
        <ele>461.94824</ele>
        <time>2019-11-21T22:07:42Z</time>
      </trkpt>
      <trkpt lat="42.83051762" lon="-1.70953391">
        <ele>462.1353</ele>
        <time>2019-11-21T22:07:43Z</time>
      </trkpt>
      <trkpt lat="42.83031504" lon="-1.70980285">
        <ele>461.7625</ele>
        <time>2019-11-21T22:07:44Z</time>
      </trkpt>
      <trkpt lat="42.83010145" lon="-1.71005745">
        <ele>461.53076</ele>
        <time>2019-11-21T22:07:45Z</time>
      </trkpt>
      <trkpt lat="42.82987657" lon="-1.71030512">
        <ele>462.1482</ele>
        <time>2019-11-21T22:07:46Z</time>
      </trkpt>
      <trkpt lat="42.82965058" lon="-1.71054889">
        <ele>461.7235</ele>
        <time>2019-11-21T22:07:47Z</time>
      </trkpt>
      <trkpt lat="42.82942041" lon="-1.7107623">
        <ele>460.66925</ele>
        <time>2019-11-21T22:07:48Z</time>
      </trkpt>
      <trkpt lat="42.82917841" lon="-1.71095908">
        <ele>460.6477</ele>
        <time>2019-11-21T22:07:49Z</time>
      </trkpt>
      <trkpt lat="42.82892786" lon="-1.71114214">
        <ele>460.1554</ele>
        <time>2019-11-21T22:07:50Z</time>
      </trkpt>
      <trkpt lat="42.82867164" lon="-1.71131252">
        <ele>459.23615</ele>
        <time>2019-11-21T22:07:51Z</time>
      </trkpt>
      <trkpt lat="42.82841318" lon="-1.71145209">
        <ele>457.8482</ele>
        <time>2019-11-21T22:07:52Z</time>
      </trkpt>
      <trkpt lat="42.82814897" lon="-1.71158783">
        <ele>457.23987</ele>
        <time>2019-11-21T22:07:53Z</time>
      </trkpt>
      <trkpt lat="42.8278814" lon="-1.71170442">
        <ele>456.39056</ele>
        <time>2019-11-21T22:07:54Z</time>
      </trkpt>
      <trkpt lat="42.82760856" lon="-1.71180663">
        <ele>456.86487</ele>
        <time>2019-11-21T22:07:55Z</time>
      </trkpt>
      <trkpt lat="42.82732845" lon="-1.7118858">
        <ele>456.29663</ele>
        <time>2019-11-21T22:07:57Z</time>
      </trkpt>
      <trkpt lat="42.82704764" lon="-1.71195172">
        <ele>456.01233</ele>
        <time>2019-11-21T22:07:58Z</time>
      </trkpt>
      <trkpt lat="42.82677311" lon="-1.71199874">
        <ele>455.07208</ele>
        <time>2019-11-21T22:07:59Z</time>
      </trkpt>
      <trkpt lat="42.82649117" lon="-1.71202857">
        <ele>454.88525</ele>
        <time>2019-11-21T22:08:00Z</time>
      </trkpt>
      <trkpt lat="42.82620661" lon="-1.71204119">
        <ele>454.4303</ele>
        <time>2019-11-21T22:08:01Z</time>
      </trkpt>
      <trkpt lat="42.8259211" lon="-1.71204613">
        <ele>454.35205</ele>
        <time>2019-11-21T22:08:02Z</time>
      </trkpt>
      <trkpt lat="42.82563532" lon="-1.71204254">
        <ele>454.0172</ele>
        <time>2019-11-21T22:08:03Z</time>
      </trkpt>
      <trkpt lat="42.82535334" lon="-1.71204291">
        <ele>452.90625</ele>
        <time>2019-11-21T22:08:04Z</time>
      </trkpt>
      <trkpt lat="42.82506768" lon="-1.71205042">
        <ele>452.75842</ele>
        <time>2019-11-21T22:08:05Z</time>
      </trkpt>
      <trkpt lat="42.82478717" lon="-1.71207179">
        <ele>452.39392</ele>
        <time>2019-11-21T22:08:06Z</time>
      </trkpt>
      <trkpt lat="42.8245047" lon="-1.7121139">
        <ele>451.77502</ele>
        <time>2019-11-21T22:08:07Z</time>
      </trkpt>
      <trkpt lat="42.82422521" lon="-1.7121729">
        <ele>451.2848</ele>
        <time>2019-11-21T22:08:08Z</time>
      </trkpt>
      <trkpt lat="42.82394763" lon="-1.71224953">
        <ele>450.94873</ele>
        <time>2019-11-21T22:08:09Z</time>
      </trkpt>
      <trkpt lat="42.82341286" lon="-1.71245362">
        <ele>451.3545</ele>
        <time>2019-11-21T22:08:10Z</time>
      </trkpt>
      <trkpt lat="42.82314686" lon="-1.71257914">
        <ele>451.27484</ele>
        <time>2019-11-21T22:08:11Z</time>
      </trkpt>
      <trkpt lat="42.82288387" lon="-1.71273055">
        <ele>451.14417</ele>
        <time>2019-11-21T22:08:12Z</time>
      </trkpt>
      <trkpt lat="42.82262962" lon="-1.71289532">
        <ele>452.4969</ele>
        <time>2019-11-21T22:08:13Z</time>
      </trkpt>
      <trkpt lat="42.82238604" lon="-1.71307887">
        <ele>452.76025</ele>
        <time>2019-11-21T22:08:14Z</time>
      </trkpt>
      <trkpt lat="42.82214748" lon="-1.71326899">
        <ele>453.38672</ele>
        <time>2019-11-21T22:08:15Z</time>
      </trkpt>
      <trkpt lat="42.82191688" lon="-1.71347701">
        <ele>453.69165</ele>
        <time>2019-11-21T22:08:16Z</time>
      </trkpt>
      <trkpt lat="42.82168545" lon="-1.71369971">
        <ele>456.15564</ele>
        <time>2019-11-21T22:08:17Z</time>
      </trkpt>
      <trkpt lat="42.82145974" lon="-1.71392058">
        <ele>455.64642</ele>
        <time>2019-11-21T22:08:18Z</time>
      </trkpt>
      <trkpt lat="42.82122873" lon="-1.7141326">
        <ele>455.35413</ele>
        <time>2019-11-21T22:08:19Z</time>
      </trkpt>
      <trkpt lat="42.82098978" lon="-1.71433936">
        <ele>455.5603</ele>
        <time>2019-11-21T22:08:20Z</time>
      </trkpt>
      <trkpt lat="42.82075056" lon="-1.7145465">
        <ele>456.00482</ele>
        <time>2019-11-21T22:08:21Z</time>
      </trkpt>
      <trkpt lat="42.82050854" lon="-1.71471493">
        <ele>455.85022</ele>
        <time>2019-11-21T22:08:22Z</time>
      </trkpt>
      <trkpt lat="42.82025274" lon="-1.71487947">
        <ele>456.56097</ele>
        <time>2019-11-21T22:08:23Z</time>
      </trkpt>
      <trkpt lat="42.81998983" lon="-1.7150401">
        <ele>456.01782</ele>
        <time>2019-11-21T22:08:24Z</time>
      </trkpt>
      <trkpt lat="42.81973139" lon="-1.71518641">
        <ele>455.70636</ele>
        <time>2019-11-21T22:08:25Z</time>
      </trkpt>
      <trkpt lat="42.81946852" lon="-1.71532423">
        <ele>455.6183</ele>
        <time>2019-11-21T22:08:26Z</time>
      </trkpt>
      <trkpt lat="42.81920153" lon="-1.71543285">
        <ele>455.6787</ele>
        <time>2019-11-21T22:08:28Z</time>
      </trkpt>
      <trkpt lat="42.81893244" lon="-1.71551919">
        <ele>454.48157</ele>
        <time>2019-11-21T22:08:29Z</time>
      </trkpt>
      <trkpt lat="42.81865352" lon="-1.71559673">
        <ele>454.27112</ele>
        <time>2019-11-21T22:08:30Z</time>
      </trkpt>
      <trkpt lat="42.81837368" lon="-1.71566576">
        <ele>453.85144</ele>
        <time>2019-11-21T22:08:31Z</time>
      </trkpt>
      <trkpt lat="42.81809511" lon="-1.71571719">
        <ele>453.7417</ele>
        <time>2019-11-21T22:08:32Z</time>
      </trkpt>
      <trkpt lat="42.81781168" lon="-1.71575234">
        <ele>454.162</ele>
        <time>2019-11-21T22:08:33Z</time>
      </trkpt>
      <trkpt lat="42.81753176" lon="-1.71575554">
        <ele>455.05164</ele>
        <time>2019-11-21T22:08:34Z</time>
      </trkpt>
      <trkpt lat="42.81724425" lon="-1.71574992">
        <ele>456.11792</ele>
        <time>2019-11-21T22:08:35Z</time>
      </trkpt>
      <trkpt lat="42.81696266" lon="-1.7157295">
        <ele>456.73438</ele>
        <time>2019-11-21T22:08:36Z</time>
      </trkpt>
      <trkpt lat="42.81667967" lon="-1.71569172">
        <ele>456.78857</ele>
        <time>2019-11-21T22:08:37Z</time>
      </trkpt>
      <trkpt lat="42.81640097" lon="-1.71564041">
        <ele>456.2624</ele>
        <time>2019-11-21T22:08:38Z</time>
      </trkpt>
      <trkpt lat="42.81584602" lon="-1.71548567">
        <ele>455.37402</ele>
        <time>2019-11-21T22:08:39Z</time>
      </trkpt>
      <trkpt lat="42.8155707" lon="-1.71539218">
        <ele>454.77002</ele>
        <time>2019-11-21T22:08:40Z</time>
      </trkpt>
      <trkpt lat="42.81530757" lon="-1.71528607">
        <ele>454.0415</ele>
        <time>2019-11-21T22:08:41Z</time>
      </trkpt>
      <trkpt lat="42.81503393" lon="-1.71517636">
        <ele>453.7704</ele>
        <time>2019-11-21T22:08:42Z</time>
      </trkpt>
      <trkpt lat="42.81476329" lon="-1.71505803">
        <ele>453.70227</ele>
        <time>2019-11-21T22:08:43Z</time>
      </trkpt>
      <trkpt lat="42.81450339" lon="-1.71493984">
        <ele>451.47955</ele>
        <time>2019-11-21T22:08:44Z</time>
      </trkpt>
      <trkpt lat="42.81423032" lon="-1.71481784">
        <ele>451.6535</ele>
        <time>2019-11-21T22:08:45Z</time>
      </trkpt>
      <trkpt lat="42.81396616" lon="-1.71469599">
        <ele>451.38232</ele>
        <time>2019-11-21T22:08:46Z</time>
      </trkpt>
      <trkpt lat="42.81369275" lon="-1.7145747">
        <ele>451.77905</ele>
        <time>2019-11-21T22:08:47Z</time>
      </trkpt>
      <trkpt lat="42.81343193" lon="-1.71445948">
        <ele>450.7859</ele>
        <time>2019-11-21T22:08:48Z</time>
      </trkpt>
      <trkpt lat="42.81316821" lon="-1.71435399">
        <ele>450.59576</ele>
        <time>2019-11-21T22:08:49Z</time>
      </trkpt>
      <trkpt lat="42.8129318" lon="-1.71424373">
        <ele>448.66772</ele>
        <time>2019-11-21T22:08:50Z</time>
      </trkpt>
      <trkpt lat="42.81265642" lon="-1.71415439">
        <ele>447.3617</ele>
        <time>2019-11-21T22:08:51Z</time>
      </trkpt>
      <trkpt lat="42.81239765" lon="-1.71405952">
        <ele>445.81732</ele>
        <time>2019-11-21T22:08:52Z</time>
      </trkpt>
      <trkpt lat="42.81212059" lon="-1.71397838">
        <ele>445.2312</ele>
        <time>2019-11-21T22:08:53Z</time>
      </trkpt>
      <trkpt lat="42.81185117" lon="-1.71390425">
        <ele>444.19775</ele>
        <time>2019-11-21T22:08:54Z</time>
      </trkpt>
      <trkpt lat="42.81156553" lon="-1.71385122">
        <ele>444.21277</ele>
        <time>2019-11-21T22:08:56Z</time>
      </trkpt>
      <trkpt lat="42.81128359" lon="-1.7138082">
        <ele>444.07886</ele>
        <time>2019-11-21T22:08:57Z</time>
      </trkpt>
      <trkpt lat="42.81100009" lon="-1.71377306">
        <ele>444.04578</ele>
        <time>2019-11-21T22:08:58Z</time>
      </trkpt>
      <trkpt lat="42.81071521" lon="-1.7137427">
        <ele>443.69006</ele>
        <time>2019-11-21T22:08:59Z</time>
      </trkpt>
      <trkpt lat="42.81042992" lon="-1.71372209">
        <ele>443.44067</ele>
        <time>2019-11-21T22:09:00Z</time>
      </trkpt>
      <trkpt lat="42.8101429" lon="-1.71371713">
        <ele>442.60034</ele>
        <time>2019-11-21T22:09:01Z</time>
      </trkpt>
      <trkpt lat="42.8098472" lon="-1.71372587">
        <ele>443.26782</ele>
        <time>2019-11-21T22:09:02Z</time>
      </trkpt>
      <trkpt lat="42.80955198" lon="-1.71374106">
        <ele>443.4618</ele>
        <time>2019-11-21T22:09:03Z</time>
      </trkpt>
      <trkpt lat="42.80926188" lon="-1.7137673">
        <ele>443.47327</ele>
        <time>2019-11-21T22:09:04Z</time>
      </trkpt>
      <trkpt lat="42.80895571" lon="-1.71381495">
        <ele>443.16663</ele>
        <time>2019-11-21T22:09:05Z</time>
      </trkpt>
      <trkpt lat="42.80867337" lon="-1.71386043">
        <ele>443.05627</ele>
        <time>2019-11-21T22:09:06Z</time>
      </trkpt>
      <trkpt lat="42.80809358" lon="-1.71396755">
        <ele>442.40674</ele>
        <time>2019-11-21T22:09:07Z</time>
      </trkpt>
      <trkpt lat="42.80781391" lon="-1.71401215">
        <ele>441.63953</ele>
        <time>2019-11-21T22:09:08Z</time>
      </trkpt>
      <trkpt lat="42.80753413" lon="-1.7140539">
        <ele>441.62866</ele>
        <time>2019-11-21T22:09:09Z</time>
      </trkpt>
      <trkpt lat="42.8072467" lon="-1.71408987">
        <ele>441.3379</ele>
        <time>2019-11-21T22:09:10Z</time>
      </trkpt>
      <trkpt lat="42.80696025" lon="-1.71409668">
        <ele>441.9571</ele>
        <time>2019-11-21T22:09:11Z</time>
      </trkpt>
      <trkpt lat="42.80667588" lon="-1.71409077">
        <ele>441.77344</ele>
        <time>2019-11-21T22:09:12Z</time>
      </trkpt>
      <trkpt lat="42.80638652" lon="-1.71407017">
        <ele>441.5349</ele>
        <time>2019-11-21T22:09:13Z</time>
      </trkpt>
      <trkpt lat="42.80609861" lon="-1.71402487">
        <ele>441.8379</ele>
        <time>2019-11-21T22:09:14Z</time>
      </trkpt>
      <trkpt lat="42.8058129" lon="-1.71396174">
        <ele>445.25983</ele>
        <time>2019-11-21T22:09:15Z</time>
      </trkpt>
      <trkpt lat="42.80553299" lon="-1.71388021">
        <ele>444.9928</ele>
        <time>2019-11-21T22:09:16Z</time>
      </trkpt>
      <trkpt lat="42.80525912" lon="-1.71378221">
        <ele>444.8169</ele>
        <time>2019-11-21T22:09:17Z</time>
      </trkpt>
      <trkpt lat="42.80499386" lon="-1.71366572">
        <ele>444.80432</ele>
        <time>2019-11-21T22:09:18Z</time>
      </trkpt>
      <trkpt lat="42.80472785" lon="-1.71353547">
        <ele>445.09595</ele>
        <time>2019-11-21T22:09:19Z</time>
      </trkpt>
      <trkpt lat="42.80447348" lon="-1.71338512">
        <ele>445.9203</ele>
        <time>2019-11-21T22:09:20Z</time>
      </trkpt>
      <trkpt lat="42.80421218" lon="-1.7132269">
        <ele>446.7323</ele>
        <time>2019-11-21T22:09:22Z</time>
      </trkpt>
      <trkpt lat="42.80397235" lon="-1.71305381">
        <ele>443.56567</ele>
        <time>2019-11-21T22:09:23Z</time>
      </trkpt>
      <trkpt lat="42.80371018" lon="-1.71286612">
        <ele>444.07166</ele>
        <time>2019-11-21T22:09:24Z</time>
      </trkpt>
      <trkpt lat="42.80347235" lon="-1.71265367">
        <ele>445.07654</ele>
        <time>2019-11-21T22:09:25Z</time>
      </trkpt>
      <trkpt lat="42.80324178" lon="-1.71242585">
        <ele>446.54395</ele>
        <time>2019-11-21T22:09:26Z</time>
      </trkpt>
      <trkpt lat="42.80302231" lon="-1.71219202">
        <ele>447.28418</ele>
        <time>2019-11-21T22:09:27Z</time>
      </trkpt>
      <trkpt lat="42.80281597" lon="-1.71193736">
        <ele>447.2472</ele>
        <time>2019-11-21T22:09:28Z</time>
      </trkpt>
      <trkpt lat="42.80260874" lon="-1.71167468">
        <ele>447.6095</ele>
        <time>2019-11-21T22:09:29Z</time>
      </trkpt>
      <trkpt lat="42.80242041" lon="-1.71139471">
        <ele>448.265</ele>
        <time>2019-11-21T22:09:30Z</time>
      </trkpt>
      <trkpt lat="42.8022397" lon="-1.71110762">
        <ele>448.14343</ele>
        <time>2019-11-21T22:09:31Z</time>
      </trkpt>
      <trkpt lat="42.80206483" lon="-1.71080637">
        <ele>448.8004</ele>
        <time>2019-11-21T22:09:32Z</time>
      </trkpt>
      <trkpt lat="42.80190503" lon="-1.7104887">
        <ele>448.68652</ele>
        <time>2019-11-21T22:09:33Z</time>
      </trkpt>
      <trkpt lat="42.80175566" lon="-1.71016414">
        <ele>447.41052</ele>
        <time>2019-11-21T22:09:34Z</time>
      </trkpt>
      <trkpt lat="42.80145187" lon="-1.70949454">
        <ele>450.67487</ele>
        <time>2019-11-21T22:09:35Z</time>
      </trkpt>
      <trkpt lat="42.80131653" lon="-1.70916077">
        <ele>449.73962</ele>
        <time>2019-11-21T22:09:36Z</time>
      </trkpt>
      <trkpt lat="42.80118067" lon="-1.70882355">
        <ele>449.59485</ele>
        <time>2019-11-21T22:09:37Z</time>
      </trkpt>
      <trkpt lat="42.80104814" lon="-1.7084847">
        <ele>449.6206</ele>
        <time>2019-11-21T22:09:38Z</time>
      </trkpt>
      <trkpt lat="42.80091842" lon="-1.70813671">
        <ele>450.0448</ele>
        <time>2019-11-21T22:09:39Z</time>
      </trkpt>
      <trkpt lat="42.80079323" lon="-1.70779063">
        <ele>450.7622</ele>
        <time>2019-11-21T22:09:40Z</time>
      </trkpt>
      <trkpt lat="42.80067009" lon="-1.70744586">
        <ele>451.27228</ele>
        <time>2019-11-21T22:09:41Z</time>
      </trkpt>
      <trkpt lat="42.80054345" lon="-1.70709592">
        <ele>451.89648</ele>
        <time>2019-11-21T22:09:42Z</time>
      </trkpt>
      <trkpt lat="42.80042373" lon="-1.70674324">
        <ele>452.65588</ele>
        <time>2019-11-21T22:09:43Z</time>
      </trkpt>
      <trkpt lat="42.8003065" lon="-1.70638843">
        <ele>451.73438</ele>
        <time>2019-11-21T22:09:44Z</time>
      </trkpt>
      <trkpt lat="42.80018065" lon="-1.70604195">
        <ele>452.3634</ele>
        <time>2019-11-21T22:09:45Z</time>
      </trkpt>
      <trkpt lat="42.80005914" lon="-1.70569332">
        <ele>454.38403</ele>
        <time>2019-11-21T22:09:46Z</time>
      </trkpt>
      <trkpt lat="42.79993708" lon="-1.70534601">
        <ele>456.03284</ele>
        <time>2019-11-21T22:09:47Z</time>
      </trkpt>
      <trkpt lat="42.79981778" lon="-1.70499357">
        <ele>456.73932</ele>
        <time>2019-11-21T22:09:48Z</time>
      </trkpt>
      <trkpt lat="42.79969892" lon="-1.70464783">
        <ele>454.09882</ele>
        <time>2019-11-21T22:09:49Z</time>
      </trkpt>
      <trkpt lat="42.79958023" lon="-1.70429586">
        <ele>454.91553</ele>
        <time>2019-11-21T22:09:51Z</time>
      </trkpt>
      <trkpt lat="42.79945689" lon="-1.7039431">
        <ele>455.45294</ele>
        <time>2019-11-21T22:09:52Z</time>
      </trkpt>
      <trkpt lat="42.79933257" lon="-1.70359451">
        <ele>455.38916</ele>
        <time>2019-11-21T22:09:53Z</time>
      </trkpt>
      <trkpt lat="42.79921386" lon="-1.70324831">
        <ele>455.62036</ele>
        <time>2019-11-21T22:09:54Z</time>
      </trkpt>
      <trkpt lat="42.79907922" lon="-1.70290053">
        <ele>456.2456</ele>
        <time>2019-11-21T22:09:55Z</time>
      </trkpt>
      <trkpt lat="42.79894924" lon="-1.70255806">
        <ele>457.09113</ele>
        <time>2019-11-21T22:09:56Z</time>
      </trkpt>
      <trkpt lat="42.79882619" lon="-1.70221228">
        <ele>457.4807</ele>
        <time>2019-11-21T22:09:57Z</time>
      </trkpt>
      <trkpt lat="42.79870534" lon="-1.70186704">
        <ele>457.79663</ele>
        <time>2019-11-21T22:09:58Z</time>
      </trkpt>
      <trkpt lat="42.79857698" lon="-1.70152144">
        <ele>457.92908</ele>
        <time>2019-11-21T22:09:59Z</time>
      </trkpt>
      <trkpt lat="42.79843966" lon="-1.70116975">
        <ele>458.0113</ele>
        <time>2019-11-21T22:10:00Z</time>
      </trkpt>
      <trkpt lat="42.79830501" lon="-1.70082254">
        <ele>456.734</ele>
        <time>2019-11-21T22:10:01Z</time>
      </trkpt>
      <trkpt lat="42.79804265" lon="-1.70015274">
        <ele>456.4372</ele>
        <time>2019-11-21T22:10:02Z</time>
      </trkpt>
      <trkpt lat="42.79791426" lon="-1.69981894">
        <ele>455.87708</ele>
        <time>2019-11-21T22:10:03Z</time>
      </trkpt>
      <trkpt lat="42.79778313" lon="-1.69948058">
        <ele>455.4624</ele>
        <time>2019-11-21T22:10:04Z</time>
      </trkpt>
      <trkpt lat="42.79764836" lon="-1.69914092">
        <ele>454.98615</ele>
        <time>2019-11-21T22:10:05Z</time>
      </trkpt>
      <trkpt lat="42.7975067" lon="-1.69880108">
        <ele>454.16077</ele>
        <time>2019-11-21T22:10:06Z</time>
      </trkpt>
      <trkpt lat="42.79736229" lon="-1.69846121">
        <ele>452.8216</ele>
        <time>2019-11-21T22:10:07Z</time>
      </trkpt>
      <trkpt lat="42.79721719" lon="-1.69812469">
        <ele>451.75708</ele>
        <time>2019-11-21T22:10:08Z</time>
      </trkpt>
      <trkpt lat="42.79707441" lon="-1.69779569">
        <ele>451.57056</ele>
        <time>2019-11-21T22:10:09Z</time>
      </trkpt>
      <trkpt lat="42.7969314" lon="-1.69747154">
        <ele>451.78406</ele>
        <time>2019-11-21T22:10:10Z</time>
      </trkpt>
      <trkpt lat="42.79678643" lon="-1.69714722">
        <ele>451.77625</ele>
        <time>2019-11-21T22:10:11Z</time>
      </trkpt>
      <trkpt lat="42.79664209" lon="-1.69681714">
        <ele>451.4754</ele>
        <time>2019-11-21T22:10:12Z</time>
      </trkpt>
      <trkpt lat="42.79650204" lon="-1.69648955">
        <ele>450.979</ele>
        <time>2019-11-21T22:10:13Z</time>
      </trkpt>
      <trkpt lat="42.79636246" lon="-1.69615464">
        <ele>451.00708</ele>
        <time>2019-11-21T22:10:14Z</time>
      </trkpt>
      <trkpt lat="42.79622479" lon="-1.69581896">
        <ele>450.80835</ele>
        <time>2019-11-21T22:10:15Z</time>
      </trkpt>
      <trkpt lat="42.7960998" lon="-1.69548347">
        <ele>450.08215</ele>
        <time>2019-11-21T22:10:16Z</time>
      </trkpt>
      <trkpt lat="42.79597766" lon="-1.69513323">
        <ele>449.87708</ele>
        <time>2019-11-21T22:10:17Z</time>
      </trkpt>
      <trkpt lat="42.79586312" lon="-1.69478274">
        <ele>450.11053</ele>
        <time>2019-11-21T22:10:18Z</time>
      </trkpt>
      <trkpt lat="42.79575066" lon="-1.6944298">
        <ele>449.97693</ele>
        <time>2019-11-21T22:10:20Z</time>
      </trkpt>
      <trkpt lat="42.79564182" lon="-1.69407436">
        <ele>450.04712</ele>
        <time>2019-11-21T22:10:21Z</time>
      </trkpt>
      <trkpt lat="42.79554455" lon="-1.69372219">
        <ele>450.61078</ele>
        <time>2019-11-21T22:10:22Z</time>
      </trkpt>
      <trkpt lat="42.7954554" lon="-1.69336382">
        <ele>450.54065</ele>
        <time>2019-11-21T22:10:23Z</time>
      </trkpt>
      <trkpt lat="42.79536712" lon="-1.69300355">
        <ele>450.58423</ele>
        <time>2019-11-21T22:10:24Z</time>
      </trkpt>
      <trkpt lat="42.79528053" lon="-1.6926319">
        <ele>451.53857</ele>
        <time>2019-11-21T22:10:25Z</time>
      </trkpt>
      <trkpt lat="42.79520427" lon="-1.69225278">
        <ele>452.30206</ele>
        <time>2019-11-21T22:10:26Z</time>
      </trkpt>
      <trkpt lat="42.79512766" lon="-1.69187104">
        <ele>452.6444</ele>
        <time>2019-11-21T22:10:27Z</time>
      </trkpt>
      <trkpt lat="42.79506009" lon="-1.6914682">
        <ele>454.1385</ele>
        <time>2019-11-21T22:10:28Z</time>
      </trkpt>
      <trkpt lat="42.79499596" lon="-1.69106308">
        <ele>455.3307</ele>
        <time>2019-11-21T22:10:29Z</time>
      </trkpt>
      <trkpt lat="42.79493596" lon="-1.69064825">
        <ele>455.68555</ele>
        <time>2019-11-21T22:10:30Z</time>
      </trkpt>
      <trkpt lat="42.79488414" lon="-1.69023636">
        <ele>456.14148</ele>
        <time>2019-11-21T22:10:31Z</time>
      </trkpt>
      <trkpt lat="42.79483078" lon="-1.68982686">
        <ele>456.64594</ele>
        <time>2019-11-21T22:10:32Z</time>
      </trkpt>
      <trkpt lat="42.79472795" lon="-1.68902888">
        <ele>457.74292</ele>
        <time>2019-11-21T22:10:33Z</time>
      </trkpt>
      <trkpt lat="42.79466655" lon="-1.68864321">
        <ele>458.74738</ele>
        <time>2019-11-21T22:10:34Z</time>
      </trkpt>
      <trkpt lat="42.79459789" lon="-1.68825617">
        <ele>459.6961</ele>
        <time>2019-11-21T22:10:35Z</time>
      </trkpt>
      <trkpt lat="42.79452263" lon="-1.68788143">
        <ele>461.18103</ele>
        <time>2019-11-21T22:10:36Z</time>
      </trkpt>
      <trkpt lat="42.7944407" lon="-1.68751058">
        <ele>462.5979</ele>
        <time>2019-11-21T22:10:37Z</time>
      </trkpt>
      <trkpt lat="42.79435236" lon="-1.68714739">
        <ele>463.542</ele>
        <time>2019-11-21T22:10:38Z</time>
      </trkpt>
      <trkpt lat="42.79425839" lon="-1.6867956">
        <ele>464.20734</ele>
        <time>2019-11-21T22:10:39Z</time>
      </trkpt>
      <trkpt lat="42.79415723" lon="-1.68644002">
        <ele>464.35846</ele>
        <time>2019-11-21T22:10:40Z</time>
      </trkpt>
      <trkpt lat="42.79404554" lon="-1.6860871">
        <ele>465.58813</ele>
        <time>2019-11-21T22:10:41Z</time>
      </trkpt>
      <trkpt lat="42.79392944" lon="-1.68573781">
        <ele>467.29785</ele>
        <time>2019-11-21T22:10:42Z</time>
      </trkpt>
      <trkpt lat="42.79381495" lon="-1.68539299">
        <ele>467.97345</ele>
        <time>2019-11-21T22:10:43Z</time>
      </trkpt>
      <trkpt lat="42.79370321" lon="-1.68504798">
        <ele>469.45673</ele>
        <time>2019-11-21T22:10:44Z</time>
      </trkpt>
      <trkpt lat="42.79358471" lon="-1.68469853">
        <ele>470.5777</ele>
        <time>2019-11-21T22:10:45Z</time>
      </trkpt>
      <trkpt lat="42.79346565" lon="-1.68435239">
        <ele>471.727</ele>
        <time>2019-11-21T22:10:46Z</time>
      </trkpt>
      <trkpt lat="42.79334958" lon="-1.68399996">
        <ele>473.0445</ele>
        <time>2019-11-21T22:10:47Z</time>
      </trkpt>
      <trkpt lat="42.79324794" lon="-1.68365111">
        <ele>473.18494</ele>
        <time>2019-11-21T22:10:48Z</time>
      </trkpt>
      <trkpt lat="42.79315426" lon="-1.68329478">
        <ele>473.27448</ele>
        <time>2019-11-21T22:10:49Z</time>
      </trkpt>
      <trkpt lat="42.79306606" lon="-1.68292683">
        <ele>474.30383</ele>
        <time>2019-11-21T22:10:51Z</time>
      </trkpt>
      <trkpt lat="42.79298185" lon="-1.68255272">
        <ele>467.3142</ele>
        <time>2019-11-21T22:10:52Z</time>
      </trkpt>
      <trkpt lat="42.79290467" lon="-1.68218479">
        <ele>470.02057</ele>
        <time>2019-11-21T22:10:53Z</time>
      </trkpt>
      <trkpt lat="42.79284233" lon="-1.68180662">
        <ele>472.11737</ele>
        <time>2019-11-21T22:10:54Z</time>
      </trkpt>
      <trkpt lat="42.79279012" lon="-1.68144182">
        <ele>474.00342</ele>
        <time>2019-11-21T22:10:55Z</time>
      </trkpt>
      <trkpt lat="42.79273602" lon="-1.68107627">
        <ele>475.22473</ele>
        <time>2019-11-21T22:10:56Z</time>
      </trkpt>
      <trkpt lat="42.79267841" lon="-1.68068817">
        <ele>476.49072</ele>
        <time>2019-11-21T22:10:57Z</time>
      </trkpt>
      <trkpt lat="42.79261122" lon="-1.68031598">
        <ele>478.04785</ele>
        <time>2019-11-21T22:10:58Z</time>
      </trkpt>
      <trkpt lat="42.79253727" lon="-1.67993958">
        <ele>478.71167</ele>
        <time>2019-11-21T22:10:59Z</time>
      </trkpt>
      <trkpt lat="42.79244785" lon="-1.6795642">
        <ele>479.31024</ele>
        <time>2019-11-21T22:11:00Z</time>
      </trkpt>
      <trkpt lat="42.7923506" lon="-1.67919672">
        <ele>479.84412</ele>
        <time>2019-11-21T22:11:01Z</time>
      </trkpt>
      <trkpt lat="42.79212441" lon="-1.67848831">
        <ele>479.8974</ele>
        <time>2019-11-21T22:11:03Z</time>
      </trkpt>
      <trkpt lat="42.7920006" lon="-1.67814613">
        <ele>480.06018</ele>
        <time>2019-11-21T22:11:04Z</time>
      </trkpt>
      <trkpt lat="42.79173904" lon="-1.67749382">
        <ele>480.66577</ele>
        <time>2019-11-21T22:11:05Z</time>
      </trkpt>
      <trkpt lat="42.79162105" lon="-1.67717175">
        <ele>480.60876</ele>
        <time>2019-11-21T22:11:06Z</time>
      </trkpt>
      <trkpt lat="42.79151053" lon="-1.6768481">
        <ele>480.65918</ele>
        <time>2019-11-21T22:11:07Z</time>
      </trkpt>
      <trkpt lat="42.79140683" lon="-1.67651756">
        <ele>480.6942</ele>
        <time>2019-11-21T22:11:08Z</time>
      </trkpt>
      <trkpt lat="42.79131344" lon="-1.67617671">
        <ele>481.08142</ele>
        <time>2019-11-21T22:11:09Z</time>
      </trkpt>
      <trkpt lat="42.79122048" lon="-1.67582548">
        <ele>480.00342</ele>
        <time>2019-11-21T22:11:10Z</time>
      </trkpt>
      <trkpt lat="42.79114773" lon="-1.67547102">
        <ele>479.35297</ele>
        <time>2019-11-21T22:11:11Z</time>
      </trkpt>
      <trkpt lat="42.79107195" lon="-1.67511483">
        <ele>478.8139</ele>
        <time>2019-11-21T22:11:12Z</time>
      </trkpt>
      <trkpt lat="42.79101478" lon="-1.67475187">
        <ele>478.38757</ele>
        <time>2019-11-21T22:11:13Z</time>
      </trkpt>
      <trkpt lat="42.79096758" lon="-1.67440211">
        <ele>477.97302</ele>
        <time>2019-11-21T22:11:14Z</time>
      </trkpt>
      <trkpt lat="42.79093521" lon="-1.67403881">
        <ele>478.34808</ele>
        <time>2019-11-21T22:11:15Z</time>
      </trkpt>
      <trkpt lat="42.79091821" lon="-1.67367427">
        <ele>478.6106</ele>
        <time>2019-11-21T22:11:16Z</time>
      </trkpt>
      <trkpt lat="42.79090503" lon="-1.67330263">
        <ele>478.4391</ele>
        <time>2019-11-21T22:11:17Z</time>
      </trkpt>
      <trkpt lat="42.79090672" lon="-1.67294026">
        <ele>477.88904</ele>
        <time>2019-11-21T22:11:18Z</time>
      </trkpt>
      <trkpt lat="42.79091303" lon="-1.67257565">
        <ele>477.8496</ele>
        <time>2019-11-21T22:11:19Z</time>
      </trkpt>
      <trkpt lat="42.79093491" lon="-1.67221669">
        <ele>478.44788</ele>
        <time>2019-11-21T22:11:20Z</time>
      </trkpt>
      <trkpt lat="42.79096289" lon="-1.67186176">
        <ele>478.44952</ele>
        <time>2019-11-21T22:11:22Z</time>
      </trkpt>
      <trkpt lat="42.7909907" lon="-1.67151606">
        <ele>477.86572</ele>
        <time>2019-11-21T22:11:23Z</time>
      </trkpt>
      <trkpt lat="42.79101654" lon="-1.67115613">
        <ele>477.95996</ele>
        <time>2019-11-21T22:11:24Z</time>
      </trkpt>
      <trkpt lat="42.79103883" lon="-1.67081706">
        <ele>476.97388</ele>
        <time>2019-11-21T22:11:25Z</time>
      </trkpt>
      <trkpt lat="42.79105362" lon="-1.67045788">
        <ele>477.51294</ele>
        <time>2019-11-21T22:11:26Z</time>
      </trkpt>
      <trkpt lat="42.79105996" lon="-1.6700914">
        <ele>476.9668</ele>
        <time>2019-11-21T22:11:27Z</time>
      </trkpt>
      <trkpt lat="42.79105691" lon="-1.66972672">
        <ele>477.18085</ele>
        <time>2019-11-21T22:11:28Z</time>
      </trkpt>
      <trkpt lat="42.79104429" lon="-1.66936126">
        <ele>477.53894</ele>
        <time>2019-11-21T22:11:29Z</time>
      </trkpt>
      <trkpt lat="42.79101133" lon="-1.66898395">
        <ele>477.54858</ele>
        <time>2019-11-21T22:11:30Z</time>
      </trkpt>
      <trkpt lat="42.79096328" lon="-1.66861246">
        <ele>477.13824</ele>
        <time>2019-11-21T22:11:31Z</time>
      </trkpt>
      <trkpt lat="42.79090613" lon="-1.6682518">
        <ele>476.88953</ele>
        <time>2019-11-21T22:11:32Z</time>
      </trkpt>
      <trkpt lat="42.79084338" lon="-1.66788698">
        <ele>474.6394</ele>
        <time>2019-11-21T22:11:33Z</time>
      </trkpt>
      <trkpt lat="42.79066416" lon="-1.6671721">
        <ele>474.58856</ele>
        <time>2019-11-21T22:11:34Z</time>
      </trkpt>
      <trkpt lat="42.79055033" lon="-1.66679694">
        <ele>473.8764</ele>
        <time>2019-11-21T22:11:35Z</time>
      </trkpt>
      <trkpt lat="42.79042209" lon="-1.6664276">
        <ele>475.02173</ele>
        <time>2019-11-21T22:11:36Z</time>
      </trkpt>
      <trkpt lat="42.79030133" lon="-1.66607445">
        <ele>475.99658</ele>
        <time>2019-11-21T22:11:37Z</time>
      </trkpt>
      <trkpt lat="42.79018749" lon="-1.66572791">
        <ele>474.95056</ele>
        <time>2019-11-21T22:11:38Z</time>
      </trkpt>
      <trkpt lat="42.79007048" lon="-1.66539265">
        <ele>475.04187</ele>
        <time>2019-11-21T22:11:39Z</time>
      </trkpt>
      <trkpt lat="42.78995165" lon="-1.66505614">
        <ele>474.51337</ele>
        <time>2019-11-21T22:11:40Z</time>
      </trkpt>
      <trkpt lat="42.7898307" lon="-1.66472242">
        <ele>474.1864</ele>
        <time>2019-11-21T22:11:41Z</time>
      </trkpt>
      <trkpt lat="42.78971708" lon="-1.66439316">
        <ele>473.76135</ele>
        <time>2019-11-21T22:11:42Z</time>
      </trkpt>
      <trkpt lat="42.78959534" lon="-1.66406492">
        <ele>473.52173</ele>
        <time>2019-11-21T22:11:43Z</time>
      </trkpt>
      <trkpt lat="42.78946717" lon="-1.66373672">
        <ele>473.58734</ele>
        <time>2019-11-21T22:11:44Z</time>
      </trkpt>
      <trkpt lat="42.78933568" lon="-1.66340967">
        <ele>472.9021</ele>
        <time>2019-11-21T22:11:45Z</time>
      </trkpt>
      <trkpt lat="42.78920409" lon="-1.66308786">
        <ele>472.70654</ele>
        <time>2019-11-21T22:11:46Z</time>
      </trkpt>
      <trkpt lat="42.78906866" lon="-1.66275419">
        <ele>473.7589</ele>
        <time>2019-11-21T22:11:47Z</time>
      </trkpt>
      <trkpt lat="42.78893574" lon="-1.66243483">
        <ele>473.89673</ele>
        <time>2019-11-21T22:11:48Z</time>
      </trkpt>
      <trkpt lat="42.78880629" lon="-1.6621186">
        <ele>473.9038</ele>
        <time>2019-11-21T22:11:49Z</time>
      </trkpt>
      <trkpt lat="42.78867143" lon="-1.66180333">
        <ele>474.41882</ele>
        <time>2019-11-21T22:11:51Z</time>
      </trkpt>
      <trkpt lat="42.78853061" lon="-1.66149531">
        <ele>474.38617</ele>
        <time>2019-11-21T22:11:52Z</time>
      </trkpt>
      <trkpt lat="42.78839725" lon="-1.6611877">
        <ele>474.58588</ele>
        <time>2019-11-21T22:11:53Z</time>
      </trkpt>
      <trkpt lat="42.78826516" lon="-1.66088602">
        <ele>474.70538</ele>
        <time>2019-11-21T22:11:54Z</time>
      </trkpt>
      <trkpt lat="42.78813554" lon="-1.66059564">
        <ele>474.03485</ele>
        <time>2019-11-21T22:11:55Z</time>
      </trkpt>
      <trkpt lat="42.78799866" lon="-1.66030004">
        <ele>473.9779</ele>
        <time>2019-11-21T22:11:56Z</time>
      </trkpt>
      <trkpt lat="42.78786496" lon="-1.66000233">
        <ele>474.5415</ele>
        <time>2019-11-21T22:11:57Z</time>
      </trkpt>
      <trkpt lat="42.78773232" lon="-1.65970328">
        <ele>474.25153</ele>
        <time>2019-11-21T22:11:58Z</time>
      </trkpt>
      <trkpt lat="42.78760057" lon="-1.65940117">
        <ele>474.38788</ele>
        <time>2019-11-21T22:11:59Z</time>
      </trkpt>
      <trkpt lat="42.78747324" lon="-1.65909733">
        <ele>474.8717</ele>
        <time>2019-11-21T22:12:00Z</time>
      </trkpt>
      <trkpt lat="42.78735272" lon="-1.65879239">
        <ele>475.27747</ele>
        <time>2019-11-21T22:12:01Z</time>
      </trkpt>
      <trkpt lat="42.78722791" lon="-1.6584796">
        <ele>475.36658</ele>
        <time>2019-11-21T22:12:02Z</time>
      </trkpt>
      <trkpt lat="42.78710504" lon="-1.65816813">
        <ele>475.81146</ele>
        <time>2019-11-21T22:12:03Z</time>
      </trkpt>
      <trkpt lat="42.78686868" lon="-1.65754761">
        <ele>475.77307</ele>
        <time>2019-11-21T22:12:04Z</time>
      </trkpt>
      <trkpt lat="42.78675465" lon="-1.65724695">
        <ele>476.7909</ele>
        <time>2019-11-21T22:12:05Z</time>
      </trkpt>
      <trkpt lat="42.78663928" lon="-1.65694337">
        <ele>477.41357</ele>
        <time>2019-11-21T22:12:06Z</time>
      </trkpt>
      <trkpt lat="42.78652682" lon="-1.65664013">
        <ele>477.92578</ele>
        <time>2019-11-21T22:12:07Z</time>
      </trkpt>
      <trkpt lat="42.78641874" lon="-1.65634104">
        <ele>478.19177</ele>
        <time>2019-11-21T22:12:08Z</time>
      </trkpt>
      <trkpt lat="42.7863141" lon="-1.65604148">
        <ele>478.6543</ele>
        <time>2019-11-21T22:12:09Z</time>
      </trkpt>
      <trkpt lat="42.78621114" lon="-1.65574364">
        <ele>479.04187</ele>
        <time>2019-11-21T22:12:10Z</time>
      </trkpt>
      <trkpt lat="42.78611174" lon="-1.65543951">
        <ele>480.20148</ele>
        <time>2019-11-21T22:12:11Z</time>
      </trkpt>
      <trkpt lat="42.78600812" lon="-1.65513005">
        <ele>482.5631</ele>
        <time>2019-11-21T22:12:12Z</time>
      </trkpt>
      <trkpt lat="42.78589663" lon="-1.65482925">
        <ele>484.17688</ele>
        <time>2019-11-21T22:12:13Z</time>
      </trkpt>
      <trkpt lat="42.78580295" lon="-1.65454109">
        <ele>485.48047</ele>
        <time>2019-11-21T22:12:14Z</time>
      </trkpt>
      <trkpt lat="42.7857162" lon="-1.65425379">
        <ele>486.53986</ele>
        <time>2019-11-21T22:12:15Z</time>
      </trkpt>
      <trkpt lat="42.78562871" lon="-1.6539697">
        <ele>487.78864</ele>
        <time>2019-11-21T22:12:16Z</time>
      </trkpt>
      <trkpt lat="42.78554503" lon="-1.65369825">
        <ele>488.2079</ele>
        <time>2019-11-21T22:12:17Z</time>
      </trkpt>
      <trkpt lat="42.78546474" lon="-1.65342646">
        <ele>489.63757</ele>
        <time>2019-11-21T22:12:18Z</time>
      </trkpt>
      <trkpt lat="42.78538895" lon="-1.65316218">
        <ele>490.54773</ele>
        <time>2019-11-21T22:12:20Z</time>
      </trkpt>
      <trkpt lat="42.78531494" lon="-1.65290477">
        <ele>491.0255</ele>
        <time>2019-11-21T22:12:21Z</time>
      </trkpt>
      <trkpt lat="42.78524975" lon="-1.6526558">
        <ele>491.3949</ele>
        <time>2019-11-21T22:12:22Z</time>
      </trkpt>
      <trkpt lat="42.78517827" lon="-1.65240559">
        <ele>491.49048</ele>
        <time>2019-11-21T22:12:23Z</time>
      </trkpt>
      <trkpt lat="42.78510853" lon="-1.65215518">
        <ele>491.1648</ele>
        <time>2019-11-21T22:12:24Z</time>
      </trkpt>
      <trkpt lat="42.78503966" lon="-1.65191162">
        <ele>491.33307</ele>
        <time>2019-11-21T22:12:25Z</time>
      </trkpt>
      <trkpt lat="42.78497716" lon="-1.65167658">
        <ele>491.68066</ele>
        <time>2019-11-21T22:12:26Z</time>
      </trkpt>
      <trkpt lat="42.78491638" lon="-1.65144576">
        <ele>491.979</ele>
        <time>2019-11-21T22:12:27Z</time>
      </trkpt>
      <trkpt lat="42.78485849" lon="-1.65121137">
        <ele>492.6942</ele>
        <time>2019-11-21T22:12:28Z</time>
      </trkpt>
      <trkpt lat="42.78480731" lon="-1.65097244">
        <ele>493.85382</ele>
        <time>2019-11-21T22:12:29Z</time>
      </trkpt>
      <trkpt lat="42.78474845" lon="-1.6507246">
        <ele>494.3025</ele>
        <time>2019-11-21T22:12:30Z</time>
      </trkpt>
      <trkpt lat="42.78469281" lon="-1.65047929">
        <ele>494.69763</ele>
        <time>2019-11-21T22:12:31Z</time>
      </trkpt>
      <trkpt lat="42.78464816" lon="-1.65023555">
        <ele>494.98376</ele>
        <time>2019-11-21T22:12:32Z</time>
      </trkpt>
      <trkpt lat="42.7845637" lon="-1.64976694">
        <ele>497.36395</ele>
        <time>2019-11-21T22:12:33Z</time>
      </trkpt>
      <trkpt lat="42.7845253" lon="-1.64953806">
        <ele>498.58484</ele>
        <time>2019-11-21T22:12:34Z</time>
      </trkpt>
      <trkpt lat="42.78449482" lon="-1.64930418">
        <ele>499.1294</ele>
        <time>2019-11-21T22:12:35Z</time>
      </trkpt>
      <trkpt lat="42.78446372" lon="-1.64906748">
        <ele>500.06848</ele>
        <time>2019-11-21T22:12:36Z</time>
      </trkpt>
      <trkpt lat="42.78443236" lon="-1.6488263">
        <ele>500.3092</ele>
        <time>2019-11-21T22:12:37Z</time>
      </trkpt>
      <trkpt lat="42.78440385" lon="-1.64857814">
        <ele>500.72095</ele>
        <time>2019-11-21T22:12:38Z</time>
      </trkpt>
      <trkpt lat="42.78437613" lon="-1.64833433">
        <ele>500.82324</ele>
        <time>2019-11-21T22:12:39Z</time>
      </trkpt>
      <trkpt lat="42.78435617" lon="-1.64809214">
        <ele>499.58752</ele>
        <time>2019-11-21T22:12:40Z</time>
      </trkpt>
      <trkpt lat="42.7843374" lon="-1.64784601">
        <ele>499.55164</ele>
        <time>2019-11-21T22:12:41Z</time>
      </trkpt>
      <trkpt lat="42.78432188" lon="-1.64760504">
        <ele>499.50574</ele>
        <time>2019-11-21T22:12:42Z</time>
      </trkpt>
      <trkpt lat="42.78431175" lon="-1.64736132">
        <ele>499.41803</ele>
        <time>2019-11-21T22:12:43Z</time>
      </trkpt>
      <trkpt lat="42.78430376" lon="-1.6471137">
        <ele>499.13562</ele>
        <time>2019-11-21T22:12:44Z</time>
      </trkpt>
      <trkpt lat="42.78429787" lon="-1.64686761">
        <ele>493.99377</ele>
        <time>2019-11-21T22:12:45Z</time>
      </trkpt>
      <trkpt lat="42.78428653" lon="-1.64660537">
        <ele>496.01416</ele>
        <time>2019-11-21T22:12:46Z</time>
      </trkpt>
      <trkpt lat="42.78428221" lon="-1.64634514">
        <ele>495.7754</ele>
        <time>2019-11-21T22:12:47Z</time>
      </trkpt>
      <trkpt lat="42.78427902" lon="-1.64608038">
        <ele>497.37842</ele>
        <time>2019-11-21T22:12:48Z</time>
      </trkpt>
      <trkpt lat="42.78428605" lon="-1.6458182">
        <ele>498.0398</ele>
        <time>2019-11-21T22:12:50Z</time>
      </trkpt>
      <trkpt lat="42.78428279" lon="-1.64554719">
        <ele>498.85193</ele>
        <time>2019-11-21T22:12:51Z</time>
      </trkpt>
      <trkpt lat="42.78430795" lon="-1.6452976">
        <ele>498.4961</ele>
        <time>2019-11-21T22:12:52Z</time>
      </trkpt>
      <trkpt lat="42.78433512" lon="-1.64506571">
        <ele>496.1964</ele>
        <time>2019-11-21T22:12:53Z</time>
      </trkpt>
      <trkpt lat="42.78435261" lon="-1.64480745">
        <ele>496.2079</ele>
        <time>2019-11-21T22:12:54Z</time>
      </trkpt>
      <trkpt lat="42.78436892" lon="-1.64454537">
        <ele>495.2019</ele>
        <time>2019-11-21T22:12:55Z</time>
      </trkpt>
      <trkpt lat="42.78438388" lon="-1.6442842">
        <ele>494.53296</ele>
        <time>2019-11-21T22:12:56Z</time>
      </trkpt>
      <trkpt lat="42.78440348" lon="-1.64403053">
        <ele>494.81702</ele>
        <time>2019-11-21T22:12:57Z</time>
      </trkpt>
      <trkpt lat="42.78442878" lon="-1.64377711">
        <ele>495.11774</ele>
        <time>2019-11-21T22:12:58Z</time>
      </trkpt>
      <trkpt lat="42.78445256" lon="-1.64351853">
        <ele>495.25452</ele>
        <time>2019-11-21T22:12:59Z</time>
      </trkpt>
      <trkpt lat="42.78448112" lon="-1.64325972">
        <ele>495.64917</ele>
        <time>2019-11-21T22:13:00Z</time>
      </trkpt>
      <trkpt lat="42.78450541" lon="-1.64300636">
        <ele>495.82715</ele>
        <time>2019-11-21T22:13:01Z</time>
      </trkpt>
      <trkpt lat="42.78454721" lon="-1.64249604">
        <ele>494.846</ele>
        <time>2019-11-21T22:13:02Z</time>
      </trkpt>
      <trkpt lat="42.78456542" lon="-1.64223726">
        <ele>494.3047</ele>
        <time>2019-11-21T22:13:03Z</time>
      </trkpt>
      <trkpt lat="42.78458152" lon="-1.6419798">
        <ele>494.63568</ele>
        <time>2019-11-21T22:13:04Z</time>
      </trkpt>
      <trkpt lat="42.78458865" lon="-1.64173312">
        <ele>494.33325</ele>
        <time>2019-11-21T22:13:05Z</time>
      </trkpt>
      <trkpt lat="42.7845827" lon="-1.64148367">
        <ele>494.4923</ele>
        <time>2019-11-21T22:13:06Z</time>
      </trkpt>
      <trkpt lat="42.78457103" lon="-1.64124706">
        <ele>494.23694</ele>
        <time>2019-11-21T22:13:07Z</time>
      </trkpt>
      <trkpt lat="42.78455467" lon="-1.64100287">
        <ele>495.55353</ele>
        <time>2019-11-21T22:13:08Z</time>
      </trkpt>
      <trkpt lat="42.78453118" lon="-1.64076532">
        <ele>495.86768</ele>
        <time>2019-11-21T22:13:09Z</time>
      </trkpt>
      <trkpt lat="42.78450993" lon="-1.64052807">
        <ele>495.33612</ele>
        <time>2019-11-21T22:13:10Z</time>
      </trkpt>
      <trkpt lat="42.7844819" lon="-1.64028407">
        <ele>494.03687</ele>
        <time>2019-11-21T22:13:11Z</time>
      </trkpt>
      <trkpt lat="42.78444755" lon="-1.64003837">
        <ele>493.80627</ele>
        <time>2019-11-21T22:13:12Z</time>
      </trkpt>
      <trkpt lat="42.78441003" lon="-1.63980072">
        <ele>494.53296</ele>
        <time>2019-11-21T22:13:13Z</time>
      </trkpt>
      <trkpt lat="42.78436386" lon="-1.63956335">
        <ele>493.84644</ele>
        <time>2019-11-21T22:13:14Z</time>
      </trkpt>
      <trkpt lat="42.78431561" lon="-1.63933122">
        <ele>493.01404</ele>
        <time>2019-11-21T22:13:15Z</time>
      </trkpt>
      <trkpt lat="42.78425708" lon="-1.63908201">
        <ele>492.81354</ele>
        <time>2019-11-21T22:13:16Z</time>
      </trkpt>
      <trkpt lat="42.78420218" lon="-1.63885539">
        <ele>492.5998</ele>
        <time>2019-11-21T22:13:17Z</time>
      </trkpt>
      <trkpt lat="42.78413983" lon="-1.63863085">
        <ele>492.388</ele>
        <time>2019-11-21T22:13:18Z</time>
      </trkpt>
      <trkpt lat="42.78407156" lon="-1.638404">
        <ele>492.8675</ele>
        <time>2019-11-21T22:13:20Z</time>
      </trkpt>
      <trkpt lat="42.78399286" lon="-1.63819011">
        <ele>493.0395</ele>
        <time>2019-11-21T22:13:21Z</time>
      </trkpt>
      <trkpt lat="42.78391409" lon="-1.63798984">
        <ele>493.5017</ele>
        <time>2019-11-21T22:13:22Z</time>
      </trkpt>
      <trkpt lat="42.78381853" lon="-1.63778994">
        <ele>494.437</ele>
        <time>2019-11-21T22:13:23Z</time>
      </trkpt>
      <trkpt lat="42.78373256" lon="-1.63761457">
        <ele>495.23456</ele>
        <time>2019-11-21T22:13:24Z</time>
      </trkpt>
      <trkpt lat="42.78365452" lon="-1.63744122">
        <ele>493.84204</ele>
        <time>2019-11-21T22:13:25Z</time>
      </trkpt>
      <trkpt lat="42.78355745" lon="-1.63725753">
        <ele>495.4801</ele>
        <time>2019-11-21T22:13:26Z</time>
      </trkpt>
      <trkpt lat="42.78346635" lon="-1.63708279">
        <ele>495.39233</ele>
        <time>2019-11-21T22:13:27Z</time>
      </trkpt>
      <trkpt lat="42.78336262" lon="-1.63691351">
        <ele>496.00122</ele>
        <time>2019-11-21T22:13:28Z</time>
      </trkpt>
      <trkpt lat="42.78326401" lon="-1.63674597">
        <ele>495.60474</ele>
        <time>2019-11-21T22:13:29Z</time>
      </trkpt>
      <trkpt lat="42.78315179" lon="-1.6365932">
        <ele>496.32886</ele>
        <time>2019-11-21T22:13:30Z</time>
      </trkpt>
      <trkpt lat="42.78304132" lon="-1.63645856">
        <ele>496.59265</ele>
        <time>2019-11-21T22:13:31Z</time>
      </trkpt>
      <trkpt lat="42.78280806" lon="-1.63622834">
        <ele>496.4112</ele>
        <time>2019-11-21T22:13:32Z</time>
      </trkpt>
      <trkpt lat="42.78268405" lon="-1.63611095">
        <ele>496.71887</ele>
        <time>2019-11-21T22:13:33Z</time>
      </trkpt>
      <trkpt lat="42.78256276" lon="-1.63600311">
        <ele>496.84802</ele>
        <time>2019-11-21T22:13:34Z</time>
      </trkpt>
      <trkpt lat="42.7824332" lon="-1.63590067">
        <ele>496.5852</ele>
        <time>2019-11-21T22:13:35Z</time>
      </trkpt>
      <trkpt lat="42.78229758" lon="-1.63580772">
        <ele>496.54352</ele>
        <time>2019-11-21T22:13:36Z</time>
      </trkpt>
      <trkpt lat="42.78216232" lon="-1.6357216">
        <ele>496.51282</ele>
        <time>2019-11-21T22:13:37Z</time>
      </trkpt>
      <trkpt lat="42.78202752" lon="-1.63564656">
        <ele>496.10382</ele>
        <time>2019-11-21T22:13:38Z</time>
      </trkpt>
      <trkpt lat="42.78188654" lon="-1.63558515">
        <ele>495.77515</ele>
        <time>2019-11-21T22:13:39Z</time>
      </trkpt>
      <trkpt lat="42.78174907" lon="-1.63553193">
        <ele>495.38965</ele>
        <time>2019-11-21T22:13:40Z</time>
      </trkpt>
      <trkpt lat="42.78161545" lon="-1.63548696">
        <ele>495.05145</ele>
        <time>2019-11-21T22:13:41Z</time>
      </trkpt>
      <trkpt lat="42.78147073" lon="-1.63545533">
        <ele>495.87146</ele>
        <time>2019-11-21T22:13:42Z</time>
      </trkpt>
      <trkpt lat="42.78120108" lon="-1.63540726">
        <ele>494.72833</ele>
        <time>2019-11-21T22:13:44Z</time>
      </trkpt>
      <trkpt lat="42.78104975" lon="-1.6353898">
        <ele>488.22437</ele>
        <time>2019-11-21T22:13:45Z</time>
      </trkpt>
      <trkpt lat="42.78090254" lon="-1.63536968">
        <ele>490.88892</ele>
        <time>2019-11-21T22:13:46Z</time>
      </trkpt>
      <trkpt lat="42.78075751" lon="-1.63534635">
        <ele>493.64117</ele>
        <time>2019-11-21T22:13:47Z</time>
      </trkpt>
      <trkpt lat="42.78061203" lon="-1.6353188">
        <ele>494.40576</ele>
        <time>2019-11-21T22:13:49Z</time>
      </trkpt>
      <trkpt lat="42.78047662" lon="-1.63527557">
        <ele>494.89227</ele>
        <time>2019-11-21T22:13:50Z</time>
      </trkpt>
      <trkpt lat="42.7803318" lon="-1.63521761">
        <ele>495.15234</ele>
        <time>2019-11-21T22:13:51Z</time>
      </trkpt>
      <trkpt lat="42.78018739" lon="-1.63513628">
        <ele>494.51404</ele>
        <time>2019-11-21T22:13:52Z</time>
      </trkpt>
      <trkpt lat="42.78004387" lon="-1.63505666">
        <ele>495.22192</ele>
        <time>2019-11-21T22:13:53Z</time>
      </trkpt>
      <trkpt lat="42.77990992" lon="-1.63496358">
        <ele>495.15863</ele>
        <time>2019-11-21T22:13:54Z</time>
      </trkpt>
      <trkpt lat="42.77977692" lon="-1.63487259">
        <ele>494.9666</ele>
        <time>2019-11-21T22:13:55Z</time>
      </trkpt>
      <trkpt lat="42.77963925" lon="-1.63478911">
        <ele>496.24817</ele>
        <time>2019-11-21T22:13:56Z</time>
      </trkpt>
      <trkpt lat="42.77950315" lon="-1.63472361">
        <ele>495.96497</ele>
        <time>2019-11-21T22:13:57Z</time>
      </trkpt>
      <trkpt lat="42.77923832" lon="-1.63466021">
        <ele>494.64276</ele>
        <time>2019-11-21T22:13:59Z</time>
      </trkpt>
      <trkpt lat="42.77907536" lon="-1.6346743">
        <ele>494.85962</ele>
        <time>2019-11-21T22:14:00Z</time>
      </trkpt>
      <trkpt lat="42.77876533" lon="-1.6347491">
        <ele>494.55988</ele>
        <time>2019-11-21T22:14:01Z</time>
      </trkpt>
      <trkpt lat="42.77861205" lon="-1.6348055">
        <ele>494.6037</ele>
        <time>2019-11-21T22:14:02Z</time>
      </trkpt>
      <trkpt lat="42.77846452" lon="-1.63486683">
        <ele>495.75592</ele>
        <time>2019-11-21T22:14:03Z</time>
      </trkpt>
      <trkpt lat="42.77832137" lon="-1.63492173">
        <ele>496.57812</ele>
        <time>2019-11-21T22:14:04Z</time>
      </trkpt>
      <trkpt lat="42.77817061" lon="-1.63496533">
        <ele>496.8786</ele>
        <time>2019-11-21T22:14:05Z</time>
      </trkpt>
      <trkpt lat="42.77801708" lon="-1.6349984">
        <ele>496.8954</ele>
        <time>2019-11-21T22:14:06Z</time>
      </trkpt>
      <trkpt lat="42.77785752" lon="-1.63501646">
        <ele>496.85138</ele>
        <time>2019-11-21T22:14:07Z</time>
      </trkpt>
      <trkpt lat="42.77769924" lon="-1.63502306">
        <ele>497.48798</ele>
        <time>2019-11-21T22:14:08Z</time>
      </trkpt>
      <trkpt lat="42.77754702" lon="-1.63503325">
        <ele>497.75916</ele>
        <time>2019-11-21T22:14:09Z</time>
      </trkpt>
      <trkpt lat="42.7774102" lon="-1.63504082">
        <ele>495.53516</ele>
        <time>2019-11-21T22:14:10Z</time>
      </trkpt>
      <trkpt lat="42.77714587" lon="-1.63505425">
        <ele>493.9519</ele>
        <time>2019-11-21T22:14:12Z</time>
      </trkpt>
      <trkpt lat="42.77688575" lon="-1.63507318">
        <ele>495.19043</ele>
        <time>2019-11-21T22:14:14Z</time>
      </trkpt>
      <trkpt lat="42.77662958" lon="-1.63509664">
        <ele>496.0017</ele>
        <time>2019-11-21T22:14:16Z</time>
      </trkpt>
      <trkpt lat="42.77637865" lon="-1.63511377">
        <ele>496.5926</ele>
        <time>2019-11-21T22:14:19Z</time>
      </trkpt>
      <trkpt lat="42.77613941" lon="-1.63513233">
        <ele>496.79834</ele>
        <time>2019-11-21T22:14:21Z</time>
      </trkpt>
      <trkpt lat="42.77589788" lon="-1.63514242">
        <ele>497.22705</ele>
        <time>2019-11-21T22:14:23Z</time>
      </trkpt>
      <trkpt lat="42.77567106" lon="-1.63515498">
        <ele>495.174</ele>
        <time>2019-11-21T22:14:25Z</time>
      </trkpt>
      <trkpt lat="42.77545469" lon="-1.63516799">
        <ele>493.84753</ele>
        <time>2019-11-21T22:14:27Z</time>
      </trkpt>
      <trkpt lat="42.77525616" lon="-1.63517268">
        <ele>494.6023</ele>
        <time>2019-11-21T22:14:29Z</time>
      </trkpt>
      <trkpt lat="42.77509713" lon="-1.63518583">
        <ele>494.01184</ele>
        <time>2019-11-21T22:14:30Z</time>
      </trkpt>
      <trkpt lat="42.77491595" lon="-1.63521447">
        <ele>492.9381</ele>
        <time>2019-11-21T22:14:33Z</time>
      </trkpt>
      <trkpt lat="42.77476398" lon="-1.6353111">
        <ele>494.29688</ele>
        <time>2019-11-21T22:14:36Z</time>
      </trkpt>
      <trkpt lat="42.77463607" lon="-1.63540215">
        <ele>495.57153</ele>
        <time>2019-11-21T22:14:38Z</time>
      </trkpt>
      <trkpt lat="42.77449859" lon="-1.63539375">
        <ele>494.85278</ele>
        <time>2019-11-21T22:14:40Z</time>
      </trkpt>
      <trkpt lat="42.77438795" lon="-1.63528596">
        <ele>495.43738</ele>
        <time>2019-11-21T22:14:42Z</time>
      </trkpt>
      <trkpt lat="42.7743396" lon="-1.63510904">
        <ele>494.30444</ele>
        <time>2019-11-21T22:14:44Z</time>
      </trkpt>
      <trkpt lat="42.77437437" lon="-1.63493034">
        <ele>493.54285</ele>
        <time>2019-11-21T22:14:47Z</time>
      </trkpt>
      <trkpt lat="42.77448034" lon="-1.63479201">
        <ele>495.58673</ele>
        <time>2019-11-21T22:14:49Z</time>
      </trkpt>
      <trkpt lat="42.77461468" lon="-1.63459867">
        <ele>496.72742</ele>
        <time>2019-11-21T22:14:51Z</time>
      </trkpt>
      <trkpt lat="42.77472395" lon="-1.63434929">
        <ele>495.01367</ele>
        <time>2019-11-21T22:14:53Z</time>
      </trkpt>
      <trkpt lat="42.77477911" lon="-1.63414117">
        <ele>496.22974</ele>
        <time>2019-11-21T22:14:55Z</time>
      </trkpt>
      <trkpt lat="42.77481458" lon="-1.63395852">
        <ele>495.79175</ele>
        <time>2019-11-21T22:14:56Z</time>
      </trkpt>
      <trkpt lat="42.77473428" lon="-1.63372001">
        <ele>495.29272</ele>
        <time>2019-11-21T22:14:59Z</time>
      </trkpt>
      <trkpt lat="42.77457973" lon="-1.63366768">
        <ele>493.95563</ele>
        <time>2019-11-21T22:15:02Z</time>
      </trkpt>
      <trkpt lat="42.77442978" lon="-1.6336578">
        <ele>493.53857</ele>
        <time>2019-11-21T22:15:04Z</time>
      </trkpt>
      <trkpt lat="42.77426261" lon="-1.63364496">
        <ele>494.2506</ele>
        <time>2019-11-21T22:15:06Z</time>
      </trkpt>
      <trkpt lat="42.7740863" lon="-1.63363014">
        <ele>494.35266</ele>
        <time>2019-11-21T22:15:08Z</time>
      </trkpt>
      <trkpt lat="42.77391544" lon="-1.63361201">
        <ele>492.89502</ele>
        <time>2019-11-21T22:15:10Z</time>
      </trkpt>
      <trkpt lat="42.77371011" lon="-1.63360342">
        <ele>493.29175</ele>
        <time>2019-11-21T22:15:12Z</time>
      </trkpt>
      <trkpt lat="42.77353266" lon="-1.6335721">
        <ele>489.823</ele>
        <time>2019-11-21T22:15:15Z</time>
      </trkpt>
      <trkpt lat="42.77330523" lon="-1.6335709">
        <ele>492.1454</ele>
        <time>2019-11-21T22:15:17Z</time>
      </trkpt>
      <trkpt lat="42.77310042" lon="-1.63355323">
        <ele>492.5166</ele>
        <time>2019-11-21T22:15:19Z</time>
      </trkpt>
      <trkpt lat="42.77289446" lon="-1.63353976">
        <ele>491.3905</ele>
        <time>2019-11-21T22:15:21Z</time>
      </trkpt>
      <trkpt lat="42.77268594" lon="-1.63352533">
        <ele>491.22424</ele>
        <time>2019-11-21T22:15:23Z</time>
      </trkpt>
      <trkpt lat="42.77248354" lon="-1.63351657">
        <ele>490.74988</ele>
        <time>2019-11-21T22:15:25Z</time>
      </trkpt>
      <trkpt lat="42.77227821" lon="-1.63349719">
        <ele>492.88776</ele>
        <time>2019-11-21T22:15:27Z</time>
      </trkpt>
      <trkpt lat="42.77208021" lon="-1.63347288">
        <ele>492.31177</ele>
        <time>2019-11-21T22:15:28Z</time>
      </trkpt>
      <trkpt lat="42.77188308" lon="-1.63345268">
        <ele>492.35535</ele>
        <time>2019-11-21T22:15:30Z</time>
      </trkpt>
      <trkpt lat="42.77168746" lon="-1.63342524">
        <ele>493.09924</ele>
        <time>2019-11-21T22:15:32Z</time>
      </trkpt>
      <trkpt lat="42.77148957" lon="-1.63339445">
        <ele>493.2281</ele>
        <time>2019-11-21T22:15:34Z</time>
      </trkpt>
      <trkpt lat="42.77128402" lon="-1.63337292">
        <ele>494.03064</ele>
        <time>2019-11-21T22:15:36Z</time>
      </trkpt>
      <trkpt lat="42.77108862" lon="-1.63335361">
        <ele>493.59546</ele>
        <time>2019-11-21T22:15:38Z</time>
      </trkpt>
      <trkpt lat="42.77090121" lon="-1.63334029">
        <ele>494.06915</ele>
        <time>2019-11-21T22:15:40Z</time>
      </trkpt>
      <trkpt lat="42.77074759" lon="-1.63333451">
        <ele>494.36377</ele>
        <time>2019-11-21T22:15:42Z</time>
      </trkpt>
      <trkpt lat="42.77060213" lon="-1.63332091">
        <ele>494.1333</ele>
        <time>2019-11-21T22:15:46Z</time>
      </trkpt>
      <trkpt lat="42.77050076" lon="-1.6331641">
        <ele>488.99213</ele>
        <time>2019-11-21T22:15:51Z</time>
      </trkpt>
      <trkpt lat="42.7704923" lon="-1.63288612">
        <ele>488.5448</ele>
        <time>2019-11-21T22:15:54Z</time>
      </trkpt>
      <trkpt lat="42.77050183" lon="-1.63267197">
        <ele>488.4958</ele>
        <time>2019-11-21T22:15:56Z</time>
      </trkpt>
      <trkpt lat="42.77051383" lon="-1.63248376">
        <ele>487.24042</ele>
        <time>2019-11-21T22:16:02Z</time>
      </trkpt>
      <trkpt lat="42.77052917" lon="-1.63223859">
        <ele>487.0802</ele>
        <time>2019-11-21T22:16:05Z</time>
      </trkpt>
      <trkpt lat="42.77054627" lon="-1.63202153">
        <ele>487.26178</ele>
        <time>2019-11-21T22:16:07Z</time>
      </trkpt>
      <trkpt lat="42.77055442" lon="-1.63180453">
        <ele>487.35254</ele>
        <time>2019-11-21T22:16:09Z</time>
      </trkpt>
      <trkpt lat="42.77057607" lon="-1.63160193">
        <ele>486.16235</ele>
        <time>2019-11-21T22:16:12Z</time>
      </trkpt>
      <trkpt lat="42.77061398" lon="-1.63142397">
        <ele>482.844</ele>
        <time>2019-11-21T22:16:14Z</time>
      </trkpt>
      <trkpt lat="42.77063913" lon="-1.63120824">
        <ele>483.11603</ele>
        <time>2019-11-21T22:16:17Z</time>
      </trkpt>
      <trkpt lat="42.77086507" lon="-1.63130058">
        <ele>499.61768</ele>
        <time>2019-11-21T22:18:55Z</time>
      </trkpt>
      <trkpt lat="42.770817" lon="-1.63111841">
        <ele>501.3496</ele>
        <time>2019-11-21T22:24:25Z</time>
      </trkpt>
      <trkpt lat="42.77073989" lon="-1.6309348">
        <ele>499.21753</ele>
        <time>2019-11-21T22:24:34Z</time>
      </trkpt>
      <trkpt lat="42.77064574" lon="-1.63080186">
        <ele>504.4502</ele>
        <time>2019-11-21T22:25:21Z</time>
      </trkpt>
      <trkpt lat="42.7708895" lon="-1.63084164">
        <ele>489.23608</ele>
        <time>2019-11-21T22:27:16Z</time>
      </trkpt>
      <trkpt lat="42.77099882" lon="-1.63082668">
        <ele>487.08313</ele>
        <time>2019-11-21T22:27:31Z</time>
      </trkpt>
    </trkseg>
  </trk>
</gpx>
